<?xml version='1.0' encoding='UTF-8'?><gpx version="1.1" creator="JPX - https://github.com/jenetics/jpx" xmlns="http://www.topografix.com/GPX/1/1"><trk><trkseg><trkpt lat="45.7149324" lon="11.3088989"><ele>246.99999999999997</ele><time>2026-04-12T07:40:05.793Z</time></trkpt><trkpt lat="45.7148725" lon="11.3088492"><ele>247.0</ele><time>2026-04-12T07:40:09.793Z</time></trkpt><trkpt lat="45.7148116" lon="11.3088004"><ele>247.0</ele><time>2026-04-12T07:41:03.793Z</time></trkpt><trkpt lat="45.7148375" lon="11.3089013"><ele>247.0</ele><time>2026-04-12T07:43:31.792Z</time></trkpt><trkpt lat="45.7149065" lon="11.3089488"><ele>246.99999999999997</ele><time>2026-04-12T07:43:33.792Z</time></trkpt><trkpt lat="45.7150036" lon="11.3089824"><ele>247.0</ele><time>2026-04-12T07:43:35.791Z</time></trkpt><trkpt lat="45.7150928" lon="11.3090133"><ele>246.0</ele><time>2026-04-12T07:43:37.791Z</time></trkpt><trkpt lat="45.7151327" lon="11.3090973"><ele>245.0</ele><time>2026-04-12T07:43:39.792Z</time></trkpt><trkpt lat="45.7150976" lon="11.309211"><ele>244.0</ele><time>2026-04-12T07:43:41.791Z</time></trkpt><trkpt lat="45.7149944" lon="11.3093589"><ele>243.0</ele><time>2026-04-12T07:43:43.792Z</time></trkpt><trkpt lat="45.7149205" lon="11.3094644"><ele>242.0</ele><time>2026-04-12T07:43:44.792Z</time></trkpt><trkpt lat="45.7148415" lon="11.3095744"><ele>242.0</ele><time>2026-04-12T07:43:45.791Z</time></trkpt><trkpt lat="45.7147726" lon="11.3096815"><ele>242.0</ele><time>2026-04-12T07:43:46.792Z</time></trkpt><trkpt lat="45.7147078" lon="11.3097785"><ele>242.0</ele><time>2026-04-12T07:43:47.792Z</time></trkpt><trkpt lat="45.714643" lon="11.3098844"><ele>242.0</ele><time>2026-04-12T07:43:48.792Z</time></trkpt><trkpt lat="45.7145814" lon="11.3100027"><ele>242.0</ele><time>2026-04-12T07:43:49.792Z</time></trkpt><trkpt lat="45.7145239" lon="11.310143"><ele>241.75</ele><time>2026-04-12T07:43:50.791Z</time></trkpt><trkpt lat="45.714468" lon="11.3102935"><ele>241.5</ele><time>2026-04-12T07:43:51.792Z</time></trkpt><trkpt lat="45.7144127" lon="11.3104593"><ele>241.25</ele><time>2026-04-12T07:43:52.791Z</time></trkpt><trkpt lat="45.7143644" lon="11.3106308"><ele>241.0</ele><time>2026-04-12T07:43:53.791Z</time></trkpt><trkpt lat="45.7143115" lon="11.3108069"><ele>243.5</ele><time>2026-04-12T07:43:54.792Z</time></trkpt><trkpt lat="45.7142554" lon="11.3109678"><ele>246.0</ele><time>2026-04-12T07:43:55.792Z</time></trkpt><trkpt lat="45.7142049" lon="11.3111346"><ele>248.5</ele><time>2026-04-12T07:43:56.791Z</time></trkpt><trkpt lat="45.7141635" lon="11.3113031"><ele>251.0</ele><time>2026-04-12T07:43:57.792Z</time></trkpt><trkpt lat="45.7141388" lon="11.3114788"><ele>251.0</ele><time>2026-04-12T07:43:58.791Z</time></trkpt><trkpt lat="45.714117" lon="11.311668"><ele>251.0</ele><time>2026-04-12T07:43:59.791Z</time></trkpt><trkpt lat="45.7140966" lon="11.3118577"><ele>251.0</ele><time>2026-04-12T07:44:00.791Z</time></trkpt><trkpt lat="45.7140698" lon="11.3120483"><ele>251.0</ele><time>2026-04-12T07:44:01.792Z</time></trkpt><trkpt lat="45.7140317" lon="11.3122374"><ele>249.5</ele><time>2026-04-12T07:44:02.791Z</time></trkpt><trkpt lat="45.7139776" lon="11.3124319"><ele>248.0</ele><time>2026-04-12T07:44:03.791Z</time></trkpt><trkpt lat="45.7139117" lon="11.3126263"><ele>246.5</ele><time>2026-04-12T07:44:04.792Z</time></trkpt><trkpt lat="45.7138366" lon="11.3127946"><ele>245.0</ele><time>2026-04-12T07:44:05.792Z</time></trkpt><trkpt lat="45.71375" lon="11.3129547"><ele>246.0</ele><time>2026-04-12T07:44:06.791Z</time></trkpt><trkpt lat="45.7136431" lon="11.3131149"><ele>247.0</ele><time>2026-04-12T07:44:07.791Z</time></trkpt><trkpt lat="45.7135428" lon="11.3132888"><ele>248.0</ele><time>2026-04-12T07:44:08.792Z</time></trkpt><trkpt lat="45.7134448" lon="11.3134511"><ele>248.0</ele><time>2026-04-12T07:44:09.792Z</time></trkpt><trkpt lat="45.7133626" lon="11.3136049"><ele>248.0</ele><time>2026-04-12T07:44:10.791Z</time></trkpt><trkpt lat="45.7132914" lon="11.3137586"><ele>248.0</ele><time>2026-04-12T07:44:11.792Z</time></trkpt><trkpt lat="45.7132338" lon="11.3139183"><ele>248.0</ele><time>2026-04-12T07:44:12.792Z</time></trkpt><trkpt lat="45.7131541" lon="11.3140678"><ele>244.25</ele><time>2026-04-12T07:44:13.792Z</time></trkpt><trkpt lat="45.7130715" lon="11.3142037"><ele>240.5</ele><time>2026-04-12T07:44:14.791Z</time></trkpt><trkpt lat="45.7129915" lon="11.3143245"><ele>236.75</ele><time>2026-04-12T07:44:15.792Z</time></trkpt><trkpt lat="45.7129039" lon="11.3144473"><ele>233.0</ele><time>2026-04-12T07:44:16.792Z</time></trkpt><trkpt lat="45.7128191" lon="11.3145612"><ele>234.2</ele><time>2026-04-12T07:44:17.791Z</time></trkpt><trkpt lat="45.7127385" lon="11.3146687"><ele>235.4</ele><time>2026-04-12T07:44:18.792Z</time></trkpt><trkpt lat="45.712642" lon="11.3147453"><ele>236.59999999999997</ele><time>2026-04-12T07:44:19.792Z</time></trkpt><trkpt lat="45.7125341" lon="11.3147978"><ele>237.79999999999998</ele><time>2026-04-12T07:44:20.792Z</time></trkpt><trkpt lat="45.7124359" lon="11.3148398"><ele>239.0</ele><time>2026-04-12T07:44:21.791Z</time></trkpt><trkpt lat="45.712357" lon="11.3148865"><ele>239.0</ele><time>2026-04-12T07:44:22.791Z</time></trkpt><trkpt lat="45.7122888" lon="11.3149285"><ele>238.99999999999997</ele><time>2026-04-12T07:44:23.791Z</time></trkpt><trkpt lat="45.7121848" lon="11.3149733"><ele>238.99999999999997</ele><time>2026-04-12T07:44:25.791Z</time></trkpt><trkpt lat="45.7121061" lon="11.3150255"><ele>239.0</ele><time>2026-04-12T07:44:27.792Z</time></trkpt><trkpt lat="45.7120484" lon="11.3151512"><ele>239.0</ele><time>2026-04-12T07:44:29.791Z</time></trkpt><trkpt lat="45.7120362" lon="11.3153307"><ele>239.0</ele><time>2026-04-12T07:44:31.792Z</time></trkpt><trkpt lat="45.7120393" lon="11.3154456"><ele>238.99999999999997</ele><time>2026-04-12T07:44:32.791Z</time></trkpt><trkpt lat="45.712041" lon="11.315569"><ele>238.99999999999997</ele><time>2026-04-12T07:44:33.791Z</time></trkpt><trkpt lat="45.7120366" lon="11.3157029"><ele>239.0</ele><time>2026-04-12T07:44:34.792Z</time></trkpt><trkpt lat="45.7120222" lon="11.3158508"><ele>239.0</ele><time>2026-04-12T07:44:35.792Z</time></trkpt><trkpt lat="45.7119922" lon="11.3160115"><ele>237.75</ele><time>2026-04-12T07:44:36.792Z</time></trkpt><trkpt lat="45.7119641" lon="11.316172"><ele>236.5</ele><time>2026-04-12T07:44:37.792Z</time></trkpt><trkpt lat="45.7119356" lon="11.3163418"><ele>235.25</ele><time>2026-04-12T07:44:38.792Z</time></trkpt><trkpt lat="45.7119063" lon="11.3165151"><ele>234.0</ele><time>2026-04-12T07:44:39.791Z</time></trkpt><trkpt lat="45.7118774" lon="11.3166791"><ele>236.5</ele><time>2026-04-12T07:44:40.792Z</time></trkpt><trkpt lat="45.7118674" lon="11.316845"><ele>239.0</ele><time>2026-04-12T07:44:41.792Z</time></trkpt><trkpt lat="45.711869" lon="11.3170193"><ele>241.5</ele><time>2026-04-12T07:44:42.791Z</time></trkpt><trkpt lat="45.7118811" lon="11.3171985"><ele>244.0</ele><time>2026-04-12T07:44:43.792Z</time></trkpt><trkpt lat="45.7119022" lon="11.3173924"><ele>241.0</ele><time>2026-04-12T07:44:44.792Z</time></trkpt><trkpt lat="45.7119252" lon="11.3175974"><ele>238.0</ele><time>2026-04-12T07:44:45.791Z</time></trkpt><trkpt lat="45.7119388" lon="11.3177967"><ele>235.0</ele><time>2026-04-12T07:44:46.791Z</time></trkpt><trkpt lat="45.7119525" lon="11.3179974"><ele>232.0</ele><time>2026-04-12T07:44:47.791Z</time></trkpt><trkpt lat="45.7119744" lon="11.3181979"><ele>232.0</ele><time>2026-04-12T07:44:48.792Z</time></trkpt><trkpt lat="45.7120006" lon="11.3183826"><ele>232.0</ele><time>2026-04-12T07:44:49.792Z</time></trkpt><trkpt lat="45.7120319" lon="11.3185573"><ele>232.0</ele><time>2026-04-12T07:44:50.791Z</time></trkpt><trkpt lat="45.7120481" lon="11.318742"><ele>232.0</ele><time>2026-04-12T07:44:51.791Z</time></trkpt><trkpt lat="45.712058" lon="11.3189206"><ele>231.75</ele><time>2026-04-12T07:44:52.792Z</time></trkpt><trkpt lat="45.7120479" lon="11.3191044"><ele>231.5</ele><time>2026-04-12T07:44:53.792Z</time></trkpt><trkpt lat="45.7120325" lon="11.3192898"><ele>231.25</ele><time>2026-04-12T07:44:54.792Z</time></trkpt><trkpt lat="45.712011" lon="11.319483"><ele>231.0</ele><time>2026-04-12T07:44:55.792Z</time></trkpt><trkpt lat="45.7119766" lon="11.3196732"><ele>230.25</ele><time>2026-04-12T07:44:56.792Z</time></trkpt><trkpt lat="45.711964" lon="11.3198581"><ele>229.5</ele><time>2026-04-12T07:44:57.791Z</time></trkpt><trkpt lat="45.7119581" lon="11.3200412"><ele>228.75</ele><time>2026-04-12T07:44:58.791Z</time></trkpt><trkpt lat="45.7119479" lon="11.3202148"><ele>228.0</ele><time>2026-04-12T07:44:59.791Z</time></trkpt><trkpt lat="45.7119478" lon="11.3203898"><ele>228.0</ele><time>2026-04-12T07:45:00.792Z</time></trkpt><trkpt lat="45.7119409" lon="11.3205633"><ele>228.0</ele><time>2026-04-12T07:45:01.792Z</time></trkpt><trkpt lat="45.7119153" lon="11.3207384"><ele>228.0</ele><time>2026-04-12T07:45:02.791Z</time></trkpt><trkpt lat="45.7118803" lon="11.3209051"><ele>228.0</ele><time>2026-04-12T07:45:03.792Z</time></trkpt><trkpt lat="45.7118491" lon="11.3210651"><ele>230.0</ele><time>2026-04-12T07:45:04.791Z</time></trkpt><trkpt lat="45.7118053" lon="11.3212284"><ele>232.0</ele><time>2026-04-12T07:45:05.792Z</time></trkpt><trkpt lat="45.7117528" lon="11.321394"><ele>234.0</ele><time>2026-04-12T07:45:06.791Z</time></trkpt><trkpt lat="45.7116961" lon="11.3215558"><ele>236.0</ele><time>2026-04-12T07:45:07.792Z</time></trkpt><trkpt lat="45.7116422" lon="11.3216978"><ele>236.0</ele><time>2026-04-12T07:45:08.792Z</time></trkpt><trkpt lat="45.711585" lon="11.3218173"><ele>236.00000000000003</ele><time>2026-04-12T07:45:09.791Z</time></trkpt><trkpt lat="45.7115373" lon="11.3219292"><ele>236.00000000000003</ele><time>2026-04-12T07:45:10.792Z</time></trkpt><trkpt lat="45.7114967" lon="11.3220467"><ele>236.0</ele><time>2026-04-12T07:45:11.791Z</time></trkpt><trkpt lat="45.7114676" lon="11.3221735"><ele>236.0</ele><time>2026-04-12T07:45:12.792Z</time></trkpt><trkpt lat="45.7114443" lon="11.3222857"><ele>234.8</ele><time>2026-04-12T07:45:13.791Z</time></trkpt><trkpt lat="45.7114232" lon="11.3223785"><ele>233.60000000000002</ele><time>2026-04-12T07:45:14.791Z</time></trkpt><trkpt lat="45.7113864" lon="11.3224997"><ele>232.4</ele><time>2026-04-12T07:45:16.792Z</time></trkpt><trkpt lat="45.7113227" lon="11.3225601"><ele>231.2</ele><time>2026-04-12T07:45:18.792Z</time></trkpt><trkpt lat="45.7111976" lon="11.322544"><ele>230.0</ele><time>2026-04-12T07:45:20.792Z</time></trkpt><trkpt lat="45.7111096" lon="11.3225181"><ele>231.5</ele><time>2026-04-12T07:45:21.791Z</time></trkpt><trkpt lat="45.7110025" lon="11.3225098"><ele>233.0</ele><time>2026-04-12T07:45:22.791Z</time></trkpt><trkpt lat="45.7108888" lon="11.3224969"><ele>234.5</ele><time>2026-04-12T07:45:23.791Z</time></trkpt><trkpt lat="45.7107613" lon="11.3224787"><ele>236.0</ele><time>2026-04-12T07:45:24.791Z</time></trkpt><trkpt lat="45.7106343" lon="11.3224512"><ele>236.0</ele><time>2026-04-12T07:45:25.791Z</time></trkpt><trkpt lat="45.7105091" lon="11.3224192"><ele>236.00000000000003</ele><time>2026-04-12T07:45:26.792Z</time></trkpt><trkpt lat="45.7103973" lon="11.3223947"><ele>236.00000000000003</ele><time>2026-04-12T07:45:27.791Z</time></trkpt><trkpt lat="45.7102977" lon="11.3223742"><ele>236.0</ele><time>2026-04-12T07:45:28.791Z</time></trkpt><trkpt lat="45.7102065" lon="11.3223517"><ele>236.0</ele><time>2026-04-12T07:45:29.791Z</time></trkpt><trkpt lat="45.7101202" lon="11.322323"><ele>237.00000000000003</ele><time>2026-04-12T07:45:30.792Z</time></trkpt><trkpt lat="45.7100384" lon="11.3223103"><ele>238.0</ele><time>2026-04-12T07:45:31.792Z</time></trkpt><trkpt lat="45.7099597" lon="11.3222716"><ele>239.0</ele><time>2026-04-12T07:45:32.792Z</time></trkpt><trkpt lat="45.7098789" lon="11.3222345"><ele>240.0</ele><time>2026-04-12T07:45:33.791Z</time></trkpt><trkpt lat="45.7097932" lon="11.3221869"><ele>241.00000000000003</ele><time>2026-04-12T07:45:34.792Z</time></trkpt><trkpt lat="45.7096959" lon="11.3221475"><ele>242.0</ele><time>2026-04-12T07:45:35.791Z</time></trkpt><trkpt lat="45.7095903" lon="11.3221038"><ele>242.25</ele><time>2026-04-12T07:45:36.791Z</time></trkpt><trkpt lat="45.7094861" lon="11.3220598"><ele>242.5</ele><time>2026-04-12T07:45:37.792Z</time></trkpt><trkpt lat="45.7093757" lon="11.3220147"><ele>242.75</ele><time>2026-04-12T07:45:38.792Z</time></trkpt><trkpt lat="45.7092652" lon="11.3219632"><ele>243.0</ele><time>2026-04-12T07:45:39.792Z</time></trkpt><trkpt lat="45.7091573" lon="11.3219089"><ele>243.0</ele><time>2026-04-12T07:45:40.792Z</time></trkpt><trkpt lat="45.7090491" lon="11.3218516"><ele>243.0</ele><time>2026-04-12T07:45:41.791Z</time></trkpt><trkpt lat="45.7089429" lon="11.3217944"><ele>243.0</ele><time>2026-04-12T07:45:42.791Z</time></trkpt><trkpt lat="45.7088307" lon="11.3217443"><ele>243.0</ele><time>2026-04-12T07:45:43.792Z</time></trkpt><trkpt lat="45.708714" lon="11.3216916"><ele>243.0</ele><time>2026-04-12T07:45:44.792Z</time></trkpt><trkpt lat="45.7085901" lon="11.3216458"><ele>243.0</ele><time>2026-04-12T07:45:45.792Z</time></trkpt><trkpt lat="45.7084545" lon="11.3216122"><ele>243.0</ele><time>2026-04-12T07:45:46.792Z</time></trkpt><trkpt lat="45.7083199" lon="11.3215878"><ele>243.0</ele><time>2026-04-12T07:45:47.792Z</time></trkpt><trkpt lat="45.7081988" lon="11.321572"><ele>242.25</ele><time>2026-04-12T07:45:48.792Z</time></trkpt><trkpt lat="45.7080732" lon="11.3215589"><ele>241.5</ele><time>2026-04-12T07:45:49.792Z</time></trkpt><trkpt lat="45.7079379" lon="11.3215393"><ele>240.75</ele><time>2026-04-12T07:45:50.792Z</time></trkpt><trkpt lat="45.7078027" lon="11.3215028"><ele>240.0</ele><time>2026-04-12T07:45:51.792Z</time></trkpt><trkpt lat="45.7076774" lon="11.3214516"><ele>240.75</ele><time>2026-04-12T07:45:52.791Z</time></trkpt><trkpt lat="45.7075518" lon="11.3213813"><ele>241.5</ele><time>2026-04-12T07:45:53.792Z</time></trkpt><trkpt lat="45.7074322" lon="11.321299"><ele>242.25</ele><time>2026-04-12T07:45:54.791Z</time></trkpt><trkpt lat="45.7073191" lon="11.3212173"><ele>243.0</ele><time>2026-04-12T07:45:55.791Z</time></trkpt><trkpt lat="45.7072039" lon="11.3211368"><ele>243.0</ele><time>2026-04-12T07:45:56.791Z</time></trkpt><trkpt lat="45.707094" lon="11.321055"><ele>243.0</ele><time>2026-04-12T07:45:57.791Z</time></trkpt><trkpt lat="45.7069746" lon="11.320966"><ele>243.0</ele><time>2026-04-12T07:45:58.791Z</time></trkpt><trkpt lat="45.7068459" lon="11.3208807"><ele>243.0</ele><time>2026-04-12T07:45:59.791Z</time></trkpt><trkpt lat="45.7067205" lon="11.3208097"><ele>243.75</ele><time>2026-04-12T07:46:00.791Z</time></trkpt><trkpt lat="45.7065912" lon="11.3207464"><ele>244.5</ele><time>2026-04-12T07:46:01.791Z</time></trkpt><trkpt lat="45.7064593" lon="11.3206949"><ele>245.25</ele><time>2026-04-12T07:46:02.791Z</time></trkpt><trkpt lat="45.706328" lon="11.3206493"><ele>246.0</ele><time>2026-04-12T07:46:03.792Z</time></trkpt><trkpt lat="45.7061932" lon="11.3206079"><ele>246.75</ele><time>2026-04-12T07:46:04.792Z</time></trkpt><trkpt lat="45.7060564" lon="11.3205729"><ele>247.5</ele><time>2026-04-12T07:46:05.791Z</time></trkpt><trkpt lat="45.7059266" lon="11.3205551"><ele>248.25</ele><time>2026-04-12T07:46:06.792Z</time></trkpt><trkpt lat="45.705789" lon="11.3205381"><ele>249.0</ele><time>2026-04-12T07:46:07.792Z</time></trkpt><trkpt lat="45.7056507" lon="11.3205206"><ele>249.0</ele><time>2026-04-12T07:46:08.792Z</time></trkpt><trkpt lat="45.7055195" lon="11.3204991"><ele>249.0</ele><time>2026-04-12T07:46:09.792Z</time></trkpt><trkpt lat="45.70539" lon="11.3204712"><ele>249.0</ele><time>2026-04-12T07:46:10.792Z</time></trkpt><trkpt lat="45.7052683" lon="11.3204452"><ele>249.0</ele><time>2026-04-12T07:46:11.792Z</time></trkpt><trkpt lat="45.7051425" lon="11.3204146"><ele>250.75</ele><time>2026-04-12T07:46:12.791Z</time></trkpt><trkpt lat="45.7050244" lon="11.3203888"><ele>252.5</ele><time>2026-04-12T07:46:13.792Z</time></trkpt><trkpt lat="45.7049018" lon="11.3203613"><ele>254.25</ele><time>2026-04-12T07:46:14.792Z</time></trkpt><trkpt lat="45.7047791" lon="11.3203297"><ele>256.0</ele><time>2026-04-12T07:46:15.791Z</time></trkpt><trkpt lat="45.7046562" lon="11.3202772"><ele>256.0</ele><time>2026-04-12T07:46:16.791Z</time></trkpt><trkpt lat="45.7045332" lon="11.3202088"><ele>256.0</ele><time>2026-04-12T07:46:17.791Z</time></trkpt><trkpt lat="45.7044092" lon="11.3201243"><ele>256.0</ele><time>2026-04-12T07:46:18.792Z</time></trkpt><trkpt lat="45.7042948" lon="11.3200281"><ele>256.0</ele><time>2026-04-12T07:46:19.791Z</time></trkpt><trkpt lat="45.7041814" lon="11.3199171"><ele>256.66666666666663</ele><time>2026-04-12T07:46:20.792Z</time></trkpt><trkpt lat="45.7040599" lon="11.3198031"><ele>257.3333333333333</ele><time>2026-04-12T07:46:21.792Z</time></trkpt><trkpt lat="45.703931" lon="11.3196884"><ele>258.0</ele><time>2026-04-12T07:46:22.791Z</time></trkpt><trkpt lat="45.7037938" lon="11.3195745"><ele>260.3333333333333</ele><time>2026-04-12T07:46:23.792Z</time></trkpt><trkpt lat="45.7036521" lon="11.3194647"><ele>262.66666666666663</ele><time>2026-04-12T07:46:24.792Z</time></trkpt><trkpt lat="45.7035122" lon="11.3193617"><ele>265.0</ele><time>2026-04-12T07:46:25.792Z</time></trkpt><trkpt lat="45.7033757" lon="11.3192593"><ele>265.0</ele><time>2026-04-12T07:46:26.791Z</time></trkpt><trkpt lat="45.7032494" lon="11.3191474"><ele>265.0</ele><time>2026-04-12T07:46:27.792Z</time></trkpt><trkpt lat="45.703144" lon="11.3190421"><ele>265.0</ele><time>2026-04-12T07:46:28.792Z</time></trkpt><trkpt lat="45.7030561" lon="11.3189397"><ele>265.0</ele><time>2026-04-12T07:46:29.791Z</time></trkpt><trkpt lat="45.7029949" lon="11.3188311"><ele>267.25</ele><time>2026-04-12T07:46:30.791Z</time></trkpt><trkpt lat="45.7029626" lon="11.3187057"><ele>269.5</ele><time>2026-04-12T07:46:31.792Z</time></trkpt><trkpt lat="45.702958" lon="11.3185534"><ele>271.75</ele><time>2026-04-12T07:46:32.792Z</time></trkpt><trkpt lat="45.7029597" lon="11.31836"><ele>274.0</ele><time>2026-04-12T07:46:33.792Z</time></trkpt><trkpt lat="45.7029633" lon="11.3181622"><ele>277.25</ele><time>2026-04-12T07:46:34.792Z</time></trkpt><trkpt lat="45.7029434" lon="11.3179564"><ele>280.5</ele><time>2026-04-12T07:46:35.791Z</time></trkpt><trkpt lat="45.7029237" lon="11.3177663"><ele>283.75</ele><time>2026-04-12T07:46:36.791Z</time></trkpt><trkpt lat="45.7029051" lon="11.3175691"><ele>287.0</ele><time>2026-04-12T07:46:37.792Z</time></trkpt><trkpt lat="45.7028903" lon="11.3173817"><ele>292.25</ele><time>2026-04-12T07:46:38.791Z</time></trkpt><trkpt lat="45.7028732" lon="11.3171886"><ele>297.5</ele><time>2026-04-12T07:46:39.792Z</time></trkpt><trkpt lat="45.7028589" lon="11.3170091"><ele>302.75</ele><time>2026-04-12T07:46:40.792Z</time></trkpt><trkpt lat="45.7028443" lon="11.3168297"><ele>308.0</ele><time>2026-04-12T07:46:41.791Z</time></trkpt><trkpt lat="45.7028296" lon="11.3166756"><ele>308.0</ele><time>2026-04-12T07:46:42.792Z</time></trkpt><trkpt lat="45.7028105" lon="11.3165378"><ele>308.0</ele><time>2026-04-12T07:46:43.792Z</time></trkpt><trkpt lat="45.7027851" lon="11.3164165"><ele>308.0</ele><time>2026-04-12T07:46:44.792Z</time></trkpt><trkpt lat="45.7027531" lon="11.3163285"><ele>308.0</ele><time>2026-04-12T07:46:45.792Z</time></trkpt><trkpt lat="45.7026803" lon="11.3162169"><ele>308.0</ele><time>2026-04-12T07:46:47.792Z</time></trkpt><trkpt lat="45.7025918" lon="11.3163368"><ele>304.25</ele><time>2026-04-12T07:46:49.792Z</time></trkpt><trkpt lat="45.7025578" lon="11.3165063"><ele>300.5</ele><time>2026-04-12T07:46:50.791Z</time></trkpt><trkpt lat="45.7025336" lon="11.3166975"><ele>296.75</ele><time>2026-04-12T07:46:51.792Z</time></trkpt><trkpt lat="45.7025176" lon="11.3168692"><ele>293.0</ele><time>2026-04-12T07:46:52.791Z</time></trkpt><trkpt lat="45.7024871" lon="11.3170101"><ele>293.0</ele><time>2026-04-12T07:46:53.791Z</time></trkpt><trkpt lat="45.7024286" lon="11.3171235"><ele>293.0</ele><time>2026-04-12T07:46:54.791Z</time></trkpt><trkpt lat="45.7023459" lon="11.3172073"><ele>293.0</ele><time>2026-04-12T07:46:55.792Z</time></trkpt><trkpt lat="45.702246" lon="11.3172714"><ele>293.0</ele><time>2026-04-12T07:46:56.791Z</time></trkpt><trkpt lat="45.7021635" lon="11.3173131"><ele>293.0</ele><time>2026-04-12T07:46:57.791Z</time></trkpt><trkpt lat="45.7020899" lon="11.3173292"><ele>293.0</ele><time>2026-04-12T07:46:58.792Z</time></trkpt><trkpt lat="45.702001" lon="11.3172478"><ele>293.0</ele><time>2026-04-12T07:47:00.791Z</time></trkpt><trkpt lat="45.7020055" lon="11.3171056"><ele>293.0</ele><time>2026-04-12T07:47:02.791Z</time></trkpt><trkpt lat="45.7020413" lon="11.3170211"><ele>293.0</ele><time>2026-04-12T07:47:03.792Z</time></trkpt><trkpt lat="45.7020772" lon="11.3169279"><ele>293.0</ele><time>2026-04-12T07:47:04.792Z</time></trkpt><trkpt lat="45.7021162" lon="11.3168122"><ele>293.0</ele><time>2026-04-12T07:47:05.791Z</time></trkpt><trkpt lat="45.7021452" lon="11.3166636"><ele>293.0</ele><time>2026-04-12T07:47:06.791Z</time></trkpt><trkpt lat="45.7021595" lon="11.3164994"><ele>293.0</ele><time>2026-04-12T07:47:07.792Z</time></trkpt><trkpt lat="45.7021466" lon="11.3163203"><ele>293.0</ele><time>2026-04-12T07:47:08.792Z</time></trkpt><trkpt lat="45.7021198" lon="11.3161448"><ele>293.0</ele><time>2026-04-12T07:47:09.791Z</time></trkpt><trkpt lat="45.7020879" lon="11.3159695"><ele>296.6</ele><time>2026-04-12T07:47:10.792Z</time></trkpt><trkpt lat="45.7020816" lon="11.3158179"><ele>300.20000000000005</ele><time>2026-04-12T07:47:11.791Z</time></trkpt><trkpt lat="45.702094" lon="11.3156988"><ele>303.8</ele><time>2026-04-12T07:47:12.792Z</time></trkpt><trkpt lat="45.7020886" lon="11.3155958"><ele>307.40000000000003</ele><time>2026-04-12T07:47:13.792Z</time></trkpt><trkpt lat="45.7020422" lon="11.3155065"><ele>311.0</ele><time>2026-04-12T07:47:15.791Z</time></trkpt><trkpt lat="45.7019348" lon="11.3155632"><ele>312.0</ele><time>2026-04-12T07:47:17.791Z</time></trkpt><trkpt lat="45.7018777" lon="11.315662"><ele>313.0</ele><time>2026-04-12T07:47:18.791Z</time></trkpt><trkpt lat="45.7018296" lon="11.3157866"><ele>314.0</ele><time>2026-04-12T07:47:19.791Z</time></trkpt><trkpt lat="45.7017809" lon="11.3159209"><ele>315.0</ele><time>2026-04-12T07:47:20.792Z</time></trkpt><trkpt lat="45.7017375" lon="11.3160321"><ele>316.0</ele><time>2026-04-12T07:47:21.792Z</time></trkpt><trkpt lat="45.7016981" lon="11.3161185"><ele>316.0</ele><time>2026-04-12T07:47:22.792Z</time></trkpt><trkpt lat="45.7016161" lon="11.3161867"><ele>316.0</ele><time>2026-04-12T07:47:24.791Z</time></trkpt><trkpt lat="45.7015874" lon="11.3160428"><ele>316.0</ele><time>2026-04-12T07:47:26.792Z</time></trkpt><trkpt lat="45.7015908" lon="11.3159225"><ele>316.0</ele><time>2026-04-12T07:47:27.792Z</time></trkpt><trkpt lat="45.7016018" lon="11.3157753"><ele>316.0</ele><time>2026-04-12T07:47:28.791Z</time></trkpt><trkpt lat="45.7016238" lon="11.3156284"><ele>318.8333333333333</ele><time>2026-04-12T07:47:29.791Z</time></trkpt><trkpt lat="45.7016438" lon="11.3154941"><ele>321.66666666666663</ele><time>2026-04-12T07:47:30.791Z</time></trkpt><trkpt lat="45.7016437" lon="11.3153761"><ele>324.5</ele><time>2026-04-12T07:47:31.791Z</time></trkpt><trkpt lat="45.7016096" lon="11.3152846"><ele>327.3333333333333</ele><time>2026-04-12T07:47:32.792Z</time></trkpt><trkpt lat="45.7015551" lon="11.3152368"><ele>330.1666666666667</ele><time>2026-04-12T07:47:33.791Z</time></trkpt><trkpt lat="45.7014862" lon="11.3152199"><ele>333.0</ele><time>2026-04-12T07:47:34.791Z</time></trkpt><trkpt lat="45.701408" lon="11.3152139"><ele>333.0</ele><time>2026-04-12T07:47:35.792Z</time></trkpt><trkpt lat="45.7013272" lon="11.3152048"><ele>333.0</ele><time>2026-04-12T07:47:36.792Z</time></trkpt><trkpt lat="45.7012429" lon="11.3151641"><ele>333.0</ele><time>2026-04-12T07:47:37.792Z</time></trkpt><trkpt lat="45.7011525" lon="11.3150984"><ele>333.0</ele><time>2026-04-12T07:47:38.792Z</time></trkpt><trkpt lat="45.7010515" lon="11.3149922"><ele>333.0</ele><time>2026-04-12T07:47:39.792Z</time></trkpt><trkpt lat="45.7009517" lon="11.3148633"><ele>339.25</ele><time>2026-04-12T07:47:40.792Z</time></trkpt><trkpt lat="45.7008498" lon="11.3147275"><ele>345.5</ele><time>2026-04-12T07:47:41.791Z</time></trkpt><trkpt lat="45.7007632" lon="11.314601"><ele>351.75</ele><time>2026-04-12T07:47:42.791Z</time></trkpt><trkpt lat="45.7006885" lon="11.3144958"><ele>358.0</ele><time>2026-04-12T07:47:43.79Z</time></trkpt><trkpt lat="45.7006159" lon="11.3144317"><ele>358.0</ele><time>2026-04-12T07:47:44.79Z</time></trkpt><trkpt lat="45.7005455" lon="11.314389"><ele>358.0</ele><time>2026-04-12T07:47:45.79Z</time></trkpt><trkpt lat="45.7004855" lon="11.3143502"><ele>358.0</ele><time>2026-04-12T07:47:46.79Z</time></trkpt><trkpt lat="45.7004192" lon="11.3142873"><ele>358.0</ele><time>2026-04-12T07:47:48.791Z</time></trkpt><trkpt lat="45.7005149" lon="11.3142696"><ele>358.0</ele><time>2026-04-12T07:47:52.791Z</time></trkpt><trkpt lat="45.7005757" lon="11.3143226"><ele>358.0</ele><time>2026-04-12T07:47:53.791Z</time></trkpt><trkpt lat="45.7006713" lon="11.3143859"><ele>358.0</ele><time>2026-04-12T07:47:54.791Z</time></trkpt><trkpt lat="45.700784" lon="11.314455"><ele>358.0</ele><time>2026-04-12T07:47:55.79Z</time></trkpt><trkpt lat="45.7008763" lon="11.3145234"><ele>358.0</ele><time>2026-04-12T07:47:56.791Z</time></trkpt><trkpt lat="45.700956" lon="11.3145798"><ele>358.0</ele><time>2026-04-12T07:47:57.791Z</time></trkpt><trkpt lat="45.7010446" lon="11.3146121"><ele>358.0</ele><time>2026-04-12T07:47:59.791Z</time></trkpt><trkpt lat="45.7010384" lon="11.3145059"><ele>358.0</ele><time>2026-04-12T07:48:01.791Z</time></trkpt><trkpt lat="45.7009836" lon="11.3144085"><ele>358.0</ele><time>2026-04-12T07:48:02.79Z</time></trkpt><trkpt lat="45.7009156" lon="11.3143037"><ele>358.0</ele><time>2026-04-12T07:48:03.79Z</time></trkpt><trkpt lat="45.7008284" lon="11.3141794"><ele>358.0</ele><time>2026-04-12T07:48:04.79Z</time></trkpt><trkpt lat="45.7007373" lon="11.3140587"><ele>358.0</ele><time>2026-04-12T07:48:05.79Z</time></trkpt><trkpt lat="45.7006449" lon="11.3139424"><ele>362.25</ele><time>2026-04-12T07:48:06.79Z</time></trkpt><trkpt lat="45.700549" lon="11.3138275"><ele>366.5</ele><time>2026-04-12T07:48:07.791Z</time></trkpt><trkpt lat="45.700431" lon="11.3137211"><ele>370.75</ele><time>2026-04-12T07:48:08.79Z</time></trkpt><trkpt lat="45.7003102" lon="11.3136197"><ele>375.0</ele><time>2026-04-12T07:48:09.791Z</time></trkpt><trkpt lat="45.7002069" lon="11.3135484"><ele>376.0</ele><time>2026-04-12T07:48:10.79Z</time></trkpt><trkpt lat="45.7001155" lon="11.313485"><ele>377.0</ele><time>2026-04-12T07:48:11.791Z</time></trkpt><trkpt lat="45.7000244" lon="11.3134178"><ele>378.0</ele><time>2026-04-12T07:48:12.791Z</time></trkpt><trkpt lat="45.6999237" lon="11.313345"><ele>379.0</ele><time>2026-04-12T07:48:13.79Z</time></trkpt><trkpt lat="45.6998148" lon="11.3132786"><ele>380.0</ele><time>2026-04-12T07:48:14.791Z</time></trkpt><trkpt lat="45.6996993" lon="11.3132238"><ele>380.0</ele><time>2026-04-12T07:48:15.791Z</time></trkpt><trkpt lat="45.6995879" lon="11.313189"><ele>380.0</ele><time>2026-04-12T07:48:16.791Z</time></trkpt><trkpt lat="45.6994879" lon="11.3131631"><ele>380.0</ele><time>2026-04-12T07:48:17.791Z</time></trkpt><trkpt lat="45.6993951" lon="11.3131509"><ele>380.0</ele><time>2026-04-12T07:48:18.79Z</time></trkpt><trkpt lat="45.6993051" lon="11.3131435"><ele>380.0</ele><time>2026-04-12T07:48:19.79Z</time></trkpt><trkpt lat="45.6992093" lon="11.3131249"><ele>382.33333333333337</ele><time>2026-04-12T07:48:20.791Z</time></trkpt><trkpt lat="45.699118" lon="11.3130843"><ele>384.6666666666667</ele><time>2026-04-12T07:48:21.791Z</time></trkpt><trkpt lat="45.6990374" lon="11.3130209"><ele>387.0</ele><time>2026-04-12T07:48:22.79Z</time></trkpt><trkpt lat="45.6989574" lon="11.3129428"><ele>389.33333333333337</ele><time>2026-04-12T07:48:23.791Z</time></trkpt><trkpt lat="45.6988859" lon="11.3128831"><ele>391.6666666666667</ele><time>2026-04-12T07:48:24.79Z</time></trkpt><trkpt lat="45.6988125" lon="11.312838"><ele>394.0</ele><time>2026-04-12T07:48:25.79Z</time></trkpt><trkpt lat="45.6987368" lon="11.3128086"><ele>396.1666666666667</ele><time>2026-04-12T07:48:26.791Z</time></trkpt><trkpt lat="45.6986516" lon="11.3128353"><ele>398.33333333333337</ele><time>2026-04-12T07:48:27.79Z</time></trkpt><trkpt lat="45.698563" lon="11.3128813"><ele>400.5</ele><time>2026-04-12T07:48:28.791Z</time></trkpt><trkpt lat="45.6984737" lon="11.3129219"><ele>402.66666666666663</ele><time>2026-04-12T07:48:29.791Z</time></trkpt><trkpt lat="45.6983918" lon="11.3129469"><ele>404.8333333333333</ele><time>2026-04-12T07:48:30.791Z</time></trkpt><trkpt lat="45.6983125" lon="11.3129476"><ele>407.0</ele><time>2026-04-12T07:48:31.79Z</time></trkpt><trkpt lat="45.6982327" lon="11.3129274"><ele>408.16666666666663</ele><time>2026-04-12T07:48:32.791Z</time></trkpt><trkpt lat="45.6981501" lon="11.3128971"><ele>409.3333333333333</ele><time>2026-04-12T07:48:33.791Z</time></trkpt><trkpt lat="45.6980594" lon="11.3128717"><ele>410.5</ele><time>2026-04-12T07:48:34.79Z</time></trkpt><trkpt lat="45.697969" lon="11.3128553"><ele>411.66666666666663</ele><time>2026-04-12T07:48:35.791Z</time></trkpt><trkpt lat="45.6978827" lon="11.3128415"><ele>412.8333333333333</ele><time>2026-04-12T07:48:36.79Z</time></trkpt><trkpt lat="45.6978054" lon="11.3128249"><ele>414.0</ele><time>2026-04-12T07:48:37.79Z</time></trkpt><trkpt lat="45.6977257" lon="11.3127907"><ele>416.2</ele><time>2026-04-12T07:48:38.791Z</time></trkpt><trkpt lat="45.6976512" lon="11.3127583"><ele>418.4</ele><time>2026-04-12T07:48:39.79Z</time></trkpt><trkpt lat="45.6975832" lon="11.3127408"><ele>420.6</ele><time>2026-04-12T07:48:40.79Z</time></trkpt><trkpt lat="45.6974774" lon="11.312743"><ele>422.8</ele><time>2026-04-12T07:48:42.791Z</time></trkpt><trkpt lat="45.6975645" lon="11.3128255"><ele>425.0</ele><time>2026-04-12T07:48:46.791Z</time></trkpt><trkpt lat="45.6976662" lon="11.3128609"><ele>422.8</ele><time>2026-04-12T07:48:47.791Z</time></trkpt><trkpt lat="45.697768" lon="11.3128931"><ele>420.6</ele><time>2026-04-12T07:48:48.791Z</time></trkpt><trkpt lat="45.6978475" lon="11.312933"><ele>418.4</ele><time>2026-04-12T07:48:49.79Z</time></trkpt><trkpt lat="45.6979315" lon="11.3130002"><ele>416.2</ele><time>2026-04-12T07:48:50.791Z</time></trkpt><trkpt lat="45.6980087" lon="11.3130811"><ele>414.0</ele><time>2026-04-12T07:48:51.791Z</time></trkpt><trkpt lat="45.6980986" lon="11.3131571"><ele>412.6</ele><time>2026-04-12T07:48:52.79Z</time></trkpt><trkpt lat="45.6981878" lon="11.3132209"><ele>411.2</ele><time>2026-04-12T07:48:53.791Z</time></trkpt><trkpt lat="45.6982777" lon="11.3132769"><ele>409.8</ele><time>2026-04-12T07:48:54.791Z</time></trkpt><trkpt lat="45.6983839" lon="11.3133129"><ele>408.40000000000003</ele><time>2026-04-12T07:48:55.79Z</time></trkpt><trkpt lat="45.6984847" lon="11.3133419"><ele>407.0</ele><time>2026-04-12T07:48:56.79Z</time></trkpt><trkpt lat="45.6985912" lon="11.3133801"><ele>403.75</ele><time>2026-04-12T07:48:57.791Z</time></trkpt><trkpt lat="45.6987027" lon="11.3134333"><ele>400.5</ele><time>2026-04-12T07:48:58.79Z</time></trkpt><trkpt lat="45.6988115" lon="11.3135016"><ele>397.25</ele><time>2026-04-12T07:48:59.791Z</time></trkpt><trkpt lat="45.6989043" lon="11.3135873"><ele>394.0</ele><time>2026-04-12T07:49:00.79Z</time></trkpt><trkpt lat="45.698978" lon="11.3136963"><ele>394.00000000000006</ele><time>2026-04-12T07:49:01.791Z</time></trkpt><trkpt lat="45.6990392" lon="11.313815"><ele>394.0</ele><time>2026-04-12T07:49:02.791Z</time></trkpt><trkpt lat="45.6990744" lon="11.3139449"><ele>394.0</ele><time>2026-04-12T07:49:03.791Z</time></trkpt><trkpt lat="45.699098" lon="11.3140648"><ele>394.0</ele><time>2026-04-12T07:49:04.791Z</time></trkpt><trkpt lat="45.6991191" lon="11.3141559"><ele>394.00000000000006</ele><time>2026-04-12T07:49:05.791Z</time></trkpt><trkpt lat="45.6991339" lon="11.3142585"><ele>394.0</ele><time>2026-04-12T07:49:07.791Z</time></trkpt><trkpt lat="45.6990837" lon="11.314183"><ele>394.0</ele><time>2026-04-12T07:49:10.791Z</time></trkpt><trkpt lat="45.6990105" lon="11.3140448"><ele>394.0</ele><time>2026-04-12T07:49:12.791Z</time></trkpt><trkpt lat="45.6989485" lon="11.3139758"><ele>394.0</ele><time>2026-04-12T07:49:13.791Z</time></trkpt><trkpt lat="45.6988865" lon="11.3139016"><ele>394.0</ele><time>2026-04-12T07:49:14.791Z</time></trkpt><trkpt lat="45.6988119" lon="11.313825"><ele>394.0</ele><time>2026-04-12T07:49:15.791Z</time></trkpt><trkpt lat="45.6987209" lon="11.3137641"><ele>394.0</ele><time>2026-04-12T07:49:16.79Z</time></trkpt><trkpt lat="45.6986325" lon="11.3137233"><ele>394.0</ele><time>2026-04-12T07:49:17.791Z</time></trkpt><trkpt lat="45.69854" lon="11.3137092"><ele>394.0</ele><time>2026-04-12T07:49:18.791Z</time></trkpt><trkpt lat="45.6984282" lon="11.3137293"><ele>394.0</ele><time>2026-04-12T07:49:19.79Z</time></trkpt><trkpt lat="45.6983086" lon="11.3137591"><ele>394.0</ele><time>2026-04-12T07:49:20.79Z</time></trkpt><trkpt lat="45.6981772" lon="11.3137838"><ele>397.25</ele><time>2026-04-12T07:49:21.791Z</time></trkpt><trkpt lat="45.6980457" lon="11.3137966"><ele>400.5</ele><time>2026-04-12T07:49:22.791Z</time></trkpt><trkpt lat="45.6979128" lon="11.3138059"><ele>403.75</ele><time>2026-04-12T07:49:23.79Z</time></trkpt><trkpt lat="45.6978085" lon="11.3138087"><ele>407.0</ele><time>2026-04-12T07:49:24.79Z</time></trkpt><trkpt lat="45.697728" lon="11.3138026"><ele>409.49999999999994</ele><time>2026-04-12T07:49:25.791Z</time></trkpt><trkpt lat="45.6976637" lon="11.3138019"><ele>412.0</ele><time>2026-04-12T07:49:26.79Z</time></trkpt><trkpt lat="45.6976015" lon="11.3138641"><ele>414.5</ele><time>2026-04-12T07:49:28.791Z</time></trkpt><trkpt lat="45.697619" lon="11.3140099"><ele>417.0</ele><time>2026-04-12T07:49:30.79Z</time></trkpt><trkpt lat="45.6976751" lon="11.3141034"><ele>419.49999999999994</ele><time>2026-04-12T07:49:31.791Z</time></trkpt><trkpt lat="45.6977418" lon="11.3141954"><ele>422.0</ele><time>2026-04-12T07:49:32.791Z</time></trkpt><trkpt lat="45.6978268" lon="11.3142761"><ele>423.75</ele><time>2026-04-12T07:49:33.791Z</time></trkpt><trkpt lat="45.6979722" lon="11.3143159"><ele>425.5</ele><time>2026-04-12T07:49:34.791Z</time></trkpt><trkpt lat="45.6981011" lon="11.3143457"><ele>427.25</ele><time>2026-04-12T07:49:35.79Z</time></trkpt><trkpt lat="45.6982244" lon="11.3143776"><ele>429.0</ele><time>2026-04-12T07:49:36.791Z</time></trkpt><trkpt lat="45.698326" lon="11.3144261"><ele>429.0</ele><time>2026-04-12T07:49:37.791Z</time></trkpt><trkpt lat="45.6984088" lon="11.3145029"><ele>429.0</ele><time>2026-04-12T07:49:38.79Z</time></trkpt><trkpt lat="45.698464" lon="11.3145962"><ele>429.0</ele><time>2026-04-12T07:49:39.79Z</time></trkpt><trkpt lat="45.6985041" lon="11.3147317"><ele>429.0</ele><time>2026-04-12T07:49:40.791Z</time></trkpt><trkpt lat="45.6985219" lon="11.3148685"><ele>429.0</ele><time>2026-04-12T07:49:41.79Z</time></trkpt><trkpt lat="45.6985158" lon="11.3149932"><ele>430.6666666666667</ele><time>2026-04-12T07:49:42.791Z</time></trkpt><trkpt lat="45.6984824" lon="11.3151329"><ele>432.33333333333337</ele><time>2026-04-12T07:49:44.791Z</time></trkpt><trkpt lat="45.6984016" lon="11.315041"><ele>434.0</ele><time>2026-04-12T07:49:47.791Z</time></trkpt><trkpt lat="45.698372" lon="11.3149482"><ele>435.6666666666667</ele><time>2026-04-12T07:49:48.79Z</time></trkpt><trkpt lat="45.6983304" lon="11.3148651"><ele>437.33333333333337</ele><time>2026-04-12T07:49:49.791Z</time></trkpt><trkpt lat="45.6982819" lon="11.3148008"><ele>439.0</ele><time>2026-04-12T07:49:50.79Z</time></trkpt><trkpt lat="45.6982094" lon="11.3147526"><ele>440.2</ele><time>2026-04-12T07:49:51.79Z</time></trkpt><trkpt lat="45.6981247" lon="11.314729"><ele>441.4</ele><time>2026-04-12T07:49:52.791Z</time></trkpt><trkpt lat="45.6980228" lon="11.314712"><ele>442.6</ele><time>2026-04-12T07:49:53.79Z</time></trkpt><trkpt lat="45.6979023" lon="11.3147066"><ele>443.8</ele><time>2026-04-12T07:49:54.791Z</time></trkpt><trkpt lat="45.6977706" lon="11.3146927"><ele>445.0</ele><time>2026-04-12T07:49:55.791Z</time></trkpt><trkpt lat="45.6976363" lon="11.3146663"><ele>445.0</ele><time>2026-04-12T07:49:56.791Z</time></trkpt><trkpt lat="45.6974983" lon="11.3146265"><ele>445.0</ele><time>2026-04-12T07:49:57.791Z</time></trkpt><trkpt lat="45.6973648" lon="11.314563"><ele>445.0</ele><time>2026-04-12T07:49:58.791Z</time></trkpt><trkpt lat="45.6972391" lon="11.3144773"><ele>445.0</ele><time>2026-04-12T07:49:59.791Z</time></trkpt><trkpt lat="45.6971104" lon="11.314398"><ele>445.0</ele><time>2026-04-12T07:50:00.79Z</time></trkpt><trkpt lat="45.6969993" lon="11.3143107"><ele>445.0</ele><time>2026-04-12T07:50:01.791Z</time></trkpt><trkpt lat="45.696917" lon="11.3142233"><ele>445.0</ele><time>2026-04-12T07:50:02.79Z</time></trkpt><trkpt lat="45.6968453" lon="11.3141523"><ele>445.0</ele><time>2026-04-12T07:50:03.791Z</time></trkpt><trkpt lat="45.6967775" lon="11.3141147"><ele>445.0</ele><time>2026-04-12T07:50:04.791Z</time></trkpt><trkpt lat="45.6966942" lon="11.3141189"><ele>449.50000000000006</ele><time>2026-04-12T07:50:05.791Z</time></trkpt><trkpt lat="45.6966103" lon="11.3141369"><ele>454.0</ele><time>2026-04-12T07:50:06.791Z</time></trkpt><trkpt lat="45.6965435" lon="11.3141643"><ele>458.5</ele><time>2026-04-12T07:50:07.79Z</time></trkpt><trkpt lat="45.6964704" lon="11.3142454"><ele>463.0</ele><time>2026-04-12T07:50:09.79Z</time></trkpt><trkpt lat="45.6965031" lon="11.3143252"><ele>467.50000000000006</ele><time>2026-04-12T07:50:11.791Z</time></trkpt><trkpt lat="45.696594" lon="11.3143837"><ele>472.0</ele><time>2026-04-12T07:50:13.79Z</time></trkpt><trkpt lat="45.696691" lon="11.3144255"><ele>472.0</ele><time>2026-04-12T07:50:14.79Z</time></trkpt><trkpt lat="45.6968314" lon="11.3144946"><ele>472.0</ele><time>2026-04-12T07:50:15.79Z</time></trkpt><trkpt lat="45.6969492" lon="11.3145786"><ele>472.0</ele><time>2026-04-12T07:50:16.79Z</time></trkpt><trkpt lat="45.6970435" lon="11.3146801"><ele>472.0</ele><time>2026-04-12T07:50:17.791Z</time></trkpt><trkpt lat="45.6971148" lon="11.3147985"><ele>470.8</ele><time>2026-04-12T07:50:18.791Z</time></trkpt><trkpt lat="45.6971754" lon="11.3149293"><ele>469.6</ele><time>2026-04-12T07:50:19.79Z</time></trkpt><trkpt lat="45.697217" lon="11.3150534"><ele>468.40000000000003</ele><time>2026-04-12T07:50:20.791Z</time></trkpt><trkpt lat="45.6972083" lon="11.3151642"><ele>467.20000000000005</ele><time>2026-04-12T07:50:21.791Z</time></trkpt><trkpt lat="45.6971706" lon="11.3152671"><ele>466.0</ele><time>2026-04-12T07:50:22.791Z</time></trkpt><trkpt lat="45.6971058" lon="11.3153663"><ele>466.0</ele><time>2026-04-12T07:50:23.791Z</time></trkpt><trkpt lat="45.6970185" lon="11.31544"><ele>466.0</ele><time>2026-04-12T07:50:24.791Z</time></trkpt><trkpt lat="45.6969286" lon="11.3154907"><ele>466.0</ele><time>2026-04-12T07:50:25.791Z</time></trkpt><trkpt lat="45.6968325" lon="11.3155066"><ele>466.0</ele><time>2026-04-12T07:50:26.791Z</time></trkpt><trkpt lat="45.696724" lon="11.3154948"><ele>466.0</ele><time>2026-04-12T07:50:27.791Z</time></trkpt><trkpt lat="45.6966" lon="11.3154664"><ele>469.0</ele><time>2026-04-12T07:50:28.791Z</time></trkpt><trkpt lat="45.6964767" lon="11.3154518"><ele>472.0</ele><time>2026-04-12T07:50:29.79Z</time></trkpt><trkpt lat="45.6963689" lon="11.3154602"><ele>475.0</ele><time>2026-04-12T07:50:30.79Z</time></trkpt><trkpt lat="45.6962875" lon="11.3154999"><ele>478.0</ele><time>2026-04-12T07:50:31.79Z</time></trkpt><trkpt lat="45.6962223" lon="11.3155517"><ele>481.0</ele><time>2026-04-12T07:50:32.79Z</time></trkpt><trkpt lat="45.696114" lon="11.315618"><ele>482.50000000000006</ele><time>2026-04-12T07:50:34.791Z</time></trkpt><trkpt lat="45.6960832" lon="11.3155377"><ele>484.0</ele><time>2026-04-12T07:50:36.791Z</time></trkpt><trkpt lat="45.6961174" lon="11.3154142"><ele>485.5</ele><time>2026-04-12T07:50:38.791Z</time></trkpt><trkpt lat="45.6961684" lon="11.3153539"><ele>487.0</ele><time>2026-04-12T07:50:39.791Z</time></trkpt><trkpt lat="45.6962608" lon="11.3153025"><ele>488.50000000000006</ele><time>2026-04-12T07:50:40.79Z</time></trkpt><trkpt lat="45.6963463" lon="11.3152617"><ele>490.0</ele><time>2026-04-12T07:50:41.791Z</time></trkpt><trkpt lat="45.6964033" lon="11.3152137"><ele>490.0</ele><time>2026-04-12T07:50:42.791Z</time></trkpt><trkpt lat="45.6964387" lon="11.3151347"><ele>490.0</ele><time>2026-04-12T07:50:43.791Z</time></trkpt><trkpt lat="45.6963956" lon="11.3150154"><ele>490.0</ele><time>2026-04-12T07:50:45.791Z</time></trkpt><trkpt lat="45.6963223" lon="11.3149632"><ele>490.0</ele><time>2026-04-12T07:50:46.791Z</time></trkpt><trkpt lat="45.6962156" lon="11.3149065"><ele>490.0</ele><time>2026-04-12T07:50:47.791Z</time></trkpt><trkpt lat="45.6960911" lon="11.3148454"><ele>495.0</ele><time>2026-04-12T07:50:48.791Z</time></trkpt><trkpt lat="45.6959797" lon="11.3147879"><ele>500.0</ele><time>2026-04-12T07:50:49.79Z</time></trkpt><trkpt lat="45.6958921" lon="11.3147543"><ele>505.0</ele><time>2026-04-12T07:50:50.79Z</time></trkpt><trkpt lat="45.695821" lon="11.3147406"><ele>510.0</ele><time>2026-04-12T07:50:51.791Z</time></trkpt><trkpt lat="45.6957524" lon="11.3148218"><ele>515.0</ele><time>2026-04-12T07:50:53.791Z</time></trkpt><trkpt lat="45.6957498" lon="11.3149957"><ele>515.0</ele><time>2026-04-12T07:50:55.79Z</time></trkpt><trkpt lat="45.6957184" lon="11.3151667"><ele>515.0</ele><time>2026-04-12T07:50:57.791Z</time></trkpt><trkpt lat="45.6956717" lon="11.3152562"><ele>515.0</ele><time>2026-04-12T07:50:58.791Z</time></trkpt><trkpt lat="45.6956031" lon="11.3153456"><ele>515.0</ele><time>2026-04-12T07:50:59.791Z</time></trkpt><trkpt lat="45.6955224" lon="11.3154289"><ele>515.0</ele><time>2026-04-12T07:51:00.791Z</time></trkpt><trkpt lat="45.695456" lon="11.3155152"><ele>515.3333333333333</ele><time>2026-04-12T07:51:01.791Z</time></trkpt><trkpt lat="45.6954205" lon="11.3156033"><ele>515.6666666666666</ele><time>2026-04-12T07:51:02.791Z</time></trkpt><trkpt lat="45.6954548" lon="11.315766"><ele>516.0</ele><time>2026-04-12T07:51:04.791Z</time></trkpt><trkpt lat="45.695507" lon="11.3158434"><ele>516.3333333333334</ele><time>2026-04-12T07:51:05.79Z</time></trkpt><trkpt lat="45.6955665" lon="11.3159108"><ele>516.6666666666667</ele><time>2026-04-12T07:51:06.791Z</time></trkpt><trkpt lat="45.6956249" lon="11.3159978"><ele>517.0</ele><time>2026-04-12T07:51:07.791Z</time></trkpt><trkpt lat="45.6956746" lon="11.3160989"><ele>517.0</ele><time>2026-04-12T07:51:08.791Z</time></trkpt><trkpt lat="45.6957026" lon="11.3162025"><ele>517.0</ele><time>2026-04-12T07:51:09.79Z</time></trkpt><trkpt lat="45.6957065" lon="11.3163027"><ele>517.0</ele><time>2026-04-12T07:51:10.79Z</time></trkpt><trkpt lat="45.6956655" lon="11.3163943"><ele>517.0</ele><time>2026-04-12T07:51:11.791Z</time></trkpt><trkpt lat="45.6955995" lon="11.3164842"><ele>517.0</ele><time>2026-04-12T07:51:12.791Z</time></trkpt><trkpt lat="45.6955368" lon="11.3165478"><ele>517.0</ele><time>2026-04-12T07:51:13.791Z</time></trkpt><trkpt lat="45.6954504" lon="11.316544"><ele>517.0</ele><time>2026-04-12T07:51:15.79Z</time></trkpt><trkpt lat="45.6954604" lon="11.3164086"><ele>517.0</ele><time>2026-04-12T07:51:18.79Z</time></trkpt><trkpt lat="45.6955019" lon="11.3162494"><ele>517.0</ele><time>2026-04-12T07:51:20.79Z</time></trkpt><trkpt lat="45.6954629" lon="11.3161275"><ele>517.0</ele><time>2026-04-12T07:51:22.791Z</time></trkpt><trkpt lat="45.695401" lon="11.3160889"><ele>517.0</ele><time>2026-04-12T07:51:23.791Z</time></trkpt><trkpt lat="45.6953329" lon="11.3160599"><ele>517.0</ele><time>2026-04-12T07:51:24.791Z</time></trkpt><trkpt lat="45.6952652" lon="11.3160423"><ele>522.8000000000001</ele><time>2026-04-12T07:51:25.791Z</time></trkpt><trkpt lat="45.6951431" lon="11.3160956"><ele>528.6</ele><time>2026-04-12T07:51:27.791Z</time></trkpt><trkpt lat="45.6950799" lon="11.316165"><ele>534.4000000000001</ele><time>2026-04-12T07:51:28.79Z</time></trkpt><trkpt lat="45.6950277" lon="11.3162364"><ele>540.2</ele><time>2026-04-12T07:51:29.791Z</time></trkpt><trkpt lat="45.6949379" lon="11.3163311"><ele>546.0</ele><time>2026-04-12T07:51:31.791Z</time></trkpt><trkpt lat="45.6948667" lon="11.3162554"><ele>546.0</ele><time>2026-04-12T07:51:39.791Z</time></trkpt><trkpt lat="45.6947763" lon="11.3161976"><ele>546.0</ele><time>2026-04-12T07:51:41.79Z</time></trkpt><trkpt lat="45.6947158" lon="11.3161696"><ele>546.0</ele><time>2026-04-12T07:51:42.791Z</time></trkpt><trkpt lat="45.69465" lon="11.3161481"><ele>546.0</ele><time>2026-04-12T07:51:43.791Z</time></trkpt><trkpt lat="45.6945707" lon="11.3161273"><ele>546.0</ele><time>2026-04-12T07:51:44.791Z</time></trkpt><trkpt lat="45.694491" lon="11.3161035"><ele>546.0</ele><time>2026-04-12T07:51:45.791Z</time></trkpt><trkpt lat="45.6944184" lon="11.3160732"><ele>548.5</ele><time>2026-04-12T07:51:46.791Z</time></trkpt><trkpt lat="45.694357" lon="11.3160437"><ele>551.0</ele><time>2026-04-12T07:51:47.791Z</time></trkpt><trkpt lat="45.6942601" lon="11.3160186"><ele>553.5</ele><time>2026-04-12T07:51:49.79Z</time></trkpt><trkpt lat="45.6941724" lon="11.316028"><ele>556.0</ele><time>2026-04-12T07:51:51.789Z</time></trkpt><trkpt lat="45.6941165" lon="11.3159639"><ele>558.5</ele><time>2026-04-12T07:52:52.79Z</time></trkpt><trkpt lat="45.6940918" lon="11.3158153"><ele>561.0</ele><time>2026-04-12T07:52:55.79Z</time></trkpt><trkpt lat="45.6940619" lon="11.3156391"><ele>563.75</ele><time>2026-04-12T07:52:57.79Z</time></trkpt><trkpt lat="45.6939931" lon="11.315447"><ele>566.5</ele><time>2026-04-12T07:52:59.79Z</time></trkpt><trkpt lat="45.69393" lon="11.315326"><ele>569.25</ele><time>2026-04-12T07:53:00.789Z</time></trkpt><trkpt lat="45.6938611" lon="11.3152028"><ele>572.0</ele><time>2026-04-12T07:53:01.79Z</time></trkpt><trkpt lat="45.6938008" lon="11.3150875"><ele>572.0</ele><time>2026-04-12T07:53:02.789Z</time></trkpt><trkpt lat="45.6937479" lon="11.314991"><ele>572.0</ele><time>2026-04-12T07:53:03.789Z</time></trkpt><trkpt lat="45.6937024" lon="11.3149152"><ele>572.0</ele><time>2026-04-12T07:53:04.79Z</time></trkpt><trkpt lat="45.6936491" lon="11.314778"><ele>572.0</ele><time>2026-04-12T07:53:06.79Z</time></trkpt><trkpt lat="45.6936737" lon="11.3146371"><ele>572.0</ele><time>2026-04-12T07:53:08.79Z</time></trkpt><trkpt lat="45.6937093" lon="11.3145595"><ele>572.0</ele><time>2026-04-12T07:53:09.79Z</time></trkpt><trkpt lat="45.6937521" lon="11.3144808"><ele>574.25</ele><time>2026-04-12T07:53:10.79Z</time></trkpt><trkpt lat="45.6937887" lon="11.3143244"><ele>576.5</ele><time>2026-04-12T07:53:12.79Z</time></trkpt><trkpt lat="45.6937714" lon="11.3141226"><ele>578.75</ele><time>2026-04-12T07:53:14.789Z</time></trkpt><trkpt lat="45.6937518" lon="11.3139903"><ele>581.0</ele><time>2026-04-12T07:53:15.789Z</time></trkpt><trkpt lat="45.6937392" lon="11.3138375"><ele>581.4</ele><time>2026-04-12T07:53:16.789Z</time></trkpt><trkpt lat="45.6937419" lon="11.3136778"><ele>581.8</ele><time>2026-04-12T07:53:17.79Z</time></trkpt><trkpt lat="45.6937497" lon="11.3135383"><ele>582.1999999999999</ele><time>2026-04-12T07:53:18.789Z</time></trkpt><trkpt lat="45.6937678" lon="11.3134243"><ele>582.6</ele><time>2026-04-12T07:53:19.79Z</time></trkpt><trkpt lat="45.6937819" lon="11.3133287"><ele>583.0</ele><time>2026-04-12T07:53:20.789Z</time></trkpt><trkpt lat="45.6937791" lon="11.3131822"><ele>583.1666666666667</ele><time>2026-04-12T07:53:22.789Z</time></trkpt><trkpt lat="45.693724" lon="11.3130654"><ele>583.3333333333334</ele><time>2026-04-12T07:53:24.79Z</time></trkpt><trkpt lat="45.6936939" lon="11.3129207"><ele>583.5</ele><time>2026-04-12T07:53:26.789Z</time></trkpt><trkpt lat="45.6936849" lon="11.312827"><ele>583.6666666666666</ele><time>2026-04-12T07:53:27.79Z</time></trkpt><trkpt lat="45.6936809" lon="11.3127313"><ele>583.8333333333333</ele><time>2026-04-12T07:53:28.789Z</time></trkpt><trkpt lat="45.6936571" lon="11.3126283"><ele>584.0</ele><time>2026-04-12T07:53:29.789Z</time></trkpt><trkpt lat="45.693638" lon="11.3125278"><ele>584.0</ele><time>2026-04-12T07:53:30.79Z</time></trkpt><trkpt lat="45.6936116" lon="11.3124315"><ele>584.0</ele><time>2026-04-12T07:53:31.79Z</time></trkpt><trkpt lat="45.6935867" lon="11.3123415"><ele>584.0</ele><time>2026-04-12T07:53:32.789Z</time></trkpt><trkpt lat="45.6935427" lon="11.3121959"><ele>584.0</ele><time>2026-04-12T07:53:34.789Z</time></trkpt><trkpt lat="45.6934983" lon="11.3121139"><ele>584.0</ele><time>2026-04-12T07:53:35.789Z</time></trkpt><trkpt lat="45.6934394" lon="11.3119607"><ele>584.0</ele><time>2026-04-12T07:53:37.789Z</time></trkpt><trkpt lat="45.6934154" lon="11.3118741"><ele>587.7142857142857</ele><time>2026-04-12T07:53:38.789Z</time></trkpt><trkpt lat="45.6934023" lon="11.3117851"><ele>591.4285714285714</ele><time>2026-04-12T07:53:39.79Z</time></trkpt><trkpt lat="45.6933922" lon="11.3116882"><ele>595.1428571428571</ele><time>2026-04-12T07:53:40.79Z</time></trkpt><trkpt lat="45.6933719" lon="11.311593"><ele>598.8571428571429</ele><time>2026-04-12T07:53:41.79Z</time></trkpt><trkpt lat="45.6933575" lon="11.3114909"><ele>602.5714285714286</ele><time>2026-04-12T07:53:42.79Z</time></trkpt><trkpt lat="45.6933298" lon="11.3113778"><ele>606.2857142857143</ele><time>2026-04-12T07:53:43.79Z</time></trkpt><trkpt lat="45.6933031" lon="11.3112822"><ele>610.0</ele><time>2026-04-12T07:53:44.79Z</time></trkpt><trkpt lat="45.6932722" lon="11.3111508"><ele>610.0</ele><time>2026-04-12T07:53:46.79Z</time></trkpt><trkpt lat="45.6932078" lon="11.3111008"><ele>610.0</ele><time>2026-04-12T07:53:49.79Z</time></trkpt><trkpt lat="45.6931722" lon="11.3111859"><ele>610.0</ele><time>2026-04-12T07:53:52.79Z</time></trkpt><trkpt lat="45.6931209" lon="11.3113135"><ele>610.0</ele><time>2026-04-12T07:53:54.79Z</time></trkpt><trkpt lat="45.6930455" lon="11.3114192"><ele>610.0</ele><time>2026-04-12T07:53:56.79Z</time></trkpt><trkpt lat="45.6929506" lon="11.3114895"><ele>610.0</ele><time>2026-04-12T07:53:58.789Z</time></trkpt><trkpt lat="45.6928465" lon="11.311525"><ele>610.0</ele><time>2026-04-12T07:54:00.789Z</time></trkpt><trkpt lat="45.69273" lon="11.3115054"><ele>610.0</ele><time>2026-04-12T07:54:02.79Z</time></trkpt><trkpt lat="45.6926629" lon="11.3114907"><ele>610.0</ele><time>2026-04-12T07:54:03.789Z</time></trkpt><trkpt lat="45.6925993" lon="11.3114768"><ele>610.0</ele><time>2026-04-12T07:54:04.79Z</time></trkpt><trkpt lat="45.6925368" lon="11.3114594"><ele>610.0</ele><time>2026-04-12T07:54:05.79Z</time></trkpt><trkpt lat="45.6924233" lon="11.3114179"><ele>612.2</ele><time>2026-04-12T07:54:07.789Z</time></trkpt><trkpt lat="45.6923375" lon="11.3113781"><ele>614.4</ele><time>2026-04-12T07:54:09.79Z</time></trkpt><trkpt lat="45.6922855" lon="11.3113013"><ele>616.6</ele><time>2026-04-12T07:54:11.79Z</time></trkpt><trkpt lat="45.6922352" lon="11.3111386"><ele>618.8</ele><time>2026-04-12T07:54:13.79Z</time></trkpt><trkpt lat="45.6922067" lon="11.3110565"><ele>621.0</ele><time>2026-04-12T07:54:14.789Z</time></trkpt><trkpt lat="45.6921189" lon="11.3109673"><ele>621.0</ele><time>2026-04-12T07:54:16.79Z</time></trkpt><trkpt lat="45.6919863" lon="11.3109584"><ele>621.0</ele><time>2026-04-12T07:54:18.79Z</time></trkpt><trkpt lat="45.6919117" lon="11.3109505"><ele>621.0</ele><time>2026-04-12T07:54:19.789Z</time></trkpt><trkpt lat="45.6918337" lon="11.310941"><ele>621.0</ele><time>2026-04-12T07:54:20.79Z</time></trkpt><trkpt lat="45.6917599" lon="11.3109279"><ele>621.0</ele><time>2026-04-12T07:54:21.79Z</time></trkpt><trkpt lat="45.6916683" lon="11.3109031"><ele>619.8333333333334</ele><time>2026-04-12T07:54:23.79Z</time></trkpt><trkpt lat="45.6916087" lon="11.3108084"><ele>618.6666666666666</ele><time>2026-04-12T07:54:55.79Z</time></trkpt><trkpt lat="45.6915413" lon="11.3107679"><ele>617.5</ele><time>2026-04-12T07:54:56.789Z</time></trkpt><trkpt lat="45.6914675" lon="11.3107394"><ele>616.3333333333333</ele><time>2026-04-12T07:54:57.789Z</time></trkpt><trkpt lat="45.6913928" lon="11.3107195"><ele>615.1666666666666</ele><time>2026-04-12T07:54:58.789Z</time></trkpt><trkpt lat="45.6913138" lon="11.3107161"><ele>614.0</ele><time>2026-04-12T07:54:59.79Z</time></trkpt><trkpt lat="45.6912415" lon="11.3107053"><ele>614.0</ele><time>2026-04-12T07:55:00.79Z</time></trkpt><trkpt lat="45.6911645" lon="11.3106896"><ele>614.0</ele><time>2026-04-12T07:55:01.79Z</time></trkpt><trkpt lat="45.6910906" lon="11.3106739"><ele>614.0</ele><time>2026-04-12T07:55:02.789Z</time></trkpt><trkpt lat="45.6910114" lon="11.3106336"><ele>614.0</ele><time>2026-04-12T07:55:04.79Z</time></trkpt><trkpt lat="45.6910866" lon="11.3105545"><ele>614.0</ele><time>2026-04-12T07:55:10.79Z</time></trkpt><trkpt lat="45.6911909" lon="11.3105025"><ele>614.0</ele><time>2026-04-12T07:55:12.79Z</time></trkpt><trkpt lat="45.6912931" lon="11.3104236"><ele>618.8333333333333</ele><time>2026-04-12T07:55:14.79Z</time></trkpt><trkpt lat="45.6914061" lon="11.3103428"><ele>623.6666666666666</ele><time>2026-04-12T07:55:16.79Z</time></trkpt><trkpt lat="45.6914716" lon="11.3102964"><ele>628.5</ele><time>2026-04-12T07:55:17.789Z</time></trkpt><trkpt lat="45.6915362" lon="11.3102522"><ele>633.3333333333334</ele><time>2026-04-12T07:55:18.79Z</time></trkpt><trkpt lat="45.691605" lon="11.3101968"><ele>638.1666666666667</ele><time>2026-04-12T07:55:19.789Z</time></trkpt><trkpt lat="45.6916665" lon="11.3101371"><ele>643.0</ele><time>2026-04-12T07:55:20.79Z</time></trkpt><trkpt lat="45.6917254" lon="11.3100846"><ele>643.0</ele><time>2026-04-12T07:55:21.79Z</time></trkpt><trkpt lat="45.691821" lon="11.3100128"><ele>643.0</ele><time>2026-04-12T07:55:23.789Z</time></trkpt><trkpt lat="45.691927" lon="11.309968"><ele>643.0</ele><time>2026-04-12T07:55:25.789Z</time></trkpt><trkpt lat="45.6919938" lon="11.3099553"><ele>643.0</ele><time>2026-04-12T07:55:26.79Z</time></trkpt><trkpt lat="45.6920594" lon="11.3099343"><ele>643.0</ele><time>2026-04-12T07:55:27.789Z</time></trkpt><trkpt lat="45.6921338" lon="11.309917"><ele>643.0</ele><time>2026-04-12T07:55:28.79Z</time></trkpt><trkpt lat="45.6922018" lon="11.3099016"><ele>644.3333333333334</ele><time>2026-04-12T07:55:29.789Z</time></trkpt><trkpt lat="45.6922592" lon="11.3098275"><ele>645.6666666666667</ele><time>2026-04-12T07:55:31.79Z</time></trkpt><trkpt lat="45.6922272" lon="11.3097487"><ele>647.0</ele><time>2026-04-12T07:55:33.789Z</time></trkpt><trkpt lat="45.6921262" lon="11.30971"><ele>648.3333333333334</ele><time>2026-04-12T07:55:35.789Z</time></trkpt><trkpt lat="45.6920477" lon="11.309685"><ele>649.6666666666666</ele><time>2026-04-12T07:55:36.79Z</time></trkpt><trkpt lat="45.6919622" lon="11.309661"><ele>651.0</ele><time>2026-04-12T07:55:37.79Z</time></trkpt><trkpt lat="45.6918815" lon="11.3096266"><ele>655.2857142857143</ele><time>2026-04-12T07:55:38.79Z</time></trkpt><trkpt lat="45.6917991" lon="11.3096019"><ele>659.5714285714286</ele><time>2026-04-12T07:55:39.789Z</time></trkpt><trkpt lat="45.6917213" lon="11.3095844"><ele>663.8571428571429</ele><time>2026-04-12T07:55:40.79Z</time></trkpt><trkpt lat="45.6916545" lon="11.3095739"><ele>668.1428571428571</ele><time>2026-04-12T07:55:41.79Z</time></trkpt><trkpt lat="45.6915888" lon="11.309559"><ele>672.4285714285714</ele><time>2026-04-12T07:55:42.79Z</time></trkpt><trkpt lat="45.6915292" lon="11.3095293"><ele>676.7142857142858</ele><time>2026-04-12T07:55:43.79Z</time></trkpt><trkpt lat="45.6914607" lon="11.3094882"><ele>681.0</ele><time>2026-04-12T07:55:44.79Z</time></trkpt><trkpt lat="45.69138" lon="11.3094511"><ele>681.0</ele><time>2026-04-12T07:55:45.79Z</time></trkpt><trkpt lat="45.6912964" lon="11.3094193"><ele>681.0</ele><time>2026-04-12T07:55:46.789Z</time></trkpt><trkpt lat="45.6912167" lon="11.309396"><ele>681.0</ele><time>2026-04-12T07:55:47.79Z</time></trkpt><trkpt lat="45.6911446" lon="11.309398"><ele>681.0</ele><time>2026-04-12T07:55:48.789Z</time></trkpt><trkpt lat="45.6910727" lon="11.3093954"><ele>681.0</ele><time>2026-04-12T07:55:49.79Z</time></trkpt><trkpt lat="45.6910096" lon="11.3093871"><ele>681.0</ele><time>2026-04-12T07:55:50.79Z</time></trkpt><trkpt lat="45.6909356" lon="11.3093548"><ele>681.0</ele><time>2026-04-12T07:55:52.789Z</time></trkpt><trkpt lat="45.6910372" lon="11.3093417"><ele>681.0</ele><time>2026-04-12T07:56:04.788Z</time></trkpt><trkpt lat="45.6911541" lon="11.3093486"><ele>681.0</ele><time>2026-04-12T07:56:06.788Z</time></trkpt><trkpt lat="45.6912242" lon="11.3093572"><ele>681.0</ele><time>2026-04-12T07:56:07.789Z</time></trkpt><trkpt lat="45.6913011" lon="11.3093645"><ele>681.0</ele><time>2026-04-12T07:56:08.788Z</time></trkpt><trkpt lat="45.6913828" lon="11.3093815"><ele>681.0</ele><time>2026-04-12T07:56:09.789Z</time></trkpt><trkpt lat="45.6914629" lon="11.309387"><ele>681.0</ele><time>2026-04-12T07:56:10.789Z</time></trkpt><trkpt lat="45.6915572" lon="11.3093829"><ele>681.0</ele><time>2026-04-12T07:56:11.788Z</time></trkpt><trkpt lat="45.6916628" lon="11.3093911"><ele>681.0</ele><time>2026-04-12T07:56:12.789Z</time></trkpt><trkpt lat="45.6917637" lon="11.3093907"><ele>681.0</ele><time>2026-04-12T07:56:13.789Z</time></trkpt><trkpt lat="45.6918591" lon="11.3093857"><ele>681.0</ele><time>2026-04-12T07:56:14.788Z</time></trkpt><trkpt lat="45.6919551" lon="11.3093839"><ele>682.5999999999999</ele><time>2026-04-12T07:56:15.789Z</time></trkpt><trkpt lat="45.6920467" lon="11.3093764"><ele>684.2</ele><time>2026-04-12T07:56:16.788Z</time></trkpt><trkpt lat="45.6921355" lon="11.3093798"><ele>685.8</ele><time>2026-04-12T07:56:17.789Z</time></trkpt><trkpt lat="45.6922219" lon="11.3093918"><ele>687.4000000000001</ele><time>2026-04-12T07:56:18.788Z</time></trkpt><trkpt lat="45.6923136" lon="11.3094062"><ele>689.0</ele><time>2026-04-12T07:56:19.789Z</time></trkpt><trkpt lat="45.6924303" lon="11.3094072"><ele>689.0</ele><time>2026-04-12T07:56:20.788Z</time></trkpt><trkpt lat="45.6925598" lon="11.3094069"><ele>689.0</ele><time>2026-04-12T07:56:21.789Z</time></trkpt><trkpt lat="45.6926911" lon="11.3094052"><ele>689.0</ele><time>2026-04-12T07:56:22.789Z</time></trkpt><trkpt lat="45.692818" lon="11.3094126"><ele>689.0</ele><time>2026-04-12T07:56:23.789Z</time></trkpt><trkpt lat="45.6929342" lon="11.3094247"><ele>689.1666666666666</ele><time>2026-04-12T07:56:24.789Z</time></trkpt><trkpt lat="45.6930398" lon="11.3094508"><ele>689.3333333333333</ele><time>2026-04-12T07:56:25.789Z</time></trkpt><trkpt lat="45.6931334" lon="11.3094841"><ele>689.5</ele><time>2026-04-12T07:56:26.788Z</time></trkpt><trkpt lat="45.6932156" lon="11.3095129"><ele>689.6666666666666</ele><time>2026-04-12T07:56:27.789Z</time></trkpt><trkpt lat="45.6932931" lon="11.3095367"><ele>689.8333333333334</ele><time>2026-04-12T07:56:28.789Z</time></trkpt><trkpt lat="45.6933661" lon="11.3095668"><ele>690.0</ele><time>2026-04-12T07:56:29.788Z</time></trkpt><trkpt lat="45.6934354" lon="11.3096014"><ele>690.0</ele><time>2026-04-12T07:56:30.789Z</time></trkpt><trkpt lat="45.6934957" lon="11.3096299"><ele>690.0</ele><time>2026-04-12T07:56:31.788Z</time></trkpt><trkpt lat="45.6936052" lon="11.3096317"><ele>690.0</ele><time>2026-04-12T07:56:33.789Z</time></trkpt><trkpt lat="45.6937023" lon="11.3095928"><ele>690.0</ele><time>2026-04-12T07:56:35.789Z</time></trkpt><trkpt lat="45.693791" lon="11.3095462"><ele>690.0</ele><time>2026-04-12T07:56:37.789Z</time></trkpt><trkpt lat="45.6938673" lon="11.3094968"><ele>686.5</ele><time>2026-04-12T07:56:39.788Z</time></trkpt><trkpt lat="45.6939335" lon="11.3094407"><ele>683.0</ele><time>2026-04-12T07:56:41.788Z</time></trkpt><trkpt lat="45.6940012" lon="11.3093642"><ele>679.5</ele><time>2026-04-12T07:56:43.789Z</time></trkpt><trkpt lat="45.694051" lon="11.3092911"><ele>676.0</ele><time>2026-04-12T07:56:45.788Z</time></trkpt><trkpt lat="45.6941162" lon="11.3091767"><ele>672.5</ele><time>2026-04-12T07:56:48.789Z</time></trkpt><trkpt lat="45.6941576" lon="11.3090604"><ele>669.0</ele><time>2026-04-12T07:56:50.788Z</time></trkpt><trkpt lat="45.694183" lon="11.3089739"><ele>669.1666666666666</ele><time>2026-04-12T07:56:52.788Z</time></trkpt><trkpt lat="45.6942364" lon="11.308863"><ele>669.3333333333334</ele><time>2026-04-12T07:56:55.789Z</time></trkpt><trkpt lat="45.6942549" lon="11.3087492"><ele>669.5</ele><time>2026-04-12T07:56:57.789Z</time></trkpt><trkpt lat="45.6942408" lon="11.3086424"><ele>669.6666666666667</ele><time>2026-04-12T07:56:59.788Z</time></trkpt><trkpt lat="45.6942145" lon="11.3085261"><ele>669.8333333333334</ele><time>2026-04-12T07:57:01.789Z</time></trkpt><trkpt lat="45.6941869" lon="11.3084217"><ele>670.0</ele><time>2026-04-12T07:57:03.789Z</time></trkpt><trkpt lat="45.6941508" lon="11.3083399"><ele>670.0</ele><time>2026-04-12T07:57:05.788Z</time></trkpt><trkpt lat="45.694126" lon="11.308227"><ele>670.0</ele><time>2026-04-12T07:57:09.789Z</time></trkpt><trkpt lat="45.6941109" lon="11.3081376"><ele>670.0</ele><time>2026-04-12T07:57:12.788Z</time></trkpt><trkpt lat="45.6940714" lon="11.3080452"><ele>670.0</ele><time>2026-04-12T07:57:15.788Z</time></trkpt><trkpt lat="45.6940253" lon="11.3079457"><ele>670.0</ele><time>2026-04-12T07:57:18.788Z</time></trkpt><trkpt lat="45.6939764" lon="11.307807"><ele>670.0</ele><time>2026-04-12T07:57:20.789Z</time></trkpt><trkpt lat="45.693951" lon="11.3077227"><ele>666.5</ele><time>2026-04-12T07:57:21.789Z</time></trkpt><trkpt lat="45.693935" lon="11.3076259"><ele>663.0</ele><time>2026-04-12T07:57:22.788Z</time></trkpt><trkpt lat="45.6939057" lon="11.3075269"><ele>659.5</ele><time>2026-04-12T07:57:23.789Z</time></trkpt><trkpt lat="45.6938599" lon="11.3074291"><ele>656.0</ele><time>2026-04-12T07:57:24.789Z</time></trkpt><trkpt lat="45.6938096" lon="11.3073333"><ele>652.5</ele><time>2026-04-12T07:57:25.789Z</time></trkpt><trkpt lat="45.6937651" lon="11.3072522"><ele>649.0</ele><time>2026-04-12T07:57:26.789Z</time></trkpt><trkpt lat="45.6936968" lon="11.3071027"><ele>645.2</ele><time>2026-04-12T07:57:28.789Z</time></trkpt><trkpt lat="45.693662" lon="11.3070234"><ele>641.4000000000001</ele><time>2026-04-12T07:57:29.788Z</time></trkpt><trkpt lat="45.6936054" lon="11.3068654"><ele>637.6</ele><time>2026-04-12T07:57:31.789Z</time></trkpt><trkpt lat="45.6935702" lon="11.3067227"><ele>633.8</ele><time>2026-04-12T07:57:33.789Z</time></trkpt><trkpt lat="45.6935397" lon="11.3065778"><ele>630.0</ele><time>2026-04-12T07:57:35.789Z</time></trkpt><trkpt lat="45.6935253" lon="11.3064132"><ele>638.5</ele><time>2026-04-12T07:57:37.789Z</time></trkpt><trkpt lat="45.6934893" lon="11.3062503"><ele>647.0</ele><time>2026-04-12T07:57:39.789Z</time></trkpt><trkpt lat="45.6934628" lon="11.3061614"><ele>655.5</ele><time>2026-04-12T07:57:40.789Z</time></trkpt><trkpt lat="45.6934305" lon="11.3060592"><ele>664.0</ele><time>2026-04-12T07:57:41.788Z</time></trkpt><trkpt lat="45.6933929" lon="11.305941"><ele>672.5</ele><time>2026-04-12T07:57:42.788Z</time></trkpt><trkpt lat="45.6933677" lon="11.3058211"><ele>681.0</ele><time>2026-04-12T07:57:43.788Z</time></trkpt><trkpt lat="45.6933497" lon="11.3056986"><ele>681.0</ele><time>2026-04-12T07:57:44.789Z</time></trkpt><trkpt lat="45.6933324" lon="11.3055815"><ele>681.0</ele><time>2026-04-12T07:57:45.788Z</time></trkpt><trkpt lat="45.6933102" lon="11.305481"><ele>681.0</ele><time>2026-04-12T07:57:46.789Z</time></trkpt><trkpt lat="45.6932931" lon="11.3053841"><ele>681.0</ele><time>2026-04-12T07:57:47.789Z</time></trkpt><trkpt lat="45.6932795" lon="11.3052918"><ele>681.0</ele><time>2026-04-12T07:57:48.789Z</time></trkpt><trkpt lat="45.6932715" lon="11.3051217"><ele>681.0</ele><time>2026-04-12T07:57:50.789Z</time></trkpt><trkpt lat="45.6932409" lon="11.3049574"><ele>677.8333333333334</ele><time>2026-04-12T07:57:52.789Z</time></trkpt><trkpt lat="45.6931869" lon="11.3048509"><ele>674.6666666666666</ele><time>2026-04-12T07:57:54.789Z</time></trkpt><trkpt lat="45.693073" lon="11.3047752"><ele>671.5</ele><time>2026-04-12T07:57:56.789Z</time></trkpt><trkpt lat="45.6930105" lon="11.3047372"><ele>668.3333333333333</ele><time>2026-04-12T07:57:57.789Z</time></trkpt><trkpt lat="45.6929521" lon="11.3046931"><ele>665.1666666666666</ele><time>2026-04-12T07:57:58.788Z</time></trkpt><trkpt lat="45.6928787" lon="11.3046421"><ele>662.0</ele><time>2026-04-12T07:57:59.788Z</time></trkpt><trkpt lat="45.6928162" lon="11.3045766"><ele>659.0</ele><time>2026-04-12T07:58:00.789Z</time></trkpt><trkpt lat="45.6927747" lon="11.3044916"><ele>656.0</ele><time>2026-04-12T07:58:01.789Z</time></trkpt><trkpt lat="45.6927364" lon="11.3043911"><ele>653.0</ele><time>2026-04-12T07:58:02.788Z</time></trkpt><trkpt lat="45.6927258" lon="11.3042701"><ele>650.0</ele><time>2026-04-12T07:58:03.788Z</time></trkpt><trkpt lat="45.692706" lon="11.3041498"><ele>647.0</ele><time>2026-04-12T07:58:04.788Z</time></trkpt><trkpt lat="45.6926872" lon="11.304042"><ele>644.0</ele><time>2026-04-12T07:58:05.788Z</time></trkpt><trkpt lat="45.6926612" lon="11.3038688"><ele>654.6666666666666</ele><time>2026-04-12T07:58:07.789Z</time></trkpt><trkpt lat="45.6926478" lon="11.3037611"><ele>665.3333333333333</ele><time>2026-04-12T07:58:08.789Z</time></trkpt><trkpt lat="45.6926352" lon="11.3036339"><ele>676.0</ele><time>2026-04-12T07:58:09.789Z</time></trkpt><trkpt lat="45.6926277" lon="11.3035146"><ele>686.6666666666666</ele><time>2026-04-12T07:58:10.788Z</time></trkpt><trkpt lat="45.6926264" lon="11.3034077"><ele>697.3333333333334</ele><time>2026-04-12T07:58:11.788Z</time></trkpt><trkpt lat="45.6926496" lon="11.3033168"><ele>708.0</ele><time>2026-04-12T07:58:12.789Z</time></trkpt><trkpt lat="45.692668" lon="11.3032305"><ele>711.2</ele><time>2026-04-12T07:58:13.789Z</time></trkpt><trkpt lat="45.6927069" lon="11.3030618"><ele>714.4</ele><time>2026-04-12T07:58:15.788Z</time></trkpt><trkpt lat="45.6927254" lon="11.3029709"><ele>717.6</ele><time>2026-04-12T07:58:16.789Z</time></trkpt><trkpt lat="45.6927697" lon="11.3028274"><ele>720.8000000000001</ele><time>2026-04-12T07:58:18.789Z</time></trkpt><trkpt lat="45.6928693" lon="11.3027234"><ele>724.0</ele><time>2026-04-12T07:58:20.788Z</time></trkpt><trkpt lat="45.6929251" lon="11.3026566"><ele>719.3333333333334</ele><time>2026-04-12T07:58:21.789Z</time></trkpt><trkpt lat="45.6929782" lon="11.3025768"><ele>714.6666666666667</ele><time>2026-04-12T07:58:22.788Z</time></trkpt><trkpt lat="45.6930173" lon="11.3024859"><ele>710.0</ele><time>2026-04-12T07:58:23.788Z</time></trkpt><trkpt lat="45.6930361" lon="11.3023752"><ele>705.3333333333334</ele><time>2026-04-12T07:58:24.788Z</time></trkpt><trkpt lat="45.6930416" lon="11.3022576"><ele>700.6666666666666</ele><time>2026-04-12T07:58:25.788Z</time></trkpt><trkpt lat="45.6930543" lon="11.3021378"><ele>696.0</ele><time>2026-04-12T07:58:26.788Z</time></trkpt><trkpt lat="45.6930754" lon="11.3020178"><ele>696.0</ele><time>2026-04-12T07:58:27.789Z</time></trkpt><trkpt lat="45.6931058" lon="11.3019068"><ele>696.0</ele><time>2026-04-12T07:58:28.789Z</time></trkpt><trkpt lat="45.6931479" lon="11.3018153"><ele>696.0</ele><time>2026-04-12T07:58:29.789Z</time></trkpt><trkpt lat="45.6931986" lon="11.30174"><ele>696.0</ele><time>2026-04-12T07:58:30.788Z</time></trkpt><trkpt lat="45.6932584" lon="11.301663"><ele>696.0</ele><time>2026-04-12T07:58:31.789Z</time></trkpt><trkpt lat="45.6933175" lon="11.3015734"><ele>696.0</ele><time>2026-04-12T07:58:32.789Z</time></trkpt><trkpt lat="45.6933766" lon="11.301474"><ele>699.1999999999999</ele><time>2026-04-12T07:58:33.789Z</time></trkpt><trkpt lat="45.6934318" lon="11.3013656"><ele>702.4</ele><time>2026-04-12T07:58:34.788Z</time></trkpt><trkpt lat="45.6934817" lon="11.3012527"><ele>705.6</ele><time>2026-04-12T07:58:35.788Z</time></trkpt><trkpt lat="45.6935267" lon="11.3011375"><ele>708.8</ele><time>2026-04-12T07:58:36.789Z</time></trkpt><trkpt lat="45.6935787" lon="11.3010196"><ele>712.0</ele><time>2026-04-12T07:58:37.789Z</time></trkpt><trkpt lat="45.693641" lon="11.300904"><ele>701.0</ele><time>2026-04-12T07:58:38.788Z</time></trkpt><trkpt lat="45.6936956" lon="11.3007957"><ele>690.0</ele><time>2026-04-12T07:58:39.789Z</time></trkpt><trkpt lat="45.6937469" lon="11.3006973"><ele>679.0</ele><time>2026-04-12T07:58:40.789Z</time></trkpt><trkpt lat="45.693786" lon="11.3005513"><ele>668.0</ele><time>2026-04-12T07:58:42.788Z</time></trkpt><trkpt lat="45.6937646" lon="11.3004452"><ele>657.0</ele><time>2026-04-12T07:58:44.788Z</time></trkpt><trkpt lat="45.6936993" lon="11.3003521"><ele>655.8</ele><time>2026-04-12T07:58:46.788Z</time></trkpt><trkpt lat="45.6936014" lon="11.3002464"><ele>654.6</ele><time>2026-04-12T07:58:48.789Z</time></trkpt><trkpt lat="45.6935492" lon="11.300191"><ele>653.4</ele><time>2026-04-12T07:58:49.789Z</time></trkpt><trkpt lat="45.6934735" lon="11.3000892"><ele>652.1999999999999</ele><time>2026-04-12T07:58:51.788Z</time></trkpt><trkpt lat="45.693427" lon="11.2999777"><ele>651.0</ele><time>2026-04-12T07:58:53.789Z</time></trkpt><trkpt lat="45.6934118" lon="11.2998632"><ele>658.4</ele><time>2026-04-12T07:58:55.788Z</time></trkpt><trkpt lat="45.6934066" lon="11.2997218"><ele>665.8</ele><time>2026-04-12T07:58:57.788Z</time></trkpt><trkpt lat="45.6933749" lon="11.299555"><ele>673.1999999999999</ele><time>2026-04-12T07:58:59.789Z</time></trkpt><trkpt lat="45.6932933" lon="11.2994164"><ele>680.5999999999999</ele><time>2026-04-12T07:59:01.788Z</time></trkpt><trkpt lat="45.6932364" lon="11.2993579"><ele>688.0</ele><time>2026-04-12T07:59:02.788Z</time></trkpt><trkpt lat="45.6931754" lon="11.29922"><ele>688.0</ele><time>2026-04-12T07:59:04.788Z</time></trkpt><trkpt lat="45.6931558" lon="11.2991294"><ele>688.0</ele><time>2026-04-12T07:59:05.789Z</time></trkpt><trkpt lat="45.693133" lon="11.299028"><ele>688.0</ele><time>2026-04-12T07:59:06.788Z</time></trkpt><trkpt lat="45.6931201" lon="11.298923"><ele>688.0</ele><time>2026-04-12T07:59:07.788Z</time></trkpt><trkpt lat="45.6931077" lon="11.2988268"><ele>688.0</ele><time>2026-04-12T07:59:08.789Z</time></trkpt><trkpt lat="45.6930907" lon="11.2986733"><ele>688.0</ele><time>2026-04-12T07:59:10.788Z</time></trkpt><trkpt lat="45.6931009" lon="11.2985707"><ele>688.6666666666667</ele><time>2026-04-12T07:59:12.788Z</time></trkpt><trkpt lat="45.6931763" lon="11.2984973"><ele>689.3333333333334</ele><time>2026-04-12T07:59:14.788Z</time></trkpt><trkpt lat="45.6932327" lon="11.2984449"><ele>690.0</ele><time>2026-04-12T07:59:15.788Z</time></trkpt><trkpt lat="45.6932915" lon="11.2983718"><ele>690.6666666666666</ele><time>2026-04-12T07:59:16.789Z</time></trkpt><trkpt lat="45.6933425" lon="11.2982881"><ele>691.3333333333333</ele><time>2026-04-12T07:59:17.789Z</time></trkpt><trkpt lat="45.6933853" lon="11.2982083"><ele>692.0</ele><time>2026-04-12T07:59:18.789Z</time></trkpt><trkpt lat="45.6934166" lon="11.2981229"><ele>694.1428571428571</ele><time>2026-04-12T07:59:19.788Z</time></trkpt><trkpt lat="45.6934272" lon="11.2980311"><ele>696.2857142857143</ele><time>2026-04-12T07:59:20.789Z</time></trkpt><trkpt lat="45.6934204" lon="11.2979365"><ele>698.4285714285714</ele><time>2026-04-12T07:59:21.788Z</time></trkpt><trkpt lat="45.6934055" lon="11.2978374"><ele>700.5714285714286</ele><time>2026-04-12T07:59:22.789Z</time></trkpt><trkpt lat="45.6933676" lon="11.2977301"><ele>702.7142857142858</ele><time>2026-04-12T07:59:23.789Z</time></trkpt><trkpt lat="45.693336" lon="11.2976214"><ele>704.8571428571429</ele><time>2026-04-12T07:59:24.789Z</time></trkpt><trkpt lat="45.6933185" lon="11.2975135"><ele>707.0</ele><time>2026-04-12T07:59:25.788Z</time></trkpt><trkpt lat="45.6933168" lon="11.2973916"><ele>707.0</ele><time>2026-04-12T07:59:26.788Z</time></trkpt><trkpt lat="45.6933312" lon="11.2972707"><ele>707.0</ele><time>2026-04-12T07:59:27.789Z</time></trkpt><trkpt lat="45.6933579" lon="11.2971555"><ele>707.0</ele><time>2026-04-12T07:59:28.789Z</time></trkpt><trkpt lat="45.6933952" lon="11.2970463"><ele>707.0</ele><time>2026-04-12T07:59:29.788Z</time></trkpt><trkpt lat="45.6934439" lon="11.2969438"><ele>707.0</ele><time>2026-04-12T07:59:30.789Z</time></trkpt><trkpt lat="45.6935005" lon="11.2968684"><ele>707.0</ele><time>2026-04-12T07:59:31.788Z</time></trkpt><trkpt lat="45.6935603" lon="11.2968071"><ele>699.8333333333333</ele><time>2026-04-12T07:59:32.789Z</time></trkpt><trkpt lat="45.6936087" lon="11.2967484"><ele>692.6666666666666</ele><time>2026-04-12T07:59:33.788Z</time></trkpt><trkpt lat="45.6936629" lon="11.2966315"><ele>685.5</ele><time>2026-04-12T07:59:35.789Z</time></trkpt><trkpt lat="45.6936607" lon="11.2964877"><ele>678.3333333333334</ele><time>2026-04-12T07:59:37.788Z</time></trkpt><trkpt lat="45.6936437" lon="11.2963865"><ele>671.1666666666667</ele><time>2026-04-12T07:59:38.789Z</time></trkpt><trkpt lat="45.6936323" lon="11.2962702"><ele>664.0</ele><time>2026-04-12T07:59:39.788Z</time></trkpt><trkpt lat="45.6936367" lon="11.2961444"><ele>664.0</ele><time>2026-04-12T07:59:40.789Z</time></trkpt><trkpt lat="45.693647" lon="11.2960247"><ele>664.0</ele><time>2026-04-12T07:59:41.788Z</time></trkpt><trkpt lat="45.6936753" lon="11.2959273"><ele>664.0</ele><time>2026-04-12T07:59:42.789Z</time></trkpt><trkpt lat="45.6937184" lon="11.2958401"><ele>664.0</ele><time>2026-04-12T07:59:43.788Z</time></trkpt><trkpt lat="45.6937525" lon="11.2957546"><ele>664.0</ele><time>2026-04-12T07:59:44.788Z</time></trkpt><trkpt lat="45.6937841" lon="11.2956692"><ele>664.0</ele><time>2026-04-12T07:59:45.789Z</time></trkpt><trkpt lat="45.6937973" lon="11.2955739"><ele>664.0</ele><time>2026-04-12T07:59:46.788Z</time></trkpt><trkpt lat="45.6937987" lon="11.2954707"><ele>663.2857142857142</ele><time>2026-04-12T07:59:47.789Z</time></trkpt><trkpt lat="45.693791" lon="11.2953738"><ele>662.5714285714287</ele><time>2026-04-12T07:59:48.788Z</time></trkpt><trkpt lat="45.6937765" lon="11.2952784"><ele>661.8571428571429</ele><time>2026-04-12T07:59:49.788Z</time></trkpt><trkpt lat="45.6937576" lon="11.2951737"><ele>661.1428571428571</ele><time>2026-04-12T07:59:50.789Z</time></trkpt><trkpt lat="45.6937188" lon="11.2950819"><ele>660.4285714285713</ele><time>2026-04-12T07:59:51.789Z</time></trkpt><trkpt lat="45.693689" lon="11.2949982"><ele>659.7142857142858</ele><time>2026-04-12T07:59:52.789Z</time></trkpt><trkpt lat="45.6936918" lon="11.2948722"><ele>659.0</ele><time>2026-04-12T07:59:54.788Z</time></trkpt><trkpt lat="45.6936358" lon="11.2947687"><ele>666.4000000000001</ele><time>2026-04-12T07:59:56.789Z</time></trkpt><trkpt lat="45.6935627" lon="11.2946975"><ele>673.8</ele><time>2026-04-12T07:59:58.788Z</time></trkpt><trkpt lat="45.6934828" lon="11.2946595"><ele>681.2</ele><time>2026-04-12T08:00:00.789Z</time></trkpt><trkpt lat="45.6933503" lon="11.2946452"><ele>688.5999999999999</ele><time>2026-04-12T08:00:02.788Z</time></trkpt><trkpt lat="45.6932861" lon="11.2946226"><ele>696.0</ele><time>2026-04-12T08:00:03.789Z</time></trkpt><trkpt lat="45.6931771" lon="11.2945412"><ele>696.0</ele><time>2026-04-12T08:00:05.788Z</time></trkpt><trkpt lat="45.6931241" lon="11.2944912"><ele>696.0</ele><time>2026-04-12T08:00:06.788Z</time></trkpt><trkpt lat="45.6930644" lon="11.2944117"><ele>696.0</ele><time>2026-04-12T08:00:07.789Z</time></trkpt><trkpt lat="45.6930042" lon="11.2943444"><ele>696.0</ele><time>2026-04-12T08:00:08.789Z</time></trkpt><trkpt lat="45.6929545" lon="11.2942645"><ele>696.0</ele><time>2026-04-12T08:00:09.788Z</time></trkpt><trkpt lat="45.6929197" lon="11.2941779"><ele>696.0</ele><time>2026-04-12T08:00:10.788Z</time></trkpt><trkpt lat="45.6928899" lon="11.2940833"><ele>696.0</ele><time>2026-04-12T08:00:11.789Z</time></trkpt><trkpt lat="45.6928962" lon="11.2939792"><ele>693.8</ele><time>2026-04-12T08:00:12.788Z</time></trkpt><trkpt lat="45.6929015" lon="11.2938785"><ele>691.5999999999999</ele><time>2026-04-12T08:00:13.789Z</time></trkpt><trkpt lat="45.6929396" lon="11.2937483"><ele>689.4</ele><time>2026-04-12T08:00:15.789Z</time></trkpt><trkpt lat="45.6930175" lon="11.2936021"><ele>687.2</ele><time>2026-04-12T08:00:17.789Z</time></trkpt><trkpt lat="45.6930468" lon="11.2934442"><ele>685.0</ele><time>2026-04-12T08:00:19.788Z</time></trkpt><trkpt lat="45.6930103" lon="11.2932796"><ele>685.0</ele><time>2026-04-12T08:00:21.788Z</time></trkpt><trkpt lat="45.6929695" lon="11.2932008"><ele>685.0</ele><time>2026-04-12T08:00:22.787Z</time></trkpt><trkpt lat="45.6929336" lon="11.2931259"><ele>685.0</ele><time>2026-04-12T08:00:23.787Z</time></trkpt><trkpt lat="45.6928803" lon="11.29297"><ele>685.0</ele><time>2026-04-12T08:00:25.787Z</time></trkpt><trkpt lat="45.6928561" lon="11.2928686"><ele>685.0</ele><time>2026-04-12T08:00:26.787Z</time></trkpt><trkpt lat="45.6928248" lon="11.2927744"><ele>685.0</ele><time>2026-04-12T08:00:27.788Z</time></trkpt><trkpt lat="45.6928053" lon="11.2926852"><ele>686.2</ele><time>2026-04-12T08:00:28.788Z</time></trkpt><trkpt lat="45.6928065" lon="11.2925426"><ele>687.4</ele><time>2026-04-12T08:00:30.788Z</time></trkpt><trkpt lat="45.6928624" lon="11.2924084"><ele>688.5999999999999</ele><time>2026-04-12T08:00:32.787Z</time></trkpt><trkpt lat="45.6929342" lon="11.2922704"><ele>689.8</ele><time>2026-04-12T08:00:34.787Z</time></trkpt><trkpt lat="45.6929789" lon="11.2921841"><ele>691.0</ele><time>2026-04-12T08:00:35.788Z</time></trkpt><trkpt lat="45.6930279" lon="11.2920883"><ele>691.5</ele><time>2026-04-12T08:00:36.787Z</time></trkpt><trkpt lat="45.693074" lon="11.2919795"><ele>692.0</ele><time>2026-04-12T08:00:37.788Z</time></trkpt><trkpt lat="45.6931075" lon="11.2918835"><ele>692.5</ele><time>2026-04-12T08:00:38.788Z</time></trkpt><trkpt lat="45.6931272" lon="11.2917908"><ele>693.0</ele><time>2026-04-12T08:00:39.787Z</time></trkpt><trkpt lat="45.6930967" lon="11.2916642"><ele>693.5</ele><time>2026-04-12T08:00:41.788Z</time></trkpt><trkpt lat="45.6929921" lon="11.2916145"><ele>694.0</ele><time>2026-04-12T08:00:43.788Z</time></trkpt><trkpt lat="45.6929291" lon="11.2915923"><ele>694.0</ele><time>2026-04-12T08:00:44.788Z</time></trkpt><trkpt lat="45.6928253" lon="11.2915116"><ele>694.0</ele><time>2026-04-12T08:00:46.787Z</time></trkpt><trkpt lat="45.6927699" lon="11.291397"><ele>694.0</ele><time>2026-04-12T08:00:48.788Z</time></trkpt><trkpt lat="45.6927413" lon="11.2912504"><ele>694.0</ele><time>2026-04-12T08:00:50.787Z</time></trkpt><trkpt lat="45.6927361" lon="11.291068"><ele>694.0</ele><time>2026-04-12T08:00:52.787Z</time></trkpt><trkpt lat="45.69274" lon="11.2909742"><ele>701.6666666666667</ele><time>2026-04-12T08:00:53.787Z</time></trkpt><trkpt lat="45.6927416" lon="11.2908704"><ele>709.3333333333334</ele><time>2026-04-12T08:00:54.787Z</time></trkpt><trkpt lat="45.6927372" lon="11.2907663"><ele>717.0</ele><time>2026-04-12T08:00:55.788Z</time></trkpt><trkpt lat="45.6927307" lon="11.2906624"><ele>724.6666666666666</ele><time>2026-04-12T08:00:56.788Z</time></trkpt><trkpt lat="45.6927202" lon="11.290568"><ele>732.3333333333333</ele><time>2026-04-12T08:00:57.788Z</time></trkpt><trkpt lat="45.6927121" lon="11.2903948"><ele>740.0</ele><time>2026-04-12T08:00:59.787Z</time></trkpt><trkpt lat="45.6927147" lon="11.2902386"><ele>741.0</ele><time>2026-04-12T08:01:01.787Z</time></trkpt><trkpt lat="45.6927335" lon="11.2900523"><ele>742.0</ele><time>2026-04-12T08:01:03.787Z</time></trkpt><trkpt lat="45.692739" lon="11.289945"><ele>743.0</ele><time>2026-04-12T08:01:04.788Z</time></trkpt><trkpt lat="45.6927441" lon="11.2898481"><ele>744.0</ele><time>2026-04-12T08:01:05.787Z</time></trkpt><trkpt lat="45.6927671" lon="11.2896861"><ele>745.0</ele><time>2026-04-12T08:01:07.788Z</time></trkpt><trkpt lat="45.6928232" lon="11.289551"><ele>739.4</ele><time>2026-04-12T08:01:09.787Z</time></trkpt><trkpt lat="45.6928814" lon="11.2894327"><ele>733.8</ele><time>2026-04-12T08:01:11.788Z</time></trkpt><trkpt lat="45.6929347" lon="11.2893417"><ele>728.2</ele><time>2026-04-12T08:01:13.787Z</time></trkpt><trkpt lat="45.6930178" lon="11.2892991"><ele>722.6</ele><time>2026-04-12T08:01:15.787Z</time></trkpt><trkpt lat="45.6931292" lon="11.2892437"><ele>717.0</ele><time>2026-04-12T08:01:17.787Z</time></trkpt><trkpt lat="45.6931803" lon="11.2891818"><ele>717.0</ele><time>2026-04-12T08:01:18.787Z</time></trkpt><trkpt lat="45.6932204" lon="11.289103"><ele>717.0</ele><time>2026-04-12T08:01:19.788Z</time></trkpt><trkpt lat="45.6932466" lon="11.2889965"><ele>717.0</ele><time>2026-04-12T08:01:20.787Z</time></trkpt><trkpt lat="45.6932709" lon="11.2888782"><ele>717.0</ele><time>2026-04-12T08:01:21.787Z</time></trkpt><trkpt lat="45.6933018" lon="11.2887567"><ele>717.0</ele><time>2026-04-12T08:01:22.787Z</time></trkpt><trkpt lat="45.6933389" lon="11.2886517"><ele>717.0</ele><time>2026-04-12T08:01:23.788Z</time></trkpt><trkpt lat="45.6933827" lon="11.2885774"><ele>717.0</ele><time>2026-04-12T08:01:24.788Z</time></trkpt><trkpt lat="45.6934942" lon="11.2885027"><ele>717.0</ele><time>2026-04-12T08:01:26.788Z</time></trkpt><trkpt lat="45.6935647" lon="11.288467"><ele>717.0</ele><time>2026-04-12T08:01:27.787Z</time></trkpt><trkpt lat="45.6936347" lon="11.2884204"><ele>717.0</ele><time>2026-04-12T08:01:28.787Z</time></trkpt><trkpt lat="45.693703" lon="11.2883451"><ele>717.0</ele><time>2026-04-12T08:01:29.787Z</time></trkpt><trkpt lat="45.6937738" lon="11.2882467"><ele>717.0</ele><time>2026-04-12T08:01:30.788Z</time></trkpt><trkpt lat="45.6938349" lon="11.2881355"><ele>717.0</ele><time>2026-04-12T08:01:31.788Z</time></trkpt><trkpt lat="45.6938909" lon="11.2880338"><ele>717.0</ele><time>2026-04-12T08:01:32.787Z</time></trkpt><trkpt lat="45.6939435" lon="11.287925"><ele>717.0</ele><time>2026-04-12T08:01:33.787Z</time></trkpt><trkpt lat="45.6939774" lon="11.2878151"><ele>717.0</ele><time>2026-04-12T08:01:34.788Z</time></trkpt><trkpt lat="45.694006" lon="11.2877102"><ele>717.0</ele><time>2026-04-12T08:01:35.788Z</time></trkpt><trkpt lat="45.6940354" lon="11.287615"><ele>716.8</ele><time>2026-04-12T08:01:36.788Z</time></trkpt><trkpt lat="45.6940588" lon="11.2875181"><ele>716.6</ele><time>2026-04-12T08:01:37.788Z</time></trkpt><trkpt lat="45.694081" lon="11.2874298"><ele>716.4</ele><time>2026-04-12T08:01:38.788Z</time></trkpt><trkpt lat="45.6941262" lon="11.2872955"><ele>716.1999999999999</ele><time>2026-04-12T08:01:40.788Z</time></trkpt><trkpt lat="45.6941691" lon="11.2871731"><ele>716.0</ele><time>2026-04-12T08:01:42.787Z</time></trkpt><trkpt lat="45.6942243" lon="11.2870232"><ele>716.0</ele><time>2026-04-12T08:01:44.787Z</time></trkpt><trkpt lat="45.6942627" lon="11.2869453"><ele>716.0</ele><time>2026-04-12T08:01:45.787Z</time></trkpt><trkpt lat="45.6943112" lon="11.2868803"><ele>716.0</ele><time>2026-04-12T08:01:46.787Z</time></trkpt><trkpt lat="45.6943575" lon="11.2868168"><ele>716.0</ele><time>2026-04-12T08:01:47.788Z</time></trkpt><trkpt lat="45.6944323" lon="11.2866736"><ele>716.0</ele><time>2026-04-12T08:01:49.788Z</time></trkpt><trkpt lat="45.6944679" lon="11.2865963"><ele>716.0</ele><time>2026-04-12T08:01:50.788Z</time></trkpt><trkpt lat="45.694504" lon="11.2865135"><ele>723.1999999999999</ele><time>2026-04-12T08:01:51.787Z</time></trkpt><trkpt lat="45.6945395" lon="11.2864288"><ele>730.4</ele><time>2026-04-12T08:01:52.787Z</time></trkpt><trkpt lat="45.694566" lon="11.2863462"><ele>737.6</ele><time>2026-04-12T08:01:53.788Z</time></trkpt><trkpt lat="45.6945899" lon="11.286183"><ele>744.8</ele><time>2026-04-12T08:01:55.788Z</time></trkpt><trkpt lat="45.694557" lon="11.286036"><ele>752.0</ele><time>2026-04-12T08:01:57.787Z</time></trkpt><trkpt lat="45.694523" lon="11.2858767"><ele>752.0</ele><time>2026-04-12T08:01:59.788Z</time></trkpt><trkpt lat="45.6945197" lon="11.2857857"><ele>752.0</ele><time>2026-04-12T08:02:00.787Z</time></trkpt><trkpt lat="45.6945168" lon="11.2856796"><ele>752.0</ele><time>2026-04-12T08:02:01.787Z</time></trkpt><trkpt lat="45.6945147" lon="11.2855706"><ele>752.0</ele><time>2026-04-12T08:02:02.787Z</time></trkpt><trkpt lat="45.6945104" lon="11.2854679"><ele>752.0</ele><time>2026-04-12T08:02:03.788Z</time></trkpt><trkpt lat="45.6945084" lon="11.285375"><ele>752.0</ele><time>2026-04-12T08:02:04.788Z</time></trkpt><trkpt lat="45.694516" lon="11.2852129"><ele>746.8333333333333</ele><time>2026-04-12T08:02:06.787Z</time></trkpt><trkpt lat="45.6945886" lon="11.2851249"><ele>741.6666666666666</ele><time>2026-04-12T08:02:08.787Z</time></trkpt><trkpt lat="45.6946511" lon="11.2850996"><ele>736.5</ele><time>2026-04-12T08:02:09.788Z</time></trkpt><trkpt lat="45.6947291" lon="11.2850964"><ele>731.3333333333334</ele><time>2026-04-12T08:02:10.788Z</time></trkpt><trkpt lat="45.6948109" lon="11.2850847"><ele>726.1666666666667</ele><time>2026-04-12T08:02:11.787Z</time></trkpt><trkpt lat="45.6949082" lon="11.2850664"><ele>721.0</ele><time>2026-04-12T08:02:12.787Z</time></trkpt><trkpt lat="45.6950106" lon="11.2850619"><ele>721.0</ele><time>2026-04-12T08:02:13.788Z</time></trkpt><trkpt lat="45.6951176" lon="11.2850799"><ele>721.0</ele><time>2026-04-12T08:02:14.788Z</time></trkpt><trkpt lat="45.6952282" lon="11.2851221"><ele>721.0</ele><time>2026-04-12T08:02:15.788Z</time></trkpt><trkpt lat="45.6953133" lon="11.2851764"><ele>721.0</ele><time>2026-04-12T08:02:16.787Z</time></trkpt><trkpt lat="45.6953963" lon="11.285233"><ele>721.0</ele><time>2026-04-12T08:02:17.788Z</time></trkpt><trkpt lat="45.695486" lon="11.2852933"><ele>718.5</ele><time>2026-04-12T08:02:18.788Z</time></trkpt><trkpt lat="45.6955867" lon="11.2853539"><ele>716.0</ele><time>2026-04-12T08:02:19.788Z</time></trkpt><trkpt lat="45.695693" lon="11.2854151"><ele>713.5</ele><time>2026-04-12T08:02:20.787Z</time></trkpt><trkpt lat="45.6957893" lon="11.2854815"><ele>711.0</ele><time>2026-04-12T08:02:21.788Z</time></trkpt><trkpt lat="45.6958846" lon="11.2855854"><ele>717.5</ele><time>2026-04-12T08:02:22.788Z</time></trkpt><trkpt lat="45.6959875" lon="11.2856816"><ele>724.0</ele><time>2026-04-12T08:02:23.787Z</time></trkpt><trkpt lat="45.696098" lon="11.2857868"><ele>730.5</ele><time>2026-04-12T08:02:24.787Z</time></trkpt><trkpt lat="45.6961998" lon="11.2858984"><ele>737.0</ele><time>2026-04-12T08:02:25.788Z</time></trkpt><trkpt lat="45.6962964" lon="11.2860009"><ele>737.0</ele><time>2026-04-12T08:02:26.787Z</time></trkpt><trkpt lat="45.6963916" lon="11.2860935"><ele>737.0</ele><time>2026-04-12T08:02:27.788Z</time></trkpt><trkpt lat="45.6964823" lon="11.2861677"><ele>737.0</ele><time>2026-04-12T08:02:28.788Z</time></trkpt><trkpt lat="45.6965639" lon="11.2862193"><ele>737.0</ele><time>2026-04-12T08:02:29.787Z</time></trkpt><trkpt lat="45.6966409" lon="11.2862575"><ele>737.0</ele><time>2026-04-12T08:02:30.788Z</time></trkpt><trkpt lat="45.6967254" lon="11.2862753"><ele>737.0</ele><time>2026-04-12T08:02:32.788Z</time></trkpt><trkpt lat="45.6967794" lon="11.2861952"><ele>737.0</ele><time>2026-04-12T08:02:34.787Z</time></trkpt><trkpt lat="45.6968002" lon="11.2860275"><ele>737.0</ele><time>2026-04-12T08:02:36.787Z</time></trkpt><trkpt lat="45.6968231" lon="11.2859417"><ele>737.0</ele><time>2026-04-12T08:02:37.787Z</time></trkpt><trkpt lat="45.6968597" lon="11.2858553"><ele>737.0</ele><time>2026-04-12T08:02:38.787Z</time></trkpt><trkpt lat="45.6969079" lon="11.2857748"><ele>737.0</ele><time>2026-04-12T08:02:39.787Z</time></trkpt><trkpt lat="45.696959" lon="11.285705"><ele>739.0</ele><time>2026-04-12T08:02:40.788Z</time></trkpt><trkpt lat="45.6970764" lon="11.2856317"><ele>741.0</ele><time>2026-04-12T08:02:42.788Z</time></trkpt><trkpt lat="45.6971487" lon="11.2856224"><ele>743.0</ele><time>2026-04-12T08:02:43.788Z</time></trkpt><trkpt lat="45.697219" lon="11.2856255"><ele>745.0</ele><time>2026-04-12T08:02:44.787Z</time></trkpt><trkpt lat="45.6973102" lon="11.2856618"><ele>747.0</ele><time>2026-04-12T08:02:46.788Z</time></trkpt><trkpt lat="45.6973779" lon="11.285718"><ele>749.0</ele><time>2026-04-12T08:02:49.787Z</time></trkpt><trkpt lat="45.6974459" lon="11.2858012"><ele>749.0</ele><time>2026-04-12T08:02:51.788Z</time></trkpt><trkpt lat="45.6975561" lon="11.2859177"><ele>749.0</ele><time>2026-04-12T08:02:53.788Z</time></trkpt><trkpt lat="45.6976232" lon="11.2859881"><ele>749.0</ele><time>2026-04-12T08:02:54.787Z</time></trkpt><trkpt lat="45.6977024" lon="11.2860681"><ele>749.0</ele><time>2026-04-12T08:02:55.788Z</time></trkpt><trkpt lat="45.6977822" lon="11.2861412"><ele>749.0</ele><time>2026-04-12T08:02:56.788Z</time></trkpt><trkpt lat="45.6978918" lon="11.2862109"><ele>750.3333333333333</ele><time>2026-04-12T08:02:57.788Z</time></trkpt><trkpt lat="45.6979849" lon="11.286267"><ele>751.6666666666666</ele><time>2026-04-12T08:02:58.787Z</time></trkpt><trkpt lat="45.6980692" lon="11.286311"><ele>753.0</ele><time>2026-04-12T08:02:59.787Z</time></trkpt><trkpt lat="45.6981378" lon="11.2863629"><ele>754.3333333333334</ele><time>2026-04-12T08:03:00.788Z</time></trkpt><trkpt lat="45.6981972" lon="11.2864055"><ele>755.6666666666667</ele><time>2026-04-12T08:03:01.787Z</time></trkpt><trkpt lat="45.6982819" lon="11.2864487"><ele>757.0</ele><time>2026-04-12T08:03:03.788Z</time></trkpt><trkpt lat="45.6983559" lon="11.2864843"><ele>757.0</ele><time>2026-04-12T08:03:05.788Z</time></trkpt><trkpt lat="45.6984272" lon="11.2865792"><ele>757.0</ele><time>2026-04-12T08:03:07.788Z</time></trkpt><trkpt lat="45.6984665" lon="11.2866497"><ele>757.0</ele><time>2026-04-12T08:03:08.788Z</time></trkpt><trkpt lat="45.6985382" lon="11.2867884"><ele>757.0</ele><time>2026-04-12T08:03:10.787Z</time></trkpt><trkpt lat="45.6985995" lon="11.2869047"><ele>757.0</ele><time>2026-04-12T08:03:12.787Z</time></trkpt><trkpt lat="45.6986577" lon="11.2869762"><ele>754.8333333333334</ele><time>2026-04-12T08:03:14.787Z</time></trkpt><trkpt lat="45.6986594" lon="11.2870952"><ele>752.6666666666667</ele><time>2026-04-12T08:03:17.788Z</time></trkpt><trkpt lat="45.6986458" lon="11.2872277"><ele>750.5</ele><time>2026-04-12T08:03:20.788Z</time></trkpt><trkpt lat="45.6986849" lon="11.2873153"><ele>748.3333333333334</ele><time>2026-04-12T08:03:23.787Z</time></trkpt><trkpt lat="45.6987543" lon="11.2873141"><ele>746.1666666666666</ele><time>2026-04-12T08:03:26.787Z</time></trkpt><trkpt lat="45.6988275" lon="11.2872802"><ele>744.0</ele><time>2026-04-12T08:03:28.787Z</time></trkpt><trkpt lat="45.698919" lon="11.2872409"><ele>744.0</ele><time>2026-04-12T08:03:30.787Z</time></trkpt><trkpt lat="45.6990265" lon="11.2871817"><ele>744.0</ele><time>2026-04-12T08:03:32.788Z</time></trkpt><trkpt lat="45.6991289" lon="11.287087"><ele>744.0</ele><time>2026-04-12T08:03:34.788Z</time></trkpt><trkpt lat="45.6991908" lon="11.2870022"><ele>744.0</ele><time>2026-04-12T08:03:35.788Z</time></trkpt><trkpt lat="45.6992477" lon="11.2869029"><ele>744.0</ele><time>2026-04-12T08:03:36.787Z</time></trkpt><trkpt lat="45.6992883" lon="11.2868166"><ele>744.0</ele><time>2026-04-12T08:03:37.787Z</time></trkpt><trkpt lat="45.6993465" lon="11.2866782"><ele>744.0</ele><time>2026-04-12T08:03:39.788Z</time></trkpt><trkpt lat="45.6993728" lon="11.2865525"><ele>744.0</ele><time>2026-04-12T08:03:41.788Z</time></trkpt><trkpt lat="45.6993956" lon="11.2864526"><ele>744.0</ele><time>2026-04-12T08:03:43.788Z</time></trkpt><trkpt lat="45.699422" lon="11.2863679"><ele>744.0</ele><time>2026-04-12T08:03:45.788Z</time></trkpt><trkpt lat="45.6994464" lon="11.286273"><ele>744.0</ele><time>2026-04-12T08:03:47.788Z</time></trkpt><trkpt lat="45.6994807" lon="11.2861779"><ele>742.3333333333334</ele><time>2026-04-12T08:03:49.787Z</time></trkpt><trkpt lat="45.6995379" lon="11.2860568"><ele>740.6666666666666</ele><time>2026-04-12T08:03:51.787Z</time></trkpt><trkpt lat="45.6995697" lon="11.2859665"><ele>739.0</ele><time>2026-04-12T08:03:52.788Z</time></trkpt><trkpt lat="45.6995954" lon="11.2858735"><ele>737.3333333333333</ele><time>2026-04-12T08:03:53.787Z</time></trkpt><trkpt lat="45.6996289" lon="11.2857849"><ele>735.6666666666666</ele><time>2026-04-12T08:03:54.788Z</time></trkpt><trkpt lat="45.6996671" lon="11.285688"><ele>734.0</ele><time>2026-04-12T08:03:55.788Z</time></trkpt><trkpt lat="45.6997021" lon="11.2855903"><ele>734.0</ele><time>2026-04-12T08:03:56.787Z</time></trkpt><trkpt lat="45.6997351" lon="11.285493"><ele>734.0</ele><time>2026-04-12T08:03:57.788Z</time></trkpt><trkpt lat="45.6997763" lon="11.2854063"><ele>734.0</ele><time>2026-04-12T08:03:58.787Z</time></trkpt><trkpt lat="45.6998099" lon="11.2853191"><ele>734.0</ele><time>2026-04-12T08:03:59.788Z</time></trkpt><trkpt lat="45.6998809" lon="11.2851817"><ele>734.0</ele><time>2026-04-12T08:04:01.788Z</time></trkpt><trkpt lat="45.6999396" lon="11.285023"><ele>734.0</ele><time>2026-04-12T08:04:03.788Z</time></trkpt><trkpt lat="45.699985" lon="11.2848624"><ele>734.0</ele><time>2026-04-12T08:04:05.787Z</time></trkpt><trkpt lat="45.7000116" lon="11.2847719"><ele>734.0</ele><time>2026-04-12T08:04:06.788Z</time></trkpt><trkpt lat="45.7000525" lon="11.2846123"><ele>734.0</ele><time>2026-04-12T08:04:08.787Z</time></trkpt><trkpt lat="45.7000569" lon="11.2844619"><ele>734.0</ele><time>2026-04-12T08:04:10.788Z</time></trkpt><trkpt lat="45.700041" lon="11.2843305"><ele>734.2</ele><time>2026-04-12T08:04:12.788Z</time></trkpt><trkpt lat="45.7000424" lon="11.284182"><ele>734.4000000000001</ele><time>2026-04-12T08:04:14.788Z</time></trkpt><trkpt lat="45.7000509" lon="11.2840322"><ele>734.6</ele><time>2026-04-12T08:04:16.788Z</time></trkpt><trkpt lat="45.7000445" lon="11.2838818"><ele>734.8</ele><time>2026-04-12T08:04:18.788Z</time></trkpt><trkpt lat="45.7000228" lon="11.2837543"><ele>735.0</ele><time>2026-04-12T08:04:20.787Z</time></trkpt><trkpt lat="45.7000266" lon="11.28366"><ele>735.6</ele><time>2026-04-12T08:04:22.788Z</time></trkpt><trkpt lat="45.7000883" lon="11.2835604"><ele>736.2</ele><time>2026-04-12T08:04:25.787Z</time></trkpt><trkpt lat="45.7001641" lon="11.2834838"><ele>736.8</ele><time>2026-04-12T08:04:27.788Z</time></trkpt><trkpt lat="45.7002729" lon="11.283398"><ele>737.4</ele><time>2026-04-12T08:04:29.788Z</time></trkpt><trkpt lat="45.7003363" lon="11.283361"><ele>738.0</ele><time>2026-04-12T08:04:30.787Z</time></trkpt><trkpt lat="45.7004065" lon="11.2833444"><ele>733.4</ele><time>2026-04-12T08:04:31.787Z</time></trkpt><trkpt lat="45.7004748" lon="11.2833154"><ele>728.8</ele><time>2026-04-12T08:04:32.787Z</time></trkpt><trkpt lat="45.7005884" lon="11.2832525"><ele>724.2</ele><time>2026-04-12T08:04:34.788Z</time></trkpt><trkpt lat="45.700705" lon="11.2832036"><ele>719.6</ele><time>2026-04-12T08:04:36.788Z</time></trkpt><trkpt lat="45.700773" lon="11.2831988"><ele>715.0</ele><time>2026-04-12T08:04:37.788Z</time></trkpt><trkpt lat="45.7008535" lon="11.2832078"><ele>715.0</ele><time>2026-04-12T08:04:38.787Z</time></trkpt><trkpt lat="45.7009305" lon="11.2832292"><ele>715.0</ele><time>2026-04-12T08:04:39.787Z</time></trkpt><trkpt lat="45.701008" lon="11.2832411"><ele>715.0</ele><time>2026-04-12T08:04:40.787Z</time></trkpt><trkpt lat="45.7010752" lon="11.2832464"><ele>715.0</ele><time>2026-04-12T08:04:41.788Z</time></trkpt><trkpt lat="45.7011737" lon="11.283261"><ele>715.0</ele><time>2026-04-12T08:04:43.786Z</time></trkpt><trkpt lat="45.7012451" lon="11.2832507"><ele>715.0</ele><time>2026-04-12T08:04:45.786Z</time></trkpt><trkpt lat="45.7013108" lon="11.2832064"><ele>718.0</ele><time>2026-04-12T08:04:47.787Z</time></trkpt><trkpt lat="45.7013894" lon="11.2831806"><ele>721.0</ele><time>2026-04-12T08:04:49.786Z</time></trkpt><trkpt lat="45.7014965" lon="11.2831365"><ele>724.0</ele><time>2026-04-12T08:04:51.787Z</time></trkpt><trkpt lat="45.7016155" lon="11.2830901"><ele>727.0</ele><time>2026-04-12T08:04:53.786Z</time></trkpt><trkpt lat="45.7017219" lon="11.2830202"><ele>730.0</ele><time>2026-04-12T08:04:55.787Z</time></trkpt><trkpt lat="45.7017898" lon="11.2829451"><ele>730.0000000000001</ele><time>2026-04-12T08:04:57.786Z</time></trkpt><trkpt lat="45.7018307" lon="11.2828621"><ele>730.0</ele><time>2026-04-12T08:04:59.786Z</time></trkpt><trkpt lat="45.7018642" lon="11.2827591"><ele>730.0</ele><time>2026-04-12T08:05:01.786Z</time></trkpt><trkpt lat="45.7019031" lon="11.282682"><ele>730.0</ele><time>2026-04-12T08:05:06.786Z</time></trkpt><trkpt lat="45.70198" lon="11.2826362"><ele>730.0</ele><time>2026-04-12T08:05:09.787Z</time></trkpt><trkpt lat="45.7020543" lon="11.2826154"><ele>730.0000000000001</ele><time>2026-04-12T08:05:11.786Z</time></trkpt><trkpt lat="45.7021174" lon="11.2826112"><ele>730.0</ele><time>2026-04-12T08:05:13.787Z</time></trkpt><trkpt lat="45.7021813" lon="11.2826253"><ele>724.8333333333334</ele><time>2026-04-12T08:05:15.787Z</time></trkpt><trkpt lat="45.7022639" lon="11.2826333"><ele>719.6666666666667</ele><time>2026-04-12T08:05:17.786Z</time></trkpt><trkpt lat="45.7023671" lon="11.2826156"><ele>714.5</ele><time>2026-04-12T08:05:19.787Z</time></trkpt><trkpt lat="45.7024319" lon="11.2825908"><ele>709.3333333333334</ele><time>2026-04-12T08:05:20.786Z</time></trkpt><trkpt lat="45.7024975" lon="11.2825745"><ele>704.1666666666666</ele><time>2026-04-12T08:05:21.786Z</time></trkpt><trkpt lat="45.7025634" lon="11.2825589"><ele>699.0</ele><time>2026-04-12T08:05:22.787Z</time></trkpt><trkpt lat="45.7026849" lon="11.2825167"><ele>695.2</ele><time>2026-04-12T08:05:24.786Z</time></trkpt><trkpt lat="45.7027848" lon="11.282408"><ele>691.4000000000001</ele><time>2026-04-12T08:05:26.786Z</time></trkpt><trkpt lat="45.7028433" lon="11.2823116"><ele>687.6</ele><time>2026-04-12T08:05:27.786Z</time></trkpt><trkpt lat="45.7029048" lon="11.2822072"><ele>683.8</ele><time>2026-04-12T08:05:28.786Z</time></trkpt><trkpt lat="45.7029753" lon="11.282124"><ele>680.0</ele><time>2026-04-12T08:05:29.787Z</time></trkpt><trkpt lat="45.7030377" lon="11.2820642"><ele>680.0</ele><time>2026-04-12T08:05:30.787Z</time></trkpt><trkpt lat="45.7030891" lon="11.2820073"><ele>680.0</ele><time>2026-04-12T08:05:31.787Z</time></trkpt><trkpt lat="45.7031567" lon="11.2818718"><ele>680.0</ele><time>2026-04-12T08:05:33.787Z</time></trkpt><trkpt lat="45.7031755" lon="11.2817791"><ele>680.0</ele><time>2026-04-12T08:05:34.787Z</time></trkpt><trkpt lat="45.703181" lon="11.2816754"><ele>680.0</ele><time>2026-04-12T08:05:35.786Z</time></trkpt><trkpt lat="45.7031846" lon="11.2815586"><ele>680.0</ele><time>2026-04-12T08:05:36.786Z</time></trkpt><trkpt lat="45.7031734" lon="11.281415"><ele>680.4</ele><time>2026-04-12T08:05:37.787Z</time></trkpt><trkpt lat="45.7031535" lon="11.281257"><ele>680.8</ele><time>2026-04-12T08:05:38.787Z</time></trkpt><trkpt lat="45.7031393" lon="11.2811163"><ele>681.2</ele><time>2026-04-12T08:05:39.787Z</time></trkpt><trkpt lat="45.7031312" lon="11.2810021"><ele>681.6</ele><time>2026-04-12T08:05:40.787Z</time></trkpt><trkpt lat="45.7031129" lon="11.2809043"><ele>682.0</ele><time>2026-04-12T08:05:41.787Z</time></trkpt><trkpt lat="45.7030751" lon="11.2807371"><ele>682.0</ele><time>2026-04-12T08:05:43.786Z</time></trkpt><trkpt lat="45.7030778" lon="11.2806146"><ele>682.0</ele><time>2026-04-12T08:05:45.787Z</time></trkpt><trkpt lat="45.7030952" lon="11.2804316"><ele>682.0</ele><time>2026-04-12T08:05:47.786Z</time></trkpt><trkpt lat="45.7030996" lon="11.2803087"><ele>682.0</ele><time>2026-04-12T08:05:48.786Z</time></trkpt><trkpt lat="45.7030973" lon="11.2801764"><ele>682.0</ele><time>2026-04-12T08:05:49.787Z</time></trkpt><trkpt lat="45.7031016" lon="11.2800468"><ele>682.3333333333334</ele><time>2026-04-12T08:05:50.786Z</time></trkpt><trkpt lat="45.7031014" lon="11.2799238"><ele>682.6666666666667</ele><time>2026-04-12T08:05:51.787Z</time></trkpt><trkpt lat="45.7030886" lon="11.2798042"><ele>683.0</ele><time>2026-04-12T08:05:52.787Z</time></trkpt><trkpt lat="45.7030787" lon="11.2796852"><ele>683.3333333333334</ele><time>2026-04-12T08:05:53.786Z</time></trkpt><trkpt lat="45.7030786" lon="11.2795649"><ele>683.6666666666666</ele><time>2026-04-12T08:05:54.786Z</time></trkpt><trkpt lat="45.7030749" lon="11.2794411"><ele>684.0</ele><time>2026-04-12T08:05:55.787Z</time></trkpt><trkpt lat="45.7030612" lon="11.2793188"><ele>684.0</ele><time>2026-04-12T08:05:56.787Z</time></trkpt><trkpt lat="45.7030472" lon="11.2791899"><ele>684.0</ele><time>2026-04-12T08:05:57.787Z</time></trkpt><trkpt lat="45.7030376" lon="11.2790687"><ele>684.0</ele><time>2026-04-12T08:05:58.786Z</time></trkpt><trkpt lat="45.7030399" lon="11.2789571"><ele>684.0</ele><time>2026-04-12T08:05:59.787Z</time></trkpt><trkpt lat="45.703051" lon="11.2788423"><ele>684.0</ele><time>2026-04-12T08:06:00.787Z</time></trkpt><trkpt lat="45.7030717" lon="11.2787175"><ele>684.0</ele><time>2026-04-12T08:06:01.786Z</time></trkpt><trkpt lat="45.703099" lon="11.2786051"><ele>684.8000000000001</ele><time>2026-04-12T08:06:02.786Z</time></trkpt><trkpt lat="45.7031204" lon="11.2785031"><ele>685.6</ele><time>2026-04-12T08:06:03.786Z</time></trkpt><trkpt lat="45.7031422" lon="11.278407"><ele>686.4</ele><time>2026-04-12T08:06:04.787Z</time></trkpt><trkpt lat="45.7031644" lon="11.2783217"><ele>687.2</ele><time>2026-04-12T08:06:05.787Z</time></trkpt><trkpt lat="45.7032246" lon="11.2781762"><ele>688.0</ele><time>2026-04-12T08:06:07.786Z</time></trkpt><trkpt lat="45.703303" lon="11.2780341"><ele>689.2</ele><time>2026-04-12T08:06:09.786Z</time></trkpt><trkpt lat="45.7033529" lon="11.2778682"><ele>690.4</ele><time>2026-04-12T08:06:11.787Z</time></trkpt><trkpt lat="45.7033148" lon="11.2777243"><ele>691.6</ele><time>2026-04-12T08:06:13.786Z</time></trkpt><trkpt lat="45.703244" lon="11.2775741"><ele>692.8000000000001</ele><time>2026-04-12T08:06:15.786Z</time></trkpt><trkpt lat="45.7031949" lon="11.2774926"><ele>694.0</ele><time>2026-04-12T08:06:16.786Z</time></trkpt><trkpt lat="45.7031444" lon="11.2774137"><ele>694.0</ele><time>2026-04-12T08:06:17.786Z</time></trkpt><trkpt lat="45.7031049" lon="11.2773381"><ele>694.0</ele><time>2026-04-12T08:06:18.786Z</time></trkpt><trkpt lat="45.7030675" lon="11.2771924"><ele>694.0</ele><time>2026-04-12T08:06:20.787Z</time></trkpt><trkpt lat="45.7030563" lon="11.2770993"><ele>694.0</ele><time>2026-04-12T08:06:21.787Z</time></trkpt><trkpt lat="45.703055" lon="11.2769793"><ele>694.0</ele><time>2026-04-12T08:06:22.786Z</time></trkpt><trkpt lat="45.7030532" lon="11.2768435"><ele>694.0</ele><time>2026-04-12T08:06:23.786Z</time></trkpt><trkpt lat="45.7030391" lon="11.2766793"><ele>695.0</ele><time>2026-04-12T08:06:24.787Z</time></trkpt><trkpt lat="45.7030088" lon="11.276514"><ele>696.0</ele><time>2026-04-12T08:06:25.787Z</time></trkpt><trkpt lat="45.7029774" lon="11.2763707"><ele>697.0</ele><time>2026-04-12T08:06:26.786Z</time></trkpt><trkpt lat="45.7029394" lon="11.2762566"><ele>698.0</ele><time>2026-04-12T08:06:27.787Z</time></trkpt><trkpt lat="45.70291" lon="11.2761733"><ele>699.0</ele><time>2026-04-12T08:06:28.787Z</time></trkpt><trkpt lat="45.7028732" lon="11.2760661"><ele>698.8333333333334</ele><time>2026-04-12T08:06:30.787Z</time></trkpt><trkpt lat="45.7028314" lon="11.2759972"><ele>698.6666666666666</ele><time>2026-04-12T08:06:32.786Z</time></trkpt><trkpt lat="45.7027628" lon="11.2759236"><ele>698.5</ele><time>2026-04-12T08:06:34.786Z</time></trkpt><trkpt lat="45.7026916" lon="11.2758502"><ele>698.3333333333333</ele><time>2026-04-12T08:06:36.787Z</time></trkpt><trkpt lat="45.7026538" lon="11.2757601"><ele>698.1666666666666</ele><time>2026-04-12T08:06:38.786Z</time></trkpt><trkpt lat="45.7026191" lon="11.2756167"><ele>698.0</ele><time>2026-04-12T08:06:40.787Z</time></trkpt><trkpt lat="45.7026152" lon="11.2754623"><ele>698.0</ele><time>2026-04-12T08:06:42.786Z</time></trkpt><trkpt lat="45.7026088" lon="11.275359"><ele>698.0</ele><time>2026-04-12T08:06:43.786Z</time></trkpt><trkpt lat="45.702603" lon="11.2752414"><ele>698.0</ele><time>2026-04-12T08:06:44.787Z</time></trkpt><trkpt lat="45.7026006" lon="11.275129"><ele>698.0</ele><time>2026-04-12T08:06:45.787Z</time></trkpt><trkpt lat="45.7025995" lon="11.2750175"><ele>698.0</ele><time>2026-04-12T08:06:46.786Z</time></trkpt><trkpt lat="45.7025928" lon="11.2749093"><ele>698.0</ele><time>2026-04-12T08:06:47.786Z</time></trkpt><trkpt lat="45.702579" lon="11.2747969"><ele>696.8</ele><time>2026-04-12T08:06:48.787Z</time></trkpt><trkpt lat="45.7025584" lon="11.2746743"><ele>695.5999999999999</ele><time>2026-04-12T08:06:49.786Z</time></trkpt><trkpt lat="45.7025268" lon="11.2745447"><ele>694.4000000000001</ele><time>2026-04-12T08:06:50.787Z</time></trkpt><trkpt lat="45.7024982" lon="11.2744075"><ele>693.2</ele><time>2026-04-12T08:06:51.786Z</time></trkpt><trkpt lat="45.7024813" lon="11.2742578"><ele>692.0</ele><time>2026-04-12T08:06:52.787Z</time></trkpt><trkpt lat="45.7024719" lon="11.2741116"><ele>692.0</ele><time>2026-04-12T08:06:53.787Z</time></trkpt><trkpt lat="45.7024678" lon="11.273991"><ele>692.0</ele><time>2026-04-12T08:06:54.787Z</time></trkpt><trkpt lat="45.7024569" lon="11.2738873"><ele>692.0</ele><time>2026-04-12T08:06:55.787Z</time></trkpt><trkpt lat="45.7024307" lon="11.2737967"><ele>692.0</ele><time>2026-04-12T08:06:56.786Z</time></trkpt><trkpt lat="45.7023639" lon="11.2736626"><ele>692.0</ele><time>2026-04-12T08:06:58.786Z</time></trkpt><trkpt lat="45.7022586" lon="11.2735794"><ele>689.8</ele><time>2026-04-12T08:07:00.787Z</time></trkpt><trkpt lat="45.7021812" lon="11.2734895"><ele>687.6</ele><time>2026-04-12T08:07:02.787Z</time></trkpt><trkpt lat="45.7021387" lon="11.2733683"><ele>685.4</ele><time>2026-04-12T08:07:04.787Z</time></trkpt><trkpt lat="45.7021283" lon="11.273214"><ele>683.1999999999999</ele><time>2026-04-12T08:07:06.786Z</time></trkpt><trkpt lat="45.7021183" lon="11.2730472"><ele>681.0</ele><time>2026-04-12T08:07:08.787Z</time></trkpt><trkpt lat="45.7021178" lon="11.2729022"><ele>678.6666666666666</ele><time>2026-04-12T08:07:10.786Z</time></trkpt><trkpt lat="45.7021412" lon="11.2727951"><ele>676.3333333333334</ele><time>2026-04-12T08:07:12.787Z</time></trkpt><trkpt lat="45.7021141" lon="11.2727006"><ele>674.0</ele><time>2026-04-12T08:07:14.787Z</time></trkpt><trkpt lat="45.7020378" lon="11.2725847"><ele>671.6666666666667</ele><time>2026-04-12T08:07:16.787Z</time></trkpt><trkpt lat="45.7019947" lon="11.272504"><ele>669.3333333333334</ele><time>2026-04-12T08:07:17.787Z</time></trkpt><trkpt lat="45.701951" lon="11.2724019"><ele>667.0</ele><time>2026-04-12T08:07:18.787Z</time></trkpt><trkpt lat="45.7019218" lon="11.2722844"><ele>671.8</ele><time>2026-04-12T08:07:19.786Z</time></trkpt><trkpt lat="45.7018963" lon="11.2721557"><ele>676.6</ele><time>2026-04-12T08:07:20.787Z</time></trkpt><trkpt lat="45.7018623" lon="11.2720234"><ele>681.4</ele><time>2026-04-12T08:07:21.787Z</time></trkpt><trkpt lat="45.7018307" lon="11.271894"><ele>686.1999999999999</ele><time>2026-04-12T08:07:22.786Z</time></trkpt><trkpt lat="45.7018039" lon="11.2717772"><ele>691.0</ele><time>2026-04-12T08:07:23.787Z</time></trkpt><trkpt lat="45.7017788" lon="11.2716673"><ele>691.0</ele><time>2026-04-12T08:07:24.787Z</time></trkpt><trkpt lat="45.701755" lon="11.2715648"><ele>691.0</ele><time>2026-04-12T08:07:25.786Z</time></trkpt><trkpt lat="45.7017253" lon="11.2714829"><ele>691.0</ele><time>2026-04-12T08:07:26.787Z</time></trkpt><trkpt lat="45.7016495" lon="11.2713797"><ele>691.0</ele><time>2026-04-12T08:07:28.787Z</time></trkpt><trkpt lat="45.7015535" lon="11.2712727"><ele>691.0</ele><time>2026-04-12T08:07:30.786Z</time></trkpt><trkpt lat="45.7015129" lon="11.2711999"><ele>691.0</ele><time>2026-04-12T08:07:31.786Z</time></trkpt><trkpt lat="45.7014761" lon="11.2711157"><ele>688.3333333333334</ele><time>2026-04-12T08:07:32.786Z</time></trkpt><trkpt lat="45.7014453" lon="11.2710189"><ele>685.6666666666667</ele><time>2026-04-12T08:07:33.787Z</time></trkpt><trkpt lat="45.7014221" lon="11.2709193"><ele>683.0</ele><time>2026-04-12T08:07:34.786Z</time></trkpt><trkpt lat="45.7013905" lon="11.2708295"><ele>680.3333333333334</ele><time>2026-04-12T08:07:35.787Z</time></trkpt><trkpt lat="45.7013491" lon="11.2707471"><ele>677.6666666666666</ele><time>2026-04-12T08:07:36.787Z</time></trkpt><trkpt lat="45.7012828" lon="11.2706694"><ele>675.0</ele><time>2026-04-12T08:07:37.787Z</time></trkpt><trkpt lat="45.7012135" lon="11.2706079"><ele>678.2857142857142</ele><time>2026-04-12T08:07:38.787Z</time></trkpt><trkpt lat="45.7011516" lon="11.2705597"><ele>681.5714285714286</ele><time>2026-04-12T08:07:39.787Z</time></trkpt><trkpt lat="45.7010943" lon="11.2705192"><ele>684.8571428571429</ele><time>2026-04-12T08:07:40.787Z</time></trkpt><trkpt lat="45.7010277" lon="11.2704848"><ele>688.1428571428571</ele><time>2026-04-12T08:07:41.787Z</time></trkpt><trkpt lat="45.7009707" lon="11.2704453"><ele>691.4285714285714</ele><time>2026-04-12T08:07:42.786Z</time></trkpt><trkpt lat="45.7009204" lon="11.27039"><ele>694.7142857142857</ele><time>2026-04-12T08:07:43.786Z</time></trkpt><trkpt lat="45.7008773" lon="11.2703226"><ele>698.0</ele><time>2026-04-12T08:07:44.787Z</time></trkpt><trkpt lat="45.7008484" lon="11.2702365"><ele>698.0</ele><time>2026-04-12T08:07:45.787Z</time></trkpt><trkpt lat="45.7008233" lon="11.2701307"><ele>698.0</ele><time>2026-04-12T08:07:46.786Z</time></trkpt><trkpt lat="45.7007962" lon="11.2700131"><ele>698.0</ele><time>2026-04-12T08:07:47.786Z</time></trkpt><trkpt lat="45.700772" lon="11.2698938"><ele>698.0</ele><time>2026-04-12T08:07:48.786Z</time></trkpt><trkpt lat="45.7007478" lon="11.2697863"><ele>698.0</ele><time>2026-04-12T08:07:49.786Z</time></trkpt><trkpt lat="45.7007186" lon="11.2696836"><ele>698.0</ele><time>2026-04-12T08:07:50.787Z</time></trkpt><trkpt lat="45.7007025" lon="11.269594"><ele>696.2</ele><time>2026-04-12T08:07:51.786Z</time></trkpt><trkpt lat="45.7006623" lon="11.269504"><ele>694.4</ele><time>2026-04-12T08:07:52.787Z</time></trkpt><trkpt lat="45.7006228" lon="11.2694224"><ele>692.6</ele><time>2026-04-12T08:07:53.787Z</time></trkpt><trkpt lat="45.7005317" lon="11.269301"><ele>690.8000000000001</ele><time>2026-04-12T08:07:55.787Z</time></trkpt><trkpt lat="45.7004791" lon="11.2691588"><ele>689.0</ele><time>2026-04-12T08:07:57.787Z</time></trkpt><trkpt lat="45.7004378" lon="11.2690106"><ele>691.0</ele><time>2026-04-12T08:07:59.787Z</time></trkpt><trkpt lat="45.7003781" lon="11.2688797"><ele>693.0</ele><time>2026-04-12T08:08:01.786Z</time></trkpt><trkpt lat="45.7003248" lon="11.2687556"><ele>695.0</ele><time>2026-04-12T08:08:03.787Z</time></trkpt><trkpt lat="45.7002812" lon="11.2685939"><ele>697.0</ele><time>2026-04-12T08:08:05.787Z</time></trkpt><trkpt lat="45.7002755" lon="11.2684998"><ele>699.0</ele><time>2026-04-12T08:08:06.786Z</time></trkpt><trkpt lat="45.7002729" lon="11.2683894"><ele>699.0</ele><time>2026-04-12T08:08:07.786Z</time></trkpt><trkpt lat="45.7002699" lon="11.2682589"><ele>699.0</ele><time>2026-04-12T08:08:08.786Z</time></trkpt><trkpt lat="45.7002728" lon="11.2681404"><ele>699.0</ele><time>2026-04-12T08:08:09.786Z</time></trkpt><trkpt lat="45.7002807" lon="11.268029"><ele>699.0</ele><time>2026-04-12T08:08:10.786Z</time></trkpt><trkpt lat="45.7002961" lon="11.2679218"><ele>699.0</ele><time>2026-04-12T08:08:11.787Z</time></trkpt><trkpt lat="45.7003266" lon="11.2678045"><ele>699.0</ele><time>2026-04-12T08:08:12.787Z</time></trkpt><trkpt lat="45.7003638" lon="11.2676858"><ele>700.1666666666666</ele><time>2026-04-12T08:08:13.787Z</time></trkpt><trkpt lat="45.7004044" lon="11.2675676"><ele>701.3333333333334</ele><time>2026-04-12T08:08:14.786Z</time></trkpt><trkpt lat="45.7004446" lon="11.2674431"><ele>702.5</ele><time>2026-04-12T08:08:15.787Z</time></trkpt><trkpt lat="45.7004811" lon="11.2673196"><ele>703.6666666666667</ele><time>2026-04-12T08:08:16.786Z</time></trkpt><trkpt lat="45.7005209" lon="11.2672224"><ele>704.8333333333334</ele><time>2026-04-12T08:08:17.787Z</time></trkpt><trkpt lat="45.7005579" lon="11.2671271"><ele>706.0</ele><time>2026-04-12T08:08:18.787Z</time></trkpt><trkpt lat="45.7005946" lon="11.2670294"><ele>706.0</ele><time>2026-04-12T08:08:19.786Z</time></trkpt><trkpt lat="45.700626" lon="11.266937"><ele>706.0</ele><time>2026-04-12T08:08:20.786Z</time></trkpt><trkpt lat="45.7006524" lon="11.2668528"><ele>706.0</ele><time>2026-04-12T08:08:21.787Z</time></trkpt><trkpt lat="45.7007088" lon="11.2667027"><ele>706.0</ele><time>2026-04-12T08:08:23.787Z</time></trkpt><trkpt lat="45.7007898" lon="11.2666197"><ele>706.0</ele><time>2026-04-12T08:08:25.787Z</time></trkpt><trkpt lat="45.7008955" lon="11.2665347"><ele>706.0</ele><time>2026-04-12T08:08:27.786Z</time></trkpt><trkpt lat="45.7009539" lon="11.2664679"><ele>706.0</ele><time>2026-04-12T08:08:28.787Z</time></trkpt><trkpt lat="45.7010117" lon="11.2663963"><ele>706.0</ele><time>2026-04-12T08:08:29.786Z</time></trkpt><trkpt lat="45.7010761" lon="11.2663088"><ele>706.0</ele><time>2026-04-12T08:08:30.786Z</time></trkpt><trkpt lat="45.7011345" lon="11.2662229"><ele>706.0</ele><time>2026-04-12T08:08:31.787Z</time></trkpt><trkpt lat="45.7011866" lon="11.2661579"><ele>706.0</ele><time>2026-04-12T08:08:32.787Z</time></trkpt><trkpt lat="45.7012767" lon="11.2660825"><ele>707.1999999999999</ele><time>2026-04-12T08:08:34.786Z</time></trkpt><trkpt lat="45.7013502" lon="11.2660736"><ele>708.4</ele><time>2026-04-12T08:08:36.786Z</time></trkpt><trkpt lat="45.7014341" lon="11.2661472"><ele>709.6</ele><time>2026-04-12T08:08:38.787Z</time></trkpt><trkpt lat="45.7015087" lon="11.2662606"><ele>710.8</ele><time>2026-04-12T08:08:40.786Z</time></trkpt><trkpt lat="45.7015949" lon="11.2663647"><ele>712.0</ele><time>2026-04-12T08:08:42.786Z</time></trkpt><trkpt lat="45.7017006" lon="11.2663971"><ele>712.0</ele><time>2026-04-12T08:08:44.786Z</time></trkpt><trkpt lat="45.7017676" lon="11.2663874"><ele>712.0</ele><time>2026-04-12T08:08:45.787Z</time></trkpt><trkpt lat="45.7018386" lon="11.266375"><ele>712.0</ele><time>2026-04-12T08:08:46.787Z</time></trkpt><trkpt lat="45.7019256" lon="11.266351"><ele>712.0</ele><time>2026-04-12T08:08:47.787Z</time></trkpt><trkpt lat="45.7020117" lon="11.2663176"><ele>712.0</ele><time>2026-04-12T08:08:48.787Z</time></trkpt><trkpt lat="45.7020858" lon="11.2662749"><ele>712.0</ele><time>2026-04-12T08:08:49.787Z</time></trkpt><trkpt lat="45.7021443" lon="11.2662178"><ele>713.5</ele><time>2026-04-12T08:08:50.787Z</time></trkpt><trkpt lat="45.7021977" lon="11.2661538"><ele>715.0</ele><time>2026-04-12T08:08:51.787Z</time></trkpt><trkpt lat="45.7022561" lon="11.2660847"><ele>716.5</ele><time>2026-04-12T08:08:52.787Z</time></trkpt><trkpt lat="45.7023215" lon="11.26601"><ele>718.0</ele><time>2026-04-12T08:08:53.787Z</time></trkpt><trkpt lat="45.7023955" lon="11.2659277"><ele>719.5</ele><time>2026-04-12T08:08:54.786Z</time></trkpt><trkpt lat="45.7024807" lon="11.2658305"><ele>721.0</ele><time>2026-04-12T08:08:55.786Z</time></trkpt><trkpt lat="45.7025633" lon="11.2657297"><ele>721.0</ele><time>2026-04-12T08:08:56.786Z</time></trkpt><trkpt lat="45.7026432" lon="11.2656391"><ele>721.0</ele><time>2026-04-12T08:08:57.787Z</time></trkpt><trkpt lat="45.7027171" lon="11.2655553"><ele>721.0</ele><time>2026-04-12T08:08:58.787Z</time></trkpt><trkpt lat="45.7027802" lon="11.2654776"><ele>721.0</ele><time>2026-04-12T08:08:59.786Z</time></trkpt><trkpt lat="45.702824" lon="11.265407"><ele>721.0</ele><time>2026-04-12T08:09:00.787Z</time></trkpt><trkpt lat="45.702909" lon="11.2653156"><ele>723.0</ele><time>2026-04-12T08:09:02.786Z</time></trkpt><trkpt lat="45.7029981" lon="11.2652358"><ele>725.0</ele><time>2026-04-12T08:09:04.787Z</time></trkpt><trkpt lat="45.7030719" lon="11.26514"><ele>727.0</ele><time>2026-04-12T08:09:06.787Z</time></trkpt><trkpt lat="45.7031748" lon="11.2651046"><ele>729.0</ele><time>2026-04-12T08:09:08.786Z</time></trkpt><trkpt lat="45.7033037" lon="11.2650856"><ele>731.0</ele><time>2026-04-12T08:09:10.786Z</time></trkpt><trkpt lat="45.7033717" lon="11.2650832"><ele>731.0</ele><time>2026-04-12T08:09:11.786Z</time></trkpt><trkpt lat="45.7034442" lon="11.2650854"><ele>731.0</ele><time>2026-04-12T08:09:12.786Z</time></trkpt><trkpt lat="45.7035115" lon="11.2650842"><ele>731.0</ele><time>2026-04-12T08:09:13.787Z</time></trkpt><trkpt lat="45.7036289" lon="11.2650642"><ele>731.0</ele><time>2026-04-12T08:09:15.786Z</time></trkpt><trkpt lat="45.7037597" lon="11.2650408"><ele>731.0</ele><time>2026-04-12T08:09:17.787Z</time></trkpt><trkpt lat="45.7038303" lon="11.265025"><ele>732.4285714285714</ele><time>2026-04-12T08:09:18.787Z</time></trkpt><trkpt lat="45.703898" lon="11.2650166"><ele>733.8571428571429</ele><time>2026-04-12T08:09:19.787Z</time></trkpt><trkpt lat="45.7039647" lon="11.2650121"><ele>735.2857142857142</ele><time>2026-04-12T08:09:20.786Z</time></trkpt><trkpt lat="45.7040384" lon="11.2650255"><ele>736.7142857142858</ele><time>2026-04-12T08:09:21.787Z</time></trkpt><trkpt lat="45.7041152" lon="11.2650358"><ele>738.1428571428572</ele><time>2026-04-12T08:09:22.786Z</time></trkpt><trkpt lat="45.7041841" lon="11.2650374"><ele>739.5714285714286</ele><time>2026-04-12T08:09:23.786Z</time></trkpt><trkpt lat="45.704257" lon="11.2650264"><ele>741.0</ele><time>2026-04-12T08:09:24.786Z</time></trkpt><trkpt lat="45.7043292" lon="11.2649986"><ele>741.0</ele><time>2026-04-12T08:09:25.787Z</time></trkpt><trkpt lat="45.7044022" lon="11.2649653"><ele>741.0</ele><time>2026-04-12T08:09:26.787Z</time></trkpt><trkpt lat="45.7044725" lon="11.2649301"><ele>741.0</ele><time>2026-04-12T08:09:27.786Z</time></trkpt><trkpt lat="45.7045337" lon="11.2648914"><ele>741.0</ele><time>2026-04-12T08:09:28.787Z</time></trkpt><trkpt lat="45.7045908" lon="11.2648487"><ele>741.0</ele><time>2026-04-12T08:09:29.787Z</time></trkpt><trkpt lat="45.7046613" lon="11.2647569"><ele>741.0</ele><time>2026-04-12T08:09:31.787Z</time></trkpt><trkpt lat="45.7046976" lon="11.2646208"><ele>740.6666666666666</ele><time>2026-04-12T08:09:33.786Z</time></trkpt><trkpt lat="45.704716" lon="11.2645255"><ele>740.3333333333334</ele><time>2026-04-12T08:09:34.785Z</time></trkpt><trkpt lat="45.7047356" lon="11.2644184"><ele>740.0</ele><time>2026-04-12T08:09:35.786Z</time></trkpt><trkpt lat="45.7047639" lon="11.2643084"><ele>739.6666666666667</ele><time>2026-04-12T08:09:36.785Z</time></trkpt><trkpt lat="45.7047993" lon="11.2642052"><ele>739.3333333333334</ele><time>2026-04-12T08:09:37.786Z</time></trkpt><trkpt lat="45.704842" lon="11.264111"><ele>739.0</ele><time>2026-04-12T08:09:38.785Z</time></trkpt><trkpt lat="45.7048865" lon="11.2640245"><ele>739.0</ele><time>2026-04-12T08:09:39.786Z</time></trkpt><trkpt lat="45.7049319" lon="11.2639517"><ele>739.0</ele><time>2026-04-12T08:09:40.785Z</time></trkpt><trkpt lat="45.7049767" lon="11.2638756"><ele>739.0</ele><time>2026-04-12T08:09:41.786Z</time></trkpt><trkpt lat="45.7050523" lon="11.2637524"><ele>739.0</ele><time>2026-04-12T08:09:43.786Z</time></trkpt><trkpt lat="45.7051335" lon="11.2636385"><ele>739.0</ele><time>2026-04-12T08:09:45.786Z</time></trkpt><trkpt lat="45.7051881" lon="11.2635746"><ele>739.0</ele><time>2026-04-12T08:09:46.785Z</time></trkpt><trkpt lat="45.7052487" lon="11.2635102"><ele>739.8000000000001</ele><time>2026-04-12T08:09:47.785Z</time></trkpt><trkpt lat="45.7053015" lon="11.2634427"><ele>740.6</ele><time>2026-04-12T08:09:48.785Z</time></trkpt><trkpt lat="45.7053686" lon="11.263314"><ele>741.4</ele><time>2026-04-12T08:09:50.786Z</time></trkpt><trkpt lat="45.7053822" lon="11.2631934"><ele>742.2</ele><time>2026-04-12T08:09:52.786Z</time></trkpt><trkpt lat="45.7053428" lon="11.2630403"><ele>743.0</ele><time>2026-04-12T08:09:54.786Z</time></trkpt><trkpt lat="45.7053179" lon="11.2628957"><ele>743.4285714285714</ele><time>2026-04-12T08:09:56.786Z</time></trkpt><trkpt lat="45.7053553" lon="11.2627682"><ele>743.8571428571428</ele><time>2026-04-12T08:09:58.786Z</time></trkpt><trkpt lat="45.7054065" lon="11.2627031"><ele>744.2857142857142</ele><time>2026-04-12T08:09:59.786Z</time></trkpt><trkpt lat="45.7054627" lon="11.2626421"><ele>744.7142857142858</ele><time>2026-04-12T08:10:00.785Z</time></trkpt><trkpt lat="45.705521" lon="11.2625837"><ele>745.1428571428571</ele><time>2026-04-12T08:10:01.786Z</time></trkpt><trkpt lat="45.7055732" lon="11.2625296"><ele>745.5714285714286</ele><time>2026-04-12T08:10:02.786Z</time></trkpt><trkpt lat="45.7056296" lon="11.262473"><ele>746.0</ele><time>2026-04-12T08:10:03.786Z</time></trkpt><trkpt lat="45.7056896" lon="11.2624233"><ele>746.0</ele><time>2026-04-12T08:10:04.786Z</time></trkpt><trkpt lat="45.7057555" lon="11.2623781"><ele>746.0</ele><time>2026-04-12T08:10:05.786Z</time></trkpt><trkpt lat="45.7058216" lon="11.2623377"><ele>746.0</ele><time>2026-04-12T08:10:06.785Z</time></trkpt><trkpt lat="45.7058938" lon="11.2623042"><ele>746.0</ele><time>2026-04-12T08:10:07.786Z</time></trkpt><trkpt lat="45.7059727" lon="11.2622844"><ele>746.0</ele><time>2026-04-12T08:10:08.785Z</time></trkpt><trkpt lat="45.706053" lon="11.2622727"><ele>746.0</ele><time>2026-04-12T08:10:09.785Z</time></trkpt><trkpt lat="45.7061223" lon="11.2622615"><ele>745.6666666666666</ele><time>2026-04-12T08:10:10.786Z</time></trkpt><trkpt lat="45.7061856" lon="11.2622475"><ele>745.3333333333333</ele><time>2026-04-12T08:10:11.786Z</time></trkpt><trkpt lat="45.7062484" lon="11.2622229"><ele>745.0</ele><time>2026-04-12T08:10:12.785Z</time></trkpt><trkpt lat="45.7063124" lon="11.2621973"><ele>744.6666666666666</ele><time>2026-04-12T08:10:13.785Z</time></trkpt><trkpt lat="45.7064214" lon="11.2621439"><ele>744.3333333333334</ele><time>2026-04-12T08:10:15.785Z</time></trkpt><trkpt lat="45.7065207" lon="11.2620622"><ele>744.0</ele><time>2026-04-12T08:10:17.785Z</time></trkpt><trkpt lat="45.7065716" lon="11.2620084"><ele>744.0</ele><time>2026-04-12T08:10:18.785Z</time></trkpt><trkpt lat="45.7066712" lon="11.2619058"><ele>744.0</ele><time>2026-04-12T08:10:20.785Z</time></trkpt><trkpt lat="45.7067867" lon="11.261833"><ele>744.0</ele><time>2026-04-12T08:10:22.786Z</time></trkpt><trkpt lat="45.7068461" lon="11.2617974"><ele>744.0</ele><time>2026-04-12T08:10:23.785Z</time></trkpt><trkpt lat="45.7069086" lon="11.2617685"><ele>744.0</ele><time>2026-04-12T08:10:24.786Z</time></trkpt><trkpt lat="45.7070228" lon="11.2617074"><ele>740.8000000000001</ele><time>2026-04-12T08:10:26.785Z</time></trkpt><trkpt lat="45.7071363" lon="11.2616615"><ele>737.6</ele><time>2026-04-12T08:10:28.786Z</time></trkpt><trkpt lat="45.7072498" lon="11.2616245"><ele>734.4</ele><time>2026-04-12T08:10:30.786Z</time></trkpt><trkpt lat="45.707368" lon="11.2615875"><ele>731.2</ele><time>2026-04-12T08:10:32.786Z</time></trkpt><trkpt lat="45.7074331" lon="11.2615592"><ele>728.0</ele><time>2026-04-12T08:10:33.786Z</time></trkpt><trkpt lat="45.7074946" lon="11.2615209"><ele>728.0</ele><time>2026-04-12T08:10:34.785Z</time></trkpt><trkpt lat="45.7075548" lon="11.2614699"><ele>728.0</ele><time>2026-04-12T08:10:35.786Z</time></trkpt><trkpt lat="45.7076123" lon="11.2614212"><ele>728.0</ele><time>2026-04-12T08:10:36.786Z</time></trkpt><trkpt lat="45.7076582" lon="11.2613582"><ele>728.0</ele><time>2026-04-12T08:10:37.785Z</time></trkpt><trkpt lat="45.7077056" lon="11.2612951"><ele>728.0</ele><time>2026-04-12T08:10:38.786Z</time></trkpt><trkpt lat="45.7077659" lon="11.2612331"><ele>728.0</ele><time>2026-04-12T08:10:39.785Z</time></trkpt><trkpt lat="45.7078236" lon="11.2611812"><ele>728.0</ele><time>2026-04-12T08:10:40.786Z</time></trkpt><trkpt lat="45.7078845" lon="11.2611442"><ele>728.0</ele><time>2026-04-12T08:10:41.786Z</time></trkpt><trkpt lat="45.70795" lon="11.2611101"><ele>728.0</ele><time>2026-04-12T08:10:42.786Z</time></trkpt><trkpt lat="45.7080233" lon="11.2610867"><ele>728.0</ele><time>2026-04-12T08:10:43.786Z</time></trkpt><trkpt lat="45.708096" lon="11.2610617"><ele>728.0</ele><time>2026-04-12T08:10:44.786Z</time></trkpt><trkpt lat="45.7081669" lon="11.2610205"><ele>728.0</ele><time>2026-04-12T08:10:45.785Z</time></trkpt><trkpt lat="45.7082258" lon="11.2609646"><ele>728.0</ele><time>2026-04-12T08:10:46.785Z</time></trkpt><trkpt lat="45.7082824" lon="11.2609078"><ele>728.0</ele><time>2026-04-12T08:10:47.785Z</time></trkpt><trkpt lat="45.7083372" lon="11.2608403"><ele>728.0</ele><time>2026-04-12T08:10:48.786Z</time></trkpt><trkpt lat="45.7083871" lon="11.2607824"><ele>728.0</ele><time>2026-04-12T08:10:49.785Z</time></trkpt><trkpt lat="45.708475" lon="11.2606706"><ele>728.0</ele><time>2026-04-12T08:10:51.786Z</time></trkpt><trkpt lat="45.7085506" lon="11.2605951"><ele>728.0</ele><time>2026-04-12T08:10:53.785Z</time></trkpt><trkpt lat="45.7086188" lon="11.2605294"><ele>728.0</ele><time>2026-04-12T08:10:55.786Z</time></trkpt><trkpt lat="45.7086723" lon="11.2604081"><ele>727.3333333333333</ele><time>2026-04-12T08:10:57.786Z</time></trkpt><trkpt lat="45.7086999" lon="11.2603206"><ele>726.6666666666666</ele><time>2026-04-12T08:10:58.786Z</time></trkpt><trkpt lat="45.7087229" lon="11.2602201"><ele>726.0</ele><time>2026-04-12T08:10:59.786Z</time></trkpt><trkpt lat="45.7087403" lon="11.2601141"><ele>725.3333333333334</ele><time>2026-04-12T08:11:00.786Z</time></trkpt><trkpt lat="45.7087525" lon="11.2600082"><ele>724.6666666666667</ele><time>2026-04-12T08:11:01.786Z</time></trkpt><trkpt lat="45.7087595" lon="11.259916"><ele>724.0</ele><time>2026-04-12T08:11:02.786Z</time></trkpt><trkpt lat="45.7087652" lon="11.2597805"><ele>720.8000000000001</ele><time>2026-04-12T08:11:04.785Z</time></trkpt><trkpt lat="45.7087426" lon="11.2596932"><ele>717.6</ele><time>2026-04-12T08:11:06.786Z</time></trkpt><trkpt lat="45.708672" lon="11.2596422"><ele>714.4</ele><time>2026-04-12T08:11:08.786Z</time></trkpt><trkpt lat="45.7085562" lon="11.2596027"><ele>711.2</ele><time>2026-04-12T08:11:10.786Z</time></trkpt><trkpt lat="45.7084546" lon="11.2595971"><ele>708.0</ele><time>2026-04-12T08:11:12.786Z</time></trkpt><trkpt lat="45.7083519" lon="11.2595984"><ele>706.0</ele><time>2026-04-12T08:11:14.785Z</time></trkpt><trkpt lat="45.7082638" lon="11.2595404"><ele>704.0</ele><time>2026-04-12T08:11:16.786Z</time></trkpt><trkpt lat="45.7081947" lon="11.2594203"><ele>702.0</ele><time>2026-04-12T08:11:18.786Z</time></trkpt><trkpt lat="45.7081433" lon="11.2592877"><ele>700.0</ele><time>2026-04-12T08:11:20.786Z</time></trkpt><trkpt lat="45.7081231" lon="11.2591546"><ele>698.0</ele><time>2026-04-12T08:11:22.786Z</time></trkpt><trkpt lat="45.7081908" lon="11.2590634"><ele>698.0</ele><time>2026-04-12T08:11:24.786Z</time></trkpt><trkpt lat="45.7082943" lon="11.2590095"><ele>698.0</ele><time>2026-04-12T08:11:26.785Z</time></trkpt><trkpt lat="45.7083592" lon="11.2589908"><ele>698.0</ele><time>2026-04-12T08:11:27.786Z</time></trkpt><trkpt lat="45.7084261" lon="11.2589751"><ele>698.0</ele><time>2026-04-12T08:11:28.786Z</time></trkpt><trkpt lat="45.708492" lon="11.2589606"><ele>698.0</ele><time>2026-04-12T08:11:29.785Z</time></trkpt><trkpt lat="45.7085571" lon="11.2589494"><ele>698.0</ele><time>2026-04-12T08:11:30.785Z</time></trkpt><trkpt lat="45.7086297" lon="11.2589309"><ele>696.1428571428571</ele><time>2026-04-12T08:11:31.785Z</time></trkpt><trkpt lat="45.7087001" lon="11.2589027"><ele>694.2857142857142</ele><time>2026-04-12T08:11:32.785Z</time></trkpt><trkpt lat="45.7087722" lon="11.2588658"><ele>692.4285714285713</ele><time>2026-04-12T08:11:33.785Z</time></trkpt><trkpt lat="45.7088434" lon="11.2588303"><ele>690.5714285714286</ele><time>2026-04-12T08:11:34.785Z</time></trkpt><trkpt lat="45.708909" lon="11.2587882"><ele>688.7142857142858</ele><time>2026-04-12T08:11:35.785Z</time></trkpt><trkpt lat="45.7089667" lon="11.258745"><ele>686.8571428571428</ele><time>2026-04-12T08:11:36.786Z</time></trkpt><trkpt lat="45.7090334" lon="11.2587067"><ele>685.0</ele><time>2026-04-12T08:11:37.785Z</time></trkpt><trkpt lat="45.7091015" lon="11.2586621"><ele>685.0</ele><time>2026-04-12T08:11:38.785Z</time></trkpt><trkpt lat="45.709159" lon="11.2586086"><ele>685.0</ele><time>2026-04-12T08:11:39.786Z</time></trkpt><trkpt lat="45.7092176" lon="11.2585382"><ele>685.0</ele><time>2026-04-12T08:11:40.786Z</time></trkpt><trkpt lat="45.7092655" lon="11.2584557"><ele>685.0</ele><time>2026-04-12T08:11:41.785Z</time></trkpt><trkpt lat="45.7093134" lon="11.2583568"><ele>685.0</ele><time>2026-04-12T08:11:42.785Z</time></trkpt><trkpt lat="45.7093503" lon="11.2582432"><ele>685.0</ele><time>2026-04-12T08:11:43.785Z</time></trkpt><trkpt lat="45.7093744" lon="11.2581233"><ele>683.4</ele><time>2026-04-12T08:11:44.786Z</time></trkpt><trkpt lat="45.7093819" lon="11.2580113"><ele>681.8</ele><time>2026-04-12T08:11:45.786Z</time></trkpt><trkpt lat="45.7093868" lon="11.2579045"><ele>680.2</ele><time>2026-04-12T08:11:46.785Z</time></trkpt><trkpt lat="45.7093895" lon="11.2578109"><ele>678.6</ele><time>2026-04-12T08:11:47.786Z</time></trkpt><trkpt lat="45.7093546" lon="11.2576555"><ele>677.0</ele><time>2026-04-12T08:11:49.785Z</time></trkpt><trkpt lat="45.7092884" lon="11.257508"><ele>677.0</ele><time>2026-04-12T08:11:51.786Z</time></trkpt><trkpt lat="45.7092459" lon="11.2574345"><ele>677.0</ele><time>2026-04-12T08:11:52.785Z</time></trkpt><trkpt lat="45.7091607" lon="11.2572964"><ele>677.0</ele><time>2026-04-12T08:11:54.785Z</time></trkpt><trkpt lat="45.7091094" lon="11.2572279"><ele>677.0</ele><time>2026-04-12T08:11:55.785Z</time></trkpt><trkpt lat="45.7090547" lon="11.2571624"><ele>677.0</ele><time>2026-04-12T08:11:56.786Z</time></trkpt><trkpt lat="45.7090066" lon="11.2571041"><ele>677.0</ele><time>2026-04-12T08:11:57.785Z</time></trkpt><trkpt lat="45.7089554" lon="11.2570492"><ele>675.1666666666666</ele><time>2026-04-12T08:11:58.785Z</time></trkpt><trkpt lat="45.7088436" lon="11.2569503"><ele>673.3333333333333</ele><time>2026-04-12T08:12:00.786Z</time></trkpt><trkpt lat="45.7087767" lon="11.2569092"><ele>671.5</ele><time>2026-04-12T08:12:01.785Z</time></trkpt><trkpt lat="45.7086961" lon="11.2568717"><ele>669.6666666666666</ele><time>2026-04-12T08:12:02.785Z</time></trkpt><trkpt lat="45.7086233" lon="11.256838"><ele>667.8333333333334</ele><time>2026-04-12T08:12:03.785Z</time></trkpt><trkpt lat="45.7085619" lon="11.2568"><ele>666.0</ele><time>2026-04-12T08:12:04.786Z</time></trkpt><trkpt lat="45.7085047" lon="11.2567488"><ele>664.3333333333334</ele><time>2026-04-12T08:12:05.785Z</time></trkpt><trkpt lat="45.7084517" lon="11.2566892"><ele>662.6666666666666</ele><time>2026-04-12T08:12:06.785Z</time></trkpt><trkpt lat="45.7083981" lon="11.2566167"><ele>661.0</ele><time>2026-04-12T08:12:07.786Z</time></trkpt><trkpt lat="45.7083568" lon="11.2565409"><ele>659.3333333333333</ele><time>2026-04-12T08:12:08.785Z</time></trkpt><trkpt lat="45.7083247" lon="11.2564607"><ele>657.6666666666666</ele><time>2026-04-12T08:12:09.785Z</time></trkpt><trkpt lat="45.7083088" lon="11.2563071"><ele>656.0</ele><time>2026-04-12T08:12:11.786Z</time></trkpt><trkpt lat="45.7083202" lon="11.2562066"><ele>654.6666666666666</ele><time>2026-04-12T08:12:12.786Z</time></trkpt><trkpt lat="45.7083487" lon="11.2561124"><ele>653.3333333333333</ele><time>2026-04-12T08:12:13.786Z</time></trkpt><trkpt lat="45.7083805" lon="11.2560132"><ele>652.0</ele><time>2026-04-12T08:12:14.785Z</time></trkpt><trkpt lat="45.708412" lon="11.2559235"><ele>650.6666666666666</ele><time>2026-04-12T08:12:15.786Z</time></trkpt><trkpt lat="45.7084404" lon="11.2558416"><ele>649.3333333333334</ele><time>2026-04-12T08:12:16.786Z</time></trkpt><trkpt lat="45.708501" lon="11.2557305"><ele>648.0</ele><time>2026-04-12T08:12:18.786Z</time></trkpt><trkpt lat="45.7085663" lon="11.2556463"><ele>649.0</ele><time>2026-04-12T08:12:20.786Z</time></trkpt><trkpt lat="45.7086566" lon="11.2555569"><ele>650.0</ele><time>2026-04-12T08:12:22.786Z</time></trkpt><trkpt lat="45.7087054" lon="11.2554969"><ele>651.0</ele><time>2026-04-12T08:12:23.785Z</time></trkpt><trkpt lat="45.7087648" lon="11.2554215"><ele>652.0</ele><time>2026-04-12T08:12:24.786Z</time></trkpt><trkpt lat="45.7088288" lon="11.2553405"><ele>653.0</ele><time>2026-04-12T08:12:25.786Z</time></trkpt><trkpt lat="45.7088977" lon="11.255264"><ele>654.0</ele><time>2026-04-12T08:12:26.785Z</time></trkpt><trkpt lat="45.7089745" lon="11.255185"><ele>654.0</ele><time>2026-04-12T08:12:27.786Z</time></trkpt><trkpt lat="45.7090537" lon="11.2551104"><ele>654.0</ele><time>2026-04-12T08:12:28.785Z</time></trkpt><trkpt lat="45.7091171" lon="11.2550489"><ele>654.0</ele><time>2026-04-12T08:12:29.786Z</time></trkpt><trkpt lat="45.7092039" lon="11.2549532"><ele>654.0</ele><time>2026-04-12T08:12:31.786Z</time></trkpt><trkpt lat="45.7092547" lon="11.2548533"><ele>654.0</ele><time>2026-04-12T08:12:33.785Z</time></trkpt><trkpt lat="45.7092859" lon="11.2547361"><ele>652.6666666666666</ele><time>2026-04-12T08:12:35.786Z</time></trkpt><trkpt lat="45.7093093" lon="11.2546294"><ele>651.3333333333334</ele><time>2026-04-12T08:12:37.785Z</time></trkpt><trkpt lat="45.7093591" lon="11.2545155"><ele>650.0</ele><time>2026-04-12T08:12:40.785Z</time></trkpt><trkpt lat="45.7094075" lon="11.2544008"><ele>648.6666666666667</ele><time>2026-04-12T08:12:42.786Z</time></trkpt><trkpt lat="45.7094658" lon="11.2543199"><ele>647.3333333333334</ele><time>2026-04-12T08:12:43.786Z</time></trkpt><trkpt lat="45.7095418" lon="11.2542319"><ele>646.0</ele><time>2026-04-12T08:12:44.785Z</time></trkpt><trkpt lat="45.7096275" lon="11.2541427"><ele>647.4</ele><time>2026-04-12T08:12:45.785Z</time></trkpt><trkpt lat="45.709703" lon="11.2540404"><ele>648.8</ele><time>2026-04-12T08:12:46.785Z</time></trkpt><trkpt lat="45.709772" lon="11.2539224"><ele>650.1999999999999</ele><time>2026-04-12T08:12:47.786Z</time></trkpt><trkpt lat="45.709834" lon="11.2537875"><ele>651.5999999999999</ele><time>2026-04-12T08:12:48.786Z</time></trkpt><trkpt lat="45.7098913" lon="11.2536496"><ele>653.0</ele><time>2026-04-12T08:12:49.785Z</time></trkpt><trkpt lat="45.7099438" lon="11.2535088"><ele>653.0</ele><time>2026-04-12T08:12:50.786Z</time></trkpt><trkpt lat="45.7099992" lon="11.2533696"><ele>653.0</ele><time>2026-04-12T08:12:51.786Z</time></trkpt><trkpt lat="45.7100596" lon="11.2532341"><ele>653.0</ele><time>2026-04-12T08:12:52.785Z</time></trkpt><trkpt lat="45.7101291" lon="11.2531098"><ele>653.0</ele><time>2026-04-12T08:12:53.785Z</time></trkpt><trkpt lat="45.7101928" lon="11.2529821"><ele>653.0</ele><time>2026-04-12T08:12:54.786Z</time></trkpt><trkpt lat="45.7102719" lon="11.2528842"><ele>655.0</ele><time>2026-04-12T08:12:55.785Z</time></trkpt><trkpt lat="45.7103635" lon="11.2528162"><ele>657.0</ele><time>2026-04-12T08:12:56.785Z</time></trkpt><trkpt lat="45.7104486" lon="11.2527594"><ele>659.0</ele><time>2026-04-12T08:12:57.786Z</time></trkpt><trkpt lat="45.7105315" lon="11.2527246"><ele>661.0</ele><time>2026-04-12T08:12:58.785Z</time></trkpt><trkpt lat="45.7105975" lon="11.2526912"><ele>663.0</ele><time>2026-04-12T08:12:59.786Z</time></trkpt><trkpt lat="45.7107146" lon="11.252648"><ele>663.0</ele><time>2026-04-12T08:13:01.785Z</time></trkpt><trkpt lat="45.7107955" lon="11.2525624"><ele>663.0</ele><time>2026-04-12T08:13:03.786Z</time></trkpt><trkpt lat="45.7108596" lon="11.2524"><ele>663.0</ele><time>2026-04-12T08:13:05.785Z</time></trkpt><trkpt lat="45.7108863" lon="11.2523141"><ele>663.0</ele><time>2026-04-12T08:13:06.786Z</time></trkpt><trkpt lat="45.7109142" lon="11.2522269"><ele>663.0</ele><time>2026-04-12T08:13:07.785Z</time></trkpt><trkpt lat="45.7109508" lon="11.252148"><ele>663.0</ele><time>2026-04-12T08:13:08.786Z</time></trkpt><trkpt lat="45.7110062" lon="11.2520813"><ele>663.6666666666666</ele><time>2026-04-12T08:13:09.785Z</time></trkpt><trkpt lat="45.7110707" lon="11.252036"><ele>664.3333333333334</ele><time>2026-04-12T08:13:10.785Z</time></trkpt><trkpt lat="45.7111415" lon="11.252002"><ele>665.0</ele><time>2026-04-12T08:13:11.786Z</time></trkpt><trkpt lat="45.7112135" lon="11.2519707"><ele>665.6666666666667</ele><time>2026-04-12T08:13:12.786Z</time></trkpt><trkpt lat="45.7112888" lon="11.2519288"><ele>666.3333333333334</ele><time>2026-04-12T08:13:13.786Z</time></trkpt><trkpt lat="45.711358" lon="11.251866"><ele>667.0</ele><time>2026-04-12T08:13:14.785Z</time></trkpt><trkpt lat="45.7114212" lon="11.2517836"><ele>667.0</ele><time>2026-04-12T08:13:15.786Z</time></trkpt><trkpt lat="45.7114779" lon="11.2516906"><ele>667.0</ele><time>2026-04-12T08:13:16.786Z</time></trkpt><trkpt lat="45.711532" lon="11.2516122"><ele>667.0</ele><time>2026-04-12T08:13:17.786Z</time></trkpt><trkpt lat="45.7115728" lon="11.2515414"><ele>667.0</ele><time>2026-04-12T08:13:18.785Z</time></trkpt><trkpt lat="45.7116179" lon="11.2514269"><ele>667.0</ele><time>2026-04-12T08:13:20.786Z</time></trkpt><trkpt lat="45.7116539" lon="11.2513486"><ele>667.0</ele><time>2026-04-12T08:13:22.786Z</time></trkpt><trkpt lat="45.7116966" lon="11.2512453"><ele>665.3333333333334</ele><time>2026-04-12T08:13:29.786Z</time></trkpt><trkpt lat="45.7117187" lon="11.2511202"><ele>663.6666666666667</ele><time>2026-04-12T08:13:32.785Z</time></trkpt><trkpt lat="45.7117342" lon="11.2510023"><ele>662.0</ele><time>2026-04-12T08:13:34.785Z</time></trkpt><trkpt lat="45.7117375" lon="11.250873"><ele>660.3333333333334</ele><time>2026-04-12T08:13:36.785Z</time></trkpt><trkpt lat="45.7116912" lon="11.2507898"><ele>658.6666666666666</ele><time>2026-04-12T08:13:38.785Z</time></trkpt><trkpt lat="45.7116311" lon="11.2507005"><ele>657.0</ele><time>2026-04-12T08:13:40.785Z</time></trkpt><trkpt lat="45.7115854" lon="11.2505491"><ele>656.5</ele><time>2026-04-12T08:13:42.785Z</time></trkpt><trkpt lat="45.7115695" lon="11.2504487"><ele>656.0</ele><time>2026-04-12T08:13:43.786Z</time></trkpt><trkpt lat="45.7115573" lon="11.2503417"><ele>655.5</ele><time>2026-04-12T08:13:44.786Z</time></trkpt><trkpt lat="45.7115666" lon="11.2502282"><ele>655.0</ele><time>2026-04-12T08:13:45.786Z</time></trkpt><trkpt lat="45.7116061" lon="11.2500989"><ele>654.5</ele><time>2026-04-12T08:13:46.786Z</time></trkpt><trkpt lat="45.71165" lon="11.2499729"><ele>654.0</ele><time>2026-04-12T08:13:47.785Z</time></trkpt><trkpt lat="45.7116916" lon="11.2498394"><ele>653.0</ele><time>2026-04-12T08:13:48.786Z</time></trkpt><trkpt lat="45.7117275" lon="11.2496975"><ele>652.0</ele><time>2026-04-12T08:13:49.786Z</time></trkpt><trkpt lat="45.7117706" lon="11.2495337"><ele>651.0</ele><time>2026-04-12T08:13:50.786Z</time></trkpt><trkpt lat="45.7118041" lon="11.2493725"><ele>650.0</ele><time>2026-04-12T08:13:51.786Z</time></trkpt><trkpt lat="45.7118373" lon="11.2492171"><ele>650.0</ele><time>2026-04-12T08:13:52.786Z</time></trkpt><trkpt lat="45.7118691" lon="11.2490662"><ele>650.0</ele><time>2026-04-12T08:13:53.785Z</time></trkpt><trkpt lat="45.7119019" lon="11.2489229"><ele>650.0</ele><time>2026-04-12T08:13:54.786Z</time></trkpt><trkpt lat="45.7119405" lon="11.248779"><ele>650.0</ele><time>2026-04-12T08:13:55.785Z</time></trkpt><trkpt lat="45.7119859" lon="11.2486317"><ele>650.0</ele><time>2026-04-12T08:13:56.786Z</time></trkpt><trkpt lat="45.7120455" lon="11.2484946"><ele>654.75</ele><time>2026-04-12T08:13:57.785Z</time></trkpt><trkpt lat="45.7121146" lon="11.2483619"><ele>659.5</ele><time>2026-04-12T08:13:58.786Z</time></trkpt><trkpt lat="45.7121784" lon="11.2482246"><ele>664.25</ele><time>2026-04-12T08:13:59.786Z</time></trkpt><trkpt lat="45.7122253" lon="11.2480778"><ele>669.0</ele><time>2026-04-12T08:14:00.785Z</time></trkpt><trkpt lat="45.712256" lon="11.2479184"><ele>669.0</ele><time>2026-04-12T08:14:01.786Z</time></trkpt><trkpt lat="45.7122631" lon="11.247748"><ele>669.0</ele><time>2026-04-12T08:14:02.786Z</time></trkpt><trkpt lat="45.7122726" lon="11.2475806"><ele>669.0</ele><time>2026-04-12T08:14:03.786Z</time></trkpt><trkpt lat="45.7122889" lon="11.2474262"><ele>669.0</ele><time>2026-04-12T08:14:04.785Z</time></trkpt><trkpt lat="45.7123035" lon="11.2472813"><ele>669.0</ele><time>2026-04-12T08:14:05.786Z</time></trkpt><trkpt lat="45.712315" lon="11.2471574"><ele>671.0</ele><time>2026-04-12T08:14:06.786Z</time></trkpt><trkpt lat="45.7123081" lon="11.2470427"><ele>673.0</ele><time>2026-04-12T08:14:07.785Z</time></trkpt><trkpt lat="45.7122815" lon="11.246924"><ele>675.0</ele><time>2026-04-12T08:14:08.786Z</time></trkpt><trkpt lat="45.7122404" lon="11.2468043"><ele>677.0</ele><time>2026-04-12T08:14:09.786Z</time></trkpt><trkpt lat="45.7121793" lon="11.246687"><ele>679.0</ele><time>2026-04-12T08:14:10.786Z</time></trkpt><trkpt lat="45.7120891" lon="11.246593"><ele>679.0</ele><time>2026-04-12T08:14:11.785Z</time></trkpt><trkpt lat="45.7119662" lon="11.2465218"><ele>679.0</ele><time>2026-04-12T08:14:12.786Z</time></trkpt><trkpt lat="45.7118401" lon="11.2464678"><ele>679.0</ele><time>2026-04-12T08:14:13.786Z</time></trkpt><trkpt lat="45.711721" lon="11.2464162"><ele>679.0</ele><time>2026-04-12T08:14:14.785Z</time></trkpt><trkpt lat="45.7116096" lon="11.2463579"><ele>677.6</ele><time>2026-04-12T08:14:15.786Z</time></trkpt><trkpt lat="45.7115041" lon="11.2462966"><ele>676.2</ele><time>2026-04-12T08:14:16.786Z</time></trkpt><trkpt lat="45.7114005" lon="11.2462342"><ele>674.8000000000001</ele><time>2026-04-12T08:14:17.786Z</time></trkpt><trkpt lat="45.7113101" lon="11.2461521"><ele>673.4000000000001</ele><time>2026-04-12T08:14:18.786Z</time></trkpt><trkpt lat="45.7112181" lon="11.2460559"><ele>672.0</ele><time>2026-04-12T08:14:19.786Z</time></trkpt><trkpt lat="45.7111323" lon="11.2459434"><ele>669.75</ele><time>2026-04-12T08:14:20.786Z</time></trkpt><trkpt lat="45.7110397" lon="11.2458545"><ele>667.5</ele><time>2026-04-12T08:14:21.786Z</time></trkpt><trkpt lat="45.7109415" lon="11.245759"><ele>665.25</ele><time>2026-04-12T08:14:22.786Z</time></trkpt><trkpt lat="45.7108446" lon="11.245653"><ele>663.0</ele><time>2026-04-12T08:14:23.786Z</time></trkpt><trkpt lat="45.7107637" lon="11.2455529"><ele>663.0</ele><time>2026-04-12T08:14:24.786Z</time></trkpt><trkpt lat="45.7106886" lon="11.245438"><ele>663.0</ele><time>2026-04-12T08:14:25.785Z</time></trkpt><trkpt lat="45.7106256" lon="11.2453173"><ele>663.0</ele><time>2026-04-12T08:14:26.785Z</time></trkpt><trkpt lat="45.7105902" lon="11.2451786"><ele>663.0</ele><time>2026-04-12T08:14:27.785Z</time></trkpt><trkpt lat="45.7105722" lon="11.2450532"><ele>663.0</ele><time>2026-04-12T08:14:28.786Z</time></trkpt><trkpt lat="45.7105834" lon="11.2449289"><ele>663.0</ele><time>2026-04-12T08:14:29.784Z</time></trkpt><trkpt lat="45.7106114" lon="11.2447984"><ele>663.0</ele><time>2026-04-12T08:14:30.784Z</time></trkpt><trkpt lat="45.7106419" lon="11.2446907"><ele>663.0</ele><time>2026-04-12T08:14:31.784Z</time></trkpt><trkpt lat="45.7106863" lon="11.2445994"><ele>663.0</ele><time>2026-04-12T08:14:32.785Z</time></trkpt><trkpt lat="45.7107406" lon="11.2445181"><ele>663.0</ele><time>2026-04-12T08:14:33.785Z</time></trkpt><trkpt lat="45.710796" lon="11.2444246"><ele>663.0</ele><time>2026-04-12T08:14:34.784Z</time></trkpt><trkpt lat="45.7108435" lon="11.2443277"><ele>663.0</ele><time>2026-04-12T08:14:35.785Z</time></trkpt><trkpt lat="45.7108678" lon="11.244228"><ele>663.0</ele><time>2026-04-12T08:14:36.784Z</time></trkpt><trkpt lat="45.71085" lon="11.2441289"><ele>663.0</ele><time>2026-04-12T08:14:37.785Z</time></trkpt><trkpt lat="45.7108127" lon="11.2440435"><ele>663.0</ele><time>2026-04-12T08:14:38.784Z</time></trkpt><trkpt lat="45.7107732" lon="11.2439573"><ele>663.0</ele><time>2026-04-12T08:14:39.785Z</time></trkpt><trkpt lat="45.7107026" lon="11.2438072"><ele>663.0</ele><time>2026-04-12T08:14:41.785Z</time></trkpt><trkpt lat="45.7106543" lon="11.2436761"><ele>663.0</ele><time>2026-04-12T08:14:43.784Z</time></trkpt><trkpt lat="45.7106571" lon="11.2435536"><ele>663.0</ele><time>2026-04-12T08:14:46.784Z</time></trkpt><trkpt lat="45.710693" lon="11.2434339"><ele>663.0</ele><time>2026-04-12T08:14:48.784Z</time></trkpt><trkpt lat="45.7106832" lon="11.2432646"><ele>663.0</ele><time>2026-04-12T08:14:50.785Z</time></trkpt><trkpt lat="45.7106554" lon="11.2431731"><ele>663.0</ele><time>2026-04-12T08:14:51.784Z</time></trkpt><trkpt lat="45.7106297" lon="11.2430877"><ele>663.0</ele><time>2026-04-12T08:14:52.785Z</time></trkpt><trkpt lat="45.7105707" lon="11.2429318"><ele>662.8</ele><time>2026-04-12T08:14:54.784Z</time></trkpt><trkpt lat="45.7105209" lon="11.2428015"><ele>662.5999999999999</ele><time>2026-04-12T08:14:56.785Z</time></trkpt><trkpt lat="45.710482" lon="11.2426577"><ele>662.4000000000001</ele><time>2026-04-12T08:14:58.784Z</time></trkpt><trkpt lat="45.7104687" lon="11.242494"><ele>662.2</ele><time>2026-04-12T08:15:00.785Z</time></trkpt><trkpt lat="45.7104865" lon="11.242398"><ele>662.0</ele><time>2026-04-12T08:15:01.785Z</time></trkpt><trkpt lat="45.7105262" lon="11.2422892"><ele>662.0</ele><time>2026-04-12T08:15:02.785Z</time></trkpt><trkpt lat="45.7105866" lon="11.2421714"><ele>662.0</ele><time>2026-04-12T08:15:03.785Z</time></trkpt><trkpt lat="45.7106611" lon="11.2420608"><ele>662.0</ele><time>2026-04-12T08:15:04.785Z</time></trkpt><trkpt lat="45.7107553" lon="11.2419706"><ele>662.0</ele><time>2026-04-12T08:15:05.785Z</time></trkpt><trkpt lat="45.7108542" lon="11.2418859"><ele>662.0</ele><time>2026-04-12T08:15:06.784Z</time></trkpt><trkpt lat="45.7109426" lon="11.2417959"><ele>662.0</ele><time>2026-04-12T08:15:07.785Z</time></trkpt><trkpt lat="45.7110142" lon="11.2417026"><ele>662.0</ele><time>2026-04-12T08:15:08.784Z</time></trkpt><trkpt lat="45.7110688" lon="11.2415861"><ele>662.0</ele><time>2026-04-12T08:15:09.784Z</time></trkpt><trkpt lat="45.7111088" lon="11.2414478"><ele>662.0</ele><time>2026-04-12T08:15:10.785Z</time></trkpt><trkpt lat="45.7111314" lon="11.2413002"><ele>662.0</ele><time>2026-04-12T08:15:11.784Z</time></trkpt><trkpt lat="45.7111356" lon="11.2411412"><ele>662.5</ele><time>2026-04-12T08:15:12.784Z</time></trkpt><trkpt lat="45.7111294" lon="11.2409938"><ele>663.0</ele><time>2026-04-12T08:15:13.785Z</time></trkpt><trkpt lat="45.7111113" lon="11.2408626"><ele>663.5</ele><time>2026-04-12T08:15:14.785Z</time></trkpt><trkpt lat="45.7110397" lon="11.2407076"><ele>664.0</ele><time>2026-04-12T08:15:15.785Z</time></trkpt><trkpt lat="45.7109417" lon="11.2405586"><ele>664.0</ele><time>2026-04-12T08:15:16.784Z</time></trkpt><trkpt lat="45.71085" lon="11.2404425"><ele>664.0</ele><time>2026-04-12T08:15:17.785Z</time></trkpt><trkpt lat="45.7107685" lon="11.2403563"><ele>664.0</ele><time>2026-04-12T08:15:18.784Z</time></trkpt><trkpt lat="45.7106939" lon="11.2402752"><ele>664.0</ele><time>2026-04-12T08:15:19.784Z</time></trkpt><trkpt lat="45.7106358" lon="11.2401924"><ele>664.0</ele><time>2026-04-12T08:15:20.785Z</time></trkpt><trkpt lat="45.7105877" lon="11.2400766"><ele>664.0</ele><time>2026-04-12T08:15:21.784Z</time></trkpt><trkpt lat="45.7105622" lon="11.2399608"><ele>664.0</ele><time>2026-04-12T08:15:22.785Z</time></trkpt><trkpt lat="45.7105575" lon="11.2398505"><ele>664.0</ele><time>2026-04-12T08:15:23.785Z</time></trkpt><trkpt lat="45.710574" lon="11.2397422"><ele>664.0</ele><time>2026-04-12T08:15:24.784Z</time></trkpt><trkpt lat="45.7106095" lon="11.2396192"><ele>664.0</ele><time>2026-04-12T08:15:25.785Z</time></trkpt><trkpt lat="45.7106558" lon="11.2394895"><ele>664.0</ele><time>2026-04-12T08:15:26.785Z</time></trkpt><trkpt lat="45.7107107" lon="11.239352"><ele>662.1666666666667</ele><time>2026-04-12T08:15:27.785Z</time></trkpt><trkpt lat="45.7107673" lon="11.2392171"><ele>660.3333333333334</ele><time>2026-04-12T08:15:28.785Z</time></trkpt><trkpt lat="45.7108155" lon="11.2390931"><ele>658.5</ele><time>2026-04-12T08:15:29.784Z</time></trkpt><trkpt lat="45.7108586" lon="11.2389828"><ele>656.6666666666666</ele><time>2026-04-12T08:15:30.785Z</time></trkpt><trkpt lat="45.7109069" lon="11.2388972"><ele>654.8333333333333</ele><time>2026-04-12T08:15:31.785Z</time></trkpt><trkpt lat="45.7109661" lon="11.2388357"><ele>653.0</ele><time>2026-04-12T08:15:32.784Z</time></trkpt><trkpt lat="45.7110384" lon="11.2387835"><ele>647.8</ele><time>2026-04-12T08:15:33.784Z</time></trkpt><trkpt lat="45.7111202" lon="11.2387354"><ele>642.5999999999999</ele><time>2026-04-12T08:15:34.784Z</time></trkpt><trkpt lat="45.7112135" lon="11.2386971"><ele>637.4000000000001</ele><time>2026-04-12T08:15:35.784Z</time></trkpt><trkpt lat="45.711307" lon="11.2386714"><ele>632.2</ele><time>2026-04-12T08:15:36.785Z</time></trkpt><trkpt lat="45.7114003" lon="11.2386576"><ele>627.0</ele><time>2026-04-12T08:15:37.784Z</time></trkpt><trkpt lat="45.7114928" lon="11.2386585"><ele>627.0</ele><time>2026-04-12T08:15:38.785Z</time></trkpt><trkpt lat="45.7115824" lon="11.2386735"><ele>627.0</ele><time>2026-04-12T08:15:39.784Z</time></trkpt><trkpt lat="45.7116663" lon="11.2387046"><ele>627.0</ele><time>2026-04-12T08:15:40.785Z</time></trkpt><trkpt lat="45.7117484" lon="11.2387546"><ele>627.0</ele><time>2026-04-12T08:15:41.784Z</time></trkpt><trkpt lat="45.7118248" lon="11.2388274"><ele>627.0</ele><time>2026-04-12T08:15:42.784Z</time></trkpt><trkpt lat="45.7118896" lon="11.238902"><ele>627.0</ele><time>2026-04-12T08:15:43.785Z</time></trkpt><trkpt lat="45.7119537" lon="11.2389955"><ele>631.6666666666666</ele><time>2026-04-12T08:15:44.784Z</time></trkpt><trkpt lat="45.7120163" lon="11.2390921"><ele>636.3333333333334</ele><time>2026-04-12T08:15:45.784Z</time></trkpt><trkpt lat="45.7120765" lon="11.2391672"><ele>641.0</ele><time>2026-04-12T08:15:46.784Z</time></trkpt><trkpt lat="45.7121288" lon="11.239226"><ele>645.6666666666667</ele><time>2026-04-12T08:15:47.785Z</time></trkpt><trkpt lat="45.7122141" lon="11.2392834"><ele>650.3333333333334</ele><time>2026-04-12T08:15:49.785Z</time></trkpt><trkpt lat="45.7122638" lon="11.2392244"><ele>655.0</ele><time>2026-04-12T08:15:51.785Z</time></trkpt><trkpt lat="45.7123635" lon="11.2391074"><ele>655.0</ele><time>2026-04-12T08:15:53.785Z</time></trkpt><trkpt lat="45.7124237" lon="11.239025"><ele>655.0</ele><time>2026-04-12T08:15:54.784Z</time></trkpt><trkpt lat="45.7124753" lon="11.2389385"><ele>655.0</ele><time>2026-04-12T08:15:55.785Z</time></trkpt><trkpt lat="45.7125083" lon="11.2388347"><ele>655.0</ele><time>2026-04-12T08:15:56.785Z</time></trkpt><trkpt lat="45.7125433" lon="11.2387475"><ele>655.0</ele><time>2026-04-12T08:15:57.785Z</time></trkpt><trkpt lat="45.7125867" lon="11.2386816"><ele>655.0</ele><time>2026-04-12T08:15:58.785Z</time></trkpt><trkpt lat="45.7126938" lon="11.2386431"><ele>650.3333333333334</ele><time>2026-04-12T08:16:00.784Z</time></trkpt><trkpt lat="45.7127562" lon="11.2386561"><ele>645.6666666666667</ele><time>2026-04-12T08:16:01.785Z</time></trkpt><trkpt lat="45.7128185" lon="11.2386759"><ele>641.0</ele><time>2026-04-12T08:16:02.785Z</time></trkpt><trkpt lat="45.712882" lon="11.2387043"><ele>636.3333333333334</ele><time>2026-04-12T08:16:03.785Z</time></trkpt><trkpt lat="45.712958" lon="11.2387373"><ele>631.6666666666666</ele><time>2026-04-12T08:16:04.785Z</time></trkpt><trkpt lat="45.713045" lon="11.2387963"><ele>627.0</ele><time>2026-04-12T08:16:05.784Z</time></trkpt><trkpt lat="45.7131206" lon="11.238846"><ele>627.0</ele><time>2026-04-12T08:16:06.784Z</time></trkpt><trkpt lat="45.7131891" lon="11.2388777"><ele>627.0</ele><time>2026-04-12T08:16:07.785Z</time></trkpt><trkpt lat="45.7133102" lon="11.2388108"><ele>627.0</ele><time>2026-04-12T08:16:09.784Z</time></trkpt><trkpt lat="45.7133805" lon="11.2387567"><ele>627.0</ele><time>2026-04-12T08:16:10.784Z</time></trkpt><trkpt lat="45.7134369" lon="11.2386881"><ele>627.0</ele><time>2026-04-12T08:16:11.785Z</time></trkpt><trkpt lat="45.7134952" lon="11.2386142"><ele>627.0</ele><time>2026-04-12T08:16:12.785Z</time></trkpt><trkpt lat="45.7135428" lon="11.2385338"><ele>627.0</ele><time>2026-04-12T08:16:13.784Z</time></trkpt><trkpt lat="45.7135692" lon="11.2384427"><ele>627.0</ele><time>2026-04-12T08:16:14.785Z</time></trkpt><trkpt lat="45.7135893" lon="11.2383393"><ele>627.0</ele><time>2026-04-12T08:16:15.784Z</time></trkpt><trkpt lat="45.7136039" lon="11.2382218"><ele>627.0</ele><time>2026-04-12T08:16:16.785Z</time></trkpt><trkpt lat="45.7136159" lon="11.2381101"><ele>627.0</ele><time>2026-04-12T08:16:17.785Z</time></trkpt><trkpt lat="45.7136117" lon="11.238003"><ele>627.0</ele><time>2026-04-12T08:16:18.784Z</time></trkpt><trkpt lat="45.713614" lon="11.2378995"><ele>626.3333333333334</ele><time>2026-04-12T08:16:19.784Z</time></trkpt><trkpt lat="45.7136287" lon="11.2377944"><ele>625.6666666666666</ele><time>2026-04-12T08:16:20.784Z</time></trkpt><trkpt lat="45.713652" lon="11.2376958"><ele>625.0</ele><time>2026-04-12T08:16:21.785Z</time></trkpt><trkpt lat="45.7136774" lon="11.2375982"><ele>624.3333333333333</ele><time>2026-04-12T08:16:22.785Z</time></trkpt><trkpt lat="45.713705" lon="11.2375059"><ele>623.6666666666666</ele><time>2026-04-12T08:16:23.784Z</time></trkpt><trkpt lat="45.7137296" lon="11.2374174"><ele>623.0</ele><time>2026-04-12T08:16:24.784Z</time></trkpt><trkpt lat="45.713776" lon="11.2372613"><ele>623.0</ele><time>2026-04-12T08:16:26.785Z</time></trkpt><trkpt lat="45.7138401" lon="11.2371133"><ele>623.0</ele><time>2026-04-12T08:16:28.785Z</time></trkpt><trkpt lat="45.71389" lon="11.2370314"><ele>623.0</ele><time>2026-04-12T08:16:29.784Z</time></trkpt><trkpt lat="45.713951" lon="11.2369379"><ele>623.0</ele><time>2026-04-12T08:16:30.785Z</time></trkpt><trkpt lat="45.7140016" lon="11.2368305"><ele>623.0</ele><time>2026-04-12T08:16:31.785Z</time></trkpt><trkpt lat="45.7140462" lon="11.2367173"><ele>623.0</ele><time>2026-04-12T08:16:32.784Z</time></trkpt><trkpt lat="45.714078" lon="11.2365867"><ele>623.0</ele><time>2026-04-12T08:16:33.785Z</time></trkpt><trkpt lat="45.7141119" lon="11.2364751"><ele>623.0</ele><time>2026-04-12T08:16:34.785Z</time></trkpt><trkpt lat="45.7141538" lon="11.2363746"><ele>623.0</ele><time>2026-04-12T08:16:35.785Z</time></trkpt><trkpt lat="45.7141996" lon="11.2362849"><ele>623.0</ele><time>2026-04-12T08:16:36.785Z</time></trkpt><trkpt lat="45.7142485" lon="11.2362159"><ele>623.0</ele><time>2026-04-12T08:16:37.784Z</time></trkpt><trkpt lat="45.7143036" lon="11.2361604"><ele>623.5</ele><time>2026-04-12T08:16:38.785Z</time></trkpt><trkpt lat="45.7143679" lon="11.2361023"><ele>624.0</ele><time>2026-04-12T08:16:39.784Z</time></trkpt><trkpt lat="45.7144411" lon="11.2360485"><ele>624.5</ele><time>2026-04-12T08:16:40.784Z</time></trkpt><trkpt lat="45.7145187" lon="11.2359959"><ele>625.0</ele><time>2026-04-12T08:16:41.785Z</time></trkpt><trkpt lat="45.714606" lon="11.2359757"><ele>625.5</ele><time>2026-04-12T08:16:42.785Z</time></trkpt><trkpt lat="45.7146894" lon="11.2359665"><ele>626.0</ele><time>2026-04-12T08:16:43.784Z</time></trkpt><trkpt lat="45.7147607" lon="11.2359495"><ele>626.0</ele><time>2026-04-12T08:16:44.785Z</time></trkpt><trkpt lat="45.7148206" lon="11.2359135"><ele>626.0</ele><time>2026-04-12T08:16:45.784Z</time></trkpt><trkpt lat="45.7149012" lon="11.2357912"><ele>626.0</ele><time>2026-04-12T08:16:47.785Z</time></trkpt><trkpt lat="45.714945" lon="11.2356614"><ele>626.0</ele><time>2026-04-12T08:16:49.784Z</time></trkpt><trkpt lat="45.7148197" lon="11.2355049"><ele>626.0</ele><time>2026-04-12T08:16:51.785Z</time></trkpt><trkpt lat="45.714719" lon="11.2354251"><ele>626.0</ele><time>2026-04-12T08:16:52.785Z</time></trkpt><trkpt lat="45.7146133" lon="11.2353456"><ele>626.0</ele><time>2026-04-12T08:16:53.784Z</time></trkpt><trkpt lat="45.7145295" lon="11.2352733"><ele>626.0</ele><time>2026-04-12T08:16:54.784Z</time></trkpt><trkpt lat="45.7144541" lon="11.2352214"><ele>626.0</ele><time>2026-04-12T08:16:55.785Z</time></trkpt><trkpt lat="45.7143854" lon="11.2351791"><ele>626.0</ele><time>2026-04-12T08:16:56.785Z</time></trkpt><trkpt lat="45.7143074" lon="11.2351617"><ele>626.0</ele><time>2026-04-12T08:16:57.784Z</time></trkpt><trkpt lat="45.7142252" lon="11.2351302"><ele>626.0</ele><time>2026-04-12T08:16:58.784Z</time></trkpt><trkpt lat="45.7141343" lon="11.2350938"><ele>626.0</ele><time>2026-04-12T08:16:59.785Z</time></trkpt><trkpt lat="45.7140479" lon="11.235061"><ele>626.0</ele><time>2026-04-12T08:17:00.784Z</time></trkpt><trkpt lat="45.7139611" lon="11.2350262"><ele>626.0</ele><time>2026-04-12T08:17:01.785Z</time></trkpt><trkpt lat="45.7138824" lon="11.2349854"><ele>626.0</ele><time>2026-04-12T08:17:02.785Z</time></trkpt><trkpt lat="45.7138234" lon="11.2349259"><ele>627.6</ele><time>2026-04-12T08:17:03.785Z</time></trkpt><trkpt lat="45.7137893" lon="11.2347854"><ele>629.2</ele><time>2026-04-12T08:17:05.785Z</time></trkpt><trkpt lat="45.7138004" lon="11.2346876"><ele>630.8</ele><time>2026-04-12T08:17:06.785Z</time></trkpt><trkpt lat="45.7138174" lon="11.234568"><ele>632.4</ele><time>2026-04-12T08:17:07.785Z</time></trkpt><trkpt lat="45.7138466" lon="11.2344325"><ele>634.0</ele><time>2026-04-12T08:17:08.785Z</time></trkpt><trkpt lat="45.713887" lon="11.2342872"><ele>634.0</ele><time>2026-04-12T08:17:09.785Z</time></trkpt><trkpt lat="45.7139318" lon="11.2341461"><ele>634.0</ele><time>2026-04-12T08:17:10.785Z</time></trkpt><trkpt lat="45.7139633" lon="11.2340089"><ele>634.0</ele><time>2026-04-12T08:17:11.784Z</time></trkpt><trkpt lat="45.7139863" lon="11.2338739"><ele>634.0</ele><time>2026-04-12T08:17:12.784Z</time></trkpt><trkpt lat="45.7139999" lon="11.2337452"><ele>634.0</ele><time>2026-04-12T08:17:13.784Z</time></trkpt><trkpt lat="45.7140075" lon="11.2336285"><ele>635.8</ele><time>2026-04-12T08:17:14.784Z</time></trkpt><trkpt lat="45.714002" lon="11.2335189"><ele>637.5999999999999</ele><time>2026-04-12T08:17:15.784Z</time></trkpt><trkpt lat="45.7139882" lon="11.23342"><ele>639.4</ele><time>2026-04-12T08:17:16.784Z</time></trkpt><trkpt lat="45.713933" lon="11.2332854"><ele>641.1999999999999</ele><time>2026-04-12T08:17:18.784Z</time></trkpt><trkpt lat="45.713799" lon="11.2332957"><ele>643.0</ele><time>2026-04-12T08:17:20.785Z</time></trkpt><trkpt lat="45.7136921" lon="11.2333527"><ele>642.75</ele><time>2026-04-12T08:17:21.785Z</time></trkpt><trkpt lat="45.7135672" lon="11.233417"><ele>642.5</ele><time>2026-04-12T08:17:22.785Z</time></trkpt><trkpt lat="45.713448" lon="11.2335049"><ele>642.25</ele><time>2026-04-12T08:17:23.784Z</time></trkpt><trkpt lat="45.7133541" lon="11.233585"><ele>642.0</ele><time>2026-04-12T08:17:24.785Z</time></trkpt><trkpt lat="45.7132654" lon="11.2337115"><ele>642.0</ele><time>2026-04-12T08:17:25.785Z</time></trkpt><trkpt lat="45.7131721" lon="11.2338657"><ele>642.0</ele><time>2026-04-12T08:17:26.785Z</time></trkpt><trkpt lat="45.7130793" lon="11.2339981"><ele>642.0</ele><time>2026-04-12T08:17:27.785Z</time></trkpt><trkpt lat="45.7129849" lon="11.2341179"><ele>642.0</ele><time>2026-04-12T08:17:28.784Z</time></trkpt><trkpt lat="45.7129194" lon="11.2342051"><ele>638.6666666666666</ele><time>2026-04-12T08:17:29.785Z</time></trkpt><trkpt lat="45.7128556" lon="11.2342514"><ele>635.3333333333334</ele><time>2026-04-12T08:17:30.784Z</time></trkpt><trkpt lat="45.7127733" lon="11.2342585"><ele>632.0</ele><time>2026-04-12T08:17:32.784Z</time></trkpt><trkpt lat="45.7127163" lon="11.2342053"><ele>628.6666666666667</ele><time>2026-04-12T08:17:34.785Z</time></trkpt><trkpt lat="45.7126945" lon="11.23409"><ele>625.3333333333334</ele><time>2026-04-12T08:17:36.785Z</time></trkpt><trkpt lat="45.7127086" lon="11.2339081"><ele>622.0</ele><time>2026-04-12T08:17:38.785Z</time></trkpt><trkpt lat="45.7127172" lon="11.2337998"><ele>622.0</ele><time>2026-04-12T08:17:39.784Z</time></trkpt><trkpt lat="45.7127126" lon="11.2336933"><ele>622.0</ele><time>2026-04-12T08:17:40.785Z</time></trkpt><trkpt lat="45.7127075" lon="11.233596"><ele>622.0</ele><time>2026-04-12T08:17:41.784Z</time></trkpt><trkpt lat="45.7127013" lon="11.2335013"><ele>622.0</ele><time>2026-04-12T08:17:42.784Z</time></trkpt><trkpt lat="45.712683" lon="11.2334032"><ele>622.0</ele><time>2026-04-12T08:17:43.784Z</time></trkpt><trkpt lat="45.7126631" lon="11.2332918"><ele>622.0</ele><time>2026-04-12T08:17:44.784Z</time></trkpt><trkpt lat="45.7126542" lon="11.2331738"><ele>622.0</ele><time>2026-04-12T08:17:45.785Z</time></trkpt><trkpt lat="45.7126526" lon="11.2330413"><ele>625.0</ele><time>2026-04-12T08:17:46.784Z</time></trkpt><trkpt lat="45.7126507" lon="11.2328977"><ele>628.0</ele><time>2026-04-12T08:17:47.785Z</time></trkpt><trkpt lat="45.7126457" lon="11.2327517"><ele>631.0</ele><time>2026-04-12T08:17:48.785Z</time></trkpt><trkpt lat="45.7126446" lon="11.2325897"><ele>634.0</ele><time>2026-04-12T08:17:49.784Z</time></trkpt><trkpt lat="45.7126405" lon="11.2324342"><ele>637.0</ele><time>2026-04-12T08:17:50.784Z</time></trkpt><trkpt lat="45.7126323" lon="11.2322875"><ele>640.5</ele><time>2026-04-12T08:17:51.785Z</time></trkpt><trkpt lat="45.7126293" lon="11.232156"><ele>644.0</ele><time>2026-04-12T08:17:52.785Z</time></trkpt><trkpt lat="45.7126214" lon="11.2320278"><ele>647.5</ele><time>2026-04-12T08:17:53.784Z</time></trkpt><trkpt lat="45.7126154" lon="11.2319052"><ele>651.0</ele><time>2026-04-12T08:17:54.785Z</time></trkpt><trkpt lat="45.7126012" lon="11.2318003"><ele>654.5</ele><time>2026-04-12T08:17:55.784Z</time></trkpt><trkpt lat="45.7125761" lon="11.2317168"><ele>658.0</ele><time>2026-04-12T08:17:56.785Z</time></trkpt><trkpt lat="45.7125114" lon="11.2315932"><ele>658.0</ele><time>2026-04-12T08:17:58.784Z</time></trkpt><trkpt lat="45.7124097" lon="11.2316874"><ele>658.0</ele><time>2026-04-12T08:18:00.785Z</time></trkpt><trkpt lat="45.7123593" lon="11.2317686"><ele>658.0</ele><time>2026-04-12T08:18:01.785Z</time></trkpt><trkpt lat="45.7123031" lon="11.2318651"><ele>658.0</ele><time>2026-04-12T08:18:02.785Z</time></trkpt><trkpt lat="45.7122458" lon="11.2319518"><ele>658.0</ele><time>2026-04-12T08:18:03.785Z</time></trkpt><trkpt lat="45.7121768" lon="11.2320448"><ele>658.0</ele><time>2026-04-12T08:18:04.784Z</time></trkpt><trkpt lat="45.7121024" lon="11.2321323"><ele>658.0</ele><time>2026-04-12T08:18:05.784Z</time></trkpt><trkpt lat="45.712025" lon="11.2322252"><ele>658.0</ele><time>2026-04-12T08:18:06.785Z</time></trkpt><trkpt lat="45.711951" lon="11.2323428"><ele>658.0</ele><time>2026-04-12T08:18:07.785Z</time></trkpt><trkpt lat="45.7118869" lon="11.2324453"><ele>658.0</ele><time>2026-04-12T08:18:08.785Z</time></trkpt><trkpt lat="45.7118296" lon="11.2325269"><ele>653.6666666666667</ele><time>2026-04-12T08:18:09.785Z</time></trkpt><trkpt lat="45.7117585" lon="11.2325612"><ele>649.3333333333334</ele><time>2026-04-12T08:18:10.785Z</time></trkpt><trkpt lat="45.711678" lon="11.2325645"><ele>645.0</ele><time>2026-04-12T08:18:11.785Z</time></trkpt><trkpt lat="45.7116033" lon="11.2325329"><ele>640.6666666666666</ele><time>2026-04-12T08:18:12.785Z</time></trkpt><trkpt lat="45.7115268" lon="11.2324729"><ele>636.3333333333333</ele><time>2026-04-12T08:18:13.785Z</time></trkpt><trkpt lat="45.7114578" lon="11.2324446"><ele>632.0</ele><time>2026-04-12T08:18:14.784Z</time></trkpt><trkpt lat="45.7113939" lon="11.232418"><ele>632.0</ele><time>2026-04-12T08:18:15.785Z</time></trkpt><trkpt lat="45.7113199" lon="11.2324035"><ele>632.0</ele><time>2026-04-12T08:18:16.785Z</time></trkpt><trkpt lat="45.7112433" lon="11.2323758"><ele>632.0</ele><time>2026-04-12T08:18:17.785Z</time></trkpt><trkpt lat="45.7111709" lon="11.2323452"><ele>632.0</ele><time>2026-04-12T08:18:18.784Z</time></trkpt><trkpt lat="45.7110946" lon="11.2323124"><ele>632.0</ele><time>2026-04-12T08:18:19.785Z</time></trkpt><trkpt lat="45.7110116" lon="11.2322615"><ele>632.0</ele><time>2026-04-12T08:18:20.785Z</time></trkpt><trkpt lat="45.710927" lon="11.2322303"><ele>632.6</ele><time>2026-04-12T08:18:21.784Z</time></trkpt><trkpt lat="45.7108437" lon="11.2322073"><ele>633.2</ele><time>2026-04-12T08:18:22.784Z</time></trkpt><trkpt lat="45.7107586" lon="11.2322164"><ele>633.8</ele><time>2026-04-12T08:18:23.784Z</time></trkpt><trkpt lat="45.7106739" lon="11.2322522"><ele>634.4</ele><time>2026-04-12T08:18:24.785Z</time></trkpt><trkpt lat="45.7105906" lon="11.2323236"><ele>635.0</ele><time>2026-04-12T08:18:25.784Z</time></trkpt><trkpt lat="45.7105042" lon="11.232414"><ele>635.0</ele><time>2026-04-12T08:18:26.784Z</time></trkpt><trkpt lat="45.710416" lon="11.2324923"><ele>635.0</ele><time>2026-04-12T08:18:27.785Z</time></trkpt><trkpt lat="45.7103281" lon="11.2325505"><ele>635.0</ele><time>2026-04-12T08:18:28.784Z</time></trkpt><trkpt lat="45.7102502" lon="11.2325827"><ele>635.0</ele><time>2026-04-12T08:18:29.784Z</time></trkpt><trkpt lat="45.710177" lon="11.2325896"><ele>635.0</ele><time>2026-04-12T08:18:30.784Z</time></trkpt><trkpt lat="45.710113" lon="11.2325677"><ele>635.0</ele><time>2026-04-12T08:18:31.784Z</time></trkpt><trkpt lat="45.710091" lon="11.2323947"><ele>634.0</ele><time>2026-04-12T08:18:33.785Z</time></trkpt><trkpt lat="45.7101057" lon="11.2322583"><ele>633.0</ele><time>2026-04-12T08:18:34.785Z</time></trkpt><trkpt lat="45.7101358" lon="11.2321135"><ele>632.0</ele><time>2026-04-12T08:18:35.785Z</time></trkpt><trkpt lat="45.7101695" lon="11.2319626"><ele>631.0</ele><time>2026-04-12T08:18:36.784Z</time></trkpt><trkpt lat="45.7102054" lon="11.2318238"><ele>630.0</ele><time>2026-04-12T08:18:37.784Z</time></trkpt><trkpt lat="45.7102306" lon="11.2317122"><ele>627.1666666666666</ele><time>2026-04-12T08:18:38.784Z</time></trkpt><trkpt lat="45.7102499" lon="11.2315967"><ele>624.3333333333334</ele><time>2026-04-12T08:18:39.784Z</time></trkpt><trkpt lat="45.7102563" lon="11.2314966"><ele>621.5</ele><time>2026-04-12T08:18:40.785Z</time></trkpt><trkpt lat="45.7102708" lon="11.2313544"><ele>618.6666666666667</ele><time>2026-04-12T08:18:42.785Z</time></trkpt><trkpt lat="45.7102574" lon="11.2312661"><ele>615.8333333333334</ele><time>2026-04-12T08:18:45.784Z</time></trkpt><trkpt lat="45.7102055" lon="11.2312003"><ele>613.0</ele><time>2026-04-12T08:18:48.785Z</time></trkpt><trkpt lat="45.7101458" lon="11.2311431"><ele>613.0</ele><time>2026-04-12T08:18:51.785Z</time></trkpt><trkpt lat="45.7101674" lon="11.2310269"><ele>613.0</ele><time>2026-04-12T08:18:56.785Z</time></trkpt><trkpt lat="45.710218" lon="11.23097"><ele>613.0</ele><time>2026-04-12T08:18:58.785Z</time></trkpt><trkpt lat="45.7102635" lon="11.2308883"><ele>613.0</ele><time>2026-04-12T08:19:00.785Z</time></trkpt><trkpt lat="45.7103099" lon="11.2308166"><ele>613.0</ele><time>2026-04-12T08:19:02.785Z</time></trkpt><trkpt lat="45.7103701" lon="11.2307671"><ele>613.0</ele><time>2026-04-12T08:19:04.784Z</time></trkpt><trkpt lat="45.7104047" lon="11.2306408"><ele>620.4</ele><time>2026-04-12T08:19:07.785Z</time></trkpt><trkpt lat="45.7104276" lon="11.230526"><ele>627.8</ele><time>2026-04-12T08:19:09.784Z</time></trkpt><trkpt lat="45.7104877" lon="11.230403"><ele>635.2</ele><time>2026-04-12T08:19:11.785Z</time></trkpt><trkpt lat="45.710555" lon="11.2302992"><ele>642.6</ele><time>2026-04-12T08:19:13.785Z</time></trkpt><trkpt lat="45.7105885" lon="11.2301897"><ele>650.0</ele><time>2026-04-12T08:19:15.785Z</time></trkpt><trkpt lat="45.7106028" lon="11.2300569"><ele>650.0</ele><time>2026-04-12T08:19:17.785Z</time></trkpt><trkpt lat="45.7106071" lon="11.2299296"><ele>650.0</ele><time>2026-04-12T08:19:19.784Z</time></trkpt><trkpt lat="45.7105999" lon="11.2298243"><ele>650.0</ele><time>2026-04-12T08:19:21.784Z</time></trkpt><trkpt lat="45.7105817" lon="11.2297145"><ele>650.0</ele><time>2026-04-12T08:19:23.785Z</time></trkpt><trkpt lat="45.7105639" lon="11.2296047"><ele>650.0</ele><time>2026-04-12T08:19:26.784Z</time></trkpt><trkpt lat="45.7105261" lon="11.2294782"><ele>650.0</ele><time>2026-04-12T08:19:29.784Z</time></trkpt><trkpt lat="45.7104608" lon="11.2293967"><ele>651.1666666666666</ele><time>2026-04-12T08:19:31.784Z</time></trkpt><trkpt lat="45.7103829" lon="11.2293315"><ele>652.3333333333333</ele><time>2026-04-12T08:19:33.783Z</time></trkpt><trkpt lat="45.7102944" lon="11.2293061"><ele>653.5</ele><time>2026-04-12T08:19:35.783Z</time></trkpt><trkpt lat="45.7102158" lon="11.2292401"><ele>654.6666666666666</ele><time>2026-04-12T08:19:38.783Z</time></trkpt><trkpt lat="45.7101692" lon="11.229162"><ele>655.8333333333334</ele><time>2026-04-12T08:19:40.784Z</time></trkpt><trkpt lat="45.7101303" lon="11.2290393"><ele>657.0</ele><time>2026-04-12T08:19:42.784Z</time></trkpt><trkpt lat="45.710093" lon="11.2289089"><ele>654.0</ele><time>2026-04-12T08:19:44.783Z</time></trkpt><trkpt lat="45.7100412" lon="11.2288114"><ele>651.0</ele><time>2026-04-12T08:19:46.784Z</time></trkpt><trkpt lat="45.7099727" lon="11.2287406"><ele>648.0</ele><time>2026-04-12T08:19:48.784Z</time></trkpt><trkpt lat="45.7098834" lon="11.2286847"><ele>645.0</ele><time>2026-04-12T08:19:50.784Z</time></trkpt><trkpt lat="45.7097765" lon="11.2286548"><ele>642.0</ele><time>2026-04-12T08:19:52.783Z</time></trkpt><trkpt lat="45.7097125" lon="11.2286455"><ele>639.0</ele><time>2026-04-12T08:19:53.784Z</time></trkpt><trkpt lat="45.7096472" lon="11.228634"><ele>639.0</ele><time>2026-04-12T08:19:54.784Z</time></trkpt><trkpt lat="45.7095826" lon="11.228612"><ele>639.0</ele><time>2026-04-12T08:19:55.784Z</time></trkpt><trkpt lat="45.7095219" lon="11.2285828"><ele>639.0</ele><time>2026-04-12T08:19:56.784Z</time></trkpt><trkpt lat="45.7094672" lon="11.2285337"><ele>639.0</ele><time>2026-04-12T08:19:57.784Z</time></trkpt><trkpt lat="45.7094114" lon="11.2284917"><ele>639.0</ele><time>2026-04-12T08:19:58.784Z</time></trkpt><trkpt lat="45.7092961" lon="11.2284568"><ele>639.0</ele><time>2026-04-12T08:20:00.783Z</time></trkpt><trkpt lat="45.7091705" lon="11.2284964"><ele>634.0</ele><time>2026-04-12T08:20:02.783Z</time></trkpt><trkpt lat="45.7091077" lon="11.2285203"><ele>629.0</ele><time>2026-04-12T08:20:03.784Z</time></trkpt><trkpt lat="45.709041" lon="11.2285301"><ele>624.0</ele><time>2026-04-12T08:20:04.783Z</time></trkpt><trkpt lat="45.7089216" lon="11.2285265"><ele>619.0</ele><time>2026-04-12T08:20:06.784Z</time></trkpt><trkpt lat="45.7088305" lon="11.2284931"><ele>614.0</ele><time>2026-04-12T08:20:08.784Z</time></trkpt><trkpt lat="45.7088528" lon="11.2284004"><ele>609.0</ele><time>2026-04-12T08:20:14.783Z</time></trkpt><trkpt lat="45.7089245" lon="11.228398"><ele>609.0</ele><time>2026-04-12T08:20:16.784Z</time></trkpt><trkpt lat="45.7090448" lon="11.2283671"><ele>609.0</ele><time>2026-04-12T08:20:18.784Z</time></trkpt><trkpt lat="45.709113" lon="11.2283381"><ele>609.0</ele><time>2026-04-12T08:20:19.784Z</time></trkpt><trkpt lat="45.7091856" lon="11.2283022"><ele>609.0</ele><time>2026-04-12T08:20:20.783Z</time></trkpt><trkpt lat="45.7092581" lon="11.2282705"><ele>609.0</ele><time>2026-04-12T08:20:21.784Z</time></trkpt><trkpt lat="45.7093178" lon="11.2282289"><ele>609.0</ele><time>2026-04-12T08:20:22.784Z</time></trkpt><trkpt lat="45.7093887" lon="11.2281309"><ele>614.3333333333334</ele><time>2026-04-12T08:20:24.784Z</time></trkpt><trkpt lat="45.7094568" lon="11.2280127"><ele>619.6666666666666</ele><time>2026-04-12T08:20:26.783Z</time></trkpt><trkpt lat="45.7095079" lon="11.2279434"><ele>625.0</ele><time>2026-04-12T08:20:27.784Z</time></trkpt><trkpt lat="45.7095696" lon="11.2278634"><ele>630.3333333333333</ele><time>2026-04-12T08:20:28.784Z</time></trkpt><trkpt lat="45.7096218" lon="11.2277817"><ele>635.6666666666666</ele><time>2026-04-12T08:20:29.783Z</time></trkpt><trkpt lat="45.70967" lon="11.2277134"><ele>641.0</ele><time>2026-04-12T08:20:30.784Z</time></trkpt><trkpt lat="45.7097224" lon="11.2276225"><ele>641.0</ele><time>2026-04-12T08:20:32.784Z</time></trkpt><trkpt lat="45.7097412" lon="11.2275199"><ele>641.0</ele><time>2026-04-12T08:20:43.784Z</time></trkpt><trkpt lat="45.7097993" lon="11.2274264"><ele>641.0</ele><time>2026-04-12T08:20:45.783Z</time></trkpt><trkpt lat="45.7098686" lon="11.2273027"><ele>641.0</ele><time>2026-04-12T08:20:47.783Z</time></trkpt><trkpt lat="45.7099452" lon="11.2271914"><ele>641.0</ele><time>2026-04-12T08:20:49.783Z</time></trkpt><trkpt lat="45.7100053" lon="11.2271146"><ele>641.0</ele><time>2026-04-12T08:20:51.783Z</time></trkpt><trkpt lat="45.7100814" lon="11.2270637"><ele>641.0</ele><time>2026-04-12T08:20:53.784Z</time></trkpt><trkpt lat="45.7101608" lon="11.2270206"><ele>641.0</ele><time>2026-04-12T08:20:55.783Z</time></trkpt><trkpt lat="45.7102414" lon="11.2270155"><ele>641.0</ele><time>2026-04-12T08:20:57.783Z</time></trkpt><trkpt lat="45.7103297" lon="11.2270276"><ele>641.0</ele><time>2026-04-12T08:20:59.784Z</time></trkpt><trkpt lat="45.7103912" lon="11.2270574"><ele>641.0</ele><time>2026-04-12T08:21:01.784Z</time></trkpt><trkpt lat="45.7103118" lon="11.2270339"><ele>641.0</ele><time>2026-04-12T08:21:18.783Z</time></trkpt><trkpt lat="45.7102183" lon="11.2270226"><ele>641.0</ele><time>2026-04-12T08:21:20.783Z</time></trkpt><trkpt lat="45.7101244" lon="11.2270381"><ele>641.0</ele><time>2026-04-12T08:21:22.784Z</time></trkpt><trkpt lat="45.7100414" lon="11.227064"><ele>641.0</ele><time>2026-04-12T08:21:24.783Z</time></trkpt><trkpt lat="45.7099764" lon="11.2271153"><ele>641.0</ele><time>2026-04-12T08:21:26.784Z</time></trkpt><trkpt lat="45.7099222" lon="11.227208"><ele>641.0</ele><time>2026-04-12T08:21:28.784Z</time></trkpt><trkpt lat="45.7098614" lon="11.2273192"><ele>641.0</ele><time>2026-04-12T08:21:30.784Z</time></trkpt><trkpt lat="45.7098093" lon="11.227421"><ele>641.0</ele><time>2026-04-12T08:21:32.784Z</time></trkpt><trkpt lat="45.7097506" lon="11.2275266"><ele>641.0</ele><time>2026-04-12T08:21:34.783Z</time></trkpt><trkpt lat="45.7096958" lon="11.2276312"><ele>641.0</ele><time>2026-04-12T08:21:36.784Z</time></trkpt><trkpt lat="45.7096535" lon="11.2277383"><ele>641.0</ele><time>2026-04-12T08:21:38.784Z</time></trkpt><trkpt lat="45.7095989" lon="11.2278346"><ele>641.0</ele><time>2026-04-12T08:21:40.784Z</time></trkpt><trkpt lat="45.7095219" lon="11.2279289"><ele>641.0</ele><time>2026-04-12T08:21:42.784Z</time></trkpt><trkpt lat="45.7094328" lon="11.2280423"><ele>641.0</ele><time>2026-04-12T08:21:44.784Z</time></trkpt><trkpt lat="45.7093666" lon="11.2281437"><ele>641.0</ele><time>2026-04-12T08:21:46.784Z</time></trkpt><trkpt lat="45.7093119" lon="11.2282253"><ele>641.0</ele><time>2026-04-12T08:21:48.783Z</time></trkpt><trkpt lat="45.7092475" lon="11.2282912"><ele>641.0</ele><time>2026-04-12T08:21:50.784Z</time></trkpt><trkpt lat="45.7091551" lon="11.2283256"><ele>635.6666666666666</ele><time>2026-04-12T08:21:52.783Z</time></trkpt><trkpt lat="45.7090522" lon="11.2283628"><ele>630.3333333333333</ele><time>2026-04-12T08:21:54.783Z</time></trkpt><trkpt lat="45.7089678" lon="11.2283879"><ele>625.0</ele><time>2026-04-12T08:21:56.784Z</time></trkpt><trkpt lat="45.7088983" lon="11.2284106"><ele>619.6666666666666</ele><time>2026-04-12T08:21:58.783Z</time></trkpt><trkpt lat="45.7088224" lon="11.2284284"><ele>614.3333333333334</ele><time>2026-04-12T08:25:26.783Z</time></trkpt><trkpt lat="45.7087397" lon="11.2284112"><ele>609.0</ele><time>2026-04-12T08:25:29.783Z</time></trkpt><trkpt lat="45.7087088" lon="11.2283301"><ele>609.0</ele><time>2026-04-12T08:25:33.782Z</time></trkpt><trkpt lat="45.7087681" lon="11.2282503"><ele>609.0</ele><time>2026-04-12T08:25:37.782Z</time></trkpt><trkpt lat="45.7088206" lon="11.2281671"><ele>609.0</ele><time>2026-04-12T08:25:39.783Z</time></trkpt><trkpt lat="45.7088515" lon="11.2280475"><ele>609.0</ele><time>2026-04-12T08:25:41.782Z</time></trkpt><trkpt lat="45.7088963" lon="11.2279374"><ele>609.0</ele><time>2026-04-12T08:25:43.783Z</time></trkpt><trkpt lat="45.7089517" lon="11.227826"><ele>609.0</ele><time>2026-04-12T08:25:45.782Z</time></trkpt><trkpt lat="45.7089937" lon="11.227705"><ele>608.8</ele><time>2026-04-12T08:25:47.783Z</time></trkpt><trkpt lat="45.709029" lon="11.2275583"><ele>608.5999999999999</ele><time>2026-04-12T08:25:49.782Z</time></trkpt><trkpt lat="45.7090234" lon="11.2273983"><ele>608.4</ele><time>2026-04-12T08:25:51.783Z</time></trkpt><trkpt lat="45.7089888" lon="11.2272508"><ele>608.1999999999999</ele><time>2026-04-12T08:25:53.782Z</time></trkpt><trkpt lat="45.7089396" lon="11.2271215"><ele>608.0</ele><time>2026-04-12T08:25:55.783Z</time></trkpt><trkpt lat="45.7088878" lon="11.2270063"><ele>608.0</ele><time>2026-04-12T08:25:57.783Z</time></trkpt><trkpt lat="45.7088647" lon="11.2268563"><ele>608.0</ele><time>2026-04-12T08:25:59.783Z</time></trkpt><trkpt lat="45.7088428" lon="11.2266972"><ele>608.0</ele><time>2026-04-12T08:26:01.782Z</time></trkpt><trkpt lat="45.7088043" lon="11.2265509"><ele>608.0</ele><time>2026-04-12T08:26:03.782Z</time></trkpt><trkpt lat="45.7087353" lon="11.2264169"><ele>608.0</ele><time>2026-04-12T08:26:05.783Z</time></trkpt><trkpt lat="45.7086867" lon="11.2263428"><ele>605.8333333333333</ele><time>2026-04-12T08:26:06.782Z</time></trkpt><trkpt lat="45.7086386" lon="11.2262763"><ele>603.6666666666666</ele><time>2026-04-12T08:26:07.782Z</time></trkpt><trkpt lat="45.7085617" lon="11.2261653"><ele>601.5</ele><time>2026-04-12T08:26:09.783Z</time></trkpt><trkpt lat="45.7085348" lon="11.226063"><ele>599.3333333333334</ele><time>2026-04-12T08:26:11.782Z</time></trkpt><trkpt lat="45.7085604" lon="11.2259429"><ele>597.1666666666667</ele><time>2026-04-12T08:26:13.782Z</time></trkpt><trkpt lat="45.7086373" lon="11.2258322"><ele>595.0</ele><time>2026-04-12T08:26:15.782Z</time></trkpt><trkpt lat="45.7087302" lon="11.2257461"><ele>592.0</ele><time>2026-04-12T08:26:17.783Z</time></trkpt><trkpt lat="45.7087794" lon="11.2255988"><ele>589.0</ele><time>2026-04-12T08:26:19.783Z</time></trkpt><trkpt lat="45.7088212" lon="11.2254345"><ele>586.0</ele><time>2026-04-12T08:26:21.782Z</time></trkpt><trkpt lat="45.7088406" lon="11.2253483"><ele>583.0</ele><time>2026-04-12T08:26:22.783Z</time></trkpt><trkpt lat="45.7088475" lon="11.2252565"><ele>580.0</ele><time>2026-04-12T08:26:23.783Z</time></trkpt><trkpt lat="45.7088428" lon="11.2251514"><ele>577.0</ele><time>2026-04-12T08:26:24.782Z</time></trkpt><trkpt lat="45.7088286" lon="11.2250433"><ele>577.0</ele><time>2026-04-12T08:26:25.783Z</time></trkpt><trkpt lat="45.708809" lon="11.2249466"><ele>577.0</ele><time>2026-04-12T08:26:26.783Z</time></trkpt><trkpt lat="45.7087659" lon="11.2247964"><ele>577.0</ele><time>2026-04-12T08:26:28.782Z</time></trkpt><trkpt lat="45.7087254" lon="11.2246862"><ele>577.0</ele><time>2026-04-12T08:26:30.783Z</time></trkpt><trkpt lat="45.7086685" lon="11.224554"><ele>577.0</ele><time>2026-04-12T08:26:32.783Z</time></trkpt><trkpt lat="45.7086242" lon="11.2244854"><ele>577.0</ele><time>2026-04-12T08:26:34.783Z</time></trkpt><trkpt lat="45.7086105" lon="11.2246308"><ele>577.0</ele><time>2026-04-12T08:26:38.783Z</time></trkpt><trkpt lat="45.7086171" lon="11.2247795"><ele>577.0</ele><time>2026-04-12T08:26:40.782Z</time></trkpt><trkpt lat="45.7085941" lon="11.2248677"><ele>577.0</ele><time>2026-04-12T08:26:43.783Z</time></trkpt><trkpt lat="45.7085275" lon="11.2247739"><ele>577.0</ele><time>2026-04-12T08:26:47.782Z</time></trkpt><trkpt lat="45.7084677" lon="11.224663"><ele>577.0</ele><time>2026-04-12T08:26:49.782Z</time></trkpt><trkpt lat="45.708412" lon="11.2245761"><ele>577.0</ele><time>2026-04-12T08:26:51.783Z</time></trkpt><trkpt lat="45.7083875" lon="11.2246967"><ele>569.4</ele><time>2026-04-12T08:26:58.782Z</time></trkpt><trkpt lat="45.7083623" lon="11.2248881"><ele>561.8000000000001</ele><time>2026-04-12T08:27:00.783Z</time></trkpt><trkpt lat="45.7083079" lon="11.2249881"><ele>554.2</ele><time>2026-04-12T08:27:01.782Z</time></trkpt><trkpt lat="45.7082406" lon="11.2250965"><ele>546.6</ele><time>2026-04-12T08:27:02.783Z</time></trkpt><trkpt lat="45.7081489" lon="11.2251901"><ele>539.0</ele><time>2026-04-12T08:27:03.783Z</time></trkpt><trkpt lat="45.7080404" lon="11.2252659"><ele>539.0</ele><time>2026-04-12T08:27:04.783Z</time></trkpt><trkpt lat="45.7079255" lon="11.2253365"><ele>539.0</ele><time>2026-04-12T08:27:05.783Z</time></trkpt><trkpt lat="45.7078248" lon="11.2254056"><ele>539.0</ele><time>2026-04-12T08:27:06.783Z</time></trkpt><trkpt lat="45.7077306" lon="11.2254611"><ele>539.0</ele><time>2026-04-12T08:27:07.782Z</time></trkpt><trkpt lat="45.7076492" lon="11.2255183"><ele>539.0</ele><time>2026-04-12T08:27:08.783Z</time></trkpt><trkpt lat="45.7075881" lon="11.2255937"><ele>536.5</ele><time>2026-04-12T08:27:09.782Z</time></trkpt><trkpt lat="45.7075529" lon="11.2256865"><ele>534.0</ele><time>2026-04-12T08:27:10.783Z</time></trkpt><trkpt lat="45.7075686" lon="11.2257911"><ele>531.5</ele><time>2026-04-12T08:27:11.783Z</time></trkpt><trkpt lat="45.7076047" lon="11.2259041"><ele>529.0</ele><time>2026-04-12T08:27:12.783Z</time></trkpt><trkpt lat="45.7076596" lon="11.2260207"><ele>526.5</ele><time>2026-04-12T08:27:13.782Z</time></trkpt><trkpt lat="45.7077264" lon="11.2261553"><ele>524.0</ele><time>2026-04-12T08:27:14.783Z</time></trkpt><trkpt lat="45.7078024" lon="11.2263028"><ele>532.75</ele><time>2026-04-12T08:27:15.782Z</time></trkpt><trkpt lat="45.7078789" lon="11.226445"><ele>541.5</ele><time>2026-04-12T08:27:16.783Z</time></trkpt><trkpt lat="45.7079369" lon="11.2265972"><ele>550.25</ele><time>2026-04-12T08:27:17.783Z</time></trkpt><trkpt lat="45.7079865" lon="11.2267452"><ele>559.0</ele><time>2026-04-12T08:27:18.783Z</time></trkpt><trkpt lat="45.7080224" lon="11.2268852"><ele>559.4</ele><time>2026-04-12T08:27:19.782Z</time></trkpt><trkpt lat="45.7080379" lon="11.2270104"><ele>559.8</ele><time>2026-04-12T08:27:20.782Z</time></trkpt><trkpt lat="45.7080379" lon="11.2271164"><ele>560.2</ele><time>2026-04-12T08:27:21.783Z</time></trkpt><trkpt lat="45.7079691" lon="11.2272458"><ele>560.6</ele><time>2026-04-12T08:27:23.783Z</time></trkpt><trkpt lat="45.7078866" lon="11.2272604"><ele>561.0</ele><time>2026-04-12T08:27:24.782Z</time></trkpt><trkpt lat="45.7077639" lon="11.2272532"><ele>553.6</ele><time>2026-04-12T08:27:25.783Z</time></trkpt><trkpt lat="45.7076361" lon="11.2272203"><ele>546.2</ele><time>2026-04-12T08:27:26.782Z</time></trkpt><trkpt lat="45.7075394" lon="11.2271494"><ele>538.8</ele><time>2026-04-12T08:27:27.782Z</time></trkpt><trkpt lat="45.7074491" lon="11.2271291"><ele>531.4</ele><time>2026-04-12T08:27:28.782Z</time></trkpt><trkpt lat="45.7073561" lon="11.2271296"><ele>524.0</ele><time>2026-04-12T08:27:29.783Z</time></trkpt><trkpt lat="45.7072699" lon="11.2271354"><ele>524.0</ele><time>2026-04-12T08:27:30.783Z</time></trkpt><trkpt lat="45.7071905" lon="11.227115"><ele>524.0</ele><time>2026-04-12T08:27:31.782Z</time></trkpt><trkpt lat="45.7071168" lon="11.2270878"><ele>524.0</ele><time>2026-04-12T08:27:32.783Z</time></trkpt><trkpt lat="45.7070328" lon="11.2270419"><ele>524.0</ele><time>2026-04-12T08:27:34.782Z</time></trkpt><trkpt lat="45.7071129" lon="11.2269924"><ele>524.0</ele><time>2026-04-12T08:27:36.783Z</time></trkpt><trkpt lat="45.707217" lon="11.2269705"><ele>524.0</ele><time>2026-04-12T08:27:37.783Z</time></trkpt><trkpt lat="45.7073501" lon="11.2269713"><ele>524.0</ele><time>2026-04-12T08:27:38.783Z</time></trkpt><trkpt lat="45.7074942" lon="11.2269905"><ele>524.0</ele><time>2026-04-12T08:27:39.782Z</time></trkpt><trkpt lat="45.7076149" lon="11.2270047"><ele>524.0</ele><time>2026-04-12T08:27:40.782Z</time></trkpt><trkpt lat="45.7077215" lon="11.2270098"><ele>524.0</ele><time>2026-04-12T08:27:41.783Z</time></trkpt><trkpt lat="45.7077986" lon="11.2269871"><ele>524.0</ele><time>2026-04-12T08:27:42.782Z</time></trkpt><trkpt lat="45.7078644" lon="11.2269555"><ele>524.0</ele><time>2026-04-12T08:27:43.783Z</time></trkpt><trkpt lat="45.7079173" lon="11.2268623"><ele>524.0</ele><time>2026-04-12T08:27:45.783Z</time></trkpt><trkpt lat="45.7078974" lon="11.2267497"><ele>524.0</ele><time>2026-04-12T08:27:46.782Z</time></trkpt><trkpt lat="45.7078374" lon="11.2266067"><ele>524.0</ele><time>2026-04-12T08:27:47.783Z</time></trkpt><trkpt lat="45.7077269" lon="11.2264241"><ele>524.0</ele><time>2026-04-12T08:27:48.782Z</time></trkpt><trkpt lat="45.7075723" lon="11.2262227"><ele>524.0</ele><time>2026-04-12T08:27:49.783Z</time></trkpt><trkpt lat="45.7074613" lon="11.2260621"><ele>524.0</ele><time>2026-04-12T08:27:50.783Z</time></trkpt><trkpt lat="45.7073792" lon="11.22593"><ele>524.0</ele><time>2026-04-12T08:27:51.782Z</time></trkpt><trkpt lat="45.7073062" lon="11.2258014"><ele>524.0</ele><time>2026-04-12T08:27:52.782Z</time></trkpt><trkpt lat="45.7072232" lon="11.2256846"><ele>524.0</ele><time>2026-04-12T08:27:53.782Z</time></trkpt><trkpt lat="45.7071367" lon="11.2255949"><ele>524.0</ele><time>2026-04-12T08:27:54.783Z</time></trkpt><trkpt lat="45.7070421" lon="11.2255251"><ele>524.0</ele><time>2026-04-12T08:27:55.782Z</time></trkpt><trkpt lat="45.7069487" lon="11.2254664"><ele>517.5</ele><time>2026-04-12T08:27:56.782Z</time></trkpt><trkpt lat="45.7068643" lon="11.2254053"><ele>511.0</ele><time>2026-04-12T08:27:57.783Z</time></trkpt><trkpt lat="45.7067884" lon="11.2253465"><ele>504.5</ele><time>2026-04-12T08:27:58.783Z</time></trkpt><trkpt lat="45.7067398" lon="11.2252677"><ele>498.0</ele><time>2026-04-12T08:27:59.783Z</time></trkpt><trkpt lat="45.7067062" lon="11.2251877"><ele>491.49999999999994</ele><time>2026-04-12T08:28:00.783Z</time></trkpt><trkpt lat="45.7067378" lon="11.2250777"><ele>485.0</ele><time>2026-04-12T08:28:02.783Z</time></trkpt><trkpt lat="45.7068053" lon="11.2250492"><ele>485.0</ele><time>2026-04-12T08:28:03.783Z</time></trkpt><trkpt lat="45.7069101" lon="11.2250335"><ele>485.0</ele><time>2026-04-12T08:28:04.782Z</time></trkpt><trkpt lat="45.7070299" lon="11.2250184"><ele>485.0</ele><time>2026-04-12T08:28:05.782Z</time></trkpt><trkpt lat="45.7071566" lon="11.2250263"><ele>485.0</ele><time>2026-04-12T08:28:06.783Z</time></trkpt><trkpt lat="45.7072734" lon="11.2250273"><ele>488.16666666666663</ele><time>2026-04-12T08:28:07.783Z</time></trkpt><trkpt lat="45.7073748" lon="11.2250112"><ele>491.3333333333333</ele><time>2026-04-12T08:28:08.782Z</time></trkpt><trkpt lat="45.7074659" lon="11.2249772"><ele>494.5</ele><time>2026-04-12T08:28:09.783Z</time></trkpt><trkpt lat="45.7075505" lon="11.2249303"><ele>497.66666666666663</ele><time>2026-04-12T08:28:10.782Z</time></trkpt><trkpt lat="45.707623" lon="11.2248725"><ele>500.8333333333333</ele><time>2026-04-12T08:28:11.783Z</time></trkpt><trkpt lat="45.7076832" lon="11.2248147"><ele>504.0</ele><time>2026-04-12T08:28:12.782Z</time></trkpt><trkpt lat="45.7077394" lon="11.2246737"><ele>504.0</ele><time>2026-04-12T08:28:14.783Z</time></trkpt><trkpt lat="45.7076803" lon="11.2245166"><ele>504.0</ele><time>2026-04-12T08:28:16.782Z</time></trkpt><trkpt lat="45.7075972" lon="11.224469"><ele>504.0</ele><time>2026-04-12T08:28:17.783Z</time></trkpt><trkpt lat="45.7074878" lon="11.2244283"><ele>504.0</ele><time>2026-04-12T08:28:18.783Z</time></trkpt><trkpt lat="45.7073953" lon="11.2243775"><ele>504.0</ele><time>2026-04-12T08:28:19.783Z</time></trkpt><trkpt lat="45.7073319" lon="11.2242986"><ele>504.0</ele><time>2026-04-12T08:28:20.782Z</time></trkpt><trkpt lat="45.7072764" lon="11.2242393"><ele>504.0</ele><time>2026-04-12T08:28:21.783Z</time></trkpt><trkpt lat="45.7071781" lon="11.2242811"><ele>504.0</ele><time>2026-04-12T08:28:23.783Z</time></trkpt><trkpt lat="45.707204" lon="11.2244269"><ele>504.0</ele><time>2026-04-12T08:28:25.782Z</time></trkpt><trkpt lat="45.707247" lon="11.2245047"><ele>504.0</ele><time>2026-04-12T08:28:26.782Z</time></trkpt><trkpt lat="45.7073008" lon="11.2245826"><ele>504.0</ele><time>2026-04-12T08:28:27.782Z</time></trkpt><trkpt lat="45.7073342" lon="11.224662"><ele>505.79999999999995</ele><time>2026-04-12T08:28:28.782Z</time></trkpt><trkpt lat="45.7073369" lon="11.2248209"><ele>507.59999999999997</ele><time>2026-04-12T08:28:30.781Z</time></trkpt><trkpt lat="45.707216" lon="11.224898"><ele>509.4</ele><time>2026-04-12T08:28:32.781Z</time></trkpt><trkpt lat="45.7071253" lon="11.224896"><ele>511.2</ele><time>2026-04-12T08:28:33.781Z</time></trkpt><trkpt lat="45.7070212" lon="11.2248707"><ele>513.0</ele><time>2026-04-12T08:28:34.782Z</time></trkpt><trkpt lat="45.7069016" lon="11.2248454"><ele>507.4</ele><time>2026-04-12T08:28:35.781Z</time></trkpt><trkpt lat="45.7067845" lon="11.2248292"><ele>501.79999999999995</ele><time>2026-04-12T08:28:36.781Z</time></trkpt><trkpt lat="45.7066751" lon="11.2248302"><ele>496.2</ele><time>2026-04-12T08:28:37.782Z</time></trkpt><trkpt lat="45.7065784" lon="11.2248433"><ele>490.6</ele><time>2026-04-12T08:28:38.782Z</time></trkpt><trkpt lat="45.7064932" lon="11.2248772"><ele>485.0</ele><time>2026-04-12T08:28:39.782Z</time></trkpt><trkpt lat="45.7064198" lon="11.2249289"><ele>485.0</ele><time>2026-04-12T08:28:40.781Z</time></trkpt><trkpt lat="45.7063597" lon="11.2249987"><ele>485.0</ele><time>2026-04-12T08:28:41.781Z</time></trkpt><trkpt lat="45.7063703" lon="11.2251487"><ele>485.0</ele><time>2026-04-12T08:28:42.781Z</time></trkpt><trkpt lat="45.7063919" lon="11.225314"><ele>485.0</ele><time>2026-04-12T08:28:43.782Z</time></trkpt><trkpt lat="45.7064244" lon="11.2254876"><ele>485.0</ele><time>2026-04-12T08:28:44.781Z</time></trkpt><trkpt lat="45.7064456" lon="11.2256301"><ele>485.66666666666663</ele><time>2026-04-12T08:28:45.782Z</time></trkpt><trkpt lat="45.7064758" lon="11.225754"><ele>486.3333333333333</ele><time>2026-04-12T08:28:46.782Z</time></trkpt><trkpt lat="45.7065151" lon="11.2258566"><ele>487.0</ele><time>2026-04-12T08:28:47.781Z</time></trkpt><trkpt lat="45.7065606" lon="11.2259444"><ele>487.66666666666663</ele><time>2026-04-12T08:28:48.782Z</time></trkpt><trkpt lat="45.7066404" lon="11.2259772"><ele>488.3333333333333</ele><time>2026-04-12T08:28:49.782Z</time></trkpt><trkpt lat="45.7067255" lon="11.2259977"><ele>489.0</ele><time>2026-04-12T08:28:50.782Z</time></trkpt><trkpt lat="45.7068027" lon="11.2260264"><ele>489.0</ele><time>2026-04-12T08:28:51.781Z</time></trkpt><trkpt lat="45.7068704" lon="11.226064"><ele>489.0</ele><time>2026-04-12T08:28:52.782Z</time></trkpt><trkpt lat="45.7069247" lon="11.2261107"><ele>489.0</ele><time>2026-04-12T08:28:53.781Z</time></trkpt><trkpt lat="45.706995" lon="11.2262172"><ele>489.0</ele><time>2026-04-12T08:28:55.782Z</time></trkpt><trkpt lat="45.7069444" lon="11.2263193"><ele>489.0</ele><time>2026-04-12T08:28:57.781Z</time></trkpt><trkpt lat="45.7068535" lon="11.2263572"><ele>489.0</ele><time>2026-04-12T08:28:58.781Z</time></trkpt><trkpt lat="45.7067334" lon="11.2263895"><ele>489.0</ele><time>2026-04-12T08:28:59.781Z</time></trkpt><trkpt lat="45.7066231" lon="11.2264385"><ele>489.0</ele><time>2026-04-12T08:29:00.781Z</time></trkpt><trkpt lat="45.7065409" lon="11.2265058"><ele>489.0</ele><time>2026-04-12T08:29:01.782Z</time></trkpt><trkpt lat="45.7064918" lon="11.2265949"><ele>489.0</ele><time>2026-04-12T08:29:02.781Z</time></trkpt><trkpt lat="45.7064703" lon="11.2267054"><ele>489.0</ele><time>2026-04-12T08:29:03.782Z</time></trkpt><trkpt lat="45.7064461" lon="11.2268401"><ele>488.4</ele><time>2026-04-12T08:29:04.781Z</time></trkpt><trkpt lat="45.7064174" lon="11.2269817"><ele>487.79999999999995</ele><time>2026-04-12T08:29:05.782Z</time></trkpt><trkpt lat="45.7064002" lon="11.2271366"><ele>487.20000000000005</ele><time>2026-04-12T08:29:06.781Z</time></trkpt><trkpt lat="45.7063911" lon="11.2272964"><ele>486.6</ele><time>2026-04-12T08:29:07.781Z</time></trkpt><trkpt lat="45.7063723" lon="11.2274597"><ele>486.0</ele><time>2026-04-12T08:29:08.782Z</time></trkpt><trkpt lat="45.7063532" lon="11.2276198"><ele>489.0</ele><time>2026-04-12T08:29:09.781Z</time></trkpt><trkpt lat="45.706334" lon="11.2277904"><ele>492.0</ele><time>2026-04-12T08:29:10.782Z</time></trkpt><trkpt lat="45.7063104" lon="11.2279486"><ele>495.0</ele><time>2026-04-12T08:29:11.781Z</time></trkpt><trkpt lat="45.7062898" lon="11.2280965"><ele>498.0</ele><time>2026-04-12T08:29:12.782Z</time></trkpt><trkpt lat="45.7062764" lon="11.2282311"><ele>501.0</ele><time>2026-04-12T08:29:13.782Z</time></trkpt><trkpt lat="45.7062655" lon="11.2283515"><ele>502.1666666666667</ele><time>2026-04-12T08:29:14.781Z</time></trkpt><trkpt lat="45.706256" lon="11.2284691"><ele>503.33333333333337</ele><time>2026-04-12T08:29:15.782Z</time></trkpt><trkpt lat="45.7062389" lon="11.2285668"><ele>504.5</ele><time>2026-04-12T08:29:16.782Z</time></trkpt><trkpt lat="45.7062059" lon="11.2286544"><ele>505.6666666666667</ele><time>2026-04-12T08:29:17.782Z</time></trkpt><trkpt lat="45.7061711" lon="11.2287565"><ele>506.83333333333337</ele><time>2026-04-12T08:29:19.782Z</time></trkpt><trkpt lat="45.7061331" lon="11.2286563"><ele>508.0</ele><time>2026-04-12T08:29:22.782Z</time></trkpt><trkpt lat="45.7061325" lon="11.2285569"><ele>508.0</ele><time>2026-04-12T08:29:23.782Z</time></trkpt><trkpt lat="45.7061444" lon="11.2284134"><ele>508.0</ele><time>2026-04-12T08:29:24.781Z</time></trkpt><trkpt lat="45.7061677" lon="11.2282193"><ele>508.0</ele><time>2026-04-12T08:29:25.782Z</time></trkpt><trkpt lat="45.7061927" lon="11.2279933"><ele>508.0</ele><time>2026-04-12T08:29:26.782Z</time></trkpt><trkpt lat="45.7062159" lon="11.2277978"><ele>506.25</ele><time>2026-04-12T08:29:27.782Z</time></trkpt><trkpt lat="45.7062304" lon="11.2276171"><ele>504.5</ele><time>2026-04-12T08:29:28.781Z</time></trkpt><trkpt lat="45.706235" lon="11.2274536"><ele>502.75</ele><time>2026-04-12T08:29:29.782Z</time></trkpt><trkpt lat="45.7062345" lon="11.2272974"><ele>501.0</ele><time>2026-04-12T08:29:30.782Z</time></trkpt><trkpt lat="45.7062125" lon="11.2271221"><ele>498.0</ele><time>2026-04-12T08:29:31.782Z</time></trkpt><trkpt lat="45.7062125" lon="11.2269527"><ele>495.0</ele><time>2026-04-12T08:29:32.782Z</time></trkpt><trkpt lat="45.7062156" lon="11.2267806"><ele>492.0</ele><time>2026-04-12T08:29:33.782Z</time></trkpt><trkpt lat="45.7062057" lon="11.2266097"><ele>489.0</ele><time>2026-04-12T08:29:34.782Z</time></trkpt><trkpt lat="45.7061881" lon="11.2264563"><ele>489.0</ele><time>2026-04-12T08:29:35.782Z</time></trkpt><trkpt lat="45.7061571" lon="11.2262966"><ele>489.0</ele><time>2026-04-12T08:29:36.781Z</time></trkpt><trkpt lat="45.7061292" lon="11.2261255"><ele>489.0</ele><time>2026-04-12T08:29:37.781Z</time></trkpt><trkpt lat="45.7060983" lon="11.2259465"><ele>489.0</ele><time>2026-04-12T08:29:38.782Z</time></trkpt><trkpt lat="45.706075" lon="11.2257728"><ele>482.0</ele><time>2026-04-12T08:29:39.781Z</time></trkpt><trkpt lat="45.7060521" lon="11.2256189"><ele>475.0</ele><time>2026-04-12T08:29:40.782Z</time></trkpt><trkpt lat="45.7060247" lon="11.2254602"><ele>468.0</ele><time>2026-04-12T08:29:41.781Z</time></trkpt><trkpt lat="45.7059877" lon="11.2253106"><ele>461.0</ele><time>2026-04-12T08:29:42.782Z</time></trkpt><trkpt lat="45.7059393" lon="11.2251772"><ele>454.0</ele><time>2026-04-12T08:29:43.781Z</time></trkpt><trkpt lat="45.7058638" lon="11.2250526"><ele>454.00000000000006</ele><time>2026-04-12T08:29:44.781Z</time></trkpt><trkpt lat="45.7058002" lon="11.2249833"><ele>454.0</ele><time>2026-04-12T08:29:45.782Z</time></trkpt><trkpt lat="45.7057366" lon="11.2249215"><ele>454.0</ele><time>2026-04-12T08:29:46.782Z</time></trkpt><trkpt lat="45.7056612" lon="11.2248899"><ele>454.0</ele><time>2026-04-12T08:29:47.782Z</time></trkpt><trkpt lat="45.705582" lon="11.2248746"><ele>454.00000000000006</ele><time>2026-04-12T08:29:48.781Z</time></trkpt><trkpt lat="45.7055099" lon="11.2248713"><ele>454.0</ele><time>2026-04-12T08:29:49.782Z</time></trkpt><trkpt lat="45.7053945" lon="11.2249334"><ele>454.00000000000006</ele><time>2026-04-12T08:29:51.781Z</time></trkpt><trkpt lat="45.7053401" lon="11.2250009"><ele>454.0</ele><time>2026-04-12T08:29:52.781Z</time></trkpt><trkpt lat="45.7052969" lon="11.2250874"><ele>454.0</ele><time>2026-04-12T08:29:53.781Z</time></trkpt><trkpt lat="45.7052632" lon="11.2251722"><ele>454.0</ele><time>2026-04-12T08:29:54.781Z</time></trkpt><trkpt lat="45.7052056" lon="11.2253154"><ele>454.00000000000006</ele><time>2026-04-12T08:29:56.781Z</time></trkpt><trkpt lat="45.7051386" lon="11.2254132"><ele>454.0</ele><time>2026-04-12T08:29:58.782Z</time></trkpt><trkpt lat="45.7050709" lon="11.2255195"><ele>452.4</ele><time>2026-04-12T08:30:00.781Z</time></trkpt><trkpt lat="45.705038" lon="11.2256284"><ele>450.79999999999995</ele><time>2026-04-12T08:30:02.782Z</time></trkpt><trkpt lat="45.7050136" lon="11.2257266"><ele>449.20000000000005</ele><time>2026-04-12T08:30:04.781Z</time></trkpt><trkpt lat="45.7049367" lon="11.2257815"><ele>447.6</ele><time>2026-04-12T08:30:06.781Z</time></trkpt><trkpt lat="45.7048304" lon="11.2258251"><ele>446.0</ele><time>2026-04-12T08:30:08.782Z</time></trkpt><trkpt lat="45.7047403" lon="11.2258937"><ele>446.16666666666663</ele><time>2026-04-12T08:30:10.781Z</time></trkpt><trkpt lat="45.7046495" lon="11.2259583"><ele>446.3333333333333</ele><time>2026-04-12T08:30:12.782Z</time></trkpt><trkpt lat="45.7045816" lon="11.2259452"><ele>446.5</ele><time>2026-04-12T08:30:14.782Z</time></trkpt><trkpt lat="45.7045277" lon="11.2258517"><ele>446.66666666666663</ele><time>2026-04-12T08:30:16.781Z</time></trkpt><trkpt lat="45.7044828" lon="11.2257725"><ele>446.8333333333333</ele><time>2026-04-12T08:30:17.782Z</time></trkpt><trkpt lat="45.7044191" lon="11.2256845"><ele>447.0</ele><time>2026-04-12T08:30:18.782Z</time></trkpt><trkpt lat="45.7043359" lon="11.2255946"><ele>447.0</ele><time>2026-04-12T08:30:19.781Z</time></trkpt><trkpt lat="45.7042416" lon="11.2255021"><ele>447.0</ele><time>2026-04-12T08:30:20.781Z</time></trkpt><trkpt lat="45.7041447" lon="11.2254119"><ele>447.0</ele><time>2026-04-12T08:30:21.782Z</time></trkpt><trkpt lat="45.7040682" lon="11.2252984"><ele>447.0</ele><time>2026-04-12T08:30:22.782Z</time></trkpt><trkpt lat="45.7040007" lon="11.2251694"><ele>447.0</ele><time>2026-04-12T08:30:23.782Z</time></trkpt><trkpt lat="45.7039438" lon="11.2250337"><ele>447.00000000000006</ele><time>2026-04-12T08:30:24.781Z</time></trkpt><trkpt lat="45.7038904" lon="11.224907"><ele>447.00000000000006</ele><time>2026-04-12T08:30:25.781Z</time></trkpt><trkpt lat="45.7038221" lon="11.2247946"><ele>447.0</ele><time>2026-04-12T08:30:26.782Z</time></trkpt><trkpt lat="45.7037406" lon="11.2246911"><ele>447.0</ele><time>2026-04-12T08:30:27.781Z</time></trkpt><trkpt lat="45.7036622" lon="11.2245997"><ele>447.5</ele><time>2026-04-12T08:30:28.782Z</time></trkpt><trkpt lat="45.7036021" lon="11.2245213"><ele>448.0</ele><time>2026-04-12T08:30:29.781Z</time></trkpt><trkpt lat="45.7035532" lon="11.224457"><ele>448.5</ele><time>2026-04-12T08:30:30.782Z</time></trkpt><trkpt lat="45.7034948" lon="11.2244119"><ele>449.0</ele><time>2026-04-12T08:30:32.782Z</time></trkpt><trkpt lat="45.7035289" lon="11.2245727"><ele>449.5</ele><time>2026-04-12T08:30:46.782Z</time></trkpt><trkpt lat="45.7035682" lon="11.2246555"><ele>450.0</ele><time>2026-04-12T08:30:47.781Z</time></trkpt><trkpt lat="45.7036054" lon="11.2247311"><ele>449.5</ele><time>2026-04-12T08:30:48.781Z</time></trkpt><trkpt lat="45.7036428" lon="11.2248148"><ele>449.0</ele><time>2026-04-12T08:30:49.782Z</time></trkpt><trkpt lat="45.7036778" lon="11.2249003"><ele>448.5</ele><time>2026-04-12T08:30:50.782Z</time></trkpt><trkpt lat="45.7037141" lon="11.2249918"><ele>448.0</ele><time>2026-04-12T08:30:51.782Z</time></trkpt><trkpt lat="45.703745" lon="11.2251032"><ele>447.5</ele><time>2026-04-12T08:30:52.781Z</time></trkpt><trkpt lat="45.7037695" lon="11.2252261"><ele>447.0</ele><time>2026-04-12T08:30:53.782Z</time></trkpt><trkpt lat="45.7037923" lon="11.2253543"><ele>447.0</ele><time>2026-04-12T08:30:54.782Z</time></trkpt><trkpt lat="45.7038056" lon="11.2254911"><ele>447.00000000000006</ele><time>2026-04-12T08:30:55.782Z</time></trkpt><trkpt lat="45.703808" lon="11.2256335"><ele>447.00000000000006</ele><time>2026-04-12T08:30:56.782Z</time></trkpt><trkpt lat="45.7038062" lon="11.2257718"><ele>447.0</ele><time>2026-04-12T08:30:57.782Z</time></trkpt><trkpt lat="45.7038081" lon="11.2259059"><ele>447.0</ele><time>2026-04-12T08:30:58.781Z</time></trkpt><trkpt lat="45.7038104" lon="11.2260347"><ele>447.1666666666667</ele><time>2026-04-12T08:30:59.782Z</time></trkpt><trkpt lat="45.7038197" lon="11.226165"><ele>447.33333333333337</ele><time>2026-04-12T08:31:00.781Z</time></trkpt><trkpt lat="45.7038367" lon="11.2262895"><ele>447.5</ele><time>2026-04-12T08:31:01.781Z</time></trkpt><trkpt lat="45.7038558" lon="11.2264014"><ele>447.6666666666667</ele><time>2026-04-12T08:31:02.782Z</time></trkpt><trkpt lat="45.7038727" lon="11.2265042"><ele>447.83333333333337</ele><time>2026-04-12T08:31:03.781Z</time></trkpt><trkpt lat="45.7038837" lon="11.2266058"><ele>448.0</ele><time>2026-04-12T08:31:04.782Z</time></trkpt><trkpt lat="45.7038949" lon="11.2267092"><ele>448.83333333333337</ele><time>2026-04-12T08:31:05.782Z</time></trkpt><trkpt lat="45.7039" lon="11.2268261"><ele>449.6666666666667</ele><time>2026-04-12T08:31:06.782Z</time></trkpt><trkpt lat="45.7038992" lon="11.2269448"><ele>450.5</ele><time>2026-04-12T08:31:07.781Z</time></trkpt><trkpt lat="45.7039016" lon="11.2270595"><ele>451.33333333333337</ele><time>2026-04-12T08:31:08.782Z</time></trkpt><trkpt lat="45.7038929" lon="11.2271691"><ele>452.1666666666667</ele><time>2026-04-12T08:31:09.782Z</time></trkpt><trkpt lat="45.7038734" lon="11.22727"><ele>453.0</ele><time>2026-04-12T08:31:10.782Z</time></trkpt><trkpt lat="45.7038491" lon="11.2273752"><ele>454.6666666666667</ele><time>2026-04-12T08:31:11.781Z</time></trkpt><trkpt lat="45.7038209" lon="11.2274771"><ele>456.33333333333337</ele><time>2026-04-12T08:31:12.782Z</time></trkpt><trkpt lat="45.7038124" lon="11.2275774"><ele>458.0</ele><time>2026-04-12T08:31:13.782Z</time></trkpt><trkpt lat="45.7038451" lon="11.2276853"><ele>459.6666666666667</ele><time>2026-04-12T08:31:14.781Z</time></trkpt><trkpt lat="45.7038926" lon="11.2277841"><ele>461.33333333333337</ele><time>2026-04-12T08:31:15.782Z</time></trkpt><trkpt lat="45.7039389" lon="11.2278845"><ele>463.0</ele><time>2026-04-12T08:31:16.782Z</time></trkpt><trkpt lat="45.7039678" lon="11.2279823"><ele>463.00000000000006</ele><time>2026-04-12T08:31:17.782Z</time></trkpt><trkpt lat="45.7039877" lon="11.2280924"><ele>463.0</ele><time>2026-04-12T08:31:18.782Z</time></trkpt><trkpt lat="45.7039843" lon="11.2282185"><ele>463.0</ele><time>2026-04-12T08:31:19.781Z</time></trkpt><trkpt lat="45.7039769" lon="11.2283487"><ele>463.0</ele><time>2026-04-12T08:31:20.782Z</time></trkpt><trkpt lat="45.7039725" lon="11.2284758"><ele>463.00000000000006</ele><time>2026-04-12T08:31:21.781Z</time></trkpt><trkpt lat="45.7039567" lon="11.2285954"><ele>463.0</ele><time>2026-04-12T08:31:22.782Z</time></trkpt><trkpt lat="45.7039166" lon="11.2287022"><ele>464.00000000000006</ele><time>2026-04-12T08:31:23.782Z</time></trkpt><trkpt lat="45.7038797" lon="11.2288"><ele>465.0</ele><time>2026-04-12T08:31:24.781Z</time></trkpt><trkpt lat="45.7038179" lon="11.2288756"><ele>466.0</ele><time>2026-04-12T08:31:25.781Z</time></trkpt><trkpt lat="45.7037451" lon="11.2289086"><ele>467.0</ele><time>2026-04-12T08:31:26.781Z</time></trkpt><trkpt lat="45.7036741" lon="11.2289158"><ele>468.00000000000006</ele><time>2026-04-12T08:31:27.782Z</time></trkpt><trkpt lat="45.7035999" lon="11.2289208"><ele>469.0</ele><time>2026-04-12T08:31:28.781Z</time></trkpt><trkpt lat="45.7035248" lon="11.2289219"><ele>472.0</ele><time>2026-04-12T08:31:29.782Z</time></trkpt><trkpt lat="45.7034543" lon="11.2289192"><ele>475.0</ele><time>2026-04-12T08:31:30.781Z</time></trkpt><trkpt lat="45.703348" lon="11.2288859"><ele>478.0</ele><time>2026-04-12T08:31:32.782Z</time></trkpt><trkpt lat="45.7032851" lon="11.228777"><ele>481.0</ele><time>2026-04-12T08:31:34.782Z</time></trkpt><trkpt lat="45.7033118" lon="11.2286421"><ele>484.0</ele><time>2026-04-12T08:31:35.781Z</time></trkpt><trkpt lat="45.7033274" lon="11.2285083"><ele>484.00000000000006</ele><time>2026-04-12T08:31:36.781Z</time></trkpt><trkpt lat="45.703328" lon="11.2283822"><ele>484.0</ele><time>2026-04-12T08:31:37.781Z</time></trkpt><trkpt lat="45.7033175" lon="11.2282712"><ele>484.0</ele><time>2026-04-12T08:31:38.782Z</time></trkpt><trkpt lat="45.7032919" lon="11.2281688"><ele>484.0</ele><time>2026-04-12T08:31:39.782Z</time></trkpt><trkpt lat="45.7032662" lon="11.2280624"><ele>484.00000000000006</ele><time>2026-04-12T08:31:40.782Z</time></trkpt><trkpt lat="45.7032433" lon="11.2279551"><ele>484.0</ele><time>2026-04-12T08:31:41.782Z</time></trkpt><trkpt lat="45.7032132" lon="11.2278318"><ele>483.6666666666667</ele><time>2026-04-12T08:31:42.782Z</time></trkpt><trkpt lat="45.7031698" lon="11.2277276"><ele>483.33333333333337</ele><time>2026-04-12T08:31:43.782Z</time></trkpt><trkpt lat="45.703103" lon="11.2276454"><ele>483.0</ele><time>2026-04-12T08:31:44.781Z</time></trkpt><trkpt lat="45.7030239" lon="11.2275762"><ele>482.66666666666663</ele><time>2026-04-12T08:31:45.782Z</time></trkpt><trkpt lat="45.7029404" lon="11.2275242"><ele>482.3333333333333</ele><time>2026-04-12T08:31:46.782Z</time></trkpt><trkpt lat="45.7028551" lon="11.227519"><ele>482.0</ele><time>2026-04-12T08:31:47.782Z</time></trkpt><trkpt lat="45.7027704" lon="11.2275152"><ele>485.66666666666663</ele><time>2026-04-12T08:31:48.782Z</time></trkpt><trkpt lat="45.7026953" lon="11.2275327"><ele>489.3333333333333</ele><time>2026-04-12T08:31:49.782Z</time></trkpt><trkpt lat="45.7026246" lon="11.2275801"><ele>493.0</ele><time>2026-04-12T08:31:50.781Z</time></trkpt><trkpt lat="45.7025614" lon="11.2276539"><ele>496.66666666666663</ele><time>2026-04-12T08:31:51.782Z</time></trkpt><trkpt lat="45.7025024" lon="11.2277513"><ele>500.3333333333333</ele><time>2026-04-12T08:31:52.782Z</time></trkpt><trkpt lat="45.7024622" lon="11.2278663"><ele>504.0</ele><time>2026-04-12T08:31:53.781Z</time></trkpt><trkpt lat="45.7024289" lon="11.2279814"><ele>504.0</ele><time>2026-04-12T08:31:54.782Z</time></trkpt><trkpt lat="45.7024116" lon="11.2280731"><ele>504.0</ele><time>2026-04-12T08:31:55.781Z</time></trkpt><trkpt lat="45.7023547" lon="11.2281403"><ele>504.0</ele><time>2026-04-12T08:31:57.781Z</time></trkpt><trkpt lat="45.7023331" lon="11.2280486"><ele>504.0</ele><time>2026-04-12T08:31:59.781Z</time></trkpt><trkpt lat="45.7023876" lon="11.2278612"><ele>504.0</ele><time>2026-04-12T08:32:01.782Z</time></trkpt><trkpt lat="45.7024096" lon="11.2277635"><ele>504.0</ele><time>2026-04-12T08:32:02.781Z</time></trkpt><trkpt lat="45.7023578" lon="11.2276351"><ele>504.0</ele><time>2026-04-12T08:32:04.781Z</time></trkpt><trkpt lat="45.7022892" lon="11.2276215"><ele>504.0</ele><time>2026-04-12T08:32:05.781Z</time></trkpt><trkpt lat="45.7021938" lon="11.2276502"><ele>504.0</ele><time>2026-04-12T08:32:06.781Z</time></trkpt><trkpt lat="45.7020832" lon="11.2277012"><ele>504.0</ele><time>2026-04-12T08:32:07.781Z</time></trkpt><trkpt lat="45.7019784" lon="11.2277588"><ele>504.0</ele><time>2026-04-12T08:32:08.782Z</time></trkpt><trkpt lat="45.7018662" lon="11.2278025"><ele>510.0</ele><time>2026-04-12T08:32:09.782Z</time></trkpt><trkpt lat="45.701752" lon="11.2278276"><ele>516.0</ele><time>2026-04-12T08:32:10.782Z</time></trkpt><trkpt lat="45.7016315" lon="11.2278365"><ele>522.0</ele><time>2026-04-12T08:32:11.782Z</time></trkpt><trkpt lat="45.7015131" lon="11.2278306"><ele>528.0</ele><time>2026-04-12T08:32:12.782Z</time></trkpt><trkpt lat="45.7014044" lon="11.2278228"><ele>528.0</ele><time>2026-04-12T08:32:13.781Z</time></trkpt><trkpt lat="45.7013047" lon="11.2278231"><ele>528.0</ele><time>2026-04-12T08:32:14.781Z</time></trkpt><trkpt lat="45.7012109" lon="11.2278445"><ele>528.0</ele><time>2026-04-12T08:32:15.782Z</time></trkpt><trkpt lat="45.7011346" lon="11.2278646"><ele>528.0</ele><time>2026-04-12T08:32:16.781Z</time></trkpt><trkpt lat="45.7010424" lon="11.2278242"><ele>528.0</ele><time>2026-04-12T08:32:18.782Z</time></trkpt><trkpt lat="45.7010283" lon="11.2276802"><ele>528.0</ele><time>2026-04-12T08:32:20.781Z</time></trkpt><trkpt lat="45.7010537" lon="11.2275807"><ele>528.0</ele><time>2026-04-12T08:32:21.781Z</time></trkpt><trkpt lat="45.70109" lon="11.2274693"><ele>528.0</ele><time>2026-04-12T08:32:22.782Z</time></trkpt><trkpt lat="45.7011255" lon="11.2273839"><ele>528.0</ele><time>2026-04-12T08:32:23.782Z</time></trkpt><trkpt lat="45.7011854" lon="11.2272523"><ele>528.0</ele><time>2026-04-12T08:32:25.781Z</time></trkpt><trkpt lat="45.7011361" lon="11.2271842"><ele>528.0</ele><time>2026-04-12T08:32:27.782Z</time></trkpt><trkpt lat="45.7010742" lon="11.2272059"><ele>531.0</ele><time>2026-04-12T08:32:28.781Z</time></trkpt><trkpt lat="45.7010071" lon="11.2272705"><ele>534.0</ele><time>2026-04-12T08:32:29.782Z</time></trkpt><trkpt lat="45.7009256" lon="11.2273475"><ele>537.0</ele><time>2026-04-12T08:32:30.781Z</time></trkpt><trkpt lat="45.7008337" lon="11.2274293"><ele>540.0</ele><time>2026-04-12T08:32:31.782Z</time></trkpt><trkpt lat="45.7007368" lon="11.2275216"><ele>543.0</ele><time>2026-04-12T08:32:32.781Z</time></trkpt><trkpt lat="45.7006505" lon="11.2276193"><ele>543.0</ele><time>2026-04-12T08:32:33.782Z</time></trkpt><trkpt lat="45.7005665" lon="11.2277134"><ele>543.0</ele><time>2026-04-12T08:32:34.782Z</time></trkpt><trkpt lat="45.7004846" lon="11.2278061"><ele>543.0</ele><time>2026-04-12T08:32:35.782Z</time></trkpt><trkpt lat="45.7004068" lon="11.227892"><ele>543.0</ele><time>2026-04-12T08:32:36.781Z</time></trkpt><trkpt lat="45.7003412" lon="11.2279706"><ele>543.0</ele><time>2026-04-12T08:32:37.781Z</time></trkpt><trkpt lat="45.7002832" lon="11.2280307"><ele>542.8</ele><time>2026-04-12T08:32:38.78Z</time></trkpt><trkpt lat="45.7002031" lon="11.228141"><ele>542.5999999999999</ele><time>2026-04-12T08:32:40.78Z</time></trkpt><trkpt lat="45.7002363" lon="11.2282983"><ele>542.4000000000001</ele><time>2026-04-12T08:32:42.781Z</time></trkpt><trkpt lat="45.7002792" lon="11.2283852"><ele>542.2</ele><time>2026-04-12T08:32:43.78Z</time></trkpt><trkpt lat="45.7003413" lon="11.2284845"><ele>542.0</ele><time>2026-04-12T08:32:44.78Z</time></trkpt><trkpt lat="45.7004253" lon="11.2286005"><ele>542.0</ele><time>2026-04-12T08:32:45.78Z</time></trkpt><trkpt lat="45.7005012" lon="11.2287137"><ele>542.0</ele><time>2026-04-12T08:32:46.78Z</time></trkpt><trkpt lat="45.7005728" lon="11.2288177"><ele>542.0</ele><time>2026-04-12T08:32:47.78Z</time></trkpt><trkpt lat="45.7006378" lon="11.2289168"><ele>542.0</ele><time>2026-04-12T08:32:48.781Z</time></trkpt><trkpt lat="45.7006912" lon="11.2290234"><ele>542.0</ele><time>2026-04-12T08:32:49.781Z</time></trkpt><trkpt lat="45.7007241" lon="11.229132"><ele>544.0</ele><time>2026-04-12T08:32:50.781Z</time></trkpt><trkpt lat="45.7007253" lon="11.2292292"><ele>546.0</ele><time>2026-04-12T08:32:51.781Z</time></trkpt><trkpt lat="45.7007004" lon="11.2293293"><ele>548.0</ele><time>2026-04-12T08:32:52.781Z</time></trkpt><trkpt lat="45.7006724" lon="11.229429"><ele>550.0</ele><time>2026-04-12T08:32:53.781Z</time></trkpt><trkpt lat="45.7006553" lon="11.2295383"><ele>552.0</ele><time>2026-04-12T08:32:54.781Z</time></trkpt><trkpt lat="45.7006621" lon="11.2296479"><ele>554.0</ele><time>2026-04-12T08:32:55.781Z</time></trkpt><trkpt lat="45.7006929" lon="11.2297416"><ele>556.0</ele><time>2026-04-12T08:32:56.781Z</time></trkpt><trkpt lat="45.7007459" lon="11.2298353"><ele>555.0</ele><time>2026-04-12T08:32:57.781Z</time></trkpt><trkpt lat="45.7008182" lon="11.2299144"><ele>554.0</ele><time>2026-04-12T08:32:58.781Z</time></trkpt><trkpt lat="45.7008999" lon="11.2299778"><ele>553.0</ele><time>2026-04-12T08:32:59.78Z</time></trkpt><trkpt lat="45.7009935" lon="11.2300122"><ele>552.0</ele><time>2026-04-12T08:33:00.78Z</time></trkpt><trkpt lat="45.701094" lon="11.2300276"><ele>551.0</ele><time>2026-04-12T08:33:01.78Z</time></trkpt><trkpt lat="45.7011884" lon="11.2300465"><ele>551.0</ele><time>2026-04-12T08:33:02.781Z</time></trkpt><trkpt lat="45.7012723" lon="11.2300799"><ele>551.0</ele><time>2026-04-12T08:33:03.78Z</time></trkpt><trkpt lat="45.7013471" lon="11.2301274"><ele>551.0</ele><time>2026-04-12T08:33:04.781Z</time></trkpt><trkpt lat="45.7014105" lon="11.2301937"><ele>551.0</ele><time>2026-04-12T08:33:05.78Z</time></trkpt><trkpt lat="45.7014551" lon="11.2302911"><ele>551.0</ele><time>2026-04-12T08:33:06.78Z</time></trkpt><trkpt lat="45.7014813" lon="11.2304194"><ele>551.0</ele><time>2026-04-12T08:33:07.781Z</time></trkpt><trkpt lat="45.7014777" lon="11.2305574"><ele>554.4</ele><time>2026-04-12T08:33:08.78Z</time></trkpt><trkpt lat="45.7014605" lon="11.2307001"><ele>557.8</ele><time>2026-04-12T08:33:09.78Z</time></trkpt><trkpt lat="45.7014275" lon="11.2308263"><ele>561.1999999999999</ele><time>2026-04-12T08:33:10.781Z</time></trkpt><trkpt lat="45.7013835" lon="11.2309426"><ele>564.6</ele><time>2026-04-12T08:33:11.781Z</time></trkpt><trkpt lat="45.7013637" lon="11.2310437"><ele>568.0</ele><time>2026-04-12T08:33:12.78Z</time></trkpt><trkpt lat="45.7013577" lon="11.2312186"><ele>568.0</ele><time>2026-04-12T08:33:14.781Z</time></trkpt><trkpt lat="45.7014022" lon="11.2313298"><ele>568.0</ele><time>2026-04-12T08:33:16.781Z</time></trkpt><trkpt lat="45.7015361" lon="11.2313443"><ele>568.0</ele><time>2026-04-12T08:33:18.781Z</time></trkpt><trkpt lat="45.7016765" lon="11.2313043"><ele>568.0</ele><time>2026-04-12T08:33:19.781Z</time></trkpt><trkpt lat="45.7017951" lon="11.2313005"><ele>568.0</ele><time>2026-04-12T08:33:20.781Z</time></trkpt><trkpt lat="45.7019051" lon="11.2313231"><ele>568.0</ele><time>2026-04-12T08:33:21.78Z</time></trkpt><trkpt lat="45.7020181" lon="11.2313575"><ele>568.0</ele><time>2026-04-12T08:33:22.781Z</time></trkpt><trkpt lat="45.7021423" lon="11.231414"><ele>568.0</ele><time>2026-04-12T08:33:23.781Z</time></trkpt><trkpt lat="45.7022529" lon="11.2314648"><ele>568.0</ele><time>2026-04-12T08:33:24.781Z</time></trkpt><trkpt lat="45.7023629" lon="11.2315161"><ele>568.0</ele><time>2026-04-12T08:33:25.781Z</time></trkpt><trkpt lat="45.7024385" lon="11.2315802"><ele>568.0</ele><time>2026-04-12T08:33:26.78Z</time></trkpt><trkpt lat="45.7025101" lon="11.2316668"><ele>568.0</ele><time>2026-04-12T08:33:27.78Z</time></trkpt><trkpt lat="45.70257" lon="11.2317566"><ele>568.0</ele><time>2026-04-12T08:33:28.78Z</time></trkpt><trkpt lat="45.7026088" lon="11.231863"><ele>568.0</ele><time>2026-04-12T08:33:29.781Z</time></trkpt><trkpt lat="45.7026246" lon="11.2319708"><ele>568.0</ele><time>2026-04-12T08:33:30.781Z</time></trkpt><trkpt lat="45.702623" lon="11.2320934"><ele>568.0</ele><time>2026-04-12T08:33:31.781Z</time></trkpt><trkpt lat="45.70261" lon="11.2322465"><ele>568.0</ele><time>2026-04-12T08:33:32.781Z</time></trkpt><trkpt lat="45.7025942" lon="11.2324134"><ele>568.0</ele><time>2026-04-12T08:33:33.781Z</time></trkpt><trkpt lat="45.7025765" lon="11.2325652"><ele>571.0</ele><time>2026-04-12T08:33:34.781Z</time></trkpt><trkpt lat="45.7025574" lon="11.2327022"><ele>574.0</ele><time>2026-04-12T08:33:35.78Z</time></trkpt><trkpt lat="45.7025589" lon="11.2328435"><ele>577.0</ele><time>2026-04-12T08:33:36.781Z</time></trkpt><trkpt lat="45.7025691" lon="11.2329935"><ele>580.0</ele><time>2026-04-12T08:33:37.781Z</time></trkpt><trkpt lat="45.7025831" lon="11.2331517"><ele>583.0</ele><time>2026-04-12T08:33:38.781Z</time></trkpt><trkpt lat="45.7026" lon="11.2333047"><ele>583.4</ele><time>2026-04-12T08:33:39.78Z</time></trkpt><trkpt lat="45.7026103" lon="11.2334455"><ele>583.8</ele><time>2026-04-12T08:33:40.781Z</time></trkpt><trkpt lat="45.7026144" lon="11.2335724"><ele>584.2</ele><time>2026-04-12T08:33:41.78Z</time></trkpt><trkpt lat="45.7026152" lon="11.2337039"><ele>584.6</ele><time>2026-04-12T08:33:42.781Z</time></trkpt><trkpt lat="45.7026223" lon="11.2338302"><ele>585.0</ele><time>2026-04-12T08:33:43.781Z</time></trkpt><trkpt lat="45.702654" lon="11.233945"><ele>585.3333333333334</ele><time>2026-04-12T08:33:44.78Z</time></trkpt><trkpt lat="45.7026875" lon="11.2340519"><ele>585.6666666666666</ele><time>2026-04-12T08:33:45.781Z</time></trkpt><trkpt lat="45.7027023" lon="11.2341531"><ele>586.0</ele><time>2026-04-12T08:33:46.78Z</time></trkpt><trkpt lat="45.7027076" lon="11.2342618"><ele>586.3333333333333</ele><time>2026-04-12T08:33:47.781Z</time></trkpt><trkpt lat="45.7026875" lon="11.2343933"><ele>586.6666666666666</ele><time>2026-04-12T08:33:48.781Z</time></trkpt><trkpt lat="45.7026774" lon="11.2345156"><ele>587.0</ele><time>2026-04-12T08:33:49.781Z</time></trkpt><trkpt lat="45.7026732" lon="11.2346183"><ele>587.0</ele><time>2026-04-12T08:33:50.78Z</time></trkpt><trkpt lat="45.7026636" lon="11.2347124"><ele>587.0</ele><time>2026-04-12T08:33:51.78Z</time></trkpt><trkpt lat="45.702635" lon="11.2347935"><ele>587.0</ele><time>2026-04-12T08:33:52.78Z</time></trkpt><trkpt lat="45.7025948" lon="11.2348699"><ele>587.0</ele><time>2026-04-12T08:33:53.78Z</time></trkpt><trkpt lat="45.7025419" lon="11.2349405"><ele>587.0</ele><time>2026-04-12T08:33:54.78Z</time></trkpt><trkpt lat="45.7024478" lon="11.2350165"><ele>587.0</ele><time>2026-04-12T08:33:56.781Z</time></trkpt><trkpt lat="45.7023529" lon="11.2349446"><ele>587.0</ele><time>2026-04-12T08:33:58.781Z</time></trkpt><trkpt lat="45.7022691" lon="11.2348035"><ele>587.0</ele><time>2026-04-12T08:34:00.781Z</time></trkpt><trkpt lat="45.7022204" lon="11.2347276"><ele>587.0</ele><time>2026-04-12T08:34:01.781Z</time></trkpt><trkpt lat="45.7021596" lon="11.234671"><ele>587.0</ele><time>2026-04-12T08:34:02.781Z</time></trkpt><trkpt lat="45.7020958" lon="11.2346271"><ele>587.0</ele><time>2026-04-12T08:34:03.781Z</time></trkpt><trkpt lat="45.7020333" lon="11.2345969"><ele>587.0</ele><time>2026-04-12T08:34:04.781Z</time></trkpt><trkpt lat="45.7019318" lon="11.2345163"><ele>591.6</ele><time>2026-04-12T08:34:06.781Z</time></trkpt><trkpt lat="45.7018719" lon="11.2344198"><ele>596.2</ele><time>2026-04-12T08:34:08.781Z</time></trkpt><trkpt lat="45.7018102" lon="11.2343648"><ele>600.8</ele><time>2026-04-12T08:34:10.78Z</time></trkpt><trkpt lat="45.7017224" lon="11.2343122"><ele>605.4</ele><time>2026-04-12T08:34:12.78Z</time></trkpt><trkpt lat="45.7016211" lon="11.2343404"><ele>610.0</ele><time>2026-04-12T08:34:14.781Z</time></trkpt><trkpt lat="45.7015295" lon="11.2344159"><ele>610.0</ele><time>2026-04-12T08:34:16.78Z</time></trkpt><trkpt lat="45.7014454" lon="11.2345735"><ele>610.0</ele><time>2026-04-12T08:34:18.78Z</time></trkpt><trkpt lat="45.7014136" lon="11.2346723"><ele>610.0</ele><time>2026-04-12T08:34:19.781Z</time></trkpt><trkpt lat="45.7013991" lon="11.2347699"><ele>610.0</ele><time>2026-04-12T08:34:20.78Z</time></trkpt><trkpt lat="45.7013959" lon="11.2348776"><ele>610.0</ele><time>2026-04-12T08:34:21.78Z</time></trkpt><trkpt lat="45.7013904" lon="11.2349955"><ele>610.0</ele><time>2026-04-12T08:34:22.781Z</time></trkpt><trkpt lat="45.7013752" lon="11.2351166"><ele>609.0</ele><time>2026-04-12T08:34:23.781Z</time></trkpt><trkpt lat="45.7013669" lon="11.2352367"><ele>608.0</ele><time>2026-04-12T08:34:24.781Z</time></trkpt><trkpt lat="45.7013671" lon="11.235363"><ele>607.0</ele><time>2026-04-12T08:34:25.78Z</time></trkpt><trkpt lat="45.7013656" lon="11.2354978"><ele>606.0</ele><time>2026-04-12T08:34:26.78Z</time></trkpt><trkpt lat="45.70136" lon="11.2356119"><ele>605.0</ele><time>2026-04-12T08:34:27.78Z</time></trkpt><trkpt lat="45.7013485" lon="11.235713"><ele>604.0</ele><time>2026-04-12T08:34:28.78Z</time></trkpt><trkpt lat="45.7013285" lon="11.2357994"><ele>603.1666666666667</ele><time>2026-04-12T08:34:29.78Z</time></trkpt><trkpt lat="45.701295" lon="11.2358774"><ele>602.3333333333334</ele><time>2026-04-12T08:34:30.78Z</time></trkpt><trkpt lat="45.701242" lon="11.235928"><ele>601.5</ele><time>2026-04-12T08:34:31.781Z</time></trkpt><trkpt lat="45.7011244" lon="11.2360205"><ele>600.6666666666666</ele><time>2026-04-12T08:34:33.78Z</time></trkpt><trkpt lat="45.7010444" lon="11.2360537"><ele>599.8333333333333</ele><time>2026-04-12T08:34:34.781Z</time></trkpt><trkpt lat="45.7009601" lon="11.2360958"><ele>599.0</ele><time>2026-04-12T08:34:35.781Z</time></trkpt><trkpt lat="45.7008749" lon="11.2361359"><ele>603.8333333333333</ele><time>2026-04-12T08:34:36.781Z</time></trkpt><trkpt lat="45.7007944" lon="11.2361539"><ele>608.6666666666666</ele><time>2026-04-12T08:34:37.781Z</time></trkpt><trkpt lat="45.7007216" lon="11.2361509"><ele>613.5</ele><time>2026-04-12T08:34:38.781Z</time></trkpt><trkpt lat="45.7006057" lon="11.2361033"><ele>618.3333333333334</ele><time>2026-04-12T08:34:40.781Z</time></trkpt><trkpt lat="45.7005433" lon="11.2360535"><ele>623.1666666666667</ele><time>2026-04-12T08:34:41.781Z</time></trkpt><trkpt lat="45.7004793" lon="11.2359897"><ele>628.0</ele><time>2026-04-12T08:34:42.781Z</time></trkpt><trkpt lat="45.7004245" lon="11.2359231"><ele>628.0</ele><time>2026-04-12T08:34:43.781Z</time></trkpt><trkpt lat="45.7003705" lon="11.2358426"><ele>628.0</ele><time>2026-04-12T08:34:44.781Z</time></trkpt><trkpt lat="45.7003108" lon="11.2357612"><ele>628.0</ele><time>2026-04-12T08:34:45.781Z</time></trkpt><trkpt lat="45.7002463" lon="11.2356599"><ele>628.0</ele><time>2026-04-12T08:34:46.781Z</time></trkpt><trkpt lat="45.7001818" lon="11.2355449"><ele>628.0</ele><time>2026-04-12T08:34:47.781Z</time></trkpt><trkpt lat="45.7001297" lon="11.235432"><ele>632.3333333333334</ele><time>2026-04-12T08:34:48.781Z</time></trkpt><trkpt lat="45.7000652" lon="11.2353413"><ele>636.6666666666667</ele><time>2026-04-12T08:34:49.781Z</time></trkpt><trkpt lat="45.6999976" lon="11.2352633"><ele>641.0</ele><time>2026-04-12T08:34:50.781Z</time></trkpt><trkpt lat="45.6999324" lon="11.2351906"><ele>645.3333333333334</ele><time>2026-04-12T08:34:51.781Z</time></trkpt><trkpt lat="45.6998745" lon="11.2351181"><ele>649.6666666666666</ele><time>2026-04-12T08:34:52.781Z</time></trkpt><trkpt lat="45.6998193" lon="11.2350443"><ele>654.0</ele><time>2026-04-12T08:34:53.781Z</time></trkpt><trkpt lat="45.6997618" lon="11.2349646"><ele>654.0</ele><time>2026-04-12T08:34:54.781Z</time></trkpt><trkpt lat="45.6997113" lon="11.2348907"><ele>654.0</ele><time>2026-04-12T08:34:55.78Z</time></trkpt><trkpt lat="45.6996574" lon="11.2348061"><ele>654.0</ele><time>2026-04-12T08:34:56.78Z</time></trkpt><trkpt lat="45.6996067" lon="11.2347199"><ele>654.0</ele><time>2026-04-12T08:34:57.78Z</time></trkpt><trkpt lat="45.6995595" lon="11.2346261"><ele>654.0</ele><time>2026-04-12T08:34:58.78Z</time></trkpt><trkpt lat="45.6995057" lon="11.234536"><ele>654.0</ele><time>2026-04-12T08:34:59.78Z</time></trkpt><trkpt lat="45.6994467" lon="11.2344615"><ele>654.0</ele><time>2026-04-12T08:35:00.781Z</time></trkpt><trkpt lat="45.6993895" lon="11.234404"><ele>654.0</ele><time>2026-04-12T08:35:01.781Z</time></trkpt><trkpt lat="45.6992765" lon="11.2343724"><ele>654.0</ele><time>2026-04-12T08:35:03.781Z</time></trkpt><trkpt lat="45.6991809" lon="11.2345201"><ele>654.0</ele><time>2026-04-12T08:35:05.781Z</time></trkpt><trkpt lat="45.6991554" lon="11.2346768"><ele>654.0</ele><time>2026-04-12T08:35:06.781Z</time></trkpt><trkpt lat="45.6991107" lon="11.2348141"><ele>654.0</ele><time>2026-04-12T08:35:07.78Z</time></trkpt><trkpt lat="45.6990694" lon="11.2349261"><ele>654.0</ele><time>2026-04-12T08:35:08.781Z</time></trkpt><trkpt lat="45.6989587" lon="11.2349983"><ele>654.0</ele><time>2026-04-12T08:35:10.781Z</time></trkpt><trkpt lat="45.6988732" lon="11.2350109"><ele>654.0</ele><time>2026-04-12T08:35:11.78Z</time></trkpt><trkpt lat="45.6987722" lon="11.2350073"><ele>654.0</ele><time>2026-04-12T08:35:12.781Z</time></trkpt><trkpt lat="45.6986682" lon="11.2349917"><ele>654.0</ele><time>2026-04-12T08:35:13.781Z</time></trkpt><trkpt lat="45.6985723" lon="11.2349685"><ele>654.0</ele><time>2026-04-12T08:35:14.78Z</time></trkpt><trkpt lat="45.6984951" lon="11.2349393"><ele>654.0</ele><time>2026-04-12T08:35:15.781Z</time></trkpt><trkpt lat="45.6984485" lon="11.2348768"><ele>654.0</ele><time>2026-04-12T08:35:17.78Z</time></trkpt><trkpt lat="45.6985452" lon="11.2348574"><ele>654.0</ele><time>2026-04-12T08:35:20.781Z</time></trkpt><trkpt lat="45.6986122" lon="11.2348731"><ele>654.0</ele><time>2026-04-12T08:35:21.781Z</time></trkpt><trkpt lat="45.6986869" lon="11.234879"><ele>654.0</ele><time>2026-04-12T08:35:22.781Z</time></trkpt><trkpt lat="45.6987592" lon="11.2348638"><ele>654.0</ele><time>2026-04-12T08:35:23.78Z</time></trkpt><trkpt lat="45.6988247" lon="11.2348309"><ele>654.0</ele><time>2026-04-12T08:35:24.78Z</time></trkpt><trkpt lat="45.6988836" lon="11.2346742"><ele>654.0</ele><time>2026-04-12T08:35:26.781Z</time></trkpt><trkpt lat="45.6988895" lon="11.2345726"><ele>654.0</ele><time>2026-04-12T08:35:27.78Z</time></trkpt><trkpt lat="45.6988754" lon="11.2344304"><ele>654.0</ele><time>2026-04-12T08:35:29.78Z</time></trkpt><trkpt lat="45.698777" lon="11.2344583"><ele>657.8333333333334</ele><time>2026-04-12T08:35:32.781Z</time></trkpt><trkpt lat="45.6986734" lon="11.2345333"><ele>661.6666666666666</ele><time>2026-04-12T08:35:34.781Z</time></trkpt><trkpt lat="45.6986006" lon="11.2345458"><ele>665.5</ele><time>2026-04-12T08:35:35.781Z</time></trkpt><trkpt lat="45.6985239" lon="11.2345586"><ele>669.3333333333333</ele><time>2026-04-12T08:35:36.781Z</time></trkpt><trkpt lat="45.6984544" lon="11.234568"><ele>673.1666666666666</ele><time>2026-04-12T08:35:37.781Z</time></trkpt><trkpt lat="45.6983502" lon="11.234545"><ele>677.0</ele><time>2026-04-12T08:35:39.781Z</time></trkpt><trkpt lat="45.6983195" lon="11.234455"><ele>681.6666666666666</ele><time>2026-04-12T08:35:41.781Z</time></trkpt><trkpt lat="45.6983825" lon="11.2343783"><ele>686.3333333333333</ele><time>2026-04-12T08:35:43.781Z</time></trkpt><trkpt lat="45.6984398" lon="11.2343277"><ele>691.0</ele><time>2026-04-12T08:35:44.781Z</time></trkpt><trkpt lat="45.6984907" lon="11.2342496"><ele>695.6666666666666</ele><time>2026-04-12T08:35:45.78Z</time></trkpt><trkpt lat="45.698529" lon="11.2341465"><ele>700.3333333333334</ele><time>2026-04-12T08:35:46.781Z</time></trkpt><trkpt lat="45.6985533" lon="11.2340176"><ele>705.0</ele><time>2026-04-12T08:35:47.781Z</time></trkpt><trkpt lat="45.6985668" lon="11.2338921"><ele>705.4285714285713</ele><time>2026-04-12T08:35:48.781Z</time></trkpt><trkpt lat="45.6985903" lon="11.2337921"><ele>705.8571428571429</ele><time>2026-04-12T08:35:49.78Z</time></trkpt><trkpt lat="45.6986332" lon="11.2337166"><ele>706.2857142857142</ele><time>2026-04-12T08:35:50.781Z</time></trkpt><trkpt lat="45.6986844" lon="11.2336491"><ele>706.7142857142857</ele><time>2026-04-12T08:35:51.781Z</time></trkpt><trkpt lat="45.698736" lon="11.2335815"><ele>707.1428571428571</ele><time>2026-04-12T08:35:52.78Z</time></trkpt><trkpt lat="45.698796" lon="11.2335091"><ele>707.5714285714286</ele><time>2026-04-12T08:35:53.781Z</time></trkpt><trkpt lat="45.6988531" lon="11.2334351"><ele>708.0</ele><time>2026-04-12T08:35:54.781Z</time></trkpt><trkpt lat="45.6989078" lon="11.2333609"><ele>708.0</ele><time>2026-04-12T08:35:55.781Z</time></trkpt><trkpt lat="45.6989654" lon="11.2332912"><ele>708.0</ele><time>2026-04-12T08:35:56.781Z</time></trkpt><trkpt lat="45.6990223" lon="11.2332249"><ele>708.0</ele><time>2026-04-12T08:35:57.781Z</time></trkpt><trkpt lat="45.6990755" lon="11.2331686"><ele>708.0</ele><time>2026-04-12T08:35:58.78Z</time></trkpt><trkpt lat="45.6991788" lon="11.2331013"><ele>708.0</ele><time>2026-04-12T08:36:00.78Z</time></trkpt><trkpt lat="45.6992511" lon="11.2330219"><ele>708.0</ele><time>2026-04-12T08:36:02.78Z</time></trkpt><trkpt lat="45.6992339" lon="11.2328953"><ele>708.8333333333334</ele><time>2026-04-12T08:36:05.78Z</time></trkpt><trkpt lat="45.6991654" lon="11.2327623"><ele>709.6666666666666</ele><time>2026-04-12T08:36:07.78Z</time></trkpt><trkpt lat="45.6991258" lon="11.2326838"><ele>710.5</ele><time>2026-04-12T08:36:08.78Z</time></trkpt><trkpt lat="45.6990835" lon="11.2326057"><ele>711.3333333333333</ele><time>2026-04-12T08:36:09.781Z</time></trkpt><trkpt lat="45.6990321" lon="11.2325244"><ele>712.1666666666666</ele><time>2026-04-12T08:36:10.781Z</time></trkpt><trkpt lat="45.6989823" lon="11.2324397"><ele>713.0</ele><time>2026-04-12T08:36:11.78Z</time></trkpt><trkpt lat="45.6989405" lon="11.2323573"><ele>709.6666666666666</ele><time>2026-04-12T08:36:12.781Z</time></trkpt><trkpt lat="45.6988933" lon="11.2322678"><ele>706.3333333333333</ele><time>2026-04-12T08:36:13.78Z</time></trkpt><trkpt lat="45.6988423" lon="11.232173"><ele>703.0</ele><time>2026-04-12T08:36:14.781Z</time></trkpt><trkpt lat="45.6987879" lon="11.2320837"><ele>699.6666666666666</ele><time>2026-04-12T08:36:15.781Z</time></trkpt><trkpt lat="45.6987255" lon="11.2319992"><ele>696.3333333333334</ele><time>2026-04-12T08:36:16.781Z</time></trkpt><trkpt lat="45.6986644" lon="11.2319321"><ele>693.0</ele><time>2026-04-12T08:36:17.781Z</time></trkpt><trkpt lat="45.6985963" lon="11.2318755"><ele>698.7142857142857</ele><time>2026-04-12T08:36:18.781Z</time></trkpt><trkpt lat="45.6985357" lon="11.2318285"><ele>704.4285714285714</ele><time>2026-04-12T08:36:19.78Z</time></trkpt><trkpt lat="45.698469" lon="11.2317831"><ele>710.1428571428571</ele><time>2026-04-12T08:36:20.78Z</time></trkpt><trkpt lat="45.6984056" lon="11.2317602"><ele>715.8571428571429</ele><time>2026-04-12T08:36:21.78Z</time></trkpt><trkpt lat="45.6983357" lon="11.2317481"><ele>721.5714285714286</ele><time>2026-04-12T08:36:22.78Z</time></trkpt><trkpt lat="45.6982574" lon="11.2317499"><ele>727.2857142857142</ele><time>2026-04-12T08:36:23.78Z</time></trkpt><trkpt lat="45.6981691" lon="11.2317671"><ele>733.0</ele><time>2026-04-12T08:36:24.781Z</time></trkpt><trkpt lat="45.6980689" lon="11.2317929"><ele>732.9999999999999</ele><time>2026-04-12T08:36:25.78Z</time></trkpt><trkpt lat="45.6979816" lon="11.2318147"><ele>733.0</ele><time>2026-04-12T08:36:26.781Z</time></trkpt><trkpt lat="45.6979049" lon="11.231832"><ele>733.0</ele><time>2026-04-12T08:36:27.781Z</time></trkpt><trkpt lat="45.6978373" lon="11.2318199"><ele>733.0</ele><time>2026-04-12T08:36:28.781Z</time></trkpt><trkpt lat="45.6977721" lon="11.2317819"><ele>733.0</ele><time>2026-04-12T08:36:29.78Z</time></trkpt><trkpt lat="45.697705" lon="11.2317456"><ele>732.9999999999999</ele><time>2026-04-12T08:36:30.781Z</time></trkpt><trkpt lat="45.6976438" lon="11.2316956"><ele>733.0</ele><time>2026-04-12T08:36:31.781Z</time></trkpt><trkpt lat="45.6975933" lon="11.2316386"><ele>731.5</ele><time>2026-04-12T08:36:32.781Z</time></trkpt><trkpt lat="45.6975423" lon="11.2315787"><ele>730.0</ele><time>2026-04-12T08:36:33.781Z</time></trkpt><trkpt lat="45.6974938" lon="11.2315033"><ele>728.5</ele><time>2026-04-12T08:36:34.781Z</time></trkpt><trkpt lat="45.6973876" lon="11.2314161"><ele>727.0</ele><time>2026-04-12T08:36:36.781Z</time></trkpt><trkpt lat="45.697323" lon="11.231385"><ele>725.5</ele><time>2026-04-12T08:36:37.781Z</time></trkpt><trkpt lat="45.6972441" lon="11.2313564"><ele>724.0</ele><time>2026-04-12T08:36:38.78Z</time></trkpt><trkpt lat="45.6971678" lon="11.2313225"><ele>724.0</ele><time>2026-04-12T08:36:39.78Z</time></trkpt><trkpt lat="45.6970878" lon="11.2312745"><ele>724.0</ele><time>2026-04-12T08:36:40.781Z</time></trkpt><trkpt lat="45.6970061" lon="11.231214"><ele>724.0</ele><time>2026-04-12T08:36:41.781Z</time></trkpt><trkpt lat="45.6969297" lon="11.2311503"><ele>724.0</ele><time>2026-04-12T08:36:42.781Z</time></trkpt><trkpt lat="45.6968549" lon="11.2310958"><ele>724.0</ele><time>2026-04-12T08:36:43.781Z</time></trkpt><trkpt lat="45.6967827" lon="11.2310526"><ele>724.0</ele><time>2026-04-12T08:36:44.78Z</time></trkpt><trkpt lat="45.6967046" lon="11.2310285"><ele>729.2</ele><time>2026-04-12T08:36:45.781Z</time></trkpt><trkpt lat="45.6966181" lon="11.2310172"><ele>734.4000000000001</ele><time>2026-04-12T08:36:46.781Z</time></trkpt><trkpt lat="45.6965193" lon="11.2310016"><ele>739.6</ele><time>2026-04-12T08:36:47.781Z</time></trkpt><trkpt lat="45.6964233" lon="11.2309747"><ele>744.8</ele><time>2026-04-12T08:36:48.78Z</time></trkpt><trkpt lat="45.6963284" lon="11.2309469"><ele>750.0</ele><time>2026-04-12T08:36:49.781Z</time></trkpt><trkpt lat="45.6962369" lon="11.2309004"><ele>750.0</ele><time>2026-04-12T08:36:50.78Z</time></trkpt><trkpt lat="45.6961526" lon="11.2308285"><ele>750.0</ele><time>2026-04-12T08:36:51.781Z</time></trkpt><trkpt lat="45.6960666" lon="11.230754"><ele>750.0</ele><time>2026-04-12T08:36:52.78Z</time></trkpt><trkpt lat="45.6959816" lon="11.2306837"><ele>750.0</ele><time>2026-04-12T08:36:53.781Z</time></trkpt><trkpt lat="45.6959044" lon="11.230622"><ele>750.0</ele><time>2026-04-12T08:36:54.781Z</time></trkpt><trkpt lat="45.6958383" lon="11.2305584"><ele>752.6666666666666</ele><time>2026-04-12T08:36:55.78Z</time></trkpt><trkpt lat="45.6957787" lon="11.2304972"><ele>755.3333333333334</ele><time>2026-04-12T08:36:56.78Z</time></trkpt><trkpt lat="45.6957212" lon="11.2304291"><ele>758.0</ele><time>2026-04-12T08:36:57.78Z</time></trkpt><trkpt lat="45.6956646" lon="11.2303571"><ele>760.6666666666667</ele><time>2026-04-12T08:36:58.779Z</time></trkpt><trkpt lat="45.6956093" lon="11.2302778"><ele>763.3333333333334</ele><time>2026-04-12T08:36:59.779Z</time></trkpt><trkpt lat="45.6955633" lon="11.2301835"><ele>766.0</ele><time>2026-04-12T08:37:00.78Z</time></trkpt><trkpt lat="45.6955251" lon="11.230078"><ele>766.0</ele><time>2026-04-12T08:37:01.779Z</time></trkpt><trkpt lat="45.6954864" lon="11.2299508"><ele>766.0</ele><time>2026-04-12T08:37:02.78Z</time></trkpt><trkpt lat="45.6954578" lon="11.2298097"><ele>766.0</ele><time>2026-04-12T08:37:03.78Z</time></trkpt><trkpt lat="45.6954492" lon="11.2296573"><ele>766.0</ele><time>2026-04-12T08:37:04.779Z</time></trkpt><trkpt lat="45.6954408" lon="11.2295257"><ele>766.0</ele><time>2026-04-12T08:37:05.779Z</time></trkpt><trkpt lat="45.6954376" lon="11.2294226"><ele>766.0</ele><time>2026-04-12T08:37:06.78Z</time></trkpt><trkpt lat="45.6954204" lon="11.2292879"><ele>766.0</ele><time>2026-04-12T08:37:08.779Z</time></trkpt><trkpt lat="45.6954164" lon="11.2294128"><ele>766.0</ele><time>2026-04-12T08:37:12.779Z</time></trkpt><trkpt lat="45.6954431" lon="11.2295616"><ele>766.0</ele><time>2026-04-12T08:37:13.779Z</time></trkpt><trkpt lat="45.6954322" lon="11.2297008"><ele>766.0</ele><time>2026-04-12T08:37:14.78Z</time></trkpt><trkpt lat="45.6954168" lon="11.2298343"><ele>766.0</ele><time>2026-04-12T08:37:15.78Z</time></trkpt><trkpt lat="45.6953912" lon="11.2299849"><ele>766.0</ele><time>2026-04-12T08:37:16.78Z</time></trkpt><trkpt lat="45.6953699" lon="11.230139"><ele>766.0</ele><time>2026-04-12T08:37:17.779Z</time></trkpt><trkpt lat="45.6953815" lon="11.2302886"><ele>766.0</ele><time>2026-04-12T08:37:18.779Z</time></trkpt><trkpt lat="45.6953977" lon="11.230434"><ele>766.0</ele><time>2026-04-12T08:37:19.78Z</time></trkpt><trkpt lat="45.6954092" lon="11.2305645"><ele>769.8333333333334</ele><time>2026-04-12T08:37:20.779Z</time></trkpt><trkpt lat="45.6954312" lon="11.2306773"><ele>773.6666666666667</ele><time>2026-04-12T08:37:21.78Z</time></trkpt><trkpt lat="45.6954636" lon="11.2307713"><ele>777.5</ele><time>2026-04-12T08:37:22.78Z</time></trkpt><trkpt lat="45.6954972" lon="11.2308655"><ele>781.3333333333334</ele><time>2026-04-12T08:37:23.78Z</time></trkpt><trkpt lat="45.6955363" lon="11.2309668"><ele>785.1666666666666</ele><time>2026-04-12T08:37:24.78Z</time></trkpt><trkpt lat="45.6955724" lon="11.2310831"><ele>789.0</ele><time>2026-04-12T08:37:25.779Z</time></trkpt><trkpt lat="45.6956036" lon="11.2312204"><ele>789.0</ele><time>2026-04-12T08:37:26.779Z</time></trkpt><trkpt lat="45.6956367" lon="11.2313656"><ele>789.0</ele><time>2026-04-12T08:37:27.78Z</time></trkpt><trkpt lat="45.6956678" lon="11.2314915"><ele>789.0</ele><time>2026-04-12T08:37:28.78Z</time></trkpt><trkpt lat="45.6957044" lon="11.2315993"><ele>789.0</ele><time>2026-04-12T08:37:29.779Z</time></trkpt><trkpt lat="45.6957518" lon="11.2316868"><ele>789.0</ele><time>2026-04-12T08:37:30.78Z</time></trkpt><trkpt lat="45.6958014" lon="11.2317567"><ele>789.0</ele><time>2026-04-12T08:37:31.779Z</time></trkpt><trkpt lat="45.6958571" lon="11.2318073"><ele>787.5</ele><time>2026-04-12T08:37:32.779Z</time></trkpt><trkpt lat="45.6959259" lon="11.231846"><ele>786.0</ele><time>2026-04-12T08:37:33.78Z</time></trkpt><trkpt lat="45.6960015" lon="11.2318877"><ele>784.5</ele><time>2026-04-12T08:37:34.779Z</time></trkpt><trkpt lat="45.6960814" lon="11.2319266"><ele>783.0</ele><time>2026-04-12T08:37:35.78Z</time></trkpt><trkpt lat="45.6961449" lon="11.2319788"><ele>781.5</ele><time>2026-04-12T08:37:36.779Z</time></trkpt><trkpt lat="45.6962031" lon="11.2320494"><ele>780.0</ele><time>2026-04-12T08:37:37.78Z</time></trkpt><trkpt lat="45.6962488" lon="11.2321191"><ele>780.0</ele><time>2026-04-12T08:37:38.779Z</time></trkpt><trkpt lat="45.696294" lon="11.2321961"><ele>780.0</ele><time>2026-04-12T08:37:39.78Z</time></trkpt><trkpt lat="45.6963446" lon="11.2322767"><ele>780.0</ele><time>2026-04-12T08:37:40.779Z</time></trkpt><trkpt lat="45.6963945" lon="11.2323495"><ele>780.0</ele><time>2026-04-12T08:37:41.779Z</time></trkpt><trkpt lat="45.6964292" lon="11.2324323"><ele>780.0</ele><time>2026-04-12T08:37:42.78Z</time></trkpt><trkpt lat="45.6964553" lon="11.2325165"><ele>780.0</ele><time>2026-04-12T08:37:43.779Z</time></trkpt><trkpt lat="45.696472" lon="11.2326137"><ele>780.0</ele><time>2026-04-12T08:37:44.779Z</time></trkpt><trkpt lat="45.6964985" lon="11.2327084"><ele>783.6666666666666</ele><time>2026-04-12T08:37:45.78Z</time></trkpt><trkpt lat="45.6965255" lon="11.2328102"><ele>787.3333333333333</ele><time>2026-04-12T08:37:46.78Z</time></trkpt><trkpt lat="45.6965413" lon="11.2329022"><ele>791.0</ele><time>2026-04-12T08:37:47.78Z</time></trkpt><trkpt lat="45.6965422" lon="11.2329928"><ele>794.6666666666666</ele><time>2026-04-12T08:37:48.78Z</time></trkpt><trkpt lat="45.6965271" lon="11.2331646"><ele>798.3333333333333</ele><time>2026-04-12T08:37:50.778Z</time></trkpt><trkpt lat="45.6965213" lon="11.233314"><ele>802.0</ele><time>2026-04-12T08:37:52.78Z</time></trkpt><trkpt lat="45.6965074" lon="11.2334361"><ele>803.1666666666666</ele><time>2026-04-12T08:37:54.779Z</time></trkpt><trkpt lat="45.6964669" lon="11.2335081"><ele>804.3333333333333</ele><time>2026-04-12T08:37:57.78Z</time></trkpt><trkpt lat="45.6964045" lon="11.2335789"><ele>805.5</ele><time>2026-04-12T08:38:00.779Z</time></trkpt><trkpt lat="45.6963593" lon="11.2336554"><ele>806.6666666666667</ele><time>2026-04-12T08:38:02.779Z</time></trkpt><trkpt lat="45.6962353" lon="11.2336925"><ele>807.8333333333334</ele><time>2026-04-12T08:38:04.779Z</time></trkpt><trkpt lat="45.6961486" lon="11.2337225"><ele>809.0</ele><time>2026-04-12T08:38:05.78Z</time></trkpt><trkpt lat="45.6960601" lon="11.2337744"><ele>812.3333333333334</ele><time>2026-04-12T08:38:06.779Z</time></trkpt><trkpt lat="45.6959753" lon="11.2338397"><ele>815.6666666666667</ele><time>2026-04-12T08:38:07.78Z</time></trkpt><trkpt lat="45.6958972" lon="11.2339138"><ele>819.0</ele><time>2026-04-12T08:38:08.78Z</time></trkpt><trkpt lat="45.6958267" lon="11.2339938"><ele>822.3333333333333</ele><time>2026-04-12T08:38:09.779Z</time></trkpt><trkpt lat="45.6957622" lon="11.2340755"><ele>825.6666666666666</ele><time>2026-04-12T08:38:10.779Z</time></trkpt><trkpt lat="45.6957131" lon="11.2341651"><ele>829.0</ele><time>2026-04-12T08:38:11.779Z</time></trkpt><trkpt lat="45.6956689" lon="11.2342456"><ele>828.9999999999999</ele><time>2026-04-12T08:38:12.78Z</time></trkpt><trkpt lat="45.6956232" lon="11.2343135"><ele>829.0</ele><time>2026-04-12T08:38:13.78Z</time></trkpt><trkpt lat="45.6955667" lon="11.2343536"><ele>829.0</ele><time>2026-04-12T08:38:14.78Z</time></trkpt><trkpt lat="45.6954976" lon="11.2343797"><ele>829.0</ele><time>2026-04-12T08:38:15.779Z</time></trkpt><trkpt lat="45.6954136" lon="11.2344001"><ele>828.9999999999999</ele><time>2026-04-12T08:38:16.779Z</time></trkpt><trkpt lat="45.6953063" lon="11.2344234"><ele>829.0</ele><time>2026-04-12T08:38:17.779Z</time></trkpt><trkpt lat="45.6951974" lon="11.2344499"><ele>833.6</ele><time>2026-04-12T08:38:18.78Z</time></trkpt><trkpt lat="45.695089" lon="11.2344569"><ele>838.2</ele><time>2026-04-12T08:38:19.78Z</time></trkpt><trkpt lat="45.6949909" lon="11.2344454"><ele>842.8000000000001</ele><time>2026-04-12T08:38:20.78Z</time></trkpt><trkpt lat="45.6948983" lon="11.2344125"><ele>847.4000000000001</ele><time>2026-04-12T08:38:21.779Z</time></trkpt><trkpt lat="45.6948062" lon="11.2343661"><ele>852.0</ele><time>2026-04-12T08:38:22.779Z</time></trkpt><trkpt lat="45.6947229" lon="11.2343276"><ele>852.0</ele><time>2026-04-12T08:38:23.78Z</time></trkpt><trkpt lat="45.6946556" lon="11.2342919"><ele>852.0</ele><time>2026-04-12T08:38:24.78Z</time></trkpt><trkpt lat="45.694594" lon="11.2342659"><ele>852.0</ele><time>2026-04-12T08:38:25.78Z</time></trkpt><trkpt lat="45.6944776" lon="11.2342707"><ele>852.0</ele><time>2026-04-12T08:38:27.78Z</time></trkpt><trkpt lat="45.6944148" lon="11.2343087"><ele>852.0</ele><time>2026-04-12T08:38:28.78Z</time></trkpt><trkpt lat="45.6943402" lon="11.2343667"><ele>852.0</ele><time>2026-04-12T08:38:29.779Z</time></trkpt><trkpt lat="45.694274" lon="11.2344339"><ele>851.9999999999999</ele><time>2026-04-12T08:38:30.779Z</time></trkpt><trkpt lat="45.6942119" lon="11.2345007"><ele>852.0</ele><time>2026-04-12T08:38:31.78Z</time></trkpt><trkpt lat="45.6941555" lon="11.2345478"><ele>852.0</ele><time>2026-04-12T08:38:32.78Z</time></trkpt><trkpt lat="45.6940914" lon="11.2345774"><ele>852.0</ele><time>2026-04-12T08:38:33.78Z</time></trkpt><trkpt lat="45.6940198" lon="11.2345908"><ele>852.0</ele><time>2026-04-12T08:38:34.78Z</time></trkpt><trkpt lat="45.6939457" lon="11.2345897"><ele>851.9999999999999</ele><time>2026-04-12T08:38:35.779Z</time></trkpt><trkpt lat="45.6938603" lon="11.2345813"><ele>852.0</ele><time>2026-04-12T08:38:36.78Z</time></trkpt><trkpt lat="45.693782" lon="11.2345997"><ele>852.0</ele><time>2026-04-12T08:38:37.78Z</time></trkpt><trkpt lat="45.6937131" lon="11.2346295"><ele>852.0</ele><time>2026-04-12T08:38:38.78Z</time></trkpt><trkpt lat="45.6936538" lon="11.2346668"><ele>852.0</ele><time>2026-04-12T08:38:39.78Z</time></trkpt><trkpt lat="45.6935477" lon="11.2347206"><ele>852.0</ele><time>2026-04-12T08:38:41.779Z</time></trkpt><trkpt lat="45.6934675" lon="11.2347176"><ele>852.0</ele><time>2026-04-12T08:38:43.779Z</time></trkpt><trkpt lat="45.6934058" lon="11.2346482"><ele>852.0</ele><time>2026-04-12T08:38:45.78Z</time></trkpt><trkpt lat="45.6933745" lon="11.234533"><ele>854.0</ele><time>2026-04-12T08:38:47.78Z</time></trkpt><trkpt lat="45.6933712" lon="11.2343698"><ele>856.0</ele><time>2026-04-12T08:38:49.78Z</time></trkpt><trkpt lat="45.6933702" lon="11.2342637"><ele>858.0</ele><time>2026-04-12T08:38:50.78Z</time></trkpt><trkpt lat="45.69335" lon="11.2341637"><ele>860.0</ele><time>2026-04-12T08:38:51.78Z</time></trkpt><trkpt lat="45.6932859" lon="11.2340433"><ele>862.0</ele><time>2026-04-12T08:38:53.78Z</time></trkpt><trkpt lat="45.6931812" lon="11.2339973"><ele>861.9999999999999</ele><time>2026-04-12T08:38:55.78Z</time></trkpt><trkpt lat="45.693104" lon="11.233994"><ele>862.0</ele><time>2026-04-12T08:38:56.78Z</time></trkpt><trkpt lat="45.6930209" lon="11.2339957"><ele>862.0</ele><time>2026-04-12T08:38:57.779Z</time></trkpt><trkpt lat="45.6929371" lon="11.2340075"><ele>862.0</ele><time>2026-04-12T08:38:58.78Z</time></trkpt><trkpt lat="45.6928549" lon="11.2340241"><ele>861.9999999999999</ele><time>2026-04-12T08:38:59.78Z</time></trkpt><trkpt lat="45.69277" lon="11.2340343"><ele>862.0</ele><time>2026-04-12T08:39:00.78Z</time></trkpt><trkpt lat="45.6926794" lon="11.2340436"><ele>865.8</ele><time>2026-04-12T08:39:01.779Z</time></trkpt><trkpt lat="45.6925849" lon="11.234057"><ele>869.6</ele><time>2026-04-12T08:39:02.78Z</time></trkpt><trkpt lat="45.6924843" lon="11.2340747"><ele>873.3999999999999</ele><time>2026-04-12T08:39:03.78Z</time></trkpt><trkpt lat="45.6923859" lon="11.234088"><ele>877.1999999999999</ele><time>2026-04-12T08:39:04.78Z</time></trkpt><trkpt lat="45.6922934" lon="11.234105"><ele>881.0</ele><time>2026-04-12T08:39:05.78Z</time></trkpt><trkpt lat="45.6922002" lon="11.2341319"><ele>881.0000000000001</ele><time>2026-04-12T08:39:06.78Z</time></trkpt><trkpt lat="45.6921044" lon="11.2341617"><ele>881.0</ele><time>2026-04-12T08:39:07.779Z</time></trkpt><trkpt lat="45.6920137" lon="11.2342032"><ele>881.0</ele><time>2026-04-12T08:39:08.78Z</time></trkpt><trkpt lat="45.691935" lon="11.2342503"><ele>881.0</ele><time>2026-04-12T08:39:09.779Z</time></trkpt><trkpt lat="45.6918656" lon="11.2343153"><ele>881.0000000000001</ele><time>2026-04-12T08:39:10.78Z</time></trkpt><trkpt lat="45.6918088" lon="11.234384"><ele>881.0</ele><time>2026-04-12T08:39:11.78Z</time></trkpt><trkpt lat="45.6917258" lon="11.2344926"><ele>881.0000000000001</ele><time>2026-04-12T08:39:13.78Z</time></trkpt><trkpt lat="45.6916771" lon="11.234415"><ele>881.0</ele><time>2026-04-12T08:39:17.78Z</time></trkpt><trkpt lat="45.6917313" lon="11.2343289"><ele>881.0</ele><time>2026-04-12T08:39:19.78Z</time></trkpt><trkpt lat="45.6918188" lon="11.234214"><ele>881.0</ele><time>2026-04-12T08:39:21.779Z</time></trkpt><trkpt lat="45.6918657" lon="11.2341409"><ele>881.0000000000001</ele><time>2026-04-12T08:39:22.78Z</time></trkpt><trkpt lat="45.6919163" lon="11.2340781"><ele>881.0</ele><time>2026-04-12T08:39:23.78Z</time></trkpt><trkpt lat="45.6919742" lon="11.2340093"><ele>887.1999999999999</ele><time>2026-04-12T08:39:24.779Z</time></trkpt><trkpt lat="45.6920378" lon="11.2339299"><ele>893.3999999999999</ele><time>2026-04-12T08:39:25.78Z</time></trkpt><trkpt lat="45.6921014" lon="11.2338516"><ele>899.6</ele><time>2026-04-12T08:39:26.78Z</time></trkpt><trkpt lat="45.6921718" lon="11.233761"><ele>905.8</ele><time>2026-04-12T08:39:27.78Z</time></trkpt><trkpt lat="45.6922492" lon="11.2336694"><ele>912.0</ele><time>2026-04-12T08:39:28.78Z</time></trkpt><trkpt lat="45.6923219" lon="11.2335833"><ele>912.0</ele><time>2026-04-12T08:39:29.78Z</time></trkpt><trkpt lat="45.6923917" lon="11.2335"><ele>912.0</ele><time>2026-04-12T08:39:30.78Z</time></trkpt><trkpt lat="45.6924478" lon="11.2334163"><ele>912.0</ele><time>2026-04-12T08:39:31.779Z</time></trkpt><trkpt lat="45.6924914" lon="11.2333286"><ele>912.0</ele><time>2026-04-12T08:39:32.78Z</time></trkpt><trkpt lat="45.6925335" lon="11.2332354"><ele>912.0</ele><time>2026-04-12T08:39:33.78Z</time></trkpt><trkpt lat="45.6925768" lon="11.2331307"><ele>912.0</ele><time>2026-04-12T08:39:34.78Z</time></trkpt><trkpt lat="45.692617" lon="11.23302"><ele>911.6666666666666</ele><time>2026-04-12T08:39:35.779Z</time></trkpt><trkpt lat="45.6926539" lon="11.2329153"><ele>911.3333333333333</ele><time>2026-04-12T08:39:36.78Z</time></trkpt><trkpt lat="45.6926963" lon="11.2328174"><ele>911.0</ele><time>2026-04-12T08:39:37.779Z</time></trkpt><trkpt lat="45.6927531" lon="11.2327333"><ele>910.6666666666666</ele><time>2026-04-12T08:39:38.78Z</time></trkpt><trkpt lat="45.6928079" lon="11.2326593"><ele>910.3333333333333</ele><time>2026-04-12T08:39:39.779Z</time></trkpt><trkpt lat="45.6928632" lon="11.2325886"><ele>910.0</ele><time>2026-04-12T08:39:40.78Z</time></trkpt><trkpt lat="45.6929145" lon="11.2325074"><ele>909.9999999999999</ele><time>2026-04-12T08:39:41.779Z</time></trkpt><trkpt lat="45.6929556" lon="11.2324382"><ele>910.0</ele><time>2026-04-12T08:39:42.779Z</time></trkpt><trkpt lat="45.6930224" lon="11.232299"><ele>910.0</ele><time>2026-04-12T08:39:44.779Z</time></trkpt><trkpt lat="45.6930539" lon="11.232203"><ele>910.0</ele><time>2026-04-12T08:39:45.78Z</time></trkpt><trkpt lat="45.6930837" lon="11.2321013"><ele>909.9999999999999</ele><time>2026-04-12T08:39:46.78Z</time></trkpt><trkpt lat="45.6931198" lon="11.2319981"><ele>910.0</ele><time>2026-04-12T08:39:47.779Z</time></trkpt><trkpt lat="45.6931621" lon="11.2318888"><ele>915.0</ele><time>2026-04-12T08:39:48.78Z</time></trkpt><trkpt lat="45.6932119" lon="11.2317686"><ele>920.0</ele><time>2026-04-12T08:39:49.779Z</time></trkpt><trkpt lat="45.6932657" lon="11.2316465"><ele>925.0</ele><time>2026-04-12T08:39:50.78Z</time></trkpt><trkpt lat="45.6933279" lon="11.231514"><ele>930.0</ele><time>2026-04-12T08:39:51.779Z</time></trkpt><trkpt lat="45.6933854" lon="11.2313961"><ele>935.0</ele><time>2026-04-12T08:39:52.779Z</time></trkpt><trkpt lat="45.6934498" lon="11.2312939"><ele>940.3333333333334</ele><time>2026-04-12T08:39:53.779Z</time></trkpt><trkpt lat="45.6935146" lon="11.2311912"><ele>945.6666666666667</ele><time>2026-04-12T08:39:54.779Z</time></trkpt><trkpt lat="45.6935778" lon="11.2310772"><ele>951.0</ele><time>2026-04-12T08:39:55.78Z</time></trkpt><trkpt lat="45.6936304" lon="11.2309694"><ele>956.3333333333333</ele><time>2026-04-12T08:39:56.779Z</time></trkpt><trkpt lat="45.6936704" lon="11.2308777"><ele>961.6666666666666</ele><time>2026-04-12T08:39:57.78Z</time></trkpt><trkpt lat="45.6937046" lon="11.2308017"><ele>967.0</ele><time>2026-04-12T08:39:58.779Z</time></trkpt><trkpt lat="45.6937443" lon="11.2306526"><ele>967.8</ele><time>2026-04-12T08:40:00.779Z</time></trkpt><trkpt lat="45.693743" lon="11.2304997"><ele>968.6</ele><time>2026-04-12T08:40:02.779Z</time></trkpt><trkpt lat="45.6937094" lon="11.2303595"><ele>969.3999999999999</ele><time>2026-04-12T08:40:04.779Z</time></trkpt><trkpt lat="45.693658" lon="11.2302525"><ele>970.1999999999999</ele><time>2026-04-12T08:40:06.779Z</time></trkpt><trkpt lat="45.6935861" lon="11.2301584"><ele>971.0</ele><time>2026-04-12T08:40:08.779Z</time></trkpt><trkpt lat="45.6935357" lon="11.2300805"><ele>971.0000000000001</ele><time>2026-04-12T08:40:10.779Z</time></trkpt><trkpt lat="45.6934909" lon="11.2299578"><ele>971.0</ele><time>2026-04-12T08:40:13.779Z</time></trkpt><trkpt lat="45.6934787" lon="11.2298244"><ele>971.0</ele><time>2026-04-12T08:40:15.779Z</time></trkpt><trkpt lat="45.6934761" lon="11.2297042"><ele>971.0</ele><time>2026-04-12T08:40:17.78Z</time></trkpt><trkpt lat="45.6935095" lon="11.2295992"><ele>971.0000000000001</ele><time>2026-04-12T08:40:19.78Z</time></trkpt><trkpt lat="45.6935406" lon="11.2294909"><ele>971.0</ele><time>2026-04-12T08:40:21.78Z</time></trkpt><trkpt lat="45.6935446" lon="11.2293489"><ele>970.5000000000001</ele><time>2026-04-12T08:40:23.779Z</time></trkpt><trkpt lat="45.6935288" lon="11.2292615"><ele>970.0</ele><time>2026-04-12T08:40:24.779Z</time></trkpt><trkpt lat="45.6935187" lon="11.2291517"><ele>969.5</ele><time>2026-04-12T08:40:25.78Z</time></trkpt><trkpt lat="45.693505" lon="11.2290364"><ele>969.0</ele><time>2026-04-12T08:40:26.779Z</time></trkpt><trkpt lat="45.6934891" lon="11.2289327"><ele>968.5000000000001</ele><time>2026-04-12T08:40:27.779Z</time></trkpt><trkpt lat="45.6934806" lon="11.2288404"><ele>968.0</ele><time>2026-04-12T08:40:28.779Z</time></trkpt><trkpt lat="45.6934715" lon="11.2286883"><ele>965.6666666666667</ele><time>2026-04-12T08:40:30.779Z</time></trkpt><trkpt lat="45.6934641" lon="11.2285171"><ele>963.3333333333334</ele><time>2026-04-12T08:40:32.779Z</time></trkpt><trkpt lat="45.6934468" lon="11.2284039"><ele>961.0</ele><time>2026-04-12T08:40:33.779Z</time></trkpt><trkpt lat="45.693425" lon="11.2282928"><ele>958.6666666666667</ele><time>2026-04-12T08:40:34.78Z</time></trkpt><trkpt lat="45.6933775" lon="11.2281926"><ele>956.3333333333334</ele><time>2026-04-12T08:40:35.779Z</time></trkpt><trkpt lat="45.6933311" lon="11.2280998"><ele>954.0</ele><time>2026-04-12T08:40:36.78Z</time></trkpt><trkpt lat="45.6932915" lon="11.2280164"><ele>947.4000000000001</ele><time>2026-04-12T08:40:37.78Z</time></trkpt><trkpt lat="45.6932256" lon="11.2278866"><ele>940.8000000000001</ele><time>2026-04-12T08:40:39.78Z</time></trkpt><trkpt lat="45.6931466" lon="11.2278213"><ele>934.1999999999999</ele><time>2026-04-12T08:40:41.779Z</time></trkpt><trkpt lat="45.6930688" lon="11.2277776"><ele>927.5999999999999</ele><time>2026-04-12T08:40:43.779Z</time></trkpt><trkpt lat="45.6930033" lon="11.2277178"><ele>921.0</ele><time>2026-04-12T08:40:45.779Z</time></trkpt><trkpt lat="45.6929389" lon="11.2276343"><ele>921.0</ele><time>2026-04-12T08:40:47.779Z</time></trkpt><trkpt lat="45.69285" lon="11.2275623"><ele>920.9999999999999</ele><time>2026-04-12T08:40:49.78Z</time></trkpt><trkpt lat="45.6927377" lon="11.2274983"><ele>920.9999999999999</ele><time>2026-04-12T08:40:51.779Z</time></trkpt><trkpt lat="45.6926764" lon="11.2274667"><ele>921.0</ele><time>2026-04-12T08:40:52.779Z</time></trkpt><trkpt lat="45.6925688" lon="11.2273825"><ele>921.0</ele><time>2026-04-12T08:40:54.78Z</time></trkpt><trkpt lat="45.6925086" lon="11.2273315"><ele>922.6666666666666</ele><time>2026-04-12T08:40:55.78Z</time></trkpt><trkpt lat="45.6924395" lon="11.2272724"><ele>924.3333333333333</ele><time>2026-04-12T08:40:56.779Z</time></trkpt><trkpt lat="45.6923767" lon="11.2272246"><ele>926.0</ele><time>2026-04-12T08:40:57.78Z</time></trkpt><trkpt lat="45.692318" lon="11.2271714"><ele>927.6666666666666</ele><time>2026-04-12T08:40:58.78Z</time></trkpt><trkpt lat="45.6922594" lon="11.2271192"><ele>929.3333333333333</ele><time>2026-04-12T08:40:59.78Z</time></trkpt><trkpt lat="45.6921548" lon="11.2270209"><ele>931.0</ele><time>2026-04-12T08:41:01.78Z</time></trkpt><trkpt lat="45.6920925" lon="11.2269775"><ele>930.9999999999999</ele><time>2026-04-12T08:41:02.779Z</time></trkpt><trkpt lat="45.6920268" lon="11.2269497"><ele>931.0</ele><time>2026-04-12T08:41:03.78Z</time></trkpt><trkpt lat="45.6919627" lon="11.2269365"><ele>931.0</ele><time>2026-04-12T08:41:04.78Z</time></trkpt><trkpt lat="45.6918963" lon="11.2269205"><ele>931.0</ele><time>2026-04-12T08:41:05.779Z</time></trkpt><trkpt lat="45.691823" lon="11.2269007"><ele>930.9999999999999</ele><time>2026-04-12T08:41:06.78Z</time></trkpt><trkpt lat="45.6917483" lon="11.2268533"><ele>931.0</ele><time>2026-04-12T08:41:07.779Z</time></trkpt><trkpt lat="45.6916542" lon="11.2267731"><ele>933.8</ele><time>2026-04-12T08:41:09.78Z</time></trkpt><trkpt lat="45.6915923" lon="11.2266384"><ele>936.5999999999999</ele><time>2026-04-12T08:41:11.779Z</time></trkpt><trkpt lat="45.6915292" lon="11.2265021"><ele>939.4</ele><time>2026-04-12T08:41:13.779Z</time></trkpt><trkpt lat="45.6914494" lon="11.2263928"><ele>942.2</ele><time>2026-04-12T08:41:15.78Z</time></trkpt><trkpt lat="45.691373" lon="11.226293"><ele>945.0</ele><time>2026-04-12T08:41:17.779Z</time></trkpt><trkpt lat="45.6913142" lon="11.2262152"><ele>945.0</ele><time>2026-04-12T08:41:19.78Z</time></trkpt><trkpt lat="45.6912638" lon="11.226081"><ele>945.0</ele><time>2026-04-12T08:41:21.78Z</time></trkpt><trkpt lat="45.6912541" lon="11.2259907"><ele>945.0</ele><time>2026-04-12T08:41:22.779Z</time></trkpt><trkpt lat="45.6912377" lon="11.2258142"><ele>945.0</ele><time>2026-04-12T08:41:24.78Z</time></trkpt><trkpt lat="45.6912466" lon="11.2256411"><ele>945.0</ele><time>2026-04-12T08:41:26.78Z</time></trkpt><trkpt lat="45.6911897" lon="11.2255686"><ele>940.6666666666666</ele><time>2026-04-12T08:41:27.78Z</time></trkpt><trkpt lat="45.6911201" lon="11.2255077"><ele>936.3333333333333</ele><time>2026-04-12T08:41:28.78Z</time></trkpt><trkpt lat="45.6910458" lon="11.2254538"><ele>932.0</ele><time>2026-04-12T08:41:29.779Z</time></trkpt><trkpt lat="45.690967" lon="11.2254153"><ele>927.6666666666666</ele><time>2026-04-12T08:41:30.78Z</time></trkpt><trkpt lat="45.6908961" lon="11.2253799"><ele>923.3333333333333</ele><time>2026-04-12T08:41:31.78Z</time></trkpt><trkpt lat="45.6908238" lon="11.2253565"><ele>919.0</ele><time>2026-04-12T08:41:32.78Z</time></trkpt><trkpt lat="45.6907553" lon="11.22533"><ele>928.3333333333333</ele><time>2026-04-12T08:41:33.779Z</time></trkpt><trkpt lat="45.6906915" lon="11.2253041"><ele>937.6666666666666</ele><time>2026-04-12T08:41:34.779Z</time></trkpt><trkpt lat="45.6906242" lon="11.225289"><ele>947.0</ele><time>2026-04-12T08:41:35.779Z</time></trkpt><trkpt lat="45.690557" lon="11.2252875"><ele>956.3333333333333</ele><time>2026-04-12T08:41:36.779Z</time></trkpt><trkpt lat="45.6904393" lon="11.2252719"><ele>965.6666666666666</ele><time>2026-04-12T08:41:38.779Z</time></trkpt><trkpt lat="45.6903655" lon="11.2252136"><ele>975.0</ele><time>2026-04-12T08:41:40.779Z</time></trkpt><trkpt lat="45.6903329" lon="11.2250971"><ele>975.0</ele><time>2026-04-12T08:41:42.779Z</time></trkpt><trkpt lat="45.6902923" lon="11.2249501"><ele>975.0</ele><time>2026-04-12T08:41:44.779Z</time></trkpt><trkpt lat="45.6901972" lon="11.2247987"><ele>975.0</ele><time>2026-04-12T08:41:46.779Z</time></trkpt><trkpt lat="45.6901355" lon="11.2247223"><ele>975.0</ele><time>2026-04-12T08:41:47.779Z</time></trkpt><trkpt lat="45.6900679" lon="11.2246567"><ele>975.0</ele><time>2026-04-12T08:41:48.778Z</time></trkpt><trkpt lat="45.6900087" lon="11.2246024"><ele>976.6666666666666</ele><time>2026-04-12T08:41:49.778Z</time></trkpt><trkpt lat="45.6899482" lon="11.2245595"><ele>978.3333333333333</ele><time>2026-04-12T08:41:50.778Z</time></trkpt><trkpt lat="45.6898872" lon="11.224535"><ele>980.0</ele><time>2026-04-12T08:41:51.779Z</time></trkpt><trkpt lat="45.6897846" lon="11.2245542"><ele>981.6666666666666</ele><time>2026-04-12T08:41:53.779Z</time></trkpt><trkpt lat="45.6896979" lon="11.2246622"><ele>983.3333333333333</ele><time>2026-04-12T08:41:55.778Z</time></trkpt><trkpt lat="45.6896437" lon="11.2247284"><ele>985.0</ele><time>2026-04-12T08:41:56.779Z</time></trkpt><trkpt lat="45.6895831" lon="11.2248037"><ele>987.1666666666666</ele><time>2026-04-12T08:41:57.778Z</time></trkpt><trkpt lat="45.6895206" lon="11.2248822"><ele>989.3333333333333</ele><time>2026-04-12T08:41:58.778Z</time></trkpt><trkpt lat="45.6894647" lon="11.2249712"><ele>991.5</ele><time>2026-04-12T08:41:59.779Z</time></trkpt><trkpt lat="45.6894142" lon="11.2250643"><ele>993.6666666666667</ele><time>2026-04-12T08:42:00.778Z</time></trkpt><trkpt lat="45.6893752" lon="11.2251538"><ele>995.8333333333334</ele><time>2026-04-12T08:42:01.779Z</time></trkpt><trkpt lat="45.6893405" lon="11.2252398"><ele>998.0</ele><time>2026-04-12T08:42:02.779Z</time></trkpt><trkpt lat="45.6892848" lon="11.2253634"><ele>999.0</ele><time>2026-04-12T08:42:04.778Z</time></trkpt><trkpt lat="45.689205" lon="11.2254085"><ele>1000.0</ele><time>2026-04-12T08:42:06.779Z</time></trkpt><trkpt lat="45.6891062" lon="11.2253974"><ele>1001.0</ele><time>2026-04-12T08:42:08.779Z</time></trkpt><trkpt lat="45.6889874" lon="11.2254301"><ele>1002.0</ele><time>2026-04-12T08:42:10.778Z</time></trkpt><trkpt lat="45.6888929" lon="11.225519"><ele>1003.0</ele><time>2026-04-12T08:42:12.779Z</time></trkpt><trkpt lat="45.6888474" lon="11.2256079"><ele>1002.8333333333333</ele><time>2026-04-12T08:42:14.778Z</time></trkpt><trkpt lat="45.6888638" lon="11.2256964"><ele>1002.6666666666666</ele><time>2026-04-12T08:42:44.778Z</time></trkpt><trkpt lat="45.6888051" lon="11.2257396"><ele>1002.5</ele><time>2026-04-12T08:43:13.778Z</time></trkpt><trkpt lat="45.688685" lon="11.225709"><ele>1002.3333333333333</ele><time>2026-04-12T08:43:15.779Z</time></trkpt><trkpt lat="45.6886002" lon="11.2256719"><ele>1002.1666666666666</ele><time>2026-04-12T08:43:16.779Z</time></trkpt><trkpt lat="45.6885039" lon="11.2256333"><ele>1002.0</ele><time>2026-04-12T08:43:17.778Z</time></trkpt><trkpt lat="45.6884006" lon="11.2255939"><ele>1002.0</ele><time>2026-04-12T08:43:18.778Z</time></trkpt><trkpt lat="45.6882887" lon="11.2255482"><ele>1002.0</ele><time>2026-04-12T08:43:19.779Z</time></trkpt><trkpt lat="45.6881837" lon="11.2255201"><ele>1002.0</ele><time>2026-04-12T08:43:20.779Z</time></trkpt><trkpt lat="45.6880786" lon="11.2254998"><ele>1002.0</ele><time>2026-04-12T08:43:21.778Z</time></trkpt><trkpt lat="45.6879676" lon="11.2254917"><ele>1002.0</ele><time>2026-04-12T08:43:22.779Z</time></trkpt><trkpt lat="45.6878492" lon="11.2254867"><ele>1000.0</ele><time>2026-04-12T08:43:23.778Z</time></trkpt><trkpt lat="45.6877312" lon="11.2254775"><ele>998.0</ele><time>2026-04-12T08:43:24.779Z</time></trkpt><trkpt lat="45.687619" lon="11.2254736"><ele>996.0</ele><time>2026-04-12T08:43:25.779Z</time></trkpt><trkpt lat="45.6875125" lon="11.2254663"><ele>994.0</ele><time>2026-04-12T08:43:26.779Z</time></trkpt><trkpt lat="45.6874103" lon="11.2254531"><ele>992.0</ele><time>2026-04-12T08:43:27.779Z</time></trkpt><trkpt lat="45.6873156" lon="11.2254393"><ele>992.0000000000001</ele><time>2026-04-12T08:43:28.779Z</time></trkpt><trkpt lat="45.6872305" lon="11.2254129"><ele>992.0</ele><time>2026-04-12T08:43:29.778Z</time></trkpt><trkpt lat="45.6871572" lon="11.2253797"><ele>992.0</ele><time>2026-04-12T08:43:30.779Z</time></trkpt><trkpt lat="45.6870959" lon="11.2253178"><ele>992.0</ele><time>2026-04-12T08:43:31.778Z</time></trkpt><trkpt lat="45.6870342" lon="11.2252552"><ele>992.0000000000001</ele><time>2026-04-12T08:43:32.778Z</time></trkpt><trkpt lat="45.6869807" lon="11.2251922"><ele>992.0</ele><time>2026-04-12T08:43:33.778Z</time></trkpt><trkpt lat="45.6869016" lon="11.22506"><ele>991.8333333333334</ele><time>2026-04-12T08:43:35.779Z</time></trkpt><trkpt lat="45.6868638" lon="11.2249643"><ele>991.6666666666667</ele><time>2026-04-12T08:43:36.779Z</time></trkpt><trkpt lat="45.68683" lon="11.2248636"><ele>991.5</ele><time>2026-04-12T08:43:37.778Z</time></trkpt><trkpt lat="45.6867919" lon="11.22475"><ele>991.3333333333333</ele><time>2026-04-12T08:43:38.779Z</time></trkpt><trkpt lat="45.6867557" lon="11.2246507"><ele>991.1666666666666</ele><time>2026-04-12T08:43:39.778Z</time></trkpt><trkpt lat="45.686704" lon="11.2245572"><ele>991.0</ele><time>2026-04-12T08:43:40.778Z</time></trkpt><trkpt lat="45.686645" lon="11.2244676"><ele>991.0</ele><time>2026-04-12T08:43:41.778Z</time></trkpt><trkpt lat="45.68657" lon="11.2244056"><ele>990.9999999999999</ele><time>2026-04-12T08:43:42.779Z</time></trkpt><trkpt lat="45.6864918" lon="11.2243669"><ele>990.9999999999999</ele><time>2026-04-12T08:43:43.778Z</time></trkpt><trkpt lat="45.6864079" lon="11.2243355"><ele>991.0</ele><time>2026-04-12T08:43:44.778Z</time></trkpt><trkpt lat="45.6863147" lon="11.2243229"><ele>991.0</ele><time>2026-04-12T08:43:45.779Z</time></trkpt><trkpt lat="45.6862146" lon="11.2243166"><ele>991.0</ele><time>2026-04-12T08:43:46.778Z</time></trkpt><trkpt lat="45.6861178" lon="11.2243265"><ele>990.9999999999999</ele><time>2026-04-12T08:43:47.779Z</time></trkpt><trkpt lat="45.6860157" lon="11.2243386"><ele>990.9999999999999</ele><time>2026-04-12T08:43:48.779Z</time></trkpt><trkpt lat="45.6859074" lon="11.2243421"><ele>991.0</ele><time>2026-04-12T08:43:49.779Z</time></trkpt><trkpt lat="45.6857902" lon="11.2243328"><ele>991.0</ele><time>2026-04-12T08:43:50.779Z</time></trkpt><trkpt lat="45.6856682" lon="11.2243017"><ele>992.75</ele><time>2026-04-12T08:43:51.779Z</time></trkpt><trkpt lat="45.6855427" lon="11.2242636"><ele>994.5</ele><time>2026-04-12T08:43:52.778Z</time></trkpt><trkpt lat="45.6854168" lon="11.2242249"><ele>996.25</ele><time>2026-04-12T08:43:53.779Z</time></trkpt><trkpt lat="45.6852839" lon="11.2241842"><ele>998.0</ele><time>2026-04-12T08:43:54.778Z</time></trkpt><trkpt lat="45.6851615" lon="11.2241232"><ele>998.0</ele><time>2026-04-12T08:43:55.778Z</time></trkpt><trkpt lat="45.6850603" lon="11.2240395"><ele>998.0</ele><time>2026-04-12T08:43:56.778Z</time></trkpt><trkpt lat="45.684972" lon="11.2239378"><ele>998.0</ele><time>2026-04-12T08:43:57.778Z</time></trkpt><trkpt lat="45.68488" lon="11.2238615"><ele>998.0</ele><time>2026-04-12T08:43:58.778Z</time></trkpt><trkpt lat="45.6847873" lon="11.2238192"><ele>998.0</ele><time>2026-04-12T08:43:59.778Z</time></trkpt><trkpt lat="45.6846903" lon="11.2238168"><ele>998.5</ele><time>2026-04-12T08:44:00.779Z</time></trkpt><trkpt lat="45.6845838" lon="11.2238624"><ele>999.0</ele><time>2026-04-12T08:44:01.779Z</time></trkpt><trkpt lat="45.6844874" lon="11.2239474"><ele>999.5</ele><time>2026-04-12T08:44:02.779Z</time></trkpt><trkpt lat="45.6843912" lon="11.2240538"><ele>1000.0</ele><time>2026-04-12T08:44:03.779Z</time></trkpt><trkpt lat="45.6842959" lon="11.224176"><ele>1000.0</ele><time>2026-04-12T08:44:04.778Z</time></trkpt><trkpt lat="45.6842045" lon="11.2243047"><ele>1000.0</ele><time>2026-04-12T08:44:05.778Z</time></trkpt><trkpt lat="45.6841167" lon="11.2244258"><ele>1000.0</ele><time>2026-04-12T08:44:06.779Z</time></trkpt><trkpt lat="45.6840266" lon="11.2245285"><ele>1000.0</ele><time>2026-04-12T08:44:07.778Z</time></trkpt><trkpt lat="45.6839431" lon="11.2246236"><ele>1000.0</ele><time>2026-04-12T08:44:08.778Z</time></trkpt><trkpt lat="45.6838586" lon="11.2246876"><ele>1000.0</ele><time>2026-04-12T08:44:09.778Z</time></trkpt><trkpt lat="45.6837721" lon="11.2247197"><ele>1000.0</ele><time>2026-04-12T08:44:10.779Z</time></trkpt><trkpt lat="45.6836828" lon="11.2247115"><ele>1000.0</ele><time>2026-04-12T08:44:11.779Z</time></trkpt><trkpt lat="45.6835944" lon="11.2246651"><ele>1000.0</ele><time>2026-04-12T08:44:12.779Z</time></trkpt><trkpt lat="45.6835053" lon="11.224585"><ele>1001.6</ele><time>2026-04-12T08:44:13.778Z</time></trkpt><trkpt lat="45.6834233" lon="11.2244833"><ele>1003.2</ele><time>2026-04-12T08:44:14.779Z</time></trkpt><trkpt lat="45.6833416" lon="11.2243788"><ele>1004.8</ele><time>2026-04-12T08:44:15.778Z</time></trkpt><trkpt lat="45.6832798" lon="11.2242615"><ele>1006.4</ele><time>2026-04-12T08:44:16.779Z</time></trkpt><trkpt lat="45.6832472" lon="11.2241251"><ele>1008.0</ele><time>2026-04-12T08:44:17.778Z</time></trkpt><trkpt lat="45.6832441" lon="11.2239843"><ele>1009.2</ele><time>2026-04-12T08:44:18.778Z</time></trkpt><trkpt lat="45.6832504" lon="11.2238421"><ele>1010.4</ele><time>2026-04-12T08:44:19.778Z</time></trkpt><trkpt lat="45.6832763" lon="11.2237012"><ele>1011.6000000000001</ele><time>2026-04-12T08:44:20.779Z</time></trkpt><trkpt lat="45.6833047" lon="11.2235565"><ele>1012.8000000000001</ele><time>2026-04-12T08:44:21.778Z</time></trkpt><trkpt lat="45.6833265" lon="11.2234137"><ele>1014.0</ele><time>2026-04-12T08:44:22.778Z</time></trkpt><trkpt lat="45.6833377" lon="11.2232681"><ele>1014.8000000000001</ele><time>2026-04-12T08:44:23.778Z</time></trkpt><trkpt lat="45.6833219" lon="11.2231358"><ele>1015.6000000000001</ele><time>2026-04-12T08:44:24.779Z</time></trkpt><trkpt lat="45.6832743" lon="11.2230064"><ele>1016.4</ele><time>2026-04-12T08:44:25.779Z</time></trkpt><trkpt lat="45.6832139" lon="11.2228761"><ele>1017.2</ele><time>2026-04-12T08:44:26.778Z</time></trkpt><trkpt lat="45.6831434" lon="11.2227359"><ele>1018.0</ele><time>2026-04-12T08:44:27.778Z</time></trkpt><trkpt lat="45.6830835" lon="11.2225893"><ele>1018.0</ele><time>2026-04-12T08:44:28.778Z</time></trkpt><trkpt lat="45.683029" lon="11.2224334"><ele>1018.0</ele><time>2026-04-12T08:44:29.779Z</time></trkpt><trkpt lat="45.6829724" lon="11.2222766"><ele>1018.0</ele><time>2026-04-12T08:44:30.778Z</time></trkpt><trkpt lat="45.6829128" lon="11.2221243"><ele>1018.0</ele><time>2026-04-12T08:44:31.778Z</time></trkpt><trkpt lat="45.6828563" lon="11.2219755"><ele>1017.8</ele><time>2026-04-12T08:44:32.778Z</time></trkpt><trkpt lat="45.6827917" lon="11.2218295"><ele>1017.5999999999999</ele><time>2026-04-12T08:44:33.779Z</time></trkpt><trkpt lat="45.6827444" lon="11.221695"><ele>1017.4000000000001</ele><time>2026-04-12T08:44:34.779Z</time></trkpt><trkpt lat="45.6827188" lon="11.2215599"><ele>1017.2</ele><time>2026-04-12T08:44:35.778Z</time></trkpt><trkpt lat="45.6826966" lon="11.2214307"><ele>1017.0</ele><time>2026-04-12T08:44:36.778Z</time></trkpt><trkpt lat="45.6826645" lon="11.2213404"><ele>1017.8</ele><time>2026-04-12T08:44:37.779Z</time></trkpt><trkpt lat="45.6826092" lon="11.2212765"><ele>1018.6</ele><time>2026-04-12T08:44:38.779Z</time></trkpt><trkpt lat="45.6825225" lon="11.2212343"><ele>1019.3999999999999</ele><time>2026-04-12T08:44:39.779Z</time></trkpt><trkpt lat="45.6824223" lon="11.2211955"><ele>1020.1999999999999</ele><time>2026-04-12T08:44:40.779Z</time></trkpt><trkpt lat="45.6823127" lon="11.2211542"><ele>1021.0</ele><time>2026-04-12T08:44:41.779Z</time></trkpt><trkpt lat="45.6821916" lon="11.2211181"><ele>1021.0</ele><time>2026-04-12T08:44:42.779Z</time></trkpt><trkpt lat="45.6820767" lon="11.221073"><ele>1020.9999999999999</ele><time>2026-04-12T08:44:43.778Z</time></trkpt><trkpt lat="45.6819682" lon="11.2210387"><ele>1020.9999999999999</ele><time>2026-04-12T08:44:44.778Z</time></trkpt><trkpt lat="45.6818836" lon="11.221034"><ele>1021.0</ele><time>2026-04-12T08:44:45.779Z</time></trkpt><trkpt lat="45.6818034" lon="11.2210643"><ele>1021.0</ele><time>2026-04-12T08:44:46.779Z</time></trkpt><trkpt lat="45.6817308" lon="11.2211246"><ele>1021.9999999999999</ele><time>2026-04-12T08:44:47.779Z</time></trkpt><trkpt lat="45.6816637" lon="11.2211932"><ele>1023.0</ele><time>2026-04-12T08:44:48.779Z</time></trkpt><trkpt lat="45.6815962" lon="11.2212469"><ele>1024.0</ele><time>2026-04-12T08:44:49.778Z</time></trkpt><trkpt lat="45.6815194" lon="11.2212383"><ele>1025.0</ele><time>2026-04-12T08:44:50.779Z</time></trkpt><trkpt lat="45.6814387" lon="11.2211878"><ele>1026.0</ele><time>2026-04-12T08:44:51.778Z</time></trkpt><trkpt lat="45.6813557" lon="11.2211174"><ele>1027.0</ele><time>2026-04-12T08:44:52.778Z</time></trkpt><trkpt lat="45.681275" lon="11.2210436"><ele>1027.0</ele><time>2026-04-12T08:44:53.778Z</time></trkpt><trkpt lat="45.6811948" lon="11.2210007"><ele>1027.0</ele><time>2026-04-12T08:44:54.779Z</time></trkpt><trkpt lat="45.6811144" lon="11.2209746"><ele>1027.0</ele><time>2026-04-12T08:44:55.779Z</time></trkpt><trkpt lat="45.6810205" lon="11.2209745"><ele>1027.0</ele><time>2026-04-12T08:44:56.779Z</time></trkpt><trkpt lat="45.6809175" lon="11.221014"><ele>1027.0</ele><time>2026-04-12T08:44:57.779Z</time></trkpt><trkpt lat="45.6808127" lon="11.221071"><ele>1027.25</ele><time>2026-04-12T08:44:58.779Z</time></trkpt><trkpt lat="45.6807021" lon="11.2211321"><ele>1027.5</ele><time>2026-04-12T08:44:59.779Z</time></trkpt><trkpt lat="45.6805871" lon="11.2212006"><ele>1027.75</ele><time>2026-04-12T08:45:00.778Z</time></trkpt><trkpt lat="45.6804756" lon="11.2212685"><ele>1028.0</ele><time>2026-04-12T08:45:01.778Z</time></trkpt><trkpt lat="45.6803593" lon="11.2213436"><ele>1025.75</ele><time>2026-04-12T08:45:02.778Z</time></trkpt><trkpt lat="45.6802483" lon="11.2214102"><ele>1023.5</ele><time>2026-04-12T08:45:03.778Z</time></trkpt><trkpt lat="45.6801322" lon="11.2214841"><ele>1021.25</ele><time>2026-04-12T08:45:04.779Z</time></trkpt><trkpt lat="45.6800187" lon="11.2215489"><ele>1019.0</ele><time>2026-04-12T08:45:05.779Z</time></trkpt><trkpt lat="45.6799041" lon="11.2216179"><ele>1019.0</ele><time>2026-04-12T08:45:06.779Z</time></trkpt><trkpt lat="45.6797942" lon="11.221685"><ele>1019.0000000000001</ele><time>2026-04-12T08:45:07.778Z</time></trkpt><trkpt lat="45.6796904" lon="11.2217485"><ele>1019.0000000000001</ele><time>2026-04-12T08:45:08.779Z</time></trkpt><trkpt lat="45.6795859" lon="11.2218042"><ele>1019.0</ele><time>2026-04-12T08:45:09.779Z</time></trkpt><trkpt lat="45.679485" lon="11.2218422"><ele>1019.0</ele><time>2026-04-12T08:45:10.778Z</time></trkpt><trkpt lat="45.679388" lon="11.2218511"><ele>1018.6</ele><time>2026-04-12T08:45:11.778Z</time></trkpt><trkpt lat="45.6792916" lon="11.221839"><ele>1018.2</ele><time>2026-04-12T08:45:12.778Z</time></trkpt><trkpt lat="45.6792007" lon="11.2217889"><ele>1017.8000000000001</ele><time>2026-04-12T08:45:13.779Z</time></trkpt><trkpt lat="45.6791232" lon="11.2217003"><ele>1017.4000000000001</ele><time>2026-04-12T08:45:14.779Z</time></trkpt><trkpt lat="45.6790668" lon="11.2215821"><ele>1017.0</ele><time>2026-04-12T08:45:15.779Z</time></trkpt><trkpt lat="45.6790282" lon="11.2214311"><ele>1016.25</ele><time>2026-04-12T08:45:16.778Z</time></trkpt><trkpt lat="45.679002" lon="11.2212661"><ele>1015.5</ele><time>2026-04-12T08:45:17.778Z</time></trkpt><trkpt lat="45.6789787" lon="11.2210996"><ele>1014.75</ele><time>2026-04-12T08:45:18.779Z</time></trkpt><trkpt lat="45.6789617" lon="11.2209264"><ele>1014.0</ele><time>2026-04-12T08:45:19.778Z</time></trkpt><trkpt lat="45.6789335" lon="11.22078"><ele>1013.6666666666666</ele><time>2026-04-12T08:45:20.779Z</time></trkpt><trkpt lat="45.6789025" lon="11.2206477"><ele>1013.3333333333333</ele><time>2026-04-12T08:45:21.778Z</time></trkpt><trkpt lat="45.6788776" lon="11.2205204"><ele>1013.0</ele><time>2026-04-12T08:45:22.779Z</time></trkpt><trkpt lat="45.6788555" lon="11.2203937"><ele>1012.6666666666666</ele><time>2026-04-12T08:45:23.778Z</time></trkpt><trkpt lat="45.6788373" lon="11.2202795"><ele>1012.3333333333333</ele><time>2026-04-12T08:45:24.778Z</time></trkpt><trkpt lat="45.6788208" lon="11.2201681"><ele>1012.0</ele><time>2026-04-12T08:45:25.779Z</time></trkpt><trkpt lat="45.6788026" lon="11.2200597"><ele>1012.0</ele><time>2026-04-12T08:45:26.779Z</time></trkpt><trkpt lat="45.678777" lon="11.2199318"><ele>1012.0</ele><time>2026-04-12T08:45:27.779Z</time></trkpt><trkpt lat="45.6787528" lon="11.2197965"><ele>1012.0</ele><time>2026-04-12T08:45:28.778Z</time></trkpt><trkpt lat="45.6787263" lon="11.2196575"><ele>1012.0</ele><time>2026-04-12T08:45:29.778Z</time></trkpt><trkpt lat="45.6786977" lon="11.219514"><ele>1012.0</ele><time>2026-04-12T08:45:30.778Z</time></trkpt><trkpt lat="45.6786608" lon="11.2193643"><ele>1012.6</ele><time>2026-04-12T08:45:31.778Z</time></trkpt><trkpt lat="45.6786296" lon="11.2192128"><ele>1013.2</ele><time>2026-04-12T08:45:32.778Z</time></trkpt><trkpt lat="45.678606" lon="11.2190641"><ele>1013.8</ele><time>2026-04-12T08:45:33.779Z</time></trkpt><trkpt lat="45.6785827" lon="11.2189248"><ele>1014.4</ele><time>2026-04-12T08:45:34.779Z</time></trkpt><trkpt lat="45.6785596" lon="11.2187972"><ele>1015.0</ele><time>2026-04-12T08:45:35.778Z</time></trkpt><trkpt lat="45.678544" lon="11.2186725"><ele>1016.3333333333333</ele><time>2026-04-12T08:45:36.779Z</time></trkpt><trkpt lat="45.678538" lon="11.2185641"><ele>1017.6666666666666</ele><time>2026-04-12T08:45:37.778Z</time></trkpt><trkpt lat="45.6785372" lon="11.2184541"><ele>1019.0</ele><time>2026-04-12T08:45:38.779Z</time></trkpt><trkpt lat="45.6785512" lon="11.2183467"><ele>1020.3333333333333</ele><time>2026-04-12T08:45:39.779Z</time></trkpt><trkpt lat="45.6785807" lon="11.2182576"><ele>1021.6666666666666</ele><time>2026-04-12T08:45:40.778Z</time></trkpt><trkpt lat="45.6786988" lon="11.2181576"><ele>1023.0</ele><time>2026-04-12T08:45:42.778Z</time></trkpt><trkpt lat="45.6787884" lon="11.218129"><ele>1025.4</ele><time>2026-04-12T08:45:43.778Z</time></trkpt><trkpt lat="45.6788896" lon="11.218104"><ele>1027.8</ele><time>2026-04-12T08:45:44.779Z</time></trkpt><trkpt lat="45.6790057" lon="11.218086"><ele>1030.2</ele><time>2026-04-12T08:45:45.779Z</time></trkpt><trkpt lat="45.6791126" lon="11.2180745"><ele>1032.6</ele><time>2026-04-12T08:45:46.778Z</time></trkpt><trkpt lat="45.6792198" lon="11.2180617"><ele>1035.0</ele><time>2026-04-12T08:45:47.779Z</time></trkpt><trkpt lat="45.6793142" lon="11.2180491"><ele>1035.0</ele><time>2026-04-12T08:45:48.778Z</time></trkpt><trkpt lat="45.6793917" lon="11.2180271"><ele>1035.0</ele><time>2026-04-12T08:45:49.779Z</time></trkpt><trkpt lat="45.6794595" lon="11.2179846"><ele>1035.0</ele><time>2026-04-12T08:45:50.779Z</time></trkpt><trkpt lat="45.6795114" lon="11.2179167"><ele>1035.0</ele><time>2026-04-12T08:45:51.778Z</time></trkpt><trkpt lat="45.6795456" lon="11.2178146"><ele>1035.0</ele><time>2026-04-12T08:45:52.779Z</time></trkpt><trkpt lat="45.6795582" lon="11.217685"><ele>1035.0</ele><time>2026-04-12T08:45:53.779Z</time></trkpt><trkpt lat="45.6795525" lon="11.2175526"><ele>1030.5</ele><time>2026-04-12T08:45:54.778Z</time></trkpt><trkpt lat="45.679553" lon="11.2174385"><ele>1026.0</ele><time>2026-04-12T08:45:55.779Z</time></trkpt><trkpt lat="45.6795456" lon="11.2173367"><ele>1021.5</ele><time>2026-04-12T08:45:56.779Z</time></trkpt><trkpt lat="45.6795393" lon="11.2172419"><ele>1017.0</ele><time>2026-04-12T08:45:57.779Z</time></trkpt><trkpt lat="45.6795208" lon="11.2170894"><ele>1012.5</ele><time>2026-04-12T08:45:59.779Z</time></trkpt><trkpt lat="45.6794939" lon="11.2169679"><ele>1008.0</ele><time>2026-04-12T08:46:01.779Z</time></trkpt><trkpt lat="45.6794524" lon="11.2168405"><ele>1011.6666666666666</ele><time>2026-04-12T08:46:03.778Z</time></trkpt><trkpt lat="45.679393" lon="11.2167413"><ele>1015.3333333333333</ele><time>2026-04-12T08:46:05.778Z</time></trkpt><trkpt lat="45.6793078" lon="11.2166694"><ele>1019.0</ele><time>2026-04-12T08:46:07.779Z</time></trkpt><trkpt lat="45.6792542" lon="11.2166201"><ele>1022.6666666666666</ele><time>2026-04-12T08:46:08.779Z</time></trkpt><trkpt lat="45.6792015" lon="11.2165673"><ele>1026.3333333333333</ele><time>2026-04-12T08:46:09.778Z</time></trkpt><trkpt lat="45.6791302" lon="11.2164307"><ele>1030.0</ele><time>2026-04-12T08:46:11.779Z</time></trkpt><trkpt lat="45.6791101" lon="11.2163431"><ele>1030.0</ele><time>2026-04-12T08:46:12.778Z</time></trkpt><trkpt lat="45.679111" lon="11.216218"><ele>1030.0</ele><time>2026-04-12T08:46:13.779Z</time></trkpt><trkpt lat="45.6791139" lon="11.2160644"><ele>1030.0</ele><time>2026-04-12T08:46:14.779Z</time></trkpt><trkpt lat="45.6791036" lon="11.2158899"><ele>1030.0</ele><time>2026-04-12T08:46:15.778Z</time></trkpt><trkpt lat="45.6790781" lon="11.2157251"><ele>1030.0</ele><time>2026-04-12T08:46:16.779Z</time></trkpt><trkpt lat="45.6790554" lon="11.2155719"><ele>1027.8333333333333</ele><time>2026-04-12T08:46:17.779Z</time></trkpt><trkpt lat="45.679043" lon="11.2154381"><ele>1025.6666666666665</ele><time>2026-04-12T08:46:18.778Z</time></trkpt><trkpt lat="45.6790236" lon="11.2153196"><ele>1023.5</ele><time>2026-04-12T08:46:19.778Z</time></trkpt><trkpt lat="45.6789943" lon="11.2152246"><ele>1021.3333333333333</ele><time>2026-04-12T08:46:20.779Z</time></trkpt><trkpt lat="45.67895" lon="11.2151486"><ele>1019.1666666666666</ele><time>2026-04-12T08:46:21.779Z</time></trkpt><trkpt lat="45.6788984" lon="11.2150772"><ele>1017.0</ele><time>2026-04-12T08:46:22.779Z</time></trkpt><trkpt lat="45.6788523" lon="11.2149869"><ele>1017.0</ele><time>2026-04-12T08:46:23.778Z</time></trkpt><trkpt lat="45.6788151" lon="11.2148952"><ele>1017.0</ele><time>2026-04-12T08:46:24.779Z</time></trkpt><trkpt lat="45.6787952" lon="11.2147951"><ele>1017.0</ele><time>2026-04-12T08:46:25.779Z</time></trkpt><trkpt lat="45.6787903" lon="11.2146851"><ele>1017.0</ele><time>2026-04-12T08:46:26.779Z</time></trkpt><trkpt lat="45.6787941" lon="11.2145613"><ele>1017.0</ele><time>2026-04-12T08:46:27.778Z</time></trkpt><trkpt lat="45.6788025" lon="11.2144178"><ele>1017.0</ele><time>2026-04-12T08:46:28.778Z</time></trkpt><trkpt lat="45.6788102" lon="11.214251"><ele>1017.2</ele><time>2026-04-12T08:46:29.779Z</time></trkpt><trkpt lat="45.678818" lon="11.2140784"><ele>1017.4000000000001</ele><time>2026-04-12T08:46:30.778Z</time></trkpt><trkpt lat="45.6788237" lon="11.2139172"><ele>1017.5999999999999</ele><time>2026-04-12T08:46:31.778Z</time></trkpt><trkpt lat="45.6788383" lon="11.2137636"><ele>1017.8</ele><time>2026-04-12T08:46:32.779Z</time></trkpt><trkpt lat="45.6788429" lon="11.2136206"><ele>1018.0</ele><time>2026-04-12T08:46:33.779Z</time></trkpt><trkpt lat="45.6788455" lon="11.2134752"><ele>1017.4</ele><time>2026-04-12T08:46:34.779Z</time></trkpt><trkpt lat="45.6788506" lon="11.2133312"><ele>1016.8</ele><time>2026-04-12T08:46:35.778Z</time></trkpt><trkpt lat="45.6788481" lon="11.2131816"><ele>1016.2</ele><time>2026-04-12T08:46:36.778Z</time></trkpt><trkpt lat="45.6788352" lon="11.2130396"><ele>1015.6</ele><time>2026-04-12T08:46:37.778Z</time></trkpt><trkpt lat="45.6788173" lon="11.2129091"><ele>1015.0</ele><time>2026-04-12T08:46:38.777Z</time></trkpt><trkpt lat="45.6788051" lon="11.2127831"><ele>1014.4</ele><time>2026-04-12T08:46:39.777Z</time></trkpt><trkpt lat="45.6787963" lon="11.2126561"><ele>1013.8</ele><time>2026-04-12T08:46:40.778Z</time></trkpt><trkpt lat="45.6787817" lon="11.2125318"><ele>1013.2</ele><time>2026-04-12T08:46:41.778Z</time></trkpt><trkpt lat="45.6787599" lon="11.2124134"><ele>1012.6</ele><time>2026-04-12T08:46:42.778Z</time></trkpt><trkpt lat="45.678733" lon="11.2122879"><ele>1012.0</ele><time>2026-04-12T08:46:43.777Z</time></trkpt><trkpt lat="45.678681" lon="11.2121701"><ele>1011.2</ele><time>2026-04-12T08:46:44.778Z</time></trkpt><trkpt lat="45.6786259" lon="11.2120555"><ele>1010.4000000000001</ele><time>2026-04-12T08:46:45.777Z</time></trkpt><trkpt lat="45.6785723" lon="11.211936"><ele>1009.5999999999999</ele><time>2026-04-12T08:46:46.777Z</time></trkpt><trkpt lat="45.6785182" lon="11.2118195"><ele>1008.8</ele><time>2026-04-12T08:46:47.778Z</time></trkpt><trkpt lat="45.6784603" lon="11.2117029"><ele>1008.0</ele><time>2026-04-12T08:46:48.778Z</time></trkpt><trkpt lat="45.6783975" lon="11.2115871"><ele>1012.5999999999999</ele><time>2026-04-12T08:46:49.778Z</time></trkpt><trkpt lat="45.6783221" lon="11.211485"><ele>1017.1999999999999</ele><time>2026-04-12T08:46:50.778Z</time></trkpt><trkpt lat="45.6782607" lon="11.2113842"><ele>1021.8</ele><time>2026-04-12T08:46:51.777Z</time></trkpt><trkpt lat="45.6782109" lon="11.2112729"><ele>1026.3999999999999</ele><time>2026-04-12T08:46:52.778Z</time></trkpt><trkpt lat="45.6781679" lon="11.2111618"><ele>1031.0</ele><time>2026-04-12T08:46:53.778Z</time></trkpt><trkpt lat="45.6781249" lon="11.2110404"><ele>1031.0</ele><time>2026-04-12T08:46:54.778Z</time></trkpt><trkpt lat="45.678089" lon="11.2109079"><ele>1031.0</ele><time>2026-04-12T08:46:55.777Z</time></trkpt><trkpt lat="45.6780487" lon="11.2107571"><ele>1031.0</ele><time>2026-04-12T08:46:56.778Z</time></trkpt><trkpt lat="45.6780031" lon="11.210604"><ele>1031.0</ele><time>2026-04-12T08:46:57.778Z</time></trkpt><trkpt lat="45.677963" lon="11.2104619"><ele>1031.0</ele><time>2026-04-12T08:46:58.777Z</time></trkpt><trkpt lat="45.6779308" lon="11.2103298"><ele>1031.6</ele><time>2026-04-12T08:46:59.778Z</time></trkpt><trkpt lat="45.6779011" lon="11.2101985"><ele>1032.1999999999998</ele><time>2026-04-12T08:47:00.777Z</time></trkpt><trkpt lat="45.6778681" lon="11.2100686"><ele>1032.8000000000002</ele><time>2026-04-12T08:47:01.778Z</time></trkpt><trkpt lat="45.6778291" lon="11.2099496"><ele>1033.4</ele><time>2026-04-12T08:47:02.777Z</time></trkpt><trkpt lat="45.6777806" lon="11.2098229"><ele>1034.0</ele><time>2026-04-12T08:47:03.778Z</time></trkpt><trkpt lat="45.6777413" lon="11.2097211"><ele>1034.0</ele><time>2026-04-12T08:47:04.777Z</time></trkpt><trkpt lat="45.6776976" lon="11.2096419"><ele>1034.0</ele><time>2026-04-12T08:47:05.777Z</time></trkpt><trkpt lat="45.6776456" lon="11.2095807"><ele>1034.0</ele><time>2026-04-12T08:47:06.777Z</time></trkpt><trkpt lat="45.6775629" lon="11.2094615"><ele>1034.0</ele><time>2026-04-12T08:47:08.778Z</time></trkpt><trkpt lat="45.6775271" lon="11.209305"><ele>1034.0</ele><time>2026-04-12T08:47:10.778Z</time></trkpt><trkpt lat="45.6775137" lon="11.2092142"><ele>1034.0</ele><time>2026-04-12T08:47:11.777Z</time></trkpt><trkpt lat="45.6774805" lon="11.2090269"><ele>1032.8333333333335</ele><time>2026-04-12T08:47:13.777Z</time></trkpt><trkpt lat="45.6774452" lon="11.2089127"><ele>1031.6666666666667</ele><time>2026-04-12T08:47:14.777Z</time></trkpt><trkpt lat="45.6774057" lon="11.2087997"><ele>1030.5</ele><time>2026-04-12T08:47:15.778Z</time></trkpt><trkpt lat="45.6773745" lon="11.208695"><ele>1029.3333333333333</ele><time>2026-04-12T08:47:16.778Z</time></trkpt><trkpt lat="45.6773479" lon="11.208595"><ele>1028.1666666666665</ele><time>2026-04-12T08:47:17.778Z</time></trkpt><trkpt lat="45.6773323" lon="11.2084949"><ele>1027.0</ele><time>2026-04-12T08:47:18.777Z</time></trkpt><trkpt lat="45.6773356" lon="11.2083908"><ele>1027.0</ele><time>2026-04-12T08:47:19.778Z</time></trkpt><trkpt lat="45.6773583" lon="11.2082756"><ele>1027.0</ele><time>2026-04-12T08:47:20.777Z</time></trkpt><trkpt lat="45.6774051" lon="11.2081589"><ele>1027.0</ele><time>2026-04-12T08:47:21.778Z</time></trkpt><trkpt lat="45.6774588" lon="11.2080351"><ele>1027.0</ele><time>2026-04-12T08:47:22.778Z</time></trkpt><trkpt lat="45.6775311" lon="11.2078917"><ele>1027.0</ele><time>2026-04-12T08:47:23.778Z</time></trkpt><trkpt lat="45.6776057" lon="11.2077277"><ele>1027.5</ele><time>2026-04-12T08:47:24.777Z</time></trkpt><trkpt lat="45.6776828" lon="11.2075415"><ele>1028.0</ele><time>2026-04-12T08:47:25.777Z</time></trkpt><trkpt lat="45.6777525" lon="11.2073615"><ele>1028.5</ele><time>2026-04-12T08:47:26.778Z</time></trkpt><trkpt lat="45.6778283" lon="11.2071717"><ele>1029.0</ele><time>2026-04-12T08:47:27.778Z</time></trkpt><trkpt lat="45.6779035" lon="11.2069928"><ele>1027.0</ele><time>2026-04-12T08:47:28.778Z</time></trkpt><trkpt lat="45.6779908" lon="11.2068304"><ele>1025.0</ele><time>2026-04-12T08:47:29.778Z</time></trkpt><trkpt lat="45.6780816" lon="11.2066879"><ele>1023.0</ele><time>2026-04-12T08:47:30.777Z</time></trkpt><trkpt lat="45.678184" lon="11.2065559"><ele>1021.0</ele><time>2026-04-12T08:47:31.778Z</time></trkpt><trkpt lat="45.6782881" lon="11.2064255"><ele>1021.0</ele><time>2026-04-12T08:47:32.777Z</time></trkpt><trkpt lat="45.6783881" lon="11.2063017"><ele>1021.0</ele><time>2026-04-12T08:47:33.777Z</time></trkpt><trkpt lat="45.6784777" lon="11.2061774"><ele>1021.0</ele><time>2026-04-12T08:47:34.778Z</time></trkpt><trkpt lat="45.6785587" lon="11.2060377"><ele>1021.0</ele><time>2026-04-12T08:47:35.778Z</time></trkpt><trkpt lat="45.6786156" lon="11.2058842"><ele>1015.25</ele><time>2026-04-12T08:47:36.777Z</time></trkpt><trkpt lat="45.6786497" lon="11.2057332"><ele>1009.5</ele><time>2026-04-12T08:47:37.778Z</time></trkpt><trkpt lat="45.6786663" lon="11.2055753"><ele>1003.75</ele><time>2026-04-12T08:47:38.777Z</time></trkpt><trkpt lat="45.6786695" lon="11.2054091"><ele>998.0</ele><time>2026-04-12T08:47:39.778Z</time></trkpt><trkpt lat="45.6786476" lon="11.2052295"><ele>997.75</ele><time>2026-04-12T08:47:40.778Z</time></trkpt><trkpt lat="45.6786106" lon="11.2050503"><ele>997.5</ele><time>2026-04-12T08:47:41.778Z</time></trkpt><trkpt lat="45.6785674" lon="11.2048733"><ele>997.25</ele><time>2026-04-12T08:47:42.778Z</time></trkpt><trkpt lat="45.6785257" lon="11.204695"><ele>997.0</ele><time>2026-04-12T08:47:43.778Z</time></trkpt><trkpt lat="45.6784827" lon="11.204519"><ele>1000.4000000000001</ele><time>2026-04-12T08:47:44.778Z</time></trkpt><trkpt lat="45.6784598" lon="11.2043431"><ele>1003.8000000000001</ele><time>2026-04-12T08:47:45.778Z</time></trkpt><trkpt lat="45.6784402" lon="11.2041788"><ele>1007.2</ele><time>2026-04-12T08:47:46.778Z</time></trkpt><trkpt lat="45.6784227" lon="11.2040275"><ele>1010.6</ele><time>2026-04-12T08:47:47.778Z</time></trkpt><trkpt lat="45.6784078" lon="11.2038888"><ele>1014.0</ele><time>2026-04-12T08:47:48.778Z</time></trkpt><trkpt lat="45.678416" lon="11.2037638"><ele>1014.8000000000001</ele><time>2026-04-12T08:47:49.778Z</time></trkpt><trkpt lat="45.6784465" lon="11.2036612"><ele>1015.6000000000001</ele><time>2026-04-12T08:47:50.778Z</time></trkpt><trkpt lat="45.6784998" lon="11.203575"><ele>1016.4</ele><time>2026-04-12T08:47:51.778Z</time></trkpt><trkpt lat="45.678589" lon="11.2035273"><ele>1017.2</ele><time>2026-04-12T08:47:52.777Z</time></trkpt><trkpt lat="45.678698" lon="11.203504"><ele>1018.0</ele><time>2026-04-12T08:47:53.778Z</time></trkpt><trkpt lat="45.6788218" lon="11.2034992"><ele>1018.0</ele><time>2026-04-12T08:47:54.778Z</time></trkpt><trkpt lat="45.6789522" lon="11.2035029"><ele>1018.0</ele><time>2026-04-12T08:47:55.778Z</time></trkpt><trkpt lat="45.6790798" lon="11.2035165"><ele>1018.0</ele><time>2026-04-12T08:47:56.777Z</time></trkpt><trkpt lat="45.6791988" lon="11.2035636"><ele>1018.0</ele><time>2026-04-12T08:47:57.777Z</time></trkpt><trkpt lat="45.679312" lon="11.2036418"><ele>1018.0</ele><time>2026-04-12T08:47:58.778Z</time></trkpt><trkpt lat="45.6794216" lon="11.2037355"><ele>1018.0</ele><time>2026-04-12T08:47:59.777Z</time></trkpt><trkpt lat="45.6795427" lon="11.203814"><ele>1018.0</ele><time>2026-04-12T08:48:00.777Z</time></trkpt><trkpt lat="45.6796855" lon="11.2038902"><ele>1018.0</ele><time>2026-04-12T08:48:01.777Z</time></trkpt><trkpt lat="45.6798338" lon="11.2039547"><ele>1016.5999999999999</ele><time>2026-04-12T08:48:02.777Z</time></trkpt><trkpt lat="45.6799698" lon="11.2040097"><ele>1015.1999999999999</ele><time>2026-04-12T08:48:03.778Z</time></trkpt><trkpt lat="45.6800857" lon="11.2040597"><ele>1013.8</ele><time>2026-04-12T08:48:04.778Z</time></trkpt><trkpt lat="45.6801793" lon="11.2040881"><ele>1012.4</ele><time>2026-04-12T08:48:05.778Z</time></trkpt><trkpt lat="45.6802652" lon="11.2040893"><ele>1011.0</ele><time>2026-04-12T08:48:06.778Z</time></trkpt><trkpt lat="45.6803295" lon="11.2040352"><ele>1009.4</ele><time>2026-04-12T08:48:07.778Z</time></trkpt><trkpt lat="45.6803651" lon="11.2039256"><ele>1007.8</ele><time>2026-04-12T08:48:08.778Z</time></trkpt><trkpt lat="45.6803895" lon="11.2037845"><ele>1006.1999999999999</ele><time>2026-04-12T08:48:09.778Z</time></trkpt><trkpt lat="45.6804032" lon="11.2036141"><ele>1004.5999999999999</ele><time>2026-04-12T08:48:10.777Z</time></trkpt><trkpt lat="45.6804147" lon="11.2034269"><ele>1003.0</ele><time>2026-04-12T08:48:11.778Z</time></trkpt><trkpt lat="45.6804311" lon="11.2032412"><ele>1004.5</ele><time>2026-04-12T08:48:12.778Z</time></trkpt><trkpt lat="45.6804552" lon="11.2030558"><ele>1006.0</ele><time>2026-04-12T08:48:13.777Z</time></trkpt><trkpt lat="45.680495" lon="11.2028784"><ele>1007.5</ele><time>2026-04-12T08:48:14.778Z</time></trkpt><trkpt lat="45.680547" lon="11.20271"><ele>1009.0</ele><time>2026-04-12T08:48:15.777Z</time></trkpt><trkpt lat="45.6805954" lon="11.2025398"><ele>1009.0</ele><time>2026-04-12T08:48:16.778Z</time></trkpt><trkpt lat="45.6806232" lon="11.2023793"><ele>1009.0</ele><time>2026-04-12T08:48:17.777Z</time></trkpt><trkpt lat="45.6806317" lon="11.2022086"><ele>1009.0</ele><time>2026-04-12T08:48:18.777Z</time></trkpt><trkpt lat="45.6806242" lon="11.2020247"><ele>1009.0</ele><time>2026-04-12T08:48:19.778Z</time></trkpt><trkpt lat="45.6806085" lon="11.2018603"><ele>1010.0</ele><time>2026-04-12T08:48:20.777Z</time></trkpt><trkpt lat="45.6805948" lon="11.2017097"><ele>1011.0000000000001</ele><time>2026-04-12T08:48:21.778Z</time></trkpt><trkpt lat="45.6805898" lon="11.2015677"><ele>1012.0000000000001</ele><time>2026-04-12T08:48:22.777Z</time></trkpt><trkpt lat="45.6806083" lon="11.2014251"><ele>1013.0</ele><time>2026-04-12T08:48:23.778Z</time></trkpt><trkpt lat="45.6806538" lon="11.2012918"><ele>1014.0</ele><time>2026-04-12T08:48:24.778Z</time></trkpt><trkpt lat="45.6807267" lon="11.2011643"><ele>1013.8000000000001</ele><time>2026-04-12T08:48:25.778Z</time></trkpt><trkpt lat="45.68081" lon="11.2010495"><ele>1013.6000000000001</ele><time>2026-04-12T08:48:26.778Z</time></trkpt><trkpt lat="45.6808945" lon="11.2009548"><ele>1013.4</ele><time>2026-04-12T08:48:27.778Z</time></trkpt><trkpt lat="45.6809796" lon="11.2008608"><ele>1013.2</ele><time>2026-04-12T08:48:28.778Z</time></trkpt><trkpt lat="45.6810591" lon="11.2007669"><ele>1013.0</ele><time>2026-04-12T08:48:29.777Z</time></trkpt><trkpt lat="45.6811361" lon="11.2006549"><ele>1013.0</ele><time>2026-04-12T08:48:30.778Z</time></trkpt><trkpt lat="45.6812018" lon="11.2005222"><ele>1013.0</ele><time>2026-04-12T08:48:31.778Z</time></trkpt><trkpt lat="45.6812676" lon="11.2003844"><ele>1013.0</ele><time>2026-04-12T08:48:32.778Z</time></trkpt><trkpt lat="45.6813353" lon="11.2002447"><ele>1013.0</ele><time>2026-04-12T08:48:33.777Z</time></trkpt><trkpt lat="45.681408" lon="11.2001255"><ele>1013.0</ele><time>2026-04-12T08:48:34.777Z</time></trkpt><trkpt lat="45.6814828" lon="11.2000144"><ele>1013.0</ele><time>2026-04-12T08:48:35.777Z</time></trkpt><trkpt lat="45.6815395" lon="11.1998923"><ele>1013.0</ele><time>2026-04-12T08:48:36.778Z</time></trkpt><trkpt lat="45.6815881" lon="11.1997368"><ele>1013.0</ele><time>2026-04-12T08:48:37.778Z</time></trkpt><trkpt lat="45.6816271" lon="11.1995701"><ele>1016.75</ele><time>2026-04-12T08:48:38.778Z</time></trkpt><trkpt lat="45.6816417" lon="11.199395"><ele>1020.5</ele><time>2026-04-12T08:48:39.777Z</time></trkpt><trkpt lat="45.6816602" lon="11.1992339"><ele>1024.25</ele><time>2026-04-12T08:48:40.778Z</time></trkpt><trkpt lat="45.6816932" lon="11.1990765"><ele>1028.0</ele><time>2026-04-12T08:48:41.778Z</time></trkpt><trkpt lat="45.6817512" lon="11.1989101"><ele>1031.25</ele><time>2026-04-12T08:48:42.777Z</time></trkpt><trkpt lat="45.6818187" lon="11.1987415"><ele>1034.5</ele><time>2026-04-12T08:48:43.778Z</time></trkpt><trkpt lat="45.6818936" lon="11.1985735"><ele>1037.75</ele><time>2026-04-12T08:48:44.778Z</time></trkpt><trkpt lat="45.6819752" lon="11.1984155"><ele>1041.0</ele><time>2026-04-12T08:48:45.778Z</time></trkpt><trkpt lat="45.682058" lon="11.1982586"><ele>1039.25</ele><time>2026-04-12T08:48:46.778Z</time></trkpt><trkpt lat="45.6821415" lon="11.1981002"><ele>1037.5</ele><time>2026-04-12T08:48:47.778Z</time></trkpt><trkpt lat="45.6822252" lon="11.1979632"><ele>1035.75</ele><time>2026-04-12T08:48:48.778Z</time></trkpt><trkpt lat="45.6823198" lon="11.1978484"><ele>1034.0</ele><time>2026-04-12T08:48:49.778Z</time></trkpt><trkpt lat="45.6824239" lon="11.197757"><ele>1034.0</ele><time>2026-04-12T08:48:50.778Z</time></trkpt><trkpt lat="45.6825357" lon="11.1976899"><ele>1034.0</ele><time>2026-04-12T08:48:51.778Z</time></trkpt><trkpt lat="45.6826556" lon="11.1976443"><ele>1034.0</ele><time>2026-04-12T08:48:52.778Z</time></trkpt><trkpt lat="45.6827884" lon="11.1976104"><ele>1034.0</ele><time>2026-04-12T08:48:53.777Z</time></trkpt><trkpt lat="45.6829227" lon="11.1975649"><ele>1032.75</ele><time>2026-04-12T08:48:54.778Z</time></trkpt><trkpt lat="45.6830541" lon="11.197487"><ele>1031.5</ele><time>2026-04-12T08:48:55.778Z</time></trkpt><trkpt lat="45.6831791" lon="11.1973906"><ele>1030.25</ele><time>2026-04-12T08:48:56.778Z</time></trkpt><trkpt lat="45.6832885" lon="11.1972905"><ele>1029.0</ele><time>2026-04-12T08:48:57.778Z</time></trkpt><trkpt lat="45.683396" lon="11.1971641"><ele>1028.75</ele><time>2026-04-12T08:48:58.777Z</time></trkpt><trkpt lat="45.6835047" lon="11.1970318"><ele>1028.5</ele><time>2026-04-12T08:48:59.778Z</time></trkpt><trkpt lat="45.6836179" lon="11.1969164"><ele>1028.25</ele><time>2026-04-12T08:49:00.778Z</time></trkpt><trkpt lat="45.6837438" lon="11.1968282"><ele>1028.0</ele><time>2026-04-12T08:49:01.778Z</time></trkpt><trkpt lat="45.6838722" lon="11.1967674"><ele>1028.0</ele><time>2026-04-12T08:49:02.777Z</time></trkpt><trkpt lat="45.6840081" lon="11.1967317"><ele>1028.0</ele><time>2026-04-12T08:49:03.778Z</time></trkpt><trkpt lat="45.6841585" lon="11.1967255"><ele>1028.0</ele><time>2026-04-12T08:49:04.778Z</time></trkpt><trkpt lat="45.6842953" lon="11.1966815"><ele>1028.0</ele><time>2026-04-12T08:49:05.778Z</time></trkpt><trkpt lat="45.6844245" lon="11.1966181"><ele>1029.5</ele><time>2026-04-12T08:49:06.778Z</time></trkpt><trkpt lat="45.6845479" lon="11.1965487"><ele>1031.0</ele><time>2026-04-12T08:49:07.777Z</time></trkpt><trkpt lat="45.6846605" lon="11.1964834"><ele>1032.5</ele><time>2026-04-12T08:49:08.778Z</time></trkpt><trkpt lat="45.6847763" lon="11.1964322"><ele>1034.0</ele><time>2026-04-12T08:49:09.777Z</time></trkpt><trkpt lat="45.6848949" lon="11.196411"><ele>1034.0</ele><time>2026-04-12T08:49:10.777Z</time></trkpt><trkpt lat="45.6850134" lon="11.196416"><ele>1034.0</ele><time>2026-04-12T08:49:11.777Z</time></trkpt><trkpt lat="45.6851342" lon="11.1964327"><ele>1034.0</ele><time>2026-04-12T08:49:12.777Z</time></trkpt><trkpt lat="45.6852588" lon="11.1964585"><ele>1034.0</ele><time>2026-04-12T08:49:13.777Z</time></trkpt><trkpt lat="45.6853908" lon="11.1964926"><ele>1036.25</ele><time>2026-04-12T08:49:14.777Z</time></trkpt><trkpt lat="45.6855227" lon="11.1965232"><ele>1038.5</ele><time>2026-04-12T08:49:15.778Z</time></trkpt><trkpt lat="45.6856389" lon="11.1965397"><ele>1040.75</ele><time>2026-04-12T08:49:16.777Z</time></trkpt><trkpt lat="45.6857479" lon="11.1965486"><ele>1043.0</ele><time>2026-04-12T08:49:17.777Z</time></trkpt><trkpt lat="45.6858545" lon="11.1965638"><ele>1043.0</ele><time>2026-04-12T08:49:18.778Z</time></trkpt><trkpt lat="45.685965" lon="11.19658"><ele>1043.0</ele><time>2026-04-12T08:49:19.777Z</time></trkpt><trkpt lat="45.6860855" lon="11.1965893"><ele>1043.0</ele><time>2026-04-12T08:49:20.778Z</time></trkpt><trkpt lat="45.6862072" lon="11.196599"><ele>1043.0</ele><time>2026-04-12T08:49:21.778Z</time></trkpt><trkpt lat="45.6863195" lon="11.1966038"><ele>1042.8333333333335</ele><time>2026-04-12T08:49:22.778Z</time></trkpt><trkpt lat="45.6864201" lon="11.1966096"><ele>1042.6666666666667</ele><time>2026-04-12T08:49:23.778Z</time></trkpt><trkpt lat="45.6865057" lon="11.1966086"><ele>1042.5</ele><time>2026-04-12T08:49:24.778Z</time></trkpt><trkpt lat="45.6865823" lon="11.1965926"><ele>1042.3333333333333</ele><time>2026-04-12T08:49:25.778Z</time></trkpt><trkpt lat="45.6866521" lon="11.1965574"><ele>1042.1666666666665</ele><time>2026-04-12T08:49:26.778Z</time></trkpt><trkpt lat="45.6867088" lon="11.1965072"><ele>1042.0</ele><time>2026-04-12T08:49:27.778Z</time></trkpt><trkpt lat="45.6867626" lon="11.1963434"><ele>1042.0</ele><time>2026-04-12T08:49:29.777Z</time></trkpt><trkpt lat="45.6867673" lon="11.196218"><ele>1042.0</ele><time>2026-04-12T08:49:30.778Z</time></trkpt><trkpt lat="45.686758" lon="11.1960757"><ele>1042.0</ele><time>2026-04-12T08:49:31.778Z</time></trkpt><trkpt lat="45.6867399" lon="11.1959194"><ele>1042.0</ele><time>2026-04-12T08:49:32.778Z</time></trkpt><trkpt lat="45.686721" lon="11.1957599"><ele>1042.0</ele><time>2026-04-12T08:49:33.777Z</time></trkpt><trkpt lat="45.6867074" lon="11.1955987"><ele>1042.4</ele><time>2026-04-12T08:49:34.777Z</time></trkpt><trkpt lat="45.6867087" lon="11.1954492"><ele>1042.8000000000002</ele><time>2026-04-12T08:49:35.778Z</time></trkpt><trkpt lat="45.6867096" lon="11.1953152"><ele>1043.2</ele><time>2026-04-12T08:49:36.778Z</time></trkpt><trkpt lat="45.6867188" lon="11.1951931"><ele>1043.6000000000001</ele><time>2026-04-12T08:49:37.777Z</time></trkpt><trkpt lat="45.6867378" lon="11.195079"><ele>1044.0</ele><time>2026-04-12T08:49:38.778Z</time></trkpt><trkpt lat="45.6867655" lon="11.1949485"><ele>1044.6000000000001</ele><time>2026-04-12T08:49:39.778Z</time></trkpt><trkpt lat="45.6867959" lon="11.1948157"><ele>1045.2</ele><time>2026-04-12T08:49:40.778Z</time></trkpt><trkpt lat="45.6868377" lon="11.1946865"><ele>1045.8000000000002</ele><time>2026-04-12T08:49:41.778Z</time></trkpt><trkpt lat="45.6868846" lon="11.1945602"><ele>1046.4</ele><time>2026-04-12T08:49:42.777Z</time></trkpt><trkpt lat="45.6869419" lon="11.1944423"><ele>1047.0</ele><time>2026-04-12T08:49:43.778Z</time></trkpt><trkpt lat="45.687004" lon="11.1943443"><ele>1045.0</ele><time>2026-04-12T08:49:44.777Z</time></trkpt><trkpt lat="45.6870751" lon="11.1942742"><ele>1043.0</ele><time>2026-04-12T08:49:45.777Z</time></trkpt><trkpt lat="45.6871538" lon="11.1942342"><ele>1041.0</ele><time>2026-04-12T08:49:46.777Z</time></trkpt><trkpt lat="45.6872517" lon="11.1942293"><ele>1039.0</ele><time>2026-04-12T08:49:47.778Z</time></trkpt><trkpt lat="45.6873687" lon="11.194258"><ele>1037.0</ele><time>2026-04-12T08:49:48.778Z</time></trkpt><trkpt lat="45.6874928" lon="11.1943147"><ele>1037.0</ele><time>2026-04-12T08:49:49.777Z</time></trkpt><trkpt lat="45.6876086" lon="11.1943768"><ele>1037.0</ele><time>2026-04-12T08:49:50.778Z</time></trkpt><trkpt lat="45.6877311" lon="11.1944142"><ele>1037.0</ele><time>2026-04-12T08:49:51.777Z</time></trkpt><trkpt lat="45.6878512" lon="11.1944364"><ele>1037.0</ele><time>2026-04-12T08:49:52.778Z</time></trkpt><trkpt lat="45.6879704" lon="11.1944425"><ele>1034.8</ele><time>2026-04-12T08:49:53.778Z</time></trkpt><trkpt lat="45.68808" lon="11.1944482"><ele>1032.6</ele><time>2026-04-12T08:49:54.778Z</time></trkpt><trkpt lat="45.6881851" lon="11.1944459"><ele>1030.3999999999999</ele><time>2026-04-12T08:49:55.777Z</time></trkpt><trkpt lat="45.6882837" lon="11.1944301"><ele>1028.2</ele><time>2026-04-12T08:49:56.778Z</time></trkpt><trkpt lat="45.6883783" lon="11.1943974"><ele>1026.0</ele><time>2026-04-12T08:49:57.777Z</time></trkpt><trkpt lat="45.6884786" lon="11.1943631"><ele>1026.0</ele><time>2026-04-12T08:49:58.778Z</time></trkpt><trkpt lat="45.6885726" lon="11.1943305"><ele>1026.0</ele><time>2026-04-12T08:49:59.777Z</time></trkpt><trkpt lat="45.6886586" lon="11.1942974"><ele>1026.0</ele><time>2026-04-12T08:50:00.777Z</time></trkpt><trkpt lat="45.688737" lon="11.1942435"><ele>1026.0</ele><time>2026-04-12T08:50:01.777Z</time></trkpt><trkpt lat="45.688809" lon="11.1941758"><ele>1026.0</ele><time>2026-04-12T08:50:02.777Z</time></trkpt><trkpt lat="45.6888828" lon="11.1940822"><ele>1028.2</ele><time>2026-04-12T08:50:03.778Z</time></trkpt><trkpt lat="45.6889539" lon="11.193997"><ele>1030.3999999999999</ele><time>2026-04-12T08:50:04.778Z</time></trkpt><trkpt lat="45.6890322" lon="11.1938967"><ele>1032.6</ele><time>2026-04-12T08:50:05.777Z</time></trkpt><trkpt lat="45.6891167" lon="11.1938131"><ele>1034.8</ele><time>2026-04-12T08:50:06.777Z</time></trkpt><trkpt lat="45.6892021" lon="11.1937518"><ele>1037.0</ele><time>2026-04-12T08:50:07.777Z</time></trkpt><trkpt lat="45.689291" lon="11.1937215"><ele>1037.0</ele><time>2026-04-12T08:50:08.777Z</time></trkpt><trkpt lat="45.68938" lon="11.1937354"><ele>1037.0</ele><time>2026-04-12T08:50:09.777Z</time></trkpt><trkpt lat="45.68947" lon="11.1937797"><ele>1037.0</ele><time>2026-04-12T08:50:10.777Z</time></trkpt><trkpt lat="45.6895545" lon="11.1938304"><ele>1037.0</ele><time>2026-04-12T08:50:11.777Z</time></trkpt><trkpt lat="45.6896459" lon="11.1938917"><ele>1037.0</ele><time>2026-04-12T08:50:12.777Z</time></trkpt><trkpt lat="45.6897493" lon="11.1939607"><ele>1031.75</ele><time>2026-04-12T08:50:13.777Z</time></trkpt><trkpt lat="45.689861" lon="11.1940309"><ele>1026.5</ele><time>2026-04-12T08:50:14.777Z</time></trkpt><trkpt lat="45.6899654" lon="11.1940956"><ele>1021.25</ele><time>2026-04-12T08:50:15.777Z</time></trkpt><trkpt lat="45.6900707" lon="11.1941286"><ele>1016.0</ele><time>2026-04-12T08:50:16.777Z</time></trkpt><trkpt lat="45.6901823" lon="11.1941341"><ele>1012.0</ele><time>2026-04-12T08:50:17.777Z</time></trkpt><trkpt lat="45.6903094" lon="11.1941265"><ele>1008.0</ele><time>2026-04-12T08:50:18.778Z</time></trkpt><trkpt lat="45.6904396" lon="11.1941028"><ele>1004.0</ele><time>2026-04-12T08:50:19.778Z</time></trkpt><trkpt lat="45.6905657" lon="11.1940793"><ele>1000.0</ele><time>2026-04-12T08:50:20.777Z</time></trkpt><trkpt lat="45.6906952" lon="11.1940456"><ele>1004.25</ele><time>2026-04-12T08:50:21.778Z</time></trkpt><trkpt lat="45.6908196" lon="11.1940014"><ele>1008.5</ele><time>2026-04-12T08:50:22.778Z</time></trkpt><trkpt lat="45.6909361" lon="11.193952"><ele>1012.75</ele><time>2026-04-12T08:50:23.778Z</time></trkpt><trkpt lat="45.6910547" lon="11.193908"><ele>1017.0</ele><time>2026-04-12T08:50:24.778Z</time></trkpt><trkpt lat="45.6911617" lon="11.193854"><ele>1017.0</ele><time>2026-04-12T08:50:25.777Z</time></trkpt><trkpt lat="45.6912703" lon="11.1938085"><ele>1017.0</ele><time>2026-04-12T08:50:26.777Z</time></trkpt><trkpt lat="45.6913732" lon="11.1937849"><ele>1017.0</ele><time>2026-04-12T08:50:27.778Z</time></trkpt><trkpt lat="45.6915877" lon="11.193799"><ele>1017.0</ele><time>2026-04-12T08:50:29.778Z</time></trkpt><trkpt lat="45.6916967" lon="11.1938166"><ele>1017.0</ele><time>2026-04-12T08:50:30.778Z</time></trkpt><trkpt lat="45.6918013" lon="11.1938148"><ele>1017.0</ele><time>2026-04-12T08:50:31.777Z</time></trkpt><trkpt lat="45.69191" lon="11.1937864"><ele>1017.0</ele><time>2026-04-12T08:50:32.778Z</time></trkpt><trkpt lat="45.6920276" lon="11.1937442"><ele>1017.0</ele><time>2026-04-12T08:50:33.777Z</time></trkpt><trkpt lat="45.6921442" lon="11.1936929"><ele>1015.75</ele><time>2026-04-12T08:50:34.778Z</time></trkpt><trkpt lat="45.6922678" lon="11.1936537"><ele>1014.5</ele><time>2026-04-12T08:50:35.778Z</time></trkpt><trkpt lat="45.6923866" lon="11.1935977"><ele>1013.25</ele><time>2026-04-12T08:50:36.778Z</time></trkpt><trkpt lat="45.6924989" lon="11.1935527"><ele>1012.0</ele><time>2026-04-12T08:50:37.778Z</time></trkpt><trkpt lat="45.6926203" lon="11.1935232"><ele>1012.0</ele><time>2026-04-12T08:50:38.777Z</time></trkpt><trkpt lat="45.692739" lon="11.1935091"><ele>1012.0</ele><time>2026-04-12T08:50:39.777Z</time></trkpt><trkpt lat="45.692851" lon="11.1934988"><ele>1012.0</ele><time>2026-04-12T08:50:40.777Z</time></trkpt><trkpt lat="45.6929611" lon="11.193483"><ele>1012.0</ele><time>2026-04-12T08:50:41.778Z</time></trkpt><trkpt lat="45.6930638" lon="11.1934747"><ele>1012.0</ele><time>2026-04-12T08:50:42.778Z</time></trkpt><trkpt lat="45.693166" lon="11.1934529"><ele>1008.3333333333333</ele><time>2026-04-12T08:50:43.777Z</time></trkpt><trkpt lat="45.693263" lon="11.1934145"><ele>1004.6666666666666</ele><time>2026-04-12T08:50:44.778Z</time></trkpt><trkpt lat="45.6933533" lon="11.1933615"><ele>1001.0</ele><time>2026-04-12T08:50:45.777Z</time></trkpt><trkpt lat="45.6934319" lon="11.1933042"><ele>997.3333333333333</ele><time>2026-04-12T08:50:46.777Z</time></trkpt><trkpt lat="45.6935041" lon="11.1932517"><ele>993.6666666666666</ele><time>2026-04-12T08:50:47.777Z</time></trkpt><trkpt lat="45.6935673" lon="11.1932094"><ele>990.0</ele><time>2026-04-12T08:50:48.778Z</time></trkpt><trkpt lat="45.6936361" lon="11.1931634"><ele>990.0</ele><time>2026-04-12T08:50:50.778Z</time></trkpt><trkpt lat="45.6935542" lon="11.193306"><ele>990.0</ele><time>2026-04-12T08:50:52.778Z</time></trkpt><trkpt lat="45.6934434" lon="11.193405"><ele>990.0</ele><time>2026-04-12T08:50:53.777Z</time></trkpt><trkpt lat="45.6933009" lon="11.1935107"><ele>990.0</ele><time>2026-04-12T08:50:54.778Z</time></trkpt><trkpt lat="45.693152" lon="11.1936142"><ele>990.0</ele><time>2026-04-12T08:50:55.778Z</time></trkpt><trkpt lat="45.6929773" lon="11.1937135"><ele>990.0</ele><time>2026-04-12T08:50:56.777Z</time></trkpt><trkpt lat="45.6928032" lon="11.1938093"><ele>990.0</ele><time>2026-04-12T08:50:57.778Z</time></trkpt><trkpt lat="45.6926463" lon="11.1939013"><ele>985.25</ele><time>2026-04-12T08:50:58.778Z</time></trkpt><trkpt lat="45.6924989" lon="11.1939963"><ele>980.5</ele><time>2026-04-12T08:50:59.778Z</time></trkpt><trkpt lat="45.6923627" lon="11.1940862"><ele>975.75</ele><time>2026-04-12T08:51:00.778Z</time></trkpt><trkpt lat="45.6922376" lon="11.1941654"><ele>971.0</ele><time>2026-04-12T08:51:01.777Z</time></trkpt><trkpt lat="45.6921239" lon="11.1942576"><ele>971.0</ele><time>2026-04-12T08:51:02.778Z</time></trkpt><trkpt lat="45.6920224" lon="11.1943421"><ele>970.9999999999999</ele><time>2026-04-12T08:51:03.778Z</time></trkpt><trkpt lat="45.6919263" lon="11.194417"><ele>970.9999999999999</ele><time>2026-04-12T08:51:04.777Z</time></trkpt><trkpt lat="45.6918343" lon="11.194473"><ele>971.0</ele><time>2026-04-12T08:51:05.777Z</time></trkpt><trkpt lat="45.6917392" lon="11.194495"><ele>971.0</ele><time>2026-04-12T08:51:06.777Z</time></trkpt><trkpt lat="45.6916405" lon="11.1944997"><ele>973.8</ele><time>2026-04-12T08:51:07.777Z</time></trkpt><trkpt lat="45.691541" lon="11.1945144"><ele>976.5999999999999</ele><time>2026-04-12T08:51:08.777Z</time></trkpt><trkpt lat="45.6914525" lon="11.1945664"><ele>979.4</ele><time>2026-04-12T08:51:09.777Z</time></trkpt><trkpt lat="45.6913647" lon="11.1946548"><ele>982.2</ele><time>2026-04-12T08:51:10.777Z</time></trkpt><trkpt lat="45.6912803" lon="11.194782"><ele>985.0</ele><time>2026-04-12T08:51:11.777Z</time></trkpt><trkpt lat="45.6911904" lon="11.1949026"><ele>980.0</ele><time>2026-04-12T08:51:12.777Z</time></trkpt><trkpt lat="45.6910834" lon="11.1949967"><ele>975.0</ele><time>2026-04-12T08:51:13.777Z</time></trkpt><trkpt lat="45.6909547" lon="11.195075"><ele>970.0</ele><time>2026-04-12T08:51:14.778Z</time></trkpt><trkpt lat="45.6908154" lon="11.1951565"><ele>965.0</ele><time>2026-04-12T08:51:15.778Z</time></trkpt><trkpt lat="45.6906856" lon="11.1952418"><ele>965.0</ele><time>2026-04-12T08:51:16.777Z</time></trkpt><trkpt lat="45.690567" lon="11.1953263"><ele>965.0</ele><time>2026-04-12T08:51:17.778Z</time></trkpt><trkpt lat="45.6904582" lon="11.1953819"><ele>965.0</ele><time>2026-04-12T08:51:18.778Z</time></trkpt><trkpt lat="45.6903577" lon="11.1954818"><ele>965.0</ele><time>2026-04-12T08:51:19.778Z</time></trkpt><trkpt lat="45.6902582" lon="11.1955895"><ele>960.5</ele><time>2026-04-12T08:51:20.778Z</time></trkpt><trkpt lat="45.6901654" lon="11.1957189"><ele>956.0</ele><time>2026-04-12T08:51:21.778Z</time></trkpt><trkpt lat="45.6900669" lon="11.1958492"><ele>951.5</ele><time>2026-04-12T08:51:22.777Z</time></trkpt><trkpt lat="45.6899764" lon="11.1959863"><ele>947.0</ele><time>2026-04-12T08:51:23.778Z</time></trkpt><trkpt lat="45.689891" lon="11.1961078"><ele>947.0</ele><time>2026-04-12T08:51:24.777Z</time></trkpt><trkpt lat="45.6898175" lon="11.196238"><ele>947.0</ele><time>2026-04-12T08:51:25.778Z</time></trkpt><trkpt lat="45.6897596" lon="11.1963477"><ele>947.0</ele><time>2026-04-12T08:51:26.777Z</time></trkpt><trkpt lat="45.6897204" lon="11.1964306"><ele>947.0</ele><time>2026-04-12T08:51:27.777Z</time></trkpt><trkpt lat="45.6896611" lon="11.1965364"><ele>947.0</ele><time>2026-04-12T08:51:29.777Z</time></trkpt><trkpt lat="45.6897745" lon="11.1964387"><ele>947.0</ele><time>2026-04-12T08:51:33.778Z</time></trkpt><trkpt lat="45.6898738" lon="11.1963006"><ele>947.0</ele><time>2026-04-12T08:51:34.778Z</time></trkpt><trkpt lat="45.6900007" lon="11.1961276"><ele>947.0</ele><time>2026-04-12T08:51:35.778Z</time></trkpt><trkpt lat="45.6901539" lon="11.1959329"><ele>953.0</ele><time>2026-04-12T08:51:36.778Z</time></trkpt><trkpt lat="45.6902986" lon="11.1957552"><ele>959.0</ele><time>2026-04-12T08:51:37.777Z</time></trkpt><trkpt lat="45.6904321" lon="11.1956058"><ele>965.0</ele><time>2026-04-12T08:51:38.778Z</time></trkpt><trkpt lat="45.6905519" lon="11.1955032"><ele>965.0</ele><time>2026-04-12T08:51:39.777Z</time></trkpt><trkpt lat="45.6906841" lon="11.1954456"><ele>965.0</ele><time>2026-04-12T08:51:40.778Z</time></trkpt><trkpt lat="45.69083" lon="11.1954232"><ele>965.0</ele><time>2026-04-12T08:51:41.778Z</time></trkpt><trkpt lat="45.6909804" lon="11.1953894"><ele>965.0</ele><time>2026-04-12T08:51:42.778Z</time></trkpt><trkpt lat="45.6911353" lon="11.1953501"><ele>959.25</ele><time>2026-04-12T08:51:43.778Z</time></trkpt><trkpt lat="45.6912838" lon="11.1953086"><ele>953.5</ele><time>2026-04-12T08:51:44.777Z</time></trkpt><trkpt lat="45.6914222" lon="11.1952856"><ele>947.75</ele><time>2026-04-12T08:51:45.777Z</time></trkpt><trkpt lat="45.6915536" lon="11.1952652"><ele>942.0</ele><time>2026-04-12T08:51:46.778Z</time></trkpt><trkpt lat="45.6916783" lon="11.19525"><ele>942.0</ele><time>2026-04-12T08:51:47.778Z</time></trkpt><trkpt lat="45.6917971" lon="11.1952786"><ele>942.0</ele><time>2026-04-12T08:51:48.778Z</time></trkpt><trkpt lat="45.6919073" lon="11.1953149"><ele>942.0</ele><time>2026-04-12T08:51:49.778Z</time></trkpt><trkpt lat="45.6920187" lon="11.1953557"><ele>942.0</ele><time>2026-04-12T08:51:50.778Z</time></trkpt><trkpt lat="45.6921382" lon="11.1953767"><ele>938.75</ele><time>2026-04-12T08:51:51.778Z</time></trkpt><trkpt lat="45.692265" lon="11.1953804"><ele>935.5</ele><time>2026-04-12T08:51:52.777Z</time></trkpt><trkpt lat="45.6923918" lon="11.1953757"><ele>932.25</ele><time>2026-04-12T08:51:53.778Z</time></trkpt><trkpt lat="45.6925213" lon="11.1953628"><ele>929.0</ele><time>2026-04-12T08:51:54.778Z</time></trkpt><trkpt lat="45.6926475" lon="11.1953601"><ele>923.75</ele><time>2026-04-12T08:51:55.778Z</time></trkpt><trkpt lat="45.6927729" lon="11.1953503"><ele>918.5</ele><time>2026-04-12T08:51:56.778Z</time></trkpt><trkpt lat="45.6928981" lon="11.1953452"><ele>913.25</ele><time>2026-04-12T08:51:57.777Z</time></trkpt><trkpt lat="45.6930268" lon="11.1953263"><ele>908.0</ele><time>2026-04-12T08:51:58.778Z</time></trkpt><trkpt lat="45.6931434" lon="11.1953014"><ele>908.0</ele><time>2026-04-12T08:51:59.778Z</time></trkpt><trkpt lat="45.6932594" lon="11.1952306"><ele>908.0</ele><time>2026-04-12T08:52:00.778Z</time></trkpt><trkpt lat="45.6933674" lon="11.1951464"><ele>908.0</ele><time>2026-04-12T08:52:01.778Z</time></trkpt><trkpt lat="45.6934645" lon="11.1950322"><ele>908.0</ele><time>2026-04-12T08:52:02.777Z</time></trkpt><trkpt lat="45.6935496" lon="11.1949194"><ele>909.0</ele><time>2026-04-12T08:52:03.778Z</time></trkpt><trkpt lat="45.6936484" lon="11.1948186"><ele>910.0</ele><time>2026-04-12T08:52:04.777Z</time></trkpt><trkpt lat="45.693771" lon="11.1947433"><ele>911.0</ele><time>2026-04-12T08:52:05.777Z</time></trkpt><trkpt lat="45.6939119" lon="11.1946941"><ele>912.0</ele><time>2026-04-12T08:52:06.778Z</time></trkpt><trkpt lat="45.6940655" lon="11.1946546"><ele>912.0</ele><time>2026-04-12T08:52:07.778Z</time></trkpt><trkpt lat="45.6942179" lon="11.1946124"><ele>912.0</ele><time>2026-04-12T08:52:08.778Z</time></trkpt><trkpt lat="45.6943604" lon="11.1945614"><ele>912.0</ele><time>2026-04-12T08:52:09.778Z</time></trkpt><trkpt lat="45.6945006" lon="11.1945134"><ele>912.0</ele><time>2026-04-12T08:52:10.778Z</time></trkpt><trkpt lat="45.6946142" lon="11.1944609"><ele>906.2</ele><time>2026-04-12T08:52:11.777Z</time></trkpt><trkpt lat="45.6947074" lon="11.1943969"><ele>900.4000000000001</ele><time>2026-04-12T08:52:12.778Z</time></trkpt><trkpt lat="45.6947823" lon="11.1942863"><ele>894.5999999999999</ele><time>2026-04-12T08:52:13.777Z</time></trkpt><trkpt lat="45.6948497" lon="11.1941656"><ele>888.8</ele><time>2026-04-12T08:52:14.778Z</time></trkpt><trkpt lat="45.6949042" lon="11.1940185"><ele>883.0</ele><time>2026-04-12T08:52:15.777Z</time></trkpt><trkpt lat="45.6949376" lon="11.1938671"><ele>883.0</ele><time>2026-04-12T08:52:16.778Z</time></trkpt><trkpt lat="45.6949509" lon="11.193717"><ele>883.0</ele><time>2026-04-12T08:52:17.777Z</time></trkpt><trkpt lat="45.6949465" lon="11.1935658"><ele>883.0</ele><time>2026-04-12T08:52:18.778Z</time></trkpt><trkpt lat="45.6949412" lon="11.1934094"><ele>883.0</ele><time>2026-04-12T08:52:19.776Z</time></trkpt><trkpt lat="45.6949694" lon="11.1932618"><ele>883.0</ele><time>2026-04-12T08:52:20.777Z</time></trkpt><trkpt lat="45.6950316" lon="11.1931375"><ele>885.4</ele><time>2026-04-12T08:52:21.776Z</time></trkpt><trkpt lat="45.6950987" lon="11.1930344"><ele>887.8</ele><time>2026-04-12T08:52:22.776Z</time></trkpt><trkpt lat="45.6951616" lon="11.1929269"><ele>890.2</ele><time>2026-04-12T08:52:23.777Z</time></trkpt><trkpt lat="45.6952112" lon="11.1928189"><ele>892.6</ele><time>2026-04-12T08:52:24.777Z</time></trkpt><trkpt lat="45.6952575" lon="11.1927352"><ele>895.0</ele><time>2026-04-12T08:52:25.776Z</time></trkpt><trkpt lat="45.6953496" lon="11.1927002"><ele>885.5</ele><time>2026-04-12T08:52:27.777Z</time></trkpt><trkpt lat="45.6953744" lon="11.1928537"><ele>876.0</ele><time>2026-04-12T08:52:29.776Z</time></trkpt><trkpt lat="45.6953763" lon="11.1929872"><ele>866.5</ele><time>2026-04-12T08:52:30.776Z</time></trkpt><trkpt lat="45.6953793" lon="11.1931589"><ele>857.0</ele><time>2026-04-12T08:52:31.776Z</time></trkpt><trkpt lat="45.6953756" lon="11.1933595"><ele>854.25</ele><time>2026-04-12T08:52:32.777Z</time></trkpt><trkpt lat="45.6953661" lon="11.1935798"><ele>851.5</ele><time>2026-04-12T08:52:33.776Z</time></trkpt><trkpt lat="45.6953534" lon="11.1937866"><ele>848.75</ele><time>2026-04-12T08:52:34.777Z</time></trkpt><trkpt lat="45.6953177" lon="11.1939615"><ele>846.0</ele><time>2026-04-12T08:52:35.777Z</time></trkpt><trkpt lat="45.695257" lon="11.1941319"><ele>853.75</ele><time>2026-04-12T08:52:36.777Z</time></trkpt><trkpt lat="45.6951931" lon="11.1943056"><ele>861.5</ele><time>2026-04-12T08:52:37.777Z</time></trkpt><trkpt lat="45.6951306" lon="11.1944777"><ele>869.25</ele><time>2026-04-12T08:52:38.776Z</time></trkpt><trkpt lat="45.6950783" lon="11.1946525"><ele>877.0</ele><time>2026-04-12T08:52:39.777Z</time></trkpt><trkpt lat="45.6950283" lon="11.1948029"><ele>874.0</ele><time>2026-04-12T08:52:40.777Z</time></trkpt><trkpt lat="45.6949689" lon="11.1949243"><ele>871.0</ele><time>2026-04-12T08:52:41.776Z</time></trkpt><trkpt lat="45.6948929" lon="11.1950214"><ele>868.0</ele><time>2026-04-12T08:52:42.777Z</time></trkpt><trkpt lat="45.69479" lon="11.1950909"><ele>865.0</ele><time>2026-04-12T08:52:43.776Z</time></trkpt><trkpt lat="45.6946698" lon="11.1951606"><ele>862.0</ele><time>2026-04-12T08:52:44.776Z</time></trkpt><trkpt lat="45.69454" lon="11.1952222"><ele>862.0</ele><time>2026-04-12T08:52:45.776Z</time></trkpt><trkpt lat="45.694423" lon="11.1952874"><ele>862.0</ele><time>2026-04-12T08:52:46.777Z</time></trkpt><trkpt lat="45.6943155" lon="11.1953857"><ele>862.0</ele><time>2026-04-12T08:52:47.777Z</time></trkpt><trkpt lat="45.6942038" lon="11.195492"><ele>862.0</ele><time>2026-04-12T08:52:48.777Z</time></trkpt><trkpt lat="45.69409" lon="11.1956246"><ele>857.25</ele><time>2026-04-12T08:52:49.777Z</time></trkpt><trkpt lat="45.6939788" lon="11.195745"><ele>852.5</ele><time>2026-04-12T08:52:50.777Z</time></trkpt><trkpt lat="45.6938601" lon="11.1958428"><ele>847.75</ele><time>2026-04-12T08:52:51.776Z</time></trkpt><trkpt lat="45.6937496" lon="11.1959617"><ele>843.0</ele><time>2026-04-12T08:52:52.777Z</time></trkpt><trkpt lat="45.6936615" lon="11.1960941"><ele>844.0</ele><time>2026-04-12T08:52:53.777Z</time></trkpt><trkpt lat="45.6935874" lon="11.1962439"><ele>845.0</ele><time>2026-04-12T08:52:54.776Z</time></trkpt><trkpt lat="45.6935281" lon="11.196412"><ele>846.0</ele><time>2026-04-12T08:52:55.777Z</time></trkpt><trkpt lat="45.6934767" lon="11.1965904"><ele>847.0</ele><time>2026-04-12T08:52:56.776Z</time></trkpt><trkpt lat="45.6934334" lon="11.1967645"><ele>847.0</ele><time>2026-04-12T08:52:57.777Z</time></trkpt><trkpt lat="45.6933946" lon="11.1969182"><ele>847.0</ele><time>2026-04-12T08:52:58.776Z</time></trkpt><trkpt lat="45.6933444" lon="11.197032"><ele>847.0</ele><time>2026-04-12T08:52:59.777Z</time></trkpt><trkpt lat="45.6932791" lon="11.1971206"><ele>847.0</ele><time>2026-04-12T08:53:00.777Z</time></trkpt><trkpt lat="45.6931843" lon="11.1971858"><ele>847.0</ele><time>2026-04-12T08:53:01.776Z</time></trkpt><trkpt lat="45.6930661" lon="11.1972461"><ele>847.0</ele><time>2026-04-12T08:53:02.777Z</time></trkpt><trkpt lat="45.6929445" lon="11.1972949"><ele>847.0</ele><time>2026-04-12T08:53:03.777Z</time></trkpt><trkpt lat="45.6928226" lon="11.197329"><ele>847.0</ele><time>2026-04-12T08:53:04.777Z</time></trkpt><trkpt lat="45.6926998" lon="11.1973496"><ele>847.0</ele><time>2026-04-12T08:53:05.777Z</time></trkpt><trkpt lat="45.6925747" lon="11.1973532"><ele>842.5</ele><time>2026-04-12T08:53:06.777Z</time></trkpt><trkpt lat="45.6924451" lon="11.1973481"><ele>838.0</ele><time>2026-04-12T08:53:07.777Z</time></trkpt><trkpt lat="45.6923173" lon="11.1973643"><ele>833.5</ele><time>2026-04-12T08:53:08.777Z</time></trkpt><trkpt lat="45.6922092" lon="11.1973896"><ele>829.0</ele><time>2026-04-12T08:53:09.776Z</time></trkpt><trkpt lat="45.6921095" lon="11.1974357"><ele>829.0</ele><time>2026-04-12T08:53:10.776Z</time></trkpt><trkpt lat="45.6920178" lon="11.1975018"><ele>829.0</ele><time>2026-04-12T08:53:11.776Z</time></trkpt><trkpt lat="45.6919323" lon="11.1975954"><ele>829.0</ele><time>2026-04-12T08:53:12.776Z</time></trkpt><trkpt lat="45.6918599" lon="11.197717"><ele>829.0</ele><time>2026-04-12T08:53:13.777Z</time></trkpt><trkpt lat="45.6918058" lon="11.1978582"><ele>829.0</ele><time>2026-04-12T08:53:14.776Z</time></trkpt><trkpt lat="45.6917571" lon="11.198002"><ele>830.6</ele><time>2026-04-12T08:53:15.776Z</time></trkpt><trkpt lat="45.691706" lon="11.1981405"><ele>832.2</ele><time>2026-04-12T08:53:16.776Z</time></trkpt><trkpt lat="45.6916415" lon="11.1982653"><ele>833.8000000000001</ele><time>2026-04-12T08:53:17.777Z</time></trkpt><trkpt lat="45.6915651" lon="11.1983783"><ele>835.4000000000001</ele><time>2026-04-12T08:53:18.776Z</time></trkpt><trkpt lat="45.6914848" lon="11.1984834"><ele>837.0</ele><time>2026-04-12T08:53:19.777Z</time></trkpt><trkpt lat="45.6913996" lon="11.1985797"><ele>832.6</ele><time>2026-04-12T08:53:20.777Z</time></trkpt><trkpt lat="45.6913096" lon="11.1986542"><ele>828.2</ele><time>2026-04-12T08:53:21.777Z</time></trkpt><trkpt lat="45.6912136" lon="11.1987092"><ele>823.8</ele><time>2026-04-12T08:53:22.777Z</time></trkpt><trkpt lat="45.6911126" lon="11.1987408"><ele>819.4</ele><time>2026-04-12T08:53:23.777Z</time></trkpt><trkpt lat="45.6910089" lon="11.1987361"><ele>815.0</ele><time>2026-04-12T08:53:24.777Z</time></trkpt><trkpt lat="45.6909012" lon="11.19871"><ele>815.0000000000001</ele><time>2026-04-12T08:53:25.777Z</time></trkpt><trkpt lat="45.6907956" lon="11.1986844"><ele>815.0</ele><time>2026-04-12T08:53:26.777Z</time></trkpt><trkpt lat="45.6907" lon="11.1986657"><ele>815.0</ele><time>2026-04-12T08:53:27.777Z</time></trkpt><trkpt lat="45.6906222" lon="11.1986688"><ele>815.0</ele><time>2026-04-12T08:53:28.777Z</time></trkpt><trkpt lat="45.6905616" lon="11.1987015"><ele>815.0000000000001</ele><time>2026-04-12T08:53:29.777Z</time></trkpt><trkpt lat="45.6905656" lon="11.1988486"><ele>815.0</ele><time>2026-04-12T08:53:31.777Z</time></trkpt><trkpt lat="45.6906425" lon="11.198923"><ele>815.0</ele><time>2026-04-12T08:53:32.776Z</time></trkpt><trkpt lat="45.6907498" lon="11.1989809"><ele>815.0</ele><time>2026-04-12T08:53:33.776Z</time></trkpt><trkpt lat="45.6908752" lon="11.1990136"><ele>815.0</ele><time>2026-04-12T08:53:34.777Z</time></trkpt><trkpt lat="45.6909968" lon="11.1990261"><ele>815.0</ele><time>2026-04-12T08:53:35.776Z</time></trkpt><trkpt lat="45.6911149" lon="11.1990268"><ele>812.75</ele><time>2026-04-12T08:53:36.776Z</time></trkpt><trkpt lat="45.6912389" lon="11.1990087"><ele>810.5</ele><time>2026-04-12T08:53:37.776Z</time></trkpt><trkpt lat="45.6913615" lon="11.1989764"><ele>808.25</ele><time>2026-04-12T08:53:38.777Z</time></trkpt><trkpt lat="45.691479" lon="11.1989334"><ele>806.0</ele><time>2026-04-12T08:53:39.777Z</time></trkpt><trkpt lat="45.6915932" lon="11.1989105"><ele>806.0</ele><time>2026-04-12T08:53:40.776Z</time></trkpt><trkpt lat="45.6917053" lon="11.1989185"><ele>806.0</ele><time>2026-04-12T08:53:41.777Z</time></trkpt><trkpt lat="45.691822" lon="11.1989434"><ele>806.0</ele><time>2026-04-12T08:53:42.776Z</time></trkpt><trkpt lat="45.6919375" lon="11.1989878"><ele>806.0</ele><time>2026-04-12T08:53:43.777Z</time></trkpt><trkpt lat="45.692046" lon="11.1990265"><ele>805.8</ele><time>2026-04-12T08:53:44.776Z</time></trkpt><trkpt lat="45.6921419" lon="11.1990364"><ele>805.5999999999999</ele><time>2026-04-12T08:53:45.777Z</time></trkpt><trkpt lat="45.6922311" lon="11.1990142"><ele>805.4</ele><time>2026-04-12T08:53:46.777Z</time></trkpt><trkpt lat="45.6922999" lon="11.1989806"><ele>805.2</ele><time>2026-04-12T08:53:47.776Z</time></trkpt><trkpt lat="45.6923991" lon="11.1989986"><ele>805.0</ele><time>2026-04-12T08:53:49.776Z</time></trkpt><trkpt lat="45.6924062" lon="11.1991283"><ele>801.6</ele><time>2026-04-12T08:53:51.777Z</time></trkpt><trkpt lat="45.6923106" lon="11.1992406"><ele>798.2</ele><time>2026-04-12T08:53:53.776Z</time></trkpt><trkpt lat="45.6922216" lon="11.1992765"><ele>794.8</ele><time>2026-04-12T08:53:54.777Z</time></trkpt><trkpt lat="45.6921197" lon="11.1993047"><ele>791.4</ele><time>2026-04-12T08:53:55.777Z</time></trkpt><trkpt lat="45.6920126" lon="11.1993337"><ele>788.0</ele><time>2026-04-12T08:53:56.776Z</time></trkpt><trkpt lat="45.6919054" lon="11.1993544"><ele>788.0</ele><time>2026-04-12T08:53:57.776Z</time></trkpt><trkpt lat="45.6918023" lon="11.1993691"><ele>788.0</ele><time>2026-04-12T08:53:58.777Z</time></trkpt><trkpt lat="45.6917002" lon="11.1993763"><ele>788.0</ele><time>2026-04-12T08:53:59.777Z</time></trkpt><trkpt lat="45.6916026" lon="11.1993772"><ele>788.0</ele><time>2026-04-12T08:54:00.776Z</time></trkpt><trkpt lat="45.6915094" lon="11.199374"><ele>788.0</ele><time>2026-04-12T08:54:01.777Z</time></trkpt><trkpt lat="45.6914106" lon="11.1993772"><ele>788.0</ele><time>2026-04-12T08:54:02.777Z</time></trkpt><trkpt lat="45.6913079" lon="11.1994026"><ele>788.0</ele><time>2026-04-12T08:54:03.777Z</time></trkpt><trkpt lat="45.6912101" lon="11.199438"><ele>788.0</ele><time>2026-04-12T08:54:04.776Z</time></trkpt><trkpt lat="45.6911304" lon="11.199481"><ele>788.0</ele><time>2026-04-12T08:54:05.777Z</time></trkpt><trkpt lat="45.6910638" lon="11.199519"><ele>788.0</ele><time>2026-04-12T08:54:06.777Z</time></trkpt><trkpt lat="45.6910002" lon="11.1996168"><ele>788.0000000000001</ele><time>2026-04-12T08:54:08.776Z</time></trkpt><trkpt lat="45.6910515" lon="11.1997254"><ele>788.0</ele><time>2026-04-12T08:54:10.777Z</time></trkpt><trkpt lat="45.6911114" lon="11.1997648"><ele>788.0</ele><time>2026-04-12T08:54:11.777Z</time></trkpt><trkpt lat="45.6911898" lon="11.1997973"><ele>788.0</ele><time>2026-04-12T08:54:12.777Z</time></trkpt><trkpt lat="45.6912686" lon="11.1998451"><ele>788.0000000000001</ele><time>2026-04-12T08:54:13.777Z</time></trkpt><trkpt lat="45.6913286" lon="11.1999169"><ele>788.0</ele><time>2026-04-12T08:54:14.777Z</time></trkpt><trkpt lat="45.6913739" lon="11.2000063"><ele>784.5999999999999</ele><time>2026-04-12T08:54:15.776Z</time></trkpt><trkpt lat="45.6914261" lon="11.200098"><ele>781.1999999999999</ele><time>2026-04-12T08:54:16.776Z</time></trkpt><trkpt lat="45.6914872" lon="11.2001775"><ele>777.8</ele><time>2026-04-12T08:54:17.777Z</time></trkpt><trkpt lat="45.6915707" lon="11.2002421"><ele>774.4</ele><time>2026-04-12T08:54:18.776Z</time></trkpt><trkpt lat="45.6916662" lon="11.2002815"><ele>771.0</ele><time>2026-04-12T08:54:19.777Z</time></trkpt><trkpt lat="45.6917658" lon="11.2002999"><ele>771.0</ele><time>2026-04-12T08:54:20.776Z</time></trkpt><trkpt lat="45.6918681" lon="11.2003124"><ele>771.0</ele><time>2026-04-12T08:54:21.776Z</time></trkpt><trkpt lat="45.6919673" lon="11.200307"><ele>771.0</ele><time>2026-04-12T08:54:22.776Z</time></trkpt><trkpt lat="45.6920631" lon="11.2002927"><ele>771.0</ele><time>2026-04-12T08:54:23.777Z</time></trkpt><trkpt lat="45.692166" lon="11.2002657"><ele>771.0</ele><time>2026-04-12T08:54:24.777Z</time></trkpt><trkpt lat="45.6922578" lon="11.2002214"><ele>768.5</ele><time>2026-04-12T08:54:25.776Z</time></trkpt><trkpt lat="45.6923419" lon="11.2001579"><ele>766.0</ele><time>2026-04-12T08:54:26.776Z</time></trkpt><trkpt lat="45.6924106" lon="11.200083"><ele>763.5</ele><time>2026-04-12T08:54:27.776Z</time></trkpt><trkpt lat="45.6924648" lon="11.200004"><ele>761.0</ele><time>2026-04-12T08:54:28.776Z</time></trkpt><trkpt lat="45.6925408" lon="11.1999008"><ele>758.5</ele><time>2026-04-12T08:54:30.776Z</time></trkpt><trkpt lat="45.6925979" lon="11.1999618"><ele>756.0</ele><time>2026-04-12T08:54:33.776Z</time></trkpt><trkpt lat="45.6925592" lon="11.2000424"><ele>756.0</ele><time>2026-04-12T08:54:34.776Z</time></trkpt><trkpt lat="45.6924977" lon="11.2001345"><ele>756.0</ele><time>2026-04-12T08:54:35.777Z</time></trkpt><trkpt lat="45.6924218" lon="11.2002432"><ele>756.0</ele><time>2026-04-12T08:54:36.777Z</time></trkpt><trkpt lat="45.6923324" lon="11.2003616"><ele>756.0</ele><time>2026-04-12T08:54:37.776Z</time></trkpt><trkpt lat="45.6922355" lon="11.2004794"><ele>756.0</ele><time>2026-04-12T08:54:38.776Z</time></trkpt><trkpt lat="45.6921299" lon="11.2005903"><ele>752.75</ele><time>2026-04-12T08:54:39.776Z</time></trkpt><trkpt lat="45.692019" lon="11.200684"><ele>749.5</ele><time>2026-04-12T08:54:40.776Z</time></trkpt><trkpt lat="45.691916" lon="11.2007708"><ele>746.25</ele><time>2026-04-12T08:54:41.777Z</time></trkpt><trkpt lat="45.6918156" lon="11.2008506"><ele>743.0</ele><time>2026-04-12T08:54:42.777Z</time></trkpt><trkpt lat="45.6917133" lon="11.2009134"><ele>743.0</ele><time>2026-04-12T08:54:43.777Z</time></trkpt><trkpt lat="45.6916048" lon="11.2009494"><ele>743.0</ele><time>2026-04-12T08:54:44.777Z</time></trkpt><trkpt lat="45.6914818" lon="11.2009706"><ele>743.0</ele><time>2026-04-12T08:54:45.777Z</time></trkpt><trkpt lat="45.6913615" lon="11.2009857"><ele>743.0</ele><time>2026-04-12T08:54:46.777Z</time></trkpt><trkpt lat="45.6912489" lon="11.2009792"><ele>743.0</ele><time>2026-04-12T08:54:47.777Z</time></trkpt><trkpt lat="45.6911429" lon="11.2009564"><ele>743.0</ele><time>2026-04-12T08:54:48.776Z</time></trkpt><trkpt lat="45.6910344" lon="11.2009602"><ele>743.0</ele><time>2026-04-12T08:54:49.776Z</time></trkpt><trkpt lat="45.6909314" lon="11.2009949"><ele>743.0</ele><time>2026-04-12T08:54:50.776Z</time></trkpt><trkpt lat="45.6908362" lon="11.201059"><ele>743.0</ele><time>2026-04-12T08:54:51.777Z</time></trkpt><trkpt lat="45.6907519" lon="11.2011546"><ele>743.0</ele><time>2026-04-12T08:54:52.776Z</time></trkpt><trkpt lat="45.6906909" lon="11.2012683"><ele>743.0</ele><time>2026-04-12T08:54:53.776Z</time></trkpt><trkpt lat="45.6906496" lon="11.2014145"><ele>743.0</ele><time>2026-04-12T08:54:54.776Z</time></trkpt><trkpt lat="45.6906226" lon="11.2015848"><ele>743.0</ele><time>2026-04-12T08:54:55.777Z</time></trkpt><trkpt lat="45.6905995" lon="11.2017703"><ele>738.25</ele><time>2026-04-12T08:54:56.777Z</time></trkpt><trkpt lat="45.6905703" lon="11.2019429"><ele>733.5</ele><time>2026-04-12T08:54:57.777Z</time></trkpt><trkpt lat="45.6905445" lon="11.202117"><ele>728.75</ele><time>2026-04-12T08:54:58.777Z</time></trkpt><trkpt lat="45.6905004" lon="11.2022784"><ele>724.0</ele><time>2026-04-12T08:54:59.776Z</time></trkpt><trkpt lat="45.6904511" lon="11.2024338"><ele>719.0</ele><time>2026-04-12T08:55:00.777Z</time></trkpt><trkpt lat="45.6904016" lon="11.2025954"><ele>714.0</ele><time>2026-04-12T08:55:01.777Z</time></trkpt><trkpt lat="45.6903899" lon="11.2027743"><ele>709.0</ele><time>2026-04-12T08:55:02.776Z</time></trkpt><trkpt lat="45.6903927" lon="11.2029608"><ele>704.0</ele><time>2026-04-12T08:55:03.777Z</time></trkpt><trkpt lat="45.6903933" lon="11.2031349"><ele>706.6</ele><time>2026-04-12T08:55:04.777Z</time></trkpt><trkpt lat="45.6903727" lon="11.2033058"><ele>709.2</ele><time>2026-04-12T08:55:05.777Z</time></trkpt><trkpt lat="45.6903346" lon="11.2034593"><ele>711.8000000000001</ele><time>2026-04-12T08:55:06.777Z</time></trkpt><trkpt lat="45.6902899" lon="11.2035854"><ele>714.4000000000001</ele><time>2026-04-12T08:55:07.776Z</time></trkpt><trkpt lat="45.6902412" lon="11.2036754"><ele>717.0</ele><time>2026-04-12T08:55:08.776Z</time></trkpt><trkpt lat="45.6901822" lon="11.2038076"><ele>717.0</ele><time>2026-04-12T08:55:10.776Z</time></trkpt><trkpt lat="45.6902576" lon="11.2038608"><ele>717.0</ele><time>2026-04-12T08:55:12.777Z</time></trkpt><trkpt lat="45.6903406" lon="11.2038211"><ele>717.0</ele><time>2026-04-12T08:55:13.776Z</time></trkpt><trkpt lat="45.6904289" lon="11.2037533"><ele>717.0</ele><time>2026-04-12T08:55:14.777Z</time></trkpt><trkpt lat="45.6905203" lon="11.2036484"><ele>717.0</ele><time>2026-04-12T08:55:15.777Z</time></trkpt><trkpt lat="45.6906318" lon="11.203508"><ele>713.75</ele><time>2026-04-12T08:55:16.777Z</time></trkpt><trkpt lat="45.6907422" lon="11.2033563"><ele>710.5</ele><time>2026-04-12T08:55:17.777Z</time></trkpt><trkpt lat="45.6908464" lon="11.2032168"><ele>707.25</ele><time>2026-04-12T08:55:18.776Z</time></trkpt><trkpt lat="45.6909516" lon="11.2030816"><ele>704.0</ele><time>2026-04-12T08:55:19.777Z</time></trkpt><trkpt lat="45.6910475" lon="11.2029616"><ele>702.0</ele><time>2026-04-12T08:55:20.777Z</time></trkpt><trkpt lat="45.6911203" lon="11.2028589"><ele>700.0</ele><time>2026-04-12T08:55:21.776Z</time></trkpt><trkpt lat="45.6911838" lon="11.2027767"><ele>698.0</ele><time>2026-04-12T08:55:22.777Z</time></trkpt><trkpt lat="45.691237" lon="11.2027199"><ele>696.0</ele><time>2026-04-12T08:55:23.777Z</time></trkpt><trkpt lat="45.6913281" lon="11.2027589"><ele>694.0</ele><time>2026-04-12T08:55:25.776Z</time></trkpt><trkpt lat="45.6913404" lon="11.2029331"><ele>694.0</ele><time>2026-04-12T08:55:27.776Z</time></trkpt><trkpt lat="45.6913117" lon="11.2030534"><ele>694.0</ele><time>2026-04-12T08:55:28.777Z</time></trkpt><trkpt lat="45.6912546" lon="11.2031998"><ele>694.0</ele><time>2026-04-12T08:55:29.777Z</time></trkpt><trkpt lat="45.6911842" lon="11.2033655"><ele>694.0</ele><time>2026-04-12T08:55:30.777Z</time></trkpt><trkpt lat="45.6911086" lon="11.2035399"><ele>692.0</ele><time>2026-04-12T08:55:31.777Z</time></trkpt><trkpt lat="45.6910404" lon="11.2037205"><ele>690.0</ele><time>2026-04-12T08:55:32.776Z</time></trkpt><trkpt lat="45.6909595" lon="11.2039058"><ele>688.0</ele><time>2026-04-12T08:55:33.777Z</time></trkpt><trkpt lat="45.6908708" lon="11.2040918"><ele>685.5</ele><time>2026-04-12T08:55:34.777Z</time></trkpt><trkpt lat="45.6907877" lon="11.2042754"><ele>683.0</ele><time>2026-04-12T08:55:35.776Z</time></trkpt><trkpt lat="45.6907057" lon="11.2044495"><ele>680.5</ele><time>2026-04-12T08:55:36.777Z</time></trkpt><trkpt lat="45.6906387" lon="11.2046001"><ele>678.0</ele><time>2026-04-12T08:55:37.776Z</time></trkpt><trkpt lat="45.6905843" lon="11.2047235"><ele>675.1666666666666</ele><time>2026-04-12T08:55:38.776Z</time></trkpt><trkpt lat="45.6905522" lon="11.2048328"><ele>672.3333333333334</ele><time>2026-04-12T08:55:39.776Z</time></trkpt><trkpt lat="45.6905464" lon="11.2049424"><ele>669.5</ele><time>2026-04-12T08:55:40.777Z</time></trkpt><trkpt lat="45.6905907" lon="11.2050324"><ele>666.6666666666667</ele><time>2026-04-12T08:55:41.777Z</time></trkpt><trkpt lat="45.690649" lon="11.2051022"><ele>663.8333333333334</ele><time>2026-04-12T08:55:42.777Z</time></trkpt><trkpt lat="45.6907441" lon="11.2051116"><ele>661.0</ele><time>2026-04-12T08:55:43.777Z</time></trkpt><trkpt lat="45.6908563" lon="11.2050971"><ele>661.0</ele><time>2026-04-12T08:55:44.776Z</time></trkpt><trkpt lat="45.6909906" lon="11.2050621"><ele>661.0</ele><time>2026-04-12T08:55:45.777Z</time></trkpt><trkpt lat="45.691128" lon="11.2050481"><ele>661.0</ele><time>2026-04-12T08:55:46.777Z</time></trkpt><trkpt lat="45.6912439" lon="11.2050105"><ele>661.0</ele><time>2026-04-12T08:55:47.776Z</time></trkpt><trkpt lat="45.6913485" lon="11.2049359"><ele>660.0</ele><time>2026-04-12T08:55:48.776Z</time></trkpt><trkpt lat="45.6914542" lon="11.2048388"><ele>659.0</ele><time>2026-04-12T08:55:49.777Z</time></trkpt><trkpt lat="45.691556" lon="11.2047147"><ele>658.0</ele><time>2026-04-12T08:55:50.777Z</time></trkpt><trkpt lat="45.6916613" lon="11.2045774"><ele>657.0</ele><time>2026-04-12T08:55:51.776Z</time></trkpt><trkpt lat="45.6917597" lon="11.2044365"><ele>657.0</ele><time>2026-04-12T08:55:52.776Z</time></trkpt><trkpt lat="45.6918672" lon="11.2042946"><ele>657.0</ele><time>2026-04-12T08:55:53.777Z</time></trkpt><trkpt lat="45.6919652" lon="11.2041538"><ele>657.0</ele><time>2026-04-12T08:55:54.776Z</time></trkpt><trkpt lat="45.6920521" lon="11.2040218"><ele>657.0</ele><time>2026-04-12T08:55:55.776Z</time></trkpt><trkpt lat="45.6921385" lon="11.2038929"><ele>655.75</ele><time>2026-04-12T08:55:56.777Z</time></trkpt><trkpt lat="45.6922235" lon="11.2037698"><ele>654.5</ele><time>2026-04-12T08:55:57.776Z</time></trkpt><trkpt lat="45.6923083" lon="11.2036572"><ele>653.25</ele><time>2026-04-12T08:55:58.776Z</time></trkpt><trkpt lat="45.6923999" lon="11.2035528"><ele>652.0</ele><time>2026-04-12T08:55:59.776Z</time></trkpt><trkpt lat="45.6925117" lon="11.2034682"><ele>652.0</ele><time>2026-04-12T08:56:00.776Z</time></trkpt><trkpt lat="45.6926388" lon="11.2034135"><ele>652.0</ele><time>2026-04-12T08:56:01.776Z</time></trkpt><trkpt lat="45.6927764" lon="11.2033949"><ele>652.0</ele><time>2026-04-12T08:56:02.777Z</time></trkpt><trkpt lat="45.6929181" lon="11.2033907"><ele>652.0</ele><time>2026-04-12T08:56:03.777Z</time></trkpt><trkpt lat="45.6930642" lon="11.2033924"><ele>646.0</ele><time>2026-04-12T08:56:04.777Z</time></trkpt><trkpt lat="45.6932149" lon="11.203399"><ele>640.0</ele><time>2026-04-12T08:56:05.776Z</time></trkpt><trkpt lat="45.6933677" lon="11.2033883"><ele>634.0</ele><time>2026-04-12T08:56:06.777Z</time></trkpt><trkpt lat="45.6935257" lon="11.2033835"><ele>631.0</ele><time>2026-04-12T08:56:07.777Z</time></trkpt><trkpt lat="45.6936848" lon="11.2033811"><ele>628.0</ele><time>2026-04-12T08:56:08.777Z</time></trkpt><trkpt lat="45.6938451" lon="11.2033753"><ele>625.0</ele><time>2026-04-12T08:56:09.777Z</time></trkpt><trkpt lat="45.694002" lon="11.2033661"><ele>625.0</ele><time>2026-04-12T08:56:10.777Z</time></trkpt><trkpt lat="45.6941548" lon="11.2033535"><ele>625.0</ele><time>2026-04-12T08:56:11.777Z</time></trkpt><trkpt lat="45.6943083" lon="11.2033363"><ele>625.0</ele><time>2026-04-12T08:56:12.777Z</time></trkpt><trkpt lat="45.6944447" lon="11.2033149"><ele>625.0</ele><time>2026-04-12T08:56:13.777Z</time></trkpt><trkpt lat="45.6945722" lon="11.2032976"><ele>621.25</ele><time>2026-04-12T08:56:14.777Z</time></trkpt><trkpt lat="45.694679" lon="11.2033154"><ele>617.5</ele><time>2026-04-12T08:56:15.777Z</time></trkpt><trkpt lat="45.6947879" lon="11.2033367"><ele>613.75</ele><time>2026-04-12T08:56:16.777Z</time></trkpt><trkpt lat="45.6949008" lon="11.203378"><ele>610.0</ele><time>2026-04-12T08:56:17.777Z</time></trkpt><trkpt lat="45.6950217" lon="11.203427"><ele>610.0</ele><time>2026-04-12T08:56:18.777Z</time></trkpt><trkpt lat="45.6951533" lon="11.2034784"><ele>610.0</ele><time>2026-04-12T08:56:19.777Z</time></trkpt><trkpt lat="45.6952806" lon="11.2035322"><ele>610.0</ele><time>2026-04-12T08:56:20.777Z</time></trkpt><trkpt lat="45.6954089" lon="11.2035954"><ele>610.0</ele><time>2026-04-12T08:56:21.777Z</time></trkpt><trkpt lat="45.6955383" lon="11.2036573"><ele>609.25</ele><time>2026-04-12T08:56:22.777Z</time></trkpt><trkpt lat="45.6956656" lon="11.2037141"><ele>608.5</ele><time>2026-04-12T08:56:23.776Z</time></trkpt><trkpt lat="45.6957947" lon="11.2037612"><ele>607.75</ele><time>2026-04-12T08:56:24.777Z</time></trkpt><trkpt lat="45.6959271" lon="11.2038094"><ele>607.0</ele><time>2026-04-12T08:56:25.776Z</time></trkpt><trkpt lat="45.6960546" lon="11.2038731"><ele>603.25</ele><time>2026-04-12T08:56:26.777Z</time></trkpt><trkpt lat="45.6961877" lon="11.2039217"><ele>599.5</ele><time>2026-04-12T08:56:27.777Z</time></trkpt><trkpt lat="45.6963211" lon="11.2039703"><ele>595.75</ele><time>2026-04-12T08:56:28.777Z</time></trkpt><trkpt lat="45.6964514" lon="11.2040274"><ele>592.0</ele><time>2026-04-12T08:56:29.776Z</time></trkpt><trkpt lat="45.6965664" lon="11.2040909"><ele>590.4</ele><time>2026-04-12T08:56:30.777Z</time></trkpt><trkpt lat="45.6966746" lon="11.2041559"><ele>588.8000000000001</ele><time>2026-04-12T08:56:31.777Z</time></trkpt><trkpt lat="45.6967761" lon="11.2041915"><ele>587.2</ele><time>2026-04-12T08:56:32.776Z</time></trkpt><trkpt lat="45.6968923" lon="11.2041966"><ele>585.6</ele><time>2026-04-12T08:56:33.777Z</time></trkpt><trkpt lat="45.6970029" lon="11.2041793"><ele>584.0</ele><time>2026-04-12T08:56:34.777Z</time></trkpt><trkpt lat="45.6971037" lon="11.2041643"><ele>584.0</ele><time>2026-04-12T08:56:35.777Z</time></trkpt><trkpt lat="45.6972045" lon="11.2041775"><ele>584.0</ele><time>2026-04-12T08:56:36.777Z</time></trkpt><trkpt lat="45.6972887" lon="11.2042034"><ele>584.0</ele><time>2026-04-12T08:56:37.777Z</time></trkpt><trkpt lat="45.6973578" lon="11.2042537"><ele>584.0</ele><time>2026-04-12T08:56:38.776Z</time></trkpt><trkpt lat="45.6974249" lon="11.2043352"><ele>584.0</ele><time>2026-04-12T08:56:39.777Z</time></trkpt><trkpt lat="45.6974789" lon="11.2044795"><ele>584.0</ele><time>2026-04-12T08:56:40.777Z</time></trkpt><trkpt lat="45.6975292" lon="11.2046468"><ele>584.0</ele><time>2026-04-12T08:56:41.776Z</time></trkpt><trkpt lat="45.6975736" lon="11.2048228"><ele>584.0</ele><time>2026-04-12T08:56:42.777Z</time></trkpt><trkpt lat="45.6976087" lon="11.2050041"><ele>584.0</ele><time>2026-04-12T08:56:43.776Z</time></trkpt><trkpt lat="45.6976368" lon="11.2051765"><ele>581.2</ele><time>2026-04-12T08:56:44.776Z</time></trkpt><trkpt lat="45.6976614" lon="11.2053318"><ele>578.4</ele><time>2026-04-12T08:56:45.777Z</time></trkpt><trkpt lat="45.697689" lon="11.2054717"><ele>575.6</ele><time>2026-04-12T08:56:46.777Z</time></trkpt><trkpt lat="45.6977349" lon="11.2056055"><ele>572.8</ele><time>2026-04-12T08:56:47.776Z</time></trkpt><trkpt lat="45.6978003" lon="11.2057247"><ele>570.0</ele><time>2026-04-12T08:56:48.777Z</time></trkpt><trkpt lat="45.697881" lon="11.2058262"><ele>566.8</ele><time>2026-04-12T08:56:49.777Z</time></trkpt><trkpt lat="45.6979716" lon="11.205907"><ele>563.6</ele><time>2026-04-12T08:56:50.776Z</time></trkpt><trkpt lat="45.6980633" lon="11.2059789"><ele>560.4</ele><time>2026-04-12T08:56:51.777Z</time></trkpt><trkpt lat="45.6981521" lon="11.2060331"><ele>557.2</ele><time>2026-04-12T08:56:52.777Z</time></trkpt><trkpt lat="45.6982456" lon="11.2060557"><ele>554.0</ele><time>2026-04-12T08:56:53.777Z</time></trkpt><trkpt lat="45.6983279" lon="11.2060569"><ele>554.0</ele><time>2026-04-12T08:56:54.777Z</time></trkpt><trkpt lat="45.6984009" lon="11.2060628"><ele>554.0</ele><time>2026-04-12T08:56:55.777Z</time></trkpt><trkpt lat="45.6984639" lon="11.2060733"><ele>554.0</ele><time>2026-04-12T08:56:56.777Z</time></trkpt><trkpt lat="45.6985688" lon="11.2060929"><ele>554.0</ele><time>2026-04-12T08:56:58.777Z</time></trkpt><trkpt lat="45.6986472" lon="11.2061258"><ele>554.0</ele><time>2026-04-12T08:57:00.776Z</time></trkpt><trkpt lat="45.6987028" lon="11.2062216"><ele>554.0</ele><time>2026-04-12T08:57:02.776Z</time></trkpt><trkpt lat="45.6987413" lon="11.2063351"><ele>552.3333333333333</ele><time>2026-04-12T08:57:04.777Z</time></trkpt><trkpt lat="45.6988051" lon="11.2064278"><ele>550.6666666666666</ele><time>2026-04-12T08:57:07.777Z</time></trkpt><trkpt lat="45.6988964" lon="11.2064657"><ele>549.0</ele><time>2026-04-12T08:57:09.777Z</time></trkpt><trkpt lat="45.6989595" lon="11.2064879"><ele>547.3333333333334</ele><time>2026-04-12T08:57:10.777Z</time></trkpt><trkpt lat="45.6990325" lon="11.2065064"><ele>545.6666666666667</ele><time>2026-04-12T08:57:11.777Z</time></trkpt><trkpt lat="45.6991363" lon="11.2065747"><ele>544.0</ele><time>2026-04-12T08:57:13.777Z</time></trkpt><trkpt lat="45.6991834" lon="11.2066582"><ele>542.6666666666667</ele><time>2026-04-12T08:57:15.776Z</time></trkpt><trkpt lat="45.6991786" lon="11.2067924"><ele>541.3333333333334</ele><time>2026-04-12T08:57:17.777Z</time></trkpt><trkpt lat="45.6991598" lon="11.2068876"><ele>540.0</ele><time>2026-04-12T08:57:18.777Z</time></trkpt><trkpt lat="45.699125" lon="11.2069946"><ele>538.6666666666666</ele><time>2026-04-12T08:57:19.777Z</time></trkpt><trkpt lat="45.6990795" lon="11.207109"><ele>537.3333333333333</ele><time>2026-04-12T08:57:20.777Z</time></trkpt><trkpt lat="45.6990322" lon="11.2072091"><ele>536.0</ele><time>2026-04-12T08:57:21.777Z</time></trkpt><trkpt lat="45.6989772" lon="11.2072886"><ele>536.0</ele><time>2026-04-12T08:57:22.776Z</time></trkpt><trkpt lat="45.6989015" lon="11.2073219"><ele>536.0</ele><time>2026-04-12T08:57:23.777Z</time></trkpt><trkpt lat="45.6988025" lon="11.2073264"><ele>536.0</ele><time>2026-04-12T08:57:24.777Z</time></trkpt><trkpt lat="45.6987039" lon="11.2073246"><ele>536.0</ele><time>2026-04-12T08:57:25.777Z</time></trkpt><trkpt lat="45.6986163" lon="11.2073363"><ele>536.0</ele><time>2026-04-12T08:57:26.777Z</time></trkpt><trkpt lat="45.6985298" lon="11.207354"><ele>535.3333333333333</ele><time>2026-04-12T08:57:27.777Z</time></trkpt><trkpt lat="45.6984637" lon="11.2073945"><ele>534.6666666666666</ele><time>2026-04-12T08:57:28.777Z</time></trkpt><trkpt lat="45.6984148" lon="11.2074668"><ele>534.0</ele><time>2026-04-12T08:57:29.777Z</time></trkpt><trkpt lat="45.69841" lon="11.2075599"><ele>533.3333333333334</ele><time>2026-04-12T08:57:30.776Z</time></trkpt><trkpt lat="45.6984274" lon="11.2076548"><ele>532.6666666666667</ele><time>2026-04-12T08:57:31.776Z</time></trkpt><trkpt lat="45.6984683" lon="11.20775"><ele>532.0</ele><time>2026-04-12T08:57:32.776Z</time></trkpt><trkpt lat="45.698526" lon="11.2078629"><ele>531.25</ele><time>2026-04-12T08:57:33.776Z</time></trkpt><trkpt lat="45.6986004" lon="11.2079936"><ele>530.5</ele><time>2026-04-12T08:57:34.776Z</time></trkpt><trkpt lat="45.6986824" lon="11.2081302"><ele>529.75</ele><time>2026-04-12T08:57:35.777Z</time></trkpt><trkpt lat="45.6987656" lon="11.208262"><ele>529.0</ele><time>2026-04-12T08:57:36.776Z</time></trkpt><trkpt lat="45.6988434" lon="11.2083908"><ele>527.0</ele><time>2026-04-12T08:57:37.776Z</time></trkpt><trkpt lat="45.6989158" lon="11.2085204"><ele>525.0</ele><time>2026-04-12T08:57:38.777Z</time></trkpt><trkpt lat="45.6989794" lon="11.2086715"><ele>523.0</ele><time>2026-04-12T08:57:39.776Z</time></trkpt><trkpt lat="45.699039" lon="11.2088162"><ele>521.0</ele><time>2026-04-12T08:57:40.777Z</time></trkpt><trkpt lat="45.699095" lon="11.2089688"><ele>519.75</ele><time>2026-04-12T08:57:41.776Z</time></trkpt><trkpt lat="45.6991457" lon="11.2091293"><ele>518.5</ele><time>2026-04-12T08:57:42.776Z</time></trkpt><trkpt lat="45.6992004" lon="11.209294"><ele>517.25</ele><time>2026-04-12T08:57:43.776Z</time></trkpt><trkpt lat="45.6992608" lon="11.2094457"><ele>516.0</ele><time>2026-04-12T08:57:44.777Z</time></trkpt><trkpt lat="45.6993163" lon="11.2096106"><ele>516.0</ele><time>2026-04-12T08:57:45.777Z</time></trkpt><trkpt lat="45.6993789" lon="11.2097673"><ele>516.0</ele><time>2026-04-12T08:57:46.777Z</time></trkpt><trkpt lat="45.6994495" lon="11.2099095"><ele>516.0</ele><time>2026-04-12T08:57:47.777Z</time></trkpt><trkpt lat="45.6995193" lon="11.2100432"><ele>516.0</ele><time>2026-04-12T08:57:48.777Z</time></trkpt><trkpt lat="45.6995854" lon="11.210187"><ele>512.0</ele><time>2026-04-12T08:57:49.776Z</time></trkpt><trkpt lat="45.6996438" lon="11.2103251"><ele>508.0</ele><time>2026-04-12T08:57:50.777Z</time></trkpt><trkpt lat="45.6997051" lon="11.2104501"><ele>504.0</ele><time>2026-04-12T08:57:51.776Z</time></trkpt><trkpt lat="45.699751" lon="11.2105945"><ele>500.0</ele><time>2026-04-12T08:57:52.776Z</time></trkpt><trkpt lat="45.6997796" lon="11.2107538"><ele>496.0</ele><time>2026-04-12T08:57:53.776Z</time></trkpt><trkpt lat="45.6997861" lon="11.2109276"><ele>496.0</ele><time>2026-04-12T08:57:54.777Z</time></trkpt><trkpt lat="45.699793" lon="11.2111289"><ele>496.0</ele><time>2026-04-12T08:57:55.777Z</time></trkpt><trkpt lat="45.6997946" lon="11.2113415"><ele>496.0</ele><time>2026-04-12T08:57:56.777Z</time></trkpt><trkpt lat="45.6998053" lon="11.2115736"><ele>496.0</ele><time>2026-04-12T08:57:57.776Z</time></trkpt><trkpt lat="45.6998225" lon="11.2117972"><ele>496.0</ele><time>2026-04-12T08:57:58.777Z</time></trkpt><trkpt lat="45.6998435" lon="11.212005"><ele>496.0</ele><time>2026-04-12T08:57:59.776Z</time></trkpt><trkpt lat="45.6998663" lon="11.2121875"><ele>496.0</ele><time>2026-04-12T08:58:00.777Z</time></trkpt><trkpt lat="45.6998919" lon="11.2123615"><ele>497.0</ele><time>2026-04-12T08:58:01.777Z</time></trkpt><trkpt lat="45.6999267" lon="11.2125234"><ele>498.0</ele><time>2026-04-12T08:58:02.777Z</time></trkpt><trkpt lat="45.6999714" lon="11.2126665"><ele>499.0</ele><time>2026-04-12T08:58:03.776Z</time></trkpt><trkpt lat="45.7000297" lon="11.2127951"><ele>500.0</ele><time>2026-04-12T08:58:04.776Z</time></trkpt><trkpt lat="45.7001047" lon="11.2128871"><ele>501.0</ele><time>2026-04-12T08:58:05.775Z</time></trkpt><trkpt lat="45.7001996" lon="11.2129597"><ele>497.5</ele><time>2026-04-12T08:58:06.775Z</time></trkpt><trkpt lat="45.7003124" lon="11.2130143"><ele>494.0</ele><time>2026-04-12T08:58:07.776Z</time></trkpt><trkpt lat="45.7004326" lon="11.2130531"><ele>490.5</ele><time>2026-04-12T08:58:08.775Z</time></trkpt><trkpt lat="45.7005421" lon="11.2131033"><ele>487.0</ele><time>2026-04-12T08:58:09.775Z</time></trkpt><trkpt lat="45.7006401" lon="11.2131784"><ele>487.0</ele><time>2026-04-12T08:58:10.776Z</time></trkpt><trkpt lat="45.700732" lon="11.2132744"><ele>487.0</ele><time>2026-04-12T08:58:11.776Z</time></trkpt><trkpt lat="45.7008106" lon="11.2134005"><ele>487.0</ele><time>2026-04-12T08:58:12.776Z</time></trkpt><trkpt lat="45.7008754" lon="11.2135529"><ele>487.0</ele><time>2026-04-12T08:58:13.775Z</time></trkpt><trkpt lat="45.7009296" lon="11.2137166"><ele>487.0</ele><time>2026-04-12T08:58:14.776Z</time></trkpt><trkpt lat="45.7009797" lon="11.2138767"><ele>487.0</ele><time>2026-04-12T08:58:15.775Z</time></trkpt><trkpt lat="45.7010345" lon="11.2140538"><ele>487.0</ele><time>2026-04-12T08:58:16.775Z</time></trkpt><trkpt lat="45.7010736" lon="11.2142304"><ele>487.0</ele><time>2026-04-12T08:58:17.775Z</time></trkpt><trkpt lat="45.7010979" lon="11.2143946"><ele>485.20000000000005</ele><time>2026-04-12T08:58:18.775Z</time></trkpt><trkpt lat="45.7011099" lon="11.2145445"><ele>483.40000000000003</ele><time>2026-04-12T08:58:19.775Z</time></trkpt><trkpt lat="45.7011109" lon="11.2146601"><ele>481.59999999999997</ele><time>2026-04-12T08:58:20.775Z</time></trkpt><trkpt lat="45.7011099" lon="11.2148038"><ele>479.79999999999995</ele><time>2026-04-12T08:58:22.776Z</time></trkpt><trkpt lat="45.7011808" lon="11.214822"><ele>478.0</ele><time>2026-04-12T08:58:25.776Z</time></trkpt><trkpt lat="45.7012443" lon="11.2146697"><ele>478.00000000000006</ele><time>2026-04-12T08:58:27.776Z</time></trkpt><trkpt lat="45.7012895" lon="11.2145688"><ele>478.0</ele><time>2026-04-12T08:58:28.776Z</time></trkpt><trkpt lat="45.7013399" lon="11.2144734"><ele>478.0</ele><time>2026-04-12T08:58:29.776Z</time></trkpt><trkpt lat="45.7013951" lon="11.2144102"><ele>478.0</ele><time>2026-04-12T08:58:30.775Z</time></trkpt><trkpt lat="45.7015105" lon="11.2143893"><ele>478.00000000000006</ele><time>2026-04-12T08:58:32.775Z</time></trkpt><trkpt lat="45.7015703" lon="11.2144563"><ele>478.0</ele><time>2026-04-12T08:58:33.775Z</time></trkpt><trkpt lat="45.7016321" lon="11.2145516"><ele>478.0</ele><time>2026-04-12T08:58:34.775Z</time></trkpt><trkpt lat="45.7017039" lon="11.2146473"><ele>477.99999999999994</ele><time>2026-04-12T08:58:35.776Z</time></trkpt><trkpt lat="45.7017906" lon="11.2147345"><ele>477.99999999999994</ele><time>2026-04-12T08:58:36.775Z</time></trkpt><trkpt lat="45.7018881" lon="11.2147839"><ele>478.0</ele><time>2026-04-12T08:58:37.775Z</time></trkpt><trkpt lat="45.7019849" lon="11.2148254"><ele>478.0</ele><time>2026-04-12T08:58:38.775Z</time></trkpt><trkpt lat="45.7020778" lon="11.2148576"><ele>478.50000000000006</ele><time>2026-04-12T08:58:39.776Z</time></trkpt><trkpt lat="45.7021647" lon="11.2148938"><ele>479.0</ele><time>2026-04-12T08:58:40.775Z</time></trkpt><trkpt lat="45.7022393" lon="11.2149429"><ele>479.5</ele><time>2026-04-12T08:58:41.776Z</time></trkpt><trkpt lat="45.7022926" lon="11.2150223"><ele>480.0</ele><time>2026-04-12T08:58:42.776Z</time></trkpt><trkpt lat="45.7023269" lon="11.2151195"><ele>480.50000000000006</ele><time>2026-04-12T08:58:43.776Z</time></trkpt><trkpt lat="45.7023446" lon="11.2152273"><ele>481.0</ele><time>2026-04-12T08:58:44.775Z</time></trkpt><trkpt lat="45.7023572" lon="11.215339"><ele>481.00000000000006</ele><time>2026-04-12T08:58:45.775Z</time></trkpt><trkpt lat="45.7023676" lon="11.2154435"><ele>481.0</ele><time>2026-04-12T08:58:46.776Z</time></trkpt><trkpt lat="45.7023858" lon="11.215548"><ele>481.0</ele><time>2026-04-12T08:58:47.776Z</time></trkpt><trkpt lat="45.7024091" lon="11.2156409"><ele>481.0</ele><time>2026-04-12T08:58:48.775Z</time></trkpt><trkpt lat="45.7024581" lon="11.215767"><ele>481.00000000000006</ele><time>2026-04-12T08:58:50.775Z</time></trkpt><trkpt lat="45.7025117" lon="11.2157088"><ele>481.0</ele><time>2026-04-12T08:58:54.776Z</time></trkpt><trkpt lat="45.702496" lon="11.215512"><ele>481.0</ele><time>2026-04-12T08:58:56.776Z</time></trkpt><trkpt lat="45.7024894" lon="11.2153851"><ele>481.0</ele><time>2026-04-12T08:58:57.776Z</time></trkpt><trkpt lat="45.7024854" lon="11.2152428"><ele>481.0</ele><time>2026-04-12T08:58:58.775Z</time></trkpt><trkpt lat="45.7024892" lon="11.2150848"><ele>481.0</ele><time>2026-04-12T08:58:59.775Z</time></trkpt><trkpt lat="45.7024993" lon="11.2149127"><ele>481.0</ele><time>2026-04-12T08:59:00.776Z</time></trkpt><trkpt lat="45.7025142" lon="11.2147442"><ele>482.6</ele><time>2026-04-12T08:59:01.775Z</time></trkpt><trkpt lat="45.7025244" lon="11.2145838"><ele>484.20000000000005</ele><time>2026-04-12T08:59:02.776Z</time></trkpt><trkpt lat="45.7025319" lon="11.2144319"><ele>485.79999999999995</ele><time>2026-04-12T08:59:03.776Z</time></trkpt><trkpt lat="45.7025344" lon="11.214288"><ele>487.4</ele><time>2026-04-12T08:59:04.776Z</time></trkpt><trkpt lat="45.702525" lon="11.2141453"><ele>489.0</ele><time>2026-04-12T08:59:05.776Z</time></trkpt><trkpt lat="45.7024981" lon="11.2140044"><ele>492.6</ele><time>2026-04-12T08:59:06.776Z</time></trkpt><trkpt lat="45.7024502" lon="11.2138667"><ele>496.2</ele><time>2026-04-12T08:59:07.775Z</time></trkpt><trkpt lat="45.7023989" lon="11.2137382"><ele>499.80000000000007</ele><time>2026-04-12T08:59:08.775Z</time></trkpt><trkpt lat="45.7023349" lon="11.2136301"><ele>503.40000000000003</ele><time>2026-04-12T08:59:09.775Z</time></trkpt><trkpt lat="45.702265" lon="11.2135299"><ele>507.0</ele><time>2026-04-12T08:59:10.775Z</time></trkpt><trkpt lat="45.7021887" lon="11.2134387"><ele>507.0</ele><time>2026-04-12T08:59:11.775Z</time></trkpt><trkpt lat="45.7021201" lon="11.2133169"><ele>507.0</ele><time>2026-04-12T08:59:12.775Z</time></trkpt><trkpt lat="45.7020462" lon="11.2131804"><ele>507.0</ele><time>2026-04-12T08:59:13.775Z</time></trkpt><trkpt lat="45.7019853" lon="11.2130284"><ele>507.0</ele><time>2026-04-12T08:59:14.776Z</time></trkpt><trkpt lat="45.7019251" lon="11.2128591"><ele>505.0</ele><time>2026-04-12T08:59:15.776Z</time></trkpt><trkpt lat="45.7018439" lon="11.2127019"><ele>503.0</ele><time>2026-04-12T08:59:16.776Z</time></trkpt><trkpt lat="45.7017823" lon="11.2125341"><ele>501.0</ele><time>2026-04-12T08:59:17.775Z</time></trkpt><trkpt lat="45.7017255" lon="11.2123686"><ele>499.0</ele><time>2026-04-12T08:59:18.776Z</time></trkpt><trkpt lat="45.7016693" lon="11.2121962"><ele>503.75</ele><time>2026-04-12T08:59:19.775Z</time></trkpt><trkpt lat="45.7016267" lon="11.2120189"><ele>508.5</ele><time>2026-04-12T08:59:20.776Z</time></trkpt><trkpt lat="45.7015973" lon="11.2118335"><ele>513.25</ele><time>2026-04-12T08:59:21.776Z</time></trkpt><trkpt lat="45.7015558" lon="11.2116503"><ele>518.0</ele><time>2026-04-12T08:59:22.775Z</time></trkpt><trkpt lat="45.7015073" lon="11.2114806"><ele>525.5</ele><time>2026-04-12T08:59:23.776Z</time></trkpt><trkpt lat="45.7014491" lon="11.2113089"><ele>533.0</ele><time>2026-04-12T08:59:24.775Z</time></trkpt><trkpt lat="45.7013833" lon="11.211141"><ele>540.5</ele><time>2026-04-12T08:59:25.775Z</time></trkpt><trkpt lat="45.7013154" lon="11.2109729"><ele>548.0</ele><time>2026-04-12T08:59:26.776Z</time></trkpt><trkpt lat="45.7012438" lon="11.2108144"><ele>548.0</ele><time>2026-04-12T08:59:27.775Z</time></trkpt><trkpt lat="45.7011453" lon="11.2106728"><ele>548.0</ele><time>2026-04-12T08:59:28.775Z</time></trkpt><trkpt lat="45.7010377" lon="11.2105609"><ele>548.0</ele><time>2026-04-12T08:59:29.776Z</time></trkpt><trkpt lat="45.7009428" lon="11.2104629"><ele>548.0</ele><time>2026-04-12T08:59:30.776Z</time></trkpt><trkpt lat="45.7008618" lon="11.2103625"><ele>542.25</ele><time>2026-04-12T08:59:31.776Z</time></trkpt><trkpt lat="45.7008006" lon="11.2102463"><ele>536.5</ele><time>2026-04-12T08:59:32.775Z</time></trkpt><trkpt lat="45.7007616" lon="11.2101055"><ele>530.75</ele><time>2026-04-12T08:59:33.776Z</time></trkpt><trkpt lat="45.7007372" lon="11.2099352"><ele>525.0</ele><time>2026-04-12T08:59:34.776Z</time></trkpt><trkpt lat="45.7007258" lon="11.2097455"><ele>525.0</ele><time>2026-04-12T08:59:35.776Z</time></trkpt><trkpt lat="45.7007425" lon="11.2095271"><ele>525.0</ele><time>2026-04-12T08:59:36.776Z</time></trkpt><trkpt lat="45.7007555" lon="11.2093127"><ele>525.0</ele><time>2026-04-12T08:59:37.776Z</time></trkpt><trkpt lat="45.7007736" lon="11.2091049"><ele>524.0</ele><time>2026-04-12T08:59:38.776Z</time></trkpt><trkpt lat="45.7007966" lon="11.2089112"><ele>523.0</ele><time>2026-04-12T08:59:39.776Z</time></trkpt><trkpt lat="45.7008381" lon="11.2087165"><ele>522.0</ele><time>2026-04-12T08:59:40.776Z</time></trkpt><trkpt lat="45.7009011" lon="11.2085356"><ele>521.0</ele><time>2026-04-12T08:59:41.776Z</time></trkpt><trkpt lat="45.7009822" lon="11.2083878"><ele>521.0</ele><time>2026-04-12T08:59:42.776Z</time></trkpt><trkpt lat="45.7010694" lon="11.2082583"><ele>521.0</ele><time>2026-04-12T08:59:43.776Z</time></trkpt><trkpt lat="45.7011478" lon="11.2081253"><ele>521.0</ele><time>2026-04-12T08:59:44.776Z</time></trkpt><trkpt lat="45.7012149" lon="11.2079779"><ele>521.0</ele><time>2026-04-12T08:59:45.775Z</time></trkpt><trkpt lat="45.7012646" lon="11.2078046"><ele>525.25</ele><time>2026-04-12T08:59:46.776Z</time></trkpt><trkpt lat="45.7013152" lon="11.2076223"><ele>529.5</ele><time>2026-04-12T08:59:47.776Z</time></trkpt><trkpt lat="45.7013631" lon="11.2074405"><ele>533.75</ele><time>2026-04-12T08:59:48.775Z</time></trkpt><trkpt lat="45.7014313" lon="11.2072584"><ele>538.0</ele><time>2026-04-12T08:59:49.775Z</time></trkpt><trkpt lat="45.7015149" lon="11.2070867"><ele>538.0</ele><time>2026-04-12T08:59:50.775Z</time></trkpt><trkpt lat="45.7015923" lon="11.2069212"><ele>538.0</ele><time>2026-04-12T08:59:51.776Z</time></trkpt><trkpt lat="45.7016526" lon="11.2067422"><ele>538.0</ele><time>2026-04-12T08:59:52.776Z</time></trkpt><trkpt lat="45.7016962" lon="11.2065634"><ele>538.0</ele><time>2026-04-12T08:59:53.776Z</time></trkpt><trkpt lat="45.7017238" lon="11.2063821"><ele>537.0</ele><time>2026-04-12T08:59:54.776Z</time></trkpt><trkpt lat="45.7017512" lon="11.2061953"><ele>536.0</ele><time>2026-04-12T08:59:55.776Z</time></trkpt><trkpt lat="45.7017664" lon="11.2060058"><ele>535.0</ele><time>2026-04-12T08:59:56.776Z</time></trkpt><trkpt lat="45.701773" lon="11.2058217"><ele>534.0</ele><time>2026-04-12T08:59:57.775Z</time></trkpt><trkpt lat="45.7017577" lon="11.2056397"><ele>534.0</ele><time>2026-04-12T08:59:58.776Z</time></trkpt><trkpt lat="45.7017551" lon="11.2054441"><ele>534.0</ele><time>2026-04-12T08:59:59.775Z</time></trkpt><trkpt lat="45.7017501" lon="11.2052476"><ele>534.0</ele><time>2026-04-12T09:00:00.775Z</time></trkpt><trkpt lat="45.701742" lon="11.2050567"><ele>534.0</ele><time>2026-04-12T09:00:01.776Z</time></trkpt><trkpt lat="45.7017522" lon="11.2048909"><ele>532.75</ele><time>2026-04-12T09:00:02.776Z</time></trkpt><trkpt lat="45.7017692" lon="11.2047375"><ele>531.5</ele><time>2026-04-12T09:00:03.775Z</time></trkpt><trkpt lat="45.7018086" lon="11.2045865"><ele>530.25</ele><time>2026-04-12T09:00:04.776Z</time></trkpt><trkpt lat="45.7018681" lon="11.2044447"><ele>529.0</ele><time>2026-04-12T09:00:05.775Z</time></trkpt><trkpt lat="45.7019513" lon="11.2043164"><ele>534.0</ele><time>2026-04-12T09:00:06.776Z</time></trkpt><trkpt lat="45.7020472" lon="11.2042055"><ele>539.0</ele><time>2026-04-12T09:00:07.776Z</time></trkpt><trkpt lat="45.7021556" lon="11.2041101"><ele>544.0</ele><time>2026-04-12T09:00:08.776Z</time></trkpt><trkpt lat="45.7022684" lon="11.2040213"><ele>549.0</ele><time>2026-04-12T09:00:09.775Z</time></trkpt><trkpt lat="45.7023705" lon="11.2039198"><ele>549.0</ele><time>2026-04-12T09:00:10.775Z</time></trkpt><trkpt lat="45.7024559" lon="11.2037864"><ele>549.0</ele><time>2026-04-12T09:00:11.775Z</time></trkpt><trkpt lat="45.7025238" lon="11.2036305"><ele>549.0</ele><time>2026-04-12T09:00:12.775Z</time></trkpt><trkpt lat="45.7025759" lon="11.2034528"><ele>549.0</ele><time>2026-04-12T09:00:13.775Z</time></trkpt><trkpt lat="45.7026209" lon="11.2032795"><ele>546.0</ele><time>2026-04-12T09:00:14.776Z</time></trkpt><trkpt lat="45.7026652" lon="11.2031083"><ele>543.0</ele><time>2026-04-12T09:00:15.776Z</time></trkpt><trkpt lat="45.7027141" lon="11.2029478"><ele>540.0</ele><time>2026-04-12T09:00:16.776Z</time></trkpt><trkpt lat="45.7027718" lon="11.2027996"><ele>537.0</ele><time>2026-04-12T09:00:17.776Z</time></trkpt><trkpt lat="45.7028369" lon="11.2026703"><ele>538.75</ele><time>2026-04-12T09:00:18.776Z</time></trkpt><trkpt lat="45.7029129" lon="11.2025367"><ele>540.5</ele><time>2026-04-12T09:00:19.775Z</time></trkpt><trkpt lat="45.7029931" lon="11.2023971"><ele>542.25</ele><time>2026-04-12T09:00:20.776Z</time></trkpt><trkpt lat="45.7030783" lon="11.2022801"><ele>544.0</ele><time>2026-04-12T09:00:21.776Z</time></trkpt><trkpt lat="45.7031754" lon="11.2021939"><ele>544.0</ele><time>2026-04-12T09:00:22.776Z</time></trkpt><trkpt lat="45.7032771" lon="11.2021458"><ele>544.0</ele><time>2026-04-12T09:00:23.775Z</time></trkpt><trkpt lat="45.70338" lon="11.2021207"><ele>544.0</ele><time>2026-04-12T09:00:24.776Z</time></trkpt><trkpt lat="45.7034982" lon="11.2021256"><ele>544.0</ele><time>2026-04-12T09:00:25.775Z</time></trkpt><trkpt lat="45.7036327" lon="11.2021378"><ele>549.25</ele><time>2026-04-12T09:00:26.776Z</time></trkpt><trkpt lat="45.7037679" lon="11.2021467"><ele>554.5</ele><time>2026-04-12T09:00:27.776Z</time></trkpt><trkpt lat="45.7038942" lon="11.2021676"><ele>559.75</ele><time>2026-04-12T09:00:28.776Z</time></trkpt><trkpt lat="45.7040281" lon="11.2021885"><ele>565.0</ele><time>2026-04-12T09:00:29.776Z</time></trkpt><trkpt lat="45.7041673" lon="11.2021906"><ele>565.0</ele><time>2026-04-12T09:00:30.775Z</time></trkpt><trkpt lat="45.7043004" lon="11.2021518"><ele>565.0</ele><time>2026-04-12T09:00:31.776Z</time></trkpt><trkpt lat="45.7044299" lon="11.2020771"><ele>565.0</ele><time>2026-04-12T09:00:32.776Z</time></trkpt><trkpt lat="45.7045506" lon="11.2019933"><ele>565.0</ele><time>2026-04-12T09:00:33.776Z</time></trkpt><trkpt lat="45.7046663" lon="11.2018877"><ele>569.0</ele><time>2026-04-12T09:00:34.776Z</time></trkpt><trkpt lat="45.7047931" lon="11.2017856"><ele>573.0</ele><time>2026-04-12T09:00:35.775Z</time></trkpt><trkpt lat="45.7049104" lon="11.2016593"><ele>577.0</ele><time>2026-04-12T09:00:36.775Z</time></trkpt><trkpt lat="45.7050212" lon="11.2015283"><ele>581.0</ele><time>2026-04-12T09:00:37.776Z</time></trkpt><trkpt lat="45.7051231" lon="11.2013921"><ele>581.0</ele><time>2026-04-12T09:00:38.775Z</time></trkpt><trkpt lat="45.7052265" lon="11.2012795"><ele>581.0</ele><time>2026-04-12T09:00:39.776Z</time></trkpt><trkpt lat="45.7053209" lon="11.2012092"><ele>581.0</ele><time>2026-04-12T09:00:40.776Z</time></trkpt><trkpt lat="45.7054218" lon="11.2011673"><ele>581.0</ele><time>2026-04-12T09:00:41.775Z</time></trkpt><trkpt lat="45.7055311" lon="11.2011609"><ele>580.75</ele><time>2026-04-12T09:00:42.776Z</time></trkpt><trkpt lat="45.7056429" lon="11.2012057"><ele>580.5</ele><time>2026-04-12T09:00:43.775Z</time></trkpt><trkpt lat="45.7057653" lon="11.2012803"><ele>580.25</ele><time>2026-04-12T09:00:44.775Z</time></trkpt><trkpt lat="45.7058908" lon="11.2013506"><ele>580.0</ele><time>2026-04-12T09:00:45.776Z</time></trkpt><trkpt lat="45.7060216" lon="11.2013975"><ele>582.75</ele><time>2026-04-12T09:00:46.776Z</time></trkpt><trkpt lat="45.7061501" lon="11.2014215"><ele>585.5</ele><time>2026-04-12T09:00:47.776Z</time></trkpt><trkpt lat="45.706271" lon="11.2014276"><ele>588.25</ele><time>2026-04-12T09:00:48.776Z</time></trkpt><trkpt lat="45.7063848" lon="11.2014337"><ele>591.0</ele><time>2026-04-12T09:00:49.776Z</time></trkpt><trkpt lat="45.7064994" lon="11.2014465"><ele>591.0</ele><time>2026-04-12T09:00:50.776Z</time></trkpt><trkpt lat="45.7066167" lon="11.2014806"><ele>591.0</ele><time>2026-04-12T09:00:51.776Z</time></trkpt><trkpt lat="45.7067401" lon="11.2015276"><ele>591.0</ele><time>2026-04-12T09:00:52.776Z</time></trkpt><trkpt lat="45.7068678" lon="11.2015921"><ele>591.0</ele><time>2026-04-12T09:00:53.775Z</time></trkpt><trkpt lat="45.706999" lon="11.2016505"><ele>592.0</ele><time>2026-04-12T09:00:54.776Z</time></trkpt><trkpt lat="45.707137" lon="11.2016931"><ele>593.0</ele><time>2026-04-12T09:00:55.776Z</time></trkpt><trkpt lat="45.7072789" lon="11.2017254"><ele>594.0</ele><time>2026-04-12T09:00:56.776Z</time></trkpt><trkpt lat="45.7074151" lon="11.2017731"><ele>595.0</ele><time>2026-04-12T09:00:57.776Z</time></trkpt><trkpt lat="45.7075281" lon="11.2018339"><ele>595.0</ele><time>2026-04-12T09:00:58.776Z</time></trkpt><trkpt lat="45.7076211" lon="11.2019126"><ele>595.0</ele><time>2026-04-12T09:00:59.776Z</time></trkpt><trkpt lat="45.7077267" lon="11.2019575"><ele>595.0</ele><time>2026-04-12T09:01:00.776Z</time></trkpt><trkpt lat="45.7078291" lon="11.2019796"><ele>595.0</ele><time>2026-04-12T09:01:01.776Z</time></trkpt><trkpt lat="45.7079202" lon="11.201993"><ele>595.0</ele><time>2026-04-12T09:01:02.776Z</time></trkpt><trkpt lat="45.7080059" lon="11.2020228"><ele>597.0</ele><time>2026-04-12T09:01:03.775Z</time></trkpt><trkpt lat="45.7080952" lon="11.2020729"><ele>599.0</ele><time>2026-04-12T09:01:04.775Z</time></trkpt><trkpt lat="45.7081735" lon="11.2021431"><ele>601.0</ele><time>2026-04-12T09:01:05.775Z</time></trkpt><trkpt lat="45.708228" lon="11.2022422"><ele>603.0</ele><time>2026-04-12T09:01:06.776Z</time></trkpt><trkpt lat="45.7082843" lon="11.2023204"><ele>605.0</ele><time>2026-04-12T09:01:07.776Z</time></trkpt><trkpt lat="45.7083525" lon="11.2023874"><ele>607.0</ele><time>2026-04-12T09:01:08.775Z</time></trkpt><trkpt lat="45.7084322" lon="11.2024017"><ele>607.6</ele><time>2026-04-12T09:01:09.775Z</time></trkpt><trkpt lat="45.7085176" lon="11.2023744"><ele>608.2</ele><time>2026-04-12T09:01:10.775Z</time></trkpt><trkpt lat="45.7086023" lon="11.2023188"><ele>608.8</ele><time>2026-04-12T09:01:11.776Z</time></trkpt><trkpt lat="45.7086823" lon="11.2022311"><ele>609.4</ele><time>2026-04-12T09:01:12.775Z</time></trkpt><trkpt lat="45.7087489" lon="11.2021091"><ele>610.0</ele><time>2026-04-12T09:01:13.776Z</time></trkpt><trkpt lat="45.7088064" lon="11.2019634"><ele>612.75</ele><time>2026-04-12T09:01:14.775Z</time></trkpt><trkpt lat="45.7088477" lon="11.2018023"><ele>615.5</ele><time>2026-04-12T09:01:15.776Z</time></trkpt><trkpt lat="45.7088801" lon="11.2016263"><ele>618.25</ele><time>2026-04-12T09:01:16.776Z</time></trkpt><trkpt lat="45.7089069" lon="11.2014466"><ele>621.0</ele><time>2026-04-12T09:01:17.776Z</time></trkpt><trkpt lat="45.7089214" lon="11.2012578"><ele>621.0</ele><time>2026-04-12T09:01:18.776Z</time></trkpt><trkpt lat="45.7089345" lon="11.201062"><ele>621.0</ele><time>2026-04-12T09:01:19.775Z</time></trkpt><trkpt lat="45.7089559" lon="11.2008829"><ele>621.0</ele><time>2026-04-12T09:01:20.776Z</time></trkpt><trkpt lat="45.7089999" lon="11.2007339"><ele>621.0</ele><time>2026-04-12T09:01:21.775Z</time></trkpt><trkpt lat="45.7090684" lon="11.2006404"><ele>621.0</ele><time>2026-04-12T09:01:22.776Z</time></trkpt><trkpt lat="45.7091482" lon="11.2005898"><ele>621.0</ele><time>2026-04-12T09:01:23.775Z</time></trkpt><trkpt lat="45.7092234" lon="11.2006092"><ele>621.0</ele><time>2026-04-12T09:01:24.776Z</time></trkpt><trkpt lat="45.7093083" lon="11.2006585"><ele>621.0</ele><time>2026-04-12T09:01:25.775Z</time></trkpt><trkpt lat="45.7093773" lon="11.2007565"><ele>621.0</ele><time>2026-04-12T09:01:26.776Z</time></trkpt><trkpt lat="45.7094466" lon="11.2008398"><ele>621.0</ele><time>2026-04-12T09:01:27.776Z</time></trkpt><trkpt lat="45.7095268" lon="11.2008893"><ele>624.0</ele><time>2026-04-12T09:01:28.775Z</time></trkpt><trkpt lat="45.7096233" lon="11.200909"><ele>627.0</ele><time>2026-04-12T09:01:29.776Z</time></trkpt><trkpt lat="45.7097344" lon="11.2008508"><ele>630.0</ele><time>2026-04-12T09:01:30.775Z</time></trkpt><trkpt lat="45.7098391" lon="11.200769"><ele>633.0</ele><time>2026-04-12T09:01:31.776Z</time></trkpt><trkpt lat="45.7099362" lon="11.2006938"><ele>636.0</ele><time>2026-04-12T09:01:32.775Z</time></trkpt><trkpt lat="45.7100311" lon="11.2006302"><ele>637.5</ele><time>2026-04-12T09:01:33.776Z</time></trkpt><trkpt lat="45.7101275" lon="11.2005968"><ele>639.0</ele><time>2026-04-12T09:01:34.775Z</time></trkpt><trkpt lat="45.7102251" lon="11.2005874"><ele>640.5</ele><time>2026-04-12T09:01:35.776Z</time></trkpt><trkpt lat="45.7103056" lon="11.2005873"><ele>642.0</ele><time>2026-04-12T09:01:36.776Z</time></trkpt><trkpt lat="45.7103732" lon="11.200586"><ele>643.5</ele><time>2026-04-12T09:01:37.775Z</time></trkpt><trkpt lat="45.7104172" lon="11.2005185"><ele>645.0</ele><time>2026-04-12T09:01:39.776Z</time></trkpt><trkpt lat="45.7103889" lon="11.2004307"><ele>645.0</ele><time>2026-04-12T09:01:41.775Z</time></trkpt><trkpt lat="45.7103217" lon="11.2004122"><ele>645.0</ele><time>2026-04-12T09:01:42.776Z</time></trkpt><trkpt lat="45.7102163" lon="11.200421"><ele>645.0</ele><time>2026-04-12T09:01:43.776Z</time></trkpt><trkpt lat="45.7101111" lon="11.2004338"><ele>645.0</ele><time>2026-04-12T09:01:44.776Z</time></trkpt><trkpt lat="45.7100218" lon="11.2004231"><ele>645.0</ele><time>2026-04-12T09:01:45.776Z</time></trkpt><trkpt lat="45.7099376" lon="11.2003032"><ele>645.0</ele><time>2026-04-12T09:01:47.775Z</time></trkpt><trkpt lat="45.7099655" lon="11.2001473"><ele>645.0</ele><time>2026-04-12T09:01:49.775Z</time></trkpt><trkpt lat="45.7100159" lon="11.2000907"><ele>645.0</ele><time>2026-04-12T09:01:50.776Z</time></trkpt><trkpt lat="45.7100831" lon="11.200098"><ele>645.0</ele><time>2026-04-12T09:01:51.775Z</time></trkpt><trkpt lat="45.7101596" lon="11.2001384"><ele>645.0</ele><time>2026-04-12T09:01:52.775Z</time></trkpt><trkpt lat="45.7102428" lon="11.2001768"><ele>645.0</ele><time>2026-04-12T09:01:53.775Z</time></trkpt><trkpt lat="45.7103438" lon="11.2001994"><ele>648.25</ele><time>2026-04-12T09:01:54.775Z</time></trkpt><trkpt lat="45.710458" lon="11.2001877"><ele>651.5</ele><time>2026-04-12T09:01:55.775Z</time></trkpt><trkpt lat="45.7105739" lon="11.2001533"><ele>654.75</ele><time>2026-04-12T09:01:56.775Z</time></trkpt><trkpt lat="45.7106938" lon="11.2001144"><ele>658.0</ele><time>2026-04-12T09:01:57.775Z</time></trkpt><trkpt lat="45.7108125" lon="11.2000664"><ele>658.0</ele><time>2026-04-12T09:01:58.776Z</time></trkpt><trkpt lat="45.7109264" lon="11.2000103"><ele>658.0</ele><time>2026-04-12T09:01:59.775Z</time></trkpt><trkpt lat="45.7110411" lon="11.199951"><ele>658.0</ele><time>2026-04-12T09:02:00.776Z</time></trkpt><trkpt lat="45.7111517" lon="11.199894"><ele>658.0</ele><time>2026-04-12T09:02:01.776Z</time></trkpt><trkpt lat="45.7112483" lon="11.1998266"><ele>661.4</ele><time>2026-04-12T09:02:02.776Z</time></trkpt><trkpt lat="45.7113269" lon="11.1997344"><ele>664.8</ele><time>2026-04-12T09:02:03.776Z</time></trkpt><trkpt lat="45.7113827" lon="11.1996061"><ele>668.2</ele><time>2026-04-12T09:02:04.775Z</time></trkpt><trkpt lat="45.7114302" lon="11.1994632"><ele>671.6</ele><time>2026-04-12T09:02:05.776Z</time></trkpt><trkpt lat="45.7114687" lon="11.1993146"><ele>675.0</ele><time>2026-04-12T09:02:06.776Z</time></trkpt><trkpt lat="45.7115046" lon="11.1991549"><ele>675.0</ele><time>2026-04-12T09:02:07.776Z</time></trkpt><trkpt lat="45.7115512" lon="11.1990045"><ele>675.0</ele><time>2026-04-12T09:02:08.776Z</time></trkpt><trkpt lat="45.7116022" lon="11.1988656"><ele>675.0</ele><time>2026-04-12T09:02:09.776Z</time></trkpt><trkpt lat="45.7116602" lon="11.1987486"><ele>675.0</ele><time>2026-04-12T09:02:10.775Z</time></trkpt><trkpt lat="45.7117282" lon="11.198662"><ele>675.0</ele><time>2026-04-12T09:02:11.776Z</time></trkpt><trkpt lat="45.7118087" lon="11.1986067"><ele>675.4</ele><time>2026-04-12T09:02:12.776Z</time></trkpt><trkpt lat="45.7118986" lon="11.1985869"><ele>675.8</ele><time>2026-04-12T09:02:13.775Z</time></trkpt><trkpt lat="45.7120001" lon="11.198601"><ele>676.2</ele><time>2026-04-12T09:02:14.776Z</time></trkpt><trkpt lat="45.7121067" lon="11.1986036"><ele>676.6</ele><time>2026-04-12T09:02:15.776Z</time></trkpt><trkpt lat="45.712199" lon="11.1985677"><ele>677.0</ele><time>2026-04-12T09:02:16.776Z</time></trkpt><trkpt lat="45.7122785" lon="11.1984874"><ele>680.0</ele><time>2026-04-12T09:02:17.776Z</time></trkpt><trkpt lat="45.7123533" lon="11.1983698"><ele>683.0</ele><time>2026-04-12T09:02:18.776Z</time></trkpt><trkpt lat="45.7124354" lon="11.198222"><ele>686.0</ele><time>2026-04-12T09:02:19.775Z</time></trkpt><trkpt lat="45.7125122" lon="11.1980862"><ele>689.0</ele><time>2026-04-12T09:02:20.775Z</time></trkpt><trkpt lat="45.7125863" lon="11.1979688"><ele>690.0</ele><time>2026-04-12T09:02:21.775Z</time></trkpt><trkpt lat="45.7126601" lon="11.1978672"><ele>691.0</ele><time>2026-04-12T09:02:22.776Z</time></trkpt><trkpt lat="45.7127498" lon="11.1978"><ele>692.0</ele><time>2026-04-12T09:02:23.776Z</time></trkpt><trkpt lat="45.7128428" lon="11.1977769"><ele>693.0</ele><time>2026-04-12T09:02:24.775Z</time></trkpt><trkpt lat="45.7129442" lon="11.1977981"><ele>694.0</ele><time>2026-04-12T09:02:25.776Z</time></trkpt><trkpt lat="45.7130618" lon="11.1978578"><ele>697.0</ele><time>2026-04-12T09:02:26.775Z</time></trkpt><trkpt lat="45.7131904" lon="11.1979213"><ele>700.0</ele><time>2026-04-12T09:02:27.775Z</time></trkpt><trkpt lat="45.7133231" lon="11.1979797"><ele>703.0</ele><time>2026-04-12T09:02:28.775Z</time></trkpt><trkpt lat="45.7134608" lon="11.1980377"><ele>706.0</ele><time>2026-04-12T09:02:29.775Z</time></trkpt><trkpt lat="45.7135798" lon="11.1980907"><ele>707.8</ele><time>2026-04-12T09:02:30.776Z</time></trkpt><trkpt lat="45.7136877" lon="11.1981402"><ele>709.5999999999999</ele><time>2026-04-12T09:02:31.776Z</time></trkpt><trkpt lat="45.713793" lon="11.1981872"><ele>711.4</ele><time>2026-04-12T09:02:32.775Z</time></trkpt><trkpt lat="45.7138915" lon="11.1982094"><ele>713.2</ele><time>2026-04-12T09:02:33.775Z</time></trkpt><trkpt lat="45.7139842" lon="11.1981819"><ele>715.0</ele><time>2026-04-12T09:02:34.776Z</time></trkpt><trkpt lat="45.7140658" lon="11.1981103"><ele>715.0</ele><time>2026-04-12T09:02:35.776Z</time></trkpt><trkpt lat="45.7141334" lon="11.1979968"><ele>715.0</ele><time>2026-04-12T09:02:36.776Z</time></trkpt><trkpt lat="45.7141921" lon="11.1978556"><ele>715.0</ele><time>2026-04-12T09:02:37.775Z</time></trkpt><trkpt lat="45.7142448" lon="11.1976893"><ele>715.0</ele><time>2026-04-12T09:02:38.775Z</time></trkpt><trkpt lat="45.7142991" lon="11.197525"><ele>715.0</ele><time>2026-04-12T09:02:39.776Z</time></trkpt><trkpt lat="45.7143504" lon="11.1973821"><ele>715.0</ele><time>2026-04-12T09:02:40.776Z</time></trkpt><trkpt lat="45.7143999" lon="11.1972584"><ele>715.0</ele><time>2026-04-12T09:02:41.775Z</time></trkpt><trkpt lat="45.7144533" lon="11.1971675"><ele>715.0</ele><time>2026-04-12T09:02:42.776Z</time></trkpt><trkpt lat="45.714513" lon="11.1971177"><ele>715.0</ele><time>2026-04-12T09:02:43.776Z</time></trkpt><trkpt lat="45.714623" lon="11.1971635"><ele>718.8</ele><time>2026-04-12T09:02:45.776Z</time></trkpt><trkpt lat="45.7146543" lon="11.1973118"><ele>722.6</ele><time>2026-04-12T09:02:47.776Z</time></trkpt><trkpt lat="45.7146213" lon="11.1974069"><ele>726.4000000000001</ele><time>2026-04-12T09:02:48.775Z</time></trkpt><trkpt lat="45.7145688" lon="11.1975104"><ele>730.2</ele><time>2026-04-12T09:02:49.775Z</time></trkpt><trkpt lat="45.7145226" lon="11.1976314"><ele>734.0</ele><time>2026-04-12T09:02:50.776Z</time></trkpt><trkpt lat="45.7144856" lon="11.1977679"><ele>734.0</ele><time>2026-04-12T09:02:51.776Z</time></trkpt><trkpt lat="45.7144627" lon="11.1979171"><ele>734.0</ele><time>2026-04-12T09:02:52.776Z</time></trkpt><trkpt lat="45.7144564" lon="11.1980555"><ele>734.0</ele><time>2026-04-12T09:02:53.775Z</time></trkpt><trkpt lat="45.7144706" lon="11.1982046"><ele>734.0</ele><time>2026-04-12T09:02:54.776Z</time></trkpt><trkpt lat="45.714506" lon="11.1983392"><ele>734.0</ele><time>2026-04-12T09:02:55.775Z</time></trkpt><trkpt lat="45.7145557" lon="11.1984709"><ele>735.8000000000001</ele><time>2026-04-12T09:02:56.776Z</time></trkpt><trkpt lat="45.7146043" lon="11.1985949"><ele>737.6</ele><time>2026-04-12T09:02:57.776Z</time></trkpt><trkpt lat="45.7146365" lon="11.1987229"><ele>739.4</ele><time>2026-04-12T09:02:58.776Z</time></trkpt><trkpt lat="45.7146462" lon="11.1988471"><ele>741.2</ele><time>2026-04-12T09:02:59.776Z</time></trkpt><trkpt lat="45.7146296" lon="11.1989675"><ele>743.0</ele><time>2026-04-12T09:03:00.776Z</time></trkpt><trkpt lat="45.7145958" lon="11.1990823"><ele>744.2</ele><time>2026-04-12T09:03:01.775Z</time></trkpt><trkpt lat="45.7145748" lon="11.1992007"><ele>745.4</ele><time>2026-04-12T09:03:02.775Z</time></trkpt><trkpt lat="45.7145649" lon="11.1993313"><ele>746.6</ele><time>2026-04-12T09:03:03.776Z</time></trkpt><trkpt lat="45.714558" lon="11.1994646"><ele>747.8000000000001</ele><time>2026-04-12T09:03:04.776Z</time></trkpt><trkpt lat="45.7145473" lon="11.1995964"><ele>749.0</ele><time>2026-04-12T09:03:05.775Z</time></trkpt><trkpt lat="45.7145132" lon="11.1997136"><ele>749.0</ele><time>2026-04-12T09:03:06.776Z</time></trkpt><trkpt lat="45.7144586" lon="11.1998186"><ele>749.0</ele><time>2026-04-12T09:03:07.776Z</time></trkpt><trkpt lat="45.7143766" lon="11.1998975"><ele>749.0</ele><time>2026-04-12T09:03:08.775Z</time></trkpt><trkpt lat="45.7143012" lon="11.199984"><ele>749.0</ele><time>2026-04-12T09:03:09.776Z</time></trkpt><trkpt lat="45.7142434" lon="11.200074"><ele>749.0</ele><time>2026-04-12T09:03:10.776Z</time></trkpt><trkpt lat="45.714203" lon="11.2001818"><ele>747.0</ele><time>2026-04-12T09:03:11.776Z</time></trkpt><trkpt lat="45.714184" lon="11.2003062"><ele>745.0</ele><time>2026-04-12T09:03:12.775Z</time></trkpt><trkpt lat="45.7141767" lon="11.2004252"><ele>743.0</ele><time>2026-04-12T09:03:13.775Z</time></trkpt><trkpt lat="45.7141621" lon="11.2005647"><ele>741.0</ele><time>2026-04-12T09:03:15.775Z</time></trkpt><trkpt lat="45.7142089" lon="11.2006437"><ele>739.0</ele><time>2026-04-12T09:03:17.775Z</time></trkpt><trkpt lat="45.714289" lon="11.2006016"><ele>737.0</ele><time>2026-04-12T09:03:19.776Z</time></trkpt><trkpt lat="45.7143228" lon="11.200509"><ele>737.0</ele><time>2026-04-12T09:03:20.776Z</time></trkpt><trkpt lat="45.7143584" lon="11.2003964"><ele>737.0</ele><time>2026-04-12T09:03:21.774Z</time></trkpt><trkpt lat="45.7143992" lon="11.2002711"><ele>737.0</ele><time>2026-04-12T09:03:22.775Z</time></trkpt><trkpt lat="45.7144525" lon="11.2001547"><ele>737.0</ele><time>2026-04-12T09:03:23.774Z</time></trkpt><trkpt lat="45.7145237" lon="11.2000714"><ele>737.0</ele><time>2026-04-12T09:03:24.774Z</time></trkpt><trkpt lat="45.7146049" lon="11.2000299"><ele>742.0</ele><time>2026-04-12T09:03:25.775Z</time></trkpt><trkpt lat="45.7146954" lon="11.2000128"><ele>747.0</ele><time>2026-04-12T09:03:26.774Z</time></trkpt><trkpt lat="45.7147989" lon="11.2000031"><ele>752.0</ele><time>2026-04-12T09:03:27.775Z</time></trkpt><trkpt lat="45.7149095" lon="11.1999927"><ele>757.0</ele><time>2026-04-12T09:03:28.775Z</time></trkpt><trkpt lat="45.7150251" lon="11.1999819"><ele>762.0</ele><time>2026-04-12T09:03:29.775Z</time></trkpt><trkpt lat="45.7151316" lon="11.1999536"><ele>762.0</ele><time>2026-04-12T09:03:30.775Z</time></trkpt><trkpt lat="45.715236" lon="11.1999026"><ele>762.0</ele><time>2026-04-12T09:03:31.775Z</time></trkpt><trkpt lat="45.7153407" lon="11.1998324"><ele>762.0</ele><time>2026-04-12T09:03:32.775Z</time></trkpt><trkpt lat="45.7154349" lon="11.199741"><ele>762.0</ele><time>2026-04-12T09:03:33.775Z</time></trkpt><trkpt lat="45.7155207" lon="11.1996488"><ele>762.0</ele><time>2026-04-12T09:03:34.775Z</time></trkpt><trkpt lat="45.7155956" lon="11.1995534"><ele>763.4000000000001</ele><time>2026-04-12T09:03:35.774Z</time></trkpt><trkpt lat="45.7156491" lon="11.1994386"><ele>764.8000000000001</ele><time>2026-04-12T09:03:36.775Z</time></trkpt><trkpt lat="45.7156875" lon="11.1993166"><ele>766.2</ele><time>2026-04-12T09:03:37.775Z</time></trkpt><trkpt lat="45.7157065" lon="11.1991803"><ele>767.6</ele><time>2026-04-12T09:03:38.774Z</time></trkpt><trkpt lat="45.7157296" lon="11.1990521"><ele>769.0</ele><time>2026-04-12T09:03:39.775Z</time></trkpt><trkpt lat="45.7157695" lon="11.198951"><ele>769.0</ele><time>2026-04-12T09:03:40.775Z</time></trkpt><trkpt lat="45.7158272" lon="11.1988699"><ele>769.0</ele><time>2026-04-12T09:03:41.775Z</time></trkpt><trkpt lat="45.7159142" lon="11.1988009"><ele>769.0</ele><time>2026-04-12T09:03:42.775Z</time></trkpt><trkpt lat="45.716014" lon="11.1987331"><ele>769.0</ele><time>2026-04-12T09:03:43.775Z</time></trkpt><trkpt lat="45.7161143" lon="11.1986629"><ele>769.0</ele><time>2026-04-12T09:03:44.775Z</time></trkpt><trkpt lat="45.7162236" lon="11.1985968"><ele>776.5</ele><time>2026-04-12T09:03:45.775Z</time></trkpt><trkpt lat="45.7163396" lon="11.1985187"><ele>784.0</ele><time>2026-04-12T09:03:46.774Z</time></trkpt><trkpt lat="45.7164531" lon="11.1984326"><ele>791.5</ele><time>2026-04-12T09:03:47.774Z</time></trkpt><trkpt lat="45.7165666" lon="11.1983454"><ele>799.0</ele><time>2026-04-12T09:03:48.774Z</time></trkpt><trkpt lat="45.7166823" lon="11.1982554"><ele>799.0</ele><time>2026-04-12T09:03:49.775Z</time></trkpt><trkpt lat="45.7167997" lon="11.1981707"><ele>799.0</ele><time>2026-04-12T09:03:50.775Z</time></trkpt><trkpt lat="45.7169025" lon="11.1980735"><ele>799.0</ele><time>2026-04-12T09:03:51.774Z</time></trkpt><trkpt lat="45.7170059" lon="11.1979651"><ele>799.0</ele><time>2026-04-12T09:03:52.775Z</time></trkpt><trkpt lat="45.7171062" lon="11.1978406"><ele>797.25</ele><time>2026-04-12T09:03:53.775Z</time></trkpt><trkpt lat="45.7172004" lon="11.1977058"><ele>795.5</ele><time>2026-04-12T09:03:54.774Z</time></trkpt><trkpt lat="45.7172979" lon="11.1975754"><ele>793.75</ele><time>2026-04-12T09:03:55.774Z</time></trkpt><trkpt lat="45.7174014" lon="11.1974513"><ele>792.0</ele><time>2026-04-12T09:03:56.774Z</time></trkpt><trkpt lat="45.7175093" lon="11.197325"><ele>792.0</ele><time>2026-04-12T09:03:57.775Z</time></trkpt><trkpt lat="45.7176209" lon="11.1971957"><ele>792.0</ele><time>2026-04-12T09:03:58.774Z</time></trkpt><trkpt lat="45.7177398" lon="11.1970611"><ele>792.0</ele><time>2026-04-12T09:03:59.775Z</time></trkpt><trkpt lat="45.7178582" lon="11.1969144"><ele>795.25</ele><time>2026-04-12T09:04:00.774Z</time></trkpt><trkpt lat="45.717966" lon="11.1967594"><ele>798.5</ele><time>2026-04-12T09:04:01.775Z</time></trkpt><trkpt lat="45.7180778" lon="11.1966263"><ele>801.75</ele><time>2026-04-12T09:04:02.775Z</time></trkpt><trkpt lat="45.7181896" lon="11.1965056"><ele>805.0</ele><time>2026-04-12T09:04:03.775Z</time></trkpt><trkpt lat="45.7183051" lon="11.196399"><ele>805.0</ele><time>2026-04-12T09:04:04.775Z</time></trkpt><trkpt lat="45.7184225" lon="11.1963118"><ele>805.0</ele><time>2026-04-12T09:04:05.775Z</time></trkpt><trkpt lat="45.7185363" lon="11.1962067"><ele>805.0</ele><time>2026-04-12T09:04:06.775Z</time></trkpt><trkpt lat="45.7186506" lon="11.1960893"><ele>805.0</ele><time>2026-04-12T09:04:07.774Z</time></trkpt><trkpt lat="45.7187668" lon="11.1959739"><ele>811.0</ele><time>2026-04-12T09:04:08.774Z</time></trkpt><trkpt lat="45.7188809" lon="11.1958427"><ele>817.0</ele><time>2026-04-12T09:04:09.775Z</time></trkpt><trkpt lat="45.7189871" lon="11.1957083"><ele>823.0</ele><time>2026-04-12T09:04:10.774Z</time></trkpt><trkpt lat="45.7190995" lon="11.1955837"><ele>829.0</ele><time>2026-04-12T09:04:11.774Z</time></trkpt><trkpt lat="45.7192063" lon="11.1954576"><ele>829.0</ele><time>2026-04-12T09:04:12.775Z</time></trkpt><trkpt lat="45.7193126" lon="11.1953312"><ele>829.0</ele><time>2026-04-12T09:04:13.775Z</time></trkpt><trkpt lat="45.719411" lon="11.1952178"><ele>829.0</ele><time>2026-04-12T09:04:14.774Z</time></trkpt><trkpt lat="45.7195069" lon="11.1951058"><ele>829.0</ele><time>2026-04-12T09:04:15.774Z</time></trkpt><trkpt lat="45.7195895" lon="11.1950038"><ele>834.6</ele><time>2026-04-12T09:04:16.775Z</time></trkpt><trkpt lat="45.7196541" lon="11.194906"><ele>840.2</ele><time>2026-04-12T09:04:17.775Z</time></trkpt><trkpt lat="45.7196973" lon="11.1948127"><ele>845.8000000000001</ele><time>2026-04-12T09:04:18.775Z</time></trkpt><trkpt lat="45.7197257" lon="11.1946431"><ele>851.4000000000001</ele><time>2026-04-12T09:04:20.775Z</time></trkpt><trkpt lat="45.7196648" lon="11.1945436"><ele>857.0</ele><time>2026-04-12T09:04:21.775Z</time></trkpt><trkpt lat="45.7195843" lon="11.1944497"><ele>857.0</ele><time>2026-04-12T09:04:22.775Z</time></trkpt><trkpt lat="45.7195067" lon="11.1943616"><ele>857.0</ele><time>2026-04-12T09:04:23.774Z</time></trkpt><trkpt lat="45.719452" lon="11.1942618"><ele>857.0</ele><time>2026-04-12T09:04:24.775Z</time></trkpt><trkpt lat="45.7194052" lon="11.1941627"><ele>857.0</ele><time>2026-04-12T09:04:25.774Z</time></trkpt><trkpt lat="45.7193445" lon="11.1940697"><ele>857.0</ele><time>2026-04-12T09:04:26.774Z</time></trkpt><trkpt lat="45.7192361" lon="11.194031"><ele>853.25</ele><time>2026-04-12T09:04:27.775Z</time></trkpt><trkpt lat="45.7191116" lon="11.1940197"><ele>849.5</ele><time>2026-04-12T09:04:28.774Z</time></trkpt><trkpt lat="45.7189819" lon="11.1940055"><ele>845.75</ele><time>2026-04-12T09:04:29.774Z</time></trkpt><trkpt lat="45.7188578" lon="11.1939776"><ele>842.0</ele><time>2026-04-12T09:04:30.775Z</time></trkpt><trkpt lat="45.7187356" lon="11.1939448"><ele>848.6</ele><time>2026-04-12T09:04:31.775Z</time></trkpt><trkpt lat="45.7186246" lon="11.1938995"><ele>855.2</ele><time>2026-04-12T09:04:32.775Z</time></trkpt><trkpt lat="45.7185244" lon="11.1938397"><ele>861.8</ele><time>2026-04-12T09:04:33.775Z</time></trkpt><trkpt lat="45.7184281" lon="11.1937736"><ele>868.4</ele><time>2026-04-12T09:04:34.774Z</time></trkpt><trkpt lat="45.7183219" lon="11.1937377"><ele>875.0</ele><time>2026-04-12T09:04:35.775Z</time></trkpt><trkpt lat="45.7182138" lon="11.1937186"><ele>875.0</ele><time>2026-04-12T09:04:36.775Z</time></trkpt><trkpt lat="45.7181188" lon="11.1936768"><ele>875.0</ele><time>2026-04-12T09:04:37.775Z</time></trkpt><trkpt lat="45.718015" lon="11.1936597"><ele>875.0</ele><time>2026-04-12T09:04:38.774Z</time></trkpt><trkpt lat="45.7178935" lon="11.193668"><ele>875.0</ele><time>2026-04-12T09:04:39.775Z</time></trkpt><trkpt lat="45.7177595" lon="11.1937095"><ele>874.25</ele><time>2026-04-12T09:04:40.775Z</time></trkpt><trkpt lat="45.7176395" lon="11.1937451"><ele>873.5</ele><time>2026-04-12T09:04:41.775Z</time></trkpt><trkpt lat="45.7175206" lon="11.1937709"><ele>872.75</ele><time>2026-04-12T09:04:42.774Z</time></trkpt><trkpt lat="45.7174098" lon="11.1937877"><ele>872.0</ele><time>2026-04-12T09:04:43.775Z</time></trkpt><trkpt lat="45.7173055" lon="11.1938126"><ele>872.0000000000001</ele><time>2026-04-12T09:04:44.775Z</time></trkpt><trkpt lat="45.7172112" lon="11.1938476"><ele>872.0</ele><time>2026-04-12T09:04:45.774Z</time></trkpt><trkpt lat="45.7171243" lon="11.1938694"><ele>872.0</ele><time>2026-04-12T09:04:46.774Z</time></trkpt><trkpt lat="45.7170468" lon="11.193858"><ele>872.0</ele><time>2026-04-12T09:04:47.775Z</time></trkpt><trkpt lat="45.7169847" lon="11.1937982"><ele>872.0000000000001</ele><time>2026-04-12T09:04:48.774Z</time></trkpt><trkpt lat="45.7169441" lon="11.1936861"><ele>872.0</ele><time>2026-04-12T09:04:49.774Z</time></trkpt><trkpt lat="45.7169109" lon="11.1935332"><ele>870.5</ele><time>2026-04-12T09:04:50.775Z</time></trkpt><trkpt lat="45.7168679" lon="11.1933705"><ele>869.0</ele><time>2026-04-12T09:04:51.774Z</time></trkpt><trkpt lat="45.7168138" lon="11.1932078"><ele>867.5</ele><time>2026-04-12T09:04:52.775Z</time></trkpt><trkpt lat="45.7167483" lon="11.1930561"><ele>866.0</ele><time>2026-04-12T09:04:53.774Z</time></trkpt><trkpt lat="45.716689" lon="11.1929106"><ele>868.8</ele><time>2026-04-12T09:04:54.775Z</time></trkpt><trkpt lat="45.7166393" lon="11.1927648"><ele>871.5999999999999</ele><time>2026-04-12T09:04:55.774Z</time></trkpt><trkpt lat="45.7166076" lon="11.1926118"><ele>874.4</ele><time>2026-04-12T09:04:56.775Z</time></trkpt><trkpt lat="45.7165998" lon="11.1924607"><ele>877.2</ele><time>2026-04-12T09:04:57.774Z</time></trkpt><trkpt lat="45.7166138" lon="11.192299"><ele>880.0</ele><time>2026-04-12T09:04:58.774Z</time></trkpt><trkpt lat="45.7166393" lon="11.1921241"><ele>882.8</ele><time>2026-04-12T09:04:59.774Z</time></trkpt><trkpt lat="45.7166561" lon="11.1919504"><ele>885.6</ele><time>2026-04-12T09:05:00.774Z</time></trkpt><trkpt lat="45.7166557" lon="11.1918084"><ele>888.4000000000001</ele><time>2026-04-12T09:05:01.775Z</time></trkpt><trkpt lat="45.7166375" lon="11.1916869"><ele>891.2</ele><time>2026-04-12T09:05:02.775Z</time></trkpt><trkpt lat="45.716609" lon="11.1915883"><ele>894.0</ele><time>2026-04-12T09:05:03.775Z</time></trkpt><trkpt lat="45.7165458" lon="11.1915093"><ele>894.6666666666666</ele><time>2026-04-12T09:05:04.775Z</time></trkpt><trkpt lat="45.7164614" lon="11.1914472"><ele>895.3333333333333</ele><time>2026-04-12T09:05:05.774Z</time></trkpt><trkpt lat="45.7163871" lon="11.1913802"><ele>896.0</ele><time>2026-04-12T09:05:06.775Z</time></trkpt><trkpt lat="45.7163293" lon="11.1913131"><ele>896.6666666666666</ele><time>2026-04-12T09:05:07.775Z</time></trkpt><trkpt lat="45.7162872" lon="11.1912297"><ele>897.3333333333333</ele><time>2026-04-12T09:05:08.775Z</time></trkpt><trkpt lat="45.7162758" lon="11.1911291"><ele>898.0</ele><time>2026-04-12T09:05:09.774Z</time></trkpt><trkpt lat="45.7162831" lon="11.1910113"><ele>897.9999999999999</ele><time>2026-04-12T09:05:10.775Z</time></trkpt><trkpt lat="45.7163065" lon="11.1908923"><ele>898.0</ele><time>2026-04-12T09:05:11.774Z</time></trkpt><trkpt lat="45.7163413" lon="11.1907912"><ele>898.0</ele><time>2026-04-12T09:05:12.775Z</time></trkpt><trkpt lat="45.7163889" lon="11.1907017"><ele>898.0</ele><time>2026-04-12T09:05:13.775Z</time></trkpt><trkpt lat="45.7164381" lon="11.190609"><ele>897.9999999999999</ele><time>2026-04-12T09:05:14.774Z</time></trkpt><trkpt lat="45.7164815" lon="11.1904972"><ele>898.0</ele><time>2026-04-12T09:05:15.775Z</time></trkpt><trkpt lat="45.7165212" lon="11.1903727"><ele>898.4</ele><time>2026-04-12T09:05:16.774Z</time></trkpt><trkpt lat="45.716548" lon="11.1902367"><ele>898.8</ele><time>2026-04-12T09:05:17.775Z</time></trkpt><trkpt lat="45.7165827" lon="11.1901017"><ele>899.2</ele><time>2026-04-12T09:05:18.775Z</time></trkpt><trkpt lat="45.7166076" lon="11.1899422"><ele>899.6</ele><time>2026-04-12T09:05:19.775Z</time></trkpt><trkpt lat="45.7166347" lon="11.1897835"><ele>900.0</ele><time>2026-04-12T09:05:20.775Z</time></trkpt><trkpt lat="45.7166487" lon="11.1896283"><ele>901.25</ele><time>2026-04-12T09:05:21.774Z</time></trkpt><trkpt lat="45.7166423" lon="11.1894689"><ele>902.5</ele><time>2026-04-12T09:05:22.775Z</time></trkpt><trkpt lat="45.7166274" lon="11.1893033"><ele>903.75</ele><time>2026-04-12T09:05:23.775Z</time></trkpt><trkpt lat="45.7166234" lon="11.1891439"><ele>905.0</ele><time>2026-04-12T09:05:24.774Z</time></trkpt><trkpt lat="45.7166393" lon="11.188982"><ele>905.4</ele><time>2026-04-12T09:05:25.775Z</time></trkpt><trkpt lat="45.7166704" lon="11.1888331"><ele>905.8</ele><time>2026-04-12T09:05:26.774Z</time></trkpt><trkpt lat="45.7167086" lon="11.1886991"><ele>906.2</ele><time>2026-04-12T09:05:27.775Z</time></trkpt><trkpt lat="45.7167614" lon="11.188568"><ele>906.6</ele><time>2026-04-12T09:05:28.774Z</time></trkpt><trkpt lat="45.7167981" lon="11.1884188"><ele>907.0</ele><time>2026-04-12T09:05:29.774Z</time></trkpt><trkpt lat="45.7168142" lon="11.1882604"><ele>908.0</ele><time>2026-04-12T09:05:30.775Z</time></trkpt><trkpt lat="45.7168076" lon="11.1881004"><ele>909.0</ele><time>2026-04-12T09:05:31.774Z</time></trkpt><trkpt lat="45.7168005" lon="11.18794"><ele>910.0</ele><time>2026-04-12T09:05:32.775Z</time></trkpt><trkpt lat="45.7168006" lon="11.1877893"><ele>911.0</ele><time>2026-04-12T09:05:33.774Z</time></trkpt><trkpt lat="45.7168162" lon="11.1876489"><ele>912.0</ele><time>2026-04-12T09:05:34.775Z</time></trkpt><trkpt lat="45.716853" lon="11.1875075"><ele>912.0</ele><time>2026-04-12T09:05:35.775Z</time></trkpt><trkpt lat="45.7169013" lon="11.1873631"><ele>912.0</ele><time>2026-04-12T09:05:36.775Z</time></trkpt><trkpt lat="45.7169611" lon="11.1872118"><ele>912.0</ele><time>2026-04-12T09:05:37.774Z</time></trkpt><trkpt lat="45.7170175" lon="11.1870645"><ele>912.0</ele><time>2026-04-12T09:05:38.774Z</time></trkpt><trkpt lat="45.7170723" lon="11.1869137"><ele>919.6</ele><time>2026-04-12T09:05:39.775Z</time></trkpt><trkpt lat="45.7171344" lon="11.1867617"><ele>927.2</ele><time>2026-04-12T09:05:40.775Z</time></trkpt><trkpt lat="45.7171948" lon="11.1866297"><ele>934.8</ele><time>2026-04-12T09:05:41.775Z</time></trkpt><trkpt lat="45.717247" lon="11.1865052"><ele>942.4</ele><time>2026-04-12T09:05:42.775Z</time></trkpt><trkpt lat="45.7172955" lon="11.1863786"><ele>950.0</ele><time>2026-04-12T09:05:43.774Z</time></trkpt><trkpt lat="45.7173075" lon="11.1862672"><ele>951.0</ele><time>2026-04-12T09:05:44.775Z</time></trkpt><trkpt lat="45.7172878" lon="11.1861742"><ele>952.0</ele><time>2026-04-12T09:05:45.774Z</time></trkpt><trkpt lat="45.7172143" lon="11.1861289"><ele>953.0</ele><time>2026-04-12T09:05:46.774Z</time></trkpt><trkpt lat="45.7171035" lon="11.1861162"><ele>954.0</ele><time>2026-04-12T09:05:47.775Z</time></trkpt><trkpt lat="45.7170067" lon="11.1860668"><ele>955.0</ele><time>2026-04-12T09:05:48.774Z</time></trkpt><trkpt lat="45.7168778" lon="11.1860204"><ele>955.0</ele><time>2026-04-12T09:05:49.774Z</time></trkpt><trkpt lat="45.7167023" lon="11.1860013"><ele>955.0</ele><time>2026-04-12T09:05:50.774Z</time></trkpt><trkpt lat="45.7165615" lon="11.1859313"><ele>955.0</ele><time>2026-04-12T09:05:51.775Z</time></trkpt><trkpt lat="45.7164417" lon="11.1858447"><ele>955.0</ele><time>2026-04-12T09:05:52.775Z</time></trkpt><trkpt lat="45.7163424" lon="11.1857583"><ele>955.0</ele><time>2026-04-12T09:05:53.775Z</time></trkpt><trkpt lat="45.7162344" lon="11.1856712"><ele>955.0</ele><time>2026-04-12T09:05:54.775Z</time></trkpt><trkpt lat="45.7161179" lon="11.1856124"><ele>955.0</ele><time>2026-04-12T09:05:55.775Z</time></trkpt><trkpt lat="45.7160133" lon="11.1855761"><ele>956.8</ele><time>2026-04-12T09:05:56.774Z</time></trkpt><trkpt lat="45.7159075" lon="11.1855635"><ele>958.6</ele><time>2026-04-12T09:05:57.775Z</time></trkpt><trkpt lat="45.7158262" lon="11.185547"><ele>960.4000000000001</ele><time>2026-04-12T09:05:58.774Z</time></trkpt><trkpt lat="45.7157454" lon="11.1854449"><ele>962.2</ele><time>2026-04-12T09:06:00.774Z</time></trkpt><trkpt lat="45.7157209" lon="11.1853335"><ele>964.0</ele><time>2026-04-12T09:06:01.774Z</time></trkpt><trkpt lat="45.7156903" lon="11.1852066"><ele>964.0</ele><time>2026-04-12T09:06:02.775Z</time></trkpt><trkpt lat="45.71567" lon="11.1850676"><ele>964.0000000000001</ele><time>2026-04-12T09:06:03.774Z</time></trkpt><trkpt lat="45.7156391" lon="11.1849262"><ele>964.0000000000001</ele><time>2026-04-12T09:06:04.774Z</time></trkpt><trkpt lat="45.7155826" lon="11.1847886"><ele>964.0</ele><time>2026-04-12T09:06:05.775Z</time></trkpt><trkpt lat="45.7155047" lon="11.1846758"><ele>964.0</ele><time>2026-04-12T09:06:06.774Z</time></trkpt><trkpt lat="45.7154284" lon="11.1845831"><ele>968.1666666666666</ele><time>2026-04-12T09:06:07.775Z</time></trkpt><trkpt lat="45.7153713" lon="11.1844911"><ele>972.3333333333333</ele><time>2026-04-12T09:06:08.774Z</time></trkpt><trkpt lat="45.7153363" lon="11.1843883"><ele>976.5</ele><time>2026-04-12T09:06:09.775Z</time></trkpt><trkpt lat="45.7153158" lon="11.184268"><ele>980.6666666666667</ele><time>2026-04-12T09:06:10.775Z</time></trkpt><trkpt lat="45.7153144" lon="11.1841254"><ele>984.8333333333334</ele><time>2026-04-12T09:06:11.774Z</time></trkpt><trkpt lat="45.7153116" lon="11.1839965"><ele>989.0</ele><time>2026-04-12T09:06:12.775Z</time></trkpt><trkpt lat="45.715289" lon="11.183887"><ele>991.4000000000001</ele><time>2026-04-12T09:06:13.775Z</time></trkpt><trkpt lat="45.7152504" lon="11.183798"><ele>993.8000000000001</ele><time>2026-04-12T09:06:14.775Z</time></trkpt><trkpt lat="45.7151874" lon="11.1837206"><ele>996.1999999999999</ele><time>2026-04-12T09:06:15.775Z</time></trkpt><trkpt lat="45.715103" lon="11.183643"><ele>998.5999999999999</ele><time>2026-04-12T09:06:16.775Z</time></trkpt><trkpt lat="45.7150238" lon="11.1835614"><ele>1001.0</ele><time>2026-04-12T09:06:17.774Z</time></trkpt><trkpt lat="45.7149539" lon="11.1834576"><ele>999.5999999999999</ele><time>2026-04-12T09:06:18.775Z</time></trkpt><trkpt lat="45.7148928" lon="11.1833399"><ele>998.1999999999999</ele><time>2026-04-12T09:06:19.775Z</time></trkpt><trkpt lat="45.7148221" lon="11.1832231"><ele>996.8000000000001</ele><time>2026-04-12T09:06:20.775Z</time></trkpt><trkpt lat="45.7147401" lon="11.1831229"><ele>995.4000000000001</ele><time>2026-04-12T09:06:21.775Z</time></trkpt><trkpt lat="45.7146441" lon="11.1830488"><ele>994.0</ele><time>2026-04-12T09:06:22.775Z</time></trkpt><trkpt lat="45.7145267" lon="11.1829915"><ele>994.0</ele><time>2026-04-12T09:06:23.775Z</time></trkpt><trkpt lat="45.7144161" lon="11.1829364"><ele>994.0000000000001</ele><time>2026-04-12T09:06:24.775Z</time></trkpt><trkpt lat="45.7143118" lon="11.1828842"><ele>994.0000000000001</ele><time>2026-04-12T09:06:25.775Z</time></trkpt><trkpt lat="45.7142052" lon="11.1828376"><ele>994.0</ele><time>2026-04-12T09:06:26.774Z</time></trkpt><trkpt lat="45.7141077" lon="11.1828135"><ele>994.0</ele><time>2026-04-12T09:06:27.775Z</time></trkpt><trkpt lat="45.7140128" lon="11.1827773"><ele>989.8000000000001</ele><time>2026-04-12T09:06:28.775Z</time></trkpt><trkpt lat="45.7139271" lon="11.182706"><ele>985.6000000000001</ele><time>2026-04-12T09:06:29.774Z</time></trkpt><trkpt lat="45.7138737" lon="11.1825808"><ele>981.4</ele><time>2026-04-12T09:06:30.775Z</time></trkpt><trkpt lat="45.7138209" lon="11.182466"><ele>977.2</ele><time>2026-04-12T09:06:31.775Z</time></trkpt><trkpt lat="45.7137897" lon="11.1823401"><ele>973.0</ele><time>2026-04-12T09:06:32.774Z</time></trkpt><trkpt lat="45.71378" lon="11.1822091"><ele>973.0</ele><time>2026-04-12T09:06:33.774Z</time></trkpt><trkpt lat="45.7137849" lon="11.1820692"><ele>973.0</ele><time>2026-04-12T09:06:34.775Z</time></trkpt><trkpt lat="45.7138012" lon="11.181913"><ele>973.0</ele><time>2026-04-12T09:06:35.774Z</time></trkpt><trkpt lat="45.7138303" lon="11.1817557"><ele>973.0</ele><time>2026-04-12T09:06:36.775Z</time></trkpt><trkpt lat="45.7138421" lon="11.1816089"><ele>973.0</ele><time>2026-04-12T09:06:37.774Z</time></trkpt><trkpt lat="45.7138571" lon="11.1814799"><ele>971.1666666666666</ele><time>2026-04-12T09:06:38.774Z</time></trkpt><trkpt lat="45.7138647" lon="11.1813599"><ele>969.3333333333333</ele><time>2026-04-12T09:06:39.775Z</time></trkpt><trkpt lat="45.7138767" lon="11.1812474"><ele>967.5</ele><time>2026-04-12T09:06:40.775Z</time></trkpt><trkpt lat="45.7139147" lon="11.1811663"><ele>965.6666666666667</ele><time>2026-04-12T09:06:41.775Z</time></trkpt><trkpt lat="45.7139716" lon="11.1810856"><ele>963.8333333333334</ele><time>2026-04-12T09:06:42.775Z</time></trkpt><trkpt lat="45.7140427" lon="11.1810054"><ele>962.0</ele><time>2026-04-12T09:06:43.775Z</time></trkpt><trkpt lat="45.7141223" lon="11.1809177"><ele>962.0</ele><time>2026-04-12T09:06:44.774Z</time></trkpt><trkpt lat="45.7142058" lon="11.1808295"><ele>962.0</ele><time>2026-04-12T09:06:45.775Z</time></trkpt><trkpt lat="45.7142896" lon="11.1807446"><ele>962.0</ele><time>2026-04-12T09:06:46.774Z</time></trkpt><trkpt lat="45.7143681" lon="11.1806509"><ele>962.0</ele><time>2026-04-12T09:06:47.774Z</time></trkpt><trkpt lat="45.7144511" lon="11.18056"><ele>962.0</ele><time>2026-04-12T09:06:48.774Z</time></trkpt><trkpt lat="45.7145363" lon="11.1804645"><ele>964.8</ele><time>2026-04-12T09:06:49.775Z</time></trkpt><trkpt lat="45.7146145" lon="11.1803692"><ele>967.6</ele><time>2026-04-12T09:06:50.775Z</time></trkpt><trkpt lat="45.7146994" lon="11.1802817"><ele>970.3999999999999</ele><time>2026-04-12T09:06:51.775Z</time></trkpt><trkpt lat="45.7147852" lon="11.1802311"><ele>973.1999999999999</ele><time>2026-04-12T09:06:52.775Z</time></trkpt><trkpt lat="45.7148759" lon="11.1801898"><ele>976.0</ele><time>2026-04-12T09:06:53.775Z</time></trkpt><trkpt lat="45.714974" lon="11.1801777"><ele>976.0</ele><time>2026-04-12T09:06:54.775Z</time></trkpt><trkpt lat="45.7150743" lon="11.1801655"><ele>975.9999999999999</ele><time>2026-04-12T09:06:55.774Z</time></trkpt><trkpt lat="45.7151689" lon="11.1801358"><ele>975.9999999999999</ele><time>2026-04-12T09:06:56.775Z</time></trkpt><trkpt lat="45.71527" lon="11.180085"><ele>976.0</ele><time>2026-04-12T09:06:57.774Z</time></trkpt><trkpt lat="45.7153666" lon="11.1800116"><ele>976.0</ele><time>2026-04-12T09:06:58.774Z</time></trkpt><trkpt lat="45.7154581" lon="11.179913"><ele>981.0</ele><time>2026-04-12T09:06:59.775Z</time></trkpt><trkpt lat="45.7155391" lon="11.1797957"><ele>986.0</ele><time>2026-04-12T09:07:00.775Z</time></trkpt><trkpt lat="45.7156109" lon="11.1796631"><ele>991.0</ele><time>2026-04-12T09:07:01.774Z</time></trkpt><trkpt lat="45.7156835" lon="11.1795288"><ele>996.0</ele><time>2026-04-12T09:07:02.774Z</time></trkpt><trkpt lat="45.715757" lon="11.1793951"><ele>996.0</ele><time>2026-04-12T09:07:03.775Z</time></trkpt><trkpt lat="45.7158276" lon="11.1792552"><ele>996.0</ele><time>2026-04-12T09:07:04.775Z</time></trkpt><trkpt lat="45.7158892" lon="11.1790928"><ele>996.0</ele><time>2026-04-12T09:07:05.775Z</time></trkpt><trkpt lat="45.7159415" lon="11.1789227"><ele>996.0</ele><time>2026-04-12T09:07:06.775Z</time></trkpt><trkpt lat="45.715989" lon="11.1787566"><ele>994.5</ele><time>2026-04-12T09:07:07.775Z</time></trkpt><trkpt lat="45.7160446" lon="11.1785954"><ele>993.0</ele><time>2026-04-12T09:07:08.774Z</time></trkpt><trkpt lat="45.716089" lon="11.178433"><ele>991.5</ele><time>2026-04-12T09:07:09.775Z</time></trkpt><trkpt lat="45.7161242" lon="11.1782684"><ele>990.0</ele><time>2026-04-12T09:07:10.775Z</time></trkpt><trkpt lat="45.7161558" lon="11.1781087"><ele>993.6</ele><time>2026-04-12T09:07:11.775Z</time></trkpt><trkpt lat="45.716205" lon="11.1779688"><ele>997.2</ele><time>2026-04-12T09:07:12.774Z</time></trkpt><trkpt lat="45.7162662" lon="11.1778321"><ele>1000.8</ele><time>2026-04-12T09:07:13.775Z</time></trkpt><trkpt lat="45.7163285" lon="11.1777237"><ele>1004.4</ele><time>2026-04-12T09:07:14.775Z</time></trkpt><trkpt lat="45.7163831" lon="11.1776421"><ele>1008.0</ele><time>2026-04-12T09:07:15.775Z</time></trkpt><trkpt lat="45.7164892" lon="11.1775892"><ele>1008.0</ele><time>2026-04-12T09:07:17.774Z</time></trkpt><trkpt lat="45.7165441" lon="11.1777063"><ele>1008.0</ele><time>2026-04-12T09:07:19.775Z</time></trkpt><trkpt lat="45.7165393" lon="11.1778138"><ele>1008.0</ele><time>2026-04-12T09:07:20.774Z</time></trkpt><trkpt lat="45.7165171" lon="11.1779499"><ele>1008.0</ele><time>2026-04-12T09:07:21.775Z</time></trkpt><trkpt lat="45.7164808" lon="11.178106"><ele>1008.0</ele><time>2026-04-12T09:07:22.774Z</time></trkpt><trkpt lat="45.7164474" lon="11.1782614"><ele>1010.8</ele><time>2026-04-12T09:07:23.775Z</time></trkpt><trkpt lat="45.7164306" lon="11.1784119"><ele>1013.5999999999999</ele><time>2026-04-12T09:07:24.775Z</time></trkpt><trkpt lat="45.7164374" lon="11.1785596"><ele>1016.4000000000001</ele><time>2026-04-12T09:07:25.775Z</time></trkpt><trkpt lat="45.7164679" lon="11.1787046"><ele>1019.2</ele><time>2026-04-12T09:07:26.775Z</time></trkpt><trkpt lat="45.7165043" lon="11.1788627"><ele>1022.0</ele><time>2026-04-12T09:07:27.774Z</time></trkpt><trkpt lat="45.7165416" lon="11.1790297"><ele>1023.6</ele><time>2026-04-12T09:07:28.774Z</time></trkpt><trkpt lat="45.7165764" lon="11.1791794"><ele>1025.2</ele><time>2026-04-12T09:07:29.774Z</time></trkpt><trkpt lat="45.7165944" lon="11.1793088"><ele>1026.8</ele><time>2026-04-12T09:07:30.774Z</time></trkpt><trkpt lat="45.7165933" lon="11.1794338"><ele>1028.4</ele><time>2026-04-12T09:07:31.774Z</time></trkpt><trkpt lat="45.7165587" lon="11.1795345"><ele>1030.0</ele><time>2026-04-12T09:07:32.775Z</time></trkpt><trkpt lat="45.7164987" lon="11.1796224"><ele>1030.0</ele><time>2026-04-12T09:07:33.775Z</time></trkpt><trkpt lat="45.7164228" lon="11.1797025"><ele>1030.0</ele><time>2026-04-12T09:07:34.775Z</time></trkpt><trkpt lat="45.7163507" lon="11.1798021"><ele>1030.0</ele><time>2026-04-12T09:07:35.774Z</time></trkpt><trkpt lat="45.7162846" lon="11.1799108"><ele>1030.0</ele><time>2026-04-12T09:07:36.775Z</time></trkpt><trkpt lat="45.7162378" lon="11.1800449"><ele>1030.0</ele><time>2026-04-12T09:07:37.774Z</time></trkpt><trkpt lat="45.716203" lon="11.180203"><ele>1032.5</ele><time>2026-04-12T09:07:38.775Z</time></trkpt><trkpt lat="45.7161768" lon="11.1803681"><ele>1035.0</ele><time>2026-04-12T09:07:39.774Z</time></trkpt><trkpt lat="45.7161517" lon="11.1805342"><ele>1037.5</ele><time>2026-04-12T09:07:40.774Z</time></trkpt><trkpt lat="45.7161453" lon="11.1807028"><ele>1040.0</ele><time>2026-04-12T09:07:41.774Z</time></trkpt><trkpt lat="45.7161527" lon="11.1808583"><ele>1041.4</ele><time>2026-04-12T09:07:42.775Z</time></trkpt><trkpt lat="45.7161669" lon="11.1809892"><ele>1042.8</ele><time>2026-04-12T09:07:43.774Z</time></trkpt><trkpt lat="45.7161995" lon="11.181103"><ele>1044.2</ele><time>2026-04-12T09:07:44.774Z</time></trkpt><trkpt lat="45.7162377" lon="11.1811757"><ele>1045.6</ele><time>2026-04-12T09:07:45.774Z</time></trkpt><trkpt lat="45.7163273" lon="11.181184"><ele>1047.0</ele><time>2026-04-12T09:07:47.775Z</time></trkpt><trkpt lat="45.7163661" lon="11.181004"><ele>1047.0</ele><time>2026-04-12T09:07:49.775Z</time></trkpt><trkpt lat="45.716368" lon="11.1808811"><ele>1047.0</ele><time>2026-04-12T09:07:50.774Z</time></trkpt><trkpt lat="45.7163847" lon="11.1807444"><ele>1047.0</ele><time>2026-04-12T09:07:51.775Z</time></trkpt><trkpt lat="45.7164182" lon="11.1806026"><ele>1047.0</ele><time>2026-04-12T09:07:52.775Z</time></trkpt><trkpt lat="45.716462" lon="11.1804835"><ele>1047.0</ele><time>2026-04-12T09:07:53.774Z</time></trkpt><trkpt lat="45.7165043" lon="11.1803861"><ele>1045.8333333333333</ele><time>2026-04-12T09:07:54.775Z</time></trkpt><trkpt lat="45.7165464" lon="11.1802971"><ele>1044.6666666666667</ele><time>2026-04-12T09:07:55.775Z</time></trkpt><trkpt lat="45.7166226" lon="11.1802076"><ele>1043.5</ele><time>2026-04-12T09:07:57.775Z</time></trkpt><trkpt lat="45.716716" lon="11.1801736"><ele>1042.3333333333335</ele><time>2026-04-12T09:07:59.775Z</time></trkpt><trkpt lat="45.7167693" lon="11.1802275"><ele>1041.1666666666667</ele><time>2026-04-12T09:08:01.775Z</time></trkpt><trkpt lat="45.7167776" lon="11.1803788"><ele>1040.0</ele><time>2026-04-12T09:08:03.775Z</time></trkpt><trkpt lat="45.7167727" lon="11.1804913"><ele>1040.0</ele><time>2026-04-12T09:08:04.775Z</time></trkpt><trkpt lat="45.7167895" lon="11.1806114"><ele>1040.0</ele><time>2026-04-12T09:08:05.775Z</time></trkpt><trkpt lat="45.7168186" lon="11.1807358"><ele>1040.0</ele><time>2026-04-12T09:08:06.775Z</time></trkpt><trkpt lat="45.7168593" lon="11.1808476"><ele>1040.0</ele><time>2026-04-12T09:08:07.775Z</time></trkpt><trkpt lat="45.7169001" lon="11.1809565"><ele>1040.0</ele><time>2026-04-12T09:08:08.775Z</time></trkpt><trkpt lat="45.7169404" lon="11.1810565"><ele>1040.0</ele><time>2026-04-12T09:08:09.774Z</time></trkpt><trkpt lat="45.7169827" lon="11.1811368"><ele>1046.0</ele><time>2026-04-12T09:08:10.775Z</time></trkpt><trkpt lat="45.7170498" lon="11.1812977"><ele>1052.0</ele><time>2026-04-12T09:08:12.775Z</time></trkpt><trkpt lat="45.7170671" lon="11.1813915"><ele>1058.0</ele><time>2026-04-12T09:08:13.774Z</time></trkpt><trkpt lat="45.7170831" lon="11.1814861"><ele>1064.0</ele><time>2026-04-12T09:08:14.774Z</time></trkpt><trkpt lat="45.7171024" lon="11.181581"><ele>1070.0</ele><time>2026-04-12T09:08:15.774Z</time></trkpt><trkpt lat="45.7171165" lon="11.1816751"><ele>1076.0</ele><time>2026-04-12T09:08:16.775Z</time></trkpt><trkpt lat="45.7171327" lon="11.1818536"><ele>1076.0</ele><time>2026-04-12T09:08:18.775Z</time></trkpt><trkpt lat="45.717134" lon="11.1819541"><ele>1076.0</ele><time>2026-04-12T09:08:19.774Z</time></trkpt><trkpt lat="45.7171398" lon="11.182051"><ele>1076.0</ele><time>2026-04-12T09:08:20.775Z</time></trkpt><trkpt lat="45.7171666" lon="11.1821373"><ele>1076.0</ele><time>2026-04-12T09:08:21.774Z</time></trkpt><trkpt lat="45.7172121" lon="11.1822301"><ele>1076.0</ele><time>2026-04-12T09:08:22.774Z</time></trkpt><trkpt lat="45.7172677" lon="11.1823202"><ele>1076.0</ele><time>2026-04-12T09:08:23.775Z</time></trkpt><trkpt lat="45.7173295" lon="11.1824141"><ele>1074.3333333333335</ele><time>2026-04-12T09:08:24.773Z</time></trkpt><trkpt lat="45.7173893" lon="11.1825002"><ele>1072.6666666666667</ele><time>2026-04-12T09:08:25.774Z</time></trkpt><trkpt lat="45.7174526" lon="11.1825814"><ele>1071.0</ele><time>2026-04-12T09:08:26.773Z</time></trkpt><trkpt lat="45.7175139" lon="11.1826607"><ele>1069.3333333333333</ele><time>2026-04-12T09:08:27.774Z</time></trkpt><trkpt lat="45.7175706" lon="11.1827473"><ele>1067.6666666666665</ele><time>2026-04-12T09:08:28.773Z</time></trkpt><trkpt lat="45.7176246" lon="11.1828549"><ele>1066.0</ele><time>2026-04-12T09:08:29.773Z</time></trkpt><trkpt lat="45.7176752" lon="11.1829572"><ele>1068.8333333333333</ele><time>2026-04-12T09:08:30.774Z</time></trkpt><trkpt lat="45.7177382" lon="11.1830564"><ele>1071.6666666666665</ele><time>2026-04-12T09:08:31.774Z</time></trkpt><trkpt lat="45.7178018" lon="11.1831467"><ele>1074.5</ele><time>2026-04-12T09:08:32.773Z</time></trkpt><trkpt lat="45.7178557" lon="11.1832389"><ele>1077.3333333333333</ele><time>2026-04-12T09:08:33.773Z</time></trkpt><trkpt lat="45.7179033" lon="11.1833272"><ele>1080.1666666666667</ele><time>2026-04-12T09:08:34.774Z</time></trkpt><trkpt lat="45.7179365" lon="11.1834102"><ele>1083.0</ele><time>2026-04-12T09:08:35.773Z</time></trkpt><trkpt lat="45.7179319" lon="11.1835784"><ele>1083.0</ele><time>2026-04-12T09:08:37.774Z</time></trkpt><trkpt lat="45.7179044" lon="11.1836741"><ele>1083.0</ele><time>2026-04-12T09:08:38.774Z</time></trkpt><trkpt lat="45.7178663" lon="11.1837646"><ele>1083.0</ele><time>2026-04-12T09:08:39.774Z</time></trkpt><trkpt lat="45.7178139" lon="11.1838448"><ele>1083.0</ele><time>2026-04-12T09:08:40.774Z</time></trkpt><trkpt lat="45.7177531" lon="11.1839039"><ele>1083.0</ele><time>2026-04-12T09:08:41.774Z</time></trkpt><trkpt lat="45.7176654" lon="11.1839697"><ele>1083.0</ele><time>2026-04-12T09:08:43.774Z</time></trkpt><trkpt lat="45.7176625" lon="11.184072"><ele>1083.0</ele><time>2026-04-12T09:08:46.774Z</time></trkpt><trkpt lat="45.7177382" lon="11.18409"><ele>1083.0</ele><time>2026-04-12T09:08:48.773Z</time></trkpt><trkpt lat="45.7178131" lon="11.1840501"><ele>1083.0</ele><time>2026-04-12T09:08:50.773Z</time></trkpt><trkpt lat="45.7178725" lon="11.1839779"><ele>1083.0</ele><time>2026-04-12T09:08:52.774Z</time></trkpt><trkpt lat="45.7179344" lon="11.1839564"><ele>1083.0</ele><time>2026-04-12T09:08:54.774Z</time></trkpt><trkpt lat="45.7180203" lon="11.1839716"><ele>1083.0</ele><time>2026-04-12T09:08:56.773Z</time></trkpt><trkpt lat="45.7181001" lon="11.1839916"><ele>1083.0</ele><time>2026-04-12T09:08:58.774Z</time></trkpt><trkpt lat="45.7181749" lon="11.1840029"><ele>1083.0</ele><time>2026-04-12T09:09:00.773Z</time></trkpt><trkpt lat="45.7182514" lon="11.1840482"><ele>1083.0</ele><time>2026-04-12T09:09:02.774Z</time></trkpt><trkpt lat="45.7183364" lon="11.1841385"><ele>1083.0</ele><time>2026-04-12T09:09:04.773Z</time></trkpt><trkpt lat="45.7184267" lon="11.1842207"><ele>1083.0</ele><time>2026-04-12T09:09:06.774Z</time></trkpt><trkpt lat="45.7185116" lon="11.184291"><ele>1083.6</ele><time>2026-04-12T09:09:08.773Z</time></trkpt><trkpt lat="45.7185728" lon="11.1843672"><ele>1084.1999999999998</ele><time>2026-04-12T09:09:10.773Z</time></trkpt><trkpt lat="45.7186082" lon="11.1844771"><ele>1084.8</ele><time>2026-04-12T09:09:12.774Z</time></trkpt><trkpt lat="45.7186324" lon="11.1846263"><ele>1085.3999999999999</ele><time>2026-04-12T09:09:14.774Z</time></trkpt><trkpt lat="45.7186673" lon="11.1847812"><ele>1086.0</ele><time>2026-04-12T09:09:16.773Z</time></trkpt><trkpt lat="45.7187083" lon="11.1849004"><ele>1082.3333333333333</ele><time>2026-04-12T09:09:18.774Z</time></trkpt><trkpt lat="45.7187532" lon="11.1850137"><ele>1078.6666666666667</ele><time>2026-04-12T09:09:20.774Z</time></trkpt><trkpt lat="45.7188069" lon="11.1851088"><ele>1075.0</ele><time>2026-04-12T09:09:22.773Z</time></trkpt><trkpt lat="45.7188472" lon="11.1852016"><ele>1071.3333333333335</ele><time>2026-04-12T09:09:24.774Z</time></trkpt><trkpt lat="45.7188833" lon="11.1852961"><ele>1067.6666666666667</ele><time>2026-04-12T09:09:26.773Z</time></trkpt><trkpt lat="45.7189484" lon="11.1853746"><ele>1064.0</ele><time>2026-04-12T09:09:28.773Z</time></trkpt><trkpt lat="45.7190409" lon="11.1854865"><ele>1064.0</ele><time>2026-04-12T09:09:30.774Z</time></trkpt><trkpt lat="45.7190804" lon="11.1855656"><ele>1064.0</ele><time>2026-04-12T09:09:31.774Z</time></trkpt><trkpt lat="45.7191126" lon="11.1856552"><ele>1064.0</ele><time>2026-04-12T09:09:32.774Z</time></trkpt><trkpt lat="45.7191352" lon="11.1857481"><ele>1064.0</ele><time>2026-04-12T09:09:33.774Z</time></trkpt><trkpt lat="45.7191499" lon="11.1858373"><ele>1064.0</ele><time>2026-04-12T09:09:34.773Z</time></trkpt><trkpt lat="45.7191511" lon="11.185993"><ele>1064.0</ele><time>2026-04-12T09:09:36.773Z</time></trkpt><trkpt lat="45.7191119" lon="11.1861395"><ele>1058.6000000000001</ele><time>2026-04-12T09:09:38.773Z</time></trkpt><trkpt lat="45.7190894" lon="11.1862961"><ele>1053.2</ele><time>2026-04-12T09:09:40.773Z</time></trkpt><trkpt lat="45.7191009" lon="11.1864238"><ele>1047.8000000000002</ele><time>2026-04-12T09:09:42.774Z</time></trkpt><trkpt lat="45.7191749" lon="11.1865127"><ele>1042.4</ele><time>2026-04-12T09:09:44.774Z</time></trkpt><trkpt lat="45.7192422" lon="11.1865996"><ele>1037.0</ele><time>2026-04-12T09:09:46.774Z</time></trkpt><trkpt lat="45.7192643" lon="11.1867151"><ele>1035.6666666666667</ele><time>2026-04-12T09:09:48.774Z</time></trkpt><trkpt lat="45.7192438" lon="11.1868711"><ele>1034.3333333333335</ele><time>2026-04-12T09:09:50.773Z</time></trkpt><trkpt lat="45.7192141" lon="11.1869593"><ele>1033.0</ele><time>2026-04-12T09:09:51.774Z</time></trkpt><trkpt lat="45.7191846" lon="11.1870577"><ele>1031.6666666666667</ele><time>2026-04-12T09:09:52.774Z</time></trkpt><trkpt lat="45.7191539" lon="11.1871605"><ele>1030.3333333333333</ele><time>2026-04-12T09:09:53.773Z</time></trkpt><trkpt lat="45.7191313" lon="11.1872677"><ele>1029.0</ele><time>2026-04-12T09:09:54.774Z</time></trkpt><trkpt lat="45.7191265" lon="11.1873776"><ele>1029.0</ele><time>2026-04-12T09:09:55.774Z</time></trkpt><trkpt lat="45.719121" lon="11.1874949"><ele>1029.0</ele><time>2026-04-12T09:09:56.774Z</time></trkpt><trkpt lat="45.7191198" lon="11.1876158"><ele>1029.0</ele><time>2026-04-12T09:09:57.774Z</time></trkpt><trkpt lat="45.7191217" lon="11.1877251"><ele>1029.0</ele><time>2026-04-12T09:09:58.773Z</time></trkpt><trkpt lat="45.7191273" lon="11.1878304"><ele>1029.0</ele><time>2026-04-12T09:09:59.774Z</time></trkpt><trkpt lat="45.7191216" lon="11.1879208"><ele>1029.0</ele><time>2026-04-12T09:10:00.774Z</time></trkpt><trkpt lat="45.7191283" lon="11.1880573"><ele>1028.6666666666667</ele><time>2026-04-12T09:10:02.774Z</time></trkpt><trkpt lat="45.719158" lon="11.188191"><ele>1028.3333333333333</ele><time>2026-04-12T09:10:04.773Z</time></trkpt><trkpt lat="45.7191971" lon="11.1882912"><ele>1028.0</ele><time>2026-04-12T09:10:06.773Z</time></trkpt><trkpt lat="45.7192799" lon="11.1883839"><ele>1027.6666666666665</ele><time>2026-04-12T09:10:08.774Z</time></trkpt><trkpt lat="45.7193386" lon="11.1884398"><ele>1027.3333333333333</ele><time>2026-04-12T09:10:09.774Z</time></trkpt><trkpt lat="45.7193981" lon="11.1884982"><ele>1027.0</ele><time>2026-04-12T09:10:10.774Z</time></trkpt><trkpt lat="45.7194569" lon="11.1885596"><ele>1029.857142857143</ele><time>2026-04-12T09:10:11.773Z</time></trkpt><trkpt lat="45.7195157" lon="11.1886151"><ele>1032.7142857142858</ele><time>2026-04-12T09:10:12.774Z</time></trkpt><trkpt lat="45.7195799" lon="11.188658"><ele>1035.5714285714287</ele><time>2026-04-12T09:10:13.774Z</time></trkpt><trkpt lat="45.7196516" lon="11.1886952"><ele>1038.4285714285716</ele><time>2026-04-12T09:10:14.774Z</time></trkpt><trkpt lat="45.7197211" lon="11.1887352"><ele>1041.2857142857142</ele><time>2026-04-12T09:10:15.774Z</time></trkpt><trkpt lat="45.7197812" lon="11.1887848"><ele>1044.1428571428573</ele><time>2026-04-12T09:10:16.773Z</time></trkpt><trkpt lat="45.7198291" lon="11.1888448"><ele>1047.0</ele><time>2026-04-12T09:10:17.774Z</time></trkpt><trkpt lat="45.7199247" lon="11.1889484"><ele>1047.0</ele><time>2026-04-12T09:10:19.773Z</time></trkpt><trkpt lat="45.7200297" lon="11.1889681"><ele>1047.0</ele><time>2026-04-12T09:10:21.774Z</time></trkpt><trkpt lat="45.7201392" lon="11.1889127"><ele>1047.0</ele><time>2026-04-12T09:10:23.773Z</time></trkpt><trkpt lat="45.7201997" lon="11.1888593"><ele>1047.0</ele><time>2026-04-12T09:10:24.774Z</time></trkpt><trkpt lat="45.7202526" lon="11.1887916"><ele>1047.0</ele><time>2026-04-12T09:10:25.774Z</time></trkpt><trkpt lat="45.7203008" lon="11.1887149"><ele>1047.0</ele><time>2026-04-12T09:10:26.774Z</time></trkpt><trkpt lat="45.7203476" lon="11.1886399"><ele>1049.6666666666667</ele><time>2026-04-12T09:10:27.774Z</time></trkpt><trkpt lat="45.7203956" lon="11.188568"><ele>1052.3333333333333</ele><time>2026-04-12T09:10:28.774Z</time></trkpt><trkpt lat="45.7204525" lon="11.1885003"><ele>1055.0</ele><time>2026-04-12T09:10:29.774Z</time></trkpt><trkpt lat="45.7205095" lon="11.1884439"><ele>1057.6666666666665</ele><time>2026-04-12T09:10:30.774Z</time></trkpt><trkpt lat="45.7206149" lon="11.1884349"><ele>1060.3333333333333</ele><time>2026-04-12T09:10:32.774Z</time></trkpt><trkpt lat="45.7206998" lon="11.1884875"><ele>1063.0</ele><time>2026-04-12T09:10:34.774Z</time></trkpt><trkpt lat="45.7207581" lon="11.1886069"><ele>1063.0</ele><time>2026-04-12T09:10:36.773Z</time></trkpt><trkpt lat="45.7207866" lon="11.1887104"><ele>1063.0</ele><time>2026-04-12T09:10:37.773Z</time></trkpt><trkpt lat="45.7208262" lon="11.1888285"><ele>1063.0</ele><time>2026-04-12T09:10:38.773Z</time></trkpt><trkpt lat="45.7208778" lon="11.1889305"><ele>1063.0</ele><time>2026-04-12T09:10:39.774Z</time></trkpt><trkpt lat="45.7209354" lon="11.1890287"><ele>1063.0</ele><time>2026-04-12T09:10:40.774Z</time></trkpt><trkpt lat="45.7209968" lon="11.1891268"><ele>1063.0</ele><time>2026-04-12T09:10:41.773Z</time></trkpt><trkpt lat="45.7210543" lon="11.1892143"><ele>1060.5</ele><time>2026-04-12T09:10:42.773Z</time></trkpt><trkpt lat="45.7211127" lon="11.1892871"><ele>1058.0</ele><time>2026-04-12T09:10:43.774Z</time></trkpt><trkpt lat="45.7211725" lon="11.1893558"><ele>1055.5</ele><time>2026-04-12T09:10:44.773Z</time></trkpt><trkpt lat="45.7212351" lon="11.1894251"><ele>1053.0</ele><time>2026-04-12T09:10:45.774Z</time></trkpt><trkpt lat="45.7212918" lon="11.1894972"><ele>1050.5</ele><time>2026-04-12T09:10:46.773Z</time></trkpt><trkpt lat="45.7213519" lon="11.1895742"><ele>1048.0</ele><time>2026-04-12T09:10:47.774Z</time></trkpt><trkpt lat="45.7214198" lon="11.1896552"><ele>1048.0</ele><time>2026-04-12T09:10:48.774Z</time></trkpt><trkpt lat="45.7214899" lon="11.189739"><ele>1048.0</ele><time>2026-04-12T09:10:49.773Z</time></trkpt><trkpt lat="45.7215603" lon="11.189816"><ele>1048.0</ele><time>2026-04-12T09:10:50.774Z</time></trkpt><trkpt lat="45.7216294" lon="11.1898812"><ele>1048.0</ele><time>2026-04-12T09:10:51.773Z</time></trkpt><trkpt lat="45.7216914" lon="11.1899506"><ele>1048.0</ele><time>2026-04-12T09:10:52.774Z</time></trkpt><trkpt lat="45.7217496" lon="11.1900203"><ele>1048.0</ele><time>2026-04-12T09:10:53.773Z</time></trkpt><trkpt lat="45.721799" lon="11.1900905"><ele>1048.4285714285716</ele><time>2026-04-12T09:10:54.773Z</time></trkpt><trkpt lat="45.7218417" lon="11.1901736"><ele>1048.857142857143</ele><time>2026-04-12T09:10:55.774Z</time></trkpt><trkpt lat="45.7218815" lon="11.1902545"><ele>1049.2857142857142</ele><time>2026-04-12T09:10:56.773Z</time></trkpt><trkpt lat="45.7219249" lon="11.1903283"><ele>1049.7142857142858</ele><time>2026-04-12T09:10:57.774Z</time></trkpt><trkpt lat="45.7219695" lon="11.1904054"><ele>1050.142857142857</ele><time>2026-04-12T09:10:58.774Z</time></trkpt><trkpt lat="45.7220166" lon="11.1904808"><ele>1050.5714285714287</ele><time>2026-04-12T09:10:59.774Z</time></trkpt><trkpt lat="45.7220736" lon="11.1905474"><ele>1051.0</ele><time>2026-04-12T09:11:00.773Z</time></trkpt><trkpt lat="45.7221382" lon="11.1906104"><ele>1051.0</ele><time>2026-04-12T09:11:01.773Z</time></trkpt><trkpt lat="45.7222051" lon="11.1906678"><ele>1051.0</ele><time>2026-04-12T09:11:02.773Z</time></trkpt><trkpt lat="45.7222749" lon="11.190724"><ele>1051.0</ele><time>2026-04-12T09:11:03.774Z</time></trkpt><trkpt lat="45.7223567" lon="11.1907732"><ele>1051.0</ele><time>2026-04-12T09:11:04.773Z</time></trkpt><trkpt lat="45.7224454" lon="11.1908204"><ele>1051.0</ele><time>2026-04-12T09:11:05.773Z</time></trkpt><trkpt lat="45.7225297" lon="11.1908524"><ele>1051.0</ele><time>2026-04-12T09:11:06.774Z</time></trkpt><trkpt lat="45.7226027" lon="11.1908524"><ele>1051.6666666666665</ele><time>2026-04-12T09:11:07.774Z</time></trkpt><trkpt lat="45.7226715" lon="11.1908571"><ele>1052.3333333333333</ele><time>2026-04-12T09:11:08.774Z</time></trkpt><trkpt lat="45.7227458" lon="11.1908719"><ele>1053.0</ele><time>2026-04-12T09:11:09.774Z</time></trkpt><trkpt lat="45.7228213" lon="11.1908996"><ele>1053.6666666666667</ele><time>2026-04-12T09:11:10.774Z</time></trkpt><trkpt lat="45.7228978" lon="11.1909426"><ele>1054.3333333333335</ele><time>2026-04-12T09:11:11.774Z</time></trkpt><trkpt lat="45.7229646" lon="11.1909989"><ele>1055.0</ele><time>2026-04-12T09:11:12.774Z</time></trkpt><trkpt lat="45.7230255" lon="11.191056"><ele>1055.0</ele><time>2026-04-12T09:11:13.774Z</time></trkpt><trkpt lat="45.723085" lon="11.1911093"><ele>1055.0</ele><time>2026-04-12T09:11:14.774Z</time></trkpt><trkpt lat="45.7231411" lon="11.1911613"><ele>1055.0</ele><time>2026-04-12T09:11:15.773Z</time></trkpt><trkpt lat="45.7232084" lon="11.1912096"><ele>1055.0</ele><time>2026-04-12T09:11:16.774Z</time></trkpt><trkpt lat="45.7232766" lon="11.1912621"><ele>1055.0</ele><time>2026-04-12T09:11:17.774Z</time></trkpt><trkpt lat="45.7233347" lon="11.1913236"><ele>1055.0</ele><time>2026-04-12T09:11:18.773Z</time></trkpt><trkpt lat="45.7233911" lon="11.1914689"><ele>1052.1666666666667</ele><time>2026-04-12T09:11:20.773Z</time></trkpt><trkpt lat="45.7233918" lon="11.1915663"><ele>1049.3333333333335</ele><time>2026-04-12T09:11:21.774Z</time></trkpt><trkpt lat="45.7233864" lon="11.191682"><ele>1046.5</ele><time>2026-04-12T09:11:22.773Z</time></trkpt><trkpt lat="45.7233704" lon="11.1918079"><ele>1043.6666666666667</ele><time>2026-04-12T09:11:23.774Z</time></trkpt><trkpt lat="45.7233553" lon="11.1919204"><ele>1040.8333333333333</ele><time>2026-04-12T09:11:24.774Z</time></trkpt><trkpt lat="45.7233397" lon="11.1920257"><ele>1038.0</ele><time>2026-04-12T09:11:25.773Z</time></trkpt><trkpt lat="45.7233156" lon="11.1921157"><ele>1038.0</ele><time>2026-04-12T09:11:26.774Z</time></trkpt><trkpt lat="45.7232777" lon="11.1922831"><ele>1038.0</ele><time>2026-04-12T09:11:28.774Z</time></trkpt><trkpt lat="45.7232527" lon="11.19245"><ele>1038.0</ele><time>2026-04-12T09:11:30.773Z</time></trkpt><trkpt lat="45.7232701" lon="11.1926107"><ele>1038.0</ele><time>2026-04-12T09:11:32.774Z</time></trkpt><trkpt lat="45.7233145" lon="11.1927691"><ele>1036.0</ele><time>2026-04-12T09:11:34.773Z</time></trkpt><trkpt lat="45.7233598" lon="11.1929086"><ele>1034.0</ele><time>2026-04-12T09:11:36.774Z</time></trkpt><trkpt lat="45.7234275" lon="11.1930347"><ele>1032.0</ele><time>2026-04-12T09:11:38.773Z</time></trkpt><trkpt lat="45.7234765" lon="11.1931973"><ele>1030.0</ele><time>2026-04-12T09:11:40.773Z</time></trkpt><trkpt lat="45.7234989" lon="11.1932976"><ele>1028.0</ele><time>2026-04-12T09:11:41.774Z</time></trkpt><trkpt lat="45.7235267" lon="11.1934024"><ele>1027.4</ele><time>2026-04-12T09:11:42.774Z</time></trkpt><trkpt lat="45.7235576" lon="11.1935021"><ele>1026.8</ele><time>2026-04-12T09:11:43.774Z</time></trkpt><trkpt lat="45.723582" lon="11.1935885"><ele>1026.2</ele><time>2026-04-12T09:11:44.774Z</time></trkpt><trkpt lat="45.7235879" lon="11.1937515"><ele>1025.6</ele><time>2026-04-12T09:11:46.773Z</time></trkpt><trkpt lat="45.7235695" lon="11.1938847"><ele>1025.0</ele><time>2026-04-12T09:11:48.774Z</time></trkpt><trkpt lat="45.7235922" lon="11.1940405"><ele>1025.0</ele><time>2026-04-12T09:11:50.774Z</time></trkpt><trkpt lat="45.7236102" lon="11.194132"><ele>1025.0</ele><time>2026-04-12T09:11:51.773Z</time></trkpt><trkpt lat="45.723615" lon="11.1942301"><ele>1025.0</ele><time>2026-04-12T09:11:52.773Z</time></trkpt><trkpt lat="45.7236195" lon="11.1943246"><ele>1025.0</ele><time>2026-04-12T09:11:53.773Z</time></trkpt><trkpt lat="45.723646" lon="11.1944818"><ele>1025.0</ele><time>2026-04-12T09:11:55.773Z</time></trkpt><trkpt lat="45.7237029" lon="11.1945548"><ele>1025.0</ele><time>2026-04-12T09:11:57.774Z</time></trkpt><trkpt lat="45.7237688" lon="11.1945658"><ele>1025.0</ele><time>2026-04-12T09:11:59.774Z</time></trkpt><trkpt lat="45.7238573" lon="11.1945755"><ele>1025.0</ele><time>2026-04-12T09:12:46.773Z</time></trkpt><trkpt lat="45.7239388" lon="11.1945415"><ele>1025.0</ele><time>2026-04-12T09:12:48.773Z</time></trkpt><trkpt lat="45.7240204" lon="11.1944505"><ele>1025.0</ele><time>2026-04-12T09:12:50.774Z</time></trkpt><trkpt lat="45.7240742" lon="11.194396"><ele>1025.0</ele><time>2026-04-12T09:12:51.773Z</time></trkpt><trkpt lat="45.7241328" lon="11.1943436"><ele>1025.0</ele><time>2026-04-12T09:12:52.773Z</time></trkpt><trkpt lat="45.7241889" lon="11.1943018"><ele>1025.0</ele><time>2026-04-12T09:12:53.774Z</time></trkpt><trkpt lat="45.7243059" lon="11.1942546"><ele>1025.0</ele><time>2026-04-12T09:12:55.774Z</time></trkpt><trkpt lat="45.7244286" lon="11.194257"><ele>1025.0</ele><time>2026-04-12T09:12:57.774Z</time></trkpt><trkpt lat="45.7244936" lon="11.1942583"><ele>1025.0</ele><time>2026-04-12T09:12:58.773Z</time></trkpt><trkpt lat="45.7246147" lon="11.1942345"><ele>1025.0</ele><time>2026-04-12T09:13:00.774Z</time></trkpt><trkpt lat="45.7246833" lon="11.1942166"><ele>1026.1666666666667</ele><time>2026-04-12T09:13:01.774Z</time></trkpt><trkpt lat="45.7248059" lon="11.1941922"><ele>1027.3333333333335</ele><time>2026-04-12T09:13:03.773Z</time></trkpt><trkpt lat="45.7248702" lon="11.1941979"><ele>1028.5</ele><time>2026-04-12T09:13:04.774Z</time></trkpt><trkpt lat="45.7249339" lon="11.1942086"><ele>1029.6666666666667</ele><time>2026-04-12T09:13:05.774Z</time></trkpt><trkpt lat="45.7250077" lon="11.1942092"><ele>1030.8333333333333</ele><time>2026-04-12T09:13:06.773Z</time></trkpt><trkpt lat="45.7250922" lon="11.1942082"><ele>1032.0</ele><time>2026-04-12T09:13:07.774Z</time></trkpt><trkpt lat="45.7251863" lon="11.1941997"><ele>1033.0</ele><time>2026-04-12T09:13:08.773Z</time></trkpt><trkpt lat="45.7252763" lon="11.1941912"><ele>1034.0</ele><time>2026-04-12T09:13:09.773Z</time></trkpt><trkpt lat="45.7253607" lon="11.1941791"><ele>1035.0</ele><time>2026-04-12T09:13:10.774Z</time></trkpt><trkpt lat="45.7254456" lon="11.1941758"><ele>1036.0</ele><time>2026-04-12T09:13:11.773Z</time></trkpt><trkpt lat="45.7255314" lon="11.1941726"><ele>1037.0</ele><time>2026-04-12T09:13:12.774Z</time></trkpt><trkpt lat="45.7256173" lon="11.194179"><ele>1038.0</ele><time>2026-04-12T09:13:13.774Z</time></trkpt><trkpt lat="45.7256966" lon="11.1941856"><ele>1038.0</ele><time>2026-04-12T09:13:14.774Z</time></trkpt><trkpt lat="45.7257704" lon="11.1941836"><ele>1038.0</ele><time>2026-04-12T09:13:15.773Z</time></trkpt><trkpt lat="45.7258698" lon="11.1941405"><ele>1038.0</ele><time>2026-04-12T09:13:17.774Z</time></trkpt><trkpt lat="45.7259286" lon="11.194052"><ele>1038.0</ele><time>2026-04-12T09:13:19.774Z</time></trkpt><trkpt lat="45.7259425" lon="11.1939609"><ele>1038.0</ele><time>2026-04-12T09:13:21.772Z</time></trkpt><trkpt lat="45.7259391" lon="11.1940663"><ele>1038.0</ele><time>2026-04-12T09:14:18.772Z</time></trkpt><trkpt lat="45.7258625" lon="11.1941032"><ele>1038.0</ele><time>2026-04-12T09:14:21.773Z</time></trkpt><trkpt lat="45.725791" lon="11.1941111"><ele>1038.0</ele><time>2026-04-12T09:14:23.773Z</time></trkpt><trkpt lat="45.725715" lon="11.1941061"><ele>1038.0</ele><time>2026-04-12T09:14:25.773Z</time></trkpt><trkpt lat="45.7256387" lon="11.1940997"><ele>1038.0</ele><time>2026-04-12T09:14:28.772Z</time></trkpt><trkpt lat="45.7255736" lon="11.1941044"><ele>1038.0</ele><time>2026-04-12T09:14:32.772Z</time></trkpt><trkpt lat="45.7254934" lon="11.1941306"><ele>1038.0</ele><time>2026-04-12T09:14:46.773Z</time></trkpt><trkpt lat="45.7255685" lon="11.194208"><ele>1038.0</ele><time>2026-04-12T09:15:15.773Z</time></trkpt><trkpt lat="45.7256694" lon="11.1942825"><ele>1038.0</ele><time>2026-04-12T09:15:17.773Z</time></trkpt><trkpt lat="45.7257646" lon="11.1943554"><ele>1038.0</ele><time>2026-04-12T09:15:19.772Z</time></trkpt><trkpt lat="45.725843" lon="11.1943745"><ele>1038.0</ele><time>2026-04-12T09:15:21.773Z</time></trkpt><trkpt lat="45.7259213" lon="11.1943464"><ele>1038.0</ele><time>2026-04-12T09:15:23.773Z</time></trkpt><trkpt lat="45.7259969" lon="11.1942575"><ele>1037.8</ele><time>2026-04-12T09:15:25.773Z</time></trkpt><trkpt lat="45.7260906" lon="11.1941643"><ele>1037.6</ele><time>2026-04-12T09:15:27.772Z</time></trkpt><trkpt lat="45.7261643" lon="11.1940665"><ele>1037.4</ele><time>2026-04-12T09:15:29.772Z</time></trkpt><trkpt lat="45.7262369" lon="11.1939359"><ele>1037.2</ele><time>2026-04-12T09:15:31.773Z</time></trkpt><trkpt lat="45.7262801" lon="11.1938556"><ele>1037.0</ele><time>2026-04-12T09:15:32.772Z</time></trkpt><trkpt lat="45.7263279" lon="11.193777"><ele>1037.0</ele><time>2026-04-12T09:15:33.772Z</time></trkpt><trkpt lat="45.7263837" lon="11.1936918"><ele>1037.0</ele><time>2026-04-12T09:15:34.773Z</time></trkpt><trkpt lat="45.7264429" lon="11.1935953"><ele>1037.0</ele><time>2026-04-12T09:15:35.773Z</time></trkpt><trkpt lat="45.7265084" lon="11.1935003"><ele>1037.0</ele><time>2026-04-12T09:15:36.773Z</time></trkpt><trkpt lat="45.7265691" lon="11.1934102"><ele>1037.0</ele><time>2026-04-12T09:15:37.772Z</time></trkpt><trkpt lat="45.7266296" lon="11.1933271"><ele>1037.0</ele><time>2026-04-12T09:15:38.773Z</time></trkpt><trkpt lat="45.7266839" lon="11.1932571"><ele>1037.0</ele><time>2026-04-12T09:15:39.773Z</time></trkpt><trkpt lat="45.7267399" lon="11.1931923"><ele>1037.0</ele><time>2026-04-12T09:15:40.773Z</time></trkpt><trkpt lat="45.726794" lon="11.1931258"><ele>1037.0</ele><time>2026-04-12T09:15:41.772Z</time></trkpt><trkpt lat="45.7268527" lon="11.1930709"><ele>1037.0</ele><time>2026-04-12T09:15:42.772Z</time></trkpt><trkpt lat="45.7269164" lon="11.1930141"><ele>1037.0</ele><time>2026-04-12T09:15:43.772Z</time></trkpt><trkpt lat="45.7269777" lon="11.1929584"><ele>1037.0</ele><time>2026-04-12T09:15:44.773Z</time></trkpt><trkpt lat="45.7270891" lon="11.1928831"><ele>1039.6666666666667</ele><time>2026-04-12T09:15:46.772Z</time></trkpt><trkpt lat="45.7271515" lon="11.1928615"><ele>1042.3333333333335</ele><time>2026-04-12T09:15:47.773Z</time></trkpt><trkpt lat="45.7272164" lon="11.1928445"><ele>1045.0</ele><time>2026-04-12T09:15:48.773Z</time></trkpt><trkpt lat="45.7273224" lon="11.1928184"><ele>1047.6666666666667</ele><time>2026-04-12T09:15:50.772Z</time></trkpt><trkpt lat="45.7273982" lon="11.1927528"><ele>1050.3333333333333</ele><time>2026-04-12T09:15:52.772Z</time></trkpt><trkpt lat="45.7274926" lon="11.1926561"><ele>1053.0</ele><time>2026-04-12T09:15:54.772Z</time></trkpt><trkpt lat="45.7275893" lon="11.1925611"><ele>1053.0</ele><time>2026-04-12T09:15:56.772Z</time></trkpt><trkpt lat="45.7276828" lon="11.192454"><ele>1053.0</ele><time>2026-04-12T09:15:58.772Z</time></trkpt><trkpt lat="45.7277282" lon="11.1923769"><ele>1053.0</ele><time>2026-04-12T09:15:59.772Z</time></trkpt><trkpt lat="45.727785" lon="11.1922364"><ele>1053.0</ele><time>2026-04-12T09:16:01.773Z</time></trkpt><trkpt lat="45.7278332" lon="11.1920983"><ele>1053.0</ele><time>2026-04-12T09:16:03.773Z</time></trkpt><trkpt lat="45.7279102" lon="11.1920339"><ele>1054.5</ele><time>2026-04-12T09:16:05.773Z</time></trkpt><trkpt lat="45.7279935" lon="11.1920551"><ele>1056.0</ele><time>2026-04-12T09:16:07.772Z</time></trkpt><trkpt lat="45.7280737" lon="11.1921382"><ele>1057.5</ele><time>2026-04-12T09:16:10.772Z</time></trkpt><trkpt lat="45.7281383" lon="11.1922281"><ele>1059.0</ele><time>2026-04-12T09:16:12.773Z</time></trkpt><trkpt lat="45.7281863" lon="11.1922917"><ele>1060.5</ele><time>2026-04-12T09:16:13.773Z</time></trkpt><trkpt lat="45.7282447" lon="11.1923599"><ele>1062.0</ele><time>2026-04-12T09:16:14.773Z</time></trkpt><trkpt lat="45.7283068" lon="11.1924295"><ele>1062.0</ele><time>2026-04-12T09:16:15.773Z</time></trkpt><trkpt lat="45.7283662" lon="11.1925013"><ele>1062.0</ele><time>2026-04-12T09:16:16.772Z</time></trkpt><trkpt lat="45.7284295" lon="11.1925635"><ele>1062.0</ele><time>2026-04-12T09:16:17.773Z</time></trkpt><trkpt lat="45.7284897" lon="11.192624"><ele>1062.0</ele><time>2026-04-12T09:16:18.773Z</time></trkpt><trkpt lat="45.7285416" lon="11.1926874"><ele>1062.0</ele><time>2026-04-12T09:16:19.773Z</time></trkpt><trkpt lat="45.7286043" lon="11.1928024"><ele>1062.0</ele><time>2026-04-12T09:16:21.773Z</time></trkpt><trkpt lat="45.7286332" lon="11.1928969"><ele>1062.2857142857142</ele><time>2026-04-12T09:16:23.773Z</time></trkpt><trkpt lat="45.7286316" lon="11.1929986"><ele>1062.5714285714287</ele><time>2026-04-12T09:17:01.772Z</time></trkpt><trkpt lat="45.7286042" lon="11.1931131"><ele>1062.857142857143</ele><time>2026-04-12T09:17:04.773Z</time></trkpt><trkpt lat="45.7285956" lon="11.1932053"><ele>1063.142857142857</ele><time>2026-04-12T09:17:06.773Z</time></trkpt><trkpt lat="45.7286007" lon="11.1933196"><ele>1063.4285714285716</ele><time>2026-04-12T09:17:08.773Z</time></trkpt><trkpt lat="45.728607" lon="11.1934144"><ele>1063.7142857142858</ele><time>2026-04-12T09:17:10.772Z</time></trkpt><trkpt lat="45.7286312" lon="11.19352"><ele>1064.0</ele><time>2026-04-12T09:17:13.773Z</time></trkpt><trkpt lat="45.7286749" lon="11.1935852"><ele>1062.4</ele><time>2026-04-12T09:17:15.772Z</time></trkpt><trkpt lat="45.7287258" lon="11.1936854"><ele>1060.8000000000002</ele><time>2026-04-12T09:17:17.773Z</time></trkpt><trkpt lat="45.7287813" lon="11.1938229"><ele>1059.1999999999998</ele><time>2026-04-12T09:17:19.773Z</time></trkpt><trkpt lat="45.7288438" lon="11.193959"><ele>1057.6</ele><time>2026-04-12T09:17:21.772Z</time></trkpt><trkpt lat="45.7289013" lon="11.194061"><ele>1056.0</ele><time>2026-04-12T09:17:23.772Z</time></trkpt><trkpt lat="45.7289308" lon="11.1941659"><ele>1052.3999999999999</ele><time>2026-04-12T09:17:25.773Z</time></trkpt><trkpt lat="45.7289397" lon="11.1942994"><ele>1048.8</ele><time>2026-04-12T09:17:27.772Z</time></trkpt><trkpt lat="45.7289536" lon="11.1944582"><ele>1045.1999999999998</ele><time>2026-04-12T09:17:29.773Z</time></trkpt><trkpt lat="45.7289756" lon="11.1946099"><ele>1041.6</ele><time>2026-04-12T09:17:31.773Z</time></trkpt><trkpt lat="45.7289897" lon="11.1947288"><ele>1038.0</ele><time>2026-04-12T09:17:33.772Z</time></trkpt><trkpt lat="45.7290016" lon="11.1948199"><ele>1036.0</ele><time>2026-04-12T09:17:35.773Z</time></trkpt><trkpt lat="45.7290341" lon="11.1949483"><ele>1034.0</ele><time>2026-04-12T09:17:38.772Z</time></trkpt><trkpt lat="45.7290753" lon="11.1950364"><ele>1032.0</ele><time>2026-04-12T09:17:41.772Z</time></trkpt><trkpt lat="45.7291342" lon="11.1950799"><ele>1030.0</ele><time>2026-04-12T09:18:00.772Z</time></trkpt><trkpt lat="45.7291904" lon="11.1951323"><ele>1028.0</ele><time>2026-04-12T09:18:03.771Z</time></trkpt><trkpt lat="45.7292485" lon="11.1952057"><ele>1026.0</ele><time>2026-04-12T09:18:07.772Z</time></trkpt><trkpt lat="45.7292739" lon="11.1953026"><ele>1026.0</ele><time>2026-04-12T09:18:12.771Z</time></trkpt><trkpt lat="45.7292802" lon="11.1953974"><ele>1026.0</ele><time>2026-04-12T09:18:15.771Z</time></trkpt><trkpt lat="45.7293202" lon="11.1954783"><ele>1026.0</ele><time>2026-04-12T09:18:18.772Z</time></trkpt><trkpt lat="45.7293275" lon="11.1956049"><ele>1026.0</ele><time>2026-04-12T09:18:22.772Z</time></trkpt><trkpt lat="45.7293282" lon="11.1957157"><ele>1026.0</ele><time>2026-04-12T09:18:25.772Z</time></trkpt><trkpt lat="45.7293119" lon="11.1958373"><ele>1026.0</ele><time>2026-04-12T09:18:28.772Z</time></trkpt><trkpt lat="45.7293023" lon="11.1959733"><ele>1025.0000000000002</ele><time>2026-04-12T09:18:31.771Z</time></trkpt><trkpt lat="45.7293117" lon="11.1960724"><ele>1024.0</ele><time>2026-04-12T09:18:33.771Z</time></trkpt><trkpt lat="45.7293191" lon="11.1961653"><ele>1023.0000000000001</ele><time>2026-04-12T09:18:35.772Z</time></trkpt><trkpt lat="45.7293212" lon="11.1962623"><ele>1022.0000000000001</ele><time>2026-04-12T09:18:37.772Z</time></trkpt><trkpt lat="45.729326" lon="11.1963602"><ele>1021.0</ele><time>2026-04-12T09:18:39.772Z</time></trkpt><trkpt lat="45.7293823" lon="11.1964462"><ele>1020.0000000000001</ele><time>2026-04-12T09:18:42.771Z</time></trkpt><trkpt lat="45.7294393" lon="11.1965405"><ele>1019.0000000000001</ele><time>2026-04-12T09:18:45.771Z</time></trkpt><trkpt lat="45.729489" lon="11.1966203"><ele>1012.6666666666667</ele><time>2026-04-12T09:18:47.772Z</time></trkpt><trkpt lat="45.7295416" lon="11.1966818"><ele>1006.3333333333334</ele><time>2026-04-12T09:18:49.771Z</time></trkpt><trkpt lat="45.729595" lon="11.1967375"><ele>1000.0</ele><time>2026-04-12T09:18:51.771Z</time></trkpt><trkpt lat="45.7296697" lon="11.1969063"><ele>993.6666666666667</ele><time>2026-04-12T09:19:02.772Z</time></trkpt><trkpt lat="45.7297166" lon="11.1969789"><ele>987.3333333333334</ele><time>2026-04-12T09:19:04.772Z</time></trkpt><trkpt lat="45.7297755" lon="11.1970482"><ele>981.0</ele><time>2026-04-12T09:19:06.771Z</time></trkpt><trkpt lat="45.7298201" lon="11.1971181"><ele>981.0</ele><time>2026-04-12T09:19:08.772Z</time></trkpt><trkpt lat="45.7298628" lon="11.1972065"><ele>981.0</ele><time>2026-04-12T09:19:10.772Z</time></trkpt><trkpt lat="45.7299086" lon="11.1973244"><ele>981.0</ele><time>2026-04-12T09:19:12.772Z</time></trkpt><trkpt lat="45.7299759" lon="11.1974362"><ele>981.0</ele><time>2026-04-12T09:19:14.772Z</time></trkpt><trkpt lat="45.730032" lon="11.1975284"><ele>981.0</ele><time>2026-04-12T09:19:16.771Z</time></trkpt><trkpt lat="45.7300777" lon="11.1976208"><ele>981.0</ele><time>2026-04-12T09:19:18.772Z</time></trkpt><trkpt lat="45.7300931" lon="11.197721"><ele>980.5</ele><time>2026-04-12T09:19:20.772Z</time></trkpt><trkpt lat="45.7301213" lon="11.1978477"><ele>980.0</ele><time>2026-04-12T09:19:22.772Z</time></trkpt><trkpt lat="45.7301507" lon="11.1979592"><ele>979.5</ele><time>2026-04-12T09:19:24.771Z</time></trkpt><trkpt lat="45.7301838" lon="11.1980376"><ele>979.0</ele><time>2026-04-12T09:19:26.771Z</time></trkpt><trkpt lat="45.7302346" lon="11.198114"><ele>978.5</ele><time>2026-04-12T09:20:49.772Z</time></trkpt><trkpt lat="45.730286" lon="11.198255"><ele>978.0</ele><time>2026-04-12T09:20:51.771Z</time></trkpt><trkpt lat="45.7303477" lon="11.1984119"><ele>971.5999999999999</ele><time>2026-04-12T09:20:53.772Z</time></trkpt><trkpt lat="45.7303829" lon="11.1985036"><ele>965.1999999999999</ele><time>2026-04-12T09:20:54.772Z</time></trkpt><trkpt lat="45.7304085" lon="11.1985894"><ele>958.8</ele><time>2026-04-12T09:20:55.772Z</time></trkpt><trkpt lat="45.7304654" lon="11.1987447"><ele>952.4</ele><time>2026-04-12T09:20:57.772Z</time></trkpt><trkpt lat="45.730539" lon="11.1988778"><ele>946.0</ele><time>2026-04-12T09:20:59.771Z</time></trkpt><trkpt lat="45.7306085" lon="11.1990116"><ele>946.0</ele><time>2026-04-12T09:21:01.771Z</time></trkpt><trkpt lat="45.730662" lon="11.1991443"><ele>945.9999999999999</ele><time>2026-04-12T09:21:03.771Z</time></trkpt><trkpt lat="45.7307077" lon="11.1992578"><ele>945.9999999999999</ele><time>2026-04-12T09:21:05.771Z</time></trkpt><trkpt lat="45.7307962" lon="11.1993612"><ele>946.0</ele><time>2026-04-12T09:21:07.772Z</time></trkpt><trkpt lat="45.7308801" lon="11.1994654"><ele>946.0</ele><time>2026-04-12T09:21:09.771Z</time></trkpt><trkpt lat="45.7309478" lon="11.1995854"><ele>946.0</ele><time>2026-04-12T09:21:11.771Z</time></trkpt><trkpt lat="45.7309905" lon="11.1997368"><ele>946.0</ele><time>2026-04-12T09:21:13.772Z</time></trkpt><trkpt lat="45.7310153" lon="11.1998979"><ele>946.0</ele><time>2026-04-12T09:21:15.772Z</time></trkpt><trkpt lat="45.7310323" lon="11.2000572"><ele>946.0</ele><time>2026-04-12T09:21:17.771Z</time></trkpt><trkpt lat="45.731051" lon="11.2002289"><ele>940.5999999999999</ele><time>2026-04-12T09:21:19.771Z</time></trkpt><trkpt lat="45.7310781" lon="11.2003775"><ele>935.1999999999999</ele><time>2026-04-12T09:21:21.772Z</time></trkpt><trkpt lat="45.731125" lon="11.2005103"><ele>929.8000000000001</ele><time>2026-04-12T09:21:23.771Z</time></trkpt><trkpt lat="45.7312121" lon="11.2005956"><ele>924.4000000000001</ele><time>2026-04-12T09:21:25.772Z</time></trkpt><trkpt lat="45.731286" lon="11.2006646"><ele>919.0</ele><time>2026-04-12T09:21:27.772Z</time></trkpt><trkpt lat="45.7313121" lon="11.2007539"><ele>919.0</ele><time>2026-04-12T09:21:29.771Z</time></trkpt><trkpt lat="45.7312656" lon="11.2008428"><ele>919.0000000000001</ele><time>2026-04-12T09:21:31.772Z</time></trkpt><trkpt lat="45.731167" lon="11.200923"><ele>919.0000000000001</ele><time>2026-04-12T09:21:33.772Z</time></trkpt><trkpt lat="45.7311082" lon="11.20096"><ele>919.0</ele><time>2026-04-12T09:21:34.772Z</time></trkpt><trkpt lat="45.731003" lon="11.2010516"><ele>919.0</ele><time>2026-04-12T09:21:36.771Z</time></trkpt><trkpt lat="45.7309063" lon="11.2011431"><ele>920.1666666666666</ele><time>2026-04-12T09:21:38.772Z</time></trkpt><trkpt lat="45.7308397" lon="11.2011987"><ele>921.3333333333333</ele><time>2026-04-12T09:21:40.771Z</time></trkpt><trkpt lat="45.7308096" lon="11.2012898"><ele>922.5</ele><time>2026-04-12T09:21:42.772Z</time></trkpt><trkpt lat="45.7308328" lon="11.2013854"><ele>923.6666666666667</ele><time>2026-04-12T09:21:44.772Z</time></trkpt><trkpt lat="45.7309182" lon="11.201466"><ele>924.8333333333334</ele><time>2026-04-12T09:21:46.771Z</time></trkpt><trkpt lat="45.7310197" lon="11.2015318"><ele>926.0</ele><time>2026-04-12T09:21:48.772Z</time></trkpt><trkpt lat="45.7311157" lon="11.201588"><ele>924.8333333333334</ele><time>2026-04-12T09:21:50.772Z</time></trkpt><trkpt lat="45.7312128" lon="11.2016144"><ele>923.6666666666667</ele><time>2026-04-12T09:21:52.771Z</time></trkpt><trkpt lat="45.731316" lon="11.2015897"><ele>922.5</ele><time>2026-04-12T09:21:54.772Z</time></trkpt><trkpt lat="45.7313729" lon="11.201548"><ele>921.3333333333333</ele><time>2026-04-12T09:21:55.772Z</time></trkpt><trkpt lat="45.731432" lon="11.2014797"><ele>920.1666666666666</ele><time>2026-04-12T09:21:56.772Z</time></trkpt><trkpt lat="45.731486" lon="11.2014063"><ele>919.0</ele><time>2026-04-12T09:21:57.771Z</time></trkpt><trkpt lat="45.731564" lon="11.201296"><ele>918.9999999999999</ele><time>2026-04-12T09:21:59.771Z</time></trkpt><trkpt lat="45.7316425" lon="11.2012042"><ele>919.0</ele><time>2026-04-12T09:23:14.771Z</time></trkpt><trkpt lat="45.7317085" lon="11.2011818"><ele>919.0</ele><time>2026-04-12T09:23:16.771Z</time></trkpt><trkpt lat="45.731775" lon="11.2012185"><ele>919.0</ele><time>2026-04-12T09:23:18.77Z</time></trkpt><trkpt lat="45.7318237" lon="11.2013257"><ele>918.9999999999999</ele><time>2026-04-12T09:23:21.77Z</time></trkpt><trkpt lat="45.7318628" lon="11.2014398"><ele>919.0</ele><time>2026-04-12T09:23:24.77Z</time></trkpt><trkpt lat="45.7319182" lon="11.2015018"><ele>917.9999999999999</ele><time>2026-04-12T09:23:26.77Z</time></trkpt><trkpt lat="45.7320029" lon="11.20151"><ele>917.0</ele><time>2026-04-12T09:23:29.77Z</time></trkpt><trkpt lat="45.7320703" lon="11.2015123"><ele>916.0</ele><time>2026-04-12T09:23:31.771Z</time></trkpt><trkpt lat="45.7321445" lon="11.2015213"><ele>915.0</ele><time>2026-04-12T09:23:33.771Z</time></trkpt><trkpt lat="45.7322116" lon="11.201501"><ele>913.9999999999999</ele><time>2026-04-12T09:23:35.77Z</time></trkpt><trkpt lat="45.732257" lon="11.2013885"><ele>913.0</ele><time>2026-04-12T09:23:38.77Z</time></trkpt><trkpt lat="45.7322599" lon="11.2012563"><ele>909.8333333333333</ele><time>2026-04-12T09:23:40.771Z</time></trkpt><trkpt lat="45.7322533" lon="11.2011255"><ele>906.6666666666666</ele><time>2026-04-12T09:23:42.77Z</time></trkpt><trkpt lat="45.7322265" lon="11.2010104"><ele>903.5</ele><time>2026-04-12T09:23:44.77Z</time></trkpt><trkpt lat="45.7321629" lon="11.2008622"><ele>900.3333333333333</ele><time>2026-04-12T09:23:46.77Z</time></trkpt><trkpt lat="45.7321287" lon="11.2007829"><ele>897.1666666666666</ele><time>2026-04-12T09:23:47.771Z</time></trkpt><trkpt lat="45.7320941" lon="11.2006933"><ele>894.0</ele><time>2026-04-12T09:23:48.77Z</time></trkpt><trkpt lat="45.7320671" lon="11.2005995"><ele>890.8571428571428</ele><time>2026-04-12T09:23:49.771Z</time></trkpt><trkpt lat="45.7320439" lon="11.2005001"><ele>887.7142857142857</ele><time>2026-04-12T09:23:50.771Z</time></trkpt><trkpt lat="45.7320222" lon="11.2004065"><ele>884.5714285714286</ele><time>2026-04-12T09:23:51.77Z</time></trkpt><trkpt lat="45.7319957" lon="11.2003082"><ele>881.4285714285713</ele><time>2026-04-12T09:23:52.77Z</time></trkpt><trkpt lat="45.7319688" lon="11.2002142"><ele>878.2857142857143</ele><time>2026-04-12T09:23:53.771Z</time></trkpt><trkpt lat="45.7319383" lon="11.2001245"><ele>875.1428571428571</ele><time>2026-04-12T09:23:54.77Z</time></trkpt><trkpt lat="45.7319123" lon="11.2000368"><ele>872.0</ele><time>2026-04-12T09:23:55.77Z</time></trkpt><trkpt lat="45.7318911" lon="11.1999329"><ele>877.1666666666667</ele><time>2026-04-12T09:23:56.771Z</time></trkpt><trkpt lat="45.7318799" lon="11.1998182"><ele>882.3333333333334</ele><time>2026-04-12T09:23:57.771Z</time></trkpt><trkpt lat="45.7318729" lon="11.199701"><ele>887.5</ele><time>2026-04-12T09:23:58.77Z</time></trkpt><trkpt lat="45.7318666" lon="11.1995836"><ele>892.6666666666667</ele><time>2026-04-12T09:23:59.77Z</time></trkpt><trkpt lat="45.731856" lon="11.1994738"><ele>897.8333333333334</ele><time>2026-04-12T09:24:00.77Z</time></trkpt><trkpt lat="45.7318341" lon="11.1993649"><ele>903.0</ele><time>2026-04-12T09:24:01.77Z</time></trkpt><trkpt lat="45.7318019" lon="11.1992544"><ele>903.0</ele><time>2026-04-12T09:24:02.77Z</time></trkpt><trkpt lat="45.7317596" lon="11.1991363"><ele>903.0</ele><time>2026-04-12T09:24:03.77Z</time></trkpt><trkpt lat="45.7317123" lon="11.1990243"><ele>903.0</ele><time>2026-04-12T09:24:04.77Z</time></trkpt><trkpt lat="45.7316746" lon="11.1989165"><ele>903.0</ele><time>2026-04-12T09:24:05.771Z</time></trkpt><trkpt lat="45.7316503" lon="11.1988036"><ele>903.0</ele><time>2026-04-12T09:24:06.77Z</time></trkpt><trkpt lat="45.7316259" lon="11.1986848"><ele>903.0</ele><time>2026-04-12T09:24:07.771Z</time></trkpt><trkpt lat="45.7316013" lon="11.1985637"><ele>902.0</ele><time>2026-04-12T09:24:08.771Z</time></trkpt><trkpt lat="45.7315776" lon="11.1984535"><ele>901.0</ele><time>2026-04-12T09:24:09.77Z</time></trkpt><trkpt lat="45.7315543" lon="11.1983601"><ele>900.0</ele><time>2026-04-12T09:24:10.771Z</time></trkpt><trkpt lat="45.7315259" lon="11.1982726"><ele>899.0</ele><time>2026-04-12T09:24:11.77Z</time></trkpt><trkpt lat="45.7315034" lon="11.1981868"><ele>898.0</ele><time>2026-04-12T09:24:12.771Z</time></trkpt><trkpt lat="45.7314999" lon="11.1980865"><ele>897.0</ele><time>2026-04-12T09:24:13.771Z</time></trkpt><trkpt lat="45.7314967" lon="11.1979868"><ele>896.0</ele><time>2026-04-12T09:24:14.77Z</time></trkpt><trkpt lat="45.7314935" lon="11.1978894"><ele>896.0</ele><time>2026-04-12T09:24:15.771Z</time></trkpt><trkpt lat="45.7314856" lon="11.1977765"><ele>895.9999999999999</ele><time>2026-04-12T09:24:16.771Z</time></trkpt><trkpt lat="45.7315004" lon="11.197666"><ele>895.9999999999999</ele><time>2026-04-12T09:24:17.771Z</time></trkpt><trkpt lat="45.7315274" lon="11.1975042"><ele>896.0</ele><time>2026-04-12T09:24:19.771Z</time></trkpt><trkpt lat="45.7315684" lon="11.1973632"><ele>896.0</ele><time>2026-04-12T09:24:21.771Z</time></trkpt><trkpt lat="45.7315813" lon="11.197264"><ele>898.6666666666667</ele><time>2026-04-12T09:24:22.771Z</time></trkpt><trkpt lat="45.7315931" lon="11.1971475"><ele>901.3333333333334</ele><time>2026-04-12T09:24:23.771Z</time></trkpt><trkpt lat="45.7316083" lon="11.1970318"><ele>904.0</ele><time>2026-04-12T09:24:24.771Z</time></trkpt><trkpt lat="45.7316239" lon="11.1969292"><ele>906.6666666666667</ele><time>2026-04-12T09:24:25.771Z</time></trkpt><trkpt lat="45.7316246" lon="11.1967579"><ele>909.3333333333334</ele><time>2026-04-12T09:24:27.77Z</time></trkpt><trkpt lat="45.7316463" lon="11.1966332"><ele>912.0</ele><time>2026-04-12T09:24:34.771Z</time></trkpt><trkpt lat="45.731675" lon="11.1965405"><ele>912.0</ele><time>2026-04-12T09:24:37.77Z</time></trkpt><trkpt lat="45.7317643" lon="11.1965293"><ele>912.0</ele><time>2026-04-12T09:24:40.771Z</time></trkpt><trkpt lat="45.7318582" lon="11.1965959"><ele>912.0</ele><time>2026-04-12T09:24:42.771Z</time></trkpt><trkpt lat="45.7319201" lon="11.196648"><ele>912.0</ele><time>2026-04-12T09:24:43.771Z</time></trkpt><trkpt lat="45.7319845" lon="11.1967179"><ele>912.0</ele><time>2026-04-12T09:24:44.771Z</time></trkpt><trkpt lat="45.7320327" lon="11.1967882"><ele>912.0</ele><time>2026-04-12T09:24:45.771Z</time></trkpt><trkpt lat="45.7320992" lon="11.1969318"><ele>915.0</ele><time>2026-04-12T09:24:47.77Z</time></trkpt><trkpt lat="45.7321813" lon="11.1970635"><ele>918.0</ele><time>2026-04-12T09:24:49.77Z</time></trkpt><trkpt lat="45.7322349" lon="11.197113"><ele>921.0</ele><time>2026-04-12T09:24:50.771Z</time></trkpt><trkpt lat="45.7323135" lon="11.1971741"><ele>924.0</ele><time>2026-04-12T09:24:51.77Z</time></trkpt><trkpt lat="45.7323761" lon="11.197205"><ele>927.0</ele><time>2026-04-12T09:24:52.771Z</time></trkpt><trkpt lat="45.7324465" lon="11.1972225"><ele>930.0</ele><time>2026-04-12T09:24:53.77Z</time></trkpt><trkpt lat="45.7325101" lon="11.1972341"><ele>930.0</ele><time>2026-04-12T09:24:54.771Z</time></trkpt><trkpt lat="45.7326277" lon="11.1972821"><ele>930.0</ele><time>2026-04-12T09:24:56.77Z</time></trkpt><trkpt lat="45.7327176" lon="11.1973469"><ele>930.0</ele><time>2026-04-12T09:24:58.771Z</time></trkpt><trkpt lat="45.7327865" lon="11.1974159"><ele>930.0</ele><time>2026-04-12T09:25:00.771Z</time></trkpt><trkpt lat="45.7328566" lon="11.1974428"><ele>930.0</ele><time>2026-04-12T09:25:02.771Z</time></trkpt><trkpt lat="45.7329243" lon="11.1974468"><ele>930.0</ele><time>2026-04-12T09:25:04.77Z</time></trkpt><trkpt lat="45.7329792" lon="11.197491"><ele>927.6666666666666</ele><time>2026-04-12T09:25:06.77Z</time></trkpt><trkpt lat="45.7330537" lon="11.1975745"><ele>925.3333333333333</ele><time>2026-04-12T09:25:08.77Z</time></trkpt><trkpt lat="45.7331095" lon="11.1976174"><ele>923.0</ele><time>2026-04-12T09:25:09.77Z</time></trkpt><trkpt lat="45.7331733" lon="11.1976497"><ele>920.6666666666666</ele><time>2026-04-12T09:25:10.77Z</time></trkpt><trkpt lat="45.7332846" lon="11.1976767"><ele>918.3333333333333</ele><time>2026-04-12T09:25:12.77Z</time></trkpt><trkpt lat="45.7333492" lon="11.1976845"><ele>916.0</ele><time>2026-04-12T09:25:14.77Z</time></trkpt><trkpt lat="45.7334183" lon="11.1976495"><ele>915.9999999999999</ele><time>2026-04-12T09:25:21.771Z</time></trkpt><trkpt lat="45.7335107" lon="11.1976475"><ele>916.0</ele><time>2026-04-12T09:25:24.771Z</time></trkpt><trkpt lat="45.7335777" lon="11.1976673"><ele>916.0</ele><time>2026-04-12T09:25:26.77Z</time></trkpt><trkpt lat="45.7336341" lon="11.197721"><ele>916.0</ele><time>2026-04-12T09:25:28.771Z</time></trkpt><trkpt lat="45.7337067" lon="11.1978219"><ele>915.9999999999999</ele><time>2026-04-12T09:25:30.771Z</time></trkpt><trkpt lat="45.7337587" lon="11.1978801"><ele>916.0</ele><time>2026-04-12T09:25:31.77Z</time></trkpt><trkpt lat="45.7338307" lon="11.1979307"><ele>916.6666666666666</ele><time>2026-04-12T09:25:32.771Z</time></trkpt><trkpt lat="45.7339067" lon="11.1979724"><ele>917.3333333333333</ele><time>2026-04-12T09:25:33.77Z</time></trkpt><trkpt lat="45.7339796" lon="11.1980094"><ele>918.0</ele><time>2026-04-12T09:25:34.771Z</time></trkpt><trkpt lat="45.7340587" lon="11.1980351"><ele>918.6666666666667</ele><time>2026-04-12T09:25:35.77Z</time></trkpt><trkpt lat="45.7341454" lon="11.1980478"><ele>919.3333333333334</ele><time>2026-04-12T09:25:36.771Z</time></trkpt><trkpt lat="45.7342213" lon="11.1980585"><ele>920.0</ele><time>2026-04-12T09:25:37.771Z</time></trkpt><trkpt lat="45.7342879" lon="11.1980714"><ele>918.5</ele><time>2026-04-12T09:25:38.771Z</time></trkpt><trkpt lat="45.7344114" lon="11.1980751"><ele>917.0</ele><time>2026-04-12T09:25:40.77Z</time></trkpt><trkpt lat="45.7345142" lon="11.1980092"><ele>915.5</ele><time>2026-04-12T09:25:42.77Z</time></trkpt><trkpt lat="45.7346148" lon="11.1979059"><ele>914.0</ele><time>2026-04-12T09:25:44.77Z</time></trkpt><trkpt lat="45.7347192" lon="11.1978167"><ele>914.0000000000001</ele><time>2026-04-12T09:25:46.771Z</time></trkpt><trkpt lat="45.734783" lon="11.1977895"><ele>914.0</ele><time>2026-04-12T09:25:47.771Z</time></trkpt><trkpt lat="45.7348529" lon="11.1977737"><ele>914.0</ele><time>2026-04-12T09:25:48.771Z</time></trkpt><trkpt lat="45.7349298" lon="11.1977885"><ele>914.0</ele><time>2026-04-12T09:25:49.771Z</time></trkpt><trkpt lat="45.7350111" lon="11.1978266"><ele>914.0000000000001</ele><time>2026-04-12T09:25:50.771Z</time></trkpt><trkpt lat="45.7350855" lon="11.1978761"><ele>914.0</ele><time>2026-04-12T09:25:51.771Z</time></trkpt><trkpt lat="45.7351526" lon="11.1979125"><ele>910.6</ele><time>2026-04-12T09:25:52.77Z</time></trkpt><trkpt lat="45.7352274" lon="11.1979281"><ele>907.2</ele><time>2026-04-12T09:25:53.771Z</time></trkpt><trkpt lat="45.735297" lon="11.1979229"><ele>903.8000000000001</ele><time>2026-04-12T09:25:54.77Z</time></trkpt><trkpt lat="45.7354104" lon="11.1978608"><ele>900.4000000000001</ele><time>2026-04-12T09:25:56.77Z</time></trkpt><trkpt lat="45.7355257" lon="11.197787"><ele>897.0</ele><time>2026-04-12T09:25:58.771Z</time></trkpt><trkpt lat="45.7355919" lon="11.197745"><ele>897.0</ele><time>2026-04-12T09:25:59.771Z</time></trkpt><trkpt lat="45.7356693" lon="11.1977006"><ele>897.0</ele><time>2026-04-12T09:26:00.77Z</time></trkpt><trkpt lat="45.7357482" lon="11.1976385"><ele>897.0</ele><time>2026-04-12T09:26:01.771Z</time></trkpt><trkpt lat="45.7358308" lon="11.1975715"><ele>897.0</ele><time>2026-04-12T09:26:02.771Z</time></trkpt><trkpt lat="45.7359104" lon="11.1974984"><ele>897.0</ele><time>2026-04-12T09:26:03.771Z</time></trkpt><trkpt lat="45.7359849" lon="11.1974258"><ele>897.0</ele><time>2026-04-12T09:26:04.771Z</time></trkpt><trkpt lat="45.7360452" lon="11.197345"><ele>897.0</ele><time>2026-04-12T09:26:05.77Z</time></trkpt><trkpt lat="45.7360988" lon="11.1972616"><ele>897.0</ele><time>2026-04-12T09:26:06.771Z</time></trkpt><trkpt lat="45.7361462" lon="11.1971952"><ele>897.0</ele><time>2026-04-12T09:26:07.771Z</time></trkpt><trkpt lat="45.7362508" lon="11.1971356"><ele>897.0</ele><time>2026-04-12T09:26:09.771Z</time></trkpt><trkpt lat="45.736317" lon="11.1971534"><ele>897.0</ele><time>2026-04-12T09:26:10.77Z</time></trkpt><trkpt lat="45.7363938" lon="11.1971831"><ele>898.0</ele><time>2026-04-12T09:26:11.771Z</time></trkpt><trkpt lat="45.7364762" lon="11.1972188"><ele>899.0</ele><time>2026-04-12T09:26:12.77Z</time></trkpt><trkpt lat="45.7365657" lon="11.1972327"><ele>900.0</ele><time>2026-04-12T09:26:13.771Z</time></trkpt><trkpt lat="45.7366576" lon="11.1972307"><ele>901.0</ele><time>2026-04-12T09:26:14.77Z</time></trkpt><trkpt lat="45.7367443" lon="11.197222"><ele>902.0</ele><time>2026-04-12T09:26:15.77Z</time></trkpt><trkpt lat="45.7368213" lon="11.1972033"><ele>903.0</ele><time>2026-04-12T09:26:16.77Z</time></trkpt><trkpt lat="45.7368831" lon="11.197166"><ele>900.8333333333334</ele><time>2026-04-12T09:26:17.77Z</time></trkpt><trkpt lat="45.7369385" lon="11.1971189"><ele>898.6666666666667</ele><time>2026-04-12T09:26:18.77Z</time></trkpt><trkpt lat="45.7370406" lon="11.1969902"><ele>896.5</ele><time>2026-04-12T09:26:20.77Z</time></trkpt><trkpt lat="45.7371004" lon="11.196908"><ele>894.3333333333334</ele><time>2026-04-12T09:26:21.769Z</time></trkpt><trkpt lat="45.7371634" lon="11.1968344"><ele>892.1666666666667</ele><time>2026-04-12T09:26:22.769Z</time></trkpt><trkpt lat="45.7372251" lon="11.1967644"><ele>890.0</ele><time>2026-04-12T09:26:23.77Z</time></trkpt><trkpt lat="45.7372911" lon="11.1967058"><ele>890.0</ele><time>2026-04-12T09:26:24.769Z</time></trkpt><trkpt lat="45.737356" lon="11.1966669"><ele>890.0</ele><time>2026-04-12T09:26:25.77Z</time></trkpt><trkpt lat="45.7374226" lon="11.1966386"><ele>890.0</ele><time>2026-04-12T09:26:26.769Z</time></trkpt><trkpt lat="45.7375434" lon="11.196617"><ele>890.0</ele><time>2026-04-12T09:26:28.77Z</time></trkpt><trkpt lat="45.7376509" lon="11.1965646"><ele>890.0</ele><time>2026-04-12T09:26:30.77Z</time></trkpt><trkpt lat="45.737745" lon="11.1964658"><ele>890.0</ele><time>2026-04-12T09:26:32.77Z</time></trkpt><trkpt lat="45.7378064" lon="11.196338"><ele>890.0</ele><time>2026-04-12T09:26:34.769Z</time></trkpt><trkpt lat="45.7378397" lon="11.1961843"><ele>890.0</ele><time>2026-04-12T09:26:36.769Z</time></trkpt><trkpt lat="45.7378928" lon="11.1960555"><ele>890.0</ele><time>2026-04-12T09:26:38.77Z</time></trkpt><trkpt lat="45.737991" lon="11.1959718"><ele>890.0</ele><time>2026-04-12T09:26:40.769Z</time></trkpt><trkpt lat="45.7380522" lon="11.1959464"><ele>890.0000000000001</ele><time>2026-04-12T09:26:41.769Z</time></trkpt><trkpt lat="45.7381271" lon="11.1959281"><ele>890.0</ele><time>2026-04-12T09:26:42.77Z</time></trkpt><trkpt lat="45.7381984" lon="11.1959155"><ele>890.0</ele><time>2026-04-12T09:26:43.769Z</time></trkpt><trkpt lat="45.738272" lon="11.1959021"><ele>890.0</ele><time>2026-04-12T09:26:44.769Z</time></trkpt><trkpt lat="45.7383416" lon="11.1958838"><ele>890.0000000000001</ele><time>2026-04-12T09:26:45.77Z</time></trkpt><trkpt lat="45.7384061" lon="11.1958573"><ele>890.0</ele><time>2026-04-12T09:26:46.769Z</time></trkpt><trkpt lat="45.7384916" lon="11.1957748"><ele>891.6</ele><time>2026-04-12T09:26:48.77Z</time></trkpt><trkpt lat="45.7385378" lon="11.1956513"><ele>893.2</ele><time>2026-04-12T09:26:50.77Z</time></trkpt><trkpt lat="45.7385821" lon="11.1955243"><ele>894.8</ele><time>2026-04-12T09:26:52.77Z</time></trkpt><trkpt lat="45.7386588" lon="11.1954191"><ele>896.4</ele><time>2026-04-12T09:26:54.77Z</time></trkpt><trkpt lat="45.7387455" lon="11.1953425"><ele>898.0</ele><time>2026-04-12T09:26:56.769Z</time></trkpt><trkpt lat="45.7388248" lon="11.1952791"><ele>897.9999999999999</ele><time>2026-04-12T09:26:58.77Z</time></trkpt><trkpt lat="45.738895" lon="11.1952419"><ele>898.0</ele><time>2026-04-12T09:27:00.769Z</time></trkpt><trkpt lat="45.7389603" lon="11.1952081"><ele>898.0</ele><time>2026-04-12T09:27:02.77Z</time></trkpt><trkpt lat="45.739047" lon="11.1951956"><ele>898.0</ele><time>2026-04-12T09:27:05.77Z</time></trkpt><trkpt lat="45.7391315" lon="11.1952266"><ele>897.9999999999999</ele><time>2026-04-12T09:27:07.77Z</time></trkpt><trkpt lat="45.7391945" lon="11.1952586"><ele>898.0</ele><time>2026-04-12T09:27:08.769Z</time></trkpt><trkpt lat="45.7392646" lon="11.1953052"><ele>897.9999999999999</ele><time>2026-04-12T09:27:09.77Z</time></trkpt><trkpt lat="45.7393308" lon="11.1953631"><ele>898.0</ele><time>2026-04-12T09:27:10.77Z</time></trkpt><trkpt lat="45.73939" lon="11.1954241"><ele>898.0</ele><time>2026-04-12T09:27:11.769Z</time></trkpt><trkpt lat="45.7394831" lon="11.1954899"><ele>898.0</ele><time>2026-04-12T09:27:13.769Z</time></trkpt><trkpt lat="45.7395607" lon="11.1954428"><ele>897.9999999999999</ele><time>2026-04-12T09:27:15.77Z</time></trkpt><trkpt lat="45.7396017" lon="11.1953724"><ele>898.0</ele><time>2026-04-12T09:27:16.769Z</time></trkpt><trkpt lat="45.7396431" lon="11.1952937"><ele>896.9999999999999</ele><time>2026-04-12T09:27:17.769Z</time></trkpt><trkpt lat="45.7396836" lon="11.1952243"><ele>896.0</ele><time>2026-04-12T09:27:18.77Z</time></trkpt><trkpt lat="45.7397711" lon="11.1951633"><ele>895.0</ele><time>2026-04-12T09:27:20.77Z</time></trkpt><trkpt lat="45.7398452" lon="11.1951522"><ele>894.0</ele><time>2026-04-12T09:27:22.77Z</time></trkpt><trkpt lat="45.7399268" lon="11.1952072"><ele>892.9999999999999</ele><time>2026-04-12T09:27:25.769Z</time></trkpt><trkpt lat="45.7400018" lon="11.1953139"><ele>892.0</ele><time>2026-04-12T09:27:27.77Z</time></trkpt><trkpt lat="45.7400525" lon="11.1953718"><ele>891.9999999999999</ele><time>2026-04-12T09:27:28.769Z</time></trkpt><trkpt lat="45.7401127" lon="11.1954197"><ele>892.0</ele><time>2026-04-12T09:27:29.769Z</time></trkpt><trkpt lat="45.7401749" lon="11.1954581"><ele>892.0</ele><time>2026-04-12T09:27:30.77Z</time></trkpt><trkpt lat="45.7402358" lon="11.1954814"><ele>892.0</ele><time>2026-04-12T09:27:31.77Z</time></trkpt><trkpt lat="45.7403433" lon="11.1954851"><ele>891.9999999999999</ele><time>2026-04-12T09:27:33.769Z</time></trkpt><trkpt lat="45.7404426" lon="11.1954104"><ele>892.0</ele><time>2026-04-12T09:27:35.769Z</time></trkpt><trkpt lat="45.7405163" lon="11.1953181"><ele>892.6</ele><time>2026-04-12T09:27:37.769Z</time></trkpt><trkpt lat="45.7405905" lon="11.1952971"><ele>893.2</ele><time>2026-04-12T09:27:39.769Z</time></trkpt><trkpt lat="45.7406686" lon="11.1953836"><ele>893.8</ele><time>2026-04-12T09:27:41.769Z</time></trkpt><trkpt lat="45.7407684" lon="11.1954579"><ele>894.4</ele><time>2026-04-12T09:27:43.77Z</time></trkpt><trkpt lat="45.740864" lon="11.1954573"><ele>895.0</ele><time>2026-04-12T09:27:45.769Z</time></trkpt><trkpt lat="45.7409624" lon="11.1954029"><ele>894.9999999999999</ele><time>2026-04-12T09:27:47.769Z</time></trkpt><trkpt lat="45.7410415" lon="11.1953911"><ele>895.0</ele><time>2026-04-12T09:27:49.769Z</time></trkpt><trkpt lat="45.7411073" lon="11.1954562"><ele>895.0</ele><time>2026-04-12T09:27:51.77Z</time></trkpt><trkpt lat="45.7411462" lon="11.1955836"><ele>895.0</ele><time>2026-04-12T09:27:53.77Z</time></trkpt><trkpt lat="45.7411621" lon="11.1956773"><ele>894.9999999999999</ele><time>2026-04-12T09:27:54.769Z</time></trkpt><trkpt lat="45.7411741" lon="11.1957828"><ele>895.0</ele><time>2026-04-12T09:27:55.77Z</time></trkpt><trkpt lat="45.7411726" lon="11.1958907"><ele>895.1666666666666</ele><time>2026-04-12T09:27:56.769Z</time></trkpt><trkpt lat="45.7411838" lon="11.1959954"><ele>895.3333333333333</ele><time>2026-04-12T09:27:57.769Z</time></trkpt><trkpt lat="45.7412115" lon="11.1960854"><ele>895.5</ele><time>2026-04-12T09:27:58.77Z</time></trkpt><trkpt lat="45.7412555" lon="11.1961588"><ele>895.6666666666667</ele><time>2026-04-12T09:27:59.769Z</time></trkpt><trkpt lat="45.7413735" lon="11.1962351"><ele>895.8333333333334</ele><time>2026-04-12T09:28:01.77Z</time></trkpt><trkpt lat="45.7414606" lon="11.1962264"><ele>896.0</ele><time>2026-04-12T09:28:02.77Z</time></trkpt><trkpt lat="45.7415542" lon="11.1961926"><ele>896.0000000000001</ele><time>2026-04-12T09:28:03.769Z</time></trkpt><trkpt lat="45.741654" lon="11.1961576"><ele>896.0</ele><time>2026-04-12T09:28:04.77Z</time></trkpt><trkpt lat="45.7417445" lon="11.1961264"><ele>896.0</ele><time>2026-04-12T09:28:05.77Z</time></trkpt><trkpt lat="45.7418215" lon="11.1961041"><ele>896.0</ele><time>2026-04-12T09:28:06.769Z</time></trkpt><trkpt lat="45.7418927" lon="11.1960727"><ele>896.0000000000001</ele><time>2026-04-12T09:28:07.77Z</time></trkpt><trkpt lat="45.7419545" lon="11.196036"><ele>896.0</ele><time>2026-04-12T09:28:08.769Z</time></trkpt><trkpt lat="45.7419876" lon="11.1959431"><ele>896.0</ele><time>2026-04-12T09:28:10.77Z</time></trkpt><trkpt lat="45.7419402" lon="11.1958249"><ele>896.0</ele><time>2026-04-12T09:28:12.769Z</time></trkpt><trkpt lat="45.7418888" lon="11.1957618"><ele>896.0</ele><time>2026-04-12T09:28:13.77Z</time></trkpt><trkpt lat="45.7418311" lon="11.1956972"><ele>896.0</ele><time>2026-04-12T09:28:14.769Z</time></trkpt><trkpt lat="45.7417723" lon="11.1956286"><ele>896.0</ele><time>2026-04-12T09:28:15.77Z</time></trkpt><trkpt lat="45.7417259" lon="11.1955582"><ele>896.0</ele><time>2026-04-12T09:28:16.77Z</time></trkpt><trkpt lat="45.741684" lon="11.1954854"><ele>896.0</ele><time>2026-04-12T09:28:17.77Z</time></trkpt><trkpt lat="45.7416365" lon="11.1953579"><ele>899.0000000000001</ele><time>2026-04-12T09:28:19.769Z</time></trkpt><trkpt lat="45.7416148" lon="11.1952655"><ele>902.0</ele><time>2026-04-12T09:28:21.77Z</time></trkpt><trkpt lat="45.7416463" lon="11.1951479"><ele>905.0</ele><time>2026-04-12T09:28:24.769Z</time></trkpt><trkpt lat="45.7417266" lon="11.1951093"><ele>908.0</ele><time>2026-04-12T09:28:26.77Z</time></trkpt><trkpt lat="45.7418218" lon="11.1950781"><ele>911.0000000000001</ele><time>2026-04-12T09:28:28.769Z</time></trkpt><trkpt lat="45.7419096" lon="11.1950504"><ele>914.0</ele><time>2026-04-12T09:28:30.769Z</time></trkpt><trkpt lat="45.7420034" lon="11.1950231"><ele>916.8000000000001</ele><time>2026-04-12T09:28:32.77Z</time></trkpt><trkpt lat="45.7421182" lon="11.1949868"><ele>919.6000000000001</ele><time>2026-04-12T09:28:34.769Z</time></trkpt><trkpt lat="45.7421875" lon="11.1949669"><ele>922.4</ele><time>2026-04-12T09:28:35.769Z</time></trkpt><trkpt lat="45.7422542" lon="11.1949515"><ele>925.2</ele><time>2026-04-12T09:28:36.769Z</time></trkpt><trkpt lat="45.7423888" lon="11.194901"><ele>928.0</ele><time>2026-04-12T09:28:38.769Z</time></trkpt><trkpt lat="45.7424575" lon="11.194872"><ele>928.0000000000001</ele><time>2026-04-12T09:28:39.77Z</time></trkpt><trkpt lat="45.7425345" lon="11.1948378"><ele>928.0</ele><time>2026-04-12T09:28:40.77Z</time></trkpt><trkpt lat="45.7426112" lon="11.1948008"><ele>928.0000000000001</ele><time>2026-04-12T09:28:41.77Z</time></trkpt><trkpt lat="45.7426733" lon="11.1947774"><ele>928.0000000000001</ele><time>2026-04-12T09:28:42.769Z</time></trkpt><trkpt lat="45.7427375" lon="11.1947554"><ele>928.0</ele><time>2026-04-12T09:28:43.77Z</time></trkpt><trkpt lat="45.7428086" lon="11.1947186"><ele>928.0000000000001</ele><time>2026-04-12T09:28:44.77Z</time></trkpt><trkpt lat="45.7428765" lon="11.1946792"><ele>928.0000000000001</ele><time>2026-04-12T09:28:45.77Z</time></trkpt><trkpt lat="45.7429423" lon="11.1946357"><ele>932.0000000000001</ele><time>2026-04-12T09:28:46.77Z</time></trkpt><trkpt lat="45.7429988" lon="11.1945875"><ele>936.0</ele><time>2026-04-12T09:28:47.77Z</time></trkpt><trkpt lat="45.7430514" lon="11.1945319"><ele>940.0000000000001</ele><time>2026-04-12T09:28:48.769Z</time></trkpt><trkpt lat="45.7431082" lon="11.1944866"><ele>944.0000000000001</ele><time>2026-04-12T09:28:49.769Z</time></trkpt><trkpt lat="45.7431674" lon="11.1944505"><ele>948.0</ele><time>2026-04-12T09:28:50.77Z</time></trkpt><trkpt lat="45.7432849" lon="11.1944276"><ele>952.0000000000001</ele><time>2026-04-12T09:28:52.77Z</time></trkpt><trkpt lat="45.7433485" lon="11.1944395"><ele>956.0000000000001</ele><time>2026-04-12T09:28:53.769Z</time></trkpt><trkpt lat="45.7434103" lon="11.1944583"><ele>956.0000000000001</ele><time>2026-04-12T09:28:54.769Z</time></trkpt><trkpt lat="45.7435142" lon="11.194461"><ele>956.0</ele><time>2026-04-12T09:28:56.769Z</time></trkpt><trkpt lat="45.7435516" lon="11.1943644"><ele>956.0</ele><time>2026-04-12T09:28:59.77Z</time></trkpt><trkpt lat="45.7434791" lon="11.1942587"><ele>956.0</ele><time>2026-04-12T09:29:01.77Z</time></trkpt><trkpt lat="45.7434167" lon="11.1942052"><ele>956.0000000000001</ele><time>2026-04-12T09:29:02.77Z</time></trkpt><trkpt lat="45.7433501" lon="11.1941624"><ele>956.0</ele><time>2026-04-12T09:29:03.77Z</time></trkpt><trkpt lat="45.7432864" lon="11.1941257"><ele>956.0</ele><time>2026-04-12T09:29:04.77Z</time></trkpt><trkpt lat="45.7432246" lon="11.1940868"><ele>955.9999999999999</ele><time>2026-04-12T09:29:05.769Z</time></trkpt><trkpt lat="45.7431267" lon="11.1939783"><ele>955.9999999999999</ele><time>2026-04-12T09:29:07.769Z</time></trkpt><trkpt lat="45.7430362" lon="11.1938636"><ele>956.0</ele><time>2026-04-12T09:29:09.77Z</time></trkpt><trkpt lat="45.7429512" lon="11.1937722"><ele>956.0</ele><time>2026-04-12T09:29:11.77Z</time></trkpt><trkpt lat="45.7428627" lon="11.1937051"><ele>958.8</ele><time>2026-04-12T09:29:13.77Z</time></trkpt><trkpt lat="45.7427861" lon="11.1936109"><ele>961.5999999999999</ele><time>2026-04-12T09:29:15.769Z</time></trkpt><trkpt lat="45.7426977" lon="11.1934889"><ele>964.4</ele><time>2026-04-12T09:29:17.77Z</time></trkpt><trkpt lat="45.7426531" lon="11.1934206"><ele>967.2</ele><time>2026-04-12T09:29:18.77Z</time></trkpt><trkpt lat="45.7425692" lon="11.1933163"><ele>970.0</ele><time>2026-04-12T09:29:20.77Z</time></trkpt><trkpt lat="45.7425341" lon="11.1932261"><ele>972.4999999999999</ele><time>2026-04-12T09:29:22.769Z</time></trkpt><trkpt lat="45.7425803" lon="11.193162"><ele>975.0</ele><time>2026-04-12T09:29:24.769Z</time></trkpt><trkpt lat="45.742675" lon="11.1931441"><ele>977.5</ele><time>2026-04-12T09:29:26.769Z</time></trkpt><trkpt lat="45.7427391" lon="11.1931536"><ele>980.0</ele><time>2026-04-12T09:29:27.77Z</time></trkpt><trkpt lat="45.7428123" lon="11.1931587"><ele>982.4999999999999</ele><time>2026-04-12T09:29:28.77Z</time></trkpt><trkpt lat="45.7428987" lon="11.1931686"><ele>985.0</ele><time>2026-04-12T09:29:29.769Z</time></trkpt><trkpt lat="45.7430004" lon="11.1931803"><ele>985.0</ele><time>2026-04-12T09:29:30.77Z</time></trkpt><trkpt lat="45.7431066" lon="11.1931952"><ele>985.0</ele><time>2026-04-12T09:29:31.77Z</time></trkpt><trkpt lat="45.7432094" lon="11.1932179"><ele>985.0</ele><time>2026-04-12T09:29:32.769Z</time></trkpt><trkpt lat="45.7433032" lon="11.1932322"><ele>985.0</ele><time>2026-04-12T09:29:33.769Z</time></trkpt><trkpt lat="45.7433934" lon="11.1932433"><ele>985.0</ele><time>2026-04-12T09:29:34.769Z</time></trkpt><trkpt lat="45.743477" lon="11.1932544"><ele>987.9999999999999</ele><time>2026-04-12T09:29:35.77Z</time></trkpt><trkpt lat="45.7435657" lon="11.1932695"><ele>991.0</ele><time>2026-04-12T09:29:36.77Z</time></trkpt><trkpt lat="45.7436555" lon="11.1932827"><ele>994.0</ele><time>2026-04-12T09:29:37.77Z</time></trkpt><trkpt lat="45.7437434" lon="11.193287"><ele>997.0</ele><time>2026-04-12T09:29:38.769Z</time></trkpt><trkpt lat="45.7438266" lon="11.1932986"><ele>999.9999999999999</ele><time>2026-04-12T09:29:39.769Z</time></trkpt><trkpt lat="45.7439062" lon="11.1933178"><ele>1003.0</ele><time>2026-04-12T09:29:40.77Z</time></trkpt><trkpt lat="45.7439721" lon="11.1933386"><ele>1002.9999999999999</ele><time>2026-04-12T09:29:41.769Z</time></trkpt><trkpt lat="45.7440647" lon="11.1933772"><ele>1003.0</ele><time>2026-04-12T09:29:43.77Z</time></trkpt><trkpt lat="45.7440748" lon="11.1932845"><ele>1003.0</ele><time>2026-04-12T09:29:47.769Z</time></trkpt><trkpt lat="45.743982" lon="11.193244"><ele>1003.0</ele><time>2026-04-12T09:29:49.77Z</time></trkpt><trkpt lat="45.7439076" lon="11.1931916"><ele>1002.9999999999999</ele><time>2026-04-12T09:29:51.77Z</time></trkpt><trkpt lat="45.7438951" lon="11.1930948"><ele>1003.0</ele><time>2026-04-12T09:29:54.77Z</time></trkpt><trkpt lat="45.7439593" lon="11.1930947"><ele>1002.9999999999999</ele><time>2026-04-12T09:29:56.769Z</time></trkpt><trkpt lat="45.7440592" lon="11.1931664"><ele>1003.0</ele><time>2026-04-12T09:29:58.769Z</time></trkpt><trkpt lat="45.7441184" lon="11.1932233"><ele>1003.0</ele><time>2026-04-12T09:29:59.769Z</time></trkpt><trkpt lat="45.7441832" lon="11.1932782"><ele>1003.0</ele><time>2026-04-12T09:30:00.77Z</time></trkpt><trkpt lat="45.7442519" lon="11.1933381"><ele>1002.9999999999999</ele><time>2026-04-12T09:30:01.769Z</time></trkpt><trkpt lat="45.7443186" lon="11.1934033"><ele>1003.0</ele><time>2026-04-12T09:30:02.769Z</time></trkpt><trkpt lat="45.7443841" lon="11.1934618"><ele>1008.9999999999999</ele><time>2026-04-12T09:30:03.77Z</time></trkpt><trkpt lat="45.7444459" lon="11.1935135"><ele>1015.0</ele><time>2026-04-12T09:30:04.77Z</time></trkpt><trkpt lat="45.7445091" lon="11.1935579"><ele>1021.0</ele><time>2026-04-12T09:30:05.77Z</time></trkpt><trkpt lat="45.744575" lon="11.1935944"><ele>1027.0</ele><time>2026-04-12T09:30:06.77Z</time></trkpt><trkpt lat="45.7446411" lon="11.1936275"><ele>1033.0</ele><time>2026-04-12T09:30:07.769Z</time></trkpt><trkpt lat="45.7447466" lon="11.193699"><ele>1039.0</ele><time>2026-04-12T09:30:09.77Z</time></trkpt><trkpt lat="45.7448122" lon="11.1938099"><ele>1039.0</ele><time>2026-04-12T09:30:11.77Z</time></trkpt><trkpt lat="45.744853" lon="11.1939901"><ele>1039.0</ele><time>2026-04-12T09:30:13.77Z</time></trkpt><trkpt lat="45.7448705" lon="11.1941134"><ele>1039.0</ele><time>2026-04-12T09:30:14.769Z</time></trkpt><trkpt lat="45.7448901" lon="11.1942433"><ele>1039.0</ele><time>2026-04-12T09:30:15.77Z</time></trkpt><trkpt lat="45.7449212" lon="11.1943745"><ele>1039.0</ele><time>2026-04-12T09:30:16.77Z</time></trkpt><trkpt lat="45.7449625" lon="11.1945001"><ele>1034.8</ele><time>2026-04-12T09:30:17.77Z</time></trkpt><trkpt lat="45.7449999" lon="11.1946203"><ele>1030.6000000000001</ele><time>2026-04-12T09:30:18.77Z</time></trkpt><trkpt lat="45.7450476" lon="11.1947464"><ele>1026.4</ele><time>2026-04-12T09:30:19.77Z</time></trkpt><trkpt lat="45.7450961" lon="11.1948834"><ele>1022.2</ele><time>2026-04-12T09:30:20.769Z</time></trkpt><trkpt lat="45.7451402" lon="11.1950235"><ele>1018.0</ele><time>2026-04-12T09:30:21.769Z</time></trkpt><trkpt lat="45.7451707" lon="11.1951529"><ele>1020.4</ele><time>2026-04-12T09:30:22.77Z</time></trkpt><trkpt lat="45.7451972" lon="11.195284"><ele>1022.8</ele><time>2026-04-12T09:30:23.769Z</time></trkpt><trkpt lat="45.7452275" lon="11.1954222"><ele>1025.2</ele><time>2026-04-12T09:30:24.77Z</time></trkpt><trkpt lat="45.7452487" lon="11.1955573"><ele>1027.6</ele><time>2026-04-12T09:30:25.769Z</time></trkpt><trkpt lat="45.7452592" lon="11.1956911"><ele>1030.0</ele><time>2026-04-12T09:30:26.769Z</time></trkpt><trkpt lat="45.7452717" lon="11.1958239"><ele>1030.0</ele><time>2026-04-12T09:30:27.768Z</time></trkpt><trkpt lat="45.7452743" lon="11.1959464"><ele>1030.0</ele><time>2026-04-12T09:30:28.769Z</time></trkpt><trkpt lat="45.7452708" lon="11.1960543"><ele>1030.0</ele><time>2026-04-12T09:30:29.769Z</time></trkpt><trkpt lat="45.7452852" lon="11.1961434"><ele>1030.0</ele><time>2026-04-12T09:30:30.768Z</time></trkpt><trkpt lat="45.745324" lon="11.1962361"><ele>1030.0</ele><time>2026-04-12T09:30:31.769Z</time></trkpt><trkpt lat="45.7453718" lon="11.196311"><ele>1030.0</ele><time>2026-04-12T09:30:32.768Z</time></trkpt><trkpt lat="45.7454441" lon="11.1963712"><ele>1030.0</ele><time>2026-04-12T09:30:33.769Z</time></trkpt><trkpt lat="45.7455298" lon="11.1964331"><ele>1030.0</ele><time>2026-04-12T09:30:34.768Z</time></trkpt><trkpt lat="45.7456141" lon="11.1965059"><ele>1030.0</ele><time>2026-04-12T09:30:35.768Z</time></trkpt><trkpt lat="45.7456894" lon="11.19659"><ele>1030.0</ele><time>2026-04-12T09:30:36.768Z</time></trkpt><trkpt lat="45.7457626" lon="11.1966743"><ele>1030.0</ele><time>2026-04-12T09:30:37.769Z</time></trkpt><trkpt lat="45.7458313" lon="11.1967451"><ele>1026.5</ele><time>2026-04-12T09:30:38.769Z</time></trkpt><trkpt lat="45.7458938" lon="11.1967945"><ele>1023.0</ele><time>2026-04-12T09:30:39.769Z</time></trkpt><trkpt lat="45.7459568" lon="11.1968184"><ele>1019.5</ele><time>2026-04-12T09:30:40.769Z</time></trkpt><trkpt lat="45.7460622" lon="11.196807"><ele>1016.0</ele><time>2026-04-12T09:30:42.769Z</time></trkpt><trkpt lat="45.7461236" lon="11.1967408"><ele>1012.4999999999999</ele><time>2026-04-12T09:30:43.768Z</time></trkpt><trkpt lat="45.746197" lon="11.1966533"><ele>1009.0</ele><time>2026-04-12T09:30:44.768Z</time></trkpt><trkpt lat="45.7462751" lon="11.1965787"><ele>1007.6</ele><time>2026-04-12T09:30:45.769Z</time></trkpt><trkpt lat="45.7463594" lon="11.1965082"><ele>1006.2</ele><time>2026-04-12T09:30:46.768Z</time></trkpt><trkpt lat="45.7464602" lon="11.1964383"><ele>1004.8000000000001</ele><time>2026-04-12T09:30:47.768Z</time></trkpt><trkpt lat="45.7465721" lon="11.1963642"><ele>1003.4000000000001</ele><time>2026-04-12T09:30:48.769Z</time></trkpt><trkpt lat="45.7466733" lon="11.1962923"><ele>1002.0</ele><time>2026-04-12T09:30:49.769Z</time></trkpt><trkpt lat="45.7467555" lon="11.1962106"><ele>1003.5</ele><time>2026-04-12T09:30:50.769Z</time></trkpt><trkpt lat="45.7468237" lon="11.1961285"><ele>1005.0</ele><time>2026-04-12T09:30:51.768Z</time></trkpt><trkpt lat="45.7468859" lon="11.1960508"><ele>1006.5</ele><time>2026-04-12T09:30:52.769Z</time></trkpt><trkpt lat="45.7469285" lon="11.1959782"><ele>1008.0</ele><time>2026-04-12T09:30:53.768Z</time></trkpt><trkpt lat="45.747029" lon="11.1958831"><ele>1009.5</ele><time>2026-04-12T09:30:55.769Z</time></trkpt><trkpt lat="45.7470915" lon="11.1958581"><ele>1011.0</ele><time>2026-04-12T09:30:56.769Z</time></trkpt><trkpt lat="45.7471658" lon="11.1958648"><ele>1011.0</ele><time>2026-04-12T09:30:57.768Z</time></trkpt><trkpt lat="45.7472347" lon="11.1958955"><ele>1011.0</ele><time>2026-04-12T09:30:58.768Z</time></trkpt><trkpt lat="45.7472993" lon="11.1959237"><ele>1011.0</ele><time>2026-04-12T09:30:59.768Z</time></trkpt><trkpt lat="45.7474184" lon="11.1959366"><ele>1011.0</ele><time>2026-04-12T09:31:01.769Z</time></trkpt><trkpt lat="45.7474883" lon="11.1959076"><ele>1011.0</ele><time>2026-04-12T09:31:02.768Z</time></trkpt><trkpt lat="45.7475572" lon="11.1958526"><ele>1011.0</ele><time>2026-04-12T09:31:03.768Z</time></trkpt><trkpt lat="45.7476239" lon="11.1957775"><ele>1011.0</ele><time>2026-04-12T09:31:04.769Z</time></trkpt><trkpt lat="45.7476771" lon="11.1956888"><ele>1011.0</ele><time>2026-04-12T09:31:05.768Z</time></trkpt><trkpt lat="45.7477088" lon="11.195596"><ele>1011.0</ele><time>2026-04-12T09:31:06.769Z</time></trkpt><trkpt lat="45.7477279" lon="11.1955"><ele>1011.0</ele><time>2026-04-12T09:31:07.769Z</time></trkpt><trkpt lat="45.747763" lon="11.195338"><ele>1011.0</ele><time>2026-04-12T09:31:09.768Z</time></trkpt><trkpt lat="45.7478185" lon="11.1952214"><ele>1011.0</ele><time>2026-04-12T09:31:11.769Z</time></trkpt><trkpt lat="45.7479215" lon="11.1951788"><ele>1013.3333333333334</ele><time>2026-04-12T09:31:13.769Z</time></trkpt><trkpt lat="45.7479928" lon="11.1951695"><ele>1015.6666666666667</ele><time>2026-04-12T09:31:14.769Z</time></trkpt><trkpt lat="45.7480712" lon="11.1951616"><ele>1018.0</ele><time>2026-04-12T09:31:15.768Z</time></trkpt><trkpt lat="45.7481481" lon="11.195148"><ele>1020.3333333333334</ele><time>2026-04-12T09:31:16.768Z</time></trkpt><trkpt lat="45.7482356" lon="11.1951176"><ele>1022.6666666666667</ele><time>2026-04-12T09:31:17.768Z</time></trkpt><trkpt lat="45.7483275" lon="11.1950864"><ele>1025.0</ele><time>2026-04-12T09:31:18.768Z</time></trkpt><trkpt lat="45.7484239" lon="11.1950771"><ele>1025.0</ele><time>2026-04-12T09:31:19.768Z</time></trkpt><trkpt lat="45.7485185" lon="11.1950798"><ele>1025.0</ele><time>2026-04-12T09:31:20.768Z</time></trkpt><trkpt lat="45.7486147" lon="11.195095"><ele>1025.0</ele><time>2026-04-12T09:31:21.768Z</time></trkpt><trkpt lat="45.7487083" lon="11.1951324"><ele>1025.0</ele><time>2026-04-12T09:31:22.769Z</time></trkpt><trkpt lat="45.748802" lon="11.1951673"><ele>1025.0</ele><time>2026-04-12T09:31:23.769Z</time></trkpt><trkpt lat="45.7488892" lon="11.1951985"><ele>1025.0</ele><time>2026-04-12T09:31:24.769Z</time></trkpt><trkpt lat="45.7489617" lon="11.1952195"><ele>1025.0</ele><time>2026-04-12T09:31:25.768Z</time></trkpt><trkpt lat="45.7490246" lon="11.1952374"><ele>1025.0</ele><time>2026-04-12T09:31:26.768Z</time></trkpt><trkpt lat="45.7491389" lon="11.1952411"><ele>1025.0</ele><time>2026-04-12T09:31:28.768Z</time></trkpt><trkpt lat="45.7492519" lon="11.1951412"><ele>1025.0</ele><time>2026-04-12T09:31:30.769Z</time></trkpt><trkpt lat="45.7493163" lon="11.1950654"><ele>1024.4</ele><time>2026-04-12T09:31:31.768Z</time></trkpt><trkpt lat="45.749397" lon="11.194977"><ele>1023.8</ele><time>2026-04-12T09:31:32.769Z</time></trkpt><trkpt lat="45.7494863" lon="11.1949007"><ele>1023.2</ele><time>2026-04-12T09:31:33.768Z</time></trkpt><trkpt lat="45.7495814" lon="11.1948403"><ele>1022.6</ele><time>2026-04-12T09:31:34.769Z</time></trkpt><trkpt lat="45.7496753" lon="11.1947952"><ele>1022.0</ele><time>2026-04-12T09:31:35.769Z</time></trkpt><trkpt lat="45.7497658" lon="11.1947643"><ele>1022.0000000000001</ele><time>2026-04-12T09:31:36.768Z</time></trkpt><trkpt lat="45.7498511" lon="11.1947554"><ele>1022.0</ele><time>2026-04-12T09:31:37.768Z</time></trkpt><trkpt lat="45.7499198" lon="11.194771"><ele>1022.0</ele><time>2026-04-12T09:31:38.768Z</time></trkpt><trkpt lat="45.7499987" lon="11.194803"><ele>1022.0</ele><time>2026-04-12T09:31:39.769Z</time></trkpt><trkpt lat="45.7500789" lon="11.194851"><ele>1022.0000000000001</ele><time>2026-04-12T09:31:40.768Z</time></trkpt><trkpt lat="45.7501549" lon="11.194907"><ele>1022.0</ele><time>2026-04-12T09:31:41.769Z</time></trkpt><trkpt lat="45.7502198" lon="11.1949873"><ele>1027.8333333333335</ele><time>2026-04-12T09:31:42.768Z</time></trkpt><trkpt lat="45.750276" lon="11.1950794"><ele>1033.6666666666667</ele><time>2026-04-12T09:31:43.769Z</time></trkpt><trkpt lat="45.7503289" lon="11.1951635"><ele>1039.5</ele><time>2026-04-12T09:31:44.768Z</time></trkpt><trkpt lat="45.7503859" lon="11.1952602"><ele>1045.3333333333333</ele><time>2026-04-12T09:31:45.769Z</time></trkpt><trkpt lat="45.7504424" lon="11.1953565"><ele>1051.1666666666665</ele><time>2026-04-12T09:31:46.769Z</time></trkpt><trkpt lat="45.750504" lon="11.1954491"><ele>1057.0</ele><time>2026-04-12T09:31:47.768Z</time></trkpt><trkpt lat="45.750563" lon="11.195531"><ele>1057.0</ele><time>2026-04-12T09:31:48.768Z</time></trkpt><trkpt lat="45.7506258" lon="11.1956083"><ele>1057.0</ele><time>2026-04-12T09:31:49.768Z</time></trkpt><trkpt lat="45.75067" lon="11.1956983"><ele>1057.0</ele><time>2026-04-12T09:31:50.768Z</time></trkpt><trkpt lat="45.7507075" lon="11.195802"><ele>1057.0</ele><time>2026-04-12T09:31:51.769Z</time></trkpt><trkpt lat="45.7507525" lon="11.1959043"><ele>1057.0</ele><time>2026-04-12T09:31:52.769Z</time></trkpt><trkpt lat="45.7508026" lon="11.1960127"><ele>1057.0</ele><time>2026-04-12T09:31:53.769Z</time></trkpt><trkpt lat="45.7508613" lon="11.1961134"><ele>1055.8333333333333</ele><time>2026-04-12T09:31:54.769Z</time></trkpt><trkpt lat="45.7509241" lon="11.1962051"><ele>1054.6666666666665</ele><time>2026-04-12T09:31:55.768Z</time></trkpt><trkpt lat="45.7509857" lon="11.1962713"><ele>1053.5</ele><time>2026-04-12T09:31:56.768Z</time></trkpt><trkpt lat="45.751046" lon="11.1963218"><ele>1052.3333333333333</ele><time>2026-04-12T09:31:57.769Z</time></trkpt><trkpt lat="45.7511547" lon="11.1963623"><ele>1051.1666666666667</ele><time>2026-04-12T09:31:59.768Z</time></trkpt><trkpt lat="45.751219" lon="11.1963537"><ele>1050.0</ele><time>2026-04-12T09:32:00.769Z</time></trkpt><trkpt lat="45.7512963" lon="11.1963293"><ele>1050.0</ele><time>2026-04-12T09:32:01.769Z</time></trkpt><trkpt lat="45.7513723" lon="11.1963034"><ele>1050.0</ele><time>2026-04-12T09:32:02.769Z</time></trkpt><trkpt lat="45.7514535" lon="11.1962871"><ele>1050.0</ele><time>2026-04-12T09:32:03.768Z</time></trkpt><trkpt lat="45.7515348" lon="11.1962854"><ele>1050.0</ele><time>2026-04-12T09:32:04.768Z</time></trkpt><trkpt lat="45.7516149" lon="11.1962945"><ele>1050.0</ele><time>2026-04-12T09:32:05.769Z</time></trkpt><trkpt lat="45.7516844" lon="11.1963203"><ele>1050.0</ele><time>2026-04-12T09:32:06.769Z</time></trkpt><trkpt lat="45.7517469" lon="11.1963579"><ele>1050.0</ele><time>2026-04-12T09:32:07.768Z</time></trkpt><trkpt lat="45.7518521" lon="11.1964425"><ele>1050.0</ele><time>2026-04-12T09:32:09.768Z</time></trkpt><trkpt lat="45.7519562" lon="11.1965266"><ele>1050.0</ele><time>2026-04-12T09:32:11.769Z</time></trkpt><trkpt lat="45.7520707" lon="11.1965546"><ele>1050.0</ele><time>2026-04-12T09:32:13.769Z</time></trkpt><trkpt lat="45.7521376" lon="11.1965341"><ele>1050.0</ele><time>2026-04-12T09:32:14.768Z</time></trkpt><trkpt lat="45.7522148" lon="11.1965059"><ele>1050.5714285714287</ele><time>2026-04-12T09:32:15.769Z</time></trkpt><trkpt lat="45.7522894" lon="11.1964781"><ele>1051.142857142857</ele><time>2026-04-12T09:32:16.768Z</time></trkpt><trkpt lat="45.7523619" lon="11.196458"><ele>1051.7142857142858</ele><time>2026-04-12T09:32:17.768Z</time></trkpt><trkpt lat="45.7524324" lon="11.196453"><ele>1052.2857142857142</ele><time>2026-04-12T09:32:18.769Z</time></trkpt><trkpt lat="45.7525003" lon="11.1964672"><ele>1052.857142857143</ele><time>2026-04-12T09:32:19.768Z</time></trkpt><trkpt lat="45.7525725" lon="11.1964959"><ele>1053.4285714285716</ele><time>2026-04-12T09:32:20.769Z</time></trkpt><trkpt lat="45.7526446" lon="11.1965346"><ele>1054.0</ele><time>2026-04-12T09:32:21.768Z</time></trkpt><trkpt lat="45.7527177" lon="11.1965692"><ele>1054.0</ele><time>2026-04-12T09:32:22.769Z</time></trkpt><trkpt lat="45.7527997" lon="11.1966094"><ele>1054.0</ele><time>2026-04-12T09:32:23.769Z</time></trkpt><trkpt lat="45.7528813" lon="11.1966563"><ele>1054.0</ele><time>2026-04-12T09:32:24.768Z</time></trkpt><trkpt lat="45.7529578" lon="11.1966995"><ele>1054.0</ele><time>2026-04-12T09:32:25.769Z</time></trkpt><trkpt lat="45.7530289" lon="11.1967375"><ele>1054.0</ele><time>2026-04-12T09:32:26.768Z</time></trkpt><trkpt lat="45.7530963" lon="11.1967927"><ele>1054.0</ele><time>2026-04-12T09:32:27.769Z</time></trkpt><trkpt lat="45.7531673" lon="11.1968666"><ele>1054.0</ele><time>2026-04-12T09:32:28.768Z</time></trkpt><trkpt lat="45.7532241" lon="11.1969396"><ele>1054.0</ele><time>2026-04-12T09:32:29.768Z</time></trkpt><trkpt lat="45.7532691" lon="11.1970162"><ele>1054.0</ele><time>2026-04-12T09:32:30.769Z</time></trkpt><trkpt lat="45.7533563" lon="11.1971021"><ele>1054.0</ele><time>2026-04-12T09:32:32.769Z</time></trkpt><trkpt lat="45.7534673" lon="11.1971374"><ele>1054.0</ele><time>2026-04-12T09:32:34.768Z</time></trkpt><trkpt lat="45.7535362" lon="11.1971617"><ele>1054.0</ele><time>2026-04-12T09:32:35.769Z</time></trkpt><trkpt lat="45.7536108" lon="11.1972002"><ele>1054.1666666666665</ele><time>2026-04-12T09:32:36.769Z</time></trkpt><trkpt lat="45.7536876" lon="11.1972507"><ele>1054.3333333333333</ele><time>2026-04-12T09:32:37.769Z</time></trkpt><trkpt lat="45.7537551" lon="11.1973028"><ele>1054.5</ele><time>2026-04-12T09:32:38.769Z</time></trkpt><trkpt lat="45.7538239" lon="11.1973483"><ele>1054.6666666666667</ele><time>2026-04-12T09:32:39.769Z</time></trkpt><trkpt lat="45.7538889" lon="11.1973782"><ele>1054.8333333333335</ele><time>2026-04-12T09:32:40.769Z</time></trkpt><trkpt lat="45.7539618" lon="11.1973872"><ele>1055.0</ele><time>2026-04-12T09:32:41.769Z</time></trkpt><trkpt lat="45.7540366" lon="11.1973677"><ele>1055.0</ele><time>2026-04-12T09:32:42.768Z</time></trkpt><trkpt lat="45.7541039" lon="11.1973314"><ele>1055.0</ele><time>2026-04-12T09:32:43.769Z</time></trkpt><trkpt lat="45.754212" lon="11.197314"><ele>1055.0</ele><time>2026-04-12T09:32:45.769Z</time></trkpt><trkpt lat="45.7542835" lon="11.1974016"><ele>1055.0</ele><time>2026-04-12T09:32:47.768Z</time></trkpt><trkpt lat="45.7543072" lon="11.1976232"><ele>1055.0</ele><time>2026-04-12T09:32:49.768Z</time></trkpt><trkpt lat="45.7543176" lon="11.1977799"><ele>1055.0</ele><time>2026-04-12T09:32:50.768Z</time></trkpt><trkpt lat="45.7543364" lon="11.197914"><ele>1055.0</ele><time>2026-04-12T09:32:51.769Z</time></trkpt><trkpt lat="45.7543378" lon="11.1980454"><ele>1055.0</ele><time>2026-04-12T09:32:52.769Z</time></trkpt><trkpt lat="45.7543346" lon="11.1981524"><ele>1055.0</ele><time>2026-04-12T09:32:53.769Z</time></trkpt><trkpt lat="45.7543115" lon="11.1983104"><ele>1055.0</ele><time>2026-04-12T09:32:55.769Z</time></trkpt><trkpt lat="45.7542447" lon="11.1984024"><ele>1055.1666666666667</ele><time>2026-04-12T09:32:57.769Z</time></trkpt><trkpt lat="45.7541815" lon="11.1984098"><ele>1055.3333333333335</ele><time>2026-04-12T09:32:58.769Z</time></trkpt><trkpt lat="45.7541072" lon="11.1984044"><ele>1055.5</ele><time>2026-04-12T09:32:59.768Z</time></trkpt><trkpt lat="45.7540299" lon="11.1983915"><ele>1055.6666666666667</ele><time>2026-04-12T09:33:00.768Z</time></trkpt><trkpt lat="45.7539617" lon="11.1983777"><ele>1055.8333333333333</ele><time>2026-04-12T09:33:01.769Z</time></trkpt><trkpt lat="45.753858" lon="11.1983882"><ele>1056.0</ele><time>2026-04-12T09:33:03.768Z</time></trkpt><trkpt lat="45.7538255" lon="11.1984781"><ele>1056.0</ele><time>2026-04-12T09:33:06.768Z</time></trkpt><trkpt lat="45.7538891" lon="11.1984694"><ele>1056.0</ele><time>2026-04-12T09:33:08.768Z</time></trkpt><trkpt lat="45.7539995" lon="11.1984194"><ele>1056.0</ele><time>2026-04-12T09:33:10.768Z</time></trkpt><trkpt lat="45.7540633" lon="11.1984148"><ele>1056.0</ele><time>2026-04-12T09:33:11.769Z</time></trkpt><trkpt lat="45.7541271" lon="11.1984228"><ele>1056.0</ele><time>2026-04-12T09:33:12.768Z</time></trkpt><trkpt lat="45.7542482" lon="11.1984516"><ele>1056.0</ele><time>2026-04-12T09:33:14.769Z</time></trkpt><trkpt lat="45.7543157" lon="11.1984611"><ele>1058.1666666666667</ele><time>2026-04-12T09:33:15.769Z</time></trkpt><trkpt lat="45.7543816" lon="11.198465"><ele>1060.3333333333333</ele><time>2026-04-12T09:33:16.769Z</time></trkpt><trkpt lat="45.7544872" lon="11.198454"><ele>1062.5</ele><time>2026-04-12T09:33:18.769Z</time></trkpt><trkpt lat="45.7545597" lon="11.1984676"><ele>1064.6666666666665</ele><time>2026-04-12T09:33:20.768Z</time></trkpt><trkpt lat="45.7546364" lon="11.1985011"><ele>1066.8333333333333</ele><time>2026-04-12T09:33:38.768Z</time></trkpt><trkpt lat="45.754707" lon="11.1984848"><ele>1069.0</ele><time>2026-04-12T09:33:40.768Z</time></trkpt><trkpt lat="45.7548012" lon="11.1984412"><ele>1069.0</ele><time>2026-04-12T09:33:42.768Z</time></trkpt><trkpt lat="45.7549047" lon="11.1983808"><ele>1069.0</ele><time>2026-04-12T09:33:44.769Z</time></trkpt><trkpt lat="45.7550065" lon="11.1983423"><ele>1069.0</ele><time>2026-04-12T09:33:46.768Z</time></trkpt><trkpt lat="45.7550939" lon="11.1983733"><ele>1069.0</ele><time>2026-04-12T09:33:48.769Z</time></trkpt><trkpt lat="45.7551909" lon="11.1984795"><ele>1069.0</ele><time>2026-04-12T09:33:50.769Z</time></trkpt><trkpt lat="45.7552496" lon="11.198529"><ele>1070.0</ele><time>2026-04-12T09:33:51.769Z</time></trkpt><trkpt lat="45.7553222" lon="11.1985718"><ele>1071.0</ele><time>2026-04-12T09:33:52.769Z</time></trkpt><trkpt lat="45.7553875" lon="11.1986182"><ele>1072.0</ele><time>2026-04-12T09:33:53.768Z</time></trkpt><trkpt lat="45.7554541" lon="11.1986657"><ele>1073.0</ele><time>2026-04-12T09:33:54.769Z</time></trkpt><trkpt lat="45.7555106" lon="11.1987226"><ele>1074.0</ele><time>2026-04-12T09:33:55.769Z</time></trkpt><trkpt lat="45.7555971" lon="11.1988191"><ele>1075.0</ele><time>2026-04-12T09:33:57.769Z</time></trkpt><trkpt lat="45.755673" lon="11.1988768"><ele>1075.0</ele><time>2026-04-12T09:33:59.769Z</time></trkpt><trkpt lat="45.7557593" lon="11.1988862"><ele>1075.0</ele><time>2026-04-12T09:34:01.768Z</time></trkpt><trkpt lat="45.7558413" lon="11.1988829"><ele>1075.0</ele><time>2026-04-12T09:34:03.768Z</time></trkpt><trkpt lat="45.7559115" lon="11.1989404"><ele>1075.0</ele><time>2026-04-12T09:34:05.769Z</time></trkpt><trkpt lat="45.755955" lon="11.1990666"><ele>1075.0</ele><time>2026-04-12T09:34:07.768Z</time></trkpt><trkpt lat="45.7559929" lon="11.1992089"><ele>1074.0</ele><time>2026-04-12T09:34:09.768Z</time></trkpt><trkpt lat="45.7560594" lon="11.1993111"><ele>1073.0</ele><time>2026-04-12T09:34:11.768Z</time></trkpt><trkpt lat="45.7561611" lon="11.199399"><ele>1072.0</ele><time>2026-04-12T09:34:13.769Z</time></trkpt><trkpt lat="45.7562605" lon="11.1995125"><ele>1071.0</ele><time>2026-04-12T09:34:15.768Z</time></trkpt><trkpt lat="45.7563408" lon="11.1996272"><ele>1071.0</ele><time>2026-04-12T09:34:17.768Z</time></trkpt><trkpt lat="45.7563953" lon="11.1997577"><ele>1071.0</ele><time>2026-04-12T09:34:19.769Z</time></trkpt><trkpt lat="45.7564546" lon="11.1998772"><ele>1071.0</ele><time>2026-04-12T09:34:21.768Z</time></trkpt><trkpt lat="45.7565409" lon="11.2000035"><ele>1071.0</ele><time>2026-04-12T09:34:23.768Z</time></trkpt><trkpt lat="45.7566094" lon="11.2001421"><ele>1063.5</ele><time>2026-04-12T09:34:25.769Z</time></trkpt><trkpt lat="45.7566551" lon="11.2002923"><ele>1056.0</ele><time>2026-04-12T09:34:27.769Z</time></trkpt><trkpt lat="45.7566643" lon="11.2004435"><ele>1048.5</ele><time>2026-04-12T09:34:29.768Z</time></trkpt><trkpt lat="45.7566515" lon="11.200599"><ele>1041.0</ele><time>2026-04-12T09:34:31.769Z</time></trkpt><trkpt lat="45.7566228" lon="11.2007677"><ele>1037.3999999999999</ele><time>2026-04-12T09:34:33.769Z</time></trkpt><trkpt lat="45.7566406" lon="11.2009391"><ele>1033.8</ele><time>2026-04-12T09:34:35.769Z</time></trkpt><trkpt lat="45.756704" lon="11.2010677"><ele>1030.1999999999998</ele><time>2026-04-12T09:34:37.768Z</time></trkpt><trkpt lat="45.7567973" lon="11.2011463"><ele>1026.6</ele><time>2026-04-12T09:34:39.768Z</time></trkpt><trkpt lat="45.75686" lon="11.2012117"><ele>1023.0</ele><time>2026-04-12T09:34:41.768Z</time></trkpt><trkpt lat="45.7567984" lon="11.2012909"><ele>1023.0</ele><time>2026-04-12T09:34:45.768Z</time></trkpt><trkpt lat="45.7567323" lon="11.2012626"><ele>1023.0</ele><time>2026-04-12T09:34:47.769Z</time></trkpt><trkpt lat="45.7566532" lon="11.2012014"><ele>1023.0</ele><time>2026-04-12T09:34:49.769Z</time></trkpt><trkpt lat="45.7565673" lon="11.2011301"><ele>1023.0</ele><time>2026-04-12T09:34:51.768Z</time></trkpt><trkpt lat="45.7564993" lon="11.2010397"><ele>1023.0</ele><time>2026-04-12T09:34:53.769Z</time></trkpt><trkpt lat="45.7564567" lon="11.2009247"><ele>1023.0</ele><time>2026-04-12T09:34:55.768Z</time></trkpt><trkpt lat="45.7564062" lon="11.2007862"><ele>1026.6</ele><time>2026-04-12T09:34:57.768Z</time></trkpt><trkpt lat="45.7563688" lon="11.2006383"><ele>1030.1999999999998</ele><time>2026-04-12T09:34:59.768Z</time></trkpt><trkpt lat="45.756343" lon="11.200502"><ele>1033.8</ele><time>2026-04-12T09:35:01.768Z</time></trkpt><trkpt lat="45.7562858" lon="11.2004026"><ele>1037.3999999999999</ele><time>2026-04-12T09:35:03.768Z</time></trkpt><trkpt lat="45.7562126" lon="11.2003928"><ele>1041.0</ele><time>2026-04-12T09:35:05.768Z</time></trkpt><trkpt lat="45.7561127" lon="11.2004749"><ele>1041.0</ele><time>2026-04-12T09:35:07.767Z</time></trkpt><trkpt lat="45.7560579" lon="11.2005503"><ele>1041.0</ele><time>2026-04-12T09:35:08.768Z</time></trkpt><trkpt lat="45.7560071" lon="11.2006218"><ele>1041.0</ele><time>2026-04-12T09:35:09.768Z</time></trkpt><trkpt lat="45.7559613" lon="11.2006898"><ele>1041.0</ele><time>2026-04-12T09:35:10.767Z</time></trkpt><trkpt lat="45.7558791" lon="11.2008026"><ele>1041.0</ele><time>2026-04-12T09:35:12.768Z</time></trkpt><trkpt lat="45.7557986" lon="11.2008796"><ele>1041.0</ele><time>2026-04-12T09:35:14.768Z</time></trkpt><trkpt lat="45.7557173" lon="11.2009054"><ele>1038.0</ele><time>2026-04-12T09:35:16.768Z</time></trkpt><trkpt lat="45.7556148" lon="11.2009197"><ele>1035.0</ele><time>2026-04-12T09:35:18.767Z</time></trkpt><trkpt lat="45.7555076" lon="11.2008764"><ele>1032.0</ele><time>2026-04-12T09:35:20.768Z</time></trkpt><trkpt lat="45.7554106" lon="11.2007655"><ele>1029.0</ele><time>2026-04-12T09:35:22.768Z</time></trkpt><trkpt lat="45.7553165" lon="11.2006573"><ele>1029.0</ele><time>2026-04-12T09:35:24.768Z</time></trkpt><trkpt lat="45.7552311" lon="11.2006113"><ele>1029.0</ele><time>2026-04-12T09:35:26.767Z</time></trkpt><trkpt lat="45.7551477" lon="11.2006365"><ele>1029.0</ele><time>2026-04-12T09:35:28.768Z</time></trkpt><trkpt lat="45.7550838" lon="11.2006937"><ele>1029.0</ele><time>2026-04-12T09:35:30.767Z</time></trkpt><trkpt lat="45.7550368" lon="11.2007963"><ele>1029.0</ele><time>2026-04-12T09:35:32.767Z</time></trkpt><trkpt lat="45.7549923" lon="11.2009327"><ele>1029.0</ele><time>2026-04-12T09:35:34.768Z</time></trkpt><trkpt lat="45.7549582" lon="11.201075"><ele>1024.4</ele><time>2026-04-12T09:35:36.768Z</time></trkpt><trkpt lat="45.7549196" lon="11.2012426"><ele>1019.8000000000001</ele><time>2026-04-12T09:35:38.767Z</time></trkpt><trkpt lat="45.7549035" lon="11.2013302"><ele>1015.1999999999999</ele><time>2026-04-12T09:35:39.768Z</time></trkpt><trkpt lat="45.7548796" lon="11.2015026"><ele>1010.5999999999999</ele><time>2026-04-12T09:35:41.768Z</time></trkpt><trkpt lat="45.7548783" lon="11.2015952"><ele>1006.0</ele><time>2026-04-12T09:35:42.767Z</time></trkpt><trkpt lat="45.754867" lon="11.201755"><ele>999.5</ele><time>2026-04-12T09:35:44.768Z</time></trkpt><trkpt lat="45.754816" lon="11.2018883"><ele>993.0</ele><time>2026-04-12T09:35:46.768Z</time></trkpt><trkpt lat="45.7547445" lon="11.2020118"><ele>986.5</ele><time>2026-04-12T09:35:48.767Z</time></trkpt><trkpt lat="45.7546928" lon="11.2021574"><ele>980.0</ele><time>2026-04-12T09:35:50.767Z</time></trkpt><trkpt lat="45.7546497" lon="11.2023235"><ele>976.0</ele><time>2026-04-12T09:35:52.767Z</time></trkpt><trkpt lat="45.7545949" lon="11.2024664"><ele>972.0</ele><time>2026-04-12T09:35:54.768Z</time></trkpt><trkpt lat="45.7545681" lon="11.2025487"><ele>968.0</ele><time>2026-04-12T09:35:55.768Z</time></trkpt><trkpt lat="45.7545383" lon="11.2026288"><ele>964.0</ele><time>2026-04-12T09:35:56.768Z</time></trkpt><trkpt lat="45.7544758" lon="11.2027625"><ele>960.0</ele><time>2026-04-12T09:35:58.767Z</time></trkpt><trkpt lat="45.7544158" lon="11.2028731"><ele>960.0</ele><time>2026-04-12T09:36:00.768Z</time></trkpt><trkpt lat="45.7543449" lon="11.2029362"><ele>960.0</ele><time>2026-04-12T09:36:02.768Z</time></trkpt><trkpt lat="45.7542676" lon="11.2029559"><ele>960.0</ele><time>2026-04-12T09:36:04.768Z</time></trkpt><trkpt lat="45.7541828" lon="11.2029754"><ele>960.0</ele><time>2026-04-12T09:36:07.768Z</time></trkpt><trkpt lat="45.7541936" lon="11.2030725"><ele>960.0</ele><time>2026-04-12T09:36:12.768Z</time></trkpt><trkpt lat="45.7542838" lon="11.2030918"><ele>960.0</ele><time>2026-04-12T09:36:14.767Z</time></trkpt><trkpt lat="45.754383" lon="11.203081"><ele>960.0</ele><time>2026-04-12T09:36:16.767Z</time></trkpt><trkpt lat="45.754455" lon="11.2030733"><ele>960.0</ele><time>2026-04-12T09:36:18.768Z</time></trkpt><trkpt lat="45.7544847" lon="11.2031841"><ele>960.0</ele><time>2026-04-12T09:36:21.767Z</time></trkpt><trkpt lat="45.7544005" lon="11.2032424"><ele>960.0</ele><time>2026-04-12T09:36:24.768Z</time></trkpt><trkpt lat="45.7543026" lon="11.2032396"><ele>960.0</ele><time>2026-04-12T09:36:26.767Z</time></trkpt><trkpt lat="45.7542218" lon="11.2032562"><ele>960.0</ele><time>2026-04-12T09:36:28.768Z</time></trkpt><trkpt lat="45.7542015" lon="11.2033552"><ele>958.0</ele><time>2026-04-12T09:36:31.767Z</time></trkpt><trkpt lat="45.7542657" lon="11.203423"><ele>956.0</ele><time>2026-04-12T09:36:33.768Z</time></trkpt><trkpt lat="45.7543483" lon="11.2035042"><ele>954.0</ele><time>2026-04-12T09:36:35.767Z</time></trkpt><trkpt lat="45.7544306" lon="11.2035924"><ele>952.0</ele><time>2026-04-12T09:36:37.768Z</time></trkpt><trkpt lat="45.7544974" lon="11.2036409"><ele>950.0</ele><time>2026-04-12T09:36:39.768Z</time></trkpt><trkpt lat="45.7544306" lon="11.2036839"><ele>948.0</ele><time>2026-04-12T09:36:56.767Z</time></trkpt><trkpt lat="45.7543407" lon="11.2036323"><ele>948.0</ele><time>2026-04-12T09:36:58.768Z</time></trkpt><trkpt lat="45.7542691" lon="11.2035866"><ele>948.0</ele><time>2026-04-12T09:37:00.768Z</time></trkpt><trkpt lat="45.7542471" lon="11.2036796"><ele>948.0</ele><time>2026-04-12T09:37:07.768Z</time></trkpt><trkpt lat="45.7543137" lon="11.203758"><ele>948.0</ele><time>2026-04-12T09:37:09.767Z</time></trkpt><trkpt lat="45.7543796" lon="11.203832"><ele>948.0</ele><time>2026-04-12T09:37:11.768Z</time></trkpt><trkpt lat="45.7544425" lon="11.2039306"><ele>948.0</ele><time>2026-04-12T09:37:14.767Z</time></trkpt><trkpt lat="45.7545029" lon="11.2039809"><ele>948.0</ele><time>2026-04-12T09:37:16.768Z</time></trkpt><trkpt lat="45.7545618" lon="11.2040298"><ele>948.0</ele><time>2026-04-12T09:37:19.767Z</time></trkpt><trkpt lat="45.7544923" lon="11.2040494"><ele>948.0</ele><time>2026-04-12T09:37:25.767Z</time></trkpt><trkpt lat="45.75443" lon="11.2040087"><ele>948.0</ele><time>2026-04-12T09:37:27.767Z</time></trkpt><trkpt lat="45.7543565" lon="11.2039623"><ele>948.0</ele><time>2026-04-12T09:37:29.767Z</time></trkpt><trkpt lat="45.7542651" lon="11.2039191"><ele>948.0</ele><time>2026-04-12T09:37:31.768Z</time></trkpt><trkpt lat="45.7541715" lon="11.2038901"><ele>948.0</ele><time>2026-04-12T09:37:33.768Z</time></trkpt><trkpt lat="45.754087" lon="11.2038905"><ele>948.0</ele><time>2026-04-12T09:37:35.767Z</time></trkpt><trkpt lat="45.7539943" lon="11.2039332"><ele>948.0</ele><time>2026-04-12T09:37:37.768Z</time></trkpt><trkpt lat="45.753888" lon="11.2039959"><ele>948.0</ele><time>2026-04-12T09:37:39.767Z</time></trkpt><trkpt lat="45.7537879" lon="11.204064"><ele>948.0</ele><time>2026-04-12T09:37:41.767Z</time></trkpt><trkpt lat="45.7537119" lon="11.2041472"><ele>945.2</ele><time>2026-04-12T09:37:43.768Z</time></trkpt><trkpt lat="45.7536554" lon="11.2042658"><ele>942.4</ele><time>2026-04-12T09:37:45.768Z</time></trkpt><trkpt lat="45.7535981" lon="11.2043793"><ele>939.6000000000001</ele><time>2026-04-12T09:37:47.768Z</time></trkpt><trkpt lat="45.7535622" lon="11.2045114"><ele>936.8000000000001</ele><time>2026-04-12T09:37:49.768Z</time></trkpt><trkpt lat="45.753538" lon="11.204654"><ele>934.0</ele><time>2026-04-12T09:37:51.767Z</time></trkpt><trkpt lat="45.7535276" lon="11.2047576"><ele>929.1666666666666</ele><time>2026-04-12T09:37:53.768Z</time></trkpt><trkpt lat="45.7535018" lon="11.2048681"><ele>924.3333333333333</ele><time>2026-04-12T09:37:57.768Z</time></trkpt><trkpt lat="45.7534709" lon="11.2049739"><ele>919.5</ele><time>2026-04-12T09:38:00.768Z</time></trkpt><trkpt lat="45.7534334" lon="11.2050548"><ele>914.6666666666667</ele><time>2026-04-12T09:38:02.768Z</time></trkpt><trkpt lat="45.7533761" lon="11.2051614"><ele>909.8333333333334</ele><time>2026-04-12T09:38:04.768Z</time></trkpt><trkpt lat="45.7533292" lon="11.2052717"><ele>905.0</ele><time>2026-04-12T09:38:06.767Z</time></trkpt><trkpt lat="45.7532911" lon="11.2054166"><ele>905.0000000000001</ele><time>2026-04-12T09:38:08.768Z</time></trkpt><trkpt lat="45.7532638" lon="11.2055021"><ele>905.0</ele><time>2026-04-12T09:38:09.768Z</time></trkpt><trkpt lat="45.7532294" lon="11.2056785"><ele>905.0</ele><time>2026-04-12T09:38:11.768Z</time></trkpt><trkpt lat="45.7532091" lon="11.2057862"><ele>905.0</ele><time>2026-04-12T09:38:12.767Z</time></trkpt><trkpt lat="45.7531816" lon="11.2058935"><ele>905.0000000000001</ele><time>2026-04-12T09:38:13.767Z</time></trkpt><trkpt lat="45.7531488" lon="11.2060038"><ele>905.0</ele><time>2026-04-12T09:38:14.768Z</time></trkpt><trkpt lat="45.7531231" lon="11.2061042"><ele>900.5000000000001</ele><time>2026-04-12T09:38:15.768Z</time></trkpt><trkpt lat="45.7531018" lon="11.2061902"><ele>896.0</ele><time>2026-04-12T09:38:16.768Z</time></trkpt><trkpt lat="45.7530596" lon="11.2063149"><ele>891.5</ele><time>2026-04-12T09:38:18.768Z</time></trkpt><trkpt lat="45.7530344" lon="11.2064015"><ele>887.0</ele><time>2026-04-12T09:38:21.768Z</time></trkpt><trkpt lat="45.753014" lon="11.2065289"><ele>882.5000000000001</ele><time>2026-04-12T09:38:31.768Z</time></trkpt><trkpt lat="45.7529912" lon="11.206617"><ele>878.0</ele><time>2026-04-12T09:38:33.767Z</time></trkpt><trkpt lat="45.7529398" lon="11.2066871"><ele>878.4</ele><time>2026-04-12T09:38:35.768Z</time></trkpt><trkpt lat="45.7528882" lon="11.2067841"><ele>878.8</ele><time>2026-04-12T09:38:37.768Z</time></trkpt><trkpt lat="45.7528353" lon="11.20689"><ele>879.2</ele><time>2026-04-12T09:38:39.768Z</time></trkpt><trkpt lat="45.752778" lon="11.2069757"><ele>879.6</ele><time>2026-04-12T09:38:41.767Z</time></trkpt><trkpt lat="45.7527052" lon="11.2070669"><ele>880.0</ele><time>2026-04-12T09:38:43.768Z</time></trkpt><trkpt lat="45.7526286" lon="11.2071657"><ele>879.9999999999999</ele><time>2026-04-12T09:38:45.767Z</time></trkpt><trkpt lat="45.7525414" lon="11.2072351"><ele>880.0</ele><time>2026-04-12T09:38:47.767Z</time></trkpt><trkpt lat="45.7524652" lon="11.2072694"><ele>880.0</ele><time>2026-04-12T09:38:49.767Z</time></trkpt><trkpt lat="45.752397" lon="11.2073122"><ele>880.0</ele><time>2026-04-12T09:38:51.768Z</time></trkpt><trkpt lat="45.752372" lon="11.2074182"><ele>879.9999999999999</ele><time>2026-04-12T09:38:54.767Z</time></trkpt><trkpt lat="45.7524348" lon="11.2074119"><ele>880.0</ele><time>2026-04-12T09:38:57.767Z</time></trkpt><trkpt lat="45.7525223" lon="11.2073807"><ele>875.8</ele><time>2026-04-12T09:38:59.768Z</time></trkpt><trkpt lat="45.7526334" lon="11.2073382"><ele>871.6</ele><time>2026-04-12T09:39:01.768Z</time></trkpt><trkpt lat="45.7527437" lon="11.2072977"><ele>867.4000000000001</ele><time>2026-04-12T09:39:03.767Z</time></trkpt><trkpt lat="45.7528367" lon="11.2072712"><ele>863.2</ele><time>2026-04-12T09:39:05.768Z</time></trkpt><trkpt lat="45.7529389" lon="11.2072572"><ele>859.0</ele><time>2026-04-12T09:39:07.768Z</time></trkpt><trkpt lat="45.7530443" lon="11.2072115"><ele>859.0</ele><time>2026-04-12T09:39:09.767Z</time></trkpt><trkpt lat="45.7531307" lon="11.2071313"><ele>859.0000000000001</ele><time>2026-04-12T09:39:11.768Z</time></trkpt><trkpt lat="45.7531968" lon="11.2070312"><ele>859.0000000000001</ele><time>2026-04-12T09:39:13.768Z</time></trkpt><trkpt lat="45.7532449" lon="11.2069297"><ele>859.0</ele><time>2026-04-12T09:39:15.768Z</time></trkpt><trkpt lat="45.7533024" lon="11.2068781"><ele>859.0</ele><time>2026-04-12T09:39:17.768Z</time></trkpt><trkpt lat="45.7533856" lon="11.2068052"><ele>858.9999999999999</ele><time>2026-04-12T09:39:20.768Z</time></trkpt><trkpt lat="45.7534676" lon="11.2067425"><ele>859.0</ele><time>2026-04-12T09:39:22.767Z</time></trkpt><trkpt lat="45.753523" lon="11.2066838"><ele>859.0</ele><time>2026-04-12T09:39:24.767Z</time></trkpt><trkpt lat="45.7535572" lon="11.206593"><ele>859.0</ele><time>2026-04-12T09:39:27.768Z</time></trkpt><trkpt lat="45.7535796" lon="11.2064902"><ele>858.9999999999999</ele><time>2026-04-12T09:39:30.767Z</time></trkpt><trkpt lat="45.7536101" lon="11.2063856"><ele>859.0</ele><time>2026-04-12T09:39:32.767Z</time></trkpt><trkpt lat="45.7536698" lon="11.2063048"><ele>856.4000000000001</ele><time>2026-04-12T09:39:34.767Z</time></trkpt><trkpt lat="45.753737" lon="11.2062062"><ele>853.8000000000001</ele><time>2026-04-12T09:39:36.768Z</time></trkpt><trkpt lat="45.7538105" lon="11.206073"><ele>851.2</ele><time>2026-04-12T09:39:38.768Z</time></trkpt><trkpt lat="45.7538552" lon="11.206009"><ele>848.5999999999999</ele><time>2026-04-12T09:39:39.767Z</time></trkpt><trkpt lat="45.7539506" lon="11.2059008"><ele>846.0</ele><time>2026-04-12T09:39:41.768Z</time></trkpt><trkpt lat="45.7540387" lon="11.2057929"><ele>846.0</ele><time>2026-04-12T09:39:43.767Z</time></trkpt><trkpt lat="45.7540898" lon="11.2056889"><ele>846.0</ele><time>2026-04-12T09:39:45.766Z</time></trkpt><trkpt lat="45.7541333" lon="11.2056014"><ele>846.0</ele><time>2026-04-12T09:39:47.766Z</time></trkpt><trkpt lat="45.7542148" lon="11.2055921"><ele>846.0</ele><time>2026-04-12T09:39:50.766Z</time></trkpt><trkpt lat="45.7542743" lon="11.2056655"><ele>846.0</ele><time>2026-04-12T09:39:52.767Z</time></trkpt><trkpt lat="45.7543309" lon="11.2057863"><ele>846.0</ele><time>2026-04-12T09:39:54.766Z</time></trkpt><trkpt lat="45.7543691" lon="11.2059264"><ele>848.4</ele><time>2026-04-12T09:39:56.767Z</time></trkpt><trkpt lat="45.7543788" lon="11.2060749"><ele>850.8</ele><time>2026-04-12T09:39:58.767Z</time></trkpt><trkpt lat="45.7544305" lon="11.2061905"><ele>853.1999999999999</ele><time>2026-04-12T09:40:00.767Z</time></trkpt><trkpt lat="45.7545068" lon="11.2062704"><ele>855.5999999999999</ele><time>2026-04-12T09:40:02.767Z</time></trkpt><trkpt lat="45.7546176" lon="11.206357"><ele>858.0</ele><time>2026-04-12T09:40:04.767Z</time></trkpt><trkpt lat="45.7546819" lon="11.2063976"><ele>858.0</ele><time>2026-04-12T09:40:05.767Z</time></trkpt><trkpt lat="45.7547417" lon="11.2064373"><ele>858.0</ele><time>2026-04-12T09:40:06.767Z</time></trkpt><trkpt lat="45.7548364" lon="11.2065097"><ele>858.0</ele><time>2026-04-12T09:40:08.767Z</time></trkpt><trkpt lat="45.7549246" lon="11.2065833"><ele>858.0</ele><time>2026-04-12T09:40:10.767Z</time></trkpt><trkpt lat="45.754998" lon="11.2066401"><ele>858.0</ele><time>2026-04-12T09:40:12.767Z</time></trkpt><trkpt lat="45.7550214" lon="11.2067518"><ele>858.0</ele><time>2026-04-12T09:40:14.767Z</time></trkpt><trkpt lat="45.7550172" lon="11.2068724"><ele>852.5</ele><time>2026-04-12T09:40:16.767Z</time></trkpt><trkpt lat="45.7550239" lon="11.2069924"><ele>847.0</ele><time>2026-04-12T09:40:18.767Z</time></trkpt><trkpt lat="45.7550766" lon="11.2071326"><ele>841.5</ele><time>2026-04-12T09:40:20.767Z</time></trkpt><trkpt lat="45.7551081" lon="11.207211"><ele>836.0</ele><time>2026-04-12T09:40:21.767Z</time></trkpt><trkpt lat="45.7551374" lon="11.2072975"><ele>830.5</ele><time>2026-04-12T09:40:22.767Z</time></trkpt><trkpt lat="45.7551635" lon="11.2073847"><ele>825.0</ele><time>2026-04-12T09:40:23.767Z</time></trkpt><trkpt lat="45.7551971" lon="11.2074896"><ele>823.5714285714286</ele><time>2026-04-12T09:40:24.767Z</time></trkpt><trkpt lat="45.7552154" lon="11.2075878"><ele>822.1428571428572</ele><time>2026-04-12T09:40:25.766Z</time></trkpt><trkpt lat="45.755225" lon="11.2076864"><ele>820.7142857142858</ele><time>2026-04-12T09:40:26.766Z</time></trkpt><trkpt lat="45.7552292" lon="11.2077992"><ele>819.2857142857142</ele><time>2026-04-12T09:40:27.767Z</time></trkpt><trkpt lat="45.7552307" lon="11.2079096"><ele>817.8571428571429</ele><time>2026-04-12T09:40:28.766Z</time></trkpt><trkpt lat="45.7552276" lon="11.20802"><ele>816.4285714285714</ele><time>2026-04-12T09:40:29.767Z</time></trkpt><trkpt lat="45.7552334" lon="11.208128"><ele>815.0</ele><time>2026-04-12T09:40:30.766Z</time></trkpt><trkpt lat="45.7552501" lon="11.2082368"><ele>812.3333333333334</ele><time>2026-04-12T09:40:31.767Z</time></trkpt><trkpt lat="45.7552795" lon="11.2083427"><ele>809.6666666666667</ele><time>2026-04-12T09:40:32.767Z</time></trkpt><trkpt lat="45.7553141" lon="11.208444"><ele>807.0</ele><time>2026-04-12T09:40:33.767Z</time></trkpt><trkpt lat="45.7553519" lon="11.2085577"><ele>804.3333333333333</ele><time>2026-04-12T09:40:34.767Z</time></trkpt><trkpt lat="45.7553958" lon="11.2086637"><ele>801.6666666666666</ele><time>2026-04-12T09:40:35.766Z</time></trkpt><trkpt lat="45.75543" lon="11.2087597"><ele>799.0</ele><time>2026-04-12T09:40:36.767Z</time></trkpt><trkpt lat="45.755469" lon="11.2088338"><ele>799.0</ele><time>2026-04-12T09:40:37.767Z</time></trkpt><trkpt lat="45.7555539" lon="11.208933"><ele>799.0</ele><time>2026-04-12T09:40:39.766Z</time></trkpt><trkpt lat="45.7556635" lon="11.208981"><ele>799.0</ele><time>2026-04-12T09:40:41.767Z</time></trkpt><trkpt lat="45.7557309" lon="11.2090012"><ele>799.0</ele><time>2026-04-12T09:40:42.766Z</time></trkpt><trkpt lat="45.7558" lon="11.2090115"><ele>799.0</ele><time>2026-04-12T09:40:43.766Z</time></trkpt><trkpt lat="45.7559146" lon="11.2090295"><ele>796.6666666666666</ele><time>2026-04-12T09:40:45.767Z</time></trkpt><trkpt lat="45.7560255" lon="11.2090336"><ele>794.3333333333333</ele><time>2026-04-12T09:40:47.767Z</time></trkpt><trkpt lat="45.7561241" lon="11.2090416"><ele>792.0</ele><time>2026-04-12T09:40:49.767Z</time></trkpt><trkpt lat="45.7561896" lon="11.2090634"><ele>789.6666666666667</ele><time>2026-04-12T09:40:51.766Z</time></trkpt><trkpt lat="45.7562711" lon="11.2091042"><ele>787.3333333333334</ele><time>2026-04-12T09:40:54.767Z</time></trkpt><trkpt lat="45.7563339" lon="11.2091346"><ele>785.0</ele><time>2026-04-12T09:40:57.767Z</time></trkpt><trkpt lat="45.7563984" lon="11.2091638"><ele>785.0</ele><time>2026-04-12T09:41:07.767Z</time></trkpt><trkpt lat="45.7564457" lon="11.2092326"><ele>785.0</ele><time>2026-04-12T09:41:10.767Z</time></trkpt></trkseg><trkseg><trkpt lat="45.7564804" lon="11.2091651"><ele>785.0</ele><time>2026-04-12T10:05:24.762Z</time></trkpt><trkpt lat="45.756569" lon="11.2092262"><ele>785.0</ele><time>2026-04-12T10:06:18.76Z</time></trkpt><trkpt lat="45.7566872" lon="11.209293"><ele>785.0</ele><time>2026-04-12T10:06:20.761Z</time></trkpt><trkpt lat="45.7567505" lon="11.2093138"><ele>785.0</ele><time>2026-04-12T10:06:21.761Z</time></trkpt><trkpt lat="45.7568713" lon="11.2093342"><ele>785.0</ele><time>2026-04-12T10:06:23.761Z</time></trkpt><trkpt lat="45.7569804" lon="11.209307"><ele>781.4</ele><time>2026-04-12T10:06:25.76Z</time></trkpt><trkpt lat="45.7570771" lon="11.2092493"><ele>777.8</ele><time>2026-04-12T10:06:27.761Z</time></trkpt><trkpt lat="45.7571538" lon="11.2091773"><ele>774.2</ele><time>2026-04-12T10:06:29.76Z</time></trkpt><trkpt lat="45.7571885" lon="11.2090835"><ele>770.6</ele><time>2026-04-12T10:06:31.761Z</time></trkpt><trkpt lat="45.7571903" lon="11.2089291"><ele>767.0</ele><time>2026-04-12T10:06:33.761Z</time></trkpt><trkpt lat="45.7571794" lon="11.2088266"><ele>766.8571428571429</ele><time>2026-04-12T10:06:34.761Z</time></trkpt><trkpt lat="45.7571692" lon="11.2087267"><ele>766.7142857142858</ele><time>2026-04-12T10:06:35.761Z</time></trkpt><trkpt lat="45.7571623" lon="11.2086248"><ele>766.5714285714286</ele><time>2026-04-12T10:06:36.761Z</time></trkpt><trkpt lat="45.7571598" lon="11.2085273"><ele>766.4285714285714</ele><time>2026-04-12T10:06:37.76Z</time></trkpt><trkpt lat="45.7571526" lon="11.2084328"><ele>766.2857142857142</ele><time>2026-04-12T10:06:38.761Z</time></trkpt><trkpt lat="45.7571421" lon="11.2083319"><ele>766.1428571428571</ele><time>2026-04-12T10:06:39.761Z</time></trkpt><trkpt lat="45.7571285" lon="11.2082329"><ele>766.0</ele><time>2026-04-12T10:06:40.761Z</time></trkpt><trkpt lat="45.7571152" lon="11.2081374"><ele>764.8333333333334</ele><time>2026-04-12T10:06:41.76Z</time></trkpt><trkpt lat="45.7571089" lon="11.2080441"><ele>763.6666666666667</ele><time>2026-04-12T10:06:42.761Z</time></trkpt><trkpt lat="45.757075" lon="11.2078708"><ele>762.5</ele><time>2026-04-12T10:06:44.761Z</time></trkpt><trkpt lat="45.757037" lon="11.2077846"><ele>761.3333333333334</ele><time>2026-04-12T10:06:45.76Z</time></trkpt><trkpt lat="45.7570011" lon="11.2077098"><ele>760.1666666666666</ele><time>2026-04-12T10:06:46.76Z</time></trkpt><trkpt lat="45.7569315" lon="11.2075837"><ele>759.0</ele><time>2026-04-12T10:06:48.761Z</time></trkpt><trkpt lat="45.7569029" lon="11.2074181"><ele>758.8333333333334</ele><time>2026-04-12T10:06:50.761Z</time></trkpt><trkpt lat="45.7569026" lon="11.2073257"><ele>758.6666666666666</ele><time>2026-04-12T10:06:51.761Z</time></trkpt><trkpt lat="45.7569003" lon="11.2072352"><ele>758.5</ele><time>2026-04-12T10:06:52.761Z</time></trkpt><trkpt lat="45.7569129" lon="11.2070805"><ele>758.3333333333333</ele><time>2026-04-12T10:06:54.761Z</time></trkpt><trkpt lat="45.7569512" lon="11.2069567"><ele>758.1666666666666</ele><time>2026-04-12T10:06:56.761Z</time></trkpt><trkpt lat="45.7570239" lon="11.2069106"><ele>758.0</ele><time>2026-04-12T10:06:58.76Z</time></trkpt><trkpt lat="45.7571141" lon="11.2069159"><ele>758.0</ele><time>2026-04-12T10:07:00.761Z</time></trkpt><trkpt lat="45.7571788" lon="11.2068683"><ele>758.0</ele><time>2026-04-12T10:07:02.761Z</time></trkpt><trkpt lat="45.7572596" lon="11.2067753"><ele>758.0</ele><time>2026-04-12T10:07:04.76Z</time></trkpt><trkpt lat="45.7573302" lon="11.2066272"><ele>758.0</ele><time>2026-04-12T10:07:06.761Z</time></trkpt><trkpt lat="45.7573587" lon="11.2065343"><ele>758.0</ele><time>2026-04-12T10:07:07.76Z</time></trkpt><trkpt lat="45.7573874" lon="11.2064457"><ele>758.0</ele><time>2026-04-12T10:07:08.761Z</time></trkpt><trkpt lat="45.757444" lon="11.2062959"><ele>755.6666666666666</ele><time>2026-04-12T10:07:10.761Z</time></trkpt><trkpt lat="45.7574912" lon="11.2062111"><ele>753.3333333333333</ele><time>2026-04-12T10:07:11.761Z</time></trkpt><trkpt lat="45.7575405" lon="11.2061257"><ele>751.0</ele><time>2026-04-12T10:07:12.76Z</time></trkpt><trkpt lat="45.7575924" lon="11.2060449"><ele>748.6666666666666</ele><time>2026-04-12T10:07:13.76Z</time></trkpt><trkpt lat="45.7576399" lon="11.2059758"><ele>746.3333333333334</ele><time>2026-04-12T10:07:14.76Z</time></trkpt><trkpt lat="45.7577356" lon="11.2058803"><ele>744.0</ele><time>2026-04-12T10:07:16.761Z</time></trkpt><trkpt lat="45.7577979" lon="11.2058582"><ele>744.0000000000001</ele><time>2026-04-12T10:07:17.761Z</time></trkpt><trkpt lat="45.7578674" lon="11.2058574"><ele>744.0</ele><time>2026-04-12T10:07:18.761Z</time></trkpt><trkpt lat="45.7579428" lon="11.2058694"><ele>744.0</ele><time>2026-04-12T10:07:19.76Z</time></trkpt><trkpt lat="45.7580147" lon="11.2058812"><ele>744.0</ele><time>2026-04-12T10:07:20.761Z</time></trkpt><trkpt lat="45.758089" lon="11.2058822"><ele>744.0</ele><time>2026-04-12T10:07:21.76Z</time></trkpt><trkpt lat="45.7581628" lon="11.2058668"><ele>744.0000000000001</ele><time>2026-04-12T10:07:22.761Z</time></trkpt><trkpt lat="45.7582363" lon="11.2058446"><ele>744.0</ele><time>2026-04-12T10:07:23.761Z</time></trkpt><trkpt lat="45.7582995" lon="11.2058123"><ele>744.0</ele><time>2026-04-12T10:07:24.761Z</time></trkpt><trkpt lat="45.7583996" lon="11.2057334"><ele>744.0</ele><time>2026-04-12T10:07:26.761Z</time></trkpt><trkpt lat="45.758465" lon="11.2056358"><ele>744.0</ele><time>2026-04-12T10:07:28.761Z</time></trkpt><trkpt lat="45.7584994" lon="11.205557"><ele>744.0</ele><time>2026-04-12T10:07:30.76Z</time></trkpt><trkpt lat="45.7585571" lon="11.2056257"><ele>744.0</ele><time>2026-04-12T10:07:47.76Z</time></trkpt><trkpt lat="45.7585296" lon="11.2057218"><ele>744.0</ele><time>2026-04-12T10:07:49.761Z</time></trkpt><trkpt lat="45.7584488" lon="11.205895"><ele>744.0</ele><time>2026-04-12T10:07:51.761Z</time></trkpt><trkpt lat="45.758388" lon="11.2060067"><ele>744.0</ele><time>2026-04-12T10:07:52.761Z</time></trkpt><trkpt lat="45.7583167" lon="11.2061121"><ele>744.0</ele><time>2026-04-12T10:07:53.761Z</time></trkpt><trkpt lat="45.7582361" lon="11.2062175"><ele>744.0</ele><time>2026-04-12T10:07:54.761Z</time></trkpt><trkpt lat="45.758162" lon="11.2063117"><ele>744.0</ele><time>2026-04-12T10:07:55.761Z</time></trkpt><trkpt lat="45.7581113" lon="11.2063906"><ele>744.0</ele><time>2026-04-12T10:07:56.761Z</time></trkpt><trkpt lat="45.7580794" lon="11.2064691"><ele>744.0</ele><time>2026-04-12T10:07:57.761Z</time></trkpt><trkpt lat="45.7581404" lon="11.2065801"><ele>744.0</ele><time>2026-04-12T10:07:59.76Z</time></trkpt><trkpt lat="45.7582147" lon="11.2065726"><ele>744.0</ele><time>2026-04-12T10:08:00.76Z</time></trkpt><trkpt lat="45.7582897" lon="11.2065227"><ele>744.0</ele><time>2026-04-12T10:08:01.761Z</time></trkpt><trkpt lat="45.758367" lon="11.2064424"><ele>744.0</ele><time>2026-04-12T10:08:02.761Z</time></trkpt><trkpt lat="45.7584492" lon="11.2063356"><ele>744.0</ele><time>2026-04-12T10:08:03.761Z</time></trkpt><trkpt lat="45.7585289" lon="11.2062254"><ele>744.0</ele><time>2026-04-12T10:08:04.761Z</time></trkpt><trkpt lat="45.7586119" lon="11.2061158"><ele>744.0</ele><time>2026-04-12T10:08:05.76Z</time></trkpt><trkpt lat="45.758694" lon="11.2060065"><ele>744.0</ele><time>2026-04-12T10:08:06.761Z</time></trkpt><trkpt lat="45.7587754" lon="11.2059005"><ele>744.0</ele><time>2026-04-12T10:08:07.76Z</time></trkpt><trkpt lat="45.7588635" lon="11.2057979"><ele>742.25</ele><time>2026-04-12T10:08:08.761Z</time></trkpt><trkpt lat="45.7589519" lon="11.2056901"><ele>740.5</ele><time>2026-04-12T10:08:09.76Z</time></trkpt><trkpt lat="45.7590418" lon="11.2055799"><ele>738.75</ele><time>2026-04-12T10:08:10.761Z</time></trkpt><trkpt lat="45.7591397" lon="11.2054732"><ele>737.0</ele><time>2026-04-12T10:08:11.761Z</time></trkpt><trkpt lat="45.7592387" lon="11.2053604"><ele>737.0</ele><time>2026-04-12T10:08:12.761Z</time></trkpt><trkpt lat="45.7593387" lon="11.2052456"><ele>737.0</ele><time>2026-04-12T10:08:13.76Z</time></trkpt><trkpt lat="45.7594361" lon="11.2051279"><ele>737.0</ele><time>2026-04-12T10:08:14.761Z</time></trkpt><trkpt lat="45.7595314" lon="11.2050137"><ele>737.0</ele><time>2026-04-12T10:08:15.76Z</time></trkpt><trkpt lat="45.7596135" lon="11.2049085"><ele>737.0</ele><time>2026-04-12T10:08:16.761Z</time></trkpt><trkpt lat="45.7596877" lon="11.2048077"><ele>737.0</ele><time>2026-04-12T10:08:17.76Z</time></trkpt><trkpt lat="45.7597538" lon="11.2047301"><ele>737.0</ele><time>2026-04-12T10:08:18.76Z</time></trkpt><trkpt lat="45.7598204" lon="11.2046675"><ele>737.0</ele><time>2026-04-12T10:08:19.76Z</time></trkpt><trkpt lat="45.7598824" lon="11.2046173"><ele>737.0</ele><time>2026-04-12T10:08:20.761Z</time></trkpt><trkpt lat="45.7599777" lon="11.2045946"><ele>737.0</ele><time>2026-04-12T10:08:22.761Z</time></trkpt><trkpt lat="45.7600256" lon="11.2046864"><ele>732.0</ele><time>2026-04-12T10:08:24.76Z</time></trkpt><trkpt lat="45.759938" lon="11.2048383"><ele>727.0</ele><time>2026-04-12T10:08:26.76Z</time></trkpt><trkpt lat="45.7598523" lon="11.2049375"><ele>722.0</ele><time>2026-04-12T10:08:27.761Z</time></trkpt><trkpt lat="45.7597615" lon="11.2050455"><ele>717.0</ele><time>2026-04-12T10:08:28.761Z</time></trkpt><trkpt lat="45.7596758" lon="11.2051467"><ele>717.0</ele><time>2026-04-12T10:08:29.761Z</time></trkpt><trkpt lat="45.7596001" lon="11.2052655"><ele>717.0</ele><time>2026-04-12T10:08:30.76Z</time></trkpt><trkpt lat="45.7595246" lon="11.2053965"><ele>717.0</ele><time>2026-04-12T10:08:31.76Z</time></trkpt><trkpt lat="45.7594721" lon="11.2055352"><ele>717.0</ele><time>2026-04-12T10:08:32.761Z</time></trkpt><trkpt lat="45.7594363" lon="11.2056758"><ele>717.0</ele><time>2026-04-12T10:08:33.76Z</time></trkpt><trkpt lat="45.7594351" lon="11.2058274"><ele>714.4000000000001</ele><time>2026-04-12T10:08:34.76Z</time></trkpt><trkpt lat="45.7594617" lon="11.2059801"><ele>711.8000000000001</ele><time>2026-04-12T10:08:35.761Z</time></trkpt><trkpt lat="45.7595133" lon="11.2061247"><ele>709.2</ele><time>2026-04-12T10:08:36.76Z</time></trkpt><trkpt lat="45.759568" lon="11.2062635"><ele>706.6</ele><time>2026-04-12T10:08:37.761Z</time></trkpt><trkpt lat="45.7596136" lon="11.2063993"><ele>704.0</ele><time>2026-04-12T10:08:38.76Z</time></trkpt><trkpt lat="45.7596405" lon="11.2065375"><ele>701.0</ele><time>2026-04-12T10:08:39.76Z</time></trkpt><trkpt lat="45.7596421" lon="11.2066885"><ele>698.0</ele><time>2026-04-12T10:08:40.76Z</time></trkpt><trkpt lat="45.7596279" lon="11.2068419"><ele>695.0</ele><time>2026-04-12T10:08:41.761Z</time></trkpt><trkpt lat="45.7595926" lon="11.20701"><ele>692.0</ele><time>2026-04-12T10:08:42.761Z</time></trkpt><trkpt lat="45.7595374" lon="11.207195"><ele>693.5</ele><time>2026-04-12T10:08:43.76Z</time></trkpt><trkpt lat="45.7594794" lon="11.2073771"><ele>695.0</ele><time>2026-04-12T10:08:44.76Z</time></trkpt><trkpt lat="45.7594264" lon="11.2075555"><ele>696.5</ele><time>2026-04-12T10:08:45.761Z</time></trkpt><trkpt lat="45.7593667" lon="11.2077231"><ele>698.0</ele><time>2026-04-12T10:08:46.761Z</time></trkpt><trkpt lat="45.7593031" lon="11.2078727"><ele>698.0</ele><time>2026-04-12T10:08:47.76Z</time></trkpt><trkpt lat="45.7592451" lon="11.2080058"><ele>698.0</ele><time>2026-04-12T10:08:48.761Z</time></trkpt><trkpt lat="45.7591966" lon="11.2081123"><ele>698.0</ele><time>2026-04-12T10:08:49.76Z</time></trkpt><trkpt lat="45.7591526" lon="11.2081947"><ele>698.0</ele><time>2026-04-12T10:08:50.761Z</time></trkpt><trkpt lat="45.7591017" lon="11.2082952"><ele>698.0</ele><time>2026-04-12T10:08:52.761Z</time></trkpt><trkpt lat="45.7591642" lon="11.2082737"><ele>698.0</ele><time>2026-04-12T10:08:57.76Z</time></trkpt><trkpt lat="45.7592553" lon="11.2081715"><ele>698.0</ele><time>2026-04-12T10:08:59.761Z</time></trkpt><trkpt lat="45.7593159" lon="11.2080857"><ele>698.0</ele><time>2026-04-12T10:09:00.761Z</time></trkpt><trkpt lat="45.7593833" lon="11.2079843"><ele>698.0</ele><time>2026-04-12T10:09:01.76Z</time></trkpt><trkpt lat="45.7594556" lon="11.2078986"><ele>698.0</ele><time>2026-04-12T10:09:02.761Z</time></trkpt><trkpt lat="45.7595273" lon="11.2078265"><ele>698.0</ele><time>2026-04-12T10:09:03.76Z</time></trkpt><trkpt lat="45.7595928" lon="11.207737"><ele>697.0</ele><time>2026-04-12T10:09:04.761Z</time></trkpt><trkpt lat="45.7596495" lon="11.2076753"><ele>696.0</ele><time>2026-04-12T10:09:05.76Z</time></trkpt><trkpt lat="45.7596949" lon="11.207596"><ele>695.0</ele><time>2026-04-12T10:09:06.761Z</time></trkpt><trkpt lat="45.7597274" lon="11.207491"><ele>694.0</ele><time>2026-04-12T10:09:07.76Z</time></trkpt><trkpt lat="45.7597528" lon="11.2073616"><ele>693.0</ele><time>2026-04-12T10:09:08.76Z</time></trkpt><trkpt lat="45.7597848" lon="11.2072367"><ele>692.0</ele><time>2026-04-12T10:09:09.759Z</time></trkpt><trkpt lat="45.7598256" lon="11.2071219"><ele>692.0</ele><time>2026-04-12T10:09:10.759Z</time></trkpt><trkpt lat="45.7598665" lon="11.2070249"><ele>692.0</ele><time>2026-04-12T10:09:11.76Z</time></trkpt><trkpt lat="45.7599165" lon="11.2069541"><ele>692.0</ele><time>2026-04-12T10:09:12.759Z</time></trkpt><trkpt lat="45.7599825" lon="11.2069128"><ele>692.0</ele><time>2026-04-12T10:09:13.76Z</time></trkpt><trkpt lat="45.7600629" lon="11.2068945"><ele>692.0</ele><time>2026-04-12T10:09:14.759Z</time></trkpt><trkpt lat="45.7601534" lon="11.2068891"><ele>692.0</ele><time>2026-04-12T10:09:15.759Z</time></trkpt><trkpt lat="45.7602572" lon="11.2069014"><ele>691.25</ele><time>2026-04-12T10:09:16.76Z</time></trkpt><trkpt lat="45.7603681" lon="11.2069418"><ele>690.5</ele><time>2026-04-12T10:09:17.759Z</time></trkpt><trkpt lat="45.760481" lon="11.2069829"><ele>689.75</ele><time>2026-04-12T10:09:18.76Z</time></trkpt><trkpt lat="45.7605968" lon="11.2070197"><ele>689.0</ele><time>2026-04-12T10:09:19.759Z</time></trkpt><trkpt lat="45.7607125" lon="11.2070609"><ele>689.0</ele><time>2026-04-12T10:09:20.76Z</time></trkpt><trkpt lat="45.7608259" lon="11.2070966"><ele>689.0</ele><time>2026-04-12T10:09:21.76Z</time></trkpt><trkpt lat="45.7609189" lon="11.2071175"><ele>689.0</ele><time>2026-04-12T10:09:22.759Z</time></trkpt><trkpt lat="45.7610015" lon="11.207125"><ele>689.0</ele><time>2026-04-12T10:09:23.76Z</time></trkpt><trkpt lat="45.7610821" lon="11.207094"><ele>689.0</ele><time>2026-04-12T10:09:24.76Z</time></trkpt><trkpt lat="45.7611613" lon="11.2070407"><ele>691.4000000000001</ele><time>2026-04-12T10:09:25.759Z</time></trkpt><trkpt lat="45.7612424" lon="11.2069777"><ele>693.8</ele><time>2026-04-12T10:09:26.759Z</time></trkpt><trkpt lat="45.76132" lon="11.2069272"><ele>696.2</ele><time>2026-04-12T10:09:27.759Z</time></trkpt><trkpt lat="45.7613863" lon="11.2068942"><ele>698.5999999999999</ele><time>2026-04-12T10:09:28.759Z</time></trkpt><trkpt lat="45.761498" lon="11.2069096"><ele>701.0</ele><time>2026-04-12T10:09:30.76Z</time></trkpt><trkpt lat="45.761555" lon="11.2070297"><ele>701.0</ele><time>2026-04-12T10:09:32.76Z</time></trkpt><trkpt lat="45.7615529" lon="11.2071204"><ele>701.0</ele><time>2026-04-12T10:09:33.759Z</time></trkpt><trkpt lat="45.7615283" lon="11.2072151"><ele>701.0</ele><time>2026-04-12T10:09:34.759Z</time></trkpt><trkpt lat="45.7614866" lon="11.2073377"><ele>701.0</ele><time>2026-04-12T10:09:35.759Z</time></trkpt><trkpt lat="45.7614636" lon="11.207477"><ele>701.0</ele><time>2026-04-12T10:09:36.76Z</time></trkpt><trkpt lat="45.7614587" lon="11.2076055"><ele>701.0</ele><time>2026-04-12T10:09:37.76Z</time></trkpt><trkpt lat="45.7614628" lon="11.2077381"><ele>699.5</ele><time>2026-04-12T10:09:38.76Z</time></trkpt><trkpt lat="45.76148" lon="11.2078662"><ele>698.0</ele><time>2026-04-12T10:09:39.759Z</time></trkpt><trkpt lat="45.7615172" lon="11.2079961"><ele>696.5</ele><time>2026-04-12T10:09:40.759Z</time></trkpt><trkpt lat="45.7615547" lon="11.2081159"><ele>695.0</ele><time>2026-04-12T10:09:41.76Z</time></trkpt><trkpt lat="45.7615878" lon="11.2082239"><ele>693.5</ele><time>2026-04-12T10:09:42.76Z</time></trkpt><trkpt lat="45.7616206" lon="11.208329"><ele>692.0</ele><time>2026-04-12T10:09:43.759Z</time></trkpt><trkpt lat="45.7616568" lon="11.2084148"><ele>691.0</ele><time>2026-04-12T10:09:44.76Z</time></trkpt><trkpt lat="45.7616923" lon="11.208496"><ele>690.0</ele><time>2026-04-12T10:09:45.76Z</time></trkpt><trkpt lat="45.761716" lon="11.2086331"><ele>689.0</ele><time>2026-04-12T10:09:47.76Z</time></trkpt><trkpt lat="45.7616996" lon="11.2087337"><ele>688.0</ele><time>2026-04-12T10:09:49.76Z</time></trkpt><trkpt lat="45.7616499" lon="11.2088022"><ele>687.0</ele><time>2026-04-12T10:09:56.76Z</time></trkpt><trkpt lat="45.7615843" lon="11.2088521"><ele>686.0</ele><time>2026-04-12T10:09:58.759Z</time></trkpt><trkpt lat="45.7615569" lon="11.2089418"><ele>685.0</ele><time>2026-04-12T10:10:00.76Z</time></trkpt><trkpt lat="45.761584" lon="11.2090429"><ele>685.0</ele><time>2026-04-12T10:10:02.759Z</time></trkpt><trkpt lat="45.7616067" lon="11.2091402"><ele>685.0</ele><time>2026-04-12T10:10:04.759Z</time></trkpt><trkpt lat="45.7616097" lon="11.2092571"><ele>685.0</ele><time>2026-04-12T10:10:07.759Z</time></trkpt><trkpt lat="45.7616306" lon="11.209159"><ele>685.0</ele><time>2026-04-12T10:10:28.76Z</time></trkpt><trkpt lat="45.7616143" lon="11.2090637"><ele>685.0</ele><time>2026-04-12T10:10:31.759Z</time></trkpt><trkpt lat="45.761589" lon="11.2089555"><ele>685.0</ele><time>2026-04-12T10:10:33.759Z</time></trkpt><trkpt lat="45.7616014" lon="11.2088506"><ele>685.0</ele><time>2026-04-12T10:10:35.76Z</time></trkpt><trkpt lat="45.7616486" lon="11.2087782"><ele>685.0</ele><time>2026-04-12T10:10:37.76Z</time></trkpt><trkpt lat="45.761585" lon="11.2088123"><ele>685.0</ele><time>2026-04-12T10:10:50.76Z</time></trkpt><trkpt lat="45.7614975" lon="11.208802"><ele>685.0</ele><time>2026-04-12T10:10:58.76Z</time></trkpt><trkpt lat="45.7614259" lon="11.2087973"><ele>685.0</ele><time>2026-04-12T10:11:00.759Z</time></trkpt><trkpt lat="45.7613616" lon="11.2087871"><ele>685.0</ele><time>2026-04-12T10:11:02.759Z</time></trkpt><trkpt lat="45.7612993" lon="11.2087531"><ele>685.0</ele><time>2026-04-12T10:11:07.76Z</time></trkpt><trkpt lat="45.7612232" lon="11.2087304"><ele>685.0</ele><time>2026-04-12T10:11:10.759Z</time></trkpt><trkpt lat="45.7611213" lon="11.2087406"><ele>685.0</ele><time>2026-04-12T10:11:13.759Z</time></trkpt><trkpt lat="45.7610404" lon="11.2087594"><ele>685.0</ele><time>2026-04-12T10:11:15.759Z</time></trkpt><trkpt lat="45.760962" lon="11.2088002"><ele>685.0</ele><time>2026-04-12T10:11:17.76Z</time></trkpt><trkpt lat="45.7608905" lon="11.2088499"><ele>685.0</ele><time>2026-04-12T10:11:19.76Z</time></trkpt><trkpt lat="45.7608223" lon="11.2089109"><ele>685.0</ele><time>2026-04-12T10:11:21.759Z</time></trkpt><trkpt lat="45.7607558" lon="11.2089653"><ele>685.0</ele><time>2026-04-12T10:11:23.76Z</time></trkpt><trkpt lat="45.7606808" lon="11.2090179"><ele>679.6</ele><time>2026-04-12T10:11:26.76Z</time></trkpt><trkpt lat="45.7606185" lon="11.2090738"><ele>674.2</ele><time>2026-04-12T10:11:29.759Z</time></trkpt><trkpt lat="45.7605907" lon="11.2091882"><ele>668.8</ele><time>2026-04-12T10:11:32.76Z</time></trkpt><trkpt lat="45.7605614" lon="11.2093304"><ele>663.4</ele><time>2026-04-12T10:11:34.759Z</time></trkpt><trkpt lat="45.7605351" lon="11.209474"><ele>658.0</ele><time>2026-04-12T10:11:36.759Z</time></trkpt><trkpt lat="45.7605057" lon="11.2096043"><ele>658.0</ele><time>2026-04-12T10:11:38.759Z</time></trkpt><trkpt lat="45.7604809" lon="11.2097092"><ele>658.0</ele><time>2026-04-12T10:11:40.759Z</time></trkpt><trkpt lat="45.7604646" lon="11.2098427"><ele>658.0</ele><time>2026-04-12T10:11:43.759Z</time></trkpt><trkpt lat="45.760461" lon="11.2099349"><ele>658.0</ele><time>2026-04-12T10:11:45.76Z</time></trkpt><trkpt lat="45.7604284" lon="11.210086"><ele>658.0</ele><time>2026-04-12T10:11:48.76Z</time></trkpt><trkpt lat="45.7604006" lon="11.2102389"><ele>657.1666666666667</ele><time>2026-04-12T10:11:50.759Z</time></trkpt><trkpt lat="45.7603991" lon="11.2103665"><ele>656.3333333333334</ele><time>2026-04-12T10:11:52.759Z</time></trkpt><trkpt lat="45.7603836" lon="11.2104827"><ele>655.5</ele><time>2026-04-12T10:11:54.76Z</time></trkpt><trkpt lat="45.7603605" lon="11.210576"><ele>654.6666666666666</ele><time>2026-04-12T10:11:56.759Z</time></trkpt><trkpt lat="45.7603329" lon="11.2106688"><ele>653.8333333333333</ele><time>2026-04-12T10:11:58.759Z</time></trkpt><trkpt lat="45.7602944" lon="11.2107694"><ele>653.0</ele><time>2026-04-12T10:12:00.759Z</time></trkpt><trkpt lat="45.7602639" lon="11.2108589"><ele>652.5999999999999</ele><time>2026-04-12T10:12:02.76Z</time></trkpt><trkpt lat="45.7602143" lon="11.2109441"><ele>652.1999999999999</ele><time>2026-04-12T10:12:04.76Z</time></trkpt><trkpt lat="45.7601567" lon="11.2110602"><ele>651.8</ele><time>2026-04-12T10:12:06.76Z</time></trkpt><trkpt lat="45.7601028" lon="11.2111961"><ele>651.4</ele><time>2026-04-12T10:12:08.76Z</time></trkpt><trkpt lat="45.7600669" lon="11.2113528"><ele>651.0</ele><time>2026-04-12T10:12:10.76Z</time></trkpt><trkpt lat="45.760032" lon="11.2114637"><ele>646.8</ele><time>2026-04-12T10:12:12.759Z</time></trkpt><trkpt lat="45.7599686" lon="11.2115599"><ele>642.5999999999999</ele><time>2026-04-12T10:12:15.759Z</time></trkpt><trkpt lat="45.7599013" lon="11.2116523"><ele>638.4</ele><time>2026-04-12T10:12:17.759Z</time></trkpt><trkpt lat="45.7598304" lon="11.211781"><ele>634.2</ele><time>2026-04-12T10:12:19.76Z</time></trkpt><trkpt lat="45.7597952" lon="11.211857"><ele>630.0</ele><time>2026-04-12T10:12:20.76Z</time></trkpt><trkpt lat="45.7597318" lon="11.2119855"><ele>630.0</ele><time>2026-04-12T10:12:22.76Z</time></trkpt><trkpt lat="45.7596871" lon="11.2120725"><ele>630.0</ele><time>2026-04-12T10:12:24.759Z</time></trkpt><trkpt lat="45.7597346" lon="11.2121759"><ele>630.0</ele><time>2026-04-12T10:12:31.76Z</time></trkpt><trkpt lat="45.7597981" lon="11.2122529"><ele>630.0</ele><time>2026-04-12T10:12:33.76Z</time></trkpt><trkpt lat="45.7598284" lon="11.2123333"><ele>630.0</ele><time>2026-04-12T10:12:34.759Z</time></trkpt><trkpt lat="45.7598458" lon="11.2124204"><ele>630.0</ele><time>2026-04-12T10:12:35.759Z</time></trkpt><trkpt lat="45.7598415" lon="11.2125222"><ele>630.0</ele><time>2026-04-12T10:12:36.759Z</time></trkpt><trkpt lat="45.7598349" lon="11.2126212"><ele>629.3333333333334</ele><time>2026-04-12T10:12:37.76Z</time></trkpt><trkpt lat="45.7598305" lon="11.212713"><ele>628.6666666666666</ele><time>2026-04-12T10:12:38.76Z</time></trkpt><trkpt lat="45.7598232" lon="11.212879"><ele>628.0</ele><time>2026-04-12T10:12:40.759Z</time></trkpt><trkpt lat="45.7598511" lon="11.2130429"><ele>627.3333333333333</ele><time>2026-04-12T10:12:42.759Z</time></trkpt><trkpt lat="45.7598844" lon="11.2131226"><ele>626.6666666666666</ele><time>2026-04-12T10:12:43.759Z</time></trkpt><trkpt lat="45.7599293" lon="11.2132034"><ele>626.0</ele><time>2026-04-12T10:12:44.759Z</time></trkpt><trkpt lat="45.7599782" lon="11.2132887"><ele>625.5714285714286</ele><time>2026-04-12T10:12:45.758Z</time></trkpt><trkpt lat="45.7600346" lon="11.213378"><ele>625.1428571428571</ele><time>2026-04-12T10:12:46.759Z</time></trkpt><trkpt lat="45.7600932" lon="11.213462"><ele>624.7142857142858</ele><time>2026-04-12T10:12:47.758Z</time></trkpt><trkpt lat="45.7601527" lon="11.2135396"><ele>624.2857142857142</ele><time>2026-04-12T10:12:48.759Z</time></trkpt><trkpt lat="45.7602039" lon="11.2136029"><ele>623.8571428571429</ele><time>2026-04-12T10:12:49.758Z</time></trkpt><trkpt lat="45.7602602" lon="11.213648"><ele>623.4285714285714</ele><time>2026-04-12T10:12:50.758Z</time></trkpt><trkpt lat="45.7603255" lon="11.2136392"><ele>623.0</ele><time>2026-04-12T10:12:51.759Z</time></trkpt><trkpt lat="45.7603921" lon="11.2135838"><ele>629.4</ele><time>2026-04-12T10:12:52.758Z</time></trkpt><trkpt lat="45.7604463" lon="11.2134945"><ele>635.8</ele><time>2026-04-12T10:12:53.759Z</time></trkpt><trkpt lat="45.7604901" lon="11.2133765"><ele>642.2</ele><time>2026-04-12T10:12:54.759Z</time></trkpt><trkpt lat="45.7605265" lon="11.2132432"><ele>648.6</ele><time>2026-04-12T10:12:55.759Z</time></trkpt><trkpt lat="45.7605581" lon="11.2130942"><ele>655.0</ele><time>2026-04-12T10:12:56.758Z</time></trkpt><trkpt lat="45.7605926" lon="11.2129411"><ele>655.4</ele><time>2026-04-12T10:12:57.759Z</time></trkpt><trkpt lat="45.7606261" lon="11.2128057"><ele>655.8</ele><time>2026-04-12T10:12:58.758Z</time></trkpt><trkpt lat="45.7606594" lon="11.2126635"><ele>656.2</ele><time>2026-04-12T10:12:59.759Z</time></trkpt><trkpt lat="45.760691" lon="11.2125223"><ele>656.6</ele><time>2026-04-12T10:13:00.758Z</time></trkpt><trkpt lat="45.7607092" lon="11.212377"><ele>657.0</ele><time>2026-04-12T10:13:01.759Z</time></trkpt><trkpt lat="45.7607153" lon="11.2122317"><ele>657.0</ele><time>2026-04-12T10:13:02.758Z</time></trkpt><trkpt lat="45.7607125" lon="11.2120803"><ele>657.0</ele><time>2026-04-12T10:13:03.759Z</time></trkpt><trkpt lat="45.760706" lon="11.2119474"><ele>657.0</ele><time>2026-04-12T10:13:04.759Z</time></trkpt><trkpt lat="45.7607081" lon="11.2118301"><ele>657.0</ele><time>2026-04-12T10:13:05.759Z</time></trkpt><trkpt lat="45.7607257" lon="11.2117214"><ele>657.0</ele><time>2026-04-12T10:13:06.758Z</time></trkpt><trkpt lat="45.7607639" lon="11.211622"><ele>657.0</ele><time>2026-04-12T10:13:07.758Z</time></trkpt><trkpt lat="45.760811" lon="11.2115347"><ele>657.0</ele><time>2026-04-12T10:13:08.759Z</time></trkpt><trkpt lat="45.7608938" lon="11.2114363"><ele>657.0</ele><time>2026-04-12T10:13:10.759Z</time></trkpt><trkpt lat="45.7609669" lon="11.2114683"><ele>657.0</ele><time>2026-04-12T10:13:12.759Z</time></trkpt><trkpt lat="45.7609948" lon="11.2115553"><ele>657.0</ele><time>2026-04-12T10:13:13.759Z</time></trkpt><trkpt lat="45.7610078" lon="11.2116761"><ele>657.0</ele><time>2026-04-12T10:13:14.759Z</time></trkpt><trkpt lat="45.7610305" lon="11.2118214"><ele>657.0</ele><time>2026-04-12T10:13:15.758Z</time></trkpt><trkpt lat="45.7610479" lon="11.21195"><ele>661.1666666666666</ele><time>2026-04-12T10:13:16.758Z</time></trkpt><trkpt lat="45.7610701" lon="11.2120485"><ele>665.3333333333334</ele><time>2026-04-12T10:13:17.758Z</time></trkpt><trkpt lat="45.7611336" lon="11.2121028"><ele>669.5</ele><time>2026-04-12T10:13:19.758Z</time></trkpt><trkpt lat="45.7611959" lon="11.2120143"><ele>673.6666666666667</ele><time>2026-04-12T10:13:21.759Z</time></trkpt><trkpt lat="45.7612439" lon="11.2118662"><ele>677.8333333333334</ele><time>2026-04-12T10:13:23.759Z</time></trkpt><trkpt lat="45.7613217" lon="11.2118567"><ele>682.0</ele><time>2026-04-12T10:13:26.759Z</time></trkpt><trkpt lat="45.7613732" lon="11.2120377"><ele>682.0</ele><time>2026-04-12T10:13:28.759Z</time></trkpt><trkpt lat="45.7614106" lon="11.2121519"><ele>682.0</ele><time>2026-04-12T10:13:29.759Z</time></trkpt><trkpt lat="45.7614473" lon="11.2122754"><ele>682.0</ele><time>2026-04-12T10:13:30.758Z</time></trkpt><trkpt lat="45.7614896" lon="11.2123953"><ele>682.0</ele><time>2026-04-12T10:13:31.759Z</time></trkpt><trkpt lat="45.7615375" lon="11.2125204"><ele>682.0</ele><time>2026-04-12T10:13:32.759Z</time></trkpt><trkpt lat="45.7615863" lon="11.2126521"><ele>682.6666666666667</ele><time>2026-04-12T10:13:33.758Z</time></trkpt><trkpt lat="45.7616244" lon="11.2127751"><ele>683.3333333333334</ele><time>2026-04-12T10:13:34.759Z</time></trkpt><trkpt lat="45.7616416" lon="11.2128822"><ele>684.0</ele><time>2026-04-12T10:13:35.759Z</time></trkpt><trkpt lat="45.7616458" lon="11.2129834"><ele>684.6666666666666</ele><time>2026-04-12T10:13:36.759Z</time></trkpt><trkpt lat="45.7616357" lon="11.2130765"><ele>685.3333333333333</ele><time>2026-04-12T10:13:37.758Z</time></trkpt><trkpt lat="45.7616307" lon="11.2132235"><ele>686.0</ele><time>2026-04-12T10:13:39.759Z</time></trkpt><trkpt lat="45.7617028" lon="11.2131807"><ele>686.0</ele><time>2026-04-12T10:13:42.758Z</time></trkpt><trkpt lat="45.7617385" lon="11.2130881"><ele>686.0</ele><time>2026-04-12T10:13:43.758Z</time></trkpt><trkpt lat="45.761776" lon="11.2129828"><ele>686.0</ele><time>2026-04-12T10:13:44.759Z</time></trkpt><trkpt lat="45.7618129" lon="11.2128643"><ele>686.0</ele><time>2026-04-12T10:13:45.758Z</time></trkpt><trkpt lat="45.7618571" lon="11.2127392"><ele>686.0</ele><time>2026-04-12T10:13:46.759Z</time></trkpt><trkpt lat="45.7618924" lon="11.2126192"><ele>686.0</ele><time>2026-04-12T10:13:47.758Z</time></trkpt><trkpt lat="45.7619098" lon="11.2124951"><ele>689.4285714285714</ele><time>2026-04-12T10:13:48.759Z</time></trkpt><trkpt lat="45.76192" lon="11.2123878"><ele>692.8571428571429</ele><time>2026-04-12T10:13:49.759Z</time></trkpt><trkpt lat="45.7619367" lon="11.2122948"><ele>696.2857142857142</ele><time>2026-04-12T10:13:50.758Z</time></trkpt><trkpt lat="45.7619817" lon="11.2122183"><ele>699.7142857142858</ele><time>2026-04-12T10:13:51.759Z</time></trkpt><trkpt lat="45.7620432" lon="11.2121635"><ele>703.1428571428571</ele><time>2026-04-12T10:13:52.759Z</time></trkpt><trkpt lat="45.7621069" lon="11.2121031"><ele>706.5714285714286</ele><time>2026-04-12T10:13:53.758Z</time></trkpt><trkpt lat="45.7621628" lon="11.2120264"><ele>710.0</ele><time>2026-04-12T10:13:54.758Z</time></trkpt><trkpt lat="45.762198" lon="11.2119362"><ele>710.0</ele><time>2026-04-12T10:13:55.759Z</time></trkpt><trkpt lat="45.7622299" lon="11.2118373"><ele>710.0</ele><time>2026-04-12T10:13:56.758Z</time></trkpt><trkpt lat="45.7622714" lon="11.2117472"><ele>710.0</ele><time>2026-04-12T10:13:57.758Z</time></trkpt><trkpt lat="45.7623258" lon="11.2116735"><ele>710.0</ele><time>2026-04-12T10:13:58.759Z</time></trkpt><trkpt lat="45.7623872" lon="11.2116127"><ele>710.0</ele><time>2026-04-12T10:13:59.758Z</time></trkpt><trkpt lat="45.7624513" lon="11.2115687"><ele>710.0</ele><time>2026-04-12T10:14:00.758Z</time></trkpt><trkpt lat="45.7625129" lon="11.2115413"><ele>710.0</ele><time>2026-04-12T10:14:01.759Z</time></trkpt><trkpt lat="45.7626132" lon="11.2115387"><ele>710.0</ele><time>2026-04-12T10:14:03.759Z</time></trkpt><trkpt lat="45.7626572" lon="11.2116319"><ele>710.0</ele><time>2026-04-12T10:14:05.759Z</time></trkpt><trkpt lat="45.7626242" lon="11.2118233"><ele>710.0</ele><time>2026-04-12T10:14:07.759Z</time></trkpt><trkpt lat="45.762586" lon="11.2119449"><ele>710.0</ele><time>2026-04-12T10:14:08.759Z</time></trkpt><trkpt lat="45.7625504" lon="11.2120583"><ele>710.0</ele><time>2026-04-12T10:14:09.759Z</time></trkpt><trkpt lat="45.7625198" lon="11.2121617"><ele>710.0</ele><time>2026-04-12T10:14:10.758Z</time></trkpt><trkpt lat="45.7625044" lon="11.2122759"><ele>710.0</ele><time>2026-04-12T10:14:11.759Z</time></trkpt><trkpt lat="45.7625065" lon="11.2123844"><ele>710.0</ele><time>2026-04-12T10:14:12.758Z</time></trkpt><trkpt lat="45.7625236" lon="11.2125106"><ele>710.0</ele><time>2026-04-12T10:14:13.758Z</time></trkpt><trkpt lat="45.7625408" lon="11.2126524"><ele>710.0</ele><time>2026-04-12T10:14:14.759Z</time></trkpt><trkpt lat="45.7625573" lon="11.2128206"><ele>713.0</ele><time>2026-04-12T10:14:15.758Z</time></trkpt><trkpt lat="45.7625654" lon="11.2130049"><ele>716.0</ele><time>2026-04-12T10:14:16.759Z</time></trkpt><trkpt lat="45.7625684" lon="11.2131766"><ele>719.0</ele><time>2026-04-12T10:14:17.759Z</time></trkpt><trkpt lat="45.7625537" lon="11.2133414"><ele>722.0</ele><time>2026-04-12T10:14:18.758Z</time></trkpt><trkpt lat="45.7625363" lon="11.2134982"><ele>723.1666666666666</ele><time>2026-04-12T10:14:19.758Z</time></trkpt><trkpt lat="45.7625119" lon="11.2136401"><ele>724.3333333333333</ele><time>2026-04-12T10:14:20.759Z</time></trkpt><trkpt lat="45.7624869" lon="11.2137581"><ele>725.5</ele><time>2026-04-12T10:14:21.759Z</time></trkpt><trkpt lat="45.7624642" lon="11.2138541"><ele>726.6666666666666</ele><time>2026-04-12T10:14:22.759Z</time></trkpt><trkpt lat="45.7624488" lon="11.2139443"><ele>727.8333333333334</ele><time>2026-04-12T10:14:23.759Z</time></trkpt><trkpt lat="45.7624573" lon="11.2140801"><ele>729.0</ele><time>2026-04-12T10:14:25.759Z</time></trkpt><trkpt lat="45.7625267" lon="11.214066"><ele>729.0</ele><time>2026-04-12T10:14:27.759Z</time></trkpt><trkpt lat="45.76263" lon="11.2139761"><ele>729.0</ele><time>2026-04-12T10:14:29.759Z</time></trkpt><trkpt lat="45.7626893" lon="11.2139257"><ele>729.0</ele><time>2026-04-12T10:14:30.759Z</time></trkpt><trkpt lat="45.7627487" lon="11.213877"><ele>729.0</ele><time>2026-04-12T10:14:31.759Z</time></trkpt><trkpt lat="45.7628012" lon="11.2138174"><ele>729.0</ele><time>2026-04-12T10:14:32.759Z</time></trkpt><trkpt lat="45.7628598" lon="11.2136503"><ele>733.5</ele><time>2026-04-12T10:14:34.759Z</time></trkpt><trkpt lat="45.7628862" lon="11.2135309"><ele>738.0</ele><time>2026-04-12T10:14:35.758Z</time></trkpt><trkpt lat="45.762903" lon="11.213404"><ele>742.5</ele><time>2026-04-12T10:14:36.759Z</time></trkpt><trkpt lat="45.7629297" lon="11.2132931"><ele>747.0</ele><time>2026-04-12T10:14:37.759Z</time></trkpt><trkpt lat="45.7629625" lon="11.2131544"><ele>751.5</ele><time>2026-04-12T10:14:39.759Z</time></trkpt><trkpt lat="45.7629764" lon="11.213257"><ele>756.0</ele><time>2026-04-12T10:14:43.759Z</time></trkpt><trkpt lat="45.76293" lon="11.2134503"><ele>757.8</ele><time>2026-04-12T10:14:45.758Z</time></trkpt><trkpt lat="45.7629109" lon="11.2135771"><ele>759.5999999999999</ele><time>2026-04-12T10:14:46.758Z</time></trkpt><trkpt lat="45.7628916" lon="11.2137228"><ele>761.4</ele><time>2026-04-12T10:14:47.758Z</time></trkpt><trkpt lat="45.7628772" lon="11.2138847"><ele>763.2</ele><time>2026-04-12T10:14:48.759Z</time></trkpt><trkpt lat="45.7628625" lon="11.2140362"><ele>765.0</ele><time>2026-04-12T10:14:49.759Z</time></trkpt><trkpt lat="45.762842" lon="11.2141633"><ele>766.1428571428572</ele><time>2026-04-12T10:14:50.759Z</time></trkpt><trkpt lat="45.7628124" lon="11.2142781"><ele>767.2857142857143</ele><time>2026-04-12T10:14:51.758Z</time></trkpt><trkpt lat="45.7627778" lon="11.2143804"><ele>768.4285714285714</ele><time>2026-04-12T10:14:52.759Z</time></trkpt><trkpt lat="45.7627507" lon="11.2144722"><ele>769.5714285714287</ele><time>2026-04-12T10:14:53.758Z</time></trkpt><trkpt lat="45.7627199" lon="11.2145649"><ele>770.7142857142857</ele><time>2026-04-12T10:14:54.759Z</time></trkpt><trkpt lat="45.7626893" lon="11.2146559"><ele>771.8571428571429</ele><time>2026-04-12T10:14:55.759Z</time></trkpt><trkpt lat="45.7626531" lon="11.214734"><ele>773.0</ele><time>2026-04-12T10:14:56.759Z</time></trkpt><trkpt lat="45.762603" lon="11.2148707"><ele>770.1666666666667</ele><time>2026-04-12T10:14:58.759Z</time></trkpt><trkpt lat="45.7625778" lon="11.2149688"><ele>767.3333333333334</ele><time>2026-04-12T10:15:00.759Z</time></trkpt><trkpt lat="45.7625315" lon="11.2150386"><ele>764.5</ele><time>2026-04-12T10:15:22.759Z</time></trkpt><trkpt lat="45.7624944" lon="11.2151465"><ele>761.6666666666667</ele><time>2026-04-12T10:15:25.758Z</time></trkpt><trkpt lat="45.7624705" lon="11.2152666"><ele>758.8333333333334</ele><time>2026-04-12T10:15:28.759Z</time></trkpt><trkpt lat="45.762438" lon="11.2153567"><ele>756.0</ele><time>2026-04-12T10:15:30.759Z</time></trkpt><trkpt lat="45.7623848" lon="11.2154616"><ele>756.0</ele><time>2026-04-12T10:15:32.759Z</time></trkpt><trkpt lat="45.7623251" lon="11.2155676"><ele>756.0</ele><time>2026-04-12T10:15:34.758Z</time></trkpt><trkpt lat="45.7622711" lon="11.2156324"><ele>756.0</ele><time>2026-04-12T10:15:36.759Z</time></trkpt><trkpt lat="45.7621983" lon="11.2157003"><ele>756.0</ele><time>2026-04-12T10:15:39.759Z</time></trkpt><trkpt lat="45.7621377" lon="11.2157472"><ele>756.0</ele><time>2026-04-12T10:15:41.758Z</time></trkpt><trkpt lat="45.7620559" lon="11.2157422"><ele>756.0</ele><time>2026-04-12T10:15:44.758Z</time></trkpt><trkpt lat="45.7619829" lon="11.2157309"><ele>758.0</ele><time>2026-04-12T10:15:46.758Z</time></trkpt><trkpt lat="45.7619091" lon="11.2157551"><ele>760.0</ele><time>2026-04-12T10:15:49.758Z</time></trkpt><trkpt lat="45.7618518" lon="11.2158177"><ele>762.0</ele><time>2026-04-12T10:15:51.759Z</time></trkpt><trkpt lat="45.7617933" lon="11.2159161"><ele>764.0</ele><time>2026-04-12T10:15:53.759Z</time></trkpt><trkpt lat="45.7617283" lon="11.2160097"><ele>766.0</ele><time>2026-04-12T10:15:55.758Z</time></trkpt><trkpt lat="45.7616858" lon="11.2161068"><ele>768.0</ele><time>2026-04-12T10:15:57.758Z</time></trkpt><trkpt lat="45.7616244" lon="11.2162142"><ele>764.5</ele><time>2026-04-12T10:15:59.758Z</time></trkpt><trkpt lat="45.7615857" lon="11.2163189"><ele>761.0</ele><time>2026-04-12T10:16:01.758Z</time></trkpt><trkpt lat="45.7615659" lon="11.2164284"><ele>757.5</ele><time>2026-04-12T10:16:03.759Z</time></trkpt><trkpt lat="45.7615668" lon="11.2165814"><ele>754.0</ele><time>2026-04-12T10:16:05.759Z</time></trkpt><trkpt lat="45.7615702" lon="11.216672"><ele>750.5</ele><time>2026-04-12T10:16:06.758Z</time></trkpt><trkpt lat="45.7615648" lon="11.2168332"><ele>747.0</ele><time>2026-04-12T10:16:08.759Z</time></trkpt><trkpt lat="45.7615708" lon="11.2169732"><ele>747.0</ele><time>2026-04-12T10:16:10.759Z</time></trkpt><trkpt lat="45.7615417" lon="11.2171063"><ele>747.0</ele><time>2026-04-12T10:16:12.759Z</time></trkpt><trkpt lat="45.7614759" lon="11.2172469"><ele>747.0</ele><time>2026-04-12T10:16:14.758Z</time></trkpt><trkpt lat="45.7614215" lon="11.2173185"><ele>747.0</ele><time>2026-04-12T10:16:15.759Z</time></trkpt><trkpt lat="45.7613684" lon="11.2173837"><ele>747.0</ele><time>2026-04-12T10:16:16.758Z</time></trkpt><trkpt lat="45.7613299" lon="11.2174587"><ele>747.0</ele><time>2026-04-12T10:16:17.757Z</time></trkpt><trkpt lat="45.7613103" lon="11.2175531"><ele>747.8333333333334</ele><time>2026-04-12T10:16:18.758Z</time></trkpt><trkpt lat="45.7612985" lon="11.2176683"><ele>748.6666666666666</ele><time>2026-04-12T10:16:19.758Z</time></trkpt><trkpt lat="45.7612973" lon="11.2177977"><ele>749.5</ele><time>2026-04-12T10:16:20.757Z</time></trkpt><trkpt lat="45.7613086" lon="11.2179145"><ele>750.3333333333333</ele><time>2026-04-12T10:16:21.758Z</time></trkpt><trkpt lat="45.7613232" lon="11.2180215"><ele>751.1666666666666</ele><time>2026-04-12T10:16:22.758Z</time></trkpt><trkpt lat="45.7613355" lon="11.2181116"><ele>752.0</ele><time>2026-04-12T10:16:23.758Z</time></trkpt><trkpt lat="45.7613539" lon="11.2182695"><ele>752.2</ele><time>2026-04-12T10:16:25.757Z</time></trkpt><trkpt lat="45.7613506" lon="11.2184194"><ele>752.4000000000001</ele><time>2026-04-12T10:16:27.757Z</time></trkpt><trkpt lat="45.761312" lon="11.2185513"><ele>752.5999999999999</ele><time>2026-04-12T10:16:29.758Z</time></trkpt><trkpt lat="45.7612427" lon="11.2186459"><ele>752.8</ele><time>2026-04-12T10:16:31.758Z</time></trkpt><trkpt lat="45.7611725" lon="11.2187775"><ele>753.0</ele><time>2026-04-12T10:16:33.758Z</time></trkpt><trkpt lat="45.7611365" lon="11.2189388"><ele>754.2</ele><time>2026-04-12T10:16:35.758Z</time></trkpt><trkpt lat="45.7611348" lon="11.2191006"><ele>755.4</ele><time>2026-04-12T10:16:37.758Z</time></trkpt><trkpt lat="45.7611343" lon="11.2192305"><ele>756.6</ele><time>2026-04-12T10:16:39.757Z</time></trkpt><trkpt lat="45.7611104" lon="11.2193462"><ele>757.8000000000001</ele><time>2026-04-12T10:16:41.757Z</time></trkpt><trkpt lat="45.7610515" lon="11.2194526"><ele>759.0</ele><time>2026-04-12T10:16:43.757Z</time></trkpt><trkpt lat="45.7609553" lon="11.2195731"><ele>753.2</ele><time>2026-04-12T10:16:45.757Z</time></trkpt><trkpt lat="45.7609149" lon="11.2196445"><ele>747.4000000000001</ele><time>2026-04-12T10:16:46.757Z</time></trkpt><trkpt lat="45.7608951" lon="11.2198213"><ele>741.6</ele><time>2026-04-12T10:16:48.758Z</time></trkpt><trkpt lat="45.7608963" lon="11.2199823"><ele>735.8</ele><time>2026-04-12T10:16:50.758Z</time></trkpt><trkpt lat="45.7608915" lon="11.2201316"><ele>730.0</ele><time>2026-04-12T10:16:52.757Z</time></trkpt><trkpt lat="45.7608927" lon="11.2202707"><ele>730.0</ele><time>2026-04-12T10:16:54.758Z</time></trkpt><trkpt lat="45.7609469" lon="11.2204145"><ele>730.0</ele><time>2026-04-12T10:16:56.757Z</time></trkpt><trkpt lat="45.761007" lon="11.2205611"><ele>730.0</ele><time>2026-04-12T10:16:58.757Z</time></trkpt><trkpt lat="45.7610271" lon="11.2207105"><ele>730.0</ele><time>2026-04-12T10:17:00.757Z</time></trkpt><trkpt lat="45.7610306" lon="11.220801"><ele>730.0</ele><time>2026-04-12T10:17:01.757Z</time></trkpt><trkpt lat="45.7610238" lon="11.2209177"><ele>730.0</ele><time>2026-04-12T10:17:02.757Z</time></trkpt><trkpt lat="45.7610108" lon="11.2210413"><ele>730.0</ele><time>2026-04-12T10:17:03.758Z</time></trkpt><trkpt lat="45.7610004" lon="11.221148"><ele>730.0</ele><time>2026-04-12T10:17:04.758Z</time></trkpt><trkpt lat="45.7609852" lon="11.2212454"><ele>730.0</ele><time>2026-04-12T10:17:05.757Z</time></trkpt><trkpt lat="45.7609811" lon="11.2213775"><ele>730.0</ele><time>2026-04-12T10:17:07.757Z</time></trkpt><trkpt lat="45.7610362" lon="11.2214772"><ele>730.0</ele><time>2026-04-12T10:17:10.757Z</time></trkpt><trkpt lat="45.7611369" lon="11.2215428"><ele>730.0</ele><time>2026-04-12T10:17:12.757Z</time></trkpt><trkpt lat="45.7612317" lon="11.2216057"><ele>730.0</ele><time>2026-04-12T10:17:14.758Z</time></trkpt><trkpt lat="45.7613299" lon="11.2216456"><ele>730.0</ele><time>2026-04-12T10:17:16.758Z</time></trkpt><trkpt lat="45.7614526" lon="11.2216813"><ele>730.0</ele><time>2026-04-12T10:17:18.757Z</time></trkpt><trkpt lat="45.7615168" lon="11.2216947"><ele>730.0</ele><time>2026-04-12T10:17:19.758Z</time></trkpt><trkpt lat="45.7616349" lon="11.2216967"><ele>730.0</ele><time>2026-04-12T10:17:21.757Z</time></trkpt><trkpt lat="45.7617562" lon="11.2216539"><ele>730.0</ele><time>2026-04-12T10:17:23.758Z</time></trkpt><trkpt lat="45.7618785" lon="11.2216275"><ele>730.0</ele><time>2026-04-12T10:17:25.757Z</time></trkpt><trkpt lat="45.7619515" lon="11.2216225"><ele>730.0</ele><time>2026-04-12T10:17:26.757Z</time></trkpt><trkpt lat="45.7620267" lon="11.2216214"><ele>730.0</ele><time>2026-04-12T10:17:27.757Z</time></trkpt><trkpt lat="45.7620945" lon="11.2216217"><ele>730.1666666666667</ele><time>2026-04-12T10:17:28.758Z</time></trkpt><trkpt lat="45.7621602" lon="11.2216278"><ele>730.3333333333334</ele><time>2026-04-12T10:17:29.757Z</time></trkpt><trkpt lat="45.7622241" lon="11.2216407"><ele>730.5</ele><time>2026-04-12T10:17:30.758Z</time></trkpt><trkpt lat="45.7622926" lon="11.2216646"><ele>730.6666666666666</ele><time>2026-04-12T10:17:31.757Z</time></trkpt><trkpt lat="45.7623801" lon="11.2216998"><ele>730.8333333333333</ele><time>2026-04-12T10:17:32.758Z</time></trkpt><trkpt lat="45.7624691" lon="11.2217324"><ele>731.0</ele><time>2026-04-12T10:17:33.758Z</time></trkpt><trkpt lat="45.7625519" lon="11.2217651"><ele>731.0</ele><time>2026-04-12T10:17:34.757Z</time></trkpt><trkpt lat="45.7626276" lon="11.221795"><ele>731.0</ele><time>2026-04-12T10:17:35.757Z</time></trkpt><trkpt lat="45.7626987" lon="11.2218381"><ele>731.0</ele><time>2026-04-12T10:17:36.758Z</time></trkpt><trkpt lat="45.7627674" lon="11.2218968"><ele>731.0</ele><time>2026-04-12T10:17:37.757Z</time></trkpt><trkpt lat="45.7628196" lon="11.2220003"><ele>731.0</ele><time>2026-04-12T10:17:38.757Z</time></trkpt><trkpt lat="45.7628738" lon="11.2221131"><ele>731.0</ele><time>2026-04-12T10:17:39.758Z</time></trkpt><trkpt lat="45.7629246" lon="11.2222171"><ele>729.8333333333333</ele><time>2026-04-12T10:17:40.757Z</time></trkpt><trkpt lat="45.7629658" lon="11.2223206"><ele>728.6666666666666</ele><time>2026-04-12T10:17:41.757Z</time></trkpt><trkpt lat="45.7629929" lon="11.2224112"><ele>727.5</ele><time>2026-04-12T10:17:42.758Z</time></trkpt><trkpt lat="45.7630153" lon="11.2224964"><ele>726.3333333333334</ele><time>2026-04-12T10:17:43.757Z</time></trkpt><trkpt lat="45.7630659" lon="11.2226412"><ele>725.1666666666667</ele><time>2026-04-12T10:17:45.758Z</time></trkpt><trkpt lat="45.7631591" lon="11.2227435"><ele>724.0</ele><time>2026-04-12T10:17:47.757Z</time></trkpt><trkpt lat="45.763224" lon="11.2227687"><ele>724.0</ele><time>2026-04-12T10:17:48.758Z</time></trkpt><trkpt lat="45.7632974" lon="11.2227888"><ele>724.0</ele><time>2026-04-12T10:17:49.757Z</time></trkpt><trkpt lat="45.763375" lon="11.2228143"><ele>724.0</ele><time>2026-04-12T10:17:50.757Z</time></trkpt><trkpt lat="45.763447" lon="11.2228478"><ele>724.0</ele><time>2026-04-12T10:17:51.758Z</time></trkpt><trkpt lat="45.7635511" lon="11.2229267"><ele>724.0</ele><time>2026-04-12T10:17:53.757Z</time></trkpt><trkpt lat="45.7636274" lon="11.2230478"><ele>725.5</ele><time>2026-04-12T10:17:55.758Z</time></trkpt><trkpt lat="45.763659" lon="11.2231293"><ele>727.0</ele><time>2026-04-12T10:17:56.757Z</time></trkpt><trkpt lat="45.7636725" lon="11.2232213"><ele>728.5</ele><time>2026-04-12T10:17:57.757Z</time></trkpt><trkpt lat="45.7636759" lon="11.2233235"><ele>730.0</ele><time>2026-04-12T10:17:58.757Z</time></trkpt><trkpt lat="45.7636641" lon="11.2234202"><ele>731.5</ele><time>2026-04-12T10:17:59.758Z</time></trkpt><trkpt lat="45.763628" lon="11.2235812"><ele>733.0</ele><time>2026-04-12T10:18:01.757Z</time></trkpt><trkpt lat="45.7636348" lon="11.2237199"><ele>733.0</ele><time>2026-04-12T10:18:03.758Z</time></trkpt><trkpt lat="45.7636722" lon="11.2238335"><ele>733.0</ele><time>2026-04-12T10:18:05.758Z</time></trkpt><trkpt lat="45.7636835" lon="11.2239408"><ele>733.0</ele><time>2026-04-12T10:18:07.758Z</time></trkpt><trkpt lat="45.7636262" lon="11.224052"><ele>733.0</ele><time>2026-04-12T10:18:09.758Z</time></trkpt><trkpt lat="45.7635493" lon="11.2240886"><ele>733.0</ele><time>2026-04-12T10:18:11.757Z</time></trkpt><trkpt lat="45.7634885" lon="11.2240526"><ele>733.0</ele><time>2026-04-12T10:18:13.758Z</time></trkpt><trkpt lat="45.7634027" lon="11.22404"><ele>727.8</ele><time>2026-04-12T10:18:16.758Z</time></trkpt><trkpt lat="45.7633643" lon="11.2241163"><ele>722.5999999999999</ele><time>2026-04-12T10:18:18.758Z</time></trkpt><trkpt lat="45.763348" lon="11.224237"><ele>717.4000000000001</ele><time>2026-04-12T10:18:20.757Z</time></trkpt><trkpt lat="45.763305" lon="11.2243681"><ele>712.2</ele><time>2026-04-12T10:18:22.758Z</time></trkpt><trkpt lat="45.7632667" lon="11.2245191"><ele>707.0</ele><time>2026-04-12T10:18:24.758Z</time></trkpt><trkpt lat="45.7632242" lon="11.2246691"><ele>708.2</ele><time>2026-04-12T10:18:26.757Z</time></trkpt><trkpt lat="45.76318" lon="11.224836"><ele>709.4000000000001</ele><time>2026-04-12T10:18:28.758Z</time></trkpt><trkpt lat="45.7631619" lon="11.2249257"><ele>710.5999999999999</ele><time>2026-04-12T10:18:29.757Z</time></trkpt><trkpt lat="45.7631469" lon="11.225018"><ele>711.8</ele><time>2026-04-12T10:18:30.757Z</time></trkpt><trkpt lat="45.7631167" lon="11.2251923"><ele>713.0</ele><time>2026-04-12T10:18:32.757Z</time></trkpt><trkpt lat="45.7631007" lon="11.225369"><ele>713.0</ele><time>2026-04-12T10:18:34.758Z</time></trkpt><trkpt lat="45.7630917" lon="11.2255239"><ele>713.0</ele><time>2026-04-12T10:18:36.758Z</time></trkpt><trkpt lat="45.7630996" lon="11.2256186"><ele>713.0</ele><time>2026-04-12T10:18:39.757Z</time></trkpt><trkpt lat="45.763154" lon="11.2256899"><ele>713.0</ele><time>2026-04-12T10:19:00.757Z</time></trkpt><trkpt lat="45.7632192" lon="11.2256125"><ele>713.0</ele><time>2026-04-12T10:19:03.757Z</time></trkpt><trkpt lat="45.7632235" lon="11.2254735"><ele>713.0</ele><time>2026-04-12T10:19:05.757Z</time></trkpt><trkpt lat="45.763224" lon="11.2252909"><ele>713.0</ele><time>2026-04-12T10:19:07.757Z</time></trkpt><trkpt lat="45.7632254" lon="11.2251935"><ele>713.0</ele><time>2026-04-12T10:19:08.758Z</time></trkpt><trkpt lat="45.7632338" lon="11.2250972"><ele>713.0</ele><time>2026-04-12T10:19:09.758Z</time></trkpt><trkpt lat="45.7632456" lon="11.2250007"><ele>713.0</ele><time>2026-04-12T10:19:10.757Z</time></trkpt><trkpt lat="45.7632742" lon="11.2248551"><ele>713.0</ele><time>2026-04-12T10:19:12.758Z</time></trkpt><trkpt lat="45.7633108" lon="11.2247709"><ele>713.0</ele><time>2026-04-12T10:19:14.757Z</time></trkpt><trkpt lat="45.763366" lon="11.224886"><ele>713.0</ele><time>2026-04-12T10:19:26.757Z</time></trkpt><trkpt lat="45.7633641" lon="11.2250468"><ele>713.0</ele><time>2026-04-12T10:19:28.758Z</time></trkpt><trkpt lat="45.763371" lon="11.225189"><ele>713.0</ele><time>2026-04-12T10:19:30.757Z</time></trkpt><trkpt lat="45.763395" lon="11.2253165"><ele>713.0</ele><time>2026-04-12T10:19:32.758Z</time></trkpt><trkpt lat="45.7634431" lon="11.2254276"><ele>713.0</ele><time>2026-04-12T10:19:34.757Z</time></trkpt><trkpt lat="45.7634891" lon="11.2255511"><ele>713.8333333333333</ele><time>2026-04-12T10:19:36.757Z</time></trkpt><trkpt lat="45.7635216" lon="11.2256744"><ele>714.6666666666666</ele><time>2026-04-12T10:19:38.757Z</time></trkpt><trkpt lat="45.763503" lon="11.2258015"><ele>715.5</ele><time>2026-04-12T10:19:41.758Z</time></trkpt><trkpt lat="45.7634578" lon="11.2258767"><ele>716.3333333333334</ele><time>2026-04-12T10:19:43.758Z</time></trkpt><trkpt lat="45.7634226" lon="11.2259527"><ele>717.1666666666667</ele><time>2026-04-12T10:19:45.757Z</time></trkpt><trkpt lat="45.7633865" lon="11.2260649"><ele>718.0</ele><time>2026-04-12T10:19:47.758Z</time></trkpt><trkpt lat="45.7633432" lon="11.2261705"><ele>718.0</ele><time>2026-04-12T10:19:49.757Z</time></trkpt><trkpt lat="45.7632636" lon="11.2263018"><ele>718.0</ele><time>2026-04-12T10:19:51.757Z</time></trkpt><trkpt lat="45.7631878" lon="11.2264363"><ele>718.0</ele><time>2026-04-12T10:19:53.757Z</time></trkpt><trkpt lat="45.7631412" lon="11.2265655"><ele>718.0</ele><time>2026-04-12T10:19:55.757Z</time></trkpt><trkpt lat="45.7631212" lon="11.2266745"><ele>718.0</ele><time>2026-04-12T10:19:57.756Z</time></trkpt><trkpt lat="45.7631107" lon="11.2267663"><ele>720.0</ele><time>2026-04-12T10:20:14.757Z</time></trkpt><trkpt lat="45.7630533" lon="11.2268515"><ele>722.0</ele><time>2026-04-12T10:20:17.757Z</time></trkpt><trkpt lat="45.7630088" lon="11.2269478"><ele>724.0</ele><time>2026-04-12T10:20:19.756Z</time></trkpt><trkpt lat="45.76297" lon="11.2270763"><ele>726.0</ele><time>2026-04-12T10:20:21.757Z</time></trkpt><trkpt lat="45.7629431" lon="11.2271971"><ele>728.0</ele><time>2026-04-12T10:20:23.757Z</time></trkpt><trkpt lat="45.7629517" lon="11.2273023"><ele>730.0</ele><time>2026-04-12T10:20:26.756Z</time></trkpt><trkpt lat="45.7630029" lon="11.2272299"><ele>730.0</ele><time>2026-04-12T10:20:29.757Z</time></trkpt><trkpt lat="45.7630722" lon="11.2271644"><ele>730.0</ele><time>2026-04-12T10:20:31.756Z</time></trkpt><trkpt lat="45.7631654" lon="11.2271609"><ele>730.0</ele><time>2026-04-12T10:20:33.756Z</time></trkpt><trkpt lat="45.7632645" lon="11.2272069"><ele>730.0</ele><time>2026-04-12T10:20:35.756Z</time></trkpt><trkpt lat="45.7633232" lon="11.227245"><ele>730.0</ele><time>2026-04-12T10:20:36.757Z</time></trkpt><trkpt lat="45.7633781" lon="11.227291"><ele>730.0</ele><time>2026-04-12T10:20:37.757Z</time></trkpt><trkpt lat="45.763477" lon="11.2273346"><ele>732.3333333333334</ele><time>2026-04-12T10:20:39.757Z</time></trkpt><trkpt lat="45.7635738" lon="11.2273233"><ele>734.6666666666667</ele><time>2026-04-12T10:20:41.757Z</time></trkpt><trkpt lat="45.7636977" lon="11.2273017"><ele>737.0</ele><time>2026-04-12T10:20:43.757Z</time></trkpt><trkpt lat="45.7637621" lon="11.2273076"><ele>739.3333333333334</ele><time>2026-04-12T10:20:44.757Z</time></trkpt><trkpt lat="45.7638264" lon="11.2273269"><ele>741.6666666666666</ele><time>2026-04-12T10:20:45.757Z</time></trkpt><trkpt lat="45.7638956" lon="11.2273583"><ele>744.0</ele><time>2026-04-12T10:20:46.757Z</time></trkpt><trkpt lat="45.7639637" lon="11.2273914"><ele>740.8333333333334</ele><time>2026-04-12T10:20:47.757Z</time></trkpt><trkpt lat="45.7640367" lon="11.2274355"><ele>737.6666666666666</ele><time>2026-04-12T10:20:48.756Z</time></trkpt><trkpt lat="45.7641055" lon="11.2274799"><ele>734.5</ele><time>2026-04-12T10:20:49.757Z</time></trkpt><trkpt lat="45.7641739" lon="11.2275299"><ele>731.3333333333333</ele><time>2026-04-12T10:20:50.756Z</time></trkpt><trkpt lat="45.7642444" lon="11.2275662"><ele>728.1666666666666</ele><time>2026-04-12T10:20:51.757Z</time></trkpt><trkpt lat="45.7643118" lon="11.227612"><ele>725.0</ele><time>2026-04-12T10:20:52.757Z</time></trkpt><trkpt lat="45.764372" lon="11.2276746"><ele>725.0</ele><time>2026-04-12T10:20:53.757Z</time></trkpt><trkpt lat="45.7644314" lon="11.2277378"><ele>725.0</ele><time>2026-04-12T10:20:54.757Z</time></trkpt><trkpt lat="45.7644853" lon="11.227788"><ele>725.0</ele><time>2026-04-12T10:20:55.757Z</time></trkpt><trkpt lat="45.7645765" lon="11.2278843"><ele>725.0</ele><time>2026-04-12T10:20:57.757Z</time></trkpt><trkpt lat="45.764664" lon="11.2279365"><ele>725.0</ele><time>2026-04-12T10:20:59.757Z</time></trkpt><trkpt lat="45.7647659" lon="11.2279453"><ele>725.0</ele><time>2026-04-12T10:21:01.756Z</time></trkpt><trkpt lat="45.7648592" lon="11.2279492"><ele>725.0</ele><time>2026-04-12T10:21:03.756Z</time></trkpt><trkpt lat="45.7649506" lon="11.2279827"><ele>725.0</ele><time>2026-04-12T10:21:05.756Z</time></trkpt><trkpt lat="45.765052" lon="11.2280459"><ele>725.0</ele><time>2026-04-12T10:21:07.757Z</time></trkpt><trkpt lat="45.7651408" lon="11.2281429"><ele>725.0</ele><time>2026-04-12T10:21:09.757Z</time></trkpt><trkpt lat="45.7652139" lon="11.2282055"><ele>725.0</ele><time>2026-04-12T10:21:11.756Z</time></trkpt><trkpt lat="45.765289" lon="11.228229"><ele>722.0</ele><time>2026-04-12T10:21:14.756Z</time></trkpt><trkpt lat="45.7653762" lon="11.2282677"><ele>719.0</ele><time>2026-04-12T10:21:23.757Z</time></trkpt><trkpt lat="45.7654566" lon="11.2283462"><ele>716.0</ele><time>2026-04-12T10:21:25.756Z</time></trkpt><trkpt lat="45.7655554" lon="11.2284105"><ele>713.0</ele><time>2026-04-12T10:21:27.757Z</time></trkpt><trkpt lat="45.7656641" lon="11.2284844"><ele>710.0</ele><time>2026-04-12T10:21:29.757Z</time></trkpt><trkpt lat="45.7657481" lon="11.2285706"><ele>710.0</ele><time>2026-04-12T10:21:31.757Z</time></trkpt><trkpt lat="45.7658081" lon="11.228683"><ele>710.0</ele><time>2026-04-12T10:21:33.756Z</time></trkpt><trkpt lat="45.7658681" lon="11.2287819"><ele>710.0</ele><time>2026-04-12T10:21:35.756Z</time></trkpt><trkpt lat="45.765915" lon="11.2288815"><ele>710.0</ele><time>2026-04-12T10:21:37.757Z</time></trkpt><trkpt lat="45.765935" lon="11.2289936"><ele>710.0</ele><time>2026-04-12T10:21:39.756Z</time></trkpt><trkpt lat="45.7659594" lon="11.22911"><ele>710.0</ele><time>2026-04-12T10:21:41.757Z</time></trkpt><trkpt lat="45.7660051" lon="11.2292367"><ele>709.8333333333333</ele><time>2026-04-12T10:21:43.756Z</time></trkpt><trkpt lat="45.7660725" lon="11.229324"><ele>709.6666666666666</ele><time>2026-04-12T10:21:45.757Z</time></trkpt><trkpt lat="45.7661544" lon="11.2293831"><ele>709.5</ele><time>2026-04-12T10:21:47.756Z</time></trkpt><trkpt lat="45.7662204" lon="11.2294322"><ele>709.3333333333334</ele><time>2026-04-12T10:21:50.756Z</time></trkpt><trkpt lat="45.7661732" lon="11.229516"><ele>709.1666666666667</ele><time>2026-04-12T10:22:04.757Z</time></trkpt><trkpt lat="45.766092" lon="11.2295518"><ele>709.0</ele><time>2026-04-12T10:22:07.756Z</time></trkpt><trkpt lat="45.7660206" lon="11.2295277"><ele>705.3333333333334</ele><time>2026-04-12T10:22:09.756Z</time></trkpt><trkpt lat="45.7659532" lon="11.2294597"><ele>701.6666666666667</ele><time>2026-04-12T10:22:11.757Z</time></trkpt><trkpt lat="45.7658901" lon="11.229394"><ele>698.0</ele><time>2026-04-12T10:22:13.757Z</time></trkpt><trkpt lat="45.7658081" lon="11.2293343"><ele>694.3333333333334</ele><time>2026-04-12T10:22:16.757Z</time></trkpt><trkpt lat="45.7657224" lon="11.2293499"><ele>690.6666666666666</ele><time>2026-04-12T10:22:19.756Z</time></trkpt><trkpt lat="45.7656558" lon="11.2293585"><ele>687.0</ele><time>2026-04-12T10:22:22.756Z</time></trkpt><trkpt lat="45.7657214" lon="11.2293804"><ele>687.0</ele><time>2026-04-12T10:22:45.757Z</time></trkpt><trkpt lat="45.7658048" lon="11.2294182"><ele>687.0</ele><time>2026-04-12T10:22:48.757Z</time></trkpt><trkpt lat="45.7659065" lon="11.2295095"><ele>687.0</ele><time>2026-04-12T10:22:50.757Z</time></trkpt><trkpt lat="45.7659777" lon="11.2295483"><ele>687.0</ele><time>2026-04-12T10:22:51.757Z</time></trkpt><trkpt lat="45.76604" lon="11.229593"><ele>687.0</ele><time>2026-04-12T10:22:52.756Z</time></trkpt><trkpt lat="45.7661108" lon="11.2296853"><ele>687.0</ele><time>2026-04-12T10:22:54.757Z</time></trkpt><trkpt lat="45.7661561" lon="11.2297912"><ele>686.5</ele><time>2026-04-12T10:22:56.757Z</time></trkpt><trkpt lat="45.7661429" lon="11.2298897"><ele>686.0</ele><time>2026-04-12T10:22:58.756Z</time></trkpt><trkpt lat="45.7660829" lon="11.2299277"><ele>685.5</ele><time>2026-04-12T10:23:00.757Z</time></trkpt><trkpt lat="45.7660043" lon="11.2299675"><ele>685.0</ele><time>2026-04-12T10:23:02.757Z</time></trkpt><trkpt lat="45.7659037" lon="11.2300303"><ele>684.5</ele><time>2026-04-12T10:23:04.756Z</time></trkpt><trkpt lat="45.7658074" lon="11.2301106"><ele>684.0</ele><time>2026-04-12T10:23:06.756Z</time></trkpt><trkpt lat="45.7657158" lon="11.2302184"><ele>683.9999999999999</ele><time>2026-04-12T10:23:08.756Z</time></trkpt><trkpt lat="45.7656693" lon="11.2302814"><ele>684.0</ele><time>2026-04-12T10:23:09.757Z</time></trkpt><trkpt lat="45.7656287" lon="11.2303583"><ele>684.0</ele><time>2026-04-12T10:23:10.757Z</time></trkpt><trkpt lat="45.7655877" lon="11.2304424"><ele>684.0</ele><time>2026-04-12T10:23:11.756Z</time></trkpt><trkpt lat="45.7655419" lon="11.2305271"><ele>684.0</ele><time>2026-04-12T10:23:12.756Z</time></trkpt><trkpt lat="45.7654903" lon="11.2306195"><ele>683.9999999999999</ele><time>2026-04-12T10:23:13.757Z</time></trkpt><trkpt lat="45.7654428" lon="11.2306988"><ele>684.0</ele><time>2026-04-12T10:23:14.757Z</time></trkpt><trkpt lat="45.7654073" lon="11.2307917"><ele>686.1666666666666</ele><time>2026-04-12T10:23:15.757Z</time></trkpt><trkpt lat="45.7653935" lon="11.2309079"><ele>688.3333333333334</ele><time>2026-04-12T10:23:16.757Z</time></trkpt><trkpt lat="45.7653903" lon="11.2310427"><ele>690.5</ele><time>2026-04-12T10:23:17.756Z</time></trkpt><trkpt lat="45.7653851" lon="11.2311798"><ele>692.6666666666667</ele><time>2026-04-12T10:23:18.756Z</time></trkpt><trkpt lat="45.7653754" lon="11.2312984"><ele>694.8333333333334</ele><time>2026-04-12T10:23:19.757Z</time></trkpt><trkpt lat="45.7653744" lon="11.231405"><ele>697.0</ele><time>2026-04-12T10:23:20.757Z</time></trkpt><trkpt lat="45.7653938" lon="11.2315164"><ele>699.1666666666667</ele><time>2026-04-12T10:23:21.755Z</time></trkpt><trkpt lat="45.7654252" lon="11.2316009"><ele>701.3333333333334</ele><time>2026-04-12T10:23:22.755Z</time></trkpt><trkpt lat="45.7654962" lon="11.2317288"><ele>703.5</ele><time>2026-04-12T10:23:24.756Z</time></trkpt><trkpt lat="45.765526" lon="11.2318101"><ele>705.6666666666666</ele><time>2026-04-12T10:23:25.755Z</time></trkpt><trkpt lat="45.7654752" lon="11.2319591"><ele>707.8333333333333</ele><time>2026-04-12T10:23:27.756Z</time></trkpt><trkpt lat="45.7654074" lon="11.2320343"><ele>710.0</ele><time>2026-04-12T10:23:28.755Z</time></trkpt><trkpt lat="45.7653404" lon="11.2321093"><ele>710.0</ele><time>2026-04-12T10:23:29.755Z</time></trkpt><trkpt lat="45.7652781" lon="11.23219"><ele>710.0</ele><time>2026-04-12T10:23:30.755Z</time></trkpt><trkpt lat="45.765232" lon="11.2322779"><ele>710.0</ele><time>2026-04-12T10:23:31.756Z</time></trkpt><trkpt lat="45.7652085" lon="11.2323693"><ele>710.0</ele><time>2026-04-12T10:23:32.755Z</time></trkpt><trkpt lat="45.7652277" lon="11.2325239"><ele>710.0</ele><time>2026-04-12T10:23:34.756Z</time></trkpt><trkpt lat="45.765336" lon="11.2326316"><ele>709.8</ele><time>2026-04-12T10:23:36.755Z</time></trkpt><trkpt lat="45.7654231" lon="11.2326709"><ele>709.6</ele><time>2026-04-12T10:23:37.755Z</time></trkpt><trkpt lat="45.7655157" lon="11.2326954"><ele>709.4000000000001</ele><time>2026-04-12T10:23:38.755Z</time></trkpt><trkpt lat="45.7656064" lon="11.2327147"><ele>709.2</ele><time>2026-04-12T10:23:39.755Z</time></trkpt><trkpt lat="45.765701" lon="11.2327308"><ele>709.0</ele><time>2026-04-12T10:23:40.756Z</time></trkpt><trkpt lat="45.7657872" lon="11.2327435"><ele>709.0</ele><time>2026-04-12T10:23:41.756Z</time></trkpt><trkpt lat="45.7658623" lon="11.2327642"><ele>709.0</ele><time>2026-04-12T10:23:42.755Z</time></trkpt><trkpt lat="45.7659254" lon="11.2327902"><ele>709.0</ele><time>2026-04-12T10:23:43.756Z</time></trkpt><trkpt lat="45.7659875" lon="11.2328397"><ele>709.0</ele><time>2026-04-12T10:23:44.755Z</time></trkpt><trkpt lat="45.7660586" lon="11.2329014"><ele>709.0</ele><time>2026-04-12T10:23:45.755Z</time></trkpt><trkpt lat="45.7661463" lon="11.2329705"><ele>709.0</ele><time>2026-04-12T10:23:46.756Z</time></trkpt><trkpt lat="45.7662312" lon="11.2330421"><ele>711.6</ele><time>2026-04-12T10:23:47.755Z</time></trkpt><trkpt lat="45.7663266" lon="11.2331136"><ele>714.2</ele><time>2026-04-12T10:23:48.755Z</time></trkpt><trkpt lat="45.7664253" lon="11.2331862"><ele>716.8000000000001</ele><time>2026-04-12T10:23:49.756Z</time></trkpt><trkpt lat="45.7665156" lon="11.233255"><ele>719.4000000000001</ele><time>2026-04-12T10:23:50.756Z</time></trkpt><trkpt lat="45.7665968" lon="11.2333214"><ele>722.0</ele><time>2026-04-12T10:23:51.755Z</time></trkpt><trkpt lat="45.7666735" lon="11.2333893"><ele>722.0</ele><time>2026-04-12T10:23:52.756Z</time></trkpt><trkpt lat="45.7667364" lon="11.2334535"><ele>722.0</ele><time>2026-04-12T10:23:53.755Z</time></trkpt><trkpt lat="45.7668311" lon="11.2335619"><ele>722.0</ele><time>2026-04-12T10:23:55.755Z</time></trkpt><trkpt lat="45.7668746" lon="11.2336597"><ele>722.0</ele><time>2026-04-12T10:23:57.755Z</time></trkpt><trkpt lat="45.7667571" lon="11.2336782"><ele>722.0</ele><time>2026-04-12T10:24:00.756Z</time></trkpt><trkpt lat="45.7666826" lon="11.2336736"><ele>722.0</ele><time>2026-04-12T10:24:01.755Z</time></trkpt><trkpt lat="45.7665817" lon="11.2336687"><ele>722.0</ele><time>2026-04-12T10:24:02.755Z</time></trkpt><trkpt lat="45.7664844" lon="11.2336639"><ele>722.0</ele><time>2026-04-12T10:24:03.756Z</time></trkpt><trkpt lat="45.7663897" lon="11.2336966"><ele>722.0</ele><time>2026-04-12T10:24:04.756Z</time></trkpt><trkpt lat="45.7662887" lon="11.2337483"><ele>722.0</ele><time>2026-04-12T10:24:05.755Z</time></trkpt><trkpt lat="45.7661829" lon="11.2338086"><ele>722.0</ele><time>2026-04-12T10:24:06.755Z</time></trkpt><trkpt lat="45.7660721" lon="11.2338614"><ele>722.0</ele><time>2026-04-12T10:24:07.755Z</time></trkpt><trkpt lat="45.7659783" lon="11.2339229"><ele>722.0</ele><time>2026-04-12T10:24:08.756Z</time></trkpt><trkpt lat="45.7658923" lon="11.2339904"><ele>722.0</ele><time>2026-04-12T10:24:09.755Z</time></trkpt><trkpt lat="45.7658141" lon="11.2340652"><ele>722.0</ele><time>2026-04-12T10:24:10.755Z</time></trkpt><trkpt lat="45.7657353" lon="11.2341621"><ele>723.2</ele><time>2026-04-12T10:24:11.755Z</time></trkpt><trkpt lat="45.765659" lon="11.2342647"><ele>724.4000000000001</ele><time>2026-04-12T10:24:12.755Z</time></trkpt><trkpt lat="45.7655762" lon="11.2343746"><ele>725.5999999999999</ele><time>2026-04-12T10:24:13.755Z</time></trkpt><trkpt lat="45.7654938" lon="11.2344899"><ele>726.8</ele><time>2026-04-12T10:24:14.755Z</time></trkpt><trkpt lat="45.7654333" lon="11.2346219"><ele>728.0</ele><time>2026-04-12T10:24:15.755Z</time></trkpt><trkpt lat="45.7653832" lon="11.2347627"><ele>734.5</ele><time>2026-04-12T10:24:16.755Z</time></trkpt><trkpt lat="45.7653367" lon="11.2349142"><ele>741.0</ele><time>2026-04-12T10:24:17.756Z</time></trkpt><trkpt lat="45.7652955" lon="11.2350646"><ele>747.5</ele><time>2026-04-12T10:24:18.756Z</time></trkpt><trkpt lat="45.7652669" lon="11.2352266"><ele>754.0</ele><time>2026-04-12T10:24:19.755Z</time></trkpt><trkpt lat="45.7652366" lon="11.235385"><ele>754.0</ele><time>2026-04-12T10:24:20.756Z</time></trkpt><trkpt lat="45.7652183" lon="11.2355365"><ele>754.0</ele><time>2026-04-12T10:24:21.756Z</time></trkpt><trkpt lat="45.765217" lon="11.2356723"><ele>754.0</ele><time>2026-04-12T10:24:22.756Z</time></trkpt><trkpt lat="45.7652342" lon="11.2357985"><ele>754.0</ele><time>2026-04-12T10:24:23.756Z</time></trkpt><trkpt lat="45.7652661" lon="11.2359251"><ele>754.0</ele><time>2026-04-12T10:24:24.755Z</time></trkpt><trkpt lat="45.7652972" lon="11.2360424"><ele>755.8571428571428</ele><time>2026-04-12T10:24:25.755Z</time></trkpt><trkpt lat="45.765317" lon="11.2361566"><ele>757.7142857142857</ele><time>2026-04-12T10:24:26.756Z</time></trkpt><trkpt lat="45.7653091" lon="11.2362654"><ele>759.5714285714286</ele><time>2026-04-12T10:24:27.756Z</time></trkpt><trkpt lat="45.7652884" lon="11.2363617"><ele>761.4285714285713</ele><time>2026-04-12T10:24:28.756Z</time></trkpt><trkpt lat="45.765249" lon="11.2364501"><ele>763.2857142857143</ele><time>2026-04-12T10:24:29.755Z</time></trkpt><trkpt lat="45.765216" lon="11.2365441"><ele>765.1428571428571</ele><time>2026-04-12T10:24:30.756Z</time></trkpt><trkpt lat="45.765197" lon="11.2366355"><ele>767.0</ele><time>2026-04-12T10:24:31.755Z</time></trkpt><trkpt lat="45.7652284" lon="11.2367466"><ele>769.0</ele><time>2026-04-12T10:24:32.756Z</time></trkpt><trkpt lat="45.7652744" lon="11.2368593"><ele>771.0</ele><time>2026-04-12T10:24:33.756Z</time></trkpt><trkpt lat="45.7653266" lon="11.2369838"><ele>773.0</ele><time>2026-04-12T10:24:34.756Z</time></trkpt><trkpt lat="45.7653829" lon="11.2370961"><ele>775.0</ele><time>2026-04-12T10:24:35.756Z</time></trkpt><trkpt lat="45.7654496" lon="11.2371916"><ele>777.0</ele><time>2026-04-12T10:24:36.755Z</time></trkpt><trkpt lat="45.7655209" lon="11.2372721"><ele>776.2</ele><time>2026-04-12T10:24:37.756Z</time></trkpt><trkpt lat="45.7656002" lon="11.2373469"><ele>775.4000000000001</ele><time>2026-04-12T10:24:38.755Z</time></trkpt><trkpt lat="45.7656753" lon="11.2374228"><ele>774.5999999999999</ele><time>2026-04-12T10:24:39.756Z</time></trkpt><trkpt lat="45.7657474" lon="11.2375049"><ele>773.8</ele><time>2026-04-12T10:24:40.755Z</time></trkpt><trkpt lat="45.7658242" lon="11.2375881"><ele>773.0</ele><time>2026-04-12T10:24:41.756Z</time></trkpt><trkpt lat="45.7658849" lon="11.2376728"><ele>773.0</ele><time>2026-04-12T10:24:42.755Z</time></trkpt><trkpt lat="45.765951" lon="11.2377545"><ele>773.0</ele><time>2026-04-12T10:24:43.755Z</time></trkpt><trkpt lat="45.7659731" lon="11.2378435"><ele>773.0</ele><time>2026-04-12T10:24:44.756Z</time></trkpt><trkpt lat="45.7659742" lon="11.2379382"><ele>773.0</ele><time>2026-04-12T10:24:45.755Z</time></trkpt><trkpt lat="45.7659603" lon="11.2380402"><ele>773.0</ele><time>2026-04-12T10:24:46.756Z</time></trkpt><trkpt lat="45.7659424" lon="11.2381306"><ele>773.0</ele><time>2026-04-12T10:24:47.756Z</time></trkpt><trkpt lat="45.7659005" lon="11.2382212"><ele>773.0</ele><time>2026-04-12T10:24:48.756Z</time></trkpt><trkpt lat="45.7658429" lon="11.2382999"><ele>771.8</ele><time>2026-04-12T10:24:49.755Z</time></trkpt><trkpt lat="45.7657486" lon="11.2383777"><ele>770.5999999999999</ele><time>2026-04-12T10:24:50.755Z</time></trkpt><trkpt lat="45.7656533" lon="11.2384585"><ele>769.4000000000001</ele><time>2026-04-12T10:24:51.755Z</time></trkpt><trkpt lat="45.7655707" lon="11.2385379"><ele>768.2</ele><time>2026-04-12T10:24:52.756Z</time></trkpt><trkpt lat="45.7654856" lon="11.2386203"><ele>767.0</ele><time>2026-04-12T10:24:53.755Z</time></trkpt><trkpt lat="45.765397" lon="11.2387021"><ele>767.0</ele><time>2026-04-12T10:24:54.755Z</time></trkpt><trkpt lat="45.7653152" lon="11.238798"><ele>767.0</ele><time>2026-04-12T10:24:55.755Z</time></trkpt><trkpt lat="45.7652298" lon="11.2388933"><ele>767.0</ele><time>2026-04-12T10:24:56.756Z</time></trkpt><trkpt lat="45.7651469" lon="11.2389873"><ele>767.0</ele><time>2026-04-12T10:24:57.756Z</time></trkpt><trkpt lat="45.7650721" lon="11.2390645"><ele>767.0</ele><time>2026-04-12T10:24:58.755Z</time></trkpt><trkpt lat="45.7650029" lon="11.2391279"><ele>766.5</ele><time>2026-04-12T10:24:59.756Z</time></trkpt><trkpt lat="45.7649427" lon="11.2391727"><ele>766.0</ele><time>2026-04-12T10:25:00.756Z</time></trkpt><trkpt lat="45.7648443" lon="11.2392184"><ele>765.5</ele><time>2026-04-12T10:25:02.756Z</time></trkpt><trkpt lat="45.7647642" lon="11.2392324"><ele>765.0</ele><time>2026-04-12T10:25:05.756Z</time></trkpt><trkpt lat="45.7646998" lon="11.239217"><ele>764.5</ele><time>2026-04-12T10:25:11.755Z</time></trkpt><trkpt lat="45.764636" lon="11.2391869"><ele>764.0</ele><time>2026-04-12T10:25:15.756Z</time></trkpt><trkpt lat="45.764717" lon="11.2392069"><ele>764.0</ele><time>2026-04-12T10:25:37.756Z</time></trkpt><trkpt lat="45.7648076" lon="11.239256"><ele>764.0</ele><time>2026-04-12T10:25:39.756Z</time></trkpt><trkpt lat="45.7648865" lon="11.2392871"><ele>764.0</ele><time>2026-04-12T10:25:41.755Z</time></trkpt><trkpt lat="45.764843" lon="11.2393711"><ele>764.0</ele><time>2026-04-12T10:25:46.755Z</time></trkpt><trkpt lat="45.764766" lon="11.2394553"><ele>764.0</ele><time>2026-04-12T10:25:48.756Z</time></trkpt><trkpt lat="45.7647069" lon="11.2395803"><ele>764.0</ele><time>2026-04-12T10:25:50.756Z</time></trkpt><trkpt lat="45.7646749" lon="11.2397479"><ele>764.0</ele><time>2026-04-12T10:25:52.755Z</time></trkpt><trkpt lat="45.7646648" lon="11.239905"><ele>764.0</ele><time>2026-04-12T10:25:54.756Z</time></trkpt><trkpt lat="45.764675" lon="11.2399949"><ele>764.0</ele><time>2026-04-12T10:25:55.755Z</time></trkpt><trkpt lat="45.7646995" lon="11.2401504"><ele>764.0</ele><time>2026-04-12T10:25:57.755Z</time></trkpt><trkpt lat="45.7647293" lon="11.2402853"><ele>766.6666666666666</ele><time>2026-04-12T10:25:59.756Z</time></trkpt><trkpt lat="45.7647751" lon="11.2403539"><ele>769.3333333333333</ele><time>2026-04-12T10:26:02.756Z</time></trkpt><trkpt lat="45.7648515" lon="11.2404422"><ele>772.0</ele><time>2026-04-12T10:26:06.756Z</time></trkpt><trkpt lat="45.7649102" lon="11.2405169"><ele>774.6666666666666</ele><time>2026-04-12T10:26:08.755Z</time></trkpt><trkpt lat="45.7649479" lon="11.240616"><ele>777.3333333333334</ele><time>2026-04-12T10:26:10.756Z</time></trkpt><trkpt lat="45.7649531" lon="11.2407284"><ele>780.0</ele><time>2026-04-12T10:26:12.756Z</time></trkpt><trkpt lat="45.7649165" lon="11.2408513"><ele>780.0</ele><time>2026-04-12T10:26:14.756Z</time></trkpt><trkpt lat="45.7648627" lon="11.240979"><ele>780.0</ele><time>2026-04-12T10:26:16.756Z</time></trkpt><trkpt lat="45.7648172" lon="11.2411146"><ele>780.0</ele><time>2026-04-12T10:26:18.756Z</time></trkpt><trkpt lat="45.7647681" lon="11.2411839"><ele>780.0</ele><time>2026-04-12T10:26:20.756Z</time></trkpt><trkpt lat="45.7646959" lon="11.2411453"><ele>780.0</ele><time>2026-04-12T10:26:23.756Z</time></trkpt><trkpt lat="45.7646647" lon="11.241048"><ele>780.0</ele><time>2026-04-12T10:26:25.756Z</time></trkpt><trkpt lat="45.7646332" lon="11.2409306"><ele>780.0</ele><time>2026-04-12T10:26:27.756Z</time></trkpt><trkpt lat="45.7645987" lon="11.2408383"><ele>780.0</ele><time>2026-04-12T10:26:29.756Z</time></trkpt><trkpt lat="45.7645529" lon="11.2407709"><ele>780.0</ele><time>2026-04-12T10:26:32.755Z</time></trkpt><trkpt lat="45.7645206" lon="11.2408919"><ele>780.0</ele><time>2026-04-12T10:26:36.755Z</time></trkpt><trkpt lat="45.7645202" lon="11.2409958"><ele>780.0</ele><time>2026-04-12T10:26:38.756Z</time></trkpt><trkpt lat="45.7645325" lon="11.2411042"><ele>780.0</ele><time>2026-04-12T10:26:40.756Z</time></trkpt><trkpt lat="45.7645175" lon="11.2412115"><ele>780.0</ele><time>2026-04-12T10:26:43.755Z</time></trkpt><trkpt lat="45.7644637" lon="11.2413318"><ele>780.0</ele><time>2026-04-12T10:26:46.756Z</time></trkpt><trkpt lat="45.7644281" lon="11.2414362"><ele>780.0</ele><time>2026-04-12T10:26:48.755Z</time></trkpt><trkpt lat="45.7643873" lon="11.2415458"><ele>780.0</ele><time>2026-04-12T10:26:50.755Z</time></trkpt><trkpt lat="45.7643976" lon="11.2416798"><ele>780.0</ele><time>2026-04-12T10:26:52.756Z</time></trkpt><trkpt lat="45.7644631" lon="11.2417723"><ele>780.4</ele><time>2026-04-12T10:26:54.754Z</time></trkpt><trkpt lat="45.7645081" lon="11.2418898"><ele>780.8</ele><time>2026-04-12T10:26:56.755Z</time></trkpt><trkpt lat="45.7645157" lon="11.2420227"><ele>781.2</ele><time>2026-04-12T10:26:58.755Z</time></trkpt><trkpt lat="45.764501" lon="11.2421113"><ele>781.6</ele><time>2026-04-12T10:26:59.755Z</time></trkpt><trkpt lat="45.764448" lon="11.2422854"><ele>782.0</ele><time>2026-04-12T10:27:01.754Z</time></trkpt><trkpt lat="45.7644178" lon="11.242378"><ele>782.0000000000001</ele><time>2026-04-12T10:27:02.754Z</time></trkpt><trkpt lat="45.7643917" lon="11.2424726"><ele>782.0</ele><time>2026-04-12T10:27:03.754Z</time></trkpt><trkpt lat="45.7643548" lon="11.2425747"><ele>782.0</ele><time>2026-04-12T10:27:04.754Z</time></trkpt><trkpt lat="45.7643288" lon="11.242685"><ele>782.0</ele><time>2026-04-12T10:27:05.754Z</time></trkpt><trkpt lat="45.7642971" lon="11.2427962"><ele>782.0000000000001</ele><time>2026-04-12T10:27:06.754Z</time></trkpt><trkpt lat="45.7642686" lon="11.2429005"><ele>782.0</ele><time>2026-04-12T10:27:07.755Z</time></trkpt><trkpt lat="45.7642528" lon="11.2429943"><ele>775.4000000000001</ele><time>2026-04-12T10:27:08.755Z</time></trkpt><trkpt lat="45.7642179" lon="11.2431391"><ele>768.8000000000001</ele><time>2026-04-12T10:27:10.754Z</time></trkpt><trkpt lat="45.7641913" lon="11.2432829"><ele>762.2</ele><time>2026-04-12T10:27:12.755Z</time></trkpt><trkpt lat="45.7641952" lon="11.2434556"><ele>755.6</ele><time>2026-04-12T10:27:14.754Z</time></trkpt><trkpt lat="45.7642057" lon="11.2435568"><ele>749.0</ele><time>2026-04-12T10:27:15.754Z</time></trkpt><trkpt lat="45.76421" lon="11.2436519"><ele>749.0</ele><time>2026-04-12T10:27:16.754Z</time></trkpt><trkpt lat="45.7642041" lon="11.2438095"><ele>749.0</ele><time>2026-04-12T10:27:18.755Z</time></trkpt><trkpt lat="45.7641558" lon="11.2439183"><ele>749.0</ele><time>2026-04-12T10:27:20.755Z</time></trkpt><trkpt lat="45.7640892" lon="11.2439771"><ele>749.0</ele><time>2026-04-12T10:27:22.755Z</time></trkpt><trkpt lat="45.7640403" lon="11.2440731"><ele>749.0</ele><time>2026-04-12T10:27:25.755Z</time></trkpt><trkpt lat="45.764036" lon="11.2442056"><ele>749.8000000000001</ele><time>2026-04-12T10:27:28.755Z</time></trkpt><trkpt lat="45.7640055" lon="11.244292"><ele>750.6</ele><time>2026-04-12T10:27:30.754Z</time></trkpt><trkpt lat="45.7639433" lon="11.2443504"><ele>751.4</ele><time>2026-04-12T10:27:32.755Z</time></trkpt><trkpt lat="45.7638581" lon="11.244432"><ele>752.2</ele><time>2026-04-12T10:27:34.754Z</time></trkpt><trkpt lat="45.7637669" lon="11.2445525"><ele>753.0</ele><time>2026-04-12T10:27:36.754Z</time></trkpt><trkpt lat="45.7637119" lon="11.2447054"><ele>751.5</ele><time>2026-04-12T10:27:38.754Z</time></trkpt><trkpt lat="45.7636737" lon="11.244822"><ele>750.0</ele><time>2026-04-12T10:27:40.755Z</time></trkpt><trkpt lat="45.7636255" lon="11.2448976"><ele>748.5</ele><time>2026-04-12T10:27:42.755Z</time></trkpt><trkpt lat="45.763559" lon="11.2449418"><ele>747.0</ele><time>2026-04-12T10:27:44.755Z</time></trkpt><trkpt lat="45.7634892" lon="11.2449519"><ele>745.5</ele><time>2026-04-12T10:27:46.754Z</time></trkpt><trkpt lat="45.763404" lon="11.2449363"><ele>744.0</ele><time>2026-04-12T10:27:48.755Z</time></trkpt><trkpt lat="45.7633143" lon="11.2449149"><ele>744.0</ele><time>2026-04-12T10:27:50.754Z</time></trkpt><trkpt lat="45.7632344" lon="11.244935"><ele>744.0</ele><time>2026-04-12T10:27:52.755Z</time></trkpt><trkpt lat="45.7631513" lon="11.2449828"><ele>744.0</ele><time>2026-04-12T10:27:54.755Z</time></trkpt><trkpt lat="45.7630899" lon="11.2450449"><ele>744.0</ele><time>2026-04-12T10:27:56.754Z</time></trkpt><trkpt lat="45.7630078" lon="11.2450693"><ele>744.0</ele><time>2026-04-12T10:27:58.754Z</time></trkpt><trkpt lat="45.762903" lon="11.2450555"><ele>744.0</ele><time>2026-04-12T10:28:00.755Z</time></trkpt><trkpt lat="45.7628239" lon="11.24507"><ele>744.0</ele><time>2026-04-12T10:28:02.754Z</time></trkpt><trkpt lat="45.7627487" lon="11.2450934"><ele>744.0</ele><time>2026-04-12T10:28:05.754Z</time></trkpt><trkpt lat="45.7626627" lon="11.245016"><ele>744.0</ele><time>2026-04-12T10:28:08.754Z</time></trkpt><trkpt lat="45.7626299" lon="11.2449375"><ele>744.0</ele><time>2026-04-12T10:28:09.754Z</time></trkpt><trkpt lat="45.7625963" lon="11.2448488"><ele>744.0</ele><time>2026-04-12T10:28:10.754Z</time></trkpt><trkpt lat="45.7625587" lon="11.2447628"><ele>744.0</ele><time>2026-04-12T10:28:11.755Z</time></trkpt><trkpt lat="45.7625176" lon="11.244688"><ele>739.8000000000001</ele><time>2026-04-12T10:28:12.755Z</time></trkpt><trkpt lat="45.7624671" lon="11.2446224"><ele>735.6</ele><time>2026-04-12T10:28:13.755Z</time></trkpt><trkpt lat="45.7623609" lon="11.2445447"><ele>731.4</ele><time>2026-04-12T10:28:15.754Z</time></trkpt><trkpt lat="45.7622406" lon="11.2445317"><ele>727.2</ele><time>2026-04-12T10:28:17.754Z</time></trkpt><trkpt lat="45.7621218" lon="11.244552"><ele>723.0</ele><time>2026-04-12T10:28:19.755Z</time></trkpt><trkpt lat="45.7620289" lon="11.2445247"><ele>723.0</ele><time>2026-04-12T10:28:21.755Z</time></trkpt><trkpt lat="45.7619618" lon="11.2444207"><ele>723.0</ele><time>2026-04-12T10:28:23.754Z</time></trkpt><trkpt lat="45.7619317" lon="11.2443273"><ele>723.0</ele><time>2026-04-12T10:28:24.755Z</time></trkpt><trkpt lat="45.7618973" lon="11.2442328"><ele>723.0</ele><time>2026-04-12T10:28:25.754Z</time></trkpt><trkpt lat="45.7618661" lon="11.2441223"><ele>723.0</ele><time>2026-04-12T10:28:26.754Z</time></trkpt><trkpt lat="45.7618353" lon="11.2440385"><ele>723.0</ele><time>2026-04-12T10:28:27.754Z</time></trkpt><trkpt lat="45.7617639" lon="11.2439275"><ele>721.0</ele><time>2026-04-12T10:28:29.755Z</time></trkpt><trkpt lat="45.7616708" lon="11.2438778"><ele>719.0</ele><time>2026-04-12T10:28:31.755Z</time></trkpt><trkpt lat="45.7615621" lon="11.243893"><ele>717.0</ele><time>2026-04-12T10:28:33.755Z</time></trkpt><trkpt lat="45.7614489" lon="11.2439647"><ele>715.0</ele><time>2026-04-12T10:28:35.754Z</time></trkpt><trkpt lat="45.7613862" lon="11.2440102"><ele>713.0</ele><time>2026-04-12T10:28:36.754Z</time></trkpt><trkpt lat="45.7612896" lon="11.2440712"><ele>716.5</ele><time>2026-04-12T10:28:38.754Z</time></trkpt><trkpt lat="45.761221" lon="11.2441251"><ele>720.0</ele><time>2026-04-12T10:28:40.754Z</time></trkpt><trkpt lat="45.7611306" lon="11.2441651"><ele>723.5</ele><time>2026-04-12T10:28:43.755Z</time></trkpt><trkpt lat="45.7610585" lon="11.2441834"><ele>727.0</ele><time>2026-04-12T10:28:45.754Z</time></trkpt><trkpt lat="45.7609886" lon="11.2441829"><ele>730.5</ele><time>2026-04-12T10:28:47.754Z</time></trkpt><trkpt lat="45.760905" lon="11.2441642"><ele>734.0</ele><time>2026-04-12T10:28:49.754Z</time></trkpt><trkpt lat="45.7608247" lon="11.244123"><ele>734.0</ele><time>2026-04-12T10:28:51.755Z</time></trkpt><trkpt lat="45.7607468" lon="11.2440815"><ele>734.0</ele><time>2026-04-12T10:28:53.755Z</time></trkpt><trkpt lat="45.7606522" lon="11.2440912"><ele>734.0</ele><time>2026-04-12T10:28:55.755Z</time></trkpt><trkpt lat="45.7605376" lon="11.2440978"><ele>734.0</ele><time>2026-04-12T10:28:57.754Z</time></trkpt><trkpt lat="45.7604308" lon="11.2441089"><ele>734.0</ele><time>2026-04-12T10:28:59.755Z</time></trkpt><trkpt lat="45.7603331" lon="11.2441189"><ele>734.0</ele><time>2026-04-12T10:29:01.755Z</time></trkpt><trkpt lat="45.7602396" lon="11.2441227"><ele>734.0</ele><time>2026-04-12T10:29:03.754Z</time></trkpt><trkpt lat="45.7601531" lon="11.2441556"><ele>734.0</ele><time>2026-04-12T10:29:05.755Z</time></trkpt><trkpt lat="45.7600983" lon="11.244202"><ele>734.0</ele><time>2026-04-12T10:29:07.754Z</time></trkpt><trkpt lat="45.7600813" lon="11.2443014"><ele>734.0</ele><time>2026-04-12T10:29:10.755Z</time></trkpt><trkpt lat="45.7600387" lon="11.2443724"><ele>734.0</ele><time>2026-04-12T10:29:13.755Z</time></trkpt><trkpt lat="45.7599566" lon="11.2444014"><ele>732.5</ele><time>2026-04-12T10:29:15.755Z</time></trkpt><trkpt lat="45.7598865" lon="11.2444073"><ele>731.0</ele><time>2026-04-12T10:29:17.755Z</time></trkpt><trkpt lat="45.7598003" lon="11.2444045"><ele>729.5</ele><time>2026-04-12T10:29:19.754Z</time></trkpt><trkpt lat="45.7597191" lon="11.2444302"><ele>728.0</ele><time>2026-04-12T10:29:21.755Z</time></trkpt><trkpt lat="45.7596437" lon="11.2444586"><ele>726.5</ele><time>2026-04-12T10:29:23.755Z</time></trkpt><trkpt lat="45.7595756" lon="11.2445272"><ele>725.0</ele><time>2026-04-12T10:29:25.755Z</time></trkpt><trkpt lat="45.7595253" lon="11.244596"><ele>725.0</ele><time>2026-04-12T10:29:27.754Z</time></trkpt><trkpt lat="45.7594663" lon="11.244631"><ele>725.0</ele><time>2026-04-12T10:29:29.754Z</time></trkpt><trkpt lat="45.759363" lon="11.2446469"><ele>725.0</ele><time>2026-04-12T10:29:31.755Z</time></trkpt><trkpt lat="45.7592949" lon="11.2446536"><ele>725.0</ele><time>2026-04-12T10:29:32.755Z</time></trkpt><trkpt lat="45.7592259" lon="11.2446512"><ele>725.0</ele><time>2026-04-12T10:29:33.755Z</time></trkpt><trkpt lat="45.7591569" lon="11.2446587"><ele>725.0</ele><time>2026-04-12T10:29:34.755Z</time></trkpt><trkpt lat="45.7590807" lon="11.244695"><ele>725.5714285714286</ele><time>2026-04-12T10:29:35.754Z</time></trkpt><trkpt lat="45.7590087" lon="11.2447431"><ele>726.1428571428571</ele><time>2026-04-12T10:29:36.755Z</time></trkpt><trkpt lat="45.7589394" lon="11.244783"><ele>726.7142857142858</ele><time>2026-04-12T10:29:37.754Z</time></trkpt><trkpt lat="45.7588736" lon="11.2448189"><ele>727.2857142857142</ele><time>2026-04-12T10:29:38.755Z</time></trkpt><trkpt lat="45.7588161" lon="11.2448578"><ele>727.8571428571428</ele><time>2026-04-12T10:29:39.755Z</time></trkpt><trkpt lat="45.7587585" lon="11.2449103"><ele>728.4285714285714</ele><time>2026-04-12T10:29:40.754Z</time></trkpt><trkpt lat="45.7586973" lon="11.2449652"><ele>729.0</ele><time>2026-04-12T10:29:41.755Z</time></trkpt><trkpt lat="45.7586457" lon="11.2450454"><ele>729.0</ele><time>2026-04-12T10:29:42.755Z</time></trkpt><trkpt lat="45.7585915" lon="11.2451282"><ele>729.0</ele><time>2026-04-12T10:29:43.755Z</time></trkpt><trkpt lat="45.758538" lon="11.2452147"><ele>729.0</ele><time>2026-04-12T10:29:44.755Z</time></trkpt><trkpt lat="45.7584872" lon="11.2453089"><ele>729.0</ele><time>2026-04-12T10:29:45.754Z</time></trkpt><trkpt lat="45.7584334" lon="11.2454162"><ele>729.0</ele><time>2026-04-12T10:29:46.754Z</time></trkpt><trkpt lat="45.7583831" lon="11.245523"><ele>729.0</ele><time>2026-04-12T10:29:47.755Z</time></trkpt><trkpt lat="45.7583427" lon="11.2456314"><ele>728.0</ele><time>2026-04-12T10:29:48.755Z</time></trkpt><trkpt lat="45.7583052" lon="11.2457324"><ele>727.0</ele><time>2026-04-12T10:29:49.755Z</time></trkpt><trkpt lat="45.758282" lon="11.2458247"><ele>726.0</ele><time>2026-04-12T10:29:50.755Z</time></trkpt><trkpt lat="45.7582643" lon="11.2459824"><ele>725.0</ele><time>2026-04-12T10:29:52.754Z</time></trkpt><trkpt lat="45.7582703" lon="11.2461314"><ele>724.0</ele><time>2026-04-12T10:29:54.755Z</time></trkpt><trkpt lat="45.7583068" lon="11.2462789"><ele>724.0</ele><time>2026-04-12T10:29:56.755Z</time></trkpt><trkpt lat="45.7583585" lon="11.2463744"><ele>724.0</ele><time>2026-04-12T10:29:58.754Z</time></trkpt><trkpt lat="45.7584213" lon="11.246456"><ele>724.0</ele><time>2026-04-12T10:30:00.754Z</time></trkpt><trkpt lat="45.7585082" lon="11.2465516"><ele>724.0</ele><time>2026-04-12T10:30:02.755Z</time></trkpt><trkpt lat="45.7585669" lon="11.246593"><ele>724.0</ele><time>2026-04-12T10:30:03.755Z</time></trkpt><trkpt lat="45.7586317" lon="11.2466253"><ele>724.0</ele><time>2026-04-12T10:30:04.755Z</time></trkpt><trkpt lat="45.758704" lon="11.2466497"><ele>724.8333333333334</ele><time>2026-04-12T10:30:05.755Z</time></trkpt><trkpt lat="45.7587909" lon="11.2466579"><ele>725.6666666666667</ele><time>2026-04-12T10:30:06.754Z</time></trkpt><trkpt lat="45.7588727" lon="11.2466631"><ele>726.5</ele><time>2026-04-12T10:30:07.755Z</time></trkpt><trkpt lat="45.7589438" lon="11.2466701"><ele>727.3333333333334</ele><time>2026-04-12T10:30:08.754Z</time></trkpt><trkpt lat="45.7590094" lon="11.2466851"><ele>728.1666666666666</ele><time>2026-04-12T10:30:09.754Z</time></trkpt><trkpt lat="45.7591228" lon="11.2467256"><ele>729.0</ele><time>2026-04-12T10:30:11.755Z</time></trkpt><trkpt lat="45.759184" lon="11.2467729"><ele>729.0</ele><time>2026-04-12T10:30:12.755Z</time></trkpt><trkpt lat="45.7592504" lon="11.24679"><ele>729.0</ele><time>2026-04-12T10:30:13.755Z</time></trkpt><trkpt lat="45.7593188" lon="11.2467795"><ele>729.0</ele><time>2026-04-12T10:30:14.755Z</time></trkpt><trkpt lat="45.7593952" lon="11.2467601"><ele>729.0</ele><time>2026-04-12T10:30:15.754Z</time></trkpt><trkpt lat="45.7594776" lon="11.2467267"><ele>729.0</ele><time>2026-04-12T10:30:16.755Z</time></trkpt><trkpt lat="45.7595629" lon="11.2466872"><ele>729.0</ele><time>2026-04-12T10:30:17.755Z</time></trkpt><trkpt lat="45.75965" lon="11.2466507"><ele>731.1666666666666</ele><time>2026-04-12T10:30:18.754Z</time></trkpt><trkpt lat="45.7597292" lon="11.246612"><ele>733.3333333333334</ele><time>2026-04-12T10:30:19.755Z</time></trkpt><trkpt lat="45.7598009" lon="11.2465741"><ele>735.5</ele><time>2026-04-12T10:30:20.755Z</time></trkpt><trkpt lat="45.7598693" lon="11.2465538"><ele>737.6666666666667</ele><time>2026-04-12T10:30:21.754Z</time></trkpt><trkpt lat="45.7599335" lon="11.2465411"><ele>739.8333333333334</ele><time>2026-04-12T10:30:22.754Z</time></trkpt><trkpt lat="45.7600532" lon="11.246552"><ele>742.0</ele><time>2026-04-12T10:30:24.755Z</time></trkpt><trkpt lat="45.7601553" lon="11.2466139"><ele>742.0</ele><time>2026-04-12T10:30:26.755Z</time></trkpt><trkpt lat="45.7601897" lon="11.2467382"><ele>742.0</ele><time>2026-04-12T10:30:28.754Z</time></trkpt><trkpt lat="45.7601813" lon="11.2468682"><ele>742.0</ele><time>2026-04-12T10:30:30.754Z</time></trkpt><trkpt lat="45.7601394" lon="11.2469656"><ele>742.0</ele><time>2026-04-12T10:30:32.755Z</time></trkpt><trkpt lat="45.7601021" lon="11.2470918"><ele>742.0</ele><time>2026-04-12T10:30:34.755Z</time></trkpt><trkpt lat="45.7601116" lon="11.2471817"><ele>742.0</ele><time>2026-04-12T10:30:35.754Z</time></trkpt><trkpt lat="45.760126" lon="11.247279"><ele>739.1666666666667</ele><time>2026-04-12T10:30:36.755Z</time></trkpt><trkpt lat="45.7601381" lon="11.247383"><ele>736.3333333333334</ele><time>2026-04-12T10:30:37.754Z</time></trkpt><trkpt lat="45.7601396" lon="11.2475026"><ele>733.5</ele><time>2026-04-12T10:30:38.754Z</time></trkpt><trkpt lat="45.7601328" lon="11.2476275"><ele>730.6666666666666</ele><time>2026-04-12T10:30:39.754Z</time></trkpt><trkpt lat="45.7601281" lon="11.2477542"><ele>727.8333333333333</ele><time>2026-04-12T10:30:40.754Z</time></trkpt><trkpt lat="45.760134" lon="11.247881"><ele>725.0</ele><time>2026-04-12T10:30:41.753Z</time></trkpt><trkpt lat="45.7601439" lon="11.2480003"><ele>725.0</ele><time>2026-04-12T10:30:42.753Z</time></trkpt><trkpt lat="45.7601465" lon="11.2480996"><ele>725.0</ele><time>2026-04-12T10:30:43.754Z</time></trkpt><trkpt lat="45.7601454" lon="11.2481904"><ele>725.0</ele><time>2026-04-12T10:30:44.754Z</time></trkpt><trkpt lat="45.7601563" lon="11.2483265"><ele>725.0</ele><time>2026-04-12T10:30:46.754Z</time></trkpt><trkpt lat="45.760203" lon="11.2483947"><ele>725.0</ele><time>2026-04-12T10:30:48.754Z</time></trkpt><trkpt lat="45.7602805" lon="11.248419"><ele>725.0</ele><time>2026-04-12T10:30:50.754Z</time></trkpt><trkpt lat="45.7603792" lon="11.2485005"><ele>730.1428571428571</ele><time>2026-04-12T10:30:52.754Z</time></trkpt><trkpt lat="45.7604318" lon="11.2485544"><ele>735.2857142857143</ele><time>2026-04-12T10:30:53.753Z</time></trkpt><trkpt lat="45.760487" lon="11.2486086"><ele>740.4285714285713</ele><time>2026-04-12T10:30:54.753Z</time></trkpt><trkpt lat="45.7605464" lon="11.2486438"><ele>745.5714285714286</ele><time>2026-04-12T10:30:55.754Z</time></trkpt><trkpt lat="45.7606109" lon="11.2486697"><ele>750.7142857142857</ele><time>2026-04-12T10:30:56.754Z</time></trkpt><trkpt lat="45.7606816" lon="11.2486805"><ele>755.8571428571428</ele><time>2026-04-12T10:30:57.754Z</time></trkpt><trkpt lat="45.7607462" lon="11.2486901"><ele>761.0</ele><time>2026-04-12T10:30:58.753Z</time></trkpt><trkpt lat="45.7608581" lon="11.2486774"><ele>761.0</ele><time>2026-04-12T10:31:00.754Z</time></trkpt><trkpt lat="45.7609453" lon="11.2486387"><ele>761.0</ele><time>2026-04-12T10:31:02.753Z</time></trkpt><trkpt lat="45.760991" lon="11.2487248"><ele>761.0</ele><time>2026-04-12T10:31:04.753Z</time></trkpt><trkpt lat="45.7610114" lon="11.2488738"><ele>761.0</ele><time>2026-04-12T10:31:06.753Z</time></trkpt><trkpt lat="45.7610121" lon="11.2490514"><ele>761.0</ele><time>2026-04-12T10:31:08.754Z</time></trkpt><trkpt lat="45.7610321" lon="11.2491485"><ele>758.5</ele><time>2026-04-12T10:31:09.753Z</time></trkpt><trkpt lat="45.7610573" lon="11.2492522"><ele>756.0</ele><time>2026-04-12T10:31:10.753Z</time></trkpt><trkpt lat="45.7610891" lon="11.2493566"><ele>753.5</ele><time>2026-04-12T10:31:11.754Z</time></trkpt><trkpt lat="45.7611139" lon="11.249442"><ele>751.0</ele><time>2026-04-12T10:31:12.754Z</time></trkpt><trkpt lat="45.7611142" lon="11.2495619"><ele>748.5</ele><time>2026-04-12T10:31:14.754Z</time></trkpt><trkpt lat="45.7610493" lon="11.2496282"><ele>746.0</ele><time>2026-04-12T10:31:16.754Z</time></trkpt><trkpt lat="45.760959" lon="11.249704"><ele>746.0</ele><time>2026-04-12T10:31:18.753Z</time></trkpt><trkpt lat="45.7608862" lon="11.2497536"><ele>746.0</ele><time>2026-04-12T10:31:20.753Z</time></trkpt><trkpt lat="45.7608288" lon="11.2498003"><ele>746.0</ele><time>2026-04-12T10:31:22.753Z</time></trkpt><trkpt lat="45.7607773" lon="11.2498553"><ele>746.0</ele><time>2026-04-12T10:31:24.753Z</time></trkpt><trkpt lat="45.7607061" lon="11.2499064"><ele>746.0</ele><time>2026-04-12T10:31:26.754Z</time></trkpt><trkpt lat="45.7606609" lon="11.2499804"><ele>746.0</ele><time>2026-04-12T10:31:28.754Z</time></trkpt><trkpt lat="45.7606059" lon="11.2500561"><ele>746.0</ele><time>2026-04-12T10:31:31.753Z</time></trkpt><trkpt lat="45.7605493" lon="11.2501488"><ele>747.5</ele><time>2026-04-12T10:31:34.754Z</time></trkpt><trkpt lat="45.7604838" lon="11.2502018"><ele>749.0</ele><time>2026-04-12T10:31:36.754Z</time></trkpt><trkpt lat="45.7604078" lon="11.2502117"><ele>750.5</ele><time>2026-04-12T10:31:38.753Z</time></trkpt><trkpt lat="45.7603133" lon="11.2502243"><ele>752.0</ele><time>2026-04-12T10:31:40.753Z</time></trkpt><trkpt lat="45.7602257" lon="11.2502899"><ele>753.5</ele><time>2026-04-12T10:31:42.754Z</time></trkpt><trkpt lat="45.7601674" lon="11.2503887"><ele>755.0</ele><time>2026-04-12T10:31:44.754Z</time></trkpt><trkpt lat="45.7601245" lon="11.250468"><ele>755.6666666666666</ele><time>2026-04-12T10:31:46.753Z</time></trkpt><trkpt lat="45.7600408" lon="11.2504623"><ele>756.3333333333333</ele><time>2026-04-12T10:31:49.754Z</time></trkpt><trkpt lat="45.7599799" lon="11.2504279"><ele>757.0</ele><time>2026-04-12T10:31:51.753Z</time></trkpt><trkpt lat="45.7599026" lon="11.2504377"><ele>757.6666666666666</ele><time>2026-04-12T10:31:53.754Z</time></trkpt><trkpt lat="45.7598027" lon="11.2505194"><ele>758.3333333333334</ele><time>2026-04-12T10:31:55.753Z</time></trkpt><trkpt lat="45.75975" lon="11.2505793"><ele>759.0</ele><time>2026-04-12T10:31:56.754Z</time></trkpt><trkpt lat="45.7596988" lon="11.2506487"><ele>759.0</ele><time>2026-04-12T10:31:57.753Z</time></trkpt><trkpt lat="45.7596476" lon="11.2507277"><ele>759.0</ele><time>2026-04-12T10:31:58.754Z</time></trkpt><trkpt lat="45.7595992" lon="11.2508037"><ele>759.0</ele><time>2026-04-12T10:31:59.754Z</time></trkpt><trkpt lat="45.7595484" lon="11.2508736"><ele>759.0</ele><time>2026-04-12T10:32:00.753Z</time></trkpt><trkpt lat="45.7594545" lon="11.2509668"><ele>759.0</ele><time>2026-04-12T10:32:02.754Z</time></trkpt><trkpt lat="45.7593678" lon="11.2510166"><ele>759.0</ele><time>2026-04-12T10:32:04.753Z</time></trkpt><trkpt lat="45.7592796" lon="11.2510517"><ele>756.8333333333334</ele><time>2026-04-12T10:32:06.753Z</time></trkpt><trkpt lat="45.7592316" lon="11.2511254"><ele>754.6666666666666</ele><time>2026-04-12T10:32:09.754Z</time></trkpt><trkpt lat="45.7592404" lon="11.2512392"><ele>752.5</ele><time>2026-04-12T10:32:12.753Z</time></trkpt><trkpt lat="45.7592507" lon="11.2513406"><ele>750.3333333333333</ele><time>2026-04-12T10:32:14.754Z</time></trkpt><trkpt lat="45.7592422" lon="11.2514305"><ele>748.1666666666666</ele><time>2026-04-12T10:32:16.753Z</time></trkpt><trkpt lat="45.7591713" lon="11.2515344"><ele>746.0</ele><time>2026-04-12T10:32:19.753Z</time></trkpt><trkpt lat="45.7590981" lon="11.2515797"><ele>746.0</ele><time>2026-04-12T10:32:21.754Z</time></trkpt><trkpt lat="45.7590459" lon="11.2516906"><ele>746.0</ele><time>2026-04-12T10:32:24.753Z</time></trkpt><trkpt lat="45.7590243" lon="11.2518482"><ele>746.0</ele><time>2026-04-12T10:32:26.754Z</time></trkpt><trkpt lat="45.7590254" lon="11.2519461"><ele>746.0</ele><time>2026-04-12T10:32:27.753Z</time></trkpt><trkpt lat="45.7590245" lon="11.2520438"><ele>746.0</ele><time>2026-04-12T10:32:28.753Z</time></trkpt><trkpt lat="45.7590142" lon="11.252134"><ele>746.0</ele><time>2026-04-12T10:32:29.754Z</time></trkpt><trkpt lat="45.7589924" lon="11.252226"><ele>747.6666666666666</ele><time>2026-04-12T10:32:30.753Z</time></trkpt><trkpt lat="45.7589663" lon="11.2523198"><ele>749.3333333333333</ele><time>2026-04-12T10:32:31.754Z</time></trkpt><trkpt lat="45.7589315" lon="11.2524114"><ele>751.0</ele><time>2026-04-12T10:32:32.753Z</time></trkpt><trkpt lat="45.7588913" lon="11.2525071"><ele>752.6666666666666</ele><time>2026-04-12T10:32:33.754Z</time></trkpt><trkpt lat="45.7588457" lon="11.2526152"><ele>754.3333333333334</ele><time>2026-04-12T10:32:34.753Z</time></trkpt><trkpt lat="45.7587822" lon="11.2527187"><ele>756.0</ele><time>2026-04-12T10:32:35.753Z</time></trkpt><trkpt lat="45.7587257" lon="11.2528212"><ele>756.0</ele><time>2026-04-12T10:32:36.754Z</time></trkpt><trkpt lat="45.7586719" lon="11.2529289"><ele>756.0</ele><time>2026-04-12T10:32:37.753Z</time></trkpt><trkpt lat="45.7586372" lon="11.253043"><ele>756.0</ele><time>2026-04-12T10:32:38.754Z</time></trkpt><trkpt lat="45.7586144" lon="11.2531599"><ele>756.0</ele><time>2026-04-12T10:32:39.753Z</time></trkpt><trkpt lat="45.7585935" lon="11.2532751"><ele>756.0</ele><time>2026-04-12T10:32:40.754Z</time></trkpt><trkpt lat="45.7585673" lon="11.2533802"><ele>756.0</ele><time>2026-04-12T10:32:41.754Z</time></trkpt><trkpt lat="45.7585219" lon="11.2534625"><ele>750.6666666666666</ele><time>2026-04-12T10:32:42.753Z</time></trkpt><trkpt lat="45.7584638" lon="11.2535391"><ele>745.3333333333334</ele><time>2026-04-12T10:32:43.753Z</time></trkpt><trkpt lat="45.7584" lon="11.25361"><ele>740.0</ele><time>2026-04-12T10:32:44.754Z</time></trkpt><trkpt lat="45.7583423" lon="11.2536718"><ele>734.6666666666667</ele><time>2026-04-12T10:32:45.753Z</time></trkpt><trkpt lat="45.7582856" lon="11.253728"><ele>729.3333333333334</ele><time>2026-04-12T10:32:46.754Z</time></trkpt><trkpt lat="45.7582297" lon="11.2537764"><ele>724.0</ele><time>2026-04-12T10:32:47.754Z</time></trkpt><trkpt lat="45.7581313" lon="11.2538656"><ele>722.8333333333334</ele><time>2026-04-12T10:32:49.753Z</time></trkpt><trkpt lat="45.7580402" lon="11.2539578"><ele>721.6666666666667</ele><time>2026-04-12T10:32:51.753Z</time></trkpt><trkpt lat="45.7579597" lon="11.2540702"><ele>720.5</ele><time>2026-04-12T10:32:53.754Z</time></trkpt><trkpt lat="45.7579075" lon="11.2541331"><ele>719.3333333333334</ele><time>2026-04-12T10:32:55.754Z</time></trkpt><trkpt lat="45.7578447" lon="11.2541766"><ele>718.1666666666666</ele><time>2026-04-12T10:32:58.754Z</time></trkpt><trkpt lat="45.7577796" lon="11.254179"><ele>717.0</ele><time>2026-04-12T10:33:00.753Z</time></trkpt><trkpt lat="45.7576915" lon="11.2541829"><ele>717.0</ele><time>2026-04-12T10:33:02.754Z</time></trkpt><trkpt lat="45.7575637" lon="11.2542188"><ele>717.0</ele><time>2026-04-12T10:33:04.753Z</time></trkpt><trkpt lat="45.7574953" lon="11.254252"><ele>717.0</ele><time>2026-04-12T10:33:05.754Z</time></trkpt><trkpt lat="45.7574311" lon="11.2542975"><ele>717.0</ele><time>2026-04-12T10:33:06.753Z</time></trkpt><trkpt lat="45.7573684" lon="11.2543623"><ele>717.0</ele><time>2026-04-12T10:33:07.754Z</time></trkpt><trkpt lat="45.75731" lon="11.2544419"><ele>717.0</ele><time>2026-04-12T10:33:08.754Z</time></trkpt><trkpt lat="45.7572504" lon="11.2545239"><ele>717.0</ele><time>2026-04-12T10:33:09.753Z</time></trkpt><trkpt lat="45.7571901" lon="11.2546143"><ele>717.0</ele><time>2026-04-12T10:33:10.754Z</time></trkpt><trkpt lat="45.7571221" lon="11.254704"><ele>717.0</ele><time>2026-04-12T10:33:11.754Z</time></trkpt><trkpt lat="45.7570527" lon="11.2548092"><ele>717.0</ele><time>2026-04-12T10:33:12.754Z</time></trkpt><trkpt lat="45.7569821" lon="11.2549111"><ele>717.0</ele><time>2026-04-12T10:33:13.754Z</time></trkpt><trkpt lat="45.7569032" lon="11.2550136"><ele>715.4000000000001</ele><time>2026-04-12T10:33:14.754Z</time></trkpt><trkpt lat="45.7568221" lon="11.2551107"><ele>713.8000000000001</ele><time>2026-04-12T10:33:15.753Z</time></trkpt><trkpt lat="45.7567462" lon="11.2552011"><ele>712.2</ele><time>2026-04-12T10:33:16.754Z</time></trkpt><trkpt lat="45.7566716" lon="11.2552819"><ele>710.6</ele><time>2026-04-12T10:33:17.753Z</time></trkpt><trkpt lat="45.7565946" lon="11.255362"><ele>709.0</ele><time>2026-04-12T10:33:18.753Z</time></trkpt><trkpt lat="45.7565122" lon="11.2554312"><ele>709.0</ele><time>2026-04-12T10:33:19.754Z</time></trkpt><trkpt lat="45.7564237" lon="11.2554914"><ele>709.0</ele><time>2026-04-12T10:33:20.754Z</time></trkpt><trkpt lat="45.7563332" lon="11.2555353"><ele>709.0</ele><time>2026-04-12T10:33:21.754Z</time></trkpt><trkpt lat="45.7562425" lon="11.2555671"><ele>709.0</ele><time>2026-04-12T10:33:22.754Z</time></trkpt><trkpt lat="45.7561499" lon="11.2555984"><ele>709.0</ele><time>2026-04-12T10:33:23.753Z</time></trkpt><trkpt lat="45.7560577" lon="11.2556262"><ele>708.8000000000001</ele><time>2026-04-12T10:33:24.754Z</time></trkpt><trkpt lat="45.7559639" lon="11.2556628"><ele>708.6</ele><time>2026-04-12T10:33:25.754Z</time></trkpt><trkpt lat="45.755867" lon="11.2556957"><ele>708.4</ele><time>2026-04-12T10:33:26.753Z</time></trkpt><trkpt lat="45.7557688" lon="11.2557296"><ele>708.2</ele><time>2026-04-12T10:33:27.754Z</time></trkpt><trkpt lat="45.7556692" lon="11.2557586"><ele>708.0</ele><time>2026-04-12T10:33:28.754Z</time></trkpt><trkpt lat="45.7555729" lon="11.2557733"><ele>708.0</ele><time>2026-04-12T10:33:29.753Z</time></trkpt><trkpt lat="45.7554753" lon="11.2557789"><ele>708.0</ele><time>2026-04-12T10:33:30.754Z</time></trkpt><trkpt lat="45.7553784" lon="11.2557861"><ele>708.0</ele><time>2026-04-12T10:33:31.753Z</time></trkpt><trkpt lat="45.7552743" lon="11.2557891"><ele>708.0</ele><time>2026-04-12T10:33:32.754Z</time></trkpt><trkpt lat="45.7551727" lon="11.2557865"><ele>708.0</ele><time>2026-04-12T10:33:33.754Z</time></trkpt><trkpt lat="45.7550606" lon="11.2557839"><ele>706.0</ele><time>2026-04-12T10:33:34.754Z</time></trkpt><trkpt lat="45.7549435" lon="11.2557947"><ele>704.0</ele><time>2026-04-12T10:33:35.753Z</time></trkpt><trkpt lat="45.7548221" lon="11.2557982"><ele>702.0</ele><time>2026-04-12T10:33:36.754Z</time></trkpt><trkpt lat="45.7547002" lon="11.2558054"><ele>700.0</ele><time>2026-04-12T10:33:37.754Z</time></trkpt><trkpt lat="45.7545799" lon="11.2557943"><ele>700.0</ele><time>2026-04-12T10:33:38.753Z</time></trkpt><trkpt lat="45.7544656" lon="11.2557873"><ele>700.0</ele><time>2026-04-12T10:33:39.754Z</time></trkpt><trkpt lat="45.7543506" lon="11.2557816"><ele>700.0</ele><time>2026-04-12T10:33:40.754Z</time></trkpt><trkpt lat="45.7542385" lon="11.2557803"><ele>700.0</ele><time>2026-04-12T10:33:41.754Z</time></trkpt><trkpt lat="45.7541156" lon="11.2557903"><ele>698.0</ele><time>2026-04-12T10:33:42.754Z</time></trkpt><trkpt lat="45.753997" lon="11.2558059"><ele>696.0</ele><time>2026-04-12T10:33:43.753Z</time></trkpt><trkpt lat="45.7538842" lon="11.2558202"><ele>694.0</ele><time>2026-04-12T10:33:44.754Z</time></trkpt><trkpt lat="45.7537769" lon="11.2558224"><ele>692.0</ele><time>2026-04-12T10:33:45.754Z</time></trkpt><trkpt lat="45.7536703" lon="11.2558218"><ele>690.0</ele><time>2026-04-12T10:33:46.754Z</time></trkpt><trkpt lat="45.7535693" lon="11.2558146"><ele>687.2</ele><time>2026-04-12T10:33:47.753Z</time></trkpt><trkpt lat="45.7534663" lon="11.2558164"><ele>684.4</ele><time>2026-04-12T10:33:48.753Z</time></trkpt><trkpt lat="45.7533659" lon="11.2558277"><ele>681.5999999999999</ele><time>2026-04-12T10:33:49.753Z</time></trkpt><trkpt lat="45.7532649" lon="11.2558415"><ele>678.8</ele><time>2026-04-12T10:33:50.754Z</time></trkpt><trkpt lat="45.7531658" lon="11.255861"><ele>676.0</ele><time>2026-04-12T10:33:51.754Z</time></trkpt><trkpt lat="45.7530716" lon="11.2558729"><ele>676.0</ele><time>2026-04-12T10:33:52.753Z</time></trkpt><trkpt lat="45.7529704" lon="11.2558894"><ele>676.0</ele><time>2026-04-12T10:33:53.753Z</time></trkpt><trkpt lat="45.7528708" lon="11.2559074"><ele>676.0</ele><time>2026-04-12T10:33:54.753Z</time></trkpt><trkpt lat="45.7527699" lon="11.2559329"><ele>676.0</ele><time>2026-04-12T10:33:55.754Z</time></trkpt><trkpt lat="45.7526718" lon="11.2559572"><ele>676.0</ele><time>2026-04-12T10:33:56.754Z</time></trkpt><trkpt lat="45.7525725" lon="11.2559894"><ele>675.1999999999999</ele><time>2026-04-12T10:33:57.754Z</time></trkpt><trkpt lat="45.7524711" lon="11.2560234"><ele>674.4</ele><time>2026-04-12T10:33:58.754Z</time></trkpt><trkpt lat="45.7523806" lon="11.2560578"><ele>673.6</ele><time>2026-04-12T10:33:59.753Z</time></trkpt><trkpt lat="45.7522992" lon="11.2561012"><ele>672.8</ele><time>2026-04-12T10:34:00.753Z</time></trkpt><trkpt lat="45.7522144" lon="11.256153"><ele>672.0</ele><time>2026-04-12T10:34:01.754Z</time></trkpt><trkpt lat="45.7521291" lon="11.2562088"><ele>672.0</ele><time>2026-04-12T10:34:02.754Z</time></trkpt><trkpt lat="45.752053" lon="11.256253"><ele>672.0</ele><time>2026-04-12T10:34:03.754Z</time></trkpt><trkpt lat="45.7519913" lon="11.2562923"><ele>672.0</ele><time>2026-04-12T10:34:04.754Z</time></trkpt><trkpt lat="45.7519304" lon="11.256323"><ele>672.0</ele><time>2026-04-12T10:34:05.754Z</time></trkpt><trkpt lat="45.7518226" lon="11.256369"><ele>672.0</ele><time>2026-04-12T10:34:07.753Z</time></trkpt><trkpt lat="45.7517591" lon="11.2563887"><ele>672.0</ele><time>2026-04-12T10:34:09.753Z</time></trkpt><trkpt lat="45.7517093" lon="11.2564519"><ele>671.3333333333334</ele><time>2026-04-12T10:34:11.754Z</time></trkpt><trkpt lat="45.751685" lon="11.2566007"><ele>670.6666666666666</ele><time>2026-04-12T10:34:13.753Z</time></trkpt><trkpt lat="45.7516794" lon="11.256707"><ele>670.0</ele><time>2026-04-12T10:34:14.754Z</time></trkpt><trkpt lat="45.7516689" lon="11.2568175"><ele>669.3333333333333</ele><time>2026-04-12T10:34:15.753Z</time></trkpt><trkpt lat="45.7516572" lon="11.2569255"><ele>668.6666666666666</ele><time>2026-04-12T10:34:16.754Z</time></trkpt><trkpt lat="45.7516465" lon="11.2570247"><ele>668.0</ele><time>2026-04-12T10:34:17.754Z</time></trkpt><trkpt lat="45.7516311" lon="11.2571687"><ele>668.0</ele><time>2026-04-12T10:34:19.754Z</time></trkpt><trkpt lat="45.7517014" lon="11.2572684"><ele>668.0</ele><time>2026-04-12T10:34:21.753Z</time></trkpt><trkpt lat="45.7518112" lon="11.2572748"><ele>668.0</ele><time>2026-04-12T10:34:23.754Z</time></trkpt><trkpt lat="45.7518877" lon="11.257232"><ele>668.0</ele><time>2026-04-12T10:34:24.754Z</time></trkpt><trkpt lat="45.7519774" lon="11.2571814"><ele>668.0</ele><time>2026-04-12T10:34:25.753Z</time></trkpt><trkpt lat="45.7520752" lon="11.2571291"><ele>669.0</ele><time>2026-04-12T10:34:26.754Z</time></trkpt><trkpt lat="45.7521779" lon="11.2570846"><ele>670.0</ele><time>2026-04-12T10:34:27.753Z</time></trkpt><trkpt lat="45.7522879" lon="11.2570492"><ele>671.0</ele><time>2026-04-12T10:34:28.754Z</time></trkpt><trkpt lat="45.7524033" lon="11.2570277"><ele>672.0</ele><time>2026-04-12T10:34:29.754Z</time></trkpt><trkpt lat="45.7525183" lon="11.2570082"><ele>672.0</ele><time>2026-04-12T10:34:30.754Z</time></trkpt><trkpt lat="45.7526316" lon="11.2569916"><ele>672.0</ele><time>2026-04-12T10:34:31.752Z</time></trkpt><trkpt lat="45.7527443" lon="11.2569826"><ele>672.0</ele><time>2026-04-12T10:34:32.752Z</time></trkpt><trkpt lat="45.7528452" lon="11.2569856"><ele>672.0</ele><time>2026-04-12T10:34:33.753Z</time></trkpt><trkpt lat="45.7529372" lon="11.2570049"><ele>672.0</ele><time>2026-04-12T10:34:34.752Z</time></trkpt><trkpt lat="45.7530293" lon="11.2570532"><ele>672.5</ele><time>2026-04-12T10:34:35.752Z</time></trkpt><trkpt lat="45.7531141" lon="11.2571194"><ele>673.0</ele><time>2026-04-12T10:34:36.753Z</time></trkpt><trkpt lat="45.7531806" lon="11.2571993"><ele>673.5</ele><time>2026-04-12T10:34:37.752Z</time></trkpt><trkpt lat="45.7532177" lon="11.2572911"><ele>674.0</ele><time>2026-04-12T10:34:38.752Z</time></trkpt><trkpt lat="45.7532287" lon="11.2573897"><ele>674.5</ele><time>2026-04-12T10:34:39.753Z</time></trkpt><trkpt lat="45.7532175" lon="11.2575015"><ele>675.0</ele><time>2026-04-12T10:34:40.752Z</time></trkpt><trkpt lat="45.7531772" lon="11.2576135"><ele>673.8</ele><time>2026-04-12T10:34:41.753Z</time></trkpt><trkpt lat="45.7531263" lon="11.2577179"><ele>672.6</ele><time>2026-04-12T10:34:42.752Z</time></trkpt><trkpt lat="45.7530807" lon="11.2578309"><ele>671.4000000000001</ele><time>2026-04-12T10:34:43.752Z</time></trkpt><trkpt lat="45.7530402" lon="11.2579604"><ele>670.2</ele><time>2026-04-12T10:34:44.753Z</time></trkpt><trkpt lat="45.7530123" lon="11.2580985"><ele>669.0</ele><time>2026-04-12T10:34:45.752Z</time></trkpt><trkpt lat="45.7529777" lon="11.2582298"><ele>669.0</ele><time>2026-04-12T10:34:46.752Z</time></trkpt><trkpt lat="45.7529476" lon="11.258344"><ele>669.0</ele><time>2026-04-12T10:34:47.753Z</time></trkpt><trkpt lat="45.7529308" lon="11.2584356"><ele>669.0</ele><time>2026-04-12T10:34:48.753Z</time></trkpt><trkpt lat="45.7529262" lon="11.258526"><ele>669.0</ele><time>2026-04-12T10:34:49.753Z</time></trkpt><trkpt lat="45.7529388" lon="11.2586194"><ele>669.0</ele><time>2026-04-12T10:34:50.753Z</time></trkpt><trkpt lat="45.75297" lon="11.2587011"><ele>669.0</ele><time>2026-04-12T10:34:51.753Z</time></trkpt><trkpt lat="45.7530208" lon="11.2587682"><ele>669.0</ele><time>2026-04-12T10:34:52.753Z</time></trkpt><trkpt lat="45.7530911" lon="11.2588219"><ele>669.0</ele><time>2026-04-12T10:34:53.753Z</time></trkpt><trkpt lat="45.7531789" lon="11.2588461"><ele>669.0</ele><time>2026-04-12T10:34:54.752Z</time></trkpt><trkpt lat="45.7532747" lon="11.2588637"><ele>669.0</ele><time>2026-04-12T10:34:55.752Z</time></trkpt><trkpt lat="45.7533766" lon="11.2588765"><ele>669.0</ele><time>2026-04-12T10:34:56.752Z</time></trkpt><trkpt lat="45.7534758" lon="11.2588813"><ele>669.0</ele><time>2026-04-12T10:34:57.753Z</time></trkpt><trkpt lat="45.7535693" lon="11.2588853"><ele>670.0</ele><time>2026-04-12T10:34:58.753Z</time></trkpt><trkpt lat="45.753651" lon="11.2589144"><ele>671.0</ele><time>2026-04-12T10:34:59.753Z</time></trkpt><trkpt lat="45.7537199" lon="11.2589734"><ele>672.0</ele><time>2026-04-12T10:35:00.753Z</time></trkpt><trkpt lat="45.7537737" lon="11.2590452"><ele>673.0</ele><time>2026-04-12T10:35:01.753Z</time></trkpt><trkpt lat="45.7538224" lon="11.2591311"><ele>674.0</ele><time>2026-04-12T10:35:02.752Z</time></trkpt><trkpt lat="45.7538863" lon="11.2592178"><ele>675.0</ele><time>2026-04-12T10:35:03.753Z</time></trkpt><trkpt lat="45.7539623" lon="11.2592876"><ele>675.0</ele><time>2026-04-12T10:35:04.753Z</time></trkpt><trkpt lat="45.7540506" lon="11.2593396"><ele>675.0</ele><time>2026-04-12T10:35:05.752Z</time></trkpt><trkpt lat="45.7541462" lon="11.2593702"><ele>675.0</ele><time>2026-04-12T10:35:06.753Z</time></trkpt><trkpt lat="45.7542282" lon="11.2593993"><ele>675.0</ele><time>2026-04-12T10:35:07.752Z</time></trkpt><trkpt lat="45.7543023" lon="11.259437"><ele>675.0</ele><time>2026-04-12T10:35:08.753Z</time></trkpt><trkpt lat="45.7543654" lon="11.2594791"><ele>675.0</ele><time>2026-04-12T10:35:09.752Z</time></trkpt><trkpt lat="45.7544344" lon="11.2595125"><ele>676.6666666666666</ele><time>2026-04-12T10:35:10.753Z</time></trkpt><trkpt lat="45.754499" lon="11.2595416"><ele>678.3333333333334</ele><time>2026-04-12T10:35:11.753Z</time></trkpt><trkpt lat="45.7545611" lon="11.2595712"><ele>680.0</ele><time>2026-04-12T10:35:12.753Z</time></trkpt><trkpt lat="45.7546724" lon="11.2595912"><ele>681.6666666666667</ele><time>2026-04-12T10:35:14.753Z</time></trkpt><trkpt lat="45.7547434" lon="11.2595524"><ele>683.3333333333334</ele><time>2026-04-12T10:35:15.752Z</time></trkpt><trkpt lat="45.7548267" lon="11.2594787"><ele>685.0</ele><time>2026-04-12T10:35:16.752Z</time></trkpt><trkpt lat="45.7549095" lon="11.2594165"><ele>685.0</ele><time>2026-04-12T10:35:17.752Z</time></trkpt><trkpt lat="45.7549933" lon="11.2593642"><ele>685.0</ele><time>2026-04-12T10:35:18.753Z</time></trkpt><trkpt lat="45.7550735" lon="11.2593303"><ele>685.0</ele><time>2026-04-12T10:35:19.753Z</time></trkpt><trkpt lat="45.7551461" lon="11.2593091"><ele>685.0</ele><time>2026-04-12T10:35:20.753Z</time></trkpt><trkpt lat="45.7552241" lon="11.2593042"><ele>685.0</ele><time>2026-04-12T10:35:21.753Z</time></trkpt><trkpt lat="45.7553192" lon="11.2593125"><ele>685.0</ele><time>2026-04-12T10:35:22.752Z</time></trkpt><trkpt lat="45.7554321" lon="11.2593269"><ele>685.4</ele><time>2026-04-12T10:35:23.753Z</time></trkpt><trkpt lat="45.7555472" lon="11.2593428"><ele>685.8</ele><time>2026-04-12T10:35:24.753Z</time></trkpt><trkpt lat="45.7556582" lon="11.2593572"><ele>686.2</ele><time>2026-04-12T10:35:25.752Z</time></trkpt><trkpt lat="45.7557675" lon="11.2593696"><ele>686.6</ele><time>2026-04-12T10:35:26.752Z</time></trkpt><trkpt lat="45.7558772" lon="11.2593743"><ele>687.0</ele><time>2026-04-12T10:35:27.753Z</time></trkpt><trkpt lat="45.7559834" lon="11.2593631"><ele>683.0</ele><time>2026-04-12T10:35:28.753Z</time></trkpt><trkpt lat="45.7560822" lon="11.2593512"><ele>679.0</ele><time>2026-04-12T10:35:29.753Z</time></trkpt><trkpt lat="45.7561714" lon="11.2593455"><ele>675.0</ele><time>2026-04-12T10:35:30.752Z</time></trkpt><trkpt lat="45.756245" lon="11.2593434"><ele>671.0</ele><time>2026-04-12T10:35:31.753Z</time></trkpt><trkpt lat="45.7563567" lon="11.2593043"><ele>667.0</ele><time>2026-04-12T10:35:33.753Z</time></trkpt><trkpt lat="45.7564158" lon="11.2592039"><ele>667.0</ele><time>2026-04-12T10:35:35.752Z</time></trkpt><trkpt lat="45.7564126" lon="11.2590092"><ele>667.0</ele><time>2026-04-12T10:35:37.753Z</time></trkpt><trkpt lat="45.756411" lon="11.2588938"><ele>667.0</ele><time>2026-04-12T10:35:38.753Z</time></trkpt><trkpt lat="45.7564133" lon="11.2587803"><ele>667.0</ele><time>2026-04-12T10:35:39.753Z</time></trkpt><trkpt lat="45.7564276" lon="11.25867"><ele>667.0</ele><time>2026-04-12T10:35:40.753Z</time></trkpt><trkpt lat="45.7564531" lon="11.2585747"><ele>667.0</ele><time>2026-04-12T10:35:41.752Z</time></trkpt><trkpt lat="45.7565018" lon="11.2584903"><ele>669.7142857142858</ele><time>2026-04-12T10:35:42.753Z</time></trkpt><trkpt lat="45.7565663" lon="11.258425"><ele>672.4285714285714</ele><time>2026-04-12T10:35:43.753Z</time></trkpt><trkpt lat="45.7566387" lon="11.2583725"><ele>675.1428571428571</ele><time>2026-04-12T10:35:44.752Z</time></trkpt><trkpt lat="45.7567099" lon="11.2583422"><ele>677.8571428571429</ele><time>2026-04-12T10:35:45.753Z</time></trkpt><trkpt lat="45.7567776" lon="11.2583424"><ele>680.5714285714286</ele><time>2026-04-12T10:35:46.752Z</time></trkpt><trkpt lat="45.7568464" lon="11.2583538"><ele>683.2857142857143</ele><time>2026-04-12T10:35:47.752Z</time></trkpt><trkpt lat="45.7569216" lon="11.2583408"><ele>686.0</ele><time>2026-04-12T10:35:48.753Z</time></trkpt><trkpt lat="45.7569921" lon="11.2583268"><ele>686.0</ele><time>2026-04-12T10:35:49.752Z</time></trkpt><trkpt lat="45.7570523" lon="11.2582861"><ele>686.0</ele><time>2026-04-12T10:35:50.753Z</time></trkpt><trkpt lat="45.7571083" lon="11.2582379"><ele>686.0</ele><time>2026-04-12T10:35:51.753Z</time></trkpt><trkpt lat="45.7572265" lon="11.2582046"><ele>686.0</ele><time>2026-04-12T10:35:53.753Z</time></trkpt><trkpt lat="45.7573367" lon="11.258211"><ele>686.0</ele><time>2026-04-12T10:35:55.752Z</time></trkpt><trkpt lat="45.7574371" lon="11.2582291"><ele>686.0</ele><time>2026-04-12T10:35:57.753Z</time></trkpt><trkpt lat="45.7575357" lon="11.2582066"><ele>686.0</ele><time>2026-04-12T10:35:59.753Z</time></trkpt><trkpt lat="45.7576362" lon="11.2581077"><ele>686.0</ele><time>2026-04-12T10:36:01.753Z</time></trkpt><trkpt lat="45.757685" lon="11.2580443"><ele>686.0</ele><time>2026-04-12T10:36:02.752Z</time></trkpt><trkpt lat="45.7577284" lon="11.2579775"><ele>686.0</ele><time>2026-04-12T10:36:03.753Z</time></trkpt><trkpt lat="45.7578086" lon="11.2578988"><ele>686.0</ele><time>2026-04-12T10:36:05.753Z</time></trkpt><trkpt lat="45.7579055" lon="11.2579123"><ele>690.3333333333333</ele><time>2026-04-12T10:36:07.752Z</time></trkpt><trkpt lat="45.7580244" lon="11.2579343"><ele>694.6666666666666</ele><time>2026-04-12T10:36:09.753Z</time></trkpt><trkpt lat="45.7581044" lon="11.2579243"><ele>699.0</ele><time>2026-04-12T10:36:10.753Z</time></trkpt><trkpt lat="45.7581768" lon="11.2579039"><ele>703.3333333333334</ele><time>2026-04-12T10:36:11.753Z</time></trkpt><trkpt lat="45.7582455" lon="11.2578704"><ele>707.6666666666667</ele><time>2026-04-12T10:36:12.753Z</time></trkpt><trkpt lat="45.7583207" lon="11.2578462"><ele>712.0</ele><time>2026-04-12T10:36:13.753Z</time></trkpt><trkpt lat="45.7584002" lon="11.2578468"><ele>712.0</ele><time>2026-04-12T10:36:14.752Z</time></trkpt><trkpt lat="45.7584883" lon="11.2578611"><ele>712.0</ele><time>2026-04-12T10:36:15.752Z</time></trkpt><trkpt lat="45.7585773" lon="11.2578946"><ele>712.0</ele><time>2026-04-12T10:36:16.752Z</time></trkpt><trkpt lat="45.7586598" lon="11.2579532"><ele>712.0</ele><time>2026-04-12T10:36:17.752Z</time></trkpt><trkpt lat="45.7587414" lon="11.2580421"><ele>712.0</ele><time>2026-04-12T10:36:18.753Z</time></trkpt><trkpt lat="45.7588184" lon="11.258125"><ele>709.8333333333334</ele><time>2026-04-12T10:36:19.753Z</time></trkpt><trkpt lat="45.7588781" lon="11.2582041"><ele>707.6666666666667</ele><time>2026-04-12T10:36:20.752Z</time></trkpt><trkpt lat="45.7589192" lon="11.2582828"><ele>705.5</ele><time>2026-04-12T10:36:21.752Z</time></trkpt><trkpt lat="45.7589604" lon="11.2583921"><ele>703.3333333333334</ele><time>2026-04-12T10:36:22.752Z</time></trkpt><trkpt lat="45.7590045" lon="11.2585071"><ele>701.1666666666666</ele><time>2026-04-12T10:36:23.753Z</time></trkpt><trkpt lat="45.7590501" lon="11.2586003"><ele>699.0</ele><time>2026-04-12T10:36:24.753Z</time></trkpt><trkpt lat="45.7590979" lon="11.2586828"><ele>699.0</ele><time>2026-04-12T10:36:25.753Z</time></trkpt><trkpt lat="45.7591494" lon="11.2587531"><ele>699.0</ele><time>2026-04-12T10:36:26.752Z</time></trkpt><trkpt lat="45.7592114" lon="11.2588224"><ele>699.0</ele><time>2026-04-12T10:36:27.752Z</time></trkpt><trkpt lat="45.7592824" lon="11.2588773"><ele>699.0</ele><time>2026-04-12T10:36:28.753Z</time></trkpt><trkpt lat="45.7593573" lon="11.2589364"><ele>699.0</ele><time>2026-04-12T10:36:29.752Z</time></trkpt><trkpt lat="45.7594296" lon="11.2590049"><ele>699.0</ele><time>2026-04-12T10:36:30.753Z</time></trkpt><trkpt lat="45.7594999" lon="11.2590798"><ele>699.6666666666666</ele><time>2026-04-12T10:36:31.753Z</time></trkpt><trkpt lat="45.7595666" lon="11.259147"><ele>700.3333333333334</ele><time>2026-04-12T10:36:32.753Z</time></trkpt><trkpt lat="45.7596355" lon="11.2591806"><ele>701.0</ele><time>2026-04-12T10:36:33.752Z</time></trkpt><trkpt lat="45.7597" lon="11.259193"><ele>701.6666666666667</ele><time>2026-04-12T10:36:34.752Z</time></trkpt><trkpt lat="45.7598122" lon="11.2590941"><ele>702.3333333333334</ele><time>2026-04-12T10:36:36.752Z</time></trkpt><trkpt lat="45.7598645" lon="11.2590098"><ele>703.0</ele><time>2026-04-12T10:36:37.753Z</time></trkpt><trkpt lat="45.7599138" lon="11.2589265"><ele>705.5</ele><time>2026-04-12T10:36:38.752Z</time></trkpt><trkpt lat="45.75997" lon="11.2588596"><ele>708.0</ele><time>2026-04-12T10:36:39.752Z</time></trkpt><trkpt lat="45.7600234" lon="11.2588089"><ele>710.5</ele><time>2026-04-12T10:36:40.753Z</time></trkpt><trkpt lat="45.7601368" lon="11.2587707"><ele>713.0</ele><time>2026-04-12T10:36:42.752Z</time></trkpt><trkpt lat="45.7602035" lon="11.2587711"><ele>715.5</ele><time>2026-04-12T10:36:43.752Z</time></trkpt><trkpt lat="45.7603096" lon="11.2587743"><ele>718.0</ele><time>2026-04-12T10:36:45.753Z</time></trkpt><trkpt lat="45.7603787" lon="11.2588346"><ele>721.8</ele><time>2026-04-12T10:36:47.753Z</time></trkpt><trkpt lat="45.7603973" lon="11.2589735"><ele>725.5999999999999</ele><time>2026-04-12T10:36:49.752Z</time></trkpt><trkpt lat="45.7603443" lon="11.2591401"><ele>729.4000000000001</ele><time>2026-04-12T10:36:51.753Z</time></trkpt><trkpt lat="45.7603081" lon="11.2592427"><ele>733.2</ele><time>2026-04-12T10:36:52.753Z</time></trkpt><trkpt lat="45.7602772" lon="11.2593528"><ele>737.0</ele><time>2026-04-12T10:36:53.753Z</time></trkpt><trkpt lat="45.7602515" lon="11.2594814"><ele>737.0</ele><time>2026-04-12T10:36:54.753Z</time></trkpt><trkpt lat="45.7602446" lon="11.2596256"><ele>737.0</ele><time>2026-04-12T10:36:55.753Z</time></trkpt><trkpt lat="45.7602443" lon="11.2597598"><ele>737.0</ele><time>2026-04-12T10:36:56.753Z</time></trkpt><trkpt lat="45.7602522" lon="11.2599034"><ele>737.0</ele><time>2026-04-12T10:36:57.753Z</time></trkpt><trkpt lat="45.7602588" lon="11.2600343"><ele>737.0</ele><time>2026-04-12T10:36:58.752Z</time></trkpt><trkpt lat="45.7602587" lon="11.2601411"><ele>734.1666666666666</ele><time>2026-04-12T10:36:59.753Z</time></trkpt><trkpt lat="45.7602645" lon="11.2602331"><ele>731.3333333333333</ele><time>2026-04-12T10:37:00.753Z</time></trkpt><trkpt lat="45.7603009" lon="11.2603725"><ele>728.5</ele><time>2026-04-12T10:37:02.753Z</time></trkpt><trkpt lat="45.7603911" lon="11.2604697"><ele>725.6666666666666</ele><time>2026-04-12T10:37:04.752Z</time></trkpt><trkpt lat="45.7604617" lon="11.2604955"><ele>722.8333333333334</ele><time>2026-04-12T10:37:05.753Z</time></trkpt><trkpt lat="45.7605471" lon="11.2605081"><ele>720.0</ele><time>2026-04-12T10:37:06.752Z</time></trkpt><trkpt lat="45.7606316" lon="11.2605206"><ele>720.0</ele><time>2026-04-12T10:37:07.753Z</time></trkpt><trkpt lat="45.7607186" lon="11.2605265"><ele>720.0</ele><time>2026-04-12T10:37:08.752Z</time></trkpt><trkpt lat="45.7608005" lon="11.2605297"><ele>720.0</ele><time>2026-04-12T10:37:09.753Z</time></trkpt><trkpt lat="45.7608833" lon="11.2605213"><ele>720.0</ele><time>2026-04-12T10:37:10.753Z</time></trkpt><trkpt lat="45.7609673" lon="11.260509"><ele>720.0</ele><time>2026-04-12T10:37:11.753Z</time></trkpt><trkpt lat="45.7610464" lon="11.2605057"><ele>720.0</ele><time>2026-04-12T10:37:12.753Z</time></trkpt><trkpt lat="45.7611377" lon="11.2604871"><ele>723.0</ele><time>2026-04-12T10:37:13.753Z</time></trkpt><trkpt lat="45.7612157" lon="11.2604893"><ele>726.0</ele><time>2026-04-12T10:37:14.753Z</time></trkpt><trkpt lat="45.7612848" lon="11.260509"><ele>729.0</ele><time>2026-04-12T10:37:15.753Z</time></trkpt><trkpt lat="45.7613502" lon="11.2605515"><ele>732.0</ele><time>2026-04-12T10:37:16.752Z</time></trkpt><trkpt lat="45.7614172" lon="11.2606068"><ele>735.0</ele><time>2026-04-12T10:37:17.752Z</time></trkpt><trkpt lat="45.7614784" lon="11.2606756"><ele>738.0</ele><time>2026-04-12T10:37:18.752Z</time></trkpt><trkpt lat="45.7615402" lon="11.2607533"><ele>728.5999999999999</ele><time>2026-04-12T10:37:19.753Z</time></trkpt><trkpt lat="45.761606" lon="11.2608332"><ele>719.1999999999999</ele><time>2026-04-12T10:37:20.753Z</time></trkpt><trkpt lat="45.7616575" lon="11.2609037"><ele>709.8</ele><time>2026-04-12T10:37:21.753Z</time></trkpt><trkpt lat="45.7617305" lon="11.2610394"><ele>700.4</ele><time>2026-04-12T10:37:23.753Z</time></trkpt><trkpt lat="45.7617621" lon="11.2611622"><ele>691.0</ele><time>2026-04-12T10:37:24.752Z</time></trkpt><trkpt lat="45.761781" lon="11.2612869"><ele>691.0</ele><time>2026-04-12T10:37:25.753Z</time></trkpt><trkpt lat="45.7617863" lon="11.2613983"><ele>691.0</ele><time>2026-04-12T10:37:26.753Z</time></trkpt><trkpt lat="45.7617823" lon="11.2614931"><ele>691.0</ele><time>2026-04-12T10:37:27.752Z</time></trkpt><trkpt lat="45.7617596" lon="11.2616242"><ele>691.0</ele><time>2026-04-12T10:37:29.753Z</time></trkpt><trkpt lat="45.7617417" lon="11.2617475"><ele>691.0</ele><time>2026-04-12T10:37:31.752Z</time></trkpt><trkpt lat="45.7616818" lon="11.2618353"><ele>691.0</ele><time>2026-04-12T10:37:33.752Z</time></trkpt><trkpt lat="45.7616433" lon="11.2619327"><ele>689.5999999999999</ele><time>2026-04-12T10:37:35.753Z</time></trkpt><trkpt lat="45.7616869" lon="11.2620392"><ele>688.2</ele><time>2026-04-12T10:37:37.753Z</time></trkpt><trkpt lat="45.7617877" lon="11.2621546"><ele>686.8</ele><time>2026-04-12T10:37:39.753Z</time></trkpt><trkpt lat="45.7618484" lon="11.2621971"><ele>685.4000000000001</ele><time>2026-04-12T10:37:40.753Z</time></trkpt><trkpt lat="45.7619124" lon="11.2622321"><ele>684.0</ele><time>2026-04-12T10:37:41.752Z</time></trkpt><trkpt lat="45.7620173" lon="11.262307"><ele>683.6</ele><time>2026-04-12T10:37:43.753Z</time></trkpt><trkpt lat="45.7620371" lon="11.2624016"><ele>683.2</ele><time>2026-04-12T10:37:45.753Z</time></trkpt><trkpt lat="45.7619582" lon="11.2624943"><ele>682.8000000000001</ele><time>2026-04-12T10:37:47.753Z</time></trkpt><trkpt lat="45.7618827" lon="11.2625612"><ele>682.4000000000001</ele><time>2026-04-12T10:37:48.753Z</time></trkpt><trkpt lat="45.7618087" lon="11.2626397"><ele>682.0</ele><time>2026-04-12T10:37:49.752Z</time></trkpt><trkpt lat="45.7617328" lon="11.2627345"><ele>682.0</ele><time>2026-04-12T10:37:50.752Z</time></trkpt><trkpt lat="45.7616581" lon="11.2628199"><ele>682.0</ele><time>2026-04-12T10:37:51.753Z</time></trkpt><trkpt lat="45.7615785" lon="11.2628862"><ele>682.0</ele><time>2026-04-12T10:37:52.752Z</time></trkpt><trkpt lat="45.7615022" lon="11.2629492"><ele>682.0</ele><time>2026-04-12T10:37:53.753Z</time></trkpt><trkpt lat="45.7614309" lon="11.2630011"><ele>682.0</ele><time>2026-04-12T10:37:54.753Z</time></trkpt><trkpt lat="45.7613584" lon="11.2630549"><ele>682.0</ele><time>2026-04-12T10:37:55.752Z</time></trkpt><trkpt lat="45.7612643" lon="11.2630935"><ele>682.0</ele><time>2026-04-12T10:37:56.753Z</time></trkpt><trkpt lat="45.7611711" lon="11.2631101"><ele>682.0</ele><time>2026-04-12T10:37:57.753Z</time></trkpt><trkpt lat="45.7610963" lon="11.2631424"><ele>682.0</ele><time>2026-04-12T10:37:58.753Z</time></trkpt><trkpt lat="45.7610025" lon="11.2632186"><ele>682.0</ele><time>2026-04-12T10:38:00.753Z</time></trkpt><trkpt lat="45.7609366" lon="11.2633428"><ele>682.0</ele><time>2026-04-12T10:38:02.752Z</time></trkpt><trkpt lat="45.7608298" lon="11.2634341"><ele>679.8</ele><time>2026-04-12T10:38:04.753Z</time></trkpt><trkpt lat="45.7607299" lon="11.2635506"><ele>677.6</ele><time>2026-04-12T10:38:06.753Z</time></trkpt><trkpt lat="45.7606907" lon="11.2636391"><ele>675.4</ele><time>2026-04-12T10:38:07.753Z</time></trkpt><trkpt lat="45.7606649" lon="11.2637338"><ele>673.1999999999999</ele><time>2026-04-12T10:38:08.753Z</time></trkpt><trkpt lat="45.760664" lon="11.2638251"><ele>671.0</ele><time>2026-04-12T10:38:09.753Z</time></trkpt><trkpt lat="45.7607203" lon="11.2639851"><ele>671.0</ele><time>2026-04-12T10:38:11.753Z</time></trkpt><trkpt lat="45.7607416" lon="11.2641259"><ele>671.0</ele><time>2026-04-12T10:38:13.753Z</time></trkpt><trkpt lat="45.7606693" lon="11.2641982"><ele>671.0</ele><time>2026-04-12T10:38:15.753Z</time></trkpt><trkpt lat="45.7605618" lon="11.2642553"><ele>671.0</ele><time>2026-04-12T10:38:17.752Z</time></trkpt><trkpt lat="45.7604956" lon="11.2642975"><ele>671.0</ele><time>2026-04-12T10:38:18.752Z</time></trkpt><trkpt lat="45.7604295" lon="11.2643598"><ele>671.0</ele><time>2026-04-12T10:38:19.753Z</time></trkpt><trkpt lat="45.7603593" lon="11.2644273"><ele>671.0</ele><time>2026-04-12T10:38:20.753Z</time></trkpt><trkpt lat="45.7602953" lon="11.2645118"><ele>671.0</ele><time>2026-04-12T10:38:21.752Z</time></trkpt><trkpt lat="45.7602523" lon="11.2645969"><ele>671.0</ele><time>2026-04-12T10:38:22.753Z</time></trkpt><trkpt lat="45.760219" lon="11.2647165"><ele>671.0</ele><time>2026-04-12T10:38:23.753Z</time></trkpt><trkpt lat="45.7601928" lon="11.2648561"><ele>671.0</ele><time>2026-04-12T10:38:24.753Z</time></trkpt><trkpt lat="45.7601735" lon="11.2650044"><ele>667.1999999999999</ele><time>2026-04-12T10:38:25.752Z</time></trkpt><trkpt lat="45.7601519" lon="11.2651518"><ele>663.4</ele><time>2026-04-12T10:38:26.752Z</time></trkpt><trkpt lat="45.7601226" lon="11.2652919"><ele>659.6</ele><time>2026-04-12T10:38:27.752Z</time></trkpt><trkpt lat="45.760072" lon="11.2654209"><ele>655.8</ele><time>2026-04-12T10:38:28.752Z</time></trkpt><trkpt lat="45.7600027" lon="11.2655417"><ele>652.0</ele><time>2026-04-12T10:38:29.752Z</time></trkpt><trkpt lat="45.7599251" lon="11.2656291"><ele>652.0</ele><time>2026-04-12T10:38:30.752Z</time></trkpt><trkpt lat="45.7598526" lon="11.2656896"><ele>652.0</ele><time>2026-04-12T10:38:31.752Z</time></trkpt><trkpt lat="45.7597883" lon="11.2657344"><ele>652.0</ele><time>2026-04-12T10:38:32.752Z</time></trkpt><trkpt lat="45.7597189" lon="11.2658554"><ele>652.0</ele><time>2026-04-12T10:38:34.751Z</time></trkpt><trkpt lat="45.7597518" lon="11.2660062"><ele>652.0</ele><time>2026-04-12T10:38:36.751Z</time></trkpt><trkpt lat="45.7598161" lon="11.2660946"><ele>652.0</ele><time>2026-04-12T10:38:37.751Z</time></trkpt><trkpt lat="45.7598811" lon="11.2661693"><ele>652.0</ele><time>2026-04-12T10:38:38.752Z</time></trkpt><trkpt lat="45.7599294" lon="11.2662731"><ele>652.0</ele><time>2026-04-12T10:38:40.751Z</time></trkpt><trkpt lat="45.7598511" lon="11.2662717"><ele>652.0</ele><time>2026-04-12T10:38:43.751Z</time></trkpt><trkpt lat="45.7597904" lon="11.2662095"><ele>652.0</ele><time>2026-04-12T10:38:44.752Z</time></trkpt><trkpt lat="45.7597172" lon="11.2661357"><ele>652.0</ele><time>2026-04-12T10:38:45.752Z</time></trkpt><trkpt lat="45.7596315" lon="11.2660442"><ele>652.0</ele><time>2026-04-12T10:38:46.752Z</time></trkpt><trkpt lat="45.7595434" lon="11.2659618"><ele>652.0</ele><time>2026-04-12T10:38:47.752Z</time></trkpt><trkpt lat="45.7594652" lon="11.2658892"><ele>652.0</ele><time>2026-04-12T10:38:48.752Z</time></trkpt><trkpt lat="45.7594033" lon="11.2658165"><ele>652.0</ele><time>2026-04-12T10:38:49.752Z</time></trkpt><trkpt lat="45.7593604" lon="11.2657407"><ele>652.0</ele><time>2026-04-12T10:38:50.752Z</time></trkpt><trkpt lat="45.7593807" lon="11.2655744"><ele>651.3333333333334</ele><time>2026-04-12T10:38:52.751Z</time></trkpt><trkpt lat="45.759429" lon="11.2654903"><ele>650.6666666666667</ele><time>2026-04-12T10:38:53.752Z</time></trkpt><trkpt lat="45.7594724" lon="11.2654192"><ele>650.0</ele><time>2026-04-12T10:38:54.751Z</time></trkpt><trkpt lat="45.7594954" lon="11.2653142"><ele>649.3333333333334</ele><time>2026-04-12T10:38:56.752Z</time></trkpt><trkpt lat="45.7594189" lon="11.2653564"><ele>648.6666666666666</ele><time>2026-04-12T10:38:59.751Z</time></trkpt><trkpt lat="45.7593228" lon="11.2654977"><ele>648.0</ele><time>2026-04-12T10:39:01.752Z</time></trkpt><trkpt lat="45.7592692" lon="11.2655737"><ele>644.0</ele><time>2026-04-12T10:39:02.751Z</time></trkpt><trkpt lat="45.7591919" lon="11.2656937"><ele>640.0</ele><time>2026-04-12T10:39:04.751Z</time></trkpt><trkpt lat="45.7591746" lon="11.2658558"><ele>636.0</ele><time>2026-04-12T10:39:06.752Z</time></trkpt><trkpt lat="45.7591824" lon="11.2659625"><ele>632.0</ele><time>2026-04-12T10:39:07.752Z</time></trkpt><trkpt lat="45.759193" lon="11.2660841"><ele>628.0</ele><time>2026-04-12T10:39:08.752Z</time></trkpt><trkpt lat="45.7592074" lon="11.2662106"><ele>628.0</ele><time>2026-04-12T10:39:09.752Z</time></trkpt><trkpt lat="45.759233" lon="11.2663331"><ele>628.0</ele><time>2026-04-12T10:39:10.751Z</time></trkpt><trkpt lat="45.7592715" lon="11.2664475"><ele>628.0</ele><time>2026-04-12T10:39:11.752Z</time></trkpt><trkpt lat="45.759318" lon="11.2665539"><ele>628.0</ele><time>2026-04-12T10:39:12.751Z</time></trkpt><trkpt lat="45.7593561" lon="11.2666629"><ele>628.0</ele><time>2026-04-12T10:39:13.752Z</time></trkpt><trkpt lat="45.7593946" lon="11.2667612"><ele>628.0</ele><time>2026-04-12T10:39:14.751Z</time></trkpt><trkpt lat="45.7594377" lon="11.266841"><ele>627.6</ele><time>2026-04-12T10:39:15.752Z</time></trkpt><trkpt lat="45.7594856" lon="11.2670106"><ele>627.1999999999999</ele><time>2026-04-12T10:39:17.752Z</time></trkpt><trkpt lat="45.7594608" lon="11.2671483"><ele>626.8</ele><time>2026-04-12T10:39:19.752Z</time></trkpt><trkpt lat="45.7593467" lon="11.2671736"><ele>626.4</ele><time>2026-04-12T10:39:21.751Z</time></trkpt><trkpt lat="45.7592667" lon="11.2671262"><ele>626.0</ele><time>2026-04-12T10:39:22.751Z</time></trkpt><trkpt lat="45.759182" lon="11.2670677"><ele>626.0</ele><time>2026-04-12T10:39:23.752Z</time></trkpt><trkpt lat="45.7590959" lon="11.2670074"><ele>626.0</ele><time>2026-04-12T10:39:24.752Z</time></trkpt><trkpt lat="45.7590154" lon="11.2669536"><ele>626.0</ele><time>2026-04-12T10:39:25.752Z</time></trkpt><trkpt lat="45.7589401" lon="11.2669102"><ele>626.0</ele><time>2026-04-12T10:39:26.751Z</time></trkpt><trkpt lat="45.7588751" lon="11.2668776"><ele>626.0</ele><time>2026-04-12T10:39:27.751Z</time></trkpt><trkpt lat="45.7588105" lon="11.2668627"><ele>626.0</ele><time>2026-04-12T10:39:28.751Z</time></trkpt><trkpt lat="45.7587396" lon="11.2668722"><ele>626.0</ele><time>2026-04-12T10:39:29.752Z</time></trkpt><trkpt lat="45.7586722" lon="11.2668968"><ele>626.0</ele><time>2026-04-12T10:39:30.751Z</time></trkpt><trkpt lat="45.7585769" lon="11.2670044"><ele>626.0</ele><time>2026-04-12T10:39:32.752Z</time></trkpt><trkpt lat="45.7585401" lon="11.2670815"><ele>626.0</ele><time>2026-04-12T10:39:33.752Z</time></trkpt><trkpt lat="45.7585228" lon="11.2671804"><ele>626.0</ele><time>2026-04-12T10:39:34.751Z</time></trkpt><trkpt lat="45.758527" lon="11.2673016"><ele>626.0</ele><time>2026-04-12T10:39:35.752Z</time></trkpt><trkpt lat="45.7585233" lon="11.2674195"><ele>624.6666666666666</ele><time>2026-04-12T10:39:36.751Z</time></trkpt><trkpt lat="45.7585178" lon="11.2675323"><ele>623.3333333333333</ele><time>2026-04-12T10:39:37.752Z</time></trkpt><trkpt lat="45.7585063" lon="11.2676347"><ele>622.0</ele><time>2026-04-12T10:39:38.752Z</time></trkpt><trkpt lat="45.758473" lon="11.2677889"><ele>620.6666666666666</ele><time>2026-04-12T10:39:40.751Z</time></trkpt><trkpt lat="45.758428" lon="11.2678991"><ele>619.3333333333334</ele><time>2026-04-12T10:39:42.751Z</time></trkpt><trkpt lat="45.758399" lon="11.2679848"><ele>618.0</ele><time>2026-04-12T10:39:44.752Z</time></trkpt><trkpt lat="45.7584639" lon="11.2678891"><ele>618.0</ele><time>2026-04-12T10:40:36.752Z</time></trkpt><trkpt lat="45.758508" lon="11.2677613"><ele>618.0</ele><time>2026-04-12T10:40:38.751Z</time></trkpt><trkpt lat="45.7585286" lon="11.2676231"><ele>618.0</ele><time>2026-04-12T10:40:40.752Z</time></trkpt><trkpt lat="45.7585298" lon="11.2674783"><ele>618.0</ele><time>2026-04-12T10:40:42.752Z</time></trkpt><trkpt lat="45.7585488" lon="11.2673899"><ele>618.0</ele><time>2026-04-12T10:43:21.751Z</time></trkpt><trkpt lat="45.7585154" lon="11.2675862"><ele>618.0</ele><time>2026-04-12T10:44:51.75Z</time></trkpt><trkpt lat="45.7584838" lon="11.2677349"><ele>618.0</ele><time>2026-04-12T10:44:53.75Z</time></trkpt><trkpt lat="45.7584363" lon="11.2678762"><ele>618.0</ele><time>2026-04-12T10:44:55.751Z</time></trkpt><trkpt lat="45.7584001" lon="11.2680101"><ele>618.0</ele><time>2026-04-12T10:44:57.75Z</time></trkpt><trkpt lat="45.7583862" lon="11.2681344"><ele>618.0</ele><time>2026-04-12T10:44:59.751Z</time></trkpt><trkpt lat="45.758381" lon="11.2682396"><ele>618.0</ele><time>2026-04-12T10:45:01.751Z</time></trkpt><trkpt lat="45.758347" lon="11.2683336"><ele>618.0</ele><time>2026-04-12T10:45:04.751Z</time></trkpt><trkpt lat="45.758274" lon="11.2683543"><ele>618.0</ele><time>2026-04-12T10:48:20.75Z</time></trkpt><trkpt lat="45.7582063" lon="11.2683102"><ele>618.0</ele><time>2026-04-12T10:48:22.75Z</time></trkpt><trkpt lat="45.7581393" lon="11.2682162"><ele>618.0</ele><time>2026-04-12T10:48:24.75Z</time></trkpt><trkpt lat="45.7580574" lon="11.2681053"><ele>618.0</ele><time>2026-04-12T10:48:26.749Z</time></trkpt><trkpt lat="45.7579642" lon="11.2680031"><ele>618.0</ele><time>2026-04-12T10:48:28.749Z</time></trkpt><trkpt lat="45.7578578" lon="11.2678982"><ele>618.0</ele><time>2026-04-12T10:48:30.75Z</time></trkpt><trkpt lat="45.7577942" lon="11.2678471"><ele>618.0</ele><time>2026-04-12T10:48:31.75Z</time></trkpt><trkpt lat="45.7577197" lon="11.2678023"><ele>618.0</ele><time>2026-04-12T10:48:32.749Z</time></trkpt><trkpt lat="45.7576461" lon="11.2677643"><ele>618.0</ele><time>2026-04-12T10:48:33.75Z</time></trkpt><trkpt lat="45.7575721" lon="11.2677227"><ele>618.0</ele><time>2026-04-12T10:48:34.749Z</time></trkpt><trkpt lat="45.7574943" lon="11.2676823"><ele>617.0</ele><time>2026-04-12T10:48:35.75Z</time></trkpt><trkpt lat="45.7574105" lon="11.2676406"><ele>616.0</ele><time>2026-04-12T10:48:36.75Z</time></trkpt><trkpt lat="45.7573301" lon="11.2675795"><ele>615.0</ele><time>2026-04-12T10:48:37.749Z</time></trkpt><trkpt lat="45.7572515" lon="11.2675156"><ele>614.0</ele><time>2026-04-12T10:48:38.749Z</time></trkpt><trkpt lat="45.7571859" lon="11.2674337"><ele>613.0</ele><time>2026-04-12T10:48:39.749Z</time></trkpt><trkpt lat="45.7570897" lon="11.2673451"><ele>613.0</ele><time>2026-04-12T10:48:40.75Z</time></trkpt><trkpt lat="45.7570073" lon="11.2672886"><ele>613.0</ele><time>2026-04-12T10:48:41.749Z</time></trkpt><trkpt lat="45.7569155" lon="11.2672491"><ele>613.0</ele><time>2026-04-12T10:48:42.749Z</time></trkpt><trkpt lat="45.7568108" lon="11.267214"><ele>613.0</ele><time>2026-04-12T10:48:43.75Z</time></trkpt><trkpt lat="45.756708" lon="11.267179"><ele>613.0</ele><time>2026-04-12T10:48:44.749Z</time></trkpt><trkpt lat="45.75661" lon="11.2671339"><ele>609.1999999999999</ele><time>2026-04-12T10:48:45.749Z</time></trkpt><trkpt lat="45.7565097" lon="11.2670883"><ele>605.4</ele><time>2026-04-12T10:48:46.749Z</time></trkpt><trkpt lat="45.7564013" lon="11.267037"><ele>601.5999999999999</ele><time>2026-04-12T10:48:47.75Z</time></trkpt><trkpt lat="45.7562949" lon="11.2669819"><ele>597.8</ele><time>2026-04-12T10:48:48.75Z</time></trkpt><trkpt lat="45.7561946" lon="11.2669404"><ele>594.0</ele><time>2026-04-12T10:48:49.75Z</time></trkpt><trkpt lat="45.7560977" lon="11.2668941"><ele>594.1666666666666</ele><time>2026-04-12T10:48:50.75Z</time></trkpt><trkpt lat="45.7560056" lon="11.2668506"><ele>594.3333333333334</ele><time>2026-04-12T10:48:51.749Z</time></trkpt><trkpt lat="45.7559185" lon="11.2668092"><ele>594.5</ele><time>2026-04-12T10:48:52.749Z</time></trkpt><trkpt lat="45.7558463" lon="11.2667611"><ele>594.6666666666667</ele><time>2026-04-12T10:48:53.749Z</time></trkpt><trkpt lat="45.7557772" lon="11.2666953"><ele>594.8333333333334</ele><time>2026-04-12T10:48:54.749Z</time></trkpt><trkpt lat="45.7557178" lon="11.2666006"><ele>595.0</ele><time>2026-04-12T10:48:55.75Z</time></trkpt><trkpt lat="45.7556672" lon="11.2664948"><ele>591.8333333333334</ele><time>2026-04-12T10:48:56.75Z</time></trkpt><trkpt lat="45.7556135" lon="11.2664097"><ele>588.6666666666667</ele><time>2026-04-12T10:48:57.75Z</time></trkpt><trkpt lat="45.7555635" lon="11.2663458"><ele>585.5</ele><time>2026-04-12T10:48:58.749Z</time></trkpt><trkpt lat="45.7554756" lon="11.2662863"><ele>582.3333333333334</ele><time>2026-04-12T10:49:00.749Z</time></trkpt><trkpt lat="45.755389" lon="11.2663008"><ele>579.1666666666666</ele><time>2026-04-12T10:49:02.75Z</time></trkpt><trkpt lat="45.7553291" lon="11.2663304"><ele>576.0</ele><time>2026-04-12T10:49:03.75Z</time></trkpt><trkpt lat="45.7552697" lon="11.266369"><ele>576.0</ele><time>2026-04-12T10:49:04.75Z</time></trkpt><trkpt lat="45.7552119" lon="11.2664077"><ele>576.0</ele><time>2026-04-12T10:49:05.749Z</time></trkpt><trkpt lat="45.7551352" lon="11.2664802"><ele>576.0</ele><time>2026-04-12T10:49:07.75Z</time></trkpt><trkpt lat="45.7550745" lon="11.2665988"><ele>576.0</ele><time>2026-04-12T10:49:09.749Z</time></trkpt><trkpt lat="45.7550372" lon="11.2666839"><ele>576.0</ele><time>2026-04-12T10:49:10.75Z</time></trkpt><trkpt lat="45.7549974" lon="11.2667931"><ele>576.0</ele><time>2026-04-12T10:49:11.75Z</time></trkpt><trkpt lat="45.7549594" lon="11.2669014"><ele>578.0</ele><time>2026-04-12T10:49:12.75Z</time></trkpt><trkpt lat="45.7549288" lon="11.2669995"><ele>580.0</ele><time>2026-04-12T10:49:13.75Z</time></trkpt><trkpt lat="45.754898" lon="11.2670816"><ele>582.0</ele><time>2026-04-12T10:49:14.75Z</time></trkpt><trkpt lat="45.7548445" lon="11.2672097"><ele>584.0</ele><time>2026-04-12T10:49:16.75Z</time></trkpt><trkpt lat="45.754802" lon="11.2672983"><ele>586.0</ele><time>2026-04-12T10:49:18.749Z</time></trkpt><trkpt lat="45.7547484" lon="11.2673666"><ele>588.0</ele><time>2026-04-12T10:49:21.75Z</time></trkpt><trkpt lat="45.7546865" lon="11.2674596"><ele>586.8333333333334</ele><time>2026-04-12T10:49:30.75Z</time></trkpt><trkpt lat="45.7546358" lon="11.2675221"><ele>585.6666666666666</ele><time>2026-04-12T10:49:31.749Z</time></trkpt><trkpt lat="45.7545701" lon="11.2675822"><ele>584.5</ele><time>2026-04-12T10:49:32.75Z</time></trkpt><trkpt lat="45.7545035" lon="11.2676501"><ele>583.3333333333333</ele><time>2026-04-12T10:49:33.75Z</time></trkpt><trkpt lat="45.75444" lon="11.2677196"><ele>582.1666666666666</ele><time>2026-04-12T10:49:34.749Z</time></trkpt><trkpt lat="45.7543827" lon="11.2677976"><ele>581.0</ele><time>2026-04-12T10:49:35.749Z</time></trkpt><trkpt lat="45.7543282" lon="11.2678847"><ele>581.0</ele><time>2026-04-12T10:49:36.749Z</time></trkpt><trkpt lat="45.7542733" lon="11.2679798"><ele>581.0</ele><time>2026-04-12T10:49:37.749Z</time></trkpt><trkpt lat="45.7542184" lon="11.2680862"><ele>581.0</ele><time>2026-04-12T10:49:38.749Z</time></trkpt><trkpt lat="45.7541642" lon="11.2682019"><ele>581.0</ele><time>2026-04-12T10:49:39.75Z</time></trkpt><trkpt lat="45.7541083" lon="11.268335"><ele>581.0</ele><time>2026-04-12T10:49:40.75Z</time></trkpt><trkpt lat="45.7540394" lon="11.2684659"><ele>585.0</ele><time>2026-04-12T10:49:41.749Z</time></trkpt><trkpt lat="45.7539668" lon="11.2685971"><ele>589.0</ele><time>2026-04-12T10:49:42.749Z</time></trkpt><trkpt lat="45.7538888" lon="11.2687259"><ele>593.0</ele><time>2026-04-12T10:49:43.749Z</time></trkpt><trkpt lat="45.7538129" lon="11.268879"><ele>597.0</ele><time>2026-04-12T10:49:44.75Z</time></trkpt><trkpt lat="45.753737" lon="11.2690466"><ele>596.2</ele><time>2026-04-12T10:49:45.75Z</time></trkpt><trkpt lat="45.753658" lon="11.2691767"><ele>595.4000000000001</ele><time>2026-04-12T10:49:46.75Z</time></trkpt><trkpt lat="45.7535813" lon="11.2692798"><ele>594.5999999999999</ele><time>2026-04-12T10:49:47.749Z</time></trkpt><trkpt lat="45.753509" lon="11.2693625"><ele>593.8</ele><time>2026-04-12T10:49:48.749Z</time></trkpt><trkpt lat="45.7534456" lon="11.2694292"><ele>593.0</ele><time>2026-04-12T10:49:49.749Z</time></trkpt><trkpt lat="45.7533808" lon="11.2695251"><ele>593.0</ele><time>2026-04-12T10:49:51.749Z</time></trkpt><trkpt lat="45.7534831" lon="11.2695126"><ele>593.0</ele><time>2026-04-12T10:49:55.749Z</time></trkpt><trkpt lat="45.7535585" lon="11.2694172"><ele>593.0</ele><time>2026-04-12T10:49:57.749Z</time></trkpt><trkpt lat="45.7536697" lon="11.2693008"><ele>593.0</ele><time>2026-04-12T10:49:59.748Z</time></trkpt><trkpt lat="45.7537488" lon="11.2692191"><ele>593.0</ele><time>2026-04-12T10:50:00.749Z</time></trkpt><trkpt lat="45.7538432" lon="11.269122"><ele>594.0</ele><time>2026-04-12T10:50:01.749Z</time></trkpt><trkpt lat="45.7539437" lon="11.2690094"><ele>595.0</ele><time>2026-04-12T10:50:02.748Z</time></trkpt><trkpt lat="45.7540521" lon="11.2688927"><ele>596.0</ele><time>2026-04-12T10:50:03.748Z</time></trkpt><trkpt lat="45.7541636" lon="11.2687694"><ele>597.0</ele><time>2026-04-12T10:50:04.748Z</time></trkpt><trkpt lat="45.7542727" lon="11.2686578"><ele>604.5</ele><time>2026-04-12T10:50:05.748Z</time></trkpt><trkpt lat="45.7543824" lon="11.2685583"><ele>612.0</ele><time>2026-04-12T10:50:06.749Z</time></trkpt><trkpt lat="45.7544933" lon="11.2684836"><ele>619.5</ele><time>2026-04-12T10:50:07.748Z</time></trkpt><trkpt lat="45.7546055" lon="11.2684219"><ele>627.0</ele><time>2026-04-12T10:50:08.749Z</time></trkpt><trkpt lat="45.7547142" lon="11.2683608"><ele>627.0</ele><time>2026-04-12T10:50:09.749Z</time></trkpt><trkpt lat="45.754817" lon="11.2683082"><ele>627.0</ele><time>2026-04-12T10:50:10.748Z</time></trkpt><trkpt lat="45.7549226" lon="11.2682705"><ele>627.0</ele><time>2026-04-12T10:50:11.749Z</time></trkpt><trkpt lat="45.7550325" lon="11.2682197"><ele>627.0</ele><time>2026-04-12T10:50:12.749Z</time></trkpt><trkpt lat="45.7551371" lon="11.2681673"><ele>627.0</ele><time>2026-04-12T10:50:13.749Z</time></trkpt><trkpt lat="45.7552264" lon="11.268122"><ele>625.8333333333334</ele><time>2026-04-12T10:50:14.748Z</time></trkpt><trkpt lat="45.7553009" lon="11.2680571"><ele>624.6666666666666</ele><time>2026-04-12T10:50:15.749Z</time></trkpt><trkpt lat="45.755366" lon="11.2679781"><ele>623.5</ele><time>2026-04-12T10:50:16.748Z</time></trkpt><trkpt lat="45.7554152" lon="11.2678881"><ele>622.3333333333333</ele><time>2026-04-12T10:50:17.748Z</time></trkpt><trkpt lat="45.7554588" lon="11.2678069"><ele>621.1666666666666</ele><time>2026-04-12T10:50:18.748Z</time></trkpt><trkpt lat="45.7555072" lon="11.2677305"><ele>620.0</ele><time>2026-04-12T10:50:19.749Z</time></trkpt><trkpt lat="45.7555631" lon="11.2676732"><ele>620.0</ele><time>2026-04-12T10:50:20.748Z</time></trkpt><trkpt lat="45.7556386" lon="11.267668"><ele>620.0</ele><time>2026-04-12T10:50:21.748Z</time></trkpt><trkpt lat="45.7557171" lon="11.2676682"><ele>620.0</ele><time>2026-04-12T10:50:22.749Z</time></trkpt><trkpt lat="45.7558115" lon="11.2677089"><ele>620.0</ele><time>2026-04-12T10:50:23.749Z</time></trkpt><trkpt lat="45.7559291" lon="11.2677382"><ele>620.0</ele><time>2026-04-12T10:50:24.749Z</time></trkpt><trkpt lat="45.7560552" lon="11.2677504"><ele>620.6</ele><time>2026-04-12T10:50:25.748Z</time></trkpt><trkpt lat="45.7561642" lon="11.2677651"><ele>621.2</ele><time>2026-04-12T10:50:26.748Z</time></trkpt><trkpt lat="45.756276" lon="11.2677971"><ele>621.8</ele><time>2026-04-12T10:50:27.749Z</time></trkpt><trkpt lat="45.7563833" lon="11.2678418"><ele>622.4</ele><time>2026-04-12T10:50:28.749Z</time></trkpt><trkpt lat="45.7564902" lon="11.2678964"><ele>623.0</ele><time>2026-04-12T10:50:29.748Z</time></trkpt><trkpt lat="45.7565984" lon="11.2679639"><ele>623.0</ele><time>2026-04-12T10:50:30.748Z</time></trkpt><trkpt lat="45.7567119" lon="11.2680348"><ele>623.0</ele><time>2026-04-12T10:50:31.748Z</time></trkpt><trkpt lat="45.7568297" lon="11.2680793"><ele>623.0</ele><time>2026-04-12T10:50:32.749Z</time></trkpt><trkpt lat="45.7569533" lon="11.2681386"><ele>623.0</ele><time>2026-04-12T10:50:33.748Z</time></trkpt><trkpt lat="45.757079" lon="11.2681968"><ele>626.75</ele><time>2026-04-12T10:50:34.749Z</time></trkpt><trkpt lat="45.7572017" lon="11.2682548"><ele>630.5</ele><time>2026-04-12T10:50:35.748Z</time></trkpt><trkpt lat="45.75733" lon="11.2683119"><ele>634.25</ele><time>2026-04-12T10:50:36.749Z</time></trkpt><trkpt lat="45.7574509" lon="11.2683762"><ele>638.0</ele><time>2026-04-12T10:50:37.749Z</time></trkpt><trkpt lat="45.7575544" lon="11.2684482"><ele>638.0</ele><time>2026-04-12T10:50:38.748Z</time></trkpt><trkpt lat="45.7576452" lon="11.2685138"><ele>638.0</ele><time>2026-04-12T10:50:39.748Z</time></trkpt><trkpt lat="45.7577272" lon="11.2686029"><ele>638.0</ele><time>2026-04-12T10:50:40.749Z</time></trkpt><trkpt lat="45.7578033" lon="11.2687074"><ele>638.0</ele><time>2026-04-12T10:50:41.749Z</time></trkpt><trkpt lat="45.7578719" lon="11.2688263"><ele>638.0</ele><time>2026-04-12T10:50:42.749Z</time></trkpt><trkpt lat="45.7579325" lon="11.2689463"><ele>640.0</ele><time>2026-04-12T10:50:43.749Z</time></trkpt><trkpt lat="45.7579797" lon="11.2690537"><ele>642.0</ele><time>2026-04-12T10:50:44.748Z</time></trkpt><trkpt lat="45.7580171" lon="11.2691456"><ele>644.0</ele><time>2026-04-12T10:50:45.749Z</time></trkpt><trkpt lat="45.7580714" lon="11.2692351"><ele>646.0</ele><time>2026-04-12T10:50:47.748Z</time></trkpt><trkpt lat="45.7579987" lon="11.2691658"><ele>648.0</ele><time>2026-04-12T10:50:57.748Z</time></trkpt><trkpt lat="45.7579251" lon="11.2691243"><ele>650.0</ele><time>2026-04-12T10:51:00.749Z</time></trkpt><trkpt lat="45.7578656" lon="11.2691755"><ele>650.0</ele><time>2026-04-12T10:51:35.748Z</time></trkpt><trkpt lat="45.7578643" lon="11.269302"><ele>650.0</ele><time>2026-04-12T10:51:37.749Z</time></trkpt><trkpt lat="45.7578947" lon="11.2694415"><ele>650.0</ele><time>2026-04-12T10:51:39.748Z</time></trkpt><trkpt lat="45.7579101" lon="11.2695303"><ele>650.0</ele><time>2026-04-12T10:51:41.749Z</time></trkpt><trkpt lat="45.7578577" lon="11.2696029"><ele>650.0</ele><time>2026-04-12T10:51:44.748Z</time></trkpt><trkpt lat="45.7577708" lon="11.2695716"><ele>650.0</ele><time>2026-04-12T10:51:46.749Z</time></trkpt><trkpt lat="45.7576772" lon="11.2695846"><ele>652.6</ele><time>2026-04-12T10:51:48.749Z</time></trkpt><trkpt lat="45.7575908" lon="11.2696045"><ele>655.2</ele><time>2026-04-12T10:51:50.749Z</time></trkpt><trkpt lat="45.7575051" lon="11.2696443"><ele>657.8</ele><time>2026-04-12T10:51:52.748Z</time></trkpt><trkpt lat="45.7574043" lon="11.2696899"><ele>660.4</ele><time>2026-04-12T10:51:54.748Z</time></trkpt><trkpt lat="45.7572958" lon="11.2697272"><ele>663.0</ele><time>2026-04-12T10:51:56.749Z</time></trkpt><trkpt lat="45.7571888" lon="11.2697991"><ele>665.8</ele><time>2026-04-12T10:51:58.748Z</time></trkpt><trkpt lat="45.7570888" lon="11.2698344"><ele>668.5999999999999</ele><time>2026-04-12T10:52:00.749Z</time></trkpt><trkpt lat="45.7569897" lon="11.2698261"><ele>671.4000000000001</ele><time>2026-04-12T10:52:02.749Z</time></trkpt><trkpt lat="45.7568739" lon="11.2697779"><ele>674.2</ele><time>2026-04-12T10:52:04.748Z</time></trkpt><trkpt lat="45.7567729" lon="11.2697301"><ele>677.0</ele><time>2026-04-12T10:52:06.749Z</time></trkpt><trkpt lat="45.7567017" lon="11.2697496"><ele>679.6666666666666</ele><time>2026-04-12T10:52:08.748Z</time></trkpt><trkpt lat="45.7567288" lon="11.269836"><ele>682.3333333333333</ele><time>2026-04-12T10:53:32.748Z</time></trkpt><trkpt lat="45.7568192" lon="11.2699471"><ele>685.0</ele><time>2026-04-12T10:53:34.749Z</time></trkpt><trkpt lat="45.7568668" lon="11.2700221"><ele>687.6666666666666</ele><time>2026-04-12T10:53:35.749Z</time></trkpt><trkpt lat="45.7569132" lon="11.2700982"><ele>690.3333333333334</ele><time>2026-04-12T10:53:36.748Z</time></trkpt><trkpt lat="45.7569553" lon="11.2701706"><ele>693.0</ele><time>2026-04-12T10:53:37.747Z</time></trkpt><trkpt lat="45.7570369" lon="11.2702933"><ele>693.0</ele><time>2026-04-12T10:53:39.748Z</time></trkpt><trkpt lat="45.7571314" lon="11.2704045"><ele>693.0</ele><time>2026-04-12T10:53:41.748Z</time></trkpt><trkpt lat="45.7571866" lon="11.2704518"><ele>693.0</ele><time>2026-04-12T10:53:42.747Z</time></trkpt><trkpt lat="45.7572768" lon="11.2705256"><ele>693.0</ele><time>2026-04-12T10:53:44.748Z</time></trkpt><trkpt lat="45.7573573" lon="11.2705614"><ele>693.0</ele><time>2026-04-12T10:53:46.747Z</time></trkpt><trkpt lat="45.7574396" lon="11.2705603"><ele>693.0</ele><time>2026-04-12T10:53:48.748Z</time></trkpt><trkpt lat="45.7575241" lon="11.2705875"><ele>693.0</ele><time>2026-04-12T10:53:51.747Z</time></trkpt><trkpt lat="45.7575688" lon="11.2706898"><ele>693.0</ele><time>2026-04-12T10:53:54.747Z</time></trkpt><trkpt lat="45.7575734" lon="11.2707917"><ele>693.0</ele><time>2026-04-12T10:53:57.747Z</time></trkpt><trkpt lat="45.7575467" lon="11.2708785"><ele>693.0</ele><time>2026-04-12T10:54:01.747Z</time></trkpt><trkpt lat="45.757589" lon="11.2709988"><ele>693.0</ele><time>2026-04-12T10:54:59.747Z</time></trkpt><trkpt lat="45.7576255" lon="11.2710973"><ele>699.0</ele><time>2026-04-12T10:55:01.747Z</time></trkpt><trkpt lat="45.7576502" lon="11.2712124"><ele>705.0</ele><time>2026-04-12T10:55:03.747Z</time></trkpt><trkpt lat="45.757685" lon="11.2713675"><ele>711.0</ele><time>2026-04-12T10:55:05.748Z</time></trkpt><trkpt lat="45.7577194" lon="11.271519"><ele>717.0</ele><time>2026-04-12T10:55:07.748Z</time></trkpt><trkpt lat="45.7577465" lon="11.2716084"><ele>723.0</ele><time>2026-04-12T10:55:08.748Z</time></trkpt><trkpt lat="45.7577689" lon="11.2716979"><ele>729.0</ele><time>2026-04-12T10:55:09.748Z</time></trkpt><trkpt lat="45.7578179" lon="11.2718454"><ele>729.0</ele><time>2026-04-12T10:55:11.747Z</time></trkpt><trkpt lat="45.7578591" lon="11.2719604"><ele>729.0</ele><time>2026-04-12T10:55:13.748Z</time></trkpt><trkpt lat="45.7578966" lon="11.2721096"><ele>729.0</ele><time>2026-04-12T10:55:15.748Z</time></trkpt><trkpt lat="45.7579165" lon="11.2722523"><ele>729.0</ele><time>2026-04-12T10:55:17.748Z</time></trkpt><trkpt lat="45.7579427" lon="11.2724012"><ele>729.0</ele><time>2026-04-12T10:55:19.748Z</time></trkpt><trkpt lat="45.757978" lon="11.2725692"><ele>732.6666666666666</ele><time>2026-04-12T10:55:21.747Z</time></trkpt><trkpt lat="45.7580014" lon="11.2726541"><ele>736.3333333333334</ele><time>2026-04-12T10:55:22.748Z</time></trkpt><trkpt lat="45.7580256" lon="11.2727377"><ele>740.0</ele><time>2026-04-12T10:55:23.748Z</time></trkpt><trkpt lat="45.758075" lon="11.2728824"><ele>743.6666666666667</ele><time>2026-04-12T10:55:25.748Z</time></trkpt><trkpt lat="45.758111" lon="11.2729962"><ele>747.3333333333334</ele><time>2026-04-12T10:55:27.748Z</time></trkpt><trkpt lat="45.7581448" lon="11.2731075"><ele>751.0</ele><time>2026-04-12T10:55:29.748Z</time></trkpt><trkpt lat="45.7581885" lon="11.2732569"><ele>754.8333333333334</ele><time>2026-04-12T10:55:31.747Z</time></trkpt><trkpt lat="45.7582365" lon="11.2734167"><ele>758.6666666666667</ele><time>2026-04-12T10:55:33.748Z</time></trkpt><trkpt lat="45.7582598" lon="11.2735325"><ele>762.5</ele><time>2026-04-12T10:55:35.747Z</time></trkpt><trkpt lat="45.7582657" lon="11.2736292"><ele>766.3333333333334</ele><time>2026-04-12T10:55:37.748Z</time></trkpt><trkpt lat="45.7582893" lon="11.2737174"><ele>770.1666666666666</ele><time>2026-04-12T10:55:39.748Z</time></trkpt><trkpt lat="45.7583496" lon="11.273795"><ele>774.0</ele><time>2026-04-12T10:55:41.748Z</time></trkpt><trkpt lat="45.7584399" lon="11.2738087"><ele>774.0</ele><time>2026-04-12T10:55:43.748Z</time></trkpt><trkpt lat="45.7585131" lon="11.2738242"><ele>774.0</ele><time>2026-04-12T10:55:45.748Z</time></trkpt><trkpt lat="45.7585604" lon="11.2739529"><ele>774.0</ele><time>2026-04-12T11:05:47.745Z</time></trkpt><trkpt lat="45.7586296" lon="11.2740366"><ele>774.0</ele><time>2026-04-12T11:06:41.745Z</time></trkpt><trkpt lat="45.75868" lon="11.2741031"><ele>774.0</ele><time>2026-04-12T11:06:43.745Z</time></trkpt><trkpt lat="45.7587375" lon="11.2741741"><ele>774.0</ele><time>2026-04-12T11:06:45.745Z</time></trkpt><trkpt lat="45.7587994" lon="11.274226"><ele>776.5</ele><time>2026-04-12T11:06:47.745Z</time></trkpt><trkpt lat="45.7587452" lon="11.274302"><ele>779.0</ele><time>2026-04-12T11:06:55.745Z</time></trkpt><trkpt lat="45.758652" lon="11.2742957"><ele>781.5</ele><time>2026-04-12T11:06:58.745Z</time></trkpt><trkpt lat="45.7585642" lon="11.2742823"><ele>784.0</ele><time>2026-04-12T11:07:00.745Z</time></trkpt><trkpt lat="45.7584725" lon="11.2742517"><ele>786.5</ele><time>2026-04-12T11:07:02.745Z</time></trkpt><trkpt lat="45.758406" lon="11.2742123"><ele>789.0</ele><time>2026-04-12T11:07:04.745Z</time></trkpt><trkpt lat="45.7583345" lon="11.2742058"><ele>791.4000000000001</ele><time>2026-04-12T11:07:06.745Z</time></trkpt><trkpt lat="45.758255" lon="11.2741906"><ele>793.8</ele><time>2026-04-12T11:07:08.745Z</time></trkpt><trkpt lat="45.7581522" lon="11.2742028"><ele>796.2</ele><time>2026-04-12T11:07:10.744Z</time></trkpt><trkpt lat="45.7580343" lon="11.2742196"><ele>798.5999999999999</ele><time>2026-04-12T11:07:12.744Z</time></trkpt><trkpt lat="45.75793" lon="11.2742222"><ele>801.0</ele><time>2026-04-12T11:07:14.745Z</time></trkpt><trkpt lat="45.7578495" lon="11.2742058"><ele>801.0</ele><time>2026-04-12T11:07:16.745Z</time></trkpt><trkpt lat="45.7577842" lon="11.2741869"><ele>801.0</ele><time>2026-04-12T11:07:19.744Z</time></trkpt><trkpt lat="45.7577315" lon="11.2741312"><ele>801.0</ele><time>2026-04-12T11:07:21.744Z</time></trkpt><trkpt lat="45.7576711" lon="11.2740518"><ele>801.0</ele><time>2026-04-12T11:07:23.745Z</time></trkpt><trkpt lat="45.757615" lon="11.2740085"><ele>801.0</ele><time>2026-04-12T11:07:28.745Z</time></trkpt><trkpt lat="45.7575506" lon="11.2740135"><ele>801.0</ele><time>2026-04-12T11:07:59.744Z</time></trkpt><trkpt lat="45.7575038" lon="11.2740776"><ele>801.0</ele><time>2026-04-12T11:08:35.745Z</time></trkpt><trkpt lat="45.7575173" lon="11.27417"><ele>805.6666666666666</ele><time>2026-04-12T11:08:39.744Z</time></trkpt><trkpt lat="45.757525" lon="11.27426"><ele>810.3333333333333</ele><time>2026-04-12T11:08:45.745Z</time></trkpt><trkpt lat="45.7574948" lon="11.2743509"><ele>815.0</ele><time>2026-04-12T11:09:00.745Z</time></trkpt><trkpt lat="45.7574728" lon="11.2744572"><ele>819.6666666666666</ele><time>2026-04-12T11:09:02.744Z</time></trkpt><trkpt lat="45.7574681" lon="11.2745708"><ele>824.3333333333333</ele><time>2026-04-12T11:09:04.745Z</time></trkpt><trkpt lat="45.7574849" lon="11.2747434"><ele>829.0</ele><time>2026-04-12T11:12:13.744Z</time></trkpt><trkpt lat="45.7574567" lon="11.2748252"><ele>829.8000000000001</ele><time>2026-04-12T11:15:48.742Z</time></trkpt><trkpt lat="45.7575042" lon="11.2749373"><ele>830.6</ele><time>2026-04-12T11:15:51.743Z</time></trkpt><trkpt lat="45.7575859" lon="11.2750449"><ele>831.4</ele><time>2026-04-12T11:15:53.742Z</time></trkpt><trkpt lat="45.7576833" lon="11.2751214"><ele>832.2</ele><time>2026-04-12T11:15:55.743Z</time></trkpt><trkpt lat="45.7577643" lon="11.2752256"><ele>833.0</ele><time>2026-04-12T11:15:57.742Z</time></trkpt><trkpt lat="45.757795" lon="11.2753076"><ele>834.8</ele><time>2026-04-12T11:15:58.742Z</time></trkpt><trkpt lat="45.7578653" lon="11.2754523"><ele>836.5999999999999</ele><time>2026-04-12T11:16:00.743Z</time></trkpt><trkpt lat="45.7579249" lon="11.2755762"><ele>838.4000000000001</ele><time>2026-04-12T11:16:02.742Z</time></trkpt><trkpt lat="45.757969" lon="11.275706"><ele>840.2</ele><time>2026-04-12T11:16:04.743Z</time></trkpt><trkpt lat="45.7580205" lon="11.2757937"><ele>842.0</ele><time>2026-04-12T11:16:06.742Z</time></trkpt><trkpt lat="45.7580665" lon="11.2759104"><ele>842.0</ele><time>2026-04-12T11:16:08.741Z</time></trkpt><trkpt lat="45.7581125" lon="11.2760281"><ele>842.0</ele><time>2026-04-12T11:16:10.741Z</time></trkpt><trkpt lat="45.7581753" lon="11.2761765"><ele>842.0</ele><time>2026-04-12T11:16:12.741Z</time></trkpt><trkpt lat="45.7582052" lon="11.2762626"><ele>842.0</ele><time>2026-04-12T11:16:13.742Z</time></trkpt><trkpt lat="45.7582367" lon="11.2763493"><ele>842.0</ele><time>2026-04-12T11:16:14.742Z</time></trkpt><trkpt lat="45.7583129" lon="11.2764825"><ele>843.6666666666667</ele><time>2026-04-12T11:16:16.742Z</time></trkpt><trkpt lat="45.7583619" lon="11.2765399"><ele>845.3333333333334</ele><time>2026-04-12T11:16:17.741Z</time></trkpt><trkpt lat="45.7584506" lon="11.2766531"><ele>847.0</ele><time>2026-04-12T11:16:19.741Z</time></trkpt><trkpt lat="45.7584823" lon="11.2767813"><ele>848.6666666666667</ele><time>2026-04-12T11:16:21.742Z</time></trkpt><trkpt lat="45.7585076" lon="11.2769087"><ele>850.3333333333334</ele><time>2026-04-12T11:16:23.741Z</time></trkpt><trkpt lat="45.7585321" lon="11.2770005"><ele>852.0</ele><time>2026-04-12T11:16:25.742Z</time></trkpt><trkpt lat="45.7585519" lon="11.2771003"><ele>853.0</ele><time>2026-04-12T11:16:27.742Z</time></trkpt><trkpt lat="45.7585618" lon="11.2772128"><ele>854.0</ele><time>2026-04-12T11:16:29.741Z</time></trkpt><trkpt lat="45.7585402" lon="11.2773292"><ele>855.0</ele><time>2026-04-12T11:16:31.742Z</time></trkpt><trkpt lat="45.758482" lon="11.2774569"><ele>856.0</ele><time>2026-04-12T11:16:33.742Z</time></trkpt><trkpt lat="45.7584129" lon="11.2775891"><ele>857.0</ele><time>2026-04-12T11:16:35.741Z</time></trkpt><trkpt lat="45.7583782" lon="11.2777384"><ele>857.0000000000001</ele><time>2026-04-12T11:16:37.741Z</time></trkpt><trkpt lat="45.758358" lon="11.2779022"><ele>857.0</ele><time>2026-04-12T11:16:39.742Z</time></trkpt><trkpt lat="45.7583429" lon="11.2779907"><ele>857.0</ele><time>2026-04-12T11:16:40.741Z</time></trkpt><trkpt lat="45.7583212" lon="11.2780841"><ele>857.0</ele><time>2026-04-12T11:16:41.742Z</time></trkpt><trkpt lat="45.7582978" lon="11.278182"><ele>857.0000000000001</ele><time>2026-04-12T11:16:42.742Z</time></trkpt><trkpt lat="45.7582703" lon="11.2782797"><ele>857.0</ele><time>2026-04-12T11:16:43.742Z</time></trkpt><trkpt lat="45.7582377" lon="11.2783782"><ele>859.0</ele><time>2026-04-12T11:16:44.742Z</time></trkpt><trkpt lat="45.7581973" lon="11.2784873"><ele>861.0</ele><time>2026-04-12T11:16:45.742Z</time></trkpt><trkpt lat="45.7581549" lon="11.278606"><ele>863.0</ele><time>2026-04-12T11:16:46.742Z</time></trkpt><trkpt lat="45.7581121" lon="11.2787372"><ele>865.0</ele><time>2026-04-12T11:16:47.742Z</time></trkpt><trkpt lat="45.7580622" lon="11.2788673"><ele>867.0</ele><time>2026-04-12T11:16:48.742Z</time></trkpt><trkpt lat="45.7580182" lon="11.2789962"><ele>872.2</ele><time>2026-04-12T11:16:49.742Z</time></trkpt><trkpt lat="45.7579759" lon="11.2791319"><ele>877.4000000000001</ele><time>2026-04-12T11:16:50.742Z</time></trkpt><trkpt lat="45.7579266" lon="11.2792584"><ele>882.5999999999999</ele><time>2026-04-12T11:16:51.741Z</time></trkpt><trkpt lat="45.7578773" lon="11.2793676"><ele>887.8</ele><time>2026-04-12T11:16:52.741Z</time></trkpt><trkpt lat="45.7578269" lon="11.2794693"><ele>893.0</ele><time>2026-04-12T11:16:53.742Z</time></trkpt><trkpt lat="45.7577784" lon="11.2795641"><ele>893.0000000000001</ele><time>2026-04-12T11:16:54.742Z</time></trkpt><trkpt lat="45.7577258" lon="11.2796623"><ele>893.0</ele><time>2026-04-12T11:16:55.741Z</time></trkpt><trkpt lat="45.7576749" lon="11.2797669"><ele>893.0</ele><time>2026-04-12T11:16:56.741Z</time></trkpt><trkpt lat="45.7576261" lon="11.2798614"><ele>893.0</ele><time>2026-04-12T11:16:57.742Z</time></trkpt><trkpt lat="45.7575788" lon="11.279944"><ele>893.0000000000001</ele><time>2026-04-12T11:16:58.742Z</time></trkpt><trkpt lat="45.7575148" lon="11.2800167"><ele>893.0</ele><time>2026-04-12T11:16:59.741Z</time></trkpt><trkpt lat="45.7574457" lon="11.2800674"><ele>892.5999999999999</ele><time>2026-04-12T11:17:00.741Z</time></trkpt><trkpt lat="45.7573568" lon="11.280135"><ele>892.1999999999999</ele><time>2026-04-12T11:17:02.741Z</time></trkpt><trkpt lat="45.7572925" lon="11.2802075"><ele>891.8</ele><time>2026-04-12T11:17:04.741Z</time></trkpt><trkpt lat="45.7572031" lon="11.2803118"><ele>891.4</ele><time>2026-04-12T11:17:06.741Z</time></trkpt><trkpt lat="45.7570981" lon="11.2804275"><ele>891.0</ele><time>2026-04-12T11:17:08.741Z</time></trkpt><trkpt lat="45.7570447" lon="11.2805034"><ele>891.0</ele><time>2026-04-12T11:17:09.742Z</time></trkpt><trkpt lat="45.7569876" lon="11.2805753"><ele>891.0</ele><time>2026-04-12T11:17:10.742Z</time></trkpt><trkpt lat="45.7569345" lon="11.2806643"><ele>891.0</ele><time>2026-04-12T11:17:11.742Z</time></trkpt><trkpt lat="45.7568844" lon="11.2807586"><ele>891.0</ele><time>2026-04-12T11:17:12.742Z</time></trkpt><trkpt lat="45.7568385" lon="11.2808479"><ele>891.0</ele><time>2026-04-12T11:17:13.742Z</time></trkpt><trkpt lat="45.7567906" lon="11.2809406"><ele>891.0</ele><time>2026-04-12T11:17:14.741Z</time></trkpt><trkpt lat="45.7567388" lon="11.2810311"><ele>891.0000000000001</ele><time>2026-04-12T11:17:15.742Z</time></trkpt><trkpt lat="45.7566885" lon="11.2811148"><ele>891.0</ele><time>2026-04-12T11:17:16.742Z</time></trkpt><trkpt lat="45.7566435" lon="11.2812135"><ele>891.0</ele><time>2026-04-12T11:17:17.741Z</time></trkpt><trkpt lat="45.7566004" lon="11.2813061"><ele>891.0</ele><time>2026-04-12T11:17:18.742Z</time></trkpt><trkpt lat="45.7565589" lon="11.2813858"><ele>891.0</ele><time>2026-04-12T11:17:19.741Z</time></trkpt><trkpt lat="45.7565202" lon="11.2814615"><ele>891.0000000000001</ele><time>2026-04-12T11:17:20.741Z</time></trkpt><trkpt lat="45.7564785" lon="11.2815345"><ele>891.0</ele><time>2026-04-12T11:17:21.742Z</time></trkpt><trkpt lat="45.7564257" lon="11.2816664"><ele>891.0</ele><time>2026-04-12T11:17:23.742Z</time></trkpt><trkpt lat="45.7564145" lon="11.2817688"><ele>890.9999999999999</ele><time>2026-04-12T11:17:25.742Z</time></trkpt><trkpt lat="45.7564002" lon="11.2819343"><ele>890.9999999999999</ele><time>2026-04-12T11:17:27.742Z</time></trkpt><trkpt lat="45.756392" lon="11.2820683"><ele>891.0</ele><time>2026-04-12T11:17:28.741Z</time></trkpt><trkpt lat="45.7563798" lon="11.282214"><ele>891.0</ele><time>2026-04-12T11:17:29.741Z</time></trkpt><trkpt lat="45.7563648" lon="11.2823622"><ele>891.5</ele><time>2026-04-12T11:17:30.741Z</time></trkpt><trkpt lat="45.7563429" lon="11.2824969"><ele>892.0</ele><time>2026-04-12T11:17:31.742Z</time></trkpt><trkpt lat="45.7563153" lon="11.2826165"><ele>892.5</ele><time>2026-04-12T11:17:32.742Z</time></trkpt><trkpt lat="45.7562858" lon="11.2827245"><ele>893.0</ele><time>2026-04-12T11:17:33.741Z</time></trkpt><trkpt lat="45.7562647" lon="11.2828341"><ele>893.5</ele><time>2026-04-12T11:17:34.742Z</time></trkpt><trkpt lat="45.7562566" lon="11.2829481"><ele>894.0</ele><time>2026-04-12T11:17:35.741Z</time></trkpt><trkpt lat="45.7562763" lon="11.2830763"><ele>893.5</ele><time>2026-04-12T11:17:36.741Z</time></trkpt><trkpt lat="45.756313" lon="11.2832284"><ele>893.0</ele><time>2026-04-12T11:17:37.742Z</time></trkpt><trkpt lat="45.7563724" lon="11.2833937"><ele>892.5</ele><time>2026-04-12T11:17:38.741Z</time></trkpt><trkpt lat="45.7564162" lon="11.2835711"><ele>892.0</ele><time>2026-04-12T11:17:39.742Z</time></trkpt><trkpt lat="45.7564414" lon="11.2837543"><ele>890.25</ele><time>2026-04-12T11:17:40.742Z</time></trkpt><trkpt lat="45.7564608" lon="11.283935"><ele>888.5</ele><time>2026-04-12T11:17:41.741Z</time></trkpt><trkpt lat="45.7564751" lon="11.2841104"><ele>886.75</ele><time>2026-04-12T11:17:42.742Z</time></trkpt><trkpt lat="45.7564896" lon="11.2842731"><ele>885.0</ele><time>2026-04-12T11:17:43.742Z</time></trkpt><trkpt lat="45.7565048" lon="11.284457"><ele>885.0</ele><time>2026-04-12T11:17:44.742Z</time></trkpt><trkpt lat="45.7565139" lon="11.2846459"><ele>885.0</ele><time>2026-04-12T11:17:45.742Z</time></trkpt><trkpt lat="45.7565354" lon="11.2848251"><ele>885.0</ele><time>2026-04-12T11:17:46.741Z</time></trkpt><trkpt lat="45.7565734" lon="11.2850049"><ele>885.0</ele><time>2026-04-12T11:17:47.742Z</time></trkpt><trkpt lat="45.7566216" lon="11.285176"><ele>881.0</ele><time>2026-04-12T11:17:48.742Z</time></trkpt><trkpt lat="45.7566741" lon="11.2853393"><ele>877.0</ele><time>2026-04-12T11:17:49.742Z</time></trkpt><trkpt lat="45.7567214" lon="11.2854929"><ele>873.0</ele><time>2026-04-12T11:17:50.741Z</time></trkpt><trkpt lat="45.756768" lon="11.2856395"><ele>869.0</ele><time>2026-04-12T11:17:51.741Z</time></trkpt><trkpt lat="45.7568077" lon="11.2857824"><ele>864.75</ele><time>2026-04-12T11:17:52.742Z</time></trkpt><trkpt lat="45.756838" lon="11.2859297"><ele>860.5</ele><time>2026-04-12T11:17:53.742Z</time></trkpt><trkpt lat="45.7568517" lon="11.2860974"><ele>856.25</ele><time>2026-04-12T11:17:54.741Z</time></trkpt><trkpt lat="45.7568477" lon="11.2862809"><ele>852.0</ele><time>2026-04-12T11:17:55.742Z</time></trkpt><trkpt lat="45.7568402" lon="11.2864607"><ele>849.75</ele><time>2026-04-12T11:17:56.742Z</time></trkpt><trkpt lat="45.756827" lon="11.286636"><ele>847.5</ele><time>2026-04-12T11:17:57.741Z</time></trkpt><trkpt lat="45.7568207" lon="11.2868142"><ele>845.25</ele><time>2026-04-12T11:17:58.742Z</time></trkpt><trkpt lat="45.7568237" lon="11.2869755"><ele>843.0</ele><time>2026-04-12T11:17:59.742Z</time></trkpt><trkpt lat="45.7568365" lon="11.2871311"><ele>841.2</ele><time>2026-04-12T11:18:00.741Z</time></trkpt><trkpt lat="45.7568368" lon="11.2872918"><ele>839.4</ele><time>2026-04-12T11:18:01.742Z</time></trkpt><trkpt lat="45.7568244" lon="11.287454"><ele>837.6</ele><time>2026-04-12T11:18:02.742Z</time></trkpt><trkpt lat="45.756809" lon="11.2876101"><ele>835.8000000000001</ele><time>2026-04-12T11:18:03.742Z</time></trkpt><trkpt lat="45.7567922" lon="11.2877556"><ele>834.0</ele><time>2026-04-12T11:18:04.742Z</time></trkpt><trkpt lat="45.7567721" lon="11.2878796"><ele>834.0</ele><time>2026-04-12T11:18:05.741Z</time></trkpt><trkpt lat="45.7567719" lon="11.288019"><ele>834.0</ele><time>2026-04-12T11:18:06.741Z</time></trkpt><trkpt lat="45.7567928" lon="11.2881758"><ele>834.0</ele><time>2026-04-12T11:18:07.741Z</time></trkpt><trkpt lat="45.7568332" lon="11.2883268"><ele>834.0</ele><time>2026-04-12T11:18:08.741Z</time></trkpt><trkpt lat="45.7568813" lon="11.2884811"><ele>834.0</ele><time>2026-04-12T11:18:09.741Z</time></trkpt><trkpt lat="45.756923" lon="11.2886305"><ele>838.4000000000001</ele><time>2026-04-12T11:18:10.742Z</time></trkpt><trkpt lat="45.7569498" lon="11.2887798"><ele>842.8</ele><time>2026-04-12T11:18:11.742Z</time></trkpt><trkpt lat="45.756973" lon="11.2889264"><ele>847.1999999999999</ele><time>2026-04-12T11:18:12.742Z</time></trkpt><trkpt lat="45.756988" lon="11.2890783"><ele>851.5999999999999</ele><time>2026-04-12T11:18:13.742Z</time></trkpt><trkpt lat="45.7569959" lon="11.2892297"><ele>856.0</ele><time>2026-04-12T11:18:14.742Z</time></trkpt><trkpt lat="45.7570052" lon="11.2893597"><ele>855.9999999999999</ele><time>2026-04-12T11:18:15.742Z</time></trkpt><trkpt lat="45.7570048" lon="11.289482"><ele>856.0</ele><time>2026-04-12T11:18:16.741Z</time></trkpt><trkpt lat="45.7569896" lon="11.2895781"><ele>856.0</ele><time>2026-04-12T11:18:17.742Z</time></trkpt><trkpt lat="45.7568848" lon="11.2896778"><ele>856.0</ele><time>2026-04-12T11:18:19.742Z</time></trkpt><trkpt lat="45.7568144" lon="11.2896889"><ele>855.9999999999999</ele><time>2026-04-12T11:18:20.742Z</time></trkpt><trkpt lat="45.7567411" lon="11.2896941"><ele>856.0</ele><time>2026-04-12T11:18:21.742Z</time></trkpt><trkpt lat="45.7566552" lon="11.2896813"><ele>849.0</ele><time>2026-04-12T11:18:22.741Z</time></trkpt><trkpt lat="45.756558" lon="11.2896346"><ele>841.9999999999999</ele><time>2026-04-12T11:18:23.742Z</time></trkpt><trkpt lat="45.7564674" lon="11.2895496"><ele>835.0</ele><time>2026-04-12T11:18:24.742Z</time></trkpt><trkpt lat="45.7563919" lon="11.2894379"><ele>828.0</ele><time>2026-04-12T11:18:25.741Z</time></trkpt><trkpt lat="45.7563235" lon="11.2893212"><ele>821.0</ele><time>2026-04-12T11:18:26.742Z</time></trkpt><trkpt lat="45.7562621" lon="11.2891943"><ele>821.0</ele><time>2026-04-12T11:18:27.742Z</time></trkpt><trkpt lat="45.7561955" lon="11.2890661"><ele>821.0</ele><time>2026-04-12T11:18:28.742Z</time></trkpt><trkpt lat="45.756136" lon="11.2889337"><ele>821.0</ele><time>2026-04-12T11:18:29.742Z</time></trkpt><trkpt lat="45.75609" lon="11.2887926"><ele>821.0</ele><time>2026-04-12T11:18:30.741Z</time></trkpt><trkpt lat="45.7560431" lon="11.2886618"><ele>821.0</ele><time>2026-04-12T11:18:31.742Z</time></trkpt><trkpt lat="45.755984" lon="11.2885493"><ele>817.3333333333334</ele><time>2026-04-12T11:18:32.742Z</time></trkpt><trkpt lat="45.7559244" lon="11.2884535"><ele>813.6666666666667</ele><time>2026-04-12T11:18:33.741Z</time></trkpt><trkpt lat="45.7558576" lon="11.2884054"><ele>810.0</ele><time>2026-04-12T11:18:34.741Z</time></trkpt><trkpt lat="45.755783" lon="11.2884066"><ele>806.3333333333333</ele><time>2026-04-12T11:18:35.742Z</time></trkpt><trkpt lat="45.7557178" lon="11.2884582"><ele>802.6666666666666</ele><time>2026-04-12T11:18:36.741Z</time></trkpt><trkpt lat="45.7556664" lon="11.2885685"><ele>799.0</ele><time>2026-04-12T11:18:37.742Z</time></trkpt><trkpt lat="45.75563" lon="11.288707"><ele>799.0</ele><time>2026-04-12T11:18:38.741Z</time></trkpt><trkpt lat="45.7556031" lon="11.2888492"><ele>799.0</ele><time>2026-04-12T11:18:39.742Z</time></trkpt><trkpt lat="45.7555749" lon="11.2889853"><ele>799.0</ele><time>2026-04-12T11:18:40.741Z</time></trkpt><trkpt lat="45.7555343" lon="11.2891003"><ele>799.0</ele><time>2026-04-12T11:18:41.742Z</time></trkpt><trkpt lat="45.7554768" lon="11.2892036"><ele>799.0</ele><time>2026-04-12T11:18:42.741Z</time></trkpt><trkpt lat="45.7553895" lon="11.2892775"><ele>798.0</ele><time>2026-04-12T11:18:43.742Z</time></trkpt><trkpt lat="45.7552853" lon="11.2893422"><ele>797.0</ele><time>2026-04-12T11:18:44.742Z</time></trkpt><trkpt lat="45.7551778" lon="11.2894193"><ele>796.0</ele><time>2026-04-12T11:18:45.741Z</time></trkpt><trkpt lat="45.755078" lon="11.2894932"><ele>795.0</ele><time>2026-04-12T11:18:46.741Z</time></trkpt><trkpt lat="45.7549799" lon="11.2895645"><ele>795.0</ele><time>2026-04-12T11:18:47.741Z</time></trkpt><trkpt lat="45.7548902" lon="11.2896575"><ele>795.0</ele><time>2026-04-12T11:18:48.742Z</time></trkpt><trkpt lat="45.7548062" lon="11.2897634"><ele>795.0</ele><time>2026-04-12T11:18:49.742Z</time></trkpt><trkpt lat="45.7547276" lon="11.2898747"><ele>795.0</ele><time>2026-04-12T11:18:50.741Z</time></trkpt><trkpt lat="45.7546553" lon="11.2900052"><ele>795.0</ele><time>2026-04-12T11:18:51.742Z</time></trkpt><trkpt lat="45.7545701" lon="11.2901125"><ele>793.25</ele><time>2026-04-12T11:18:52.742Z</time></trkpt><trkpt lat="45.754479" lon="11.2902327"><ele>791.5</ele><time>2026-04-12T11:18:53.741Z</time></trkpt><trkpt lat="45.7543941" lon="11.2903688"><ele>789.75</ele><time>2026-04-12T11:18:54.741Z</time></trkpt><trkpt lat="45.754311" lon="11.2904898"><ele>788.0</ele><time>2026-04-12T11:18:55.742Z</time></trkpt><trkpt lat="45.7542138" lon="11.2905648"><ele>792.4</ele><time>2026-04-12T11:18:56.741Z</time></trkpt><trkpt lat="45.7541193" lon="11.2905947"><ele>796.8</ele><time>2026-04-12T11:18:57.742Z</time></trkpt><trkpt lat="45.7540275" lon="11.2906122"><ele>801.2</ele><time>2026-04-12T11:18:58.742Z</time></trkpt><trkpt lat="45.7539471" lon="11.2906735"><ele>805.6</ele><time>2026-04-12T11:18:59.741Z</time></trkpt><trkpt lat="45.7538727" lon="11.2907681"><ele>810.0</ele><time>2026-04-12T11:19:00.742Z</time></trkpt><trkpt lat="45.7538181" lon="11.290885"><ele>810.0</ele><time>2026-04-12T11:19:01.742Z</time></trkpt><trkpt lat="45.7537555" lon="11.2909837"><ele>810.0</ele><time>2026-04-12T11:19:02.742Z</time></trkpt><trkpt lat="45.7536906" lon="11.2910651"><ele>810.0</ele><time>2026-04-12T11:19:03.742Z</time></trkpt><trkpt lat="45.753614" lon="11.2911176"><ele>810.0</ele><time>2026-04-12T11:19:04.741Z</time></trkpt><trkpt lat="45.7535245" lon="11.2911539"><ele>810.0</ele><time>2026-04-12T11:19:05.742Z</time></trkpt><trkpt lat="45.7534352" lon="11.2911813"><ele>810.0</ele><time>2026-04-12T11:19:06.742Z</time></trkpt><trkpt lat="45.7533415" lon="11.2912318"><ele>808.6</ele><time>2026-04-12T11:19:07.742Z</time></trkpt><trkpt lat="45.753245" lon="11.2913031"><ele>807.2</ele><time>2026-04-12T11:19:08.742Z</time></trkpt><trkpt lat="45.7531495" lon="11.2913862"><ele>805.8</ele><time>2026-04-12T11:19:09.741Z</time></trkpt><trkpt lat="45.7530535" lon="11.2914508"><ele>804.4</ele><time>2026-04-12T11:19:10.742Z</time></trkpt><trkpt lat="45.7529597" lon="11.2915226"><ele>803.0</ele><time>2026-04-12T11:19:11.741Z</time></trkpt><trkpt lat="45.7528698" lon="11.2915905"><ele>803.0000000000001</ele><time>2026-04-12T11:19:12.742Z</time></trkpt><trkpt lat="45.7527855" lon="11.291657"><ele>803.0</ele><time>2026-04-12T11:19:13.741Z</time></trkpt><trkpt lat="45.7527065" lon="11.2917156"><ele>803.0</ele><time>2026-04-12T11:19:14.741Z</time></trkpt><trkpt lat="45.7526351" lon="11.291762"><ele>803.0</ele><time>2026-04-12T11:19:15.741Z</time></trkpt><trkpt lat="45.7525709" lon="11.2918028"><ele>803.0000000000001</ele><time>2026-04-12T11:19:16.741Z</time></trkpt><trkpt lat="45.752502" lon="11.2918532"><ele>803.0</ele><time>2026-04-12T11:19:18.741Z</time></trkpt><trkpt lat="45.7524689" lon="11.2919645"><ele>802.6666666666667</ele><time>2026-04-12T11:19:29.741Z</time></trkpt><trkpt lat="45.752399" lon="11.292071"><ele>802.3333333333334</ele><time>2026-04-12T11:19:31.74Z</time></trkpt><trkpt lat="45.7523425" lon="11.2921625"><ele>802.0</ele><time>2026-04-12T11:19:33.74Z</time></trkpt><trkpt lat="45.7523077" lon="11.2922699"><ele>801.6666666666667</ele><time>2026-04-12T11:19:35.741Z</time></trkpt><trkpt lat="45.7522658" lon="11.2923767"><ele>801.3333333333334</ele><time>2026-04-12T11:19:37.74Z</time></trkpt><trkpt lat="45.7522282" lon="11.2924954"><ele>801.0</ele><time>2026-04-12T11:19:39.741Z</time></trkpt><trkpt lat="45.7521545" lon="11.2925759"><ele>801.0</ele><time>2026-04-12T11:19:41.74Z</time></trkpt><trkpt lat="45.7520601" lon="11.2926471"><ele>801.0</ele><time>2026-04-12T11:19:43.741Z</time></trkpt><trkpt lat="45.7519856" lon="11.2927241"><ele>801.0</ele><time>2026-04-12T11:19:45.74Z</time></trkpt><trkpt lat="45.7519065" lon="11.2928024"><ele>801.0</ele><time>2026-04-12T11:19:47.74Z</time></trkpt><trkpt lat="45.7518385" lon="11.2929287"><ele>801.0</ele><time>2026-04-12T11:19:49.741Z</time></trkpt><trkpt lat="45.7518131" lon="11.2930128"><ele>800.5</ele><time>2026-04-12T11:19:50.741Z</time></trkpt><trkpt lat="45.7517875" lon="11.2931001"><ele>800.0</ele><time>2026-04-12T11:19:51.741Z</time></trkpt><trkpt lat="45.7517569" lon="11.2932537"><ele>799.5</ele><time>2026-04-12T11:19:53.741Z</time></trkpt><trkpt lat="45.7517419" lon="11.2934175"><ele>799.0</ele><time>2026-04-12T11:19:55.741Z</time></trkpt><trkpt lat="45.7517223" lon="11.2935338"><ele>798.5</ele><time>2026-04-12T11:19:57.741Z</time></trkpt><trkpt lat="45.7517046" lon="11.2936269"><ele>798.0</ele><time>2026-04-12T11:19:59.741Z</time></trkpt><trkpt lat="45.751698" lon="11.2937231"><ele>798.0</ele><time>2026-04-12T11:20:01.741Z</time></trkpt><trkpt lat="45.7516611" lon="11.2938709"><ele>798.0</ele><time>2026-04-12T11:20:04.741Z</time></trkpt><trkpt lat="45.7516002" lon="11.2940087"><ele>798.0</ele><time>2026-04-12T11:20:06.74Z</time></trkpt><trkpt lat="45.7515141" lon="11.2941335"><ele>798.0</ele><time>2026-04-12T11:20:08.741Z</time></trkpt><trkpt lat="45.7514724" lon="11.2942015"><ele>798.0</ele><time>2026-04-12T11:20:09.74Z</time></trkpt><trkpt lat="45.7513959" lon="11.2943354"><ele>800.8</ele><time>2026-04-12T11:20:11.74Z</time></trkpt><trkpt lat="45.7513617" lon="11.2944114"><ele>803.5999999999999</ele><time>2026-04-12T11:20:12.741Z</time></trkpt><trkpt lat="45.7513021" lon="11.2945706"><ele>806.4000000000001</ele><time>2026-04-12T11:20:14.74Z</time></trkpt><trkpt lat="45.7512434" lon="11.2947014"><ele>809.2</ele><time>2026-04-12T11:20:16.74Z</time></trkpt><trkpt lat="45.7511915" lon="11.2948063"><ele>812.0</ele><time>2026-04-12T11:20:18.74Z</time></trkpt><trkpt lat="45.7511222" lon="11.2949072"><ele>813.2</ele><time>2026-04-12T11:20:20.74Z</time></trkpt><trkpt lat="45.7510541" lon="11.2950225"><ele>814.4000000000001</ele><time>2026-04-12T11:20:22.741Z</time></trkpt><trkpt lat="45.7509975" lon="11.2951241"><ele>815.5999999999999</ele><time>2026-04-12T11:20:24.741Z</time></trkpt><trkpt lat="45.7509597" lon="11.2952397"><ele>816.8</ele><time>2026-04-12T11:20:26.741Z</time></trkpt><trkpt lat="45.7509503" lon="11.2953735"><ele>818.0</ele><time>2026-04-12T11:20:28.741Z</time></trkpt><trkpt lat="45.7509723" lon="11.2955004"><ele>815.6666666666667</ele><time>2026-04-12T11:20:30.74Z</time></trkpt><trkpt lat="45.7509953" lon="11.2956333"><ele>813.3333333333334</ele><time>2026-04-12T11:20:32.74Z</time></trkpt><trkpt lat="45.7510074" lon="11.2957568"><ele>811.0</ele><time>2026-04-12T11:20:34.741Z</time></trkpt><trkpt lat="45.7510159" lon="11.2958744"><ele>808.6666666666667</ele><time>2026-04-12T11:20:36.74Z</time></trkpt><trkpt lat="45.7510077" lon="11.296002"><ele>806.3333333333334</ele><time>2026-04-12T11:20:38.74Z</time></trkpt><trkpt lat="45.7509854" lon="11.2961281"><ele>804.0</ele><time>2026-04-12T11:20:40.741Z</time></trkpt><trkpt lat="45.7509587" lon="11.2962257"><ele>804.0</ele><time>2026-04-12T11:20:42.741Z</time></trkpt><trkpt lat="45.7509401" lon="11.2963268"><ele>804.0</ele><time>2026-04-12T11:20:45.741Z</time></trkpt><trkpt lat="45.7508763" lon="11.2964273"><ele>804.0</ele><time>2026-04-12T11:20:48.741Z</time></trkpt><trkpt lat="45.7507889" lon="11.2964916"><ele>804.0</ele><time>2026-04-12T11:20:51.74Z</time></trkpt><trkpt lat="45.7507078" lon="11.2965401"><ele>804.0</ele><time>2026-04-12T11:20:53.741Z</time></trkpt><trkpt lat="45.7506285" lon="11.2966027"><ele>804.0</ele><time>2026-04-12T11:20:55.741Z</time></trkpt><trkpt lat="45.7505739" lon="11.2966733"><ele>804.0</ele><time>2026-04-12T11:20:57.741Z</time></trkpt><trkpt lat="45.7505158" lon="11.2967544"><ele>804.0</ele><time>2026-04-12T11:20:59.741Z</time></trkpt><trkpt lat="45.7504728" lon="11.2968627"><ele>804.0</ele><time>2026-04-12T11:21:02.74Z</time></trkpt><trkpt lat="45.7504555" lon="11.2969771"><ele>804.0</ele><time>2026-04-12T11:21:05.74Z</time></trkpt><trkpt lat="45.7504313" lon="11.2970691"><ele>804.0</ele><time>2026-04-12T11:21:08.74Z</time></trkpt><trkpt lat="45.7503676" lon="11.2971137"><ele>804.0</ele><time>2026-04-12T11:21:11.741Z</time></trkpt><trkpt lat="45.7502965" lon="11.2971895"><ele>804.0</ele><time>2026-04-12T11:21:14.74Z</time></trkpt><trkpt lat="45.7502388" lon="11.2972474"><ele>804.0</ele><time>2026-04-12T11:21:17.74Z</time></trkpt><trkpt lat="45.7501759" lon="11.2972351"><ele>804.0</ele><time>2026-04-12T11:21:21.74Z</time></trkpt><trkpt lat="45.7501121" lon="11.297171"><ele>804.0</ele><time>2026-04-12T11:21:24.74Z</time></trkpt><trkpt lat="45.7500455" lon="11.2971142"><ele>804.0</ele><time>2026-04-12T11:21:26.74Z</time></trkpt><trkpt lat="45.7499628" lon="11.2970645"><ele>804.0</ele><time>2026-04-12T11:21:28.741Z</time></trkpt><trkpt lat="45.7498983" lon="11.2969846"><ele>800.8333333333334</ele><time>2026-04-12T11:21:30.741Z</time></trkpt><trkpt lat="45.7498466" lon="11.2969274"><ele>797.6666666666667</ele><time>2026-04-12T11:21:32.741Z</time></trkpt><trkpt lat="45.7497951" lon="11.2968702"><ele>794.5</ele><time>2026-04-12T11:21:34.74Z</time></trkpt><trkpt lat="45.7497199" lon="11.296797"><ele>791.3333333333334</ele><time>2026-04-12T11:21:36.74Z</time></trkpt><trkpt lat="45.7496368" lon="11.2967252"><ele>788.1666666666667</ele><time>2026-04-12T11:21:38.74Z</time></trkpt><trkpt lat="45.7495692" lon="11.2966451"><ele>785.0</ele><time>2026-04-12T11:21:40.74Z</time></trkpt><trkpt lat="45.7495198" lon="11.2965273"><ele>784.2</ele><time>2026-04-12T11:21:42.741Z</time></trkpt><trkpt lat="45.7494718" lon="11.2964114"><ele>783.4</ele><time>2026-04-12T11:21:44.74Z</time></trkpt><trkpt lat="45.7494232" lon="11.296318"><ele>782.5999999999999</ele><time>2026-04-12T11:21:46.741Z</time></trkpt><trkpt lat="45.7493707" lon="11.296232"><ele>781.8</ele><time>2026-04-12T11:21:48.74Z</time></trkpt><trkpt lat="45.7492962" lon="11.296135"><ele>781.0</ele><time>2026-04-12T11:21:50.741Z</time></trkpt><trkpt lat="45.7492128" lon="11.2960238"><ele>776.8</ele><time>2026-04-12T11:21:52.741Z</time></trkpt><trkpt lat="45.7491383" lon="11.2959256"><ele>772.5999999999999</ele><time>2026-04-12T11:21:54.74Z</time></trkpt><trkpt lat="45.7490691" lon="11.2958287"><ele>768.4</ele><time>2026-04-12T11:21:56.741Z</time></trkpt><trkpt lat="45.7490124" lon="11.2957471"><ele>764.2</ele><time>2026-04-12T11:21:58.74Z</time></trkpt><trkpt lat="45.7489688" lon="11.2956523"><ele>760.0</ele><time>2026-04-12T11:22:00.74Z</time></trkpt><trkpt lat="45.748917" lon="11.2955317"><ele>759.6666666666667</ele><time>2026-04-12T11:22:17.741Z</time></trkpt><trkpt lat="45.7488469" lon="11.2954644"><ele>759.3333333333334</ele><time>2026-04-12T11:22:19.74Z</time></trkpt><trkpt lat="45.7487213" lon="11.2954157"><ele>759.0</ele><time>2026-04-12T11:22:21.741Z</time></trkpt><trkpt lat="45.7486422" lon="11.2954059"><ele>758.6666666666666</ele><time>2026-04-12T11:22:22.74Z</time></trkpt><trkpt lat="45.7485645" lon="11.2954066"><ele>758.3333333333333</ele><time>2026-04-12T11:22:23.741Z</time></trkpt><trkpt lat="45.7484918" lon="11.2954319"><ele>758.0</ele><time>2026-04-12T11:22:24.74Z</time></trkpt><trkpt lat="45.7484219" lon="11.2954898"><ele>755.2</ele><time>2026-04-12T11:22:25.741Z</time></trkpt><trkpt lat="45.7483579" lon="11.2955762"><ele>752.4</ele><time>2026-04-12T11:22:26.74Z</time></trkpt><trkpt lat="45.748298" lon="11.2956836"><ele>749.6</ele><time>2026-04-12T11:22:27.741Z</time></trkpt><trkpt lat="45.748237" lon="11.2957968"><ele>746.8000000000001</ele><time>2026-04-12T11:22:28.741Z</time></trkpt><trkpt lat="45.7481887" lon="11.2959164"><ele>744.0</ele><time>2026-04-12T11:22:29.741Z</time></trkpt><trkpt lat="45.7481464" lon="11.2960406"><ele>744.0</ele><time>2026-04-12T11:22:30.74Z</time></trkpt><trkpt lat="45.7480994" lon="11.2961696"><ele>744.0</ele><time>2026-04-12T11:22:31.741Z</time></trkpt><trkpt lat="45.7480516" lon="11.2962891"><ele>744.0</ele><time>2026-04-12T11:22:32.741Z</time></trkpt><trkpt lat="45.7479929" lon="11.2963847"><ele>744.0</ele><time>2026-04-12T11:22:33.741Z</time></trkpt><trkpt lat="45.7479152" lon="11.2964525"><ele>744.0</ele><time>2026-04-12T11:22:34.741Z</time></trkpt><trkpt lat="45.7478195" lon="11.2965045"><ele>743.6</ele><time>2026-04-12T11:22:35.74Z</time></trkpt><trkpt lat="45.7477196" lon="11.2965762"><ele>743.2</ele><time>2026-04-12T11:22:36.74Z</time></trkpt><trkpt lat="45.7476267" lon="11.2966436"><ele>742.8000000000001</ele><time>2026-04-12T11:22:37.741Z</time></trkpt><trkpt lat="45.7475475" lon="11.2966528"><ele>742.4000000000001</ele><time>2026-04-12T11:22:38.74Z</time></trkpt><trkpt lat="45.7474629" lon="11.2966543"><ele>742.0</ele><time>2026-04-12T11:22:39.741Z</time></trkpt><trkpt lat="45.747378" lon="11.2966573"><ele>742.0</ele><time>2026-04-12T11:22:40.741Z</time></trkpt><trkpt lat="45.7472821" lon="11.2966544"><ele>742.0</ele><time>2026-04-12T11:22:41.741Z</time></trkpt><trkpt lat="45.7471818" lon="11.2966605"><ele>742.0</ele><time>2026-04-12T11:22:42.741Z</time></trkpt><trkpt lat="45.7470853" lon="11.2966957"><ele>742.0</ele><time>2026-04-12T11:22:43.739Z</time></trkpt><trkpt lat="45.7469895" lon="11.2967601"><ele>742.0</ele><time>2026-04-12T11:22:44.74Z</time></trkpt><trkpt lat="45.7468965" lon="11.2968459"><ele>741.25</ele><time>2026-04-12T11:22:45.739Z</time></trkpt><trkpt lat="45.7468067" lon="11.2969487"><ele>740.5</ele><time>2026-04-12T11:22:46.74Z</time></trkpt><trkpt lat="45.7467135" lon="11.2970644"><ele>739.75</ele><time>2026-04-12T11:22:47.74Z</time></trkpt><trkpt lat="45.7466294" lon="11.2971833"><ele>739.0</ele><time>2026-04-12T11:22:48.74Z</time></trkpt><trkpt lat="45.7465443" lon="11.297293"><ele>739.0</ele><time>2026-04-12T11:22:49.74Z</time></trkpt><trkpt lat="45.7464671" lon="11.2973936"><ele>739.0</ele><time>2026-04-12T11:22:50.739Z</time></trkpt><trkpt lat="45.746396" lon="11.2974831"><ele>739.0</ele><time>2026-04-12T11:22:51.74Z</time></trkpt><trkpt lat="45.7463255" lon="11.2975568"><ele>739.0</ele><time>2026-04-12T11:22:52.74Z</time></trkpt><trkpt lat="45.7462612" lon="11.2976236"><ele>739.0</ele><time>2026-04-12T11:22:53.74Z</time></trkpt><trkpt lat="45.7462037" lon="11.2976705"><ele>739.0</ele><time>2026-04-12T11:22:54.74Z</time></trkpt><trkpt lat="45.7461326" lon="11.2976946"><ele>739.0</ele><time>2026-04-12T11:22:56.74Z</time></trkpt><trkpt lat="45.7461277" lon="11.2975762"><ele>739.0</ele><time>2026-04-12T11:22:59.739Z</time></trkpt><trkpt lat="45.7461791" lon="11.297374"><ele>739.0</ele><time>2026-04-12T11:23:01.74Z</time></trkpt><trkpt lat="45.7462195" lon="11.2972307"><ele>739.0</ele><time>2026-04-12T11:23:02.74Z</time></trkpt><trkpt lat="45.7462561" lon="11.2970894"><ele>739.0</ele><time>2026-04-12T11:23:03.739Z</time></trkpt><trkpt lat="45.7462943" lon="11.2969546"><ele>737.3333333333334</ele><time>2026-04-12T11:23:04.739Z</time></trkpt><trkpt lat="45.7463349" lon="11.2968328"><ele>735.6666666666667</ele><time>2026-04-12T11:23:05.739Z</time></trkpt><trkpt lat="45.7463782" lon="11.2967148"><ele>734.0</ele><time>2026-04-12T11:23:06.739Z</time></trkpt><trkpt lat="45.746417" lon="11.2966024"><ele>732.3333333333334</ele><time>2026-04-12T11:23:07.74Z</time></trkpt><trkpt lat="45.7464543" lon="11.2964962"><ele>730.6666666666666</ele><time>2026-04-12T11:23:08.74Z</time></trkpt><trkpt lat="45.7464923" lon="11.296392"><ele>729.0</ele><time>2026-04-12T11:23:09.739Z</time></trkpt><trkpt lat="45.7465305" lon="11.2962802"><ele>728.0</ele><time>2026-04-12T11:23:10.74Z</time></trkpt><trkpt lat="45.7465739" lon="11.2961893"><ele>727.0</ele><time>2026-04-12T11:23:11.74Z</time></trkpt><trkpt lat="45.7466297" lon="11.2961126"><ele>726.0</ele><time>2026-04-12T11:23:12.739Z</time></trkpt><trkpt lat="45.7467051" lon="11.296053"><ele>725.0</ele><time>2026-04-12T11:23:13.739Z</time></trkpt><trkpt lat="45.7467927" lon="11.2960034"><ele>724.0</ele><time>2026-04-12T11:23:14.74Z</time></trkpt><trkpt lat="45.7468886" lon="11.295973"><ele>723.0</ele><time>2026-04-12T11:23:15.739Z</time></trkpt><trkpt lat="45.7469854" lon="11.2959705"><ele>723.0</ele><time>2026-04-12T11:23:16.739Z</time></trkpt><trkpt lat="45.74709" lon="11.2959954"><ele>723.0</ele><time>2026-04-12T11:23:17.739Z</time></trkpt><trkpt lat="45.7471935" lon="11.2960302"><ele>723.0</ele><time>2026-04-12T11:23:18.739Z</time></trkpt><trkpt lat="45.7472886" lon="11.2960687"><ele>723.0</ele><time>2026-04-12T11:23:19.739Z</time></trkpt><trkpt lat="45.7473704" lon="11.296112"><ele>723.0</ele><time>2026-04-12T11:23:20.74Z</time></trkpt><trkpt lat="45.7474449" lon="11.296152"><ele>723.0</ele><time>2026-04-12T11:23:21.739Z</time></trkpt><trkpt lat="45.7475161" lon="11.2961823"><ele>723.0</ele><time>2026-04-12T11:23:22.74Z</time></trkpt><trkpt lat="45.7475846" lon="11.2962013"><ele>723.0</ele><time>2026-04-12T11:23:23.74Z</time></trkpt><trkpt lat="45.747688" lon="11.2961497"><ele>723.0</ele><time>2026-04-12T11:23:25.739Z</time></trkpt><trkpt lat="45.7476986" lon="11.2960519"><ele>723.0</ele><time>2026-04-12T11:23:26.74Z</time></trkpt><trkpt lat="45.7476982" lon="11.2959484"><ele>723.0</ele><time>2026-04-12T11:23:27.739Z</time></trkpt><trkpt lat="45.7476867" lon="11.2958522"><ele>723.0000000000001</ele><time>2026-04-12T11:23:28.74Z</time></trkpt><trkpt lat="45.7476483" lon="11.2957542"><ele>723.0</ele><time>2026-04-12T11:23:29.739Z</time></trkpt><trkpt lat="45.7476134" lon="11.2956706"><ele>723.0</ele><time>2026-04-12T11:23:30.74Z</time></trkpt><trkpt lat="45.7475702" lon="11.2955694"><ele>723.0</ele><time>2026-04-12T11:23:32.739Z</time></trkpt><trkpt lat="45.7475399" lon="11.2954858"><ele>723.0</ele><time>2026-04-12T11:23:38.739Z</time></trkpt><trkpt lat="45.7475675" lon="11.2953971"><ele>723.0000000000001</ele><time>2026-04-12T11:24:06.74Z</time></trkpt><trkpt lat="45.7475905" lon="11.2953093"><ele>723.0</ele><time>2026-04-12T11:24:10.74Z</time></trkpt><trkpt lat="45.7475536" lon="11.2953992"><ele>723.0</ele><time>2026-04-12T11:24:44.739Z</time></trkpt><trkpt lat="45.7475588" lon="11.2955062"><ele>723.0</ele><time>2026-04-12T11:24:45.739Z</time></trkpt><trkpt lat="45.7475737" lon="11.2956134"><ele>723.0</ele><time>2026-04-12T11:24:46.74Z</time></trkpt><trkpt lat="45.7476101" lon="11.2957338"><ele>723.0</ele><time>2026-04-12T11:24:47.74Z</time></trkpt><trkpt lat="45.7476428" lon="11.2958456"><ele>723.0</ele><time>2026-04-12T11:24:48.74Z</time></trkpt><trkpt lat="45.7476705" lon="11.2959535"><ele>723.0</ele><time>2026-04-12T11:24:49.739Z</time></trkpt><trkpt lat="45.7476889" lon="11.2960434"><ele>723.0</ele><time>2026-04-12T11:24:50.74Z</time></trkpt><trkpt lat="45.747663" lon="11.2961596"><ele>723.0</ele><time>2026-04-12T11:24:52.74Z</time></trkpt><trkpt lat="45.7475315" lon="11.2961787"><ele>723.0</ele><time>2026-04-12T11:24:54.74Z</time></trkpt><trkpt lat="45.7474593" lon="11.2961487"><ele>723.0</ele><time>2026-04-12T11:24:55.74Z</time></trkpt><trkpt lat="45.747385" lon="11.2961094"><ele>723.0</ele><time>2026-04-12T11:24:56.74Z</time></trkpt><trkpt lat="45.7473024" lon="11.2960635"><ele>723.0</ele><time>2026-04-12T11:24:57.739Z</time></trkpt><trkpt lat="45.7472038" lon="11.2960206"><ele>723.0</ele><time>2026-04-12T11:24:58.739Z</time></trkpt><trkpt lat="45.7470946" lon="11.2959822"><ele>723.0</ele><time>2026-04-12T11:24:59.74Z</time></trkpt><trkpt lat="45.7469896" lon="11.2959643"><ele>723.0</ele><time>2026-04-12T11:25:00.74Z</time></trkpt><trkpt lat="45.7468924" lon="11.2959705"><ele>723.0</ele><time>2026-04-12T11:25:01.74Z</time></trkpt><trkpt lat="45.7467977" lon="11.2959937"><ele>721.5</ele><time>2026-04-12T11:25:02.739Z</time></trkpt><trkpt lat="45.7467055" lon="11.2960266"><ele>720.0</ele><time>2026-04-12T11:25:03.74Z</time></trkpt><trkpt lat="45.7466232" lon="11.2960615"><ele>718.5</ele><time>2026-04-12T11:25:04.74Z</time></trkpt><trkpt lat="45.7465599" lon="11.2961166"><ele>717.0</ele><time>2026-04-12T11:25:05.74Z</time></trkpt><trkpt lat="45.7465133" lon="11.2961831"><ele>715.5</ele><time>2026-04-12T11:25:06.739Z</time></trkpt><trkpt lat="45.7464785" lon="11.2962679"><ele>714.0</ele><time>2026-04-12T11:25:07.74Z</time></trkpt><trkpt lat="45.746452" lon="11.2963613"><ele>714.0</ele><time>2026-04-12T11:25:08.74Z</time></trkpt><trkpt lat="45.7464294" lon="11.2965085"><ele>714.0</ele><time>2026-04-12T11:25:10.74Z</time></trkpt><trkpt lat="45.7464166" lon="11.2966146"><ele>714.0</ele><time>2026-04-12T11:25:13.74Z</time></trkpt><trkpt lat="45.7463446" lon="11.2966252"><ele>714.0</ele><time>2026-04-12T11:25:17.74Z</time></trkpt><trkpt lat="45.7464" lon="11.2965789"><ele>714.0</ele><time>2026-04-12T11:25:35.739Z</time></trkpt><trkpt lat="45.7464308" lon="11.296491"><ele>714.0</ele><time>2026-04-12T11:25:37.74Z</time></trkpt><trkpt lat="45.7464559" lon="11.296388"><ele>714.0</ele><time>2026-04-12T11:25:39.739Z</time></trkpt><trkpt lat="45.7464706" lon="11.2962903"><ele>714.0</ele><time>2026-04-12T11:25:41.74Z</time></trkpt><trkpt lat="45.7465151" lon="11.2961826"><ele>714.0</ele><time>2026-04-12T11:25:44.739Z</time></trkpt><trkpt lat="45.746574" lon="11.2961186"><ele>714.0</ele><time>2026-04-12T11:25:46.74Z</time></trkpt><trkpt lat="45.7466286" lon="11.2960636"><ele>714.0</ele><time>2026-04-12T11:25:48.739Z</time></trkpt><trkpt lat="45.7466865" lon="11.2960265"><ele>714.0</ele><time>2026-04-12T11:25:50.739Z</time></trkpt><trkpt lat="45.7467463" lon="11.2959944"><ele>714.0</ele><time>2026-04-12T11:25:52.739Z</time></trkpt><trkpt lat="45.7468192" lon="11.2959577"><ele>715.2857142857143</ele><time>2026-04-12T11:25:54.739Z</time></trkpt><trkpt lat="45.7468926" lon="11.2959233"><ele>716.5714285714286</ele><time>2026-04-12T11:25:56.739Z</time></trkpt><trkpt lat="45.7469544" lon="11.2959032"><ele>717.8571428571429</ele><time>2026-04-12T11:25:58.74Z</time></trkpt><trkpt lat="45.7470205" lon="11.2958897"><ele>719.1428571428571</ele><time>2026-04-12T11:26:00.739Z</time></trkpt><trkpt lat="45.747085" lon="11.2958874"><ele>720.4285714285714</ele><time>2026-04-12T11:26:02.74Z</time></trkpt><trkpt lat="45.7471506" lon="11.2958979"><ele>721.7142857142858</ele><time>2026-04-12T11:26:04.74Z</time></trkpt><trkpt lat="45.747216" lon="11.2959251"><ele>723.0</ele><time>2026-04-12T11:26:06.739Z</time></trkpt><trkpt lat="45.7472866" lon="11.2959515"><ele>723.0</ele><time>2026-04-12T11:26:08.739Z</time></trkpt><trkpt lat="45.7473571" lon="11.2959277"><ele>723.0</ele><time>2026-04-12T11:26:10.739Z</time></trkpt><trkpt lat="45.747385" lon="11.2958399"><ele>723.0</ele><time>2026-04-12T11:26:14.74Z</time></trkpt><trkpt lat="45.7473519" lon="11.2957578"><ele>723.0</ele><time>2026-04-12T11:26:17.739Z</time></trkpt><trkpt lat="45.7473034" lon="11.2956485"><ele>723.0</ele><time>2026-04-12T11:26:21.74Z</time></trkpt><trkpt lat="45.7472579" lon="11.2955407"><ele>723.0</ele><time>2026-04-12T11:26:24.74Z</time></trkpt><trkpt lat="45.7472217" lon="11.2954334"><ele>720.5</ele><time>2026-04-12T11:26:27.739Z</time></trkpt><trkpt lat="45.7472087" lon="11.2953235"><ele>718.0</ele><time>2026-04-12T11:26:30.739Z</time></trkpt><trkpt lat="45.7471978" lon="11.2952083"><ele>715.5</ele><time>2026-04-12T11:26:33.738Z</time></trkpt><trkpt lat="45.7471682" lon="11.2950854"><ele>713.0</ele><time>2026-04-12T11:26:37.738Z</time></trkpt><trkpt lat="45.7471058" lon="11.2950094"><ele>710.5</ele><time>2026-04-12T11:26:40.739Z</time></trkpt><trkpt lat="45.7470457" lon="11.2949687"><ele>708.0</ele><time>2026-04-12T11:26:42.739Z</time></trkpt><trkpt lat="45.7469853" lon="11.2949318"><ele>708.0</ele><time>2026-04-12T11:26:44.738Z</time></trkpt><trkpt lat="45.7469171" lon="11.2948846"><ele>708.0</ele><time>2026-04-12T11:26:47.739Z</time></trkpt><trkpt lat="45.7468858" lon="11.2948018"><ele>708.0</ele><time>2026-04-12T11:27:11.739Z</time></trkpt><trkpt lat="45.7469064" lon="11.2947082"><ele>708.0</ele><time>2026-04-12T11:27:14.738Z</time></trkpt><trkpt lat="45.7469053" lon="11.2945994"><ele>708.0</ele><time>2026-04-12T11:27:17.738Z</time></trkpt><trkpt lat="45.7468595" lon="11.2944957"><ele>708.0</ele><time>2026-04-12T11:27:20.738Z</time></trkpt><trkpt lat="45.746798" lon="11.2944132"><ele>704.0</ele><time>2026-04-12T11:27:23.739Z</time></trkpt><trkpt lat="45.7467609" lon="11.2943234"><ele>700.0</ele><time>2026-04-12T11:27:26.738Z</time></trkpt><trkpt lat="45.7467124" lon="11.2942356"><ele>696.0</ele><time>2026-04-12T11:27:29.739Z</time></trkpt><trkpt lat="45.7466569" lon="11.2941594"><ele>692.0</ele><time>2026-04-12T11:27:32.739Z</time></trkpt><trkpt lat="45.7466026" lon="11.2940978"><ele>688.0</ele><time>2026-04-12T11:27:35.739Z</time></trkpt><trkpt lat="45.7465429" lon="11.2939767"><ele>684.0</ele><time>2026-04-12T11:27:45.739Z</time></trkpt><trkpt lat="45.7465146" lon="11.2938721"><ele>683.2</ele><time>2026-04-12T11:27:47.739Z</time></trkpt><trkpt lat="45.746484" lon="11.2937508"><ele>682.4000000000001</ele><time>2026-04-12T11:27:49.739Z</time></trkpt><trkpt lat="45.7464407" lon="11.2935998"><ele>681.6</ele><time>2026-04-12T11:27:51.739Z</time></trkpt><trkpt lat="45.746388" lon="11.2934694"><ele>680.8</ele><time>2026-04-12T11:27:53.739Z</time></trkpt><trkpt lat="45.7463236" lon="11.2933207"><ele>680.0</ele><time>2026-04-12T11:27:55.738Z</time></trkpt><trkpt lat="45.7462687" lon="11.293223"><ele>680.0</ele><time>2026-04-12T11:27:57.738Z</time></trkpt><trkpt lat="45.7462348" lon="11.2931411"><ele>680.0</ele><time>2026-04-12T11:27:59.739Z</time></trkpt><trkpt lat="45.7461687" lon="11.2930032"><ele>680.0</ele><time>2026-04-12T11:28:45.738Z</time></trkpt><trkpt lat="45.7461229" lon="11.2929333"><ele>680.0</ele><time>2026-04-12T11:29:26.739Z</time></trkpt><trkpt lat="45.7461187" lon="11.2928383"><ele>680.0</ele><time>2026-04-12T11:29:29.739Z</time></trkpt><trkpt lat="45.7461062" lon="11.2927208"><ele>680.0</ele><time>2026-04-12T11:29:32.739Z</time></trkpt><trkpt lat="45.7461353" lon="11.2928319"><ele>680.0</ele><time>2026-04-12T11:30:11.739Z</time></trkpt><trkpt lat="45.7461692" lon="11.2929518"><ele>680.0</ele><time>2026-04-12T11:30:14.739Z</time></trkpt><trkpt lat="45.7462118" lon="11.2930664"><ele>680.0</ele><time>2026-04-12T11:30:16.737Z</time></trkpt><trkpt lat="45.7462506" lon="11.2931911"><ele>680.0</ele><time>2026-04-12T11:30:18.738Z</time></trkpt><trkpt lat="45.7462749" lon="11.2932753"><ele>680.0</ele><time>2026-04-12T11:30:19.738Z</time></trkpt><trkpt lat="45.7463274" lon="11.2934178"><ele>680.0</ele><time>2026-04-12T11:30:21.738Z</time></trkpt><trkpt lat="45.7463866" lon="11.2935546"><ele>680.0</ele><time>2026-04-12T11:30:23.737Z</time></trkpt><trkpt lat="45.7464443" lon="11.2936769"><ele>680.0</ele><time>2026-04-12T11:30:25.738Z</time></trkpt><trkpt lat="45.7465002" lon="11.2937249"><ele>680.0</ele><time>2026-04-12T11:30:28.738Z</time></trkpt><trkpt lat="45.7464732" lon="11.293629"><ele>680.0</ele><time>2026-04-12T11:31:00.738Z</time></trkpt><trkpt lat="45.7464714" lon="11.2935295"><ele>680.0</ele><time>2026-04-12T11:31:02.738Z</time></trkpt><trkpt lat="45.74647" lon="11.2934095"><ele>680.0</ele><time>2026-04-12T11:31:04.738Z</time></trkpt><trkpt lat="45.7464752" lon="11.2932941"><ele>680.0</ele><time>2026-04-12T11:31:06.737Z</time></trkpt><trkpt lat="45.746473" lon="11.2931703"><ele>680.0</ele><time>2026-04-12T11:31:08.737Z</time></trkpt><trkpt lat="45.7464873" lon="11.2930302"><ele>680.0</ele><time>2026-04-12T11:31:10.737Z</time></trkpt><trkpt lat="45.7465113" lon="11.2929027"><ele>680.0</ele><time>2026-04-12T11:31:12.738Z</time></trkpt><trkpt lat="45.7465221" lon="11.2927843"><ele>680.0</ele><time>2026-04-12T11:31:14.738Z</time></trkpt><trkpt lat="45.746537" lon="11.2926587"><ele>678.1666666666666</ele><time>2026-04-12T11:31:16.737Z</time></trkpt><trkpt lat="45.7465509" lon="11.2925253"><ele>676.3333333333333</ele><time>2026-04-12T11:31:18.737Z</time></trkpt><trkpt lat="45.7465619" lon="11.2924095"><ele>674.5</ele><time>2026-04-12T11:31:20.738Z</time></trkpt><trkpt lat="45.746571" lon="11.2922892"><ele>672.6666666666666</ele><time>2026-04-12T11:31:22.738Z</time></trkpt><trkpt lat="45.7465838" lon="11.2921741"><ele>670.8333333333334</ele><time>2026-04-12T11:31:24.738Z</time></trkpt><trkpt lat="45.7465911" lon="11.292046"><ele>669.0</ele><time>2026-04-12T11:31:26.738Z</time></trkpt><trkpt lat="45.7465995" lon="11.2919435"><ele>667.2</ele><time>2026-04-12T11:31:28.737Z</time></trkpt><trkpt lat="45.7466011" lon="11.2918247"><ele>665.4000000000001</ele><time>2026-04-12T11:31:30.737Z</time></trkpt><trkpt lat="45.7465764" lon="11.2916865"><ele>663.6</ele><time>2026-04-12T11:31:32.737Z</time></trkpt><trkpt lat="45.74653" lon="11.2915425"><ele>661.8</ele><time>2026-04-12T11:31:34.737Z</time></trkpt><trkpt lat="45.7465047" lon="11.2913996"><ele>660.0</ele><time>2026-04-12T11:31:36.738Z</time></trkpt><trkpt lat="45.7464881" lon="11.2913048"><ele>658.8333333333334</ele><time>2026-04-12T11:31:38.737Z</time></trkpt><trkpt lat="45.7464603" lon="11.2911979"><ele>657.6666666666666</ele><time>2026-04-12T11:32:04.737Z</time></trkpt><trkpt lat="45.7464607" lon="11.291074"><ele>656.5</ele><time>2026-04-12T11:32:07.738Z</time></trkpt><trkpt lat="45.7464666" lon="11.2909754"><ele>655.3333333333333</ele><time>2026-04-12T11:32:09.737Z</time></trkpt><trkpt lat="45.7464736" lon="11.290849"><ele>654.1666666666666</ele><time>2026-04-12T11:32:11.738Z</time></trkpt><trkpt lat="45.7464705" lon="11.2907415"><ele>653.0</ele><time>2026-04-12T11:32:13.738Z</time></trkpt><trkpt lat="45.7464732" lon="11.2906325"><ele>651.3333333333333</ele><time>2026-04-12T11:32:16.738Z</time></trkpt><trkpt lat="45.7464653" lon="11.290542"><ele>649.6666666666666</ele><time>2026-04-12T11:32:18.737Z</time></trkpt><trkpt lat="45.7464368" lon="11.2904343"><ele>648.0</ele><time>2026-04-12T11:32:20.738Z</time></trkpt><trkpt lat="45.7464006" lon="11.2903281"><ele>646.3333333333334</ele><time>2026-04-12T11:32:22.737Z</time></trkpt><trkpt lat="45.7463673" lon="11.2902134"><ele>644.6666666666667</ele><time>2026-04-12T11:32:24.738Z</time></trkpt><trkpt lat="45.7463411" lon="11.2900934"><ele>643.0</ele><time>2026-04-12T11:32:26.738Z</time></trkpt><trkpt lat="45.7463161" lon="11.2899956"><ele>643.0</ele><time>2026-04-12T11:32:28.738Z</time></trkpt><trkpt lat="45.7462898" lon="11.2899096"><ele>643.0</ele><time>2026-04-12T11:32:30.737Z</time></trkpt><trkpt lat="45.7462799" lon="11.2898063"><ele>643.0</ele><time>2026-04-12T11:32:32.738Z</time></trkpt><trkpt lat="45.7462673" lon="11.2896902"><ele>643.0</ele><time>2026-04-12T11:32:34.738Z</time></trkpt><trkpt lat="45.7462689" lon="11.2895505"><ele>643.0</ele><time>2026-04-12T11:32:37.738Z</time></trkpt><trkpt lat="45.7462632" lon="11.2894386"><ele>643.0</ele><time>2026-04-12T11:32:39.738Z</time></trkpt><trkpt lat="45.7462605" lon="11.2893457"><ele>641.1666666666667</ele><time>2026-04-12T11:32:41.738Z</time></trkpt><trkpt lat="45.7462525" lon="11.2892152"><ele>639.3333333333334</ele><time>2026-04-12T11:32:44.738Z</time></trkpt><trkpt lat="45.7462537" lon="11.2891195"><ele>637.5</ele><time>2026-04-12T11:32:46.738Z</time></trkpt><trkpt lat="45.7462465" lon="11.2890278"><ele>635.6666666666666</ele><time>2026-04-12T11:32:48.737Z</time></trkpt><trkpt lat="45.7462165" lon="11.2889254"><ele>633.8333333333333</ele><time>2026-04-12T11:32:51.738Z</time></trkpt><trkpt lat="45.7462091" lon="11.288793"><ele>632.0</ele><time>2026-04-12T11:33:01.737Z</time></trkpt><trkpt lat="45.7462166" lon="11.2886966"><ele>630.8000000000001</ele><time>2026-04-12T11:33:03.737Z</time></trkpt><trkpt lat="45.7462282" lon="11.2885791"><ele>629.6</ele><time>2026-04-12T11:33:05.737Z</time></trkpt><trkpt lat="45.7462284" lon="11.288455"><ele>628.4000000000001</ele><time>2026-04-12T11:33:07.738Z</time></trkpt><trkpt lat="45.746216" lon="11.2883188"><ele>627.2</ele><time>2026-04-12T11:33:09.737Z</time></trkpt><trkpt lat="45.7462297" lon="11.2881825"><ele>626.0</ele><time>2026-04-12T11:33:11.737Z</time></trkpt><trkpt lat="45.7462534" lon="11.2880557"><ele>624.3333333333333</ele><time>2026-04-12T11:33:13.737Z</time></trkpt><trkpt lat="45.7462635" lon="11.2879666"><ele>622.6666666666666</ele><time>2026-04-12T11:33:15.738Z</time></trkpt><trkpt lat="45.7462217" lon="11.287846"><ele>621.0</ele><time>2026-04-12T11:33:18.737Z</time></trkpt><trkpt lat="45.7461528" lon="11.2877777"><ele>619.3333333333334</ele><time>2026-04-12T11:33:20.738Z</time></trkpt><trkpt lat="45.7460562" lon="11.2877289"><ele>617.6666666666667</ele><time>2026-04-12T11:33:22.738Z</time></trkpt><trkpt lat="45.7459804" lon="11.2877243"><ele>616.0</ele><time>2026-04-12T11:33:24.738Z</time></trkpt><trkpt lat="45.7459153" lon="11.2877287"><ele>613.8333333333334</ele><time>2026-04-12T11:33:26.738Z</time></trkpt><trkpt lat="45.7458456" lon="11.2877316"><ele>611.6666666666667</ele><time>2026-04-12T11:33:29.738Z</time></trkpt><trkpt lat="45.7458243" lon="11.2876271"><ele>609.5</ele><time>2026-04-12T11:33:33.738Z</time></trkpt><trkpt lat="45.7458128" lon="11.287528"><ele>607.3333333333334</ele><time>2026-04-12T11:33:36.738Z</time></trkpt><trkpt lat="45.7457265" lon="11.2875152"><ele>605.1666666666666</ele><time>2026-04-12T11:33:50.737Z</time></trkpt><trkpt lat="45.7456321" lon="11.2876032"><ele>603.0</ele><time>2026-04-12T11:33:52.738Z</time></trkpt><trkpt lat="45.7455283" lon="11.2876947"><ele>603.0</ele><time>2026-04-12T11:33:54.738Z</time></trkpt><trkpt lat="45.7454644" lon="11.2877437"><ele>603.0</ele><time>2026-04-12T11:33:55.738Z</time></trkpt><trkpt lat="45.7453945" lon="11.2878033"><ele>603.0</ele><time>2026-04-12T11:33:56.737Z</time></trkpt><trkpt lat="45.7453191" lon="11.2878934"><ele>603.0</ele><time>2026-04-12T11:33:57.737Z</time></trkpt><trkpt lat="45.745244" lon="11.2879931"><ele>603.0</ele><time>2026-04-12T11:33:58.737Z</time></trkpt><trkpt lat="45.7451723" lon="11.2880967"><ele>603.3333333333334</ele><time>2026-04-12T11:33:59.737Z</time></trkpt><trkpt lat="45.745108" lon="11.2881998"><ele>603.6666666666666</ele><time>2026-04-12T11:34:00.737Z</time></trkpt><trkpt lat="45.7450523" lon="11.2883019"><ele>604.0</ele><time>2026-04-12T11:34:01.738Z</time></trkpt><trkpt lat="45.7449975" lon="11.2883954"><ele>604.3333333333333</ele><time>2026-04-12T11:34:02.737Z</time></trkpt><trkpt lat="45.7449429" lon="11.2884793"><ele>604.6666666666666</ele><time>2026-04-12T11:34:03.738Z</time></trkpt><trkpt lat="45.7448923" lon="11.2885392"><ele>605.0</ele><time>2026-04-12T11:34:04.737Z</time></trkpt><trkpt lat="45.7447719" lon="11.2886067"><ele>605.0</ele><time>2026-04-12T11:34:06.738Z</time></trkpt><trkpt lat="45.7446968" lon="11.2886116"><ele>605.0</ele><time>2026-04-12T11:34:07.738Z</time></trkpt><trkpt lat="45.7446219" lon="11.2885991"><ele>605.0</ele><time>2026-04-12T11:34:08.737Z</time></trkpt><trkpt lat="45.7445466" lon="11.2885877"><ele>605.0</ele><time>2026-04-12T11:34:09.737Z</time></trkpt><trkpt lat="45.7444724" lon="11.2885576"><ele>605.0</ele><time>2026-04-12T11:34:10.737Z</time></trkpt><trkpt lat="45.7444378" lon="11.2884576"><ele>605.0</ele><time>2026-04-12T11:34:11.738Z</time></trkpt><trkpt lat="45.7444125" lon="11.2883343"><ele>605.0</ele><time>2026-04-12T11:34:12.738Z</time></trkpt><trkpt lat="45.7443865" lon="11.288216"><ele>605.0</ele><time>2026-04-12T11:34:13.737Z</time></trkpt><trkpt lat="45.7443509" lon="11.2881132"><ele>605.0</ele><time>2026-04-12T11:34:14.738Z</time></trkpt><trkpt lat="45.7442914" lon="11.2880289"><ele>605.0</ele><time>2026-04-12T11:34:15.736Z</time></trkpt><trkpt lat="45.7442226" lon="11.2879666"><ele>605.0</ele><time>2026-04-12T11:34:16.736Z</time></trkpt><trkpt lat="45.7441486" lon="11.2879181"><ele>605.0</ele><time>2026-04-12T11:34:17.736Z</time></trkpt><trkpt lat="45.7440848" lon="11.2878762"><ele>603.8</ele><time>2026-04-12T11:34:18.736Z</time></trkpt><trkpt lat="45.7440317" lon="11.2878216"><ele>602.6</ele><time>2026-04-12T11:34:19.737Z</time></trkpt><trkpt lat="45.7439678" lon="11.2876988"><ele>601.4</ele><time>2026-04-12T11:34:21.736Z</time></trkpt><trkpt lat="45.7439349" lon="11.2875258"><ele>600.2</ele><time>2026-04-12T11:34:23.737Z</time></trkpt><trkpt lat="45.7439003" lon="11.2874354"><ele>599.0</ele><time>2026-04-12T11:34:24.737Z</time></trkpt><trkpt lat="45.7438519" lon="11.2873349"><ele>596.0</ele><time>2026-04-12T11:34:25.737Z</time></trkpt><trkpt lat="45.7437963" lon="11.2872342"><ele>593.0</ele><time>2026-04-12T11:34:26.737Z</time></trkpt><trkpt lat="45.7437334" lon="11.2871303"><ele>590.0</ele><time>2026-04-12T11:34:27.736Z</time></trkpt><trkpt lat="45.7436868" lon="11.2870185"><ele>587.0</ele><time>2026-04-12T11:34:28.737Z</time></trkpt><trkpt lat="45.7436361" lon="11.286907"><ele>584.0</ele><time>2026-04-12T11:34:29.737Z</time></trkpt><trkpt lat="45.7435707" lon="11.2868137"><ele>587.6</ele><time>2026-04-12T11:34:30.736Z</time></trkpt><trkpt lat="45.7434795" lon="11.2867515"><ele>591.2</ele><time>2026-04-12T11:34:31.736Z</time></trkpt><trkpt lat="45.7433733" lon="11.2867018"><ele>594.8000000000001</ele><time>2026-04-12T11:34:32.737Z</time></trkpt><trkpt lat="45.7432649" lon="11.2866617"><ele>598.4</ele><time>2026-04-12T11:34:33.737Z</time></trkpt><trkpt lat="45.7431856" lon="11.2866103"><ele>602.0</ele><time>2026-04-12T11:34:34.737Z</time></trkpt><trkpt lat="45.7431233" lon="11.2865423"><ele>602.0</ele><time>2026-04-12T11:34:35.736Z</time></trkpt><trkpt lat="45.7430499" lon="11.2864516"><ele>602.0</ele><time>2026-04-12T11:34:36.737Z</time></trkpt><trkpt lat="45.7429816" lon="11.2863342"><ele>602.0</ele><time>2026-04-12T11:34:37.737Z</time></trkpt><trkpt lat="45.7429351" lon="11.2862001"><ele>602.0</ele><time>2026-04-12T11:34:38.737Z</time></trkpt><trkpt lat="45.7428881" lon="11.2860683"><ele>602.0</ele><time>2026-04-12T11:34:39.736Z</time></trkpt><trkpt lat="45.7428413" lon="11.285926"><ele>601.8000000000001</ele><time>2026-04-12T11:34:40.737Z</time></trkpt><trkpt lat="45.7427907" lon="11.2857866"><ele>601.6</ele><time>2026-04-12T11:34:41.737Z</time></trkpt><trkpt lat="45.7427489" lon="11.2856581"><ele>601.4000000000001</ele><time>2026-04-12T11:34:42.737Z</time></trkpt><trkpt lat="45.7427163" lon="11.2855358"><ele>601.2</ele><time>2026-04-12T11:34:43.736Z</time></trkpt><trkpt lat="45.7426809" lon="11.2854139"><ele>601.0</ele><time>2026-04-12T11:34:44.736Z</time></trkpt><trkpt lat="45.7426612" lon="11.285288"><ele>601.0</ele><time>2026-04-12T11:34:45.736Z</time></trkpt><trkpt lat="45.7426459" lon="11.2851584"><ele>601.0</ele><time>2026-04-12T11:34:46.736Z</time></trkpt><trkpt lat="45.7426257" lon="11.2850321"><ele>601.0</ele><time>2026-04-12T11:34:47.737Z</time></trkpt><trkpt lat="45.7426007" lon="11.2849144"><ele>601.0</ele><time>2026-04-12T11:34:48.737Z</time></trkpt><trkpt lat="45.7425589" lon="11.2848027"><ele>601.0</ele><time>2026-04-12T11:34:49.736Z</time></trkpt><trkpt lat="45.7425057" lon="11.2847005"><ele>601.0</ele><time>2026-04-12T11:34:50.737Z</time></trkpt><trkpt lat="45.742422" lon="11.2846324"><ele>594.5</ele><time>2026-04-12T11:34:51.737Z</time></trkpt><trkpt lat="45.7423204" lon="11.284576"><ele>588.0</ele><time>2026-04-12T11:34:52.736Z</time></trkpt><trkpt lat="45.7422154" lon="11.2845183"><ele>581.5</ele><time>2026-04-12T11:34:53.737Z</time></trkpt><trkpt lat="45.7421084" lon="11.2844634"><ele>575.0</ele><time>2026-04-12T11:34:54.737Z</time></trkpt><trkpt lat="45.7420015" lon="11.284394"><ele>575.0</ele><time>2026-04-12T11:34:55.737Z</time></trkpt><trkpt lat="45.7418931" lon="11.2843154"><ele>575.0</ele><time>2026-04-12T11:34:56.737Z</time></trkpt><trkpt lat="45.741797" lon="11.2842359"><ele>575.0</ele><time>2026-04-12T11:34:57.737Z</time></trkpt><trkpt lat="45.7416892" lon="11.2841697"><ele>575.0</ele><time>2026-04-12T11:34:58.736Z</time></trkpt><trkpt lat="45.7415782" lon="11.2841241"><ele>573.2</ele><time>2026-04-12T11:34:59.737Z</time></trkpt><trkpt lat="45.7414673" lon="11.2840878"><ele>571.4</ele><time>2026-04-12T11:35:00.737Z</time></trkpt><trkpt lat="45.7413694" lon="11.2840445"><ele>569.6</ele><time>2026-04-12T11:35:01.736Z</time></trkpt><trkpt lat="45.7412789" lon="11.2839978"><ele>567.8</ele><time>2026-04-12T11:35:02.737Z</time></trkpt><trkpt lat="45.7411854" lon="11.2839329"><ele>566.0</ele><time>2026-04-12T11:35:03.737Z</time></trkpt><trkpt lat="45.7410986" lon="11.2838634"><ele>568.2</ele><time>2026-04-12T11:35:04.737Z</time></trkpt><trkpt lat="45.7410111" lon="11.283814"><ele>570.4000000000001</ele><time>2026-04-12T11:35:05.737Z</time></trkpt><trkpt lat="45.7409239" lon="11.2837773"><ele>572.6</ele><time>2026-04-12T11:35:06.737Z</time></trkpt><trkpt lat="45.7408237" lon="11.2837558"><ele>574.8000000000001</ele><time>2026-04-12T11:35:07.736Z</time></trkpt><trkpt lat="45.7407174" lon="11.2837554"><ele>577.0</ele><time>2026-04-12T11:35:08.737Z</time></trkpt><trkpt lat="45.7406054" lon="11.283768"><ele>577.0</ele><time>2026-04-12T11:35:09.737Z</time></trkpt><trkpt lat="45.7404918" lon="11.2837695"><ele>577.0</ele><time>2026-04-12T11:35:10.736Z</time></trkpt><trkpt lat="45.7403706" lon="11.2837669"><ele>577.0</ele><time>2026-04-12T11:35:11.736Z</time></trkpt><trkpt lat="45.7402466" lon="11.2837587"><ele>577.0</ele><time>2026-04-12T11:35:12.736Z</time></trkpt><trkpt lat="45.7401252" lon="11.2837453"><ele>577.5</ele><time>2026-04-12T11:35:13.737Z</time></trkpt><trkpt lat="45.7400134" lon="11.2837178"><ele>578.0</ele><time>2026-04-12T11:35:14.737Z</time></trkpt><trkpt lat="45.739895" lon="11.283693"><ele>578.5</ele><time>2026-04-12T11:35:15.736Z</time></trkpt><trkpt lat="45.7397804" lon="11.2836889"><ele>579.0</ele><time>2026-04-12T11:35:16.737Z</time></trkpt><trkpt lat="45.7396739" lon="11.2836953"><ele>579.0</ele><time>2026-04-12T11:35:17.737Z</time></trkpt><trkpt lat="45.7395737" lon="11.2837082"><ele>579.0</ele><time>2026-04-12T11:35:18.737Z</time></trkpt><trkpt lat="45.7394864" lon="11.2837162"><ele>579.0</ele><time>2026-04-12T11:35:19.736Z</time></trkpt><trkpt lat="45.7394159" lon="11.2837159"><ele>579.0</ele><time>2026-04-12T11:35:20.737Z</time></trkpt><trkpt lat="45.7393552" lon="11.2836862"><ele>579.0</ele><time>2026-04-12T11:35:21.737Z</time></trkpt><trkpt lat="45.7392863" lon="11.2835598"><ele>579.0</ele><time>2026-04-12T11:35:23.737Z</time></trkpt><trkpt lat="45.7392476" lon="11.2833948"><ele>578.1666666666666</ele><time>2026-04-12T11:35:25.737Z</time></trkpt><trkpt lat="45.7392265" lon="11.2833031"><ele>577.3333333333334</ele><time>2026-04-12T11:35:26.737Z</time></trkpt><trkpt lat="45.7392047" lon="11.2831994"><ele>576.5</ele><time>2026-04-12T11:35:27.737Z</time></trkpt><trkpt lat="45.7391758" lon="11.2830786"><ele>575.6666666666667</ele><time>2026-04-12T11:35:28.737Z</time></trkpt><trkpt lat="45.7391433" lon="11.2829543"><ele>574.8333333333334</ele><time>2026-04-12T11:35:29.736Z</time></trkpt><trkpt lat="45.7391128" lon="11.282827"><ele>574.0</ele><time>2026-04-12T11:35:30.737Z</time></trkpt><trkpt lat="45.7390648" lon="11.2827073"><ele>574.0</ele><time>2026-04-12T11:35:31.737Z</time></trkpt><trkpt lat="45.7390016" lon="11.2825937"><ele>574.0</ele><time>2026-04-12T11:35:32.736Z</time></trkpt><trkpt lat="45.7389252" lon="11.2824717"><ele>574.0</ele><time>2026-04-12T11:35:33.737Z</time></trkpt><trkpt lat="45.7388561" lon="11.2823561"><ele>574.0</ele><time>2026-04-12T11:35:34.737Z</time></trkpt><trkpt lat="45.7387752" lon="11.2822427"><ele>574.0</ele><time>2026-04-12T11:35:35.737Z</time></trkpt><trkpt lat="45.7386894" lon="11.2821364"><ele>573.8333333333334</ele><time>2026-04-12T11:35:36.737Z</time></trkpt><trkpt lat="45.738621" lon="11.2820383"><ele>573.6666666666667</ele><time>2026-04-12T11:35:37.736Z</time></trkpt><trkpt lat="45.7385605" lon="11.2819545"><ele>573.5</ele><time>2026-04-12T11:35:38.737Z</time></trkpt><trkpt lat="45.7384999" lon="11.281883"><ele>573.3333333333334</ele><time>2026-04-12T11:35:39.736Z</time></trkpt><trkpt lat="45.7384411" lon="11.2818269"><ele>573.1666666666666</ele><time>2026-04-12T11:35:40.736Z</time></trkpt><trkpt lat="45.7385229" lon="11.2817838"><ele>573.0</ele><time>2026-04-12T11:35:44.737Z</time></trkpt><trkpt lat="45.7385882" lon="11.2818307"><ele>568.5</ele><time>2026-04-12T11:35:45.737Z</time></trkpt><trkpt lat="45.7386614" lon="11.2818986"><ele>564.0</ele><time>2026-04-12T11:35:46.736Z</time></trkpt><trkpt lat="45.7387529" lon="11.2819807"><ele>559.5</ele><time>2026-04-12T11:35:47.737Z</time></trkpt><trkpt lat="45.7388647" lon="11.2820684"><ele>555.0</ele><time>2026-04-12T11:35:48.736Z</time></trkpt><trkpt lat="45.7389772" lon="11.2821541"><ele>555.0</ele><time>2026-04-12T11:35:49.736Z</time></trkpt><trkpt lat="45.7390886" lon="11.2822361"><ele>555.0</ele><time>2026-04-12T11:35:50.736Z</time></trkpt><trkpt lat="45.7391866" lon="11.2823151"><ele>555.0</ele><time>2026-04-12T11:35:51.737Z</time></trkpt><trkpt lat="45.7392643" lon="11.2823952"><ele>555.0</ele><time>2026-04-12T11:35:52.737Z</time></trkpt><trkpt lat="45.7393172" lon="11.2824812"><ele>555.0</ele><time>2026-04-12T11:35:53.736Z</time></trkpt><trkpt lat="45.7393571" lon="11.2825884"><ele>554.5</ele><time>2026-04-12T11:35:54.737Z</time></trkpt><trkpt lat="45.7393881" lon="11.2826953"><ele>554.0</ele><time>2026-04-12T11:35:55.736Z</time></trkpt><trkpt lat="45.7394288" lon="11.2827831"><ele>553.5</ele><time>2026-04-12T11:35:56.736Z</time></trkpt><trkpt lat="45.7394984" lon="11.282813"><ele>553.0</ele><time>2026-04-12T11:35:58.737Z</time></trkpt><trkpt lat="45.7395166" lon="11.2827122"><ele>552.5</ele><time>2026-04-12T11:36:00.736Z</time></trkpt><trkpt lat="45.7394874" lon="11.2826267"><ele>552.0</ele><time>2026-04-12T11:36:01.737Z</time></trkpt><trkpt lat="45.739425" lon="11.2825045"><ele>552.75</ele><time>2026-04-12T11:36:02.736Z</time></trkpt><trkpt lat="45.7393516" lon="11.2823719"><ele>553.5</ele><time>2026-04-12T11:36:03.736Z</time></trkpt><trkpt lat="45.7392738" lon="11.2822258"><ele>554.25</ele><time>2026-04-12T11:36:04.736Z</time></trkpt><trkpt lat="45.7391983" lon="11.2820645"><ele>555.0</ele><time>2026-04-12T11:36:05.737Z</time></trkpt><trkpt lat="45.7391411" lon="11.2818916"><ele>555.0</ele><time>2026-04-12T11:36:06.737Z</time></trkpt><trkpt lat="45.7390932" lon="11.2817181"><ele>555.0</ele><time>2026-04-12T11:36:07.737Z</time></trkpt><trkpt lat="45.7390462" lon="11.2815411"><ele>555.0</ele><time>2026-04-12T11:36:08.737Z</time></trkpt><trkpt lat="45.7389925" lon="11.2813874"><ele>555.0</ele><time>2026-04-12T11:36:09.737Z</time></trkpt><trkpt lat="45.7389428" lon="11.2812317"><ele>554.0</ele><time>2026-04-12T11:36:10.737Z</time></trkpt><trkpt lat="45.7388845" lon="11.2811077"><ele>553.0</ele><time>2026-04-12T11:36:11.737Z</time></trkpt><trkpt lat="45.7388066" lon="11.2810189"><ele>552.0</ele><time>2026-04-12T11:36:12.737Z</time></trkpt><trkpt lat="45.7387081" lon="11.2809461"><ele>551.0</ele><time>2026-04-12T11:36:13.737Z</time></trkpt><trkpt lat="45.7385942" lon="11.2809039"><ele>550.0</ele><time>2026-04-12T11:36:14.737Z</time></trkpt><trkpt lat="45.738477" lon="11.2808655"><ele>550.0</ele><time>2026-04-12T11:36:15.737Z</time></trkpt><trkpt lat="45.7383541" lon="11.2808031"><ele>550.0</ele><time>2026-04-12T11:36:16.736Z</time></trkpt><trkpt lat="45.738245" lon="11.2807064"><ele>550.0</ele><time>2026-04-12T11:36:17.737Z</time></trkpt><trkpt lat="45.7381362" lon="11.2806046"><ele>550.0</ele><time>2026-04-12T11:36:18.737Z</time></trkpt><trkpt lat="45.7380218" lon="11.2805147"><ele>544.5</ele><time>2026-04-12T11:36:19.736Z</time></trkpt><trkpt lat="45.7379145" lon="11.2804437"><ele>539.0</ele><time>2026-04-12T11:36:20.736Z</time></trkpt><trkpt lat="45.7378104" lon="11.2803794"><ele>533.5</ele><time>2026-04-12T11:36:21.736Z</time></trkpt><trkpt lat="45.737707" lon="11.2803116"><ele>528.0</ele><time>2026-04-12T11:36:22.736Z</time></trkpt><trkpt lat="45.7375947" lon="11.2802545"><ele>528.0</ele><time>2026-04-12T11:36:23.736Z</time></trkpt><trkpt lat="45.7374782" lon="11.2802164"><ele>528.0</ele><time>2026-04-12T11:36:24.737Z</time></trkpt><trkpt lat="45.7373607" lon="11.2801909"><ele>528.0</ele><time>2026-04-12T11:36:25.736Z</time></trkpt><trkpt lat="45.7372498" lon="11.2801783"><ele>528.0</ele><time>2026-04-12T11:36:26.737Z</time></trkpt><trkpt lat="45.7371398" lon="11.2801795"><ele>528.0</ele><time>2026-04-12T11:36:27.736Z</time></trkpt><trkpt lat="45.7370363" lon="11.2801961"><ele>528.0</ele><time>2026-04-12T11:36:28.737Z</time></trkpt><trkpt lat="45.7369345" lon="11.280225"><ele>528.0</ele><time>2026-04-12T11:36:29.737Z</time></trkpt><trkpt lat="45.7368246" lon="11.2802717"><ele>528.0</ele><time>2026-04-12T11:36:30.737Z</time></trkpt><trkpt lat="45.7367227" lon="11.2803375"><ele>528.0</ele><time>2026-04-12T11:36:31.737Z</time></trkpt><trkpt lat="45.7366201" lon="11.2804115"><ele>526.6</ele><time>2026-04-12T11:36:32.737Z</time></trkpt><trkpt lat="45.736518" lon="11.2804833"><ele>525.1999999999999</ele><time>2026-04-12T11:36:33.736Z</time></trkpt><trkpt lat="45.7364216" lon="11.2805497"><ele>523.8</ele><time>2026-04-12T11:36:34.736Z</time></trkpt><trkpt lat="45.7363335" lon="11.2806079"><ele>522.4</ele><time>2026-04-12T11:36:35.736Z</time></trkpt><trkpt lat="45.7362461" lon="11.2806829"><ele>521.0</ele><time>2026-04-12T11:36:36.736Z</time></trkpt><trkpt lat="45.7361569" lon="11.2807697"><ele>520.0</ele><time>2026-04-12T11:36:37.737Z</time></trkpt><trkpt lat="45.7360812" lon="11.2808539"><ele>519.0</ele><time>2026-04-12T11:36:38.737Z</time></trkpt><trkpt lat="45.7360207" lon="11.2809411"><ele>518.0</ele><time>2026-04-12T11:36:39.737Z</time></trkpt><trkpt lat="45.7359642" lon="11.2810223"><ele>517.0</ele><time>2026-04-12T11:36:40.737Z</time></trkpt><trkpt lat="45.7359175" lon="11.2811089"><ele>516.0</ele><time>2026-04-12T11:36:41.737Z</time></trkpt><trkpt lat="45.7358738" lon="11.2812325"><ele>515.0</ele><time>2026-04-12T11:36:42.736Z</time></trkpt><trkpt lat="45.7358321" lon="11.2813514"><ele>517.4</ele><time>2026-04-12T11:36:43.736Z</time></trkpt><trkpt lat="45.7357838" lon="11.2814556"><ele>519.8</ele><time>2026-04-12T11:36:44.737Z</time></trkpt><trkpt lat="45.7357114" lon="11.2815471"><ele>522.2</ele><time>2026-04-12T11:36:45.736Z</time></trkpt><trkpt lat="45.7356357" lon="11.2816414"><ele>524.6</ele><time>2026-04-12T11:36:46.737Z</time></trkpt><trkpt lat="45.7355512" lon="11.2817373"><ele>527.0</ele><time>2026-04-12T11:36:47.736Z</time></trkpt><trkpt lat="45.7354701" lon="11.2818381"><ele>527.0</ele><time>2026-04-12T11:36:48.736Z</time></trkpt><trkpt lat="45.7353857" lon="11.2819213"><ele>527.0</ele><time>2026-04-12T11:36:49.737Z</time></trkpt><trkpt lat="45.7352898" lon="11.2819924"><ele>527.0</ele><time>2026-04-12T11:36:50.736Z</time></trkpt><trkpt lat="45.7351856" lon="11.2820488"><ele>527.0</ele><time>2026-04-12T11:36:51.736Z</time></trkpt><trkpt lat="45.7350744" lon="11.2821137"><ele>527.0</ele><time>2026-04-12T11:36:52.737Z</time></trkpt><trkpt lat="45.7349666" lon="11.2821771"><ele>526.5</ele><time>2026-04-12T11:36:53.736Z</time></trkpt><trkpt lat="45.734846" lon="11.2822358"><ele>526.0</ele><time>2026-04-12T11:36:54.736Z</time></trkpt><trkpt lat="45.7347145" lon="11.2822895"><ele>525.5</ele><time>2026-04-12T11:36:55.736Z</time></trkpt><trkpt lat="45.7345891" lon="11.2823478"><ele>525.0</ele><time>2026-04-12T11:36:56.736Z</time></trkpt><trkpt lat="45.734464" lon="11.2824039"><ele>522.6</ele><time>2026-04-12T11:36:57.737Z</time></trkpt><trkpt lat="45.7343508" lon="11.2824489"><ele>520.2</ele><time>2026-04-12T11:36:58.737Z</time></trkpt><trkpt lat="45.7342376" lon="11.2824986"><ele>517.8</ele><time>2026-04-12T11:36:59.737Z</time></trkpt><trkpt lat="45.7341308" lon="11.2825201"><ele>515.4</ele><time>2026-04-12T11:37:00.736Z</time></trkpt><trkpt lat="45.7340356" lon="11.2825274"><ele>513.0</ele><time>2026-04-12T11:37:01.737Z</time></trkpt><trkpt lat="45.7339549" lon="11.2824966"><ele>513.0</ele><time>2026-04-12T11:37:02.737Z</time></trkpt><trkpt lat="45.7338678" lon="11.2824348"><ele>513.0</ele><time>2026-04-12T11:37:03.736Z</time></trkpt><trkpt lat="45.7337869" lon="11.2823722"><ele>513.0</ele><time>2026-04-12T11:37:04.737Z</time></trkpt><trkpt lat="45.7336968" lon="11.2823181"><ele>513.0</ele><time>2026-04-12T11:37:05.737Z</time></trkpt><trkpt lat="45.7336097" lon="11.2822845"><ele>513.0</ele><time>2026-04-12T11:37:06.737Z</time></trkpt><trkpt lat="45.7335168" lon="11.2822743"><ele>510.79999999999995</ele><time>2026-04-12T11:37:07.737Z</time></trkpt><trkpt lat="45.7334169" lon="11.2822833"><ele>508.59999999999997</ele><time>2026-04-12T11:37:08.737Z</time></trkpt><trkpt lat="45.7333165" lon="11.2822979"><ele>506.40000000000003</ele><time>2026-04-12T11:37:09.737Z</time></trkpt><trkpt lat="45.7332107" lon="11.2823212"><ele>504.20000000000005</ele><time>2026-04-12T11:37:10.737Z</time></trkpt><trkpt lat="45.733115" lon="11.2823617"><ele>502.0</ele><time>2026-04-12T11:37:11.737Z</time></trkpt><trkpt lat="45.7330372" lon="11.2824322"><ele>502.0</ele><time>2026-04-12T11:37:12.736Z</time></trkpt><trkpt lat="45.7329711" lon="11.282548"><ele>502.0</ele><time>2026-04-12T11:37:13.737Z</time></trkpt><trkpt lat="45.7329148" lon="11.2827071"><ele>502.0</ele><time>2026-04-12T11:37:14.737Z</time></trkpt><trkpt lat="45.7328616" lon="11.2828798"><ele>502.0</ele><time>2026-04-12T11:37:15.737Z</time></trkpt><trkpt lat="45.7328145" lon="11.2830567"><ele>499.8</ele><time>2026-04-12T11:37:16.737Z</time></trkpt><trkpt lat="45.7327671" lon="11.2832252"><ele>497.6</ele><time>2026-04-12T11:37:17.737Z</time></trkpt><trkpt lat="45.7327218" lon="11.2833904"><ele>495.40000000000003</ele><time>2026-04-12T11:37:18.737Z</time></trkpt><trkpt lat="45.7326737" lon="11.2835269"><ele>493.20000000000005</ele><time>2026-04-12T11:37:19.737Z</time></trkpt><trkpt lat="45.7326296" lon="11.2836425"><ele>491.0</ele><time>2026-04-12T11:37:20.736Z</time></trkpt><trkpt lat="45.7325686" lon="11.2837431"><ele>491.0</ele><time>2026-04-12T11:37:21.736Z</time></trkpt><trkpt lat="45.7324893" lon="11.2838081"><ele>491.0</ele><time>2026-04-12T11:37:22.736Z</time></trkpt><trkpt lat="45.7323979" lon="11.2838338"><ele>491.0</ele><time>2026-04-12T11:37:23.737Z</time></trkpt><trkpt lat="45.7323089" lon="11.2838276"><ele>491.0</ele><time>2026-04-12T11:37:24.737Z</time></trkpt><trkpt lat="45.7322237" lon="11.2837833"><ele>491.0</ele><time>2026-04-12T11:37:25.737Z</time></trkpt><trkpt lat="45.7321419" lon="11.2837245"><ele>490.99999999999994</ele><time>2026-04-12T11:37:26.737Z</time></trkpt><trkpt lat="45.7320673" lon="11.2836863"><ele>491.0</ele><time>2026-04-12T11:37:27.736Z</time></trkpt><trkpt lat="45.7319979" lon="11.2836867"><ele>491.0</ele><time>2026-04-12T11:37:28.737Z</time></trkpt><trkpt lat="45.7319358" lon="11.2837303"><ele>491.0</ele><time>2026-04-12T11:37:29.737Z</time></trkpt><trkpt lat="45.7318833" lon="11.283819"><ele>490.99999999999994</ele><time>2026-04-12T11:37:30.737Z</time></trkpt><trkpt lat="45.7318412" lon="11.2839404"><ele>491.0</ele><time>2026-04-12T11:37:31.737Z</time></trkpt><trkpt lat="45.7317999" lon="11.2840705"><ele>489.4</ele><time>2026-04-12T11:37:32.737Z</time></trkpt><trkpt lat="45.7317434" lon="11.2841737"><ele>487.8</ele><time>2026-04-12T11:37:33.737Z</time></trkpt><trkpt lat="45.7316727" lon="11.2842355"><ele>486.19999999999993</ele><time>2026-04-12T11:37:34.736Z</time></trkpt><trkpt lat="45.7315857" lon="11.2842502"><ele>484.59999999999997</ele><time>2026-04-12T11:37:35.737Z</time></trkpt><trkpt lat="45.7314875" lon="11.2842307"><ele>483.0</ele><time>2026-04-12T11:37:36.737Z</time></trkpt><trkpt lat="45.7313781" lon="11.2842088"><ele>483.0</ele><time>2026-04-12T11:37:37.737Z</time></trkpt><trkpt lat="45.7312728" lon="11.2841936"><ele>482.99999999999994</ele><time>2026-04-12T11:37:38.736Z</time></trkpt><trkpt lat="45.7311669" lon="11.2842014"><ele>482.99999999999994</ele><time>2026-04-12T11:37:39.737Z</time></trkpt><trkpt lat="45.7310694" lon="11.2842353"><ele>483.0</ele><time>2026-04-12T11:37:40.737Z</time></trkpt><trkpt lat="45.7309866" lon="11.2842873"><ele>483.0</ele><time>2026-04-12T11:37:41.736Z</time></trkpt><trkpt lat="45.7309182" lon="11.2843656"><ele>483.75</ele><time>2026-04-12T11:37:42.737Z</time></trkpt><trkpt lat="45.7308584" lon="11.2844899"><ele>484.5</ele><time>2026-04-12T11:37:43.737Z</time></trkpt><trkpt lat="45.7308031" lon="11.284626"><ele>485.25</ele><time>2026-04-12T11:37:44.737Z</time></trkpt><trkpt lat="45.7307305" lon="11.2847602"><ele>486.0</ele><time>2026-04-12T11:37:45.737Z</time></trkpt><trkpt lat="45.7306451" lon="11.2848809"><ele>486.0</ele><time>2026-04-12T11:37:46.737Z</time></trkpt><trkpt lat="45.730552" lon="11.2849838"><ele>486.0</ele><time>2026-04-12T11:37:47.737Z</time></trkpt><trkpt lat="45.7304627" lon="11.2850764"><ele>486.0</ele><time>2026-04-12T11:37:48.737Z</time></trkpt><trkpt lat="45.7303822" lon="11.2851602"><ele>486.0</ele><time>2026-04-12T11:37:49.737Z</time></trkpt><trkpt lat="45.7303219" lon="11.2852531"><ele>486.0</ele><time>2026-04-12T11:37:50.736Z</time></trkpt><trkpt lat="45.7302761" lon="11.2853574"><ele>486.0</ele><time>2026-04-12T11:37:51.736Z</time></trkpt><trkpt lat="45.7302338" lon="11.2854487"><ele>486.0</ele><time>2026-04-12T11:37:52.737Z</time></trkpt><trkpt lat="45.7301855" lon="11.2855215"><ele>486.0</ele><time>2026-04-12T11:37:53.737Z</time></trkpt><trkpt lat="45.7300687" lon="11.2855051"><ele>486.0</ele><time>2026-04-12T11:37:55.737Z</time></trkpt><trkpt lat="45.7299969" lon="11.2854362"><ele>486.0</ele><time>2026-04-12T11:37:56.736Z</time></trkpt><trkpt lat="45.72993" lon="11.2853742"><ele>486.0</ele><time>2026-04-12T11:37:57.736Z</time></trkpt><trkpt lat="45.7298563" lon="11.2853191"><ele>486.6</ele><time>2026-04-12T11:37:58.737Z</time></trkpt><trkpt lat="45.7297772" lon="11.2853163"><ele>487.20000000000005</ele><time>2026-04-12T11:37:59.736Z</time></trkpt><trkpt lat="45.7296994" lon="11.285352"><ele>487.79999999999995</ele><time>2026-04-12T11:38:00.737Z</time></trkpt><trkpt lat="45.7296311" lon="11.2854275"><ele>488.4</ele><time>2026-04-12T11:38:01.736Z</time></trkpt><trkpt lat="45.7295682" lon="11.285536"><ele>489.0</ele><time>2026-04-12T11:38:02.737Z</time></trkpt><trkpt lat="45.7295034" lon="11.2856837"><ele>489.0</ele><time>2026-04-12T11:38:03.736Z</time></trkpt><trkpt lat="45.7294151" lon="11.2858071"><ele>489.0</ele><time>2026-04-12T11:38:04.737Z</time></trkpt><trkpt lat="45.7293245" lon="11.2859015"><ele>489.0</ele><time>2026-04-12T11:38:05.737Z</time></trkpt><trkpt lat="45.7292194" lon="11.2859587"><ele>489.0</ele><time>2026-04-12T11:38:06.737Z</time></trkpt><trkpt lat="45.7291002" lon="11.2859999"><ele>484.0</ele><time>2026-04-12T11:38:07.737Z</time></trkpt><trkpt lat="45.7289837" lon="11.2860577"><ele>479.0</ele><time>2026-04-12T11:38:08.736Z</time></trkpt><trkpt lat="45.7288655" lon="11.2861384"><ele>474.0</ele><time>2026-04-12T11:38:09.736Z</time></trkpt><trkpt lat="45.728749" lon="11.2862275"><ele>469.0</ele><time>2026-04-12T11:38:10.736Z</time></trkpt><trkpt lat="45.7286419" lon="11.2863301"><ele>469.5</ele><time>2026-04-12T11:38:11.737Z</time></trkpt><trkpt lat="45.7285457" lon="11.2864375"><ele>470.0</ele><time>2026-04-12T11:38:12.736Z</time></trkpt><trkpt lat="45.7284522" lon="11.2865434"><ele>470.5</ele><time>2026-04-12T11:38:13.736Z</time></trkpt><trkpt lat="45.7283518" lon="11.2866366"><ele>471.0</ele><time>2026-04-12T11:38:14.736Z</time></trkpt><trkpt lat="45.7282492" lon="11.2867192"><ele>471.0</ele><time>2026-04-12T11:38:15.736Z</time></trkpt><trkpt lat="45.7281494" lon="11.2867809"><ele>471.0</ele><time>2026-04-12T11:38:16.737Z</time></trkpt><trkpt lat="45.7280604" lon="11.2868352"><ele>471.0</ele><time>2026-04-12T11:38:17.736Z</time></trkpt><trkpt lat="45.7279741" lon="11.2868683"><ele>471.0</ele><time>2026-04-12T11:38:18.736Z</time></trkpt><trkpt lat="45.7278932" lon="11.286881"><ele>471.0</ele><time>2026-04-12T11:38:19.736Z</time></trkpt><trkpt lat="45.7278148" lon="11.2868586"><ele>471.0</ele><time>2026-04-12T11:38:20.736Z</time></trkpt><trkpt lat="45.7277511" lon="11.286809"><ele>471.0</ele><time>2026-04-12T11:38:21.736Z</time></trkpt><trkpt lat="45.7277005" lon="11.2867467"><ele>471.0</ele><time>2026-04-12T11:38:22.735Z</time></trkpt><trkpt lat="45.7276455" lon="11.2866946"><ele>471.0</ele><time>2026-04-12T11:38:23.736Z</time></trkpt><trkpt lat="45.727534" lon="11.2866359"><ele>471.0</ele><time>2026-04-12T11:38:25.736Z</time></trkpt><trkpt lat="45.7274239" lon="11.286651"><ele>471.0</ele><time>2026-04-12T11:38:27.736Z</time></trkpt><trkpt lat="45.727367" lon="11.2867018"><ele>469.0</ele><time>2026-04-12T11:38:28.736Z</time></trkpt><trkpt lat="45.7273051" lon="11.2867834"><ele>467.0</ele><time>2026-04-12T11:38:29.736Z</time></trkpt><trkpt lat="45.7272283" lon="11.2868868"><ele>465.0</ele><time>2026-04-12T11:38:30.736Z</time></trkpt><trkpt lat="45.7271534" lon="11.287005"><ele>463.0</ele><time>2026-04-12T11:38:31.736Z</time></trkpt><trkpt lat="45.7270729" lon="11.2871147"><ele>461.0</ele><time>2026-04-12T11:38:32.736Z</time></trkpt><trkpt lat="45.7269829" lon="11.2872045"><ele>462.4</ele><time>2026-04-12T11:38:33.736Z</time></trkpt><trkpt lat="45.7268892" lon="11.2872749"><ele>463.8</ele><time>2026-04-12T11:38:34.735Z</time></trkpt><trkpt lat="45.7267851" lon="11.2873431"><ele>465.19999999999993</ele><time>2026-04-12T11:38:35.735Z</time></trkpt><trkpt lat="45.7266781" lon="11.2874122"><ele>466.59999999999997</ele><time>2026-04-12T11:38:36.735Z</time></trkpt><trkpt lat="45.7265792" lon="11.2874858"><ele>468.0</ele><time>2026-04-12T11:38:37.736Z</time></trkpt><trkpt lat="45.7264784" lon="11.2875415"><ele>468.0</ele><time>2026-04-12T11:38:38.736Z</time></trkpt><trkpt lat="45.7263796" lon="11.287565"><ele>467.99999999999994</ele><time>2026-04-12T11:38:39.736Z</time></trkpt><trkpt lat="45.7262861" lon="11.2875444"><ele>467.99999999999994</ele><time>2026-04-12T11:38:40.735Z</time></trkpt><trkpt lat="45.7261909" lon="11.2874851"><ele>468.0</ele><time>2026-04-12T11:38:41.735Z</time></trkpt><trkpt lat="45.7261" lon="11.2874165"><ele>468.0</ele><time>2026-04-12T11:38:42.735Z</time></trkpt><trkpt lat="45.7259982" lon="11.2873527"><ele>466.5</ele><time>2026-04-12T11:38:43.736Z</time></trkpt><trkpt lat="45.7258773" lon="11.2873217"><ele>465.0</ele><time>2026-04-12T11:38:44.735Z</time></trkpt><trkpt lat="45.7257485" lon="11.2873163"><ele>463.5</ele><time>2026-04-12T11:38:45.736Z</time></trkpt><trkpt lat="45.7256157" lon="11.2873105"><ele>462.0</ele><time>2026-04-12T11:38:46.736Z</time></trkpt><trkpt lat="45.7254825" lon="11.2873049"><ele>462.0</ele><time>2026-04-12T11:38:47.736Z</time></trkpt><trkpt lat="45.7253491" lon="11.287286"><ele>462.0</ele><time>2026-04-12T11:38:48.736Z</time></trkpt><trkpt lat="45.7252303" lon="11.2872685"><ele>462.0</ele><time>2026-04-12T11:38:49.735Z</time></trkpt><trkpt lat="45.7251221" lon="11.2872434"><ele>462.0</ele><time>2026-04-12T11:38:50.736Z</time></trkpt><trkpt lat="45.7250155" lon="11.2872214"><ele>461.0</ele><time>2026-04-12T11:38:51.736Z</time></trkpt><trkpt lat="45.724918" lon="11.2872049"><ele>460.00000000000006</ele><time>2026-04-12T11:38:52.735Z</time></trkpt><trkpt lat="45.7248368" lon="11.2872147"><ele>459.00000000000006</ele><time>2026-04-12T11:38:53.736Z</time></trkpt><trkpt lat="45.7247629" lon="11.2872597"><ele>458.0</ele><time>2026-04-12T11:38:54.735Z</time></trkpt><trkpt lat="45.7247167" lon="11.2873607"><ele>457.0</ele><time>2026-04-12T11:38:55.736Z</time></trkpt><trkpt lat="45.7246881" lon="11.2875144"><ele>457.0</ele><time>2026-04-12T11:38:56.736Z</time></trkpt><trkpt lat="45.7246673" lon="11.2876773"><ele>457.0</ele><time>2026-04-12T11:38:57.736Z</time></trkpt><trkpt lat="45.7246533" lon="11.2878549"><ele>457.0</ele><time>2026-04-12T11:38:58.736Z</time></trkpt><trkpt lat="45.7246435" lon="11.2880177"><ele>457.0</ele><time>2026-04-12T11:38:59.736Z</time></trkpt><trkpt lat="45.7246151" lon="11.2881767"><ele>460.5</ele><time>2026-04-12T11:39:00.736Z</time></trkpt><trkpt lat="45.7245558" lon="11.2883124"><ele>464.0</ele><time>2026-04-12T11:39:01.735Z</time></trkpt><trkpt lat="45.7244774" lon="11.288434"><ele>467.5</ele><time>2026-04-12T11:39:02.736Z</time></trkpt><trkpt lat="45.7243913" lon="11.2885628"><ele>471.0</ele><time>2026-04-12T11:39:03.735Z</time></trkpt><trkpt lat="45.7243102" lon="11.2886908"><ele>467.8</ele><time>2026-04-12T11:39:04.735Z</time></trkpt><trkpt lat="45.7242392" lon="11.2888128"><ele>464.6</ele><time>2026-04-12T11:39:05.736Z</time></trkpt><trkpt lat="45.724176" lon="11.2889224"><ele>461.4</ele><time>2026-04-12T11:39:06.735Z</time></trkpt><trkpt lat="45.7241189" lon="11.2890245"><ele>458.2</ele><time>2026-04-12T11:39:07.735Z</time></trkpt><trkpt lat="45.7240747" lon="11.2891244"><ele>455.0</ele><time>2026-04-12T11:39:08.735Z</time></trkpt><trkpt lat="45.7240572" lon="11.28922"><ele>455.0</ele><time>2026-04-12T11:39:09.736Z</time></trkpt><trkpt lat="45.7240715" lon="11.2893491"><ele>455.0</ele><time>2026-04-12T11:39:10.736Z</time></trkpt><trkpt lat="45.7240893" lon="11.2895217"><ele>455.0</ele><time>2026-04-12T11:39:11.736Z</time></trkpt><trkpt lat="45.7241068" lon="11.2896879"><ele>455.0</ele><time>2026-04-12T11:39:12.735Z</time></trkpt><trkpt lat="45.7241219" lon="11.2898569"><ele>455.0</ele><time>2026-04-12T11:39:13.736Z</time></trkpt><trkpt lat="45.7241473" lon="11.290028"><ele>454.3333333333333</ele><time>2026-04-12T11:39:14.736Z</time></trkpt><trkpt lat="45.7241899" lon="11.2901953"><ele>453.66666666666663</ele><time>2026-04-12T11:39:15.736Z</time></trkpt><trkpt lat="45.7242373" lon="11.2903152"><ele>453.0</ele><time>2026-04-12T11:39:16.735Z</time></trkpt><trkpt lat="45.7242672" lon="11.2904265"><ele>452.33333333333337</ele><time>2026-04-12T11:39:17.736Z</time></trkpt><trkpt lat="45.7242765" lon="11.2905247"><ele>451.6666666666667</ele><time>2026-04-12T11:39:18.735Z</time></trkpt><trkpt lat="45.7242471" lon="11.2906198"><ele>451.0</ele><time>2026-04-12T11:39:19.736Z</time></trkpt><trkpt lat="45.7241857" lon="11.2907084"><ele>450.25</ele><time>2026-04-12T11:39:20.736Z</time></trkpt><trkpt lat="45.7241026" lon="11.290812"><ele>449.5</ele><time>2026-04-12T11:39:21.736Z</time></trkpt><trkpt lat="45.7240193" lon="11.2909306"><ele>448.75</ele><time>2026-04-12T11:39:22.735Z</time></trkpt><trkpt lat="45.7239498" lon="11.2910584"><ele>448.0</ele><time>2026-04-12T11:39:23.736Z</time></trkpt><trkpt lat="45.7238963" lon="11.2911991"><ele>448.0</ele><time>2026-04-12T11:39:24.735Z</time></trkpt><trkpt lat="45.7238412" lon="11.2913413"><ele>447.99999999999994</ele><time>2026-04-12T11:39:25.735Z</time></trkpt><trkpt lat="45.7237839" lon="11.2914658"><ele>447.99999999999994</ele><time>2026-04-12T11:39:26.735Z</time></trkpt><trkpt lat="45.7237099" lon="11.2915627"><ele>448.0</ele><time>2026-04-12T11:39:27.735Z</time></trkpt><trkpt lat="45.7236294" lon="11.2916306"><ele>448.0</ele><time>2026-04-12T11:39:28.735Z</time></trkpt><trkpt lat="45.7235437" lon="11.291678"><ele>446.0</ele><time>2026-04-12T11:39:29.736Z</time></trkpt><trkpt lat="45.7234629" lon="11.2917309"><ele>443.99999999999994</ele><time>2026-04-12T11:39:30.735Z</time></trkpt><trkpt lat="45.7233876" lon="11.291825"><ele>441.99999999999994</ele><time>2026-04-12T11:39:31.735Z</time></trkpt><trkpt lat="45.7233212" lon="11.2919574"><ele>440.0</ele><time>2026-04-12T11:39:32.735Z</time></trkpt><trkpt lat="45.7232642" lon="11.2921137"><ele>438.0</ele><time>2026-04-12T11:39:33.735Z</time></trkpt><trkpt lat="45.7232258" lon="11.2922921"><ele>438.0</ele><time>2026-04-12T11:39:34.736Z</time></trkpt><trkpt lat="45.7231997" lon="11.2924618"><ele>437.99999999999994</ele><time>2026-04-12T11:39:35.736Z</time></trkpt><trkpt lat="45.7231697" lon="11.2926112"><ele>437.99999999999994</ele><time>2026-04-12T11:39:36.736Z</time></trkpt><trkpt lat="45.723132" lon="11.2927419"><ele>438.0</ele><time>2026-04-12T11:39:37.736Z</time></trkpt><trkpt lat="45.7230823" lon="11.292854"><ele>438.0</ele><time>2026-04-12T11:39:38.735Z</time></trkpt><trkpt lat="45.7230394" lon="11.2929678"><ele>438.0</ele><time>2026-04-12T11:39:39.735Z</time></trkpt><trkpt lat="45.7230025" lon="11.2930711"><ele>438.0</ele><time>2026-04-12T11:39:40.736Z</time></trkpt><trkpt lat="45.7229738" lon="11.2931578"><ele>438.0</ele><time>2026-04-12T11:39:41.736Z</time></trkpt><trkpt lat="45.7229693" lon="11.2933278"><ele>438.0</ele><time>2026-04-12T11:39:43.736Z</time></trkpt><trkpt lat="45.7229962" lon="11.2934626"><ele>438.0</ele><time>2026-04-12T11:39:45.736Z</time></trkpt><trkpt lat="45.7230415" lon="11.2935386"><ele>438.0</ele><time>2026-04-12T11:39:48.735Z</time></trkpt><trkpt lat="45.723111" lon="11.2935828"><ele>437.8333333333333</ele><time>2026-04-12T11:40:00.735Z</time></trkpt><trkpt lat="45.7231693" lon="11.2936303"><ele>437.66666666666663</ele><time>2026-04-12T11:40:01.735Z</time></trkpt><trkpt lat="45.7232386" lon="11.2936873"><ele>437.5</ele><time>2026-04-12T11:40:02.735Z</time></trkpt><trkpt lat="45.7233106" lon="11.2937596"><ele>437.3333333333333</ele><time>2026-04-12T11:40:03.735Z</time></trkpt><trkpt lat="45.7233788" lon="11.2938432"><ele>437.16666666666663</ele><time>2026-04-12T11:40:04.736Z</time></trkpt><trkpt lat="45.7234442" lon="11.2939462"><ele>437.0</ele><time>2026-04-12T11:40:05.735Z</time></trkpt><trkpt lat="45.7235033" lon="11.2940587"><ele>436.99999999999994</ele><time>2026-04-12T11:40:06.735Z</time></trkpt><trkpt lat="45.7235535" lon="11.2941772"><ele>437.0</ele><time>2026-04-12T11:40:07.736Z</time></trkpt><trkpt lat="45.7235944" lon="11.2942925"><ele>437.0</ele><time>2026-04-12T11:40:08.735Z</time></trkpt><trkpt lat="45.7236204" lon="11.2944072"><ele>437.0</ele><time>2026-04-12T11:40:09.736Z</time></trkpt><trkpt lat="45.7236314" lon="11.294519"><ele>436.99999999999994</ele><time>2026-04-12T11:40:10.735Z</time></trkpt><trkpt lat="45.7236156" lon="11.2946307"><ele>437.0</ele><time>2026-04-12T11:40:11.735Z</time></trkpt><trkpt lat="45.7235757" lon="11.2947393"><ele>438.3333333333333</ele><time>2026-04-12T11:40:12.735Z</time></trkpt><trkpt lat="45.7235139" lon="11.2948371"><ele>439.66666666666663</ele><time>2026-04-12T11:40:13.735Z</time></trkpt><trkpt lat="45.7234353" lon="11.2949328"><ele>441.0</ele><time>2026-04-12T11:40:14.735Z</time></trkpt><trkpt lat="45.7233647" lon="11.2950097"><ele>442.33333333333337</ele><time>2026-04-12T11:40:15.736Z</time></trkpt><trkpt lat="45.7233167" lon="11.2950736"><ele>443.6666666666667</ele><time>2026-04-12T11:40:16.736Z</time></trkpt><trkpt lat="45.723294" lon="11.2951772"><ele>445.0</ele><time>2026-04-12T11:40:18.736Z</time></trkpt><trkpt lat="45.7233755" lon="11.2952761"><ele>445.00000000000006</ele><time>2026-04-12T11:40:20.736Z</time></trkpt><trkpt lat="45.7234204" lon="11.2953429"><ele>445.0</ele><time>2026-04-12T11:40:21.735Z</time></trkpt><trkpt lat="45.7234543" lon="11.2955202"><ele>445.0</ele><time>2026-04-12T11:40:23.736Z</time></trkpt><trkpt lat="45.7234322" lon="11.2956101"><ele>445.0</ele><time>2026-04-12T11:40:24.735Z</time></trkpt><trkpt lat="45.7233939" lon="11.2956832"><ele>445.00000000000006</ele><time>2026-04-12T11:40:25.736Z</time></trkpt><trkpt lat="45.7233335" lon="11.2958097"><ele>445.0</ele><time>2026-04-12T11:40:27.736Z</time></trkpt><trkpt lat="45.7233414" lon="11.2959001"><ele>446.1666666666667</ele><time>2026-04-12T11:40:29.735Z</time></trkpt><trkpt lat="45.7233913" lon="11.2959833"><ele>447.33333333333337</ele><time>2026-04-12T11:40:31.736Z</time></trkpt><trkpt lat="45.7234421" lon="11.2961212"><ele>448.5</ele><time>2026-04-12T11:40:33.735Z</time></trkpt><trkpt lat="45.7234873" lon="11.2962295"><ele>449.66666666666663</ele><time>2026-04-12T11:40:35.736Z</time></trkpt><trkpt lat="45.7234515" lon="11.2963561"><ele>450.8333333333333</ele><time>2026-04-12T11:40:39.736Z</time></trkpt><trkpt lat="45.7234012" lon="11.2964104"><ele>452.0</ele><time>2026-04-12T11:40:40.735Z</time></trkpt><trkpt lat="45.723354" lon="11.2964704"><ele>452.16666666666663</ele><time>2026-04-12T11:40:41.735Z</time></trkpt><trkpt lat="45.7233115" lon="11.2965479"><ele>452.3333333333333</ele><time>2026-04-12T11:40:42.736Z</time></trkpt><trkpt lat="45.7232746" lon="11.2966509"><ele>452.5</ele><time>2026-04-12T11:40:43.736Z</time></trkpt><trkpt lat="45.7232448" lon="11.2967593"><ele>452.66666666666663</ele><time>2026-04-12T11:40:44.736Z</time></trkpt><trkpt lat="45.7232203" lon="11.2968746"><ele>452.8333333333333</ele><time>2026-04-12T11:40:45.735Z</time></trkpt><trkpt lat="45.7231943" lon="11.2969907"><ele>453.0</ele><time>2026-04-12T11:40:46.736Z</time></trkpt><trkpt lat="45.7231636" lon="11.2971108"><ele>453.0</ele><time>2026-04-12T11:40:47.736Z</time></trkpt><trkpt lat="45.723134" lon="11.2972301"><ele>453.0</ele><time>2026-04-12T11:40:48.736Z</time></trkpt><trkpt lat="45.7231057" lon="11.2973467"><ele>453.0</ele><time>2026-04-12T11:40:49.736Z</time></trkpt><trkpt lat="45.7230694" lon="11.2974626"><ele>453.0</ele><time>2026-04-12T11:40:50.735Z</time></trkpt><trkpt lat="45.7230291" lon="11.2975735"><ele>453.0</ele><time>2026-04-12T11:40:51.736Z</time></trkpt><trkpt lat="45.7229944" lon="11.2976847"><ele>453.0</ele><time>2026-04-12T11:40:52.736Z</time></trkpt><trkpt lat="45.7229654" lon="11.297788"><ele>453.0</ele><time>2026-04-12T11:40:53.735Z</time></trkpt><trkpt lat="45.7229499" lon="11.2978849"><ele>453.0</ele><time>2026-04-12T11:40:54.735Z</time></trkpt><trkpt lat="45.7229595" lon="11.2979762"><ele>453.0</ele><time>2026-04-12T11:40:55.735Z</time></trkpt><trkpt lat="45.7230242" lon="11.2981065"><ele>453.0</ele><time>2026-04-12T11:40:57.735Z</time></trkpt><trkpt lat="45.7230807" lon="11.298167"><ele>453.0</ele><time>2026-04-12T11:40:58.736Z</time></trkpt><trkpt lat="45.7231595" lon="11.2982134"><ele>453.0</ele><time>2026-04-12T11:40:59.736Z</time></trkpt><trkpt lat="45.7232501" lon="11.2982522"><ele>453.3333333333333</ele><time>2026-04-12T11:41:00.735Z</time></trkpt><trkpt lat="45.723327" lon="11.2983027"><ele>453.66666666666663</ele><time>2026-04-12T11:41:01.736Z</time></trkpt><trkpt lat="45.7233985" lon="11.2983635"><ele>454.0</ele><time>2026-04-12T11:41:02.736Z</time></trkpt><trkpt lat="45.723448" lon="11.2984324"><ele>454.3333333333333</ele><time>2026-04-12T11:41:03.735Z</time></trkpt><trkpt lat="45.7234809" lon="11.2985185"><ele>454.66666666666663</ele><time>2026-04-12T11:41:04.736Z</time></trkpt><trkpt lat="45.7234886" lon="11.2986196"><ele>455.0</ele><time>2026-04-12T11:41:05.735Z</time></trkpt><trkpt lat="45.7234847" lon="11.2987264"><ele>455.0</ele><time>2026-04-12T11:41:06.736Z</time></trkpt><trkpt lat="45.7234649" lon="11.2988398"><ele>455.0</ele><time>2026-04-12T11:41:07.735Z</time></trkpt><trkpt lat="45.7234238" lon="11.2989518"><ele>455.0</ele><time>2026-04-12T11:41:08.735Z</time></trkpt><trkpt lat="45.7233661" lon="11.2990651"><ele>455.0</ele><time>2026-04-12T11:41:09.735Z</time></trkpt><trkpt lat="45.7232997" lon="11.2991904"><ele>455.0</ele><time>2026-04-12T11:41:10.736Z</time></trkpt><trkpt lat="45.7232267" lon="11.2993244"><ele>454.66666666666663</ele><time>2026-04-12T11:41:11.735Z</time></trkpt><trkpt lat="45.7231547" lon="11.2994459"><ele>454.3333333333333</ele><time>2026-04-12T11:41:12.736Z</time></trkpt><trkpt lat="45.7230932" lon="11.2995444"><ele>454.0</ele><time>2026-04-12T11:41:13.736Z</time></trkpt><trkpt lat="45.7230492" lon="11.2996267"><ele>453.66666666666663</ele><time>2026-04-12T11:41:14.735Z</time></trkpt><trkpt lat="45.723014" lon="11.2997016"><ele>453.3333333333333</ele><time>2026-04-12T11:41:15.735Z</time></trkpt><trkpt lat="45.7230158" lon="11.2998456"><ele>453.0</ele><time>2026-04-12T11:41:17.736Z</time></trkpt><trkpt lat="45.7231034" lon="11.2999772"><ele>453.6666666666667</ele><time>2026-04-12T11:41:19.735Z</time></trkpt><trkpt lat="45.7231553" lon="11.3000477"><ele>454.33333333333337</ele><time>2026-04-12T11:41:20.736Z</time></trkpt><trkpt lat="45.7232016" lon="11.3001339"><ele>455.0</ele><time>2026-04-12T11:41:21.736Z</time></trkpt><trkpt lat="45.7232396" lon="11.3002324"><ele>455.6666666666667</ele><time>2026-04-12T11:41:22.735Z</time></trkpt><trkpt lat="45.7232792" lon="11.3003339"><ele>456.33333333333337</ele><time>2026-04-12T11:41:23.735Z</time></trkpt><trkpt lat="45.7233088" lon="11.3004344"><ele>457.0</ele><time>2026-04-12T11:41:24.735Z</time></trkpt><trkpt lat="45.7233266" lon="11.3005325"><ele>457.00000000000006</ele><time>2026-04-12T11:41:25.736Z</time></trkpt><trkpt lat="45.7233434" lon="11.300621"><ele>457.0</ele><time>2026-04-12T11:41:26.736Z</time></trkpt><trkpt lat="45.7233576" lon="11.3007169"><ele>457.0</ele><time>2026-04-12T11:41:27.736Z</time></trkpt><trkpt lat="45.7233653" lon="11.3008307"><ele>457.0</ele><time>2026-04-12T11:41:28.736Z</time></trkpt><trkpt lat="45.723365" lon="11.30094"><ele>457.00000000000006</ele><time>2026-04-12T11:41:29.735Z</time></trkpt><trkpt lat="45.7233626" lon="11.301033"><ele>457.0</ele><time>2026-04-12T11:41:30.736Z</time></trkpt><trkpt lat="45.7233473" lon="11.3012076"><ele>457.00000000000006</ele><time>2026-04-12T11:41:32.735Z</time></trkpt><trkpt lat="45.7233311" lon="11.3013089"><ele>457.0</ele><time>2026-04-12T11:41:33.736Z</time></trkpt><trkpt lat="45.7233174" lon="11.3014146"><ele>457.0</ele><time>2026-04-12T11:41:34.736Z</time></trkpt><trkpt lat="45.7232979" lon="11.301523"><ele>457.0</ele><time>2026-04-12T11:41:35.735Z</time></trkpt><trkpt lat="45.7232759" lon="11.3016388"><ele>457.00000000000006</ele><time>2026-04-12T11:41:36.736Z</time></trkpt><trkpt lat="45.7232563" lon="11.3017592"><ele>457.0</ele><time>2026-04-12T11:41:37.736Z</time></trkpt><trkpt lat="45.7232377" lon="11.3018877"><ele>456.6666666666667</ele><time>2026-04-12T11:41:38.736Z</time></trkpt><trkpt lat="45.7232244" lon="11.3020076"><ele>456.33333333333337</ele><time>2026-04-12T11:41:39.735Z</time></trkpt><trkpt lat="45.7232156" lon="11.302112"><ele>456.0</ele><time>2026-04-12T11:41:40.735Z</time></trkpt><trkpt lat="45.7232229" lon="11.3022191"><ele>455.66666666666663</ele><time>2026-04-12T11:41:41.736Z</time></trkpt><trkpt lat="45.7232415" lon="11.302331"><ele>455.3333333333333</ele><time>2026-04-12T11:41:42.736Z</time></trkpt><trkpt lat="45.7232709" lon="11.3024466"><ele>455.0</ele><time>2026-04-12T11:41:43.735Z</time></trkpt><trkpt lat="45.723295" lon="11.3025641"><ele>454.99999999999994</ele><time>2026-04-12T11:41:44.736Z</time></trkpt><trkpt lat="45.7233112" lon="11.3026867"><ele>455.0</ele><time>2026-04-12T11:41:45.735Z</time></trkpt><trkpt lat="45.723313" lon="11.3028036"><ele>455.0</ele><time>2026-04-12T11:41:46.736Z</time></trkpt><trkpt lat="45.7233013" lon="11.3029174"><ele>455.0</ele><time>2026-04-12T11:41:47.736Z</time></trkpt><trkpt lat="45.7232845" lon="11.3030228"><ele>454.99999999999994</ele><time>2026-04-12T11:41:48.735Z</time></trkpt><trkpt lat="45.7232647" lon="11.3031202"><ele>455.0</ele><time>2026-04-12T11:41:49.735Z</time></trkpt><trkpt lat="45.7232402" lon="11.3032103"><ele>454.3333333333333</ele><time>2026-04-12T11:41:50.735Z</time></trkpt><trkpt lat="45.7231931" lon="11.3033287"><ele>453.66666666666663</ele><time>2026-04-12T11:41:52.736Z</time></trkpt><trkpt lat="45.7231432" lon="11.3034019"><ele>453.0</ele><time>2026-04-12T11:41:55.735Z</time></trkpt><trkpt lat="45.7230731" lon="11.3034725"><ele>452.33333333333337</ele><time>2026-04-12T11:41:58.736Z</time></trkpt><trkpt lat="45.7229814" lon="11.3035342"><ele>451.6666666666667</ele><time>2026-04-12T11:42:00.735Z</time></trkpt><trkpt lat="45.7229149" lon="11.3036111"><ele>451.0</ele><time>2026-04-12T11:42:02.735Z</time></trkpt><trkpt lat="45.7229674" lon="11.3036687"><ele>451.0</ele><time>2026-04-12T11:42:05.735Z</time></trkpt><trkpt lat="45.7230862" lon="11.3036266"><ele>451.0</ele><time>2026-04-12T11:42:07.735Z</time></trkpt><trkpt lat="45.7231492" lon="11.3036059"><ele>451.0</ele><time>2026-04-12T11:42:08.736Z</time></trkpt><trkpt lat="45.7232619" lon="11.3036338"><ele>451.0</ele><time>2026-04-12T11:42:10.736Z</time></trkpt><trkpt lat="45.7233172" lon="11.3037797"><ele>451.0</ele><time>2026-04-12T11:42:12.735Z</time></trkpt><trkpt lat="45.7233199" lon="11.3038813"><ele>449.6666666666667</ele><time>2026-04-12T11:42:13.736Z</time></trkpt><trkpt lat="45.7233067" lon="11.3039969"><ele>448.33333333333337</ele><time>2026-04-12T11:42:14.736Z</time></trkpt><trkpt lat="45.7232832" lon="11.3041181"><ele>447.0</ele><time>2026-04-12T11:42:15.736Z</time></trkpt><trkpt lat="45.7232669" lon="11.3042463"><ele>445.66666666666663</ele><time>2026-04-12T11:42:16.736Z</time></trkpt><trkpt lat="45.7232589" lon="11.3043782"><ele>444.3333333333333</ele><time>2026-04-12T11:42:17.736Z</time></trkpt><trkpt lat="45.7232621" lon="11.3045099"><ele>443.0</ele><time>2026-04-12T11:42:18.735Z</time></trkpt><trkpt lat="45.7232687" lon="11.3046346"><ele>440.4</ele><time>2026-04-12T11:42:19.735Z</time></trkpt><trkpt lat="45.7232771" lon="11.3047542"><ele>437.79999999999995</ele><time>2026-04-12T11:42:20.736Z</time></trkpt><trkpt lat="45.7232848" lon="11.3048582"><ele>435.2</ele><time>2026-04-12T11:42:21.735Z</time></trkpt><trkpt lat="45.7232972" lon="11.3049588"><ele>432.6</ele><time>2026-04-12T11:42:22.736Z</time></trkpt><trkpt lat="45.7233294" lon="11.3051225"><ele>430.0</ele><time>2026-04-12T11:42:24.736Z</time></trkpt><trkpt lat="45.723384" lon="11.3052884"><ele>430.00000000000006</ele><time>2026-04-12T11:42:26.736Z</time></trkpt><trkpt lat="45.7234185" lon="11.3053673"><ele>430.0</ele><time>2026-04-12T11:42:27.735Z</time></trkpt><trkpt lat="45.723508" lon="11.3054948"><ele>430.0</ele><time>2026-04-12T11:42:29.736Z</time></trkpt><trkpt lat="45.723559" lon="11.3055631"><ele>430.0</ele><time>2026-04-12T11:42:30.736Z</time></trkpt><trkpt lat="45.7236022" lon="11.3056437"><ele>430.00000000000006</ele><time>2026-04-12T11:42:31.736Z</time></trkpt><trkpt lat="45.7236338" lon="11.3057324"><ele>430.0</ele><time>2026-04-12T11:42:32.735Z</time></trkpt><trkpt lat="45.723655" lon="11.3058285"><ele>432.85714285714283</ele><time>2026-04-12T11:42:33.735Z</time></trkpt><trkpt lat="45.7236629" lon="11.3059317"><ele>435.7142857142858</ele><time>2026-04-12T11:42:34.736Z</time></trkpt><trkpt lat="45.7236624" lon="11.3060354"><ele>438.5714285714286</ele><time>2026-04-12T11:42:35.735Z</time></trkpt><trkpt lat="45.7236356" lon="11.3061518"><ele>441.42857142857144</ele><time>2026-04-12T11:42:36.736Z</time></trkpt><trkpt lat="45.7236097" lon="11.3062583"><ele>444.28571428571433</ele><time>2026-04-12T11:42:37.735Z</time></trkpt><trkpt lat="45.7235928" lon="11.3063514"><ele>447.1428571428572</ele><time>2026-04-12T11:42:38.736Z</time></trkpt><trkpt lat="45.7235951" lon="11.3064421"><ele>450.00000000000006</ele><time>2026-04-12T11:42:39.736Z</time></trkpt><trkpt lat="45.7236099" lon="11.3065491"><ele>450.0</ele><time>2026-04-12T11:42:40.736Z</time></trkpt><trkpt lat="45.7236431" lon="11.3066614"><ele>450.0</ele><time>2026-04-12T11:42:41.736Z</time></trkpt><trkpt lat="45.7236784" lon="11.3067876"><ele>450.0</ele><time>2026-04-12T11:42:42.735Z</time></trkpt><trkpt lat="45.7237013" lon="11.3068967"><ele>450.0</ele><time>2026-04-12T11:42:43.736Z</time></trkpt><trkpt lat="45.7237228" lon="11.3070542"><ele>450.0</ele><time>2026-04-12T11:42:45.736Z</time></trkpt><trkpt lat="45.7237765" lon="11.307184"><ele>445.8</ele><time>2026-04-12T11:42:47.735Z</time></trkpt><trkpt lat="45.7238795" lon="11.3073038"><ele>441.6</ele><time>2026-04-12T11:42:49.735Z</time></trkpt><trkpt lat="45.7239425" lon="11.3073703"><ele>437.4</ele><time>2026-04-12T11:42:50.735Z</time></trkpt><trkpt lat="45.7240043" lon="11.3074447"><ele>433.2</ele><time>2026-04-12T11:42:51.734Z</time></trkpt><trkpt lat="45.7240751" lon="11.3075236"><ele>429.0</ele><time>2026-04-12T11:42:52.735Z</time></trkpt><trkpt lat="45.7241399" lon="11.3075882"><ele>429.0</ele><time>2026-04-12T11:42:53.735Z</time></trkpt><trkpt lat="45.7242059" lon="11.3076335"><ele>429.0</ele><time>2026-04-12T11:42:54.735Z</time></trkpt><trkpt lat="45.7242757" lon="11.3076659"><ele>429.0</ele><time>2026-04-12T11:42:55.735Z</time></trkpt><trkpt lat="45.7243472" lon="11.3076905"><ele>429.0</ele><time>2026-04-12T11:42:56.735Z</time></trkpt><trkpt lat="45.7244163" lon="11.3077315"><ele>429.0</ele><time>2026-04-12T11:42:57.734Z</time></trkpt><trkpt lat="45.724481" lon="11.307771"><ele>429.0</ele><time>2026-04-12T11:42:58.735Z</time></trkpt><trkpt lat="45.7245989" lon="11.3078149"><ele>429.2</ele><time>2026-04-12T11:43:00.734Z</time></trkpt><trkpt lat="45.7246764" lon="11.3078592"><ele>429.4</ele><time>2026-04-12T11:43:02.735Z</time></trkpt><trkpt lat="45.7246949" lon="11.3079618"><ele>429.6</ele><time>2026-04-12T11:43:04.735Z</time></trkpt><trkpt lat="45.7246621" lon="11.3081408"><ele>429.8</ele><time>2026-04-12T11:43:06.735Z</time></trkpt><trkpt lat="45.7246476" lon="11.3082573"><ele>430.0</ele><time>2026-04-12T11:43:07.734Z</time></trkpt><trkpt lat="45.7246398" lon="11.3083743"><ele>430.0</ele><time>2026-04-12T11:43:08.735Z</time></trkpt><trkpt lat="45.7246457" lon="11.3084682"><ele>430.0</ele><time>2026-04-12T11:43:09.735Z</time></trkpt><trkpt lat="45.7247024" lon="11.308598"><ele>430.0</ele><time>2026-04-12T11:43:11.735Z</time></trkpt><trkpt lat="45.724806" lon="11.3086379"><ele>430.0</ele><time>2026-04-12T11:43:13.735Z</time></trkpt><trkpt lat="45.7248707" lon="11.3086479"><ele>430.0</ele><time>2026-04-12T11:43:14.735Z</time></trkpt><trkpt lat="45.724975" lon="11.3087058"><ele>430.0</ele><time>2026-04-12T11:43:16.734Z</time></trkpt><trkpt lat="45.7250455" lon="11.3088253"><ele>430.0</ele><time>2026-04-12T11:43:18.734Z</time></trkpt><trkpt lat="45.7251512" lon="11.3089024"><ele>430.0</ele><time>2026-04-12T11:43:20.734Z</time></trkpt><trkpt lat="45.7252684" lon="11.3089192"><ele>430.0</ele><time>2026-04-12T11:43:22.734Z</time></trkpt><trkpt lat="45.7253893" lon="11.3089388"><ele>430.1666666666667</ele><time>2026-04-12T11:43:24.735Z</time></trkpt><trkpt lat="45.7254537" lon="11.3089574"><ele>430.33333333333337</ele><time>2026-04-12T11:43:25.735Z</time></trkpt><trkpt lat="45.725515" lon="11.3089837"><ele>430.5</ele><time>2026-04-12T11:43:26.734Z</time></trkpt><trkpt lat="45.7256179" lon="11.3090392"><ele>430.66666666666663</ele><time>2026-04-12T11:43:28.734Z</time></trkpt><trkpt lat="45.7257295" lon="11.3090403"><ele>430.8333333333333</ele><time>2026-04-12T11:43:30.734Z</time></trkpt><trkpt lat="45.7257933" lon="11.3090108"><ele>431.0</ele><time>2026-04-12T11:43:31.734Z</time></trkpt><trkpt lat="45.7258583" lon="11.3089803"><ele>430.99999999999994</ele><time>2026-04-12T11:43:32.734Z</time></trkpt><trkpt lat="45.7259221" lon="11.30896"><ele>431.0</ele><time>2026-04-12T11:43:33.735Z</time></trkpt><trkpt lat="45.7260404" lon="11.3089794"><ele>431.0</ele><time>2026-04-12T11:43:35.735Z</time></trkpt><trkpt lat="45.7261398" lon="11.3090679"><ele>431.0</ele><time>2026-04-12T11:43:37.734Z</time></trkpt><trkpt lat="45.7261852" lon="11.3091438"><ele>430.99999999999994</ele><time>2026-04-12T11:43:38.735Z</time></trkpt><trkpt lat="45.7262267" lon="11.309235"><ele>431.0</ele><time>2026-04-12T11:43:39.735Z</time></trkpt><trkpt lat="45.7262538" lon="11.30934"><ele>437.3333333333333</ele><time>2026-04-12T11:43:40.735Z</time></trkpt><trkpt lat="45.7262731" lon="11.3094482"><ele>443.66666666666663</ele><time>2026-04-12T11:43:41.734Z</time></trkpt><trkpt lat="45.7262904" lon="11.3095479"><ele>450.0</ele><time>2026-04-12T11:43:42.735Z</time></trkpt><trkpt lat="45.7262998" lon="11.3096424"><ele>456.33333333333337</ele><time>2026-04-12T11:43:43.735Z</time></trkpt><trkpt lat="45.7262853" lon="11.3098288"><ele>462.6666666666667</ele><time>2026-04-12T11:43:45.735Z</time></trkpt><trkpt lat="45.7262541" lon="11.3099353"><ele>469.0</ele><time>2026-04-12T11:43:46.735Z</time></trkpt><trkpt lat="45.7262098" lon="11.3100489"><ele>469.6</ele><time>2026-04-12T11:43:47.734Z</time></trkpt><trkpt lat="45.7261483" lon="11.3101542"><ele>470.2</ele><time>2026-04-12T11:43:48.735Z</time></trkpt><trkpt lat="45.7260881" lon="11.3102519"><ele>470.80000000000007</ele><time>2026-04-12T11:43:49.735Z</time></trkpt><trkpt lat="45.7260149" lon="11.3103525"><ele>471.40000000000003</ele><time>2026-04-12T11:43:50.735Z</time></trkpt><trkpt lat="45.725926" lon="11.3104351"><ele>472.0</ele><time>2026-04-12T11:43:51.735Z</time></trkpt><trkpt lat="45.7258182" lon="11.3105225"><ele>467.0</ele><time>2026-04-12T11:43:52.735Z</time></trkpt><trkpt lat="45.7256968" lon="11.3105903"><ele>462.00000000000006</ele><time>2026-04-12T11:43:53.735Z</time></trkpt><trkpt lat="45.725589" lon="11.3106437"><ele>457.00000000000006</ele><time>2026-04-12T11:43:54.735Z</time></trkpt><trkpt lat="45.7254998" lon="11.3107075"><ele>452.0</ele><time>2026-04-12T11:43:55.735Z</time></trkpt><trkpt lat="45.7254367" lon="11.3107482"><ele>447.0</ele><time>2026-04-12T11:43:56.734Z</time></trkpt><trkpt lat="45.7253552" lon="11.3108146"><ele>447.0</ele><time>2026-04-12T11:43:58.735Z</time></trkpt><trkpt lat="45.7252953" lon="11.3108822"><ele>447.0</ele><time>2026-04-12T11:44:01.735Z</time></trkpt><trkpt lat="45.7253456" lon="11.310978"><ele>447.0</ele><time>2026-04-12T11:44:05.735Z</time></trkpt><trkpt lat="45.7254191" lon="11.3110405"><ele>447.0</ele><time>2026-04-12T11:44:07.735Z</time></trkpt><trkpt lat="45.7255136" lon="11.3110931"><ele>447.0</ele><time>2026-04-12T11:44:09.734Z</time></trkpt><trkpt lat="45.7255997" lon="11.3111514"><ele>447.0</ele><time>2026-04-12T11:44:11.734Z</time></trkpt><trkpt lat="45.7256913" lon="11.3111834"><ele>447.0</ele><time>2026-04-12T11:44:13.734Z</time></trkpt><trkpt lat="45.7258055" lon="11.3111883"><ele>447.0</ele><time>2026-04-12T11:44:15.735Z</time></trkpt><trkpt lat="45.7258687" lon="11.3111785"><ele>447.0</ele><time>2026-04-12T11:44:16.735Z</time></trkpt><trkpt lat="45.725938" lon="11.311177"><ele>447.0</ele><time>2026-04-12T11:44:17.735Z</time></trkpt><trkpt lat="45.7260075" lon="11.3111719"><ele>447.0</ele><time>2026-04-12T11:44:18.735Z</time></trkpt><trkpt lat="45.7260728" lon="11.3111819"><ele>447.0</ele><time>2026-04-12T11:44:19.734Z</time></trkpt><trkpt lat="45.726188" lon="11.3112272"><ele>445.8333333333333</ele><time>2026-04-12T11:44:21.734Z</time></trkpt><trkpt lat="45.7262405" lon="11.3112888"><ele>444.66666666666663</ele><time>2026-04-12T11:44:22.734Z</time></trkpt><trkpt lat="45.7262778" lon="11.3113658"><ele>443.5</ele><time>2026-04-12T11:44:23.735Z</time></trkpt><trkpt lat="45.7263079" lon="11.3114518"><ele>442.3333333333333</ele><time>2026-04-12T11:44:24.735Z</time></trkpt><trkpt lat="45.7263397" lon="11.31153"><ele>441.16666666666663</ele><time>2026-04-12T11:44:25.735Z</time></trkpt><trkpt lat="45.7264399" lon="11.3116315"><ele>440.0</ele><time>2026-04-12T11:44:27.734Z</time></trkpt><trkpt lat="45.7264948" lon="11.3116789"><ele>440.0</ele><time>2026-04-12T11:44:28.734Z</time></trkpt><trkpt lat="45.7265783" lon="11.3117962"><ele>440.0</ele><time>2026-04-12T11:44:30.735Z</time></trkpt><trkpt lat="45.7266044" lon="11.3118908"><ele>440.0</ele><time>2026-04-12T11:44:31.735Z</time></trkpt><trkpt lat="45.7266216" lon="11.3119858"><ele>440.0</ele><time>2026-04-12T11:44:32.735Z</time></trkpt><trkpt lat="45.7266222" lon="11.3121452"><ele>440.0</ele><time>2026-04-12T11:44:34.735Z</time></trkpt><trkpt lat="45.7265658" lon="11.3122787"><ele>439.49999999999994</ele><time>2026-04-12T11:44:36.735Z</time></trkpt><trkpt lat="45.7264663" lon="11.3123938"><ele>439.0</ele><time>2026-04-12T11:44:38.735Z</time></trkpt><trkpt lat="45.7264085" lon="11.3124453"><ele>438.5</ele><time>2026-04-12T11:44:39.735Z</time></trkpt><trkpt lat="45.7263486" lon="11.312492"><ele>438.0</ele><time>2026-04-12T11:44:40.735Z</time></trkpt><trkpt lat="45.7262849" lon="11.3125418"><ele>437.49999999999994</ele><time>2026-04-12T11:44:41.735Z</time></trkpt><trkpt lat="45.7262128" lon="11.3125974"><ele>437.0</ele><time>2026-04-12T11:44:42.734Z</time></trkpt><trkpt lat="45.7261357" lon="11.3126674"><ele>432.99999999999994</ele><time>2026-04-12T11:44:43.735Z</time></trkpt><trkpt lat="45.7260511" lon="11.3127481"><ele>429.0</ele><time>2026-04-12T11:44:44.735Z</time></trkpt><trkpt lat="45.72597" lon="11.3128131"><ele>425.0</ele><time>2026-04-12T11:44:45.734Z</time></trkpt><trkpt lat="45.7258909" lon="11.3128702"><ele>421.0</ele><time>2026-04-12T11:44:46.734Z</time></trkpt><trkpt lat="45.7258139" lon="11.3129204"><ele>416.99999999999994</ele><time>2026-04-12T11:44:47.734Z</time></trkpt><trkpt lat="45.7257452" lon="11.3129599"><ele>413.0</ele><time>2026-04-12T11:44:48.734Z</time></trkpt><trkpt lat="45.7256456" lon="11.3130346"><ele>416.3333333333333</ele><time>2026-04-12T11:44:50.734Z</time></trkpt><trkpt lat="45.7255822" lon="11.3131992"><ele>419.66666666666663</ele><time>2026-04-12T11:44:52.735Z</time></trkpt><trkpt lat="45.7255542" lon="11.3132915"><ele>423.0</ele><time>2026-04-12T11:44:53.735Z</time></trkpt><trkpt lat="45.725525" lon="11.3133909"><ele>426.33333333333337</ele><time>2026-04-12T11:44:54.735Z</time></trkpt><trkpt lat="45.7254817" lon="11.3134878"><ele>429.6666666666667</ele><time>2026-04-12T11:44:55.734Z</time></trkpt><trkpt lat="45.7254278" lon="11.3135796"><ele>433.0</ele><time>2026-04-12T11:44:56.735Z</time></trkpt><trkpt lat="45.7253694" lon="11.3136608"><ele>433.00000000000006</ele><time>2026-04-12T11:44:57.735Z</time></trkpt><trkpt lat="45.7253094" lon="11.3137366"><ele>433.0</ele><time>2026-04-12T11:44:58.735Z</time></trkpt><trkpt lat="45.725252" lon="11.3138089"><ele>433.0</ele><time>2026-04-12T11:44:59.734Z</time></trkpt><trkpt lat="45.7252031" lon="11.3138782"><ele>433.0</ele><time>2026-04-12T11:45:00.735Z</time></trkpt><trkpt lat="45.7251092" lon="11.3139891"><ele>433.00000000000006</ele><time>2026-04-12T11:45:02.734Z</time></trkpt><trkpt lat="45.7250423" lon="11.3140174"><ele>433.0</ele><time>2026-04-12T11:45:03.735Z</time></trkpt><trkpt lat="45.7249707" lon="11.3140238"><ele>432.00000000000006</ele><time>2026-04-12T11:45:04.735Z</time></trkpt><trkpt lat="45.7249005" lon="11.3140333"><ele>431.0</ele><time>2026-04-12T11:45:05.735Z</time></trkpt><trkpt lat="45.7248291" lon="11.3140245"><ele>430.0</ele><time>2026-04-12T11:45:06.734Z</time></trkpt><trkpt lat="45.7247489" lon="11.3140001"><ele>429.0</ele><time>2026-04-12T11:45:07.735Z</time></trkpt><trkpt lat="45.7246591" lon="11.3139686"><ele>428.00000000000006</ele><time>2026-04-12T11:45:08.735Z</time></trkpt><trkpt lat="45.7245664" lon="11.3139454"><ele>427.0</ele><time>2026-04-12T11:45:09.735Z</time></trkpt><trkpt lat="45.7244787" lon="11.3139311"><ele>423.83333333333337</ele><time>2026-04-12T11:45:10.735Z</time></trkpt><trkpt lat="45.7243915" lon="11.3139299"><ele>420.6666666666667</ele><time>2026-04-12T11:45:11.734Z</time></trkpt><trkpt lat="45.72431" lon="11.3139455"><ele>417.5</ele><time>2026-04-12T11:45:12.734Z</time></trkpt><trkpt lat="45.7242485" lon="11.313986"><ele>414.33333333333337</ele><time>2026-04-12T11:45:13.734Z</time></trkpt><trkpt lat="45.7241864" lon="11.3140413"><ele>411.1666666666667</ele><time>2026-04-12T11:45:14.734Z</time></trkpt><trkpt lat="45.7241215" lon="11.3141004"><ele>408.0</ele><time>2026-04-12T11:45:15.734Z</time></trkpt><trkpt lat="45.7240557" lon="11.3141471"><ele>408.0</ele><time>2026-04-12T11:45:16.734Z</time></trkpt><trkpt lat="45.7239769" lon="11.3141822"><ele>408.0</ele><time>2026-04-12T11:45:17.735Z</time></trkpt><trkpt lat="45.7238944" lon="11.3142356"><ele>408.0</ele><time>2026-04-12T11:45:18.735Z</time></trkpt><trkpt lat="45.7238095" lon="11.3142913"><ele>408.0</ele><time>2026-04-12T11:45:19.734Z</time></trkpt><trkpt lat="45.7237088" lon="11.3143541"><ele>408.0</ele><time>2026-04-12T11:45:20.735Z</time></trkpt><trkpt lat="45.723602" lon="11.3144082"><ele>407.59999999999997</ele><time>2026-04-12T11:45:21.734Z</time></trkpt><trkpt lat="45.7235021" lon="11.3144513"><ele>407.2</ele><time>2026-04-12T11:45:22.734Z</time></trkpt><trkpt lat="45.7234098" lon="11.3145008"><ele>406.8</ele><time>2026-04-12T11:45:23.735Z</time></trkpt><trkpt lat="45.7233345" lon="11.3145638"><ele>406.4</ele><time>2026-04-12T11:45:24.734Z</time></trkpt><trkpt lat="45.7232822" lon="11.314668"><ele>406.0</ele><time>2026-04-12T11:45:25.734Z</time></trkpt><trkpt lat="45.7232384" lon="11.3147909"><ele>406.00000000000006</ele><time>2026-04-12T11:45:26.734Z</time></trkpt><trkpt lat="45.7231978" lon="11.3149066"><ele>406.0</ele><time>2026-04-12T11:45:27.735Z</time></trkpt><trkpt lat="45.723159" lon="11.3150055"><ele>406.0</ele><time>2026-04-12T11:45:28.735Z</time></trkpt><trkpt lat="45.7231413" lon="11.3150989"><ele>406.0</ele><time>2026-04-12T11:45:29.734Z</time></trkpt><trkpt lat="45.723145" lon="11.3152598"><ele>406.00000000000006</ele><time>2026-04-12T11:45:31.735Z</time></trkpt><trkpt lat="45.7231708" lon="11.3153567"><ele>406.0</ele><time>2026-04-12T11:45:32.735Z</time></trkpt><trkpt lat="45.7232039" lon="11.3154994"><ele>405.83333333333337</ele><time>2026-04-12T11:45:33.735Z</time></trkpt><trkpt lat="45.7232366" lon="11.3156325"><ele>405.6666666666667</ele><time>2026-04-12T11:45:34.734Z</time></trkpt><trkpt lat="45.7232694" lon="11.3157676"><ele>405.5</ele><time>2026-04-12T11:45:35.734Z</time></trkpt><trkpt lat="45.7232975" lon="11.3158698"><ele>405.33333333333337</ele><time>2026-04-12T11:45:36.735Z</time></trkpt><trkpt lat="45.7233257" lon="11.3159646"><ele>405.1666666666667</ele><time>2026-04-12T11:45:37.735Z</time></trkpt><trkpt lat="45.7233472" lon="11.316056"><ele>405.0</ele><time>2026-04-12T11:45:38.734Z</time></trkpt><trkpt lat="45.7233758" lon="11.3162234"><ele>405.0</ele><time>2026-04-12T11:45:40.734Z</time></trkpt><trkpt lat="45.7233778" lon="11.3163316"><ele>405.0</ele><time>2026-04-12T11:45:42.734Z</time></trkpt><trkpt lat="45.7233477" lon="11.3164425"><ele>405.0</ele><time>2026-04-12T11:45:45.735Z</time></trkpt><trkpt lat="45.7233505" lon="11.3165771"><ele>405.0</ele><time>2026-04-12T11:45:47.734Z</time></trkpt><trkpt lat="45.723372" lon="11.3166619"><ele>405.0</ele><time>2026-04-12T11:45:48.735Z</time></trkpt><trkpt lat="45.723404" lon="11.3167607"><ele>405.0</ele><time>2026-04-12T11:45:49.735Z</time></trkpt><trkpt lat="45.72344" lon="11.3168642"><ele>405.6666666666667</ele><time>2026-04-12T11:45:50.735Z</time></trkpt><trkpt lat="45.7234791" lon="11.3169671"><ele>406.33333333333337</ele><time>2026-04-12T11:45:51.735Z</time></trkpt><trkpt lat="45.7235187" lon="11.3170739"><ele>407.0</ele><time>2026-04-12T11:45:52.735Z</time></trkpt><trkpt lat="45.7235623" lon="11.3171766"><ele>407.6666666666667</ele><time>2026-04-12T11:45:53.735Z</time></trkpt><trkpt lat="45.7236196" lon="11.3172761"><ele>408.33333333333337</ele><time>2026-04-12T11:45:54.735Z</time></trkpt><trkpt lat="45.7236905" lon="11.3173768"><ele>409.0</ele><time>2026-04-12T11:45:55.734Z</time></trkpt><trkpt lat="45.7237594" lon="11.3174595"><ele>409.00000000000006</ele><time>2026-04-12T11:45:56.735Z</time></trkpt><trkpt lat="45.7238163" lon="11.3175302"><ele>409.0</ele><time>2026-04-12T11:45:57.734Z</time></trkpt><trkpt lat="45.7238572" lon="11.3176118"><ele>409.0</ele><time>2026-04-12T11:45:58.734Z</time></trkpt><trkpt lat="45.7238694" lon="11.3177077"><ele>409.0</ele><time>2026-04-12T11:45:59.735Z</time></trkpt><trkpt lat="45.7238663" lon="11.3177987"><ele>409.00000000000006</ele><time>2026-04-12T11:46:00.735Z</time></trkpt><trkpt lat="45.7238038" lon="11.3179364"><ele>409.0</ele><time>2026-04-12T11:46:02.735Z</time></trkpt><trkpt lat="45.7237333" lon="11.3179913"><ele>409.0</ele><time>2026-04-12T11:46:03.734Z</time></trkpt><trkpt lat="45.7236594" lon="11.3180641"><ele>409.0</ele><time>2026-04-12T11:46:04.734Z</time></trkpt><trkpt lat="45.7235926" lon="11.3181533"><ele>409.0</ele><time>2026-04-12T11:46:05.735Z</time></trkpt><trkpt lat="45.7235306" lon="11.3182632"><ele>409.0</ele><time>2026-04-12T11:46:06.734Z</time></trkpt><trkpt lat="45.723475" lon="11.318391"><ele>409.0</ele><time>2026-04-12T11:46:07.735Z</time></trkpt><trkpt lat="45.7234379" lon="11.318524"><ele>401.1666666666667</ele><time>2026-04-12T11:46:08.734Z</time></trkpt><trkpt lat="45.7234164" lon="11.3186405"><ele>393.33333333333337</ele><time>2026-04-12T11:46:09.734Z</time></trkpt><trkpt lat="45.7234059" lon="11.3187465"><ele>385.5</ele><time>2026-04-12T11:46:10.734Z</time></trkpt><trkpt lat="45.7234226" lon="11.3188583"><ele>377.6666666666667</ele><time>2026-04-12T11:46:11.735Z</time></trkpt><trkpt lat="45.723458" lon="11.3189769"><ele>369.83333333333337</ele><time>2026-04-12T11:46:12.734Z</time></trkpt><trkpt lat="45.7234909" lon="11.3190969"><ele>362.0</ele><time>2026-04-12T11:46:13.735Z</time></trkpt><trkpt lat="45.7235188" lon="11.3192232"><ele>361.20000000000005</ele><time>2026-04-12T11:46:14.735Z</time></trkpt><trkpt lat="45.7235355" lon="11.3193616"><ele>360.4</ele><time>2026-04-12T11:46:15.735Z</time></trkpt><trkpt lat="45.7235434" lon="11.3195018"><ele>359.6</ele><time>2026-04-12T11:46:16.735Z</time></trkpt><trkpt lat="45.7235335" lon="11.3196367"><ele>358.79999999999995</ele><time>2026-04-12T11:46:17.735Z</time></trkpt><trkpt lat="45.7235164" lon="11.3197628"><ele>358.0</ele><time>2026-04-12T11:46:18.734Z</time></trkpt><trkpt lat="45.7234929" lon="11.3198724"><ele>358.0</ele><time>2026-04-12T11:46:19.735Z</time></trkpt><trkpt lat="45.7234656" lon="11.3199631"><ele>358.0</ele><time>2026-04-12T11:46:20.735Z</time></trkpt><trkpt lat="45.7233965" lon="11.3200241"><ele>358.0</ele><time>2026-04-12T11:46:22.734Z</time></trkpt><trkpt lat="45.7233156" lon="11.3198905"><ele>358.0</ele><time>2026-04-12T11:46:24.734Z</time></trkpt><trkpt lat="45.7232643" lon="11.3197615"><ele>358.0</ele><time>2026-04-12T11:46:25.735Z</time></trkpt><trkpt lat="45.7232056" lon="11.3196565"><ele>358.0</ele><time>2026-04-12T11:46:26.735Z</time></trkpt><trkpt lat="45.723144" lon="11.3195585"><ele>358.0</ele><time>2026-04-12T11:46:27.734Z</time></trkpt><trkpt lat="45.7230791" lon="11.3194717"><ele>358.0</ele><time>2026-04-12T11:46:28.735Z</time></trkpt><trkpt lat="45.7230196" lon="11.3193966"><ele>358.0</ele><time>2026-04-12T11:46:29.734Z</time></trkpt><trkpt lat="45.7229805" lon="11.3193223"><ele>358.0</ele><time>2026-04-12T11:46:30.735Z</time></trkpt><trkpt lat="45.7229402" lon="11.3191685"><ele>358.0</ele><time>2026-04-12T11:46:32.735Z</time></trkpt><trkpt lat="45.7228982" lon="11.3189944"><ele>358.66666666666663</ele><time>2026-04-12T11:46:34.735Z</time></trkpt><trkpt lat="45.722844" lon="11.3188286"><ele>359.3333333333333</ele><time>2026-04-12T11:46:36.734Z</time></trkpt><trkpt lat="45.7228295" lon="11.318738"><ele>360.0</ele><time>2026-04-12T11:46:37.735Z</time></trkpt><trkpt lat="45.7228269" lon="11.3186264"><ele>360.6666666666667</ele><time>2026-04-12T11:46:38.734Z</time></trkpt><trkpt lat="45.7228418" lon="11.3185113"><ele>361.33333333333337</ele><time>2026-04-12T11:46:39.734Z</time></trkpt><trkpt lat="45.7228609" lon="11.3183936"><ele>362.0</ele><time>2026-04-12T11:46:40.735Z</time></trkpt><trkpt lat="45.7228813" lon="11.3182711"><ele>362.0</ele><time>2026-04-12T11:46:41.735Z</time></trkpt><trkpt lat="45.7228971" lon="11.3181588"><ele>362.0</ele><time>2026-04-12T11:46:42.734Z</time></trkpt><trkpt lat="45.7228898" lon="11.3180422"><ele>362.0</ele><time>2026-04-12T11:46:43.734Z</time></trkpt><trkpt lat="45.7228599" lon="11.3179274"><ele>362.0</ele><time>2026-04-12T11:46:44.735Z</time></trkpt><trkpt lat="45.7228135" lon="11.3178202"><ele>362.0</ele><time>2026-04-12T11:46:45.734Z</time></trkpt><trkpt lat="45.7227471" lon="11.3177327"><ele>362.0</ele><time>2026-04-12T11:46:46.734Z</time></trkpt><trkpt lat="45.7226717" lon="11.3176618"><ele>357.8</ele><time>2026-04-12T11:46:47.735Z</time></trkpt><trkpt lat="45.722579" lon="11.3176248"><ele>353.6</ele><time>2026-04-12T11:46:48.734Z</time></trkpt><trkpt lat="45.7224758" lon="11.3176018"><ele>349.40000000000003</ele><time>2026-04-12T11:46:49.734Z</time></trkpt><trkpt lat="45.7223584" lon="11.3175954"><ele>345.20000000000005</ele><time>2026-04-12T11:46:50.735Z</time></trkpt><trkpt lat="45.7222417" lon="11.3175935"><ele>341.0</ele><time>2026-04-12T11:46:51.734Z</time></trkpt><trkpt lat="45.7221259" lon="11.3175879"><ele>341.0</ele><time>2026-04-12T11:46:52.734Z</time></trkpt><trkpt lat="45.7220208" lon="11.3175936"><ele>341.0</ele><time>2026-04-12T11:46:53.735Z</time></trkpt><trkpt lat="45.721924" lon="11.3176241"><ele>341.0</ele><time>2026-04-12T11:46:54.735Z</time></trkpt><trkpt lat="45.7218428" lon="11.3176654"><ele>341.0</ele><time>2026-04-12T11:46:55.735Z</time></trkpt><trkpt lat="45.7217723" lon="11.3177108"><ele>341.0</ele><time>2026-04-12T11:46:56.734Z</time></trkpt><trkpt lat="45.7217163" lon="11.3177549"><ele>341.0</ele><time>2026-04-12T11:46:57.735Z</time></trkpt><trkpt lat="45.7216601" lon="11.3178325"><ele>341.0</ele><time>2026-04-12T11:46:59.735Z</time></trkpt><trkpt lat="45.7216978" lon="11.3179101"><ele>341.0</ele><time>2026-04-12T11:47:01.735Z</time></trkpt><trkpt lat="45.7218745" lon="11.3179346"><ele>341.0</ele><time>2026-04-12T11:47:03.735Z</time></trkpt><trkpt lat="45.7220091" lon="11.3179231"><ele>341.0</ele><time>2026-04-12T11:47:04.735Z</time></trkpt><trkpt lat="45.7221233" lon="11.317918"><ele>341.0</ele><time>2026-04-12T11:47:05.734Z</time></trkpt><trkpt lat="45.7222173" lon="11.3179259"><ele>341.0</ele><time>2026-04-12T11:47:06.734Z</time></trkpt><trkpt lat="45.7222843" lon="11.3180413"><ele>341.0</ele><time>2026-04-12T11:47:08.734Z</time></trkpt><trkpt lat="45.7222471" lon="11.318236"><ele>341.0</ele><time>2026-04-12T11:47:10.733Z</time></trkpt><trkpt lat="45.7221947" lon="11.3183616"><ele>341.0</ele><time>2026-04-12T11:47:11.733Z</time></trkpt><trkpt lat="45.7221161" lon="11.3185119"><ele>335.33333333333337</ele><time>2026-04-12T11:47:12.734Z</time></trkpt><trkpt lat="45.722026" lon="11.318686"><ele>329.6666666666667</ele><time>2026-04-12T11:47:13.734Z</time></trkpt><trkpt lat="45.7219372" lon="11.3188692"><ele>324.0</ele><time>2026-04-12T11:47:14.733Z</time></trkpt><trkpt lat="45.721855" lon="11.3190521"><ele>317.5</ele><time>2026-04-12T11:47:15.734Z</time></trkpt><trkpt lat="45.7217832" lon="11.3192277"><ele>311.0</ele><time>2026-04-12T11:47:16.734Z</time></trkpt><trkpt lat="45.721714" lon="11.3193949"><ele>304.5</ele><time>2026-04-12T11:47:17.733Z</time></trkpt><trkpt lat="45.7216569" lon="11.3195425"><ele>298.0</ele><time>2026-04-12T11:47:18.734Z</time></trkpt><trkpt lat="45.7216096" lon="11.3196623"><ele>298.0</ele><time>2026-04-12T11:47:19.733Z</time></trkpt><trkpt lat="45.7215625" lon="11.3197465"><ele>298.0</ele><time>2026-04-12T11:47:20.734Z</time></trkpt><trkpt lat="45.7214752" lon="11.3198322"><ele>298.0</ele><time>2026-04-12T11:47:22.734Z</time></trkpt><trkpt lat="45.7214259" lon="11.3196904"><ele>298.0</ele><time>2026-04-12T11:47:24.733Z</time></trkpt><trkpt lat="45.7214316" lon="11.3195642"><ele>298.0</ele><time>2026-04-12T11:47:25.734Z</time></trkpt><trkpt lat="45.7214515" lon="11.3194208"><ele>298.0</ele><time>2026-04-12T11:47:26.734Z</time></trkpt><trkpt lat="45.7214786" lon="11.3192675"><ele>298.0</ele><time>2026-04-12T11:47:27.734Z</time></trkpt><trkpt lat="45.7214942" lon="11.3191406"><ele>298.0</ele><time>2026-04-12T11:47:28.733Z</time></trkpt><trkpt lat="45.7214971" lon="11.3190357"><ele>298.0</ele><time>2026-04-12T11:47:29.734Z</time></trkpt><trkpt lat="45.7214475" lon="11.3189204"><ele>298.0</ele><time>2026-04-12T11:47:31.734Z</time></trkpt><trkpt lat="45.7213189" lon="11.3189786"><ele>298.0</ele><time>2026-04-12T11:47:33.734Z</time></trkpt><trkpt lat="45.7212454" lon="11.3191207"><ele>298.0</ele><time>2026-04-12T11:47:34.733Z</time></trkpt><trkpt lat="45.7211865" lon="11.3192745"><ele>298.0</ele><time>2026-04-12T11:47:35.734Z</time></trkpt><trkpt lat="45.7211406" lon="11.3194392"><ele>298.0</ele><time>2026-04-12T11:47:36.733Z</time></trkpt><trkpt lat="45.7211021" lon="11.3195913"><ele>298.0</ele><time>2026-04-12T11:47:37.733Z</time></trkpt><trkpt lat="45.7210664" lon="11.3197281"><ele>298.0</ele><time>2026-04-12T11:47:38.734Z</time></trkpt><trkpt lat="45.7210107" lon="11.3198108"><ele>298.0</ele><time>2026-04-12T11:47:39.733Z</time></trkpt><trkpt lat="45.7209507" lon="11.3198633"><ele>298.0</ele><time>2026-04-12T11:47:40.734Z</time></trkpt><trkpt lat="45.7208624" lon="11.3198621"><ele>298.0</ele><time>2026-04-12T11:47:41.734Z</time></trkpt><trkpt lat="45.7207551" lon="11.3198305"><ele>293.75</ele><time>2026-04-12T11:47:42.733Z</time></trkpt><trkpt lat="45.7206444" lon="11.3198058"><ele>289.5</ele><time>2026-04-12T11:47:43.734Z</time></trkpt><trkpt lat="45.7205263" lon="11.3197866"><ele>285.25</ele><time>2026-04-12T11:47:44.734Z</time></trkpt><trkpt lat="45.7204075" lon="11.3197674"><ele>281.0</ele><time>2026-04-12T11:47:45.734Z</time></trkpt><trkpt lat="45.7203038" lon="11.3197327"><ele>278.40000000000003</ele><time>2026-04-12T11:47:46.734Z</time></trkpt><trkpt lat="45.7202101" lon="11.3196861"><ele>275.8</ele><time>2026-04-12T11:47:47.734Z</time></trkpt><trkpt lat="45.720109" lon="11.3196239"><ele>273.20000000000005</ele><time>2026-04-12T11:47:48.734Z</time></trkpt><trkpt lat="45.7200023" lon="11.3195492"><ele>270.6</ele><time>2026-04-12T11:47:49.734Z</time></trkpt><trkpt lat="45.7199046" lon="11.3194738"><ele>268.0</ele><time>2026-04-12T11:47:50.734Z</time></trkpt><trkpt lat="45.7198275" lon="11.3194058"><ele>268.0</ele><time>2026-04-12T11:47:51.733Z</time></trkpt><trkpt lat="45.7197588" lon="11.319324"><ele>268.0</ele><time>2026-04-12T11:47:53.733Z</time></trkpt><trkpt lat="45.7197501" lon="11.3191878"><ele>268.0</ele><time>2026-04-12T11:47:56.734Z</time></trkpt><trkpt lat="45.7197245" lon="11.3190272"><ele>268.0</ele><time>2026-04-12T11:47:58.734Z</time></trkpt><trkpt lat="45.7197005" lon="11.318934"><ele>268.0</ele><time>2026-04-12T11:47:59.733Z</time></trkpt><trkpt lat="45.7196732" lon="11.3188227"><ele>269.2</ele><time>2026-04-12T11:48:00.733Z</time></trkpt><trkpt lat="45.7196432" lon="11.3186999"><ele>270.4</ele><time>2026-04-12T11:48:01.733Z</time></trkpt><trkpt lat="45.7196103" lon="11.3185704"><ele>271.59999999999997</ele><time>2026-04-12T11:48:02.733Z</time></trkpt><trkpt lat="45.7195781" lon="11.3184307"><ele>272.8</ele><time>2026-04-12T11:48:03.733Z</time></trkpt><trkpt lat="45.7195516" lon="11.3183078"><ele>274.0</ele><time>2026-04-12T11:48:04.734Z</time></trkpt><trkpt lat="45.7195321" lon="11.3181876"><ele>274.4</ele><time>2026-04-12T11:48:05.733Z</time></trkpt><trkpt lat="45.7195191" lon="11.3180651"><ele>274.79999999999995</ele><time>2026-04-12T11:48:06.733Z</time></trkpt><trkpt lat="45.7195108" lon="11.3179411"><ele>275.20000000000005</ele><time>2026-04-12T11:48:07.733Z</time></trkpt><trkpt lat="45.7194983" lon="11.31781"><ele>275.6</ele><time>2026-04-12T11:48:08.734Z</time></trkpt><trkpt lat="45.7194899" lon="11.3176745"><ele>276.0</ele><time>2026-04-12T11:48:09.734Z</time></trkpt><trkpt lat="45.7194735" lon="11.317526"><ele>276.0</ele><time>2026-04-12T11:48:10.733Z</time></trkpt><trkpt lat="45.7194481" lon="11.3173793"><ele>276.0</ele><time>2026-04-12T11:48:11.733Z</time></trkpt><trkpt lat="45.7194138" lon="11.3172328"><ele>276.0</ele><time>2026-04-12T11:48:12.734Z</time></trkpt><trkpt lat="45.7193737" lon="11.3170985"><ele>276.0</ele><time>2026-04-12T11:48:13.734Z</time></trkpt><trkpt lat="45.7193226" lon="11.3169614"><ele>276.0</ele><time>2026-04-12T11:48:14.734Z</time></trkpt><trkpt lat="45.7192732" lon="11.3168319"><ele>272.8</ele><time>2026-04-12T11:48:15.733Z</time></trkpt><trkpt lat="45.7192387" lon="11.3166979"><ele>269.6</ele><time>2026-04-12T11:48:16.733Z</time></trkpt><trkpt lat="45.7192154" lon="11.3165568"><ele>266.4</ele><time>2026-04-12T11:48:17.733Z</time></trkpt><trkpt lat="45.7192036" lon="11.3164134"><ele>263.2</ele><time>2026-04-12T11:48:18.734Z</time></trkpt><trkpt lat="45.7191961" lon="11.3162695"><ele>260.0</ele><time>2026-04-12T11:48:19.734Z</time></trkpt><trkpt lat="45.7191932" lon="11.3161252"><ele>260.0</ele><time>2026-04-12T11:48:20.734Z</time></trkpt><trkpt lat="45.7191925" lon="11.3159896"><ele>260.0</ele><time>2026-04-12T11:48:21.734Z</time></trkpt><trkpt lat="45.7191903" lon="11.3158477"><ele>260.0</ele><time>2026-04-12T11:48:22.733Z</time></trkpt><trkpt lat="45.7191885" lon="11.3157122"><ele>260.0</ele><time>2026-04-12T11:48:23.733Z</time></trkpt><trkpt lat="45.7191899" lon="11.3155767"><ele>260.0</ele><time>2026-04-12T11:48:24.733Z</time></trkpt><trkpt lat="45.7192013" lon="11.3154567"><ele>260.33333333333337</ele><time>2026-04-12T11:48:25.733Z</time></trkpt><trkpt lat="45.7192073" lon="11.3153564"><ele>260.6666666666667</ele><time>2026-04-12T11:48:26.733Z</time></trkpt><trkpt lat="45.719181" lon="11.3152051"><ele>261.0</ele><time>2026-04-12T11:48:28.734Z</time></trkpt><trkpt lat="45.7191118" lon="11.3151643"><ele>261.3333333333333</ele><time>2026-04-12T11:48:30.734Z</time></trkpt><trkpt lat="45.719045" lon="11.3152018"><ele>261.66666666666663</ele><time>2026-04-12T11:48:33.734Z</time></trkpt><trkpt lat="45.7189703" lon="11.315285"><ele>262.0</ele><time>2026-04-12T11:48:35.733Z</time></trkpt><trkpt lat="45.7188291" lon="11.3153046"><ele>262.0</ele><time>2026-04-12T11:48:37.734Z</time></trkpt><trkpt lat="45.7187309" lon="11.3152971"><ele>262.0</ele><time>2026-04-12T11:48:38.733Z</time></trkpt><trkpt lat="45.7186273" lon="11.3152916"><ele>262.0</ele><time>2026-04-12T11:48:39.733Z</time></trkpt><trkpt lat="45.7185208" lon="11.3152873"><ele>262.0</ele><time>2026-04-12T11:48:40.734Z</time></trkpt><trkpt lat="45.7184227" lon="11.315281"><ele>262.0</ele><time>2026-04-12T11:48:41.733Z</time></trkpt><trkpt lat="45.7183189" lon="11.3152574"><ele>261.0</ele><time>2026-04-12T11:48:42.733Z</time></trkpt><trkpt lat="45.7182186" lon="11.3152139"><ele>260.0</ele><time>2026-04-12T11:48:43.734Z</time></trkpt><trkpt lat="45.7181149" lon="11.3151582"><ele>259.0</ele><time>2026-04-12T11:48:44.734Z</time></trkpt><trkpt lat="45.7180246" lon="11.3150586"><ele>258.0</ele><time>2026-04-12T11:48:45.734Z</time></trkpt><trkpt lat="45.7179339" lon="11.3149407"><ele>258.0</ele><time>2026-04-12T11:48:46.733Z</time></trkpt><trkpt lat="45.7178397" lon="11.3148258"><ele>258.0</ele><time>2026-04-12T11:48:47.734Z</time></trkpt><trkpt lat="45.71775" lon="11.3147172"><ele>258.0</ele><time>2026-04-12T11:48:48.734Z</time></trkpt><trkpt lat="45.717666" lon="11.314624"><ele>258.0</ele><time>2026-04-12T11:48:49.733Z</time></trkpt><trkpt lat="45.7175897" lon="11.3145483"><ele>258.0</ele><time>2026-04-12T11:48:50.733Z</time></trkpt><trkpt lat="45.7175219" lon="11.3144876"><ele>257.3333333333333</ele><time>2026-04-12T11:48:51.733Z</time></trkpt><trkpt lat="45.7174578" lon="11.3144306"><ele>256.6666666666667</ele><time>2026-04-12T11:48:52.733Z</time></trkpt><trkpt lat="45.7174004" lon="11.3143887"><ele>256.0</ele><time>2026-04-12T11:48:53.733Z</time></trkpt><trkpt lat="45.7172846" lon="11.3143846"><ele>255.33333333333334</ele><time>2026-04-12T11:48:55.734Z</time></trkpt><trkpt lat="45.7172391" lon="11.3144532"><ele>254.66666666666669</ele><time>2026-04-12T11:48:56.734Z</time></trkpt><trkpt lat="45.7171944" lon="11.3145337"><ele>254.0</ele><time>2026-04-12T11:48:57.733Z</time></trkpt><trkpt lat="45.7171424" lon="11.3146032"><ele>254.0</ele><time>2026-04-12T11:48:58.734Z</time></trkpt><trkpt lat="45.7170301" lon="11.3146648"><ele>253.99999999999997</ele><time>2026-04-12T11:49:00.734Z</time></trkpt><trkpt lat="45.7169582" lon="11.3146526"><ele>253.99999999999997</ele><time>2026-04-12T11:49:01.733Z</time></trkpt><trkpt lat="45.7168757" lon="11.3146269"><ele>254.0</ele><time>2026-04-12T11:49:02.734Z</time></trkpt><trkpt lat="45.7167843" lon="11.3145914"><ele>254.0</ele><time>2026-04-12T11:49:03.734Z</time></trkpt><trkpt lat="45.7166845" lon="11.3145505"><ele>253.39999999999998</ele><time>2026-04-12T11:49:04.733Z</time></trkpt><trkpt lat="45.7165867" lon="11.3145024"><ele>252.79999999999998</ele><time>2026-04-12T11:49:05.733Z</time></trkpt><trkpt lat="45.7164851" lon="11.31445"><ele>252.20000000000002</ele><time>2026-04-12T11:49:06.734Z</time></trkpt><trkpt lat="45.7163828" lon="11.3144009"><ele>251.60000000000002</ele><time>2026-04-12T11:49:07.733Z</time></trkpt><trkpt lat="45.7162832" lon="11.3143492"><ele>251.0</ele><time>2026-04-12T11:49:08.733Z</time></trkpt><trkpt lat="45.7161912" lon="11.3143075"><ele>251.0</ele><time>2026-04-12T11:49:09.733Z</time></trkpt><trkpt lat="45.7161028" lon="11.3142539"><ele>251.00000000000003</ele><time>2026-04-12T11:49:10.734Z</time></trkpt><trkpt lat="45.7160178" lon="11.3142062"><ele>251.00000000000003</ele><time>2026-04-12T11:49:11.733Z</time></trkpt><trkpt lat="45.7159377" lon="11.3141584"><ele>251.0</ele><time>2026-04-12T11:49:12.733Z</time></trkpt><trkpt lat="45.7158601" lon="11.3140904"><ele>251.0</ele><time>2026-04-12T11:49:13.734Z</time></trkpt><trkpt lat="45.7157997" lon="11.3139891"><ele>250.0</ele><time>2026-04-12T11:49:14.733Z</time></trkpt><trkpt lat="45.7157518" lon="11.3138587"><ele>249.00000000000003</ele><time>2026-04-12T11:49:15.734Z</time></trkpt><trkpt lat="45.7157059" lon="11.3137292"><ele>248.00000000000003</ele><time>2026-04-12T11:49:16.734Z</time></trkpt><trkpt lat="45.7156494" lon="11.313628"><ele>247.0</ele><time>2026-04-12T11:49:17.734Z</time></trkpt><trkpt lat="45.7155641" lon="11.313563"><ele>246.0</ele><time>2026-04-12T11:49:18.734Z</time></trkpt><trkpt lat="45.7154527" lon="11.3135228"><ele>246.0</ele><time>2026-04-12T11:49:19.734Z</time></trkpt><trkpt lat="45.7153338" lon="11.3134965"><ele>246.00000000000003</ele><time>2026-04-12T11:49:20.733Z</time></trkpt><trkpt lat="45.7152276" lon="11.3134868"><ele>246.00000000000003</ele><time>2026-04-12T11:49:21.734Z</time></trkpt><trkpt lat="45.7151309" lon="11.3134815"><ele>246.0</ele><time>2026-04-12T11:49:22.733Z</time></trkpt><trkpt lat="45.7150446" lon="11.3134785"><ele>246.0</ele><time>2026-04-12T11:49:23.734Z</time></trkpt><trkpt lat="45.7149677" lon="11.3134669"><ele>244.60000000000002</ele><time>2026-04-12T11:49:24.734Z</time></trkpt><trkpt lat="45.7148975" lon="11.3134559"><ele>243.20000000000002</ele><time>2026-04-12T11:49:25.734Z</time></trkpt><trkpt lat="45.7148043" lon="11.3133895"><ele>241.79999999999998</ele><time>2026-04-12T11:49:27.734Z</time></trkpt><trkpt lat="45.7147588" lon="11.3132159"><ele>240.39999999999998</ele><time>2026-04-12T11:49:29.734Z</time></trkpt><trkpt lat="45.7147638" lon="11.3130872"><ele>239.0</ele><time>2026-04-12T11:49:30.734Z</time></trkpt><trkpt lat="45.7147848" lon="11.3129335"><ele>238.75</ele><time>2026-04-12T11:49:31.734Z</time></trkpt><trkpt lat="45.7148158" lon="11.3127726"><ele>238.5</ele><time>2026-04-12T11:49:32.733Z</time></trkpt><trkpt lat="45.7148526" lon="11.3126003"><ele>238.25</ele><time>2026-04-12T11:49:33.733Z</time></trkpt><trkpt lat="45.7148838" lon="11.3124173"><ele>238.0</ele><time>2026-04-12T11:49:34.734Z</time></trkpt><trkpt lat="45.714908" lon="11.3122439"><ele>237.83333333333331</ele><time>2026-04-12T11:49:35.733Z</time></trkpt><trkpt lat="45.7149263" lon="11.3120961"><ele>237.66666666666666</ele><time>2026-04-12T11:49:36.734Z</time></trkpt><trkpt lat="45.7149388" lon="11.3119725"><ele>237.5</ele><time>2026-04-12T11:49:37.734Z</time></trkpt><trkpt lat="45.7149403" lon="11.3118771"><ele>237.33333333333331</ele><time>2026-04-12T11:49:38.734Z</time></trkpt><trkpt lat="45.7149219" lon="11.3117783"><ele>237.16666666666666</ele><time>2026-04-12T11:49:41.733Z</time></trkpt><trkpt lat="45.7148462" lon="11.3117358"><ele>237.0</ele><time>2026-04-12T11:49:43.734Z</time></trkpt><trkpt lat="45.714732" lon="11.311688"><ele>237.0</ele><time>2026-04-12T11:49:45.734Z</time></trkpt><trkpt lat="45.7146657" lon="11.3116685"><ele>237.0</ele><time>2026-04-12T11:49:47.734Z</time></trkpt><trkpt lat="45.7146369" lon="11.3115728"><ele>237.0</ele><time>2026-04-12T11:49:52.733Z</time></trkpt><trkpt lat="45.7146505" lon="11.3114294"><ele>237.0</ele><time>2026-04-12T11:49:54.733Z</time></trkpt><trkpt lat="45.7146653" lon="11.311334"><ele>237.0</ele><time>2026-04-12T11:49:55.734Z</time></trkpt><trkpt lat="45.7146867" lon="11.3112205"><ele>237.0</ele><time>2026-04-12T11:49:56.734Z</time></trkpt><trkpt lat="45.7147097" lon="11.3110865"><ele>237.5</ele><time>2026-04-12T11:49:57.733Z</time></trkpt><trkpt lat="45.7147368" lon="11.3109255"><ele>238.0</ele><time>2026-04-12T11:49:58.733Z</time></trkpt><trkpt lat="45.7147672" lon="11.3107543"><ele>238.5</ele><time>2026-04-12T11:49:59.733Z</time></trkpt><trkpt lat="45.7148145" lon="11.310556"><ele>239.0</ele><time>2026-04-12T11:50:00.734Z</time></trkpt><trkpt lat="45.7148669" lon="11.3103616"><ele>239.66666666666669</ele><time>2026-04-12T11:50:01.734Z</time></trkpt><trkpt lat="45.7149421" lon="11.3101594"><ele>240.33333333333331</ele><time>2026-04-12T11:50:02.734Z</time></trkpt><trkpt lat="45.7150411" lon="11.3099583"><ele>241.0</ele><time>2026-04-12T11:50:03.734Z</time></trkpt><trkpt lat="45.7151651" lon="11.309758"><ele>241.66666666666666</ele><time>2026-04-12T11:50:04.733Z</time></trkpt><trkpt lat="45.7153193" lon="11.3095534"><ele>242.33333333333331</ele><time>2026-04-12T11:50:05.733Z</time></trkpt><trkpt lat="45.7155007" lon="11.3093391"><ele>243.0</ele><time>2026-04-12T11:50:06.733Z</time></trkpt><trkpt lat="45.7157018" lon="11.3091112"><ele>242.5</ele><time>2026-04-12T11:50:07.733Z</time></trkpt><trkpt lat="45.7159116" lon="11.3088692"><ele>242.0</ele><time>2026-04-12T11:50:08.733Z</time></trkpt><trkpt lat="45.7161125" lon="11.3086262"><ele>243.5</ele><time>2026-04-12T11:50:09.734Z</time></trkpt><trkpt lat="45.7162914" lon="11.3083945"><ele>245.0</ele><time>2026-04-12T11:50:10.734Z</time></trkpt><trkpt lat="45.716448" lon="11.3081813"><ele>245.33333333333334</ele><time>2026-04-12T11:50:11.733Z</time></trkpt><trkpt lat="45.7165889" lon="11.3079799"><ele>245.66666666666669</ele><time>2026-04-12T11:50:12.733Z</time></trkpt><trkpt lat="45.7167176" lon="11.3077911"><ele>246.0</ele><time>2026-04-12T11:50:13.734Z</time></trkpt><trkpt lat="45.7168234" lon="11.3076095"><ele>246.0</ele><time>2026-04-12T11:50:14.733Z</time></trkpt><trkpt lat="45.7169228" lon="11.3074263"><ele>246.0</ele><time>2026-04-12T11:50:15.733Z</time></trkpt><trkpt lat="45.7170143" lon="11.3072512"><ele>246.0</ele><time>2026-04-12T11:50:16.734Z</time></trkpt><trkpt lat="45.7170867" lon="11.3070987"><ele>246.0</ele><time>2026-04-12T11:50:17.734Z</time></trkpt><trkpt lat="45.7171516" lon="11.306968"><ele>246.0</ele><time>2026-04-12T11:50:18.733Z</time></trkpt><trkpt lat="45.7172052" lon="11.3068419"><ele>246.00000000000003</ele><time>2026-04-12T11:50:19.733Z</time></trkpt><trkpt lat="45.7172548" lon="11.3067456"><ele>246.00000000000003</ele><time>2026-04-12T11:50:20.734Z</time></trkpt><trkpt lat="45.7172883" lon="11.306662"><ele>246.0</ele><time>2026-04-12T11:50:21.733Z</time></trkpt><trkpt lat="45.7172758" lon="11.3065295"><ele>246.0</ele><time>2026-04-12T11:50:23.734Z</time></trkpt><trkpt lat="45.7171807" lon="11.306459"><ele>246.0</ele><time>2026-04-12T11:50:25.733Z</time></trkpt><trkpt lat="45.7171161" lon="11.3064816"><ele>246.0</ele><time>2026-04-12T11:50:26.734Z</time></trkpt><trkpt lat="45.7170653" lon="11.3065609"><ele>246.0</ele><time>2026-04-12T11:50:27.734Z</time></trkpt><trkpt lat="45.717029" lon="11.3066757"><ele>246.0</ele><time>2026-04-12T11:50:28.734Z</time></trkpt><trkpt lat="45.7170018" lon="11.3067994"><ele>246.0</ele><time>2026-04-12T11:50:29.734Z</time></trkpt><trkpt lat="45.7169736" lon="11.3069253"><ele>246.0</ele><time>2026-04-12T11:50:30.734Z</time></trkpt><trkpt lat="45.7169316" lon="11.3070467"><ele>246.0</ele><time>2026-04-12T11:50:31.733Z</time></trkpt><trkpt lat="45.7168763" lon="11.3071773"><ele>246.0</ele><time>2026-04-12T11:50:32.733Z</time></trkpt><trkpt lat="45.7168115" lon="11.3073107"><ele>246.0</ele><time>2026-04-12T11:50:33.734Z</time></trkpt><trkpt lat="45.7167457" lon="11.3074465"><ele>246.0</ele><time>2026-04-12T11:50:34.734Z</time></trkpt><trkpt lat="45.7166767" lon="11.3075799"><ele>246.0</ele><time>2026-04-12T11:50:35.733Z</time></trkpt><trkpt lat="45.7165984" lon="11.307708"><ele>246.0</ele><time>2026-04-12T11:50:36.733Z</time></trkpt><trkpt lat="45.7165139" lon="11.3078276"><ele>246.0</ele><time>2026-04-12T11:50:37.733Z</time></trkpt><trkpt lat="45.716429" lon="11.3079327"><ele>246.0</ele><time>2026-04-12T11:50:38.734Z</time></trkpt><trkpt lat="45.7163383" lon="11.3080436"><ele>245.75</ele><time>2026-04-12T11:50:39.734Z</time></trkpt><trkpt lat="45.7162434" lon="11.3081445"><ele>245.5</ele><time>2026-04-12T11:50:40.734Z</time></trkpt><trkpt lat="45.7161494" lon="11.3082234"><ele>245.25</ele><time>2026-04-12T11:50:41.733Z</time></trkpt><trkpt lat="45.716053" lon="11.3083073"><ele>245.0</ele><time>2026-04-12T11:50:42.734Z</time></trkpt><trkpt lat="45.7159482" lon="11.3083908"><ele>244.4</ele><time>2026-04-12T11:50:43.733Z</time></trkpt><trkpt lat="45.7158479" lon="11.3084733"><ele>243.8</ele><time>2026-04-12T11:50:44.733Z</time></trkpt><trkpt lat="45.7157509" lon="11.3085544"><ele>243.2</ele><time>2026-04-12T11:50:45.733Z</time></trkpt><trkpt lat="45.7156624" lon="11.3086194"><ele>242.6</ele><time>2026-04-12T11:50:46.734Z</time></trkpt><trkpt lat="45.715578" lon="11.3086822"><ele>242.0</ele><time>2026-04-12T11:50:47.733Z</time></trkpt><trkpt lat="45.715501" lon="11.3087379"><ele>242.00000000000003</ele><time>2026-04-12T11:50:48.733Z</time></trkpt><trkpt lat="45.7154357" lon="11.308793"><ele>242.0</ele><time>2026-04-12T11:50:49.733Z</time></trkpt><trkpt lat="45.7153736" lon="11.3088482"><ele>242.0</ele><time>2026-04-12T11:50:50.733Z</time></trkpt><trkpt lat="45.7153146" lon="11.3088965"><ele>242.0</ele><time>2026-04-12T11:50:51.734Z</time></trkpt><trkpt lat="45.7152194" lon="11.3089976"><ele>242.00000000000003</ele><time>2026-04-12T11:50:53.734Z</time></trkpt><trkpt lat="45.715135" lon="11.3090334"><ele>242.0</ele><time>2026-04-12T11:50:55.733Z</time></trkpt><trkpt lat="45.7150636" lon="11.3089637"><ele>242.0</ele><time>2026-04-12T11:50:58.733Z</time></trkpt></trkseg></trk></gpx>